<?xml version='1.0' encoding='UTF-8'?><gpx version="1.1" creator="JPX - https://github.com/jenetics/jpx" xmlns="http://www.topografix.com/GPX/1/1"><trk><trkseg><trkpt lat="56.03090240305019" lon="22.193288624636754"><ele>154.0</ele><time>2026-04-18T09:34:25.723Z</time></trkpt><trkpt lat="56.03082868009765" lon="22.193356840500055"><ele>154.0</ele><time>2026-04-18T09:34:36.984Z</time></trkpt><trkpt lat="56.03076322071617" lon="22.193519651461223"><ele>154.0</ele><time>2026-04-18T09:34:39.987Z</time></trkpt><trkpt lat="56.030790895207836" lon="22.193847096551977"><ele>154.0</ele><time>2026-04-18T09:34:40.988Z</time></trkpt><trkpt lat="56.030783407887824" lon="22.194050643557656"><ele>153.5</ele><time>2026-04-18T09:34:41.988Z</time></trkpt><trkpt lat="56.03077835845078" lon="22.19420676756213"><ele>153.0</ele><time>2026-04-18T09:34:42.989Z</time></trkpt><trkpt lat="56.0307711965637" lon="22.19431998320385"><ele>152.5</ele><time>2026-04-18T09:34:43.99Z</time></trkpt><trkpt lat="56.030757837925776" lon="22.1944731817148"><ele>152.0</ele><time>2026-04-18T09:34:45.991Z</time></trkpt><trkpt lat="56.03064066832853" lon="22.194529417181535"><ele>151.5</ele><time>2026-04-18T09:34:48.993Z</time></trkpt><trkpt lat="56.03056986032188" lon="22.194534930728278"><ele>151.0</ele><time>2026-04-18T09:34:49.993Z</time></trkpt><trkpt lat="56.030456953985514" lon="22.194522628754015"><ele>151.0</ele><time>2026-04-18T09:34:50.994Z</time></trkpt><trkpt lat="56.03030648847815" lon="22.19452021815269"><ele>151.0</ele><time>2026-04-18T09:34:51.994Z</time></trkpt><trkpt lat="56.030162121170605" lon="22.194537524867503"><ele>151.0</ele><time>2026-04-18T09:34:52.995Z</time></trkpt><trkpt lat="56.029991117086524" lon="22.19452497414482"><ele>151.0</ele><time>2026-04-18T09:34:53.995Z</time></trkpt><trkpt lat="56.02980843865412" lon="22.194530102871088"><ele>151.0</ele><time>2026-04-18T09:34:54.995Z</time></trkpt><trkpt lat="56.02964318707704" lon="22.194510456576975"><ele>151.0</ele><time>2026-04-18T09:34:55.996Z</time></trkpt><trkpt lat="56.02949870499792" lon="22.194492444074637"><ele>151.0</ele><time>2026-04-18T09:34:56.996Z</time></trkpt><trkpt lat="56.02939631028153" lon="22.19451316950071"><ele>151.0</ele><time>2026-04-18T09:34:57.996Z</time></trkpt><trkpt lat="56.02930433987873" lon="22.194488322501677"><ele>151.0</ele><time>2026-04-18T09:34:58.997Z</time></trkpt><trkpt lat="56.02922401327278" lon="22.194474776159893"><ele>151.0</ele><time>2026-04-18T09:35:02.998Z</time></trkpt><trkpt lat="56.02917108076025" lon="22.19479442174469"><ele>150.5</ele><time>2026-04-18T09:35:04.998Z</time></trkpt><trkpt lat="56.02917618318283" lon="22.195005749566537"><ele>150.0</ele><time>2026-04-18T09:35:05.998Z</time></trkpt><trkpt lat="56.029176840785404" lon="22.195223129641896"><ele>149.5</ele><time>2026-04-18T09:35:06.998Z</time></trkpt><trkpt lat="56.02918193840592" lon="22.195452910899036"><ele>149.0</ele><time>2026-04-18T09:35:07.998Z</time></trkpt><trkpt lat="56.02917473014134" lon="22.195701352626518"><ele>149.0</ele><time>2026-04-18T09:35:08.999Z</time></trkpt><trkpt lat="56.029164048399785" lon="22.19597529526777"><ele>149.0</ele><time>2026-04-18T09:35:09.999Z</time></trkpt><trkpt lat="56.02916094966787" lon="22.196235581350567"><ele>149.0</ele><time>2026-04-18T09:35:10.999Z</time></trkpt><trkpt lat="56.02915899212949" lon="22.196499532143278"><ele>149.0</ele><time>2026-04-18T09:35:11.999Z</time></trkpt><trkpt lat="56.02915077067942" lon="22.19676606275152"><ele>149.0</ele><time>2026-04-18T09:35:12.999Z</time></trkpt><trkpt lat="56.029143148454615" lon="22.197047391937236"><ele>149.0</ele><time>2026-04-18T09:35:13.999Z</time></trkpt><trkpt lat="56.02913753759531" lon="22.197325469052114"><ele>149.0</ele><time>2026-04-18T09:35:14.999Z</time></trkpt><trkpt lat="56.02913161469294" lon="22.197611218263958"><ele>149.0</ele><time>2026-04-18T09:35:15.999Z</time></trkpt><trkpt lat="56.02913015799915" lon="22.197881058807738"><ele>149.0</ele><time>2026-04-18T09:35:16.999Z</time></trkpt><trkpt lat="56.02911154479445" lon="22.198110306581263"><ele>149.0</ele><time>2026-04-18T09:35:18Z</time></trkpt><trkpt lat="56.029106893387244" lon="22.198351047888163"><ele>149.0</ele><time>2026-04-18T09:35:19Z</time></trkpt><trkpt lat="56.02910187910207" lon="22.198611556755125"><ele>148.25</ele><time>2026-04-18T09:35:20Z</time></trkpt><trkpt lat="56.0290968069221" lon="22.198875073264634"><ele>147.5</ele><time>2026-04-18T09:35:21Z</time></trkpt><trkpt lat="56.02909373272619" lon="22.199138070498485"><ele>146.75</ele><time>2026-04-18T09:35:22Z</time></trkpt><trkpt lat="56.02909092369094" lon="22.199397437890283"><ele>146.0</ele><time>2026-04-18T09:35:23Z</time></trkpt><trkpt lat="56.029088564662466" lon="22.19964793205686"><ele>144.5</ele><time>2026-04-18T09:35:24Z</time></trkpt><trkpt lat="56.02910185869025" lon="22.199893927535594"><ele>143.0</ele><time>2026-04-18T09:35:25Z</time></trkpt><trkpt lat="56.02908389902968" lon="22.200137322819778"><ele>141.5</ele><time>2026-04-18T09:35:26Z</time></trkpt><trkpt lat="56.0290967350852" lon="22.20037096475581"><ele>140.0</ele><time>2026-04-18T09:35:27Z</time></trkpt><trkpt lat="56.029089617947896" lon="22.200600252374723"><ele>139.33333333333331</ele><time>2026-04-18T09:35:28Z</time></trkpt><trkpt lat="56.02908717494671" lon="22.20087206437917"><ele>138.66666666666666</ele><time>2026-04-18T09:35:29Z</time></trkpt><trkpt lat="56.02908643118404" lon="22.20118180561729"><ele>138.0</ele><time>2026-04-18T09:35:30Z</time></trkpt><trkpt lat="56.02908304356015" lon="22.201486166983695"><ele>138.0</ele><time>2026-04-18T09:35:31Z</time></trkpt><trkpt lat="56.029077585350635" lon="22.201804574942127"><ele>138.0</ele><time>2026-04-18T09:35:32Z</time></trkpt><trkpt lat="56.0290533265139" lon="22.20213519017761"><ele>138.0</ele><time>2026-04-18T09:35:33Z</time></trkpt><trkpt lat="56.02904272807385" lon="22.20247455395309"><ele>138.0</ele><time>2026-04-18T09:35:34Z</time></trkpt><trkpt lat="56.02904257993144" lon="22.202810465414654"><ele>138.0</ele><time>2026-04-18T09:35:35Z</time></trkpt><trkpt lat="56.0290136077173" lon="22.203145985718695"><ele>138.0</ele><time>2026-04-18T09:35:36Z</time></trkpt><trkpt lat="56.02897016406821" lon="22.20345415677589"><ele>136.66666666666666</ele><time>2026-04-18T09:35:37Z</time></trkpt><trkpt lat="56.02889748930541" lon="22.203753363104138"><ele>135.33333333333331</ele><time>2026-04-18T09:35:38Z</time></trkpt><trkpt lat="56.028841859584304" lon="22.204070721902394"><ele>134.0</ele><time>2026-04-18T09:35:39.001Z</time></trkpt><trkpt lat="56.02875599140361" lon="22.204378832975788"><ele>133.33333333333331</ele><time>2026-04-18T09:35:40.001Z</time></trkpt><trkpt lat="56.028660565179855" lon="22.204675312134835"><ele>132.66666666666666</ele><time>2026-04-18T09:35:41.001Z</time></trkpt><trkpt lat="56.02856769292271" lon="22.204953132029242"><ele>132.0</ele><time>2026-04-18T09:35:42.001Z</time></trkpt><trkpt lat="56.02848097963392" lon="22.205208186364622"><ele>132.0</ele><time>2026-04-18T09:35:43.001Z</time></trkpt><trkpt lat="56.02840393858155" lon="22.20542998838564"><ele>132.0</ele><time>2026-04-18T09:35:44.001Z</time></trkpt><trkpt lat="56.0283337239307" lon="22.20564211833919"><ele>132.0</ele><time>2026-04-18T09:35:45.001Z</time></trkpt><trkpt lat="56.02827075687899" lon="22.205837257024303"><ele>132.0</ele><time>2026-04-18T09:35:46.001Z</time></trkpt><trkpt lat="56.02821015286174" lon="22.206023091048877"><ele>132.0</ele><time>2026-04-18T09:35:47.001Z</time></trkpt><trkpt lat="56.02816101329212" lon="22.20617663632011"><ele>132.0</ele><time>2026-04-18T09:35:48.001Z</time></trkpt><trkpt lat="56.02812170848635" lon="22.206308423912823"><ele>132.0</ele><time>2026-04-18T09:35:49.001Z</time></trkpt><trkpt lat="56.02808824763458" lon="22.206418851827767"><ele>132.0</ele><time>2026-04-18T09:35:50.001Z</time></trkpt><trkpt lat="56.02805080954401" lon="22.206517218134067"><ele>132.0</ele><time>2026-04-18T09:35:51.001Z</time></trkpt><trkpt lat="56.027999663467796" lon="22.20660216724162"><ele>132.0</ele><time>2026-04-18T09:35:52.001Z</time></trkpt><trkpt lat="56.02790668486431" lon="22.20667046579216"><ele>132.0</ele><time>2026-04-18T09:35:53.001Z</time></trkpt><trkpt lat="56.02780249842123" lon="22.20669293630255"><ele>132.0</ele><time>2026-04-18T09:35:54.001Z</time></trkpt><trkpt lat="56.027668718494304" lon="22.206744819375213"><ele>132.0</ele><time>2026-04-18T09:35:55.001Z</time></trkpt><trkpt lat="56.027507249003676" lon="22.206772922874375"><ele>132.0</ele><time>2026-04-18T09:35:56.001Z</time></trkpt><trkpt lat="56.02731924425803" lon="22.20682853872672"><ele>132.0</ele><time>2026-04-18T09:35:57.001Z</time></trkpt><trkpt lat="56.027128726142244" lon="22.2069076976972"><ele>132.0</ele><time>2026-04-18T09:35:58.001Z</time></trkpt><trkpt lat="56.02694008846172" lon="22.206985799908413"><ele>132.0</ele><time>2026-04-18T09:35:59.001Z</time></trkpt><trkpt lat="56.026746171616104" lon="22.20707866002412"><ele>131.66666666666666</ele><time>2026-04-18T09:36:00.001Z</time></trkpt><trkpt lat="56.026536120740175" lon="22.207202540568584"><ele>131.33333333333331</ele><time>2026-04-18T09:36:01.001Z</time></trkpt><trkpt lat="56.02632942893649" lon="22.207343801492392"><ele>131.0</ele><time>2026-04-18T09:36:02.001Z</time></trkpt><trkpt lat="56.02612607996993" lon="22.207504333804035"><ele>131.0</ele><time>2026-04-18T09:36:03.001Z</time></trkpt><trkpt lat="56.02593079457429" lon="22.207685392632037"><ele>131.0</ele><time>2026-04-18T09:36:04.001Z</time></trkpt><trkpt lat="56.02574573698086" lon="22.20788231468139"><ele>131.0</ele><time>2026-04-18T09:36:05.001Z</time></trkpt><trkpt lat="56.02556459606416" lon="22.20809365492611"><ele>131.33333333333331</ele><time>2026-04-18T09:36:06.001Z</time></trkpt><trkpt lat="56.0253816661264" lon="22.208292425551043"><ele>131.66666666666666</ele><time>2026-04-18T09:36:07.001Z</time></trkpt><trkpt lat="56.02522929549333" lon="22.208553007866264"><ele>132.0</ele><time>2026-04-18T09:36:08.001Z</time></trkpt><trkpt lat="56.025076876361595" lon="22.208801384810815"><ele>133.33333333333334</ele><time>2026-04-18T09:36:09.001Z</time></trkpt><trkpt lat="56.02492962905337" lon="22.209070162002035"><ele>134.66666666666669</ele><time>2026-04-18T09:36:10.001Z</time></trkpt><trkpt lat="56.02478600460374" lon="22.209342539173438"><ele>136.0</ele><time>2026-04-18T09:36:11.001Z</time></trkpt><trkpt lat="56.02464444196215" lon="22.209609017003054"><ele>135.66666666666669</ele><time>2026-04-18T09:36:12.001Z</time></trkpt><trkpt lat="56.0245046039422" lon="22.209872062481928"><ele>135.33333333333334</ele><time>2026-04-18T09:36:13.001Z</time></trkpt><trkpt lat="56.02436368435266" lon="22.210138466079158"><ele>135.0</ele><time>2026-04-18T09:36:14.001Z</time></trkpt><trkpt lat="56.02422874182054" lon="22.21040231702127"><ele>135.0</ele><time>2026-04-18T09:36:15.001Z</time></trkpt><trkpt lat="56.02409168706486" lon="22.210673021008375"><ele>135.0</ele><time>2026-04-18T09:36:16.001Z</time></trkpt><trkpt lat="56.02395734173194" lon="22.21093910844043"><ele>135.0</ele><time>2026-04-18T09:36:17.001Z</time></trkpt><trkpt lat="56.0238188025327" lon="22.211209200540065"><ele>135.0</ele><time>2026-04-18T09:36:18.001Z</time></trkpt><trkpt lat="56.02368171476252" lon="22.211479809730207"><ele>135.0</ele><time>2026-04-18T09:36:19.001Z</time></trkpt><trkpt lat="56.023544402696" lon="22.211747036981606"><ele>135.0</ele><time>2026-04-18T09:36:20.001Z</time></trkpt><trkpt lat="56.023407356719176" lon="22.21201898487117"><ele>133.33333333333334</ele><time>2026-04-18T09:36:21.001Z</time></trkpt><trkpt lat="56.02327159646589" lon="22.212288079648932"><ele>131.66666666666669</ele><time>2026-04-18T09:36:22.001Z</time></trkpt><trkpt lat="56.02313556234395" lon="22.21255926765176"><ele>130.0</ele><time>2026-04-18T09:36:23.001Z</time></trkpt><trkpt lat="56.0230034543368" lon="22.212823802055908"><ele>130.0</ele><time>2026-04-18T09:36:24.001Z</time></trkpt><trkpt lat="56.0228695869258" lon="22.21308574876216"><ele>130.0</ele><time>2026-04-18T09:36:25.001Z</time></trkpt><trkpt lat="56.02273664489503" lon="22.21334040907652"><ele>130.0</ele><time>2026-04-18T09:36:26.001Z</time></trkpt><trkpt lat="56.022602588429244" lon="22.213597199647943"><ele>132.0</ele><time>2026-04-18T09:36:27.001Z</time></trkpt><trkpt lat="56.02246995498467" lon="22.213856705212184"><ele>134.0</ele><time>2026-04-18T09:36:28.001Z</time></trkpt><trkpt lat="56.022336202852294" lon="22.214116210812602"><ele>136.0</ele><time>2026-04-18T09:36:29.001Z</time></trkpt><trkpt lat="56.022202059325444" lon="22.214364287039313"><ele>136.0</ele><time>2026-04-18T09:36:30.001Z</time></trkpt><trkpt lat="56.022061118107416" lon="22.214605367441656"><ele>136.0</ele><time>2026-04-18T09:36:31.001Z</time></trkpt><trkpt lat="56.021920649647946" lon="22.214838808492082"><ele>136.0</ele><time>2026-04-18T09:36:32.001Z</time></trkpt><trkpt lat="56.02177611362765" lon="22.21506428042114"><ele>138.66666666666669</ele><time>2026-04-18T09:36:33.001Z</time></trkpt><trkpt lat="56.02162448943569" lon="22.21527549052068"><ele>141.33333333333334</ele><time>2026-04-18T09:36:34.001Z</time></trkpt><trkpt lat="56.02147225486574" lon="22.215458240908955"><ele>144.0</ele><time>2026-04-18T09:36:35Z</time></trkpt><trkpt lat="56.021309558544786" lon="22.215604963871982"><ele>145.0</ele><time>2026-04-18T09:36:36Z</time></trkpt><trkpt lat="56.02113245926103" lon="22.21572122795951"><ele>146.0</ele><time>2026-04-18T09:36:37Z</time></trkpt><trkpt lat="56.02094401039416" lon="22.215783107153435"><ele>147.0</ele><time>2026-04-18T09:36:38Z</time></trkpt><trkpt lat="56.02075474525648" lon="22.215897655563975"><ele>148.33333333333334</ele><time>2026-04-18T09:36:39Z</time></trkpt><trkpt lat="56.020561636164906" lon="22.21597706615006"><ele>149.66666666666669</ele><time>2026-04-18T09:36:40Z</time></trkpt><trkpt lat="56.020368748505284" lon="22.216053141732502"><ele>151.0</ele><time>2026-04-18T09:36:41Z</time></trkpt><trkpt lat="56.02017314928984" lon="22.21613508646062"><ele>151.0</ele><time>2026-04-18T09:36:42Z</time></trkpt><trkpt lat="56.01998358741104" lon="22.216220004362434"><ele>151.0</ele><time>2026-04-18T09:36:43Z</time></trkpt><trkpt lat="56.01979098927711" lon="22.216322252680285"><ele>151.0</ele><time>2026-04-18T09:36:44Z</time></trkpt><trkpt lat="56.01961013204755" lon="22.21644844823982"><ele>152.66666666666669</ele><time>2026-04-18T09:36:45Z</time></trkpt><trkpt lat="56.019428847459444" lon="22.21659951061284"><ele>154.33333333333334</ele><time>2026-04-18T09:36:46Z</time></trkpt><trkpt lat="56.019260269552916" lon="22.216774689982596"><ele>156.0</ele><time>2026-04-18T09:36:47Z</time></trkpt><trkpt lat="56.019095429243144" lon="22.21696982418608"><ele>156.66666666666666</ele><time>2026-04-18T09:36:48Z</time></trkpt><trkpt lat="56.0189382571913" lon="22.217194432747554"><ele>157.33333333333331</ele><time>2026-04-18T09:36:49Z</time></trkpt><trkpt lat="56.018797151705265" lon="22.21743925250219"><ele>158.0</ele><time>2026-04-18T09:36:50Z</time></trkpt><trkpt lat="56.01865735604147" lon="22.217704171010894"><ele>158.0</ele><time>2026-04-18T09:36:51Z</time></trkpt><trkpt lat="56.018524780440075" lon="22.217970936974147"><ele>158.0</ele><time>2026-04-18T09:36:52Z</time></trkpt><trkpt lat="56.01839229534524" lon="22.21823199947492"><ele>158.0</ele><time>2026-04-18T09:36:53Z</time></trkpt><trkpt lat="56.01825882492485" lon="22.218471583498154"><ele>158.33333333333331</ele><time>2026-04-18T09:36:54Z</time></trkpt><trkpt lat="56.018126984456075" lon="22.218707059373905"><ele>158.66666666666666</ele><time>2026-04-18T09:36:55Z</time></trkpt><trkpt lat="56.018006019242115" lon="22.218923035854694"><ele>159.0</ele><time>2026-04-18T09:36:56Z</time></trkpt><trkpt lat="56.017892407250436" lon="22.219138435425908"><ele>158.0</ele><time>2026-04-18T09:36:57Z</time></trkpt><trkpt lat="56.01778738189743" lon="22.219349596630387"><ele>157.0</ele><time>2026-04-18T09:36:58Z</time></trkpt><trkpt lat="56.017666609110634" lon="22.21955673798532"><ele>156.0</ele><time>2026-04-18T09:36:59Z</time></trkpt><trkpt lat="56.0175578866253" lon="22.2198018371729"><ele>153.66666666666666</ele><time>2026-04-18T09:37:00Z</time></trkpt><trkpt lat="56.01743425904577" lon="22.22002917465672"><ele>151.33333333333331</ele><time>2026-04-18T09:37:01Z</time></trkpt><trkpt lat="56.01731059019223" lon="22.220258539223476"><ele>149.0</ele><time>2026-04-18T09:37:02Z</time></trkpt><trkpt lat="56.0171882687432" lon="22.2204910651264"><ele>149.0</ele><time>2026-04-18T09:37:03Z</time></trkpt><trkpt lat="56.01706872121331" lon="22.220720540874016"><ele>149.0</ele><time>2026-04-18T09:37:04Z</time></trkpt><trkpt lat="56.01694946273209" lon="22.220951601412995"><ele>149.0</ele><time>2026-04-18T09:37:05Z</time></trkpt><trkpt lat="56.01682559726449" lon="22.221185961469995"><ele>149.0</ele><time>2026-04-18T09:37:06Z</time></trkpt><trkpt lat="56.016699249514495" lon="22.22141564062761"><ele>149.0</ele><time>2026-04-18T09:37:07Z</time></trkpt><trkpt lat="56.01657584656865" lon="22.221645418009587"><ele>149.0</ele><time>2026-04-18T09:37:08Z</time></trkpt><trkpt lat="56.01645789708298" lon="22.221870262570146"><ele>147.0</ele><time>2026-04-18T09:37:09Z</time></trkpt><trkpt lat="56.016342119534684" lon="22.222092887022026"><ele>145.0</ele><time>2026-04-18T09:37:10Z</time></trkpt><trkpt lat="56.01623008902025" lon="22.22230911480228"><ele>143.0</ele><time>2026-04-18T09:37:11Z</time></trkpt><trkpt lat="56.01611411573931" lon="22.22252670840934"><ele>142.33333333333331</ele><time>2026-04-18T09:37:12Z</time></trkpt><trkpt lat="56.015996190276454" lon="22.222742729915115"><ele>141.66666666666666</ele><time>2026-04-18T09:37:13Z</time></trkpt><trkpt lat="56.01587812255936" lon="22.222964238209197"><ele>141.0</ele><time>2026-04-18T09:37:14Z</time></trkpt><trkpt lat="56.0157588265193" lon="22.22319659931773"><ele>139.66666666666666</ele><time>2026-04-18T09:37:15Z</time></trkpt><trkpt lat="56.01564232946462" lon="22.22342306711491"><ele>138.33333333333331</ele><time>2026-04-18T09:37:16Z</time></trkpt><trkpt lat="56.015523076282854" lon="22.223653123517142"><ele>137.0</ele><time>2026-04-18T09:37:17Z</time></trkpt><trkpt lat="56.015401896580556" lon="22.223887193741945"><ele>136.33333333333331</ele><time>2026-04-18T09:37:18Z</time></trkpt><trkpt lat="56.01528064566162" lon="22.224118362927502"><ele>135.66666666666666</ele><time>2026-04-18T09:37:19Z</time></trkpt><trkpt lat="56.01516425457832" lon="22.22434562876061"><ele>135.0</ele><time>2026-04-18T09:37:20Z</time></trkpt><trkpt lat="56.01503607715204" lon="22.224553148405647"><ele>135.66666666666666</ele><time>2026-04-18T09:37:21Z</time></trkpt><trkpt lat="56.01491782748266" lon="22.224772887572364"><ele>136.33333333333331</ele><time>2026-04-18T09:37:22Z</time></trkpt><trkpt lat="56.014798659205645" lon="22.224994123817204"><ele>137.0</ele><time>2026-04-18T09:37:23Z</time></trkpt><trkpt lat="56.014692506988396" lon="22.225228333251472"><ele>137.0</ele><time>2026-04-18T09:37:24Z</time></trkpt><trkpt lat="56.014574179434995" lon="22.225435966120344"><ele>137.0</ele><time>2026-04-18T09:37:25Z</time></trkpt><trkpt lat="56.01445511762476" lon="22.225640254446937"><ele>137.0</ele><time>2026-04-18T09:37:26Z</time></trkpt><trkpt lat="56.01432127409768" lon="22.225849466347828"><ele>137.0</ele><time>2026-04-18T09:37:27Z</time></trkpt><trkpt lat="56.0141861044448" lon="22.22604670302731"><ele>137.0</ele><time>2026-04-18T09:37:28Z</time></trkpt><trkpt lat="56.014048628016724" lon="22.226234681516498"><ele>137.0</ele><time>2026-04-18T09:37:29Z</time></trkpt><trkpt lat="56.013901211178364" lon="22.22642571296435"><ele>137.0</ele><time>2026-04-18T09:37:30Z</time></trkpt><trkpt lat="56.013759099633894" lon="22.22660410003284"><ele>137.0</ele><time>2026-04-18T09:37:31Z</time></trkpt><trkpt lat="56.01361305088347" lon="22.226780628040437"><ele>137.0</ele><time>2026-04-18T09:37:32Z</time></trkpt><trkpt lat="56.013464659230095" lon="22.22695417425795"><ele>136.33333333333331</ele><time>2026-04-18T09:37:33Z</time></trkpt><trkpt lat="56.0133134224638" lon="22.227116120827084"><ele>135.66666666666666</ele><time>2026-04-18T09:37:34Z</time></trkpt><trkpt lat="56.01316302915768" lon="22.227265841516967"><ele>135.0</ele><time>2026-04-18T09:37:35Z</time></trkpt><trkpt lat="56.01300723526166" lon="22.227409696342956"><ele>135.0</ele><time>2026-04-18T09:37:36Z</time></trkpt><trkpt lat="56.01285725325965" lon="22.22753510613418"><ele>135.0</ele><time>2026-04-18T09:37:37Z</time></trkpt><trkpt lat="56.01270310060606" lon="22.227656667833354"><ele>135.0</ele><time>2026-04-18T09:37:38Z</time></trkpt><trkpt lat="56.01255512309055" lon="22.227781468430813"><ele>134.33333333333334</ele><time>2026-04-18T09:37:39Z</time></trkpt><trkpt lat="56.01239153212096" lon="22.227906271128553"><ele>133.66666666666669</ele><time>2026-04-18T09:37:40Z</time></trkpt><trkpt lat="56.01223169063891" lon="22.228031467141236"><ele>133.0</ele><time>2026-04-18T09:37:41Z</time></trkpt><trkpt lat="56.01206014160612" lon="22.228152383240776"><ele>133.0</ele><time>2026-04-18T09:37:42Z</time></trkpt><trkpt lat="56.011893781726194" lon="22.22826972720327"><ele>133.0</ele><time>2026-04-18T09:37:43Z</time></trkpt><trkpt lat="56.01172407995285" lon="22.22838493041277"><ele>133.0</ele><time>2026-04-18T09:37:44Z</time></trkpt><trkpt lat="56.01156474707334" lon="22.228503326012106"><ele>133.66666666666669</ele><time>2026-04-18T09:37:45Z</time></trkpt><trkpt lat="56.01139817092599" lon="22.22861706887039"><ele>134.33333333333334</ele><time>2026-04-18T09:37:46Z</time></trkpt><trkpt lat="56.01123393216769" lon="22.228738012900934"><ele>135.0</ele><time>2026-04-18T09:37:47Z</time></trkpt><trkpt lat="56.01106511871866" lon="22.228859165021383"><ele>135.0</ele><time>2026-04-18T09:37:48Z</time></trkpt><trkpt lat="56.01089991173116" lon="22.228982999035505"><ele>135.0</ele><time>2026-04-18T09:37:49Z</time></trkpt><trkpt lat="56.01072333993373" lon="22.22910830588407"><ele>135.0</ele><time>2026-04-18T09:37:50Z</time></trkpt><trkpt lat="56.01055649484785" lon="22.229240510591122"><ele>133.66666666666666</ele><time>2026-04-18T09:37:51Z</time></trkpt><trkpt lat="56.010378806815645" lon="22.229368572846564"><ele>132.33333333333331</ele><time>2026-04-18T09:37:52Z</time></trkpt><trkpt lat="56.010204846441766" lon="22.22949276894254"><ele>131.0</ele><time>2026-04-18T09:37:53Z</time></trkpt><trkpt lat="56.010037401096085" lon="22.22962314882571"><ele>131.33333333333331</ele><time>2026-04-18T09:37:54Z</time></trkpt><trkpt lat="56.009868938733646" lon="22.22975462140479"><ele>131.66666666666666</ele><time>2026-04-18T09:37:55Z</time></trkpt><trkpt lat="56.009702208304006" lon="22.229882590539813"><ele>132.0</ele><time>2026-04-18T09:37:56Z</time></trkpt><trkpt lat="56.00953620156354" lon="22.230008973158295"><ele>132.33333333333334</ele><time>2026-04-18T09:37:57Z</time></trkpt><trkpt lat="56.00936591557928" lon="22.230128269925313"><ele>132.66666666666669</ele><time>2026-04-18T09:37:58Z</time></trkpt><trkpt lat="56.00919101448911" lon="22.2302693320723"><ele>133.0</ele><time>2026-04-18T09:37:59Z</time></trkpt><trkpt lat="56.00901938270153" lon="22.230422569367494"><ele>133.66666666666669</ele><time>2026-04-18T09:38:00Z</time></trkpt><trkpt lat="56.008864366425286" lon="22.230585733658014"><ele>134.33333333333334</ele><time>2026-04-18T09:38:01Z</time></trkpt><trkpt lat="56.008724787175055" lon="22.230765162426902"><ele>135.0</ele><time>2026-04-18T09:38:02Z</time></trkpt><trkpt lat="56.008598896612675" lon="22.23096329175163"><ele>136.33333333333334</ele><time>2026-04-18T09:38:03Z</time></trkpt><trkpt lat="56.008463153014866" lon="22.231185169626347"><ele>137.66666666666669</ele><time>2026-04-18T09:38:04Z</time></trkpt><trkpt lat="56.008334639616244" lon="22.23142117339761"><ele>139.0</ele><time>2026-04-18T09:38:05Z</time></trkpt><trkpt lat="56.0082053798993" lon="22.23168924992922"><ele>139.33333333333334</ele><time>2026-04-18T09:38:06Z</time></trkpt><trkpt lat="56.0080706269217" lon="22.23197179795445"><ele>139.66666666666666</ele><time>2026-04-18T09:38:07Z</time></trkpt><trkpt lat="56.00794604040607" lon="22.232237849902248"><ele>140.0</ele><time>2026-04-18T09:38:08Z</time></trkpt><trkpt lat="56.00782239229639" lon="22.232501854274044"><ele>138.66666666666666</ele><time>2026-04-18T09:38:09Z</time></trkpt><trkpt lat="56.0077104468053" lon="22.232755602411977"><ele>137.33333333333334</ele><time>2026-04-18T09:38:10Z</time></trkpt><trkpt lat="56.00759676923631" lon="22.233006542038353"><ele>136.0</ele><time>2026-04-18T09:38:11Z</time></trkpt><trkpt lat="56.00747467886821" lon="22.23326664329825"><ele>135.0</ele><time>2026-04-18T09:38:12Z</time></trkpt><trkpt lat="56.007358669589166" lon="22.23351981919336"><ele>134.0</ele><time>2026-04-18T09:38:13Z</time></trkpt><trkpt lat="56.00724601707149" lon="22.233780064101865"><ele>133.0</ele><time>2026-04-18T09:38:14Z</time></trkpt><trkpt lat="56.00713327224956" lon="22.234040589571464"><ele>133.0</ele><time>2026-04-18T09:38:15Z</time></trkpt><trkpt lat="56.00700383045952" lon="22.23428038185504"><ele>133.0</ele><time>2026-04-18T09:38:16Z</time></trkpt><trkpt lat="56.00689210082428" lon="22.23452832049"><ele>133.0</ele><time>2026-04-18T09:38:17Z</time></trkpt><trkpt lat="56.00679087971064" lon="22.234798591600374"><ele>133.0</ele><time>2026-04-18T09:38:18Z</time></trkpt><trkpt lat="56.00666810054993" lon="22.23502481667903"><ele>133.0</ele><time>2026-04-18T09:38:19Z</time></trkpt><trkpt lat="56.00655776891466" lon="22.235268509448535"><ele>133.0</ele><time>2026-04-18T09:38:20Z</time></trkpt><trkpt lat="56.00644901090001" lon="22.235508876666977"><ele>132.66666666666669</ele><time>2026-04-18T09:38:21Z</time></trkpt><trkpt lat="56.00634144474917" lon="22.23574756373083"><ele>132.33333333333334</ele><time>2026-04-18T09:38:22Z</time></trkpt><trkpt lat="56.00623300861334" lon="22.23598695146794"><ele>132.0</ele><time>2026-04-18T09:38:23Z</time></trkpt><trkpt lat="56.00612360305402" lon="22.236226105999588"><ele>132.0</ele><time>2026-04-18T09:38:24Z</time></trkpt><trkpt lat="56.006017224451746" lon="22.236456789412145"><ele>132.0</ele><time>2026-04-18T09:38:25Z</time></trkpt><trkpt lat="56.00590657345163" lon="22.23668676104822"><ele>132.0</ele><time>2026-04-18T09:38:26Z</time></trkpt><trkpt lat="56.00579442656609" lon="22.236910440404813"><ele>133.33333333333334</ele><time>2026-04-18T09:38:27Z</time></trkpt><trkpt lat="56.00568064620575" lon="22.237126759980665"><ele>134.66666666666669</ele><time>2026-04-18T09:38:28Z</time></trkpt><trkpt lat="56.00556791359557" lon="22.237359044886198"><ele>136.0</ele><time>2026-04-18T09:38:29Z</time></trkpt><trkpt lat="56.00543846656183" lon="22.237546106679062"><ele>136.0</ele><time>2026-04-18T09:38:30Z</time></trkpt><trkpt lat="56.00531755573724" lon="22.237695538050254"><ele>136.0</ele><time>2026-04-18T09:38:31Z</time></trkpt><trkpt lat="56.00520076103747" lon="22.23782792258216"><ele>136.0</ele><time>2026-04-18T09:38:32Z</time></trkpt><trkpt lat="56.00509103149832" lon="22.23793830986752"><ele>136.0</ele><time>2026-04-18T09:38:33Z</time></trkpt><trkpt lat="56.00499154001095" lon="22.238019259007583"><ele>136.0</ele><time>2026-04-18T09:38:34Z</time></trkpt><trkpt lat="56.004894958618074" lon="22.23808891966351"><ele>136.0</ele><time>2026-04-18T09:38:35Z</time></trkpt><trkpt lat="56.0048024046898" lon="22.238143905872366"><ele>136.0</ele><time>2026-04-18T09:38:36Z</time></trkpt><trkpt lat="56.00471343377416" lon="22.23818551609761"><ele>136.0</ele><time>2026-04-18T09:38:37Z</time></trkpt><trkpt lat="56.00462735731704" lon="22.238218166901472"><ele>136.0</ele><time>2026-04-18T09:38:38Z</time></trkpt><trkpt lat="56.00455633025615" lon="22.23822569017816"><ele>136.0</ele><time>2026-04-18T09:38:39Z</time></trkpt><trkpt lat="56.00448373851062" lon="22.23821264573838"><ele>136.0</ele><time>2026-04-18T09:38:40Z</time></trkpt><trkpt lat="56.00441993572217" lon="22.238160814227506"><ele>136.0</ele><time>2026-04-18T09:38:41Z</time></trkpt><trkpt lat="56.00431744662345" lon="22.23806313960167"><ele>136.0</ele><time>2026-04-18T09:38:43Z</time></trkpt><trkpt lat="56.00419195283696" lon="22.238100222067587"><ele>136.0</ele><time>2026-04-18T09:38:45Z</time></trkpt><trkpt lat="56.00413449214158" lon="22.23820963449203"><ele>136.25</ele><time>2026-04-18T09:38:46Z</time></trkpt><trkpt lat="56.0040698014995" lon="22.238309017232286"><ele>136.5</ele><time>2026-04-18T09:38:47Z</time></trkpt><trkpt lat="56.00398108440967" lon="22.238380205809484"><ele>136.75</ele><time>2026-04-18T09:38:48Z</time></trkpt><trkpt lat="56.00384749717954" lon="22.238403893855615"><ele>137.0</ele><time>2026-04-18T09:38:49Z</time></trkpt><trkpt lat="56.00366426412534" lon="22.23841054905502"><ele>137.0</ele><time>2026-04-18T09:38:50Z</time></trkpt><trkpt lat="56.0034659142849" lon="22.238422162087968"><ele>137.0</ele><time>2026-04-18T09:38:51Z</time></trkpt><trkpt lat="56.00325139986531" lon="22.23844478952751"><ele>137.0</ele><time>2026-04-18T09:38:52Z</time></trkpt><trkpt lat="56.00301550111027" lon="22.238464068659038"><ele>136.5</ele><time>2026-04-18T09:38:53Z</time></trkpt><trkpt lat="56.002776600331266" lon="22.238477242819904"><ele>136.0</ele><time>2026-04-18T09:38:54Z</time></trkpt><trkpt lat="56.00251910061838" lon="22.238502604922985"><ele>136.5</ele><time>2026-04-18T09:38:55Z</time></trkpt><trkpt lat="56.00224986443075" lon="22.23852825123405"><ele>137.0</ele><time>2026-04-18T09:38:56Z</time></trkpt><trkpt lat="56.002000975561344" lon="22.23854754584694"><ele>137.0</ele><time>2026-04-18T09:38:57Z</time></trkpt><trkpt lat="56.00178154557824" lon="22.23856725369792"><ele>137.0</ele><time>2026-04-18T09:38:58Z</time></trkpt><trkpt lat="56.0015840532586" lon="22.23858290511453"><ele>137.0</ele><time>2026-04-18T09:38:59Z</time></trkpt><trkpt lat="56.001401243170726" lon="22.238597903995895"><ele>137.33333333333331</ele><time>2026-04-18T09:39:00Z</time></trkpt><trkpt lat="56.00123640820394" lon="22.23861520555992"><ele>137.66666666666666</ele><time>2026-04-18T09:39:01Z</time></trkpt><trkpt lat="56.001080196882164" lon="22.23863351648218"><ele>138.0</ele><time>2026-04-18T09:39:02Z</time></trkpt><trkpt lat="56.00092759646873" lon="22.238652048417297"><ele>138.33333333333334</ele><time>2026-04-18T09:39:03Z</time></trkpt><trkpt lat="56.0007662277757" lon="22.238679375295778"><ele>138.66666666666669</ele><time>2026-04-18T09:39:04Z</time></trkpt><trkpt lat="56.00060466994262" lon="22.238726317863794"><ele>139.0</ele><time>2026-04-18T09:39:05Z</time></trkpt><trkpt lat="56.00043985982898" lon="22.238793043152764"><ele>139.0</ele><time>2026-04-18T09:39:06Z</time></trkpt><trkpt lat="56.00027733101916" lon="22.238868604496904"><ele>139.0</ele><time>2026-04-18T09:39:07Z</time></trkpt><trkpt lat="56.000122536769396" lon="22.23894099209006"><ele>139.0</ele><time>2026-04-18T09:39:08Z</time></trkpt><trkpt lat="55.99998415314098" lon="22.23900091604192"><ele>138.75</ele><time>2026-04-18T09:39:09Z</time></trkpt><trkpt lat="55.999861990314336" lon="22.239049472324012"><ele>138.5</ele><time>2026-04-18T09:39:10Z</time></trkpt><trkpt lat="55.99975074474741" lon="22.239095860304808"><ele>138.25</ele><time>2026-04-18T09:39:11Z</time></trkpt><trkpt lat="55.99964702158217" lon="22.23914212307934"><ele>138.0</ele><time>2026-04-18T09:39:12Z</time></trkpt><trkpt lat="55.999545994256025" lon="22.239187756280348"><ele>138.0</ele><time>2026-04-18T09:39:13Z</time></trkpt><trkpt lat="55.99945440655062" lon="22.23922445484688"><ele>138.0</ele><time>2026-04-18T09:39:14Z</time></trkpt><trkpt lat="55.999374440190856" lon="22.239248255691386"><ele>138.0</ele><time>2026-04-18T09:39:15Z</time></trkpt><trkpt lat="55.9993026842418" lon="22.23924528743731"><ele>138.0</ele><time>2026-04-18T09:39:16Z</time></trkpt><trkpt lat="55.99924135362812" lon="22.23920376879321"><ele>138.0</ele><time>2026-04-18T09:39:17Z</time></trkpt><trkpt lat="55.99913413953748" lon="22.23917969385829"><ele>138.0</ele><time>2026-04-18T09:39:19Z</time></trkpt><trkpt lat="55.999034905077245" lon="22.239316244940742"><ele>138.0</ele><time>2026-04-18T09:39:21Z</time></trkpt><trkpt lat="55.99896532846182" lon="22.239404010838328"><ele>138.0</ele><time>2026-04-18T09:39:22Z</time></trkpt><trkpt lat="55.99889409493097" lon="22.23945971330526"><ele>138.0</ele><time>2026-04-18T09:39:23Z</time></trkpt><trkpt lat="55.998817798455235" lon="22.239490452751916"><ele>138.0</ele><time>2026-04-18T09:39:24Z</time></trkpt><trkpt lat="55.99873442387923" lon="22.239518087037094"><ele>138.0</ele><time>2026-04-18T09:39:25Z</time></trkpt><trkpt lat="55.99865004891791" lon="22.23954170215243"><ele>138.0</ele><time>2026-04-18T09:39:26Z</time></trkpt><trkpt lat="55.998563354683824" lon="22.239583504922162"><ele>138.0</ele><time>2026-04-18T09:39:27Z</time></trkpt><trkpt lat="55.99844922931312" lon="22.239663694259217"><ele>138.0</ele><time>2026-04-18T09:39:28Z</time></trkpt><trkpt lat="55.9983310697059" lon="22.23972831104187"><ele>138.0</ele><time>2026-04-18T09:39:29Z</time></trkpt><trkpt lat="55.998237078822605" lon="22.23975769353146"><ele>138.0</ele><time>2026-04-18T09:39:30Z</time></trkpt><trkpt lat="55.99814506149907" lon="22.239776933955888"><ele>138.0</ele><time>2026-04-18T09:39:31Z</time></trkpt><trkpt lat="55.99804767070101" lon="22.23981266016754"><ele>138.0</ele><time>2026-04-18T09:39:32Z</time></trkpt><trkpt lat="55.997945088839685" lon="22.239863047299878"><ele>138.0</ele><time>2026-04-18T09:39:33Z</time></trkpt><trkpt lat="55.997849847768684" lon="22.239902011316584"><ele>138.0</ele><time>2026-04-18T09:39:34Z</time></trkpt><trkpt lat="55.997752438864936" lon="22.23995078178311"><ele>138.0</ele><time>2026-04-18T09:39:35Z</time></trkpt><trkpt lat="55.99762211434013" lon="22.240009972667476"><ele>138.0</ele><time>2026-04-18T09:39:36Z</time></trkpt><trkpt lat="55.997494838412294" lon="22.24005970639515"><ele>138.25</ele><time>2026-04-18T09:39:37Z</time></trkpt><trkpt lat="55.99735958307065" lon="22.240119036775937"><ele>138.5</ele><time>2026-04-18T09:39:38Z</time></trkpt><trkpt lat="55.99722953594848" lon="22.240181219131884"><ele>138.75</ele><time>2026-04-18T09:39:39Z</time></trkpt><trkpt lat="55.997101071776754" lon="22.240239853859467"><ele>139.0</ele><time>2026-04-18T09:39:40Z</time></trkpt><trkpt lat="55.99696998491916" lon="22.240295167713953"><ele>139.0</ele><time>2026-04-18T09:39:41Z</time></trkpt><trkpt lat="55.9968369756734" lon="22.24035092495417"><ele>139.0</ele><time>2026-04-18T09:39:42Z</time></trkpt><trkpt lat="55.99670730511923" lon="22.2404077612577"><ele>139.0</ele><time>2026-04-18T09:39:43Z</time></trkpt><trkpt lat="55.996583594880434" lon="22.24046149278319"><ele>139.0</ele><time>2026-04-18T09:39:44Z</time></trkpt><trkpt lat="55.99646342104605" lon="22.240514391720165"><ele>139.25</ele><time>2026-04-18T09:39:45Z</time></trkpt><trkpt lat="55.996343244596424" lon="22.240571355857327"><ele>139.5</ele><time>2026-04-18T09:39:46Z</time></trkpt><trkpt lat="55.99621990055427" lon="22.240627718298306"><ele>139.75</ele><time>2026-04-18T09:39:47Z</time></trkpt><trkpt lat="55.99609550506495" lon="22.240677420793407"><ele>140.0</ele><time>2026-04-18T09:39:48Z</time></trkpt><trkpt lat="55.995971112535834" lon="22.24072876912555"><ele>140.0</ele><time>2026-04-18T09:39:49Z</time></trkpt><trkpt lat="55.99584502809702" lon="22.240785562820193"><ele>140.0</ele><time>2026-04-18T09:39:50Z</time></trkpt><trkpt lat="55.995717065227225" lon="22.240841533069265"><ele>140.0</ele><time>2026-04-18T09:39:51Z</time></trkpt><trkpt lat="55.9955898032597" lon="22.240898057309003"><ele>140.0</ele><time>2026-04-18T09:39:52Z</time></trkpt><trkpt lat="55.9954633256046" lon="22.24095237986249"><ele>140.0</ele><time>2026-04-18T09:39:53Z</time></trkpt><trkpt lat="55.9953371135037" lon="22.241010401697704"><ele>140.0</ele><time>2026-04-18T09:39:54Z</time></trkpt><trkpt lat="55.99520974484051" lon="22.24106972067225"><ele>140.0</ele><time>2026-04-18T09:39:55Z</time></trkpt><trkpt lat="55.99508212304659" lon="22.241128216214097"><ele>140.0</ele><time>2026-04-18T09:39:56Z</time></trkpt><trkpt lat="55.994953529833126" lon="22.241186491186784"><ele>140.0</ele><time>2026-04-18T09:39:57Z</time></trkpt><trkpt lat="55.994826271994555" lon="22.241246187031482"><ele>140.0</ele><time>2026-04-18T09:39:58Z</time></trkpt><trkpt lat="55.99470049111385" lon="22.241313017221348"><ele>140.0</ele><time>2026-04-18T09:39:59Z</time></trkpt><trkpt lat="55.994579480471515" lon="22.24137031532044"><ele>140.0</ele><time>2026-04-18T09:40:00Z</time></trkpt><trkpt lat="55.9944730338018" lon="22.241398765968146"><ele>140.0</ele><time>2026-04-18T09:40:01Z</time></trkpt><trkpt lat="55.99438046135915" lon="22.241443197207712"><ele>140.0</ele><time>2026-04-18T09:40:02Z</time></trkpt><trkpt lat="55.9943042375864" lon="22.24147797172275"><ele>140.0</ele><time>2026-04-18T09:40:03Z</time></trkpt><trkpt lat="55.99423833622256" lon="22.241494040049826"><ele>140.0</ele><time>2026-04-18T09:40:04Z</time></trkpt><trkpt lat="55.994142869296795" lon="22.24150867502663"><ele>140.0</ele><time>2026-04-18T09:40:06Z</time></trkpt><trkpt lat="55.99405766744221" lon="22.24129993399556"><ele>140.0</ele><time>2026-04-18T09:40:08Z</time></trkpt><trkpt lat="55.994027326913525" lon="22.241182617677904"><ele>140.0</ele><time>2026-04-18T09:40:09Z</time></trkpt><trkpt lat="55.99399242022472" lon="22.24101170516725"><ele>140.0</ele><time>2026-04-18T09:40:10Z</time></trkpt><trkpt lat="55.993936256725306" lon="22.24086922339352"><ele>140.0</ele><time>2026-04-18T09:40:11Z</time></trkpt><trkpt lat="55.99389553348922" lon="22.24072670623229"><ele>140.0</ele><time>2026-04-18T09:40:12Z</time></trkpt><trkpt lat="55.993820969515625" lon="22.240631592318255"><ele>140.0</ele><time>2026-04-18T09:40:13Z</time></trkpt><trkpt lat="55.99373558000797" lon="22.240570898508615"><ele>140.0</ele><time>2026-04-18T09:40:14Z</time></trkpt><trkpt lat="55.99365594626866" lon="22.24053183642485"><ele>140.0</ele><time>2026-04-18T09:40:15Z</time></trkpt><trkpt lat="55.99358055713692" lon="22.240520897634262"><ele>140.0</ele><time>2026-04-18T09:40:16Z</time></trkpt><trkpt lat="55.993504889378585" lon="22.240497867224477"><ele>140.0</ele><time>2026-04-18T09:40:17Z</time></trkpt><trkpt lat="55.99340439032031" lon="22.24052202842846"><ele>140.0</ele><time>2026-04-18T09:40:19Z</time></trkpt><trkpt lat="55.99341823711764" lon="22.2402182432814"><ele>140.33333333333331</ele><time>2026-04-18T09:40:20Z</time></trkpt><trkpt lat="55.99333072713603" lon="22.239861077628866"><ele>140.66666666666666</ele><time>2026-04-18T09:40:22Z</time></trkpt><trkpt lat="55.99314725000937" lon="22.239926562117446"><ele>141.0</ele><time>2026-04-18T09:40:24Z</time></trkpt><trkpt lat="55.99308093010673" lon="22.239972065633996"><ele>141.0</ele><time>2026-04-18T09:43:03Z</time></trkpt><trkpt lat="55.99302571873354" lon="22.240033988546717"><ele>141.0</ele><time>2026-04-18T09:43:06Z</time></trkpt><trkpt lat="55.99310505478254" lon="22.239978698494493"><ele>141.0</ele><time>2026-04-18T09:43:11Z</time></trkpt><trkpt lat="55.99321217546112" lon="22.239929991372076"><ele>141.0</ele><time>2026-04-18T09:43:13Z</time></trkpt><trkpt lat="55.99324358259705" lon="22.23982939738527"><ele>141.0</ele><time>2026-04-18T09:43:17Z</time></trkpt><trkpt lat="55.99316857011087" lon="22.239815066638034"><ele>141.0</ele><time>2026-04-18T09:43:19Z</time></trkpt><trkpt lat="55.99313098887261" lon="22.23990561089725"><ele>141.0</ele><time>2026-04-18T09:45:57Z</time></trkpt><trkpt lat="55.99306793681295" lon="22.239963696912955"><ele>141.0</ele><time>2026-04-18T09:45:59Z</time></trkpt><trkpt lat="55.99296069002365" lon="22.240047575836"><ele>141.0</ele><time>2026-04-18T09:46:01Z</time></trkpt><trkpt lat="55.992887209511004" lon="22.24012932496913"><ele>141.0</ele><time>2026-04-18T09:46:03Z</time></trkpt><trkpt lat="55.99280115662678" lon="22.240329432325147"><ele>141.0</ele><time>2026-04-18T09:46:05Z</time></trkpt><trkpt lat="55.992781560148636" lon="22.240471553314492"><ele>141.0</ele><time>2026-04-18T09:46:06Z</time></trkpt><trkpt lat="55.99284710710356" lon="22.240625077758704"><ele>141.0</ele><time>2026-04-18T09:46:07Z</time></trkpt><trkpt lat="55.99287279721477" lon="22.24073650855225"><ele>141.0</ele><time>2026-04-18T09:46:08Z</time></trkpt><trkpt lat="55.99290264971781" lon="22.240883495225695"><ele>141.0</ele><time>2026-04-18T09:46:10Z</time></trkpt><trkpt lat="55.992935667651274" lon="22.241012905991393"><ele>141.0</ele><time>2026-04-18T09:46:13Z</time></trkpt><trkpt lat="55.993117590336055" lon="22.24090445139013"><ele>141.16666666666666</ele><time>2026-04-18T09:46:14Z</time></trkpt><trkpt lat="55.99320431796193" lon="22.240825806183324"><ele>141.33333333333334</ele><time>2026-04-18T09:46:15Z</time></trkpt><trkpt lat="55.99329002661204" lon="22.240747142809724"><ele>141.5</ele><time>2026-04-18T09:46:16Z</time></trkpt><trkpt lat="55.993376956400816" lon="22.240690145576966"><ele>141.66666666666669</ele><time>2026-04-18T09:46:17Z</time></trkpt><trkpt lat="55.99344830095917" lon="22.240644311970804"><ele>141.83333333333334</ele><time>2026-04-18T09:46:18Z</time></trkpt><trkpt lat="55.99351332795192" lon="22.240603625906434"><ele>142.0</ele><time>2026-04-18T09:46:19Z</time></trkpt><trkpt lat="55.993590188848664" lon="22.240578965404563"><ele>141.71428571428572</ele><time>2026-04-18T09:46:20Z</time></trkpt><trkpt lat="55.993670530019486" lon="22.24058674993505"><ele>141.42857142857142</ele><time>2026-04-18T09:46:21Z</time></trkpt><trkpt lat="55.99374706108213" lon="22.24062071876198"><ele>141.14285714285714</ele><time>2026-04-18T09:46:22Z</time></trkpt><trkpt lat="55.993806479918725" lon="22.240704327385775"><ele>140.85714285714286</ele><time>2026-04-18T09:46:23Z</time></trkpt><trkpt lat="55.99387234108761" lon="22.24076307012402"><ele>140.57142857142856</ele><time>2026-04-18T09:46:24Z</time></trkpt><trkpt lat="55.99391744426191" lon="22.240851376734334"><ele>140.28571428571428</ele><time>2026-04-18T09:46:25Z</time></trkpt><trkpt lat="55.99394954902501" lon="22.240965055685187"><ele>140.0</ele><time>2026-04-18T09:46:26Z</time></trkpt><trkpt lat="55.993971246758456" lon="22.24108005829945"><ele>140.0</ele><time>2026-04-18T09:46:27Z</time></trkpt><trkpt lat="55.99399742850445" lon="22.241282274513583"><ele>140.0</ele><time>2026-04-18T09:46:29Z</time></trkpt><trkpt lat="55.993992916026905" lon="22.2414742884653"><ele>140.0</ele><time>2026-04-18T09:46:31Z</time></trkpt><trkpt lat="55.993903023254354" lon="22.24162721542972"><ele>140.0</ele><time>2026-04-18T09:46:33Z</time></trkpt><trkpt lat="55.99382526154628" lon="22.241677063009327"><ele>140.0</ele><time>2026-04-18T09:46:34Z</time></trkpt><trkpt lat="55.993717145261606" lon="22.241729507206514"><ele>140.25</ele><time>2026-04-18T09:46:35Z</time></trkpt><trkpt lat="55.99358734630807" lon="22.241787031680687"><ele>140.5</ele><time>2026-04-18T09:46:36Z</time></trkpt><trkpt lat="55.993462672400554" lon="22.241842769092894"><ele>140.75</ele><time>2026-04-18T09:46:37Z</time></trkpt><trkpt lat="55.99334021714705" lon="22.24189971259435"><ele>141.0</ele><time>2026-04-18T09:46:38Z</time></trkpt><trkpt lat="55.99321574216906" lon="22.24195846697319"><ele>141.0</ele><time>2026-04-18T09:46:39Z</time></trkpt><trkpt lat="55.99306488173986" lon="22.242033987144552"><ele>141.0</ele><time>2026-04-18T09:46:40Z</time></trkpt><trkpt lat="55.99288599901192" lon="22.242122158895263"><ele>141.0</ele><time>2026-04-18T09:46:41Z</time></trkpt><trkpt lat="55.99270349880344" lon="22.242212468462764"><ele>141.0</ele><time>2026-04-18T09:46:42Z</time></trkpt><trkpt lat="55.99249790838107" lon="22.2423288074995"><ele>141.0</ele><time>2026-04-18T09:46:43Z</time></trkpt><trkpt lat="55.99229061721041" lon="22.242443216114086"><ele>141.0</ele><time>2026-04-18T09:46:44Z</time></trkpt><trkpt lat="55.992129957594166" lon="22.24251897133646"><ele>141.0</ele><time>2026-04-18T09:46:45Z</time></trkpt><trkpt lat="55.991977348069945" lon="22.24258613028047"><ele>141.0</ele><time>2026-04-18T09:46:46Z</time></trkpt><trkpt lat="55.99184208070672" lon="22.24264490122434"><ele>141.0</ele><time>2026-04-18T09:46:47Z</time></trkpt><trkpt lat="55.99171879997951" lon="22.242701003869225"><ele>141.0</ele><time>2026-04-18T09:46:48Z</time></trkpt><trkpt lat="55.99158894948019" lon="22.24275152495714"><ele>141.0</ele><time>2026-04-18T09:46:49Z</time></trkpt><trkpt lat="55.99144169337106" lon="22.242817318580073"><ele>141.0</ele><time>2026-04-18T09:46:50Z</time></trkpt><trkpt lat="55.99127335895361" lon="22.24290060762454"><ele>141.0</ele><time>2026-04-18T09:46:51Z</time></trkpt><trkpt lat="55.99110809638158" lon="22.24297548179974"><ele>141.0</ele><time>2026-04-18T09:46:52Z</time></trkpt><trkpt lat="55.99093111624648" lon="22.24303969837727"><ele>141.0</ele><time>2026-04-18T09:46:53Z</time></trkpt><trkpt lat="55.99075320443142" lon="22.243113827263993"><ele>141.0</ele><time>2026-04-18T09:46:54Z</time></trkpt><trkpt lat="55.990596575658344" lon="22.243179785524372"><ele>140.5</ele><time>2026-04-18T09:46:55Z</time></trkpt><trkpt lat="55.99045557033435" lon="22.243243142257622"><ele>140.0</ele><time>2026-04-18T09:46:56Z</time></trkpt><trkpt lat="55.99032416960698" lon="22.243304004778675"><ele>139.5</ele><time>2026-04-18T09:46:57Z</time></trkpt><trkpt lat="55.99020116230261" lon="22.243362310759952"><ele>139.0</ele><time>2026-04-18T09:46:58Z</time></trkpt><trkpt lat="55.990087330182966" lon="22.243420020053314"><ele>139.6</ele><time>2026-04-18T09:46:59Z</time></trkpt><trkpt lat="55.98998161341627" lon="22.24347369358033"><ele>140.2</ele><time>2026-04-18T09:47:00Z</time></trkpt><trkpt lat="55.98988074200765" lon="22.243515747198035"><ele>140.79999999999998</ele><time>2026-04-18T09:47:01Z</time></trkpt><trkpt lat="55.98977993842241" lon="22.243556278347338"><ele>141.4</ele><time>2026-04-18T09:47:02Z</time></trkpt><trkpt lat="55.989667251741004" lon="22.243590355826104"><ele>142.0</ele><time>2026-04-18T09:47:03Z</time></trkpt><trkpt lat="55.98955466747622" lon="22.24361946882175"><ele>142.0</ele><time>2026-04-18T09:47:04Z</time></trkpt><trkpt lat="55.9894534348351" lon="22.24363249129525"><ele>142.0</ele><time>2026-04-18T09:47:05Z</time></trkpt><trkpt lat="55.98936683760171" lon="22.24363229542572"><ele>142.0</ele><time>2026-04-18T09:47:06Z</time></trkpt><trkpt lat="55.98924927020606" lon="22.243596538365306"><ele>142.0</ele><time>2026-04-18T09:47:08Z</time></trkpt><trkpt lat="55.98916568245773" lon="22.24346936909588"><ele>142.0</ele><time>2026-04-18T09:47:10Z</time></trkpt><trkpt lat="55.989127704276726" lon="22.243337340679393"><ele>142.0</ele><time>2026-04-18T09:47:11Z</time></trkpt><trkpt lat="55.98910503308282" lon="22.243178339561688"><ele>142.0</ele><time>2026-04-18T09:47:12Z</time></trkpt><trkpt lat="55.98908084796258" lon="22.242982208385033"><ele>142.0</ele><time>2026-04-18T09:47:13Z</time></trkpt><trkpt lat="55.989045082017235" lon="22.24272845464779"><ele>142.0</ele><time>2026-04-18T09:47:14Z</time></trkpt><trkpt lat="55.988989660444446" lon="22.242441897701276"><ele>143.0</ele><time>2026-04-18T09:47:15Z</time></trkpt><trkpt lat="55.98893554510659" lon="22.242161041917402"><ele>144.0</ele><time>2026-04-18T09:47:16Z</time></trkpt><trkpt lat="55.9888832563249" lon="22.24186534918657"><ele>145.0</ele><time>2026-04-18T09:47:17Z</time></trkpt><trkpt lat="55.98884025484749" lon="22.241604579491206"><ele>145.0</ele><time>2026-04-18T09:47:18Z</time></trkpt><trkpt lat="55.98880427814003" lon="22.241380170451855"><ele>145.0</ele><time>2026-04-18T09:47:19Z</time></trkpt><trkpt lat="55.98877639068177" lon="22.24118869306443"><ele>145.0</ele><time>2026-04-18T09:47:20Z</time></trkpt><trkpt lat="55.98875552501058" lon="22.241048621387808"><ele>145.0</ele><time>2026-04-18T09:47:21Z</time></trkpt><trkpt lat="55.98870667133078" lon="22.240903604035534"><ele>145.0</ele><time>2026-04-18T09:47:23Z</time></trkpt><trkpt lat="55.98857313495021" lon="22.24082500738145"><ele>145.0</ele><time>2026-04-18T09:47:25Z</time></trkpt><trkpt lat="55.98847902016084" lon="22.240801277751245"><ele>145.0</ele><time>2026-04-18T09:47:26Z</time></trkpt><trkpt lat="55.988371105555686" lon="22.240792248701815"><ele>145.0</ele><time>2026-04-18T09:47:27Z</time></trkpt><trkpt lat="55.988270817082274" lon="22.240768896356844"><ele>145.0</ele><time>2026-04-18T09:47:28Z</time></trkpt><trkpt lat="55.98817977615356" lon="22.240728251195492"><ele>145.0</ele><time>2026-04-18T09:47:29Z</time></trkpt><trkpt lat="55.98808437833375" lon="22.240691082271805"><ele>144.25</ele><time>2026-04-18T09:47:30Z</time></trkpt><trkpt lat="55.987985758942486" lon="22.240667826606604"><ele>143.5</ele><time>2026-04-18T09:47:31Z</time></trkpt><trkpt lat="55.98786825836349" lon="22.240639008675885"><ele>142.75</ele><time>2026-04-18T09:47:32Z</time></trkpt><trkpt lat="55.98774824313509" lon="22.240602616350735"><ele>142.0</ele><time>2026-04-18T09:47:33Z</time></trkpt><trkpt lat="55.98763780777325" lon="22.24056768513845"><ele>142.0</ele><time>2026-04-18T09:47:34Z</time></trkpt><trkpt lat="55.98752705235372" lon="22.240531724757528"><ele>142.0</ele><time>2026-04-18T09:47:35Z</time></trkpt><trkpt lat="55.98742522300722" lon="22.240501752021785"><ele>142.0</ele><time>2026-04-18T09:47:36Z</time></trkpt><trkpt lat="55.98732793675599" lon="22.24047711564547"><ele>142.0</ele><time>2026-04-18T09:47:37Z</time></trkpt><trkpt lat="55.98723146472916" lon="22.24044649589937"><ele>142.0</ele><time>2026-04-18T09:47:38Z</time></trkpt><trkpt lat="55.98713775897298" lon="22.240411984748295"><ele>141.79999999999998</ele><time>2026-04-18T09:47:39Z</time></trkpt><trkpt lat="55.987046257608824" lon="22.240382161067373"><ele>141.6</ele><time>2026-04-18T09:47:40Z</time></trkpt><trkpt lat="55.98694892244737" lon="22.240362434176774"><ele>141.39999999999998</ele><time>2026-04-18T09:47:41Z</time></trkpt><trkpt lat="55.98683903753183" lon="22.24033414827115"><ele>141.2</ele><time>2026-04-18T09:47:42Z</time></trkpt><trkpt lat="55.98672310523697" lon="22.24029487555859"><ele>141.0</ele><time>2026-04-18T09:47:43Z</time></trkpt><trkpt lat="55.98660710095625" lon="22.24025561454331"><ele>141.0</ele><time>2026-04-18T09:47:44Z</time></trkpt><trkpt lat="55.98649359486597" lon="22.24023602792289"><ele>141.0</ele><time>2026-04-18T09:47:45Z</time></trkpt><trkpt lat="55.986383207524895" lon="22.240227212672064"><ele>141.0</ele><time>2026-04-18T09:47:46Z</time></trkpt><trkpt lat="55.98627194669629" lon="22.240213627041975"><ele>141.0</ele><time>2026-04-18T09:47:47Z</time></trkpt><trkpt lat="55.98616521066912" lon="22.240180746813113"><ele>141.0</ele><time>2026-04-18T09:47:48Z</time></trkpt><trkpt lat="55.986058753634886" lon="22.240146044888714"><ele>141.0</ele><time>2026-04-18T09:47:49Z</time></trkpt><trkpt lat="55.98595825407926" lon="22.240113078726694"><ele>141.0</ele><time>2026-04-18T09:47:50Z</time></trkpt><trkpt lat="55.98587437028014" lon="22.24009570406171"><ele>141.0</ele><time>2026-04-18T09:47:51Z</time></trkpt><trkpt lat="55.98579883071687" lon="22.24008750681336"><ele>141.0</ele><time>2026-04-18T09:47:52Z</time></trkpt><trkpt lat="55.985718943680105" lon="22.240065348267322"><ele>141.0</ele><time>2026-04-18T09:47:53Z</time></trkpt><trkpt lat="55.985638260224235" lon="22.240033675915075"><ele>141.0</ele><time>2026-04-18T09:47:54Z</time></trkpt><trkpt lat="55.98554583840594" lon="22.240015661573626"><ele>141.2</ele><time>2026-04-18T09:47:55Z</time></trkpt><trkpt lat="55.985433108427785" lon="22.24001741522389"><ele>141.39999999999998</ele><time>2026-04-18T09:47:56Z</time></trkpt><trkpt lat="55.98529713765119" lon="22.239977394281965"><ele>141.6</ele><time>2026-04-18T09:47:57Z</time></trkpt><trkpt lat="55.985193993949764" lon="22.239943369365463"><ele>141.79999999999998</ele><time>2026-04-18T09:47:58Z</time></trkpt><trkpt lat="55.98513162258432" lon="22.23991758634473"><ele>142.0</ele><time>2026-04-18T09:47:59Z</time></trkpt><trkpt lat="55.985075127568805" lon="22.239864887831146"><ele>142.0</ele><time>2026-04-18T09:48:00Z</time></trkpt><trkpt lat="55.984998844813354" lon="22.239715835909728"><ele>142.0</ele><time>2026-04-18T09:48:02Z</time></trkpt><trkpt lat="55.984950398328486" lon="22.23947179418396"><ele>142.0</ele><time>2026-04-18T09:48:04Z</time></trkpt><trkpt lat="55.984937259194304" lon="22.23930872172622"><ele>142.0</ele><time>2026-04-18T09:48:05Z</time></trkpt><trkpt lat="55.984920195481074" lon="22.23910306035004"><ele>142.2</ele><time>2026-04-18T09:48:06Z</time></trkpt><trkpt lat="55.98489947880007" lon="22.238886982799322"><ele>142.39999999999998</ele><time>2026-04-18T09:48:07Z</time></trkpt><trkpt lat="55.98487625652267" lon="22.23868956129362"><ele>142.60000000000002</ele><time>2026-04-18T09:48:08Z</time></trkpt><trkpt lat="55.98485977148885" lon="22.238501128697088"><ele>142.8</ele><time>2026-04-18T09:48:09Z</time></trkpt><trkpt lat="55.98483545436168" lon="22.238330600241415"><ele>143.0</ele><time>2026-04-18T09:48:10Z</time></trkpt><trkpt lat="55.98481193871082" lon="22.238155008863366"><ele>143.20000000000002</ele><time>2026-04-18T09:48:11Z</time></trkpt><trkpt lat="55.98479534279719" lon="22.2379549829678"><ele>143.4</ele><time>2026-04-18T09:48:12Z</time></trkpt><trkpt lat="55.98478337200612" lon="22.237764083115568"><ele>143.60000000000002</ele><time>2026-04-18T09:48:13Z</time></trkpt><trkpt lat="55.98476614594038" lon="22.23760508967061"><ele>143.8</ele><time>2026-04-18T09:48:14Z</time></trkpt><trkpt lat="55.98474851668167" lon="22.237473755777174"><ele>144.0</ele><time>2026-04-18T09:48:15Z</time></trkpt><trkpt lat="55.9847197569893" lon="22.237347805549508"><ele>144.0</ele><time>2026-04-18T09:48:16Z</time></trkpt><trkpt lat="55.984656818213104" lon="22.23724590441832"><ele>144.0</ele><time>2026-04-18T09:48:17Z</time></trkpt><trkpt lat="55.98458802410254" lon="22.23718630812779"><ele>144.0</ele><time>2026-04-18T09:48:18Z</time></trkpt><trkpt lat="55.98449837619772" lon="22.23717587377483"><ele>144.0</ele><time>2026-04-18T09:48:19Z</time></trkpt><trkpt lat="55.98441723722099" lon="22.23718268093913"><ele>144.0</ele><time>2026-04-18T09:48:20Z</time></trkpt><trkpt lat="55.984330165302694" lon="22.2371985472004"><ele>144.0</ele><time>2026-04-18T09:48:21Z</time></trkpt><trkpt lat="55.98423459278506" lon="22.237201548606283"><ele>143.0</ele><time>2026-04-18T09:48:22Z</time></trkpt><trkpt lat="55.98414263179746" lon="22.237195024659837"><ele>142.0</ele><time>2026-04-18T09:48:23Z</time></trkpt><trkpt lat="55.98403594053629" lon="22.237210671946418"><ele>141.0</ele><time>2026-04-18T09:48:24Z</time></trkpt><trkpt lat="55.98393018955609" lon="22.237234486896014"><ele>140.0</ele><time>2026-04-18T09:48:25Z</time></trkpt><trkpt lat="55.98382364353144" lon="22.23724028279261"><ele>139.0</ele><time>2026-04-18T09:48:26Z</time></trkpt><trkpt lat="55.98372193316623" lon="22.23723564982721"><ele>139.0</ele><time>2026-04-18T09:48:27Z</time></trkpt><trkpt lat="55.98363133256883" lon="22.237236777597037"><ele>139.0</ele><time>2026-04-18T09:48:28Z</time></trkpt><trkpt lat="55.9835508068054" lon="22.237237315216383"><ele>139.0</ele><time>2026-04-18T09:48:29Z</time></trkpt><trkpt lat="55.98346407117397" lon="22.23723838971146"><ele>139.0</ele><time>2026-04-18T09:48:30Z</time></trkpt><trkpt lat="55.983378181175496" lon="22.237231091931008"><ele>139.0</ele><time>2026-04-18T09:48:31Z</time></trkpt><trkpt lat="55.983300089871165" lon="22.237221880773227"><ele>139.0</ele><time>2026-04-18T09:48:32Z</time></trkpt><trkpt lat="55.98321992241918" lon="22.237228605381024"><ele>138.42857142857142</ele><time>2026-04-18T09:48:33Z</time></trkpt><trkpt lat="55.98313421342494" lon="22.237236223972705"><ele>137.85714285714286</ele><time>2026-04-18T09:48:34Z</time></trkpt><trkpt lat="55.98305252611864" lon="22.237233494073426"><ele>137.28571428571428</ele><time>2026-04-18T09:48:35Z</time></trkpt><trkpt lat="55.98298442904475" lon="22.237233733394568"><ele>136.71428571428572</ele><time>2026-04-18T09:48:36Z</time></trkpt><trkpt lat="55.982916240838925" lon="22.237244522616688"><ele>136.14285714285714</ele><time>2026-04-18T09:48:37Z</time></trkpt><trkpt lat="55.98284928008096" lon="22.237249223870588"><ele>135.57142857142856</ele><time>2026-04-18T09:48:38Z</time></trkpt><trkpt lat="55.98277097460538" lon="22.237250784358352"><ele>135.0</ele><time>2026-04-18T09:48:39Z</time></trkpt><trkpt lat="55.982686607513" lon="22.237247555519065"><ele>135.0</ele><time>2026-04-18T09:48:40Z</time></trkpt><trkpt lat="55.98259692600891" lon="22.237238794507906"><ele>135.0</ele><time>2026-04-18T09:48:41Z</time></trkpt><trkpt lat="55.98251248900411" lon="22.237214875302353"><ele>135.0</ele><time>2026-04-18T09:48:42Z</time></trkpt><trkpt lat="55.98242023669293" lon="22.23719684835936"><ele>135.0</ele><time>2026-04-18T09:48:43Z</time></trkpt><trkpt lat="55.98232579215797" lon="22.237195969484358"><ele>135.0</ele><time>2026-04-18T09:48:44Z</time></trkpt><trkpt lat="55.982226932320955" lon="22.23720441096029"><ele>135.0</ele><time>2026-04-18T09:48:45Z</time></trkpt><trkpt lat="55.98212509185556" lon="22.237214240430887"><ele>135.0</ele><time>2026-04-18T09:48:46Z</time></trkpt><trkpt lat="55.98202466823945" lon="22.2372141616972"><ele>135.0</ele><time>2026-04-18T09:48:47Z</time></trkpt><trkpt lat="55.981923869315004" lon="22.237210682901924"><ele>135.0</ele><time>2026-04-18T09:48:48Z</time></trkpt><trkpt lat="55.981816400010246" lon="22.23720765567846"><ele>135.0</ele><time>2026-04-18T09:48:49Z</time></trkpt><trkpt lat="55.98170996746175" lon="22.23720945956429"><ele>134.6</ele><time>2026-04-18T09:48:50Z</time></trkpt><trkpt lat="55.981610734295764" lon="22.237204232293386"><ele>134.2</ele><time>2026-04-18T09:48:51Z</time></trkpt><trkpt lat="55.981520287041185" lon="22.237197450505928"><ele>133.8</ele><time>2026-04-18T09:48:52Z</time></trkpt><trkpt lat="55.98142939189888" lon="22.237194789130495"><ele>133.4</ele><time>2026-04-18T09:48:53Z</time></trkpt><trkpt lat="55.981335557045185" lon="22.237195891250355"><ele>133.0</ele><time>2026-04-18T09:48:54Z</time></trkpt><trkpt lat="55.98124353655813" lon="22.237210928756447"><ele>133.0</ele><time>2026-04-18T09:48:55Z</time></trkpt><trkpt lat="55.981149243322925" lon="22.237217749131936"><ele>133.0</ele><time>2026-04-18T09:48:56Z</time></trkpt><trkpt lat="55.98105216925058" lon="22.2372182941772"><ele>133.0</ele><time>2026-04-18T09:48:57Z</time></trkpt><trkpt lat="55.9809566652654" lon="22.23721004718147"><ele>133.0</ele><time>2026-04-18T09:48:58Z</time></trkpt><trkpt lat="55.980863428023426" lon="22.23720327040146"><ele>133.0</ele><time>2026-04-18T09:48:59Z</time></trkpt><trkpt lat="55.980737654473835" lon="22.23719921584211"><ele>133.0</ele><time>2026-04-18T09:49:00Z</time></trkpt><trkpt lat="55.980569837053274" lon="22.237191266346212"><ele>133.0</ele><time>2026-04-18T09:49:01Z</time></trkpt><trkpt lat="55.980425891967585" lon="22.23717991920461"><ele>133.0</ele><time>2026-04-18T09:49:02Z</time></trkpt><trkpt lat="55.98031741024409" lon="22.23716507665598"><ele>133.0</ele><time>2026-04-18T09:49:03Z</time></trkpt><trkpt lat="55.980229950897474" lon="22.237099323207957"><ele>133.0</ele><time>2026-04-18T09:49:04Z</time></trkpt><trkpt lat="55.980142641403525" lon="22.236997368763443"><ele>133.0</ele><time>2026-04-18T09:49:05Z</time></trkpt><trkpt lat="55.9800416160302" lon="22.236881835481405"><ele>133.0</ele><time>2026-04-18T09:49:06Z</time></trkpt><trkpt lat="55.97991758165599" lon="22.236747567899"><ele>133.0</ele><time>2026-04-18T09:49:07Z</time></trkpt><trkpt lat="55.979802914504894" lon="22.23664687490736"><ele>132.8</ele><time>2026-04-18T09:49:08Z</time></trkpt><trkpt lat="55.979707391123135" lon="22.236569193240022"><ele>132.60000000000002</ele><time>2026-04-18T09:49:09Z</time></trkpt><trkpt lat="55.979623449484485" lon="22.23649013871464"><ele>132.39999999999998</ele><time>2026-04-18T09:49:10Z</time></trkpt><trkpt lat="55.97953337625858" lon="22.236425983259572"><ele>132.2</ele><time>2026-04-18T09:49:11Z</time></trkpt><trkpt lat="55.97943167405613" lon="22.236387492394027"><ele>132.0</ele><time>2026-04-18T09:49:12Z</time></trkpt><trkpt lat="55.97932346056402" lon="22.236360990136486"><ele>132.0</ele><time>2026-04-18T09:49:13Z</time></trkpt><trkpt lat="55.97921480429476" lon="22.236347851173498"><ele>132.0</ele><time>2026-04-18T09:49:14Z</time></trkpt><trkpt lat="55.97910839435326" lon="22.23634636849518"><ele>132.0</ele><time>2026-04-18T09:49:15Z</time></trkpt><trkpt lat="55.97902185114985" lon="22.236347842144383"><ele>132.0</ele><time>2026-04-18T09:49:16Z</time></trkpt><trkpt lat="55.978941228312955" lon="22.236351180296655"><ele>132.0</ele><time>2026-04-18T09:49:17Z</time></trkpt><trkpt lat="55.978867595575515" lon="22.236337252968585"><ele>132.0</ele><time>2026-04-18T09:49:18Z</time></trkpt><trkpt lat="55.97877873380858" lon="22.236335291661653"><ele>132.0</ele><time>2026-04-18T09:49:19Z</time></trkpt><trkpt lat="55.97868237445921" lon="22.236337726712012"><ele>132.0</ele><time>2026-04-18T09:49:20Z</time></trkpt><trkpt lat="55.978585618948344" lon="22.236322704555633"><ele>132.0</ele><time>2026-04-18T09:49:21Z</time></trkpt><trkpt lat="55.978487411106244" lon="22.23631901430457"><ele>132.0</ele><time>2026-04-18T09:49:22Z</time></trkpt><trkpt lat="55.97838311487506" lon="22.23632063630827"><ele>131.79999999999998</ele><time>2026-04-18T09:49:23Z</time></trkpt><trkpt lat="55.9782781282481" lon="22.236312435460906"><ele>131.6</ele><time>2026-04-18T09:49:24Z</time></trkpt><trkpt lat="55.978173929392725" lon="22.23630175014376"><ele>131.39999999999998</ele><time>2026-04-18T09:49:25Z</time></trkpt><trkpt lat="55.978067463430136" lon="22.23629733153234"><ele>131.2</ele><time>2026-04-18T09:49:26Z</time></trkpt><trkpt lat="55.97796482010509" lon="22.236289882145147"><ele>131.0</ele><time>2026-04-18T09:49:27Z</time></trkpt><trkpt lat="55.97787132372275" lon="22.236284510759447"><ele>131.0</ele><time>2026-04-18T09:49:28Z</time></trkpt><trkpt lat="55.97777013273533" lon="22.236277754250438"><ele>131.0</ele><time>2026-04-18T09:49:29Z</time></trkpt><trkpt lat="55.97765958247988" lon="22.23626450489984"><ele>131.0</ele><time>2026-04-18T09:49:30Z</time></trkpt><trkpt lat="55.9775455574476" lon="22.23624085995823"><ele>131.0</ele><time>2026-04-18T09:49:31Z</time></trkpt><trkpt lat="55.97742689114908" lon="22.236228354089768"><ele>131.0</ele><time>2026-04-18T09:49:32Z</time></trkpt><trkpt lat="55.977309966846924" lon="22.236230224372132"><ele>130.2</ele><time>2026-04-18T09:49:33Z</time></trkpt><trkpt lat="55.977194449342576" lon="22.23622524049353"><ele>129.39999999999998</ele><time>2026-04-18T09:49:34Z</time></trkpt><trkpt lat="55.977080668191014" lon="22.23620822397477"><ele>128.6</ele><time>2026-04-18T09:49:35Z</time></trkpt><trkpt lat="55.97697154524191" lon="22.236188232987438"><ele>127.8</ele><time>2026-04-18T09:49:36Z</time></trkpt><trkpt lat="55.97686847889932" lon="22.236175676611687"><ele>127.0</ele><time>2026-04-18T09:49:37Z</time></trkpt><trkpt lat="55.97677200455452" lon="22.236156655173993"><ele>127.0</ele><time>2026-04-18T09:49:38Z</time></trkpt><trkpt lat="55.976678370896316" lon="22.23611181453465"><ele>126.99999999999999</ele><time>2026-04-18T09:49:39Z</time></trkpt><trkpt lat="55.97657979469375" lon="22.236052275565758"><ele>126.99999999999999</ele><time>2026-04-18T09:49:40Z</time></trkpt><trkpt lat="55.976492461235296" lon="22.235991787298502"><ele>127.0</ele><time>2026-04-18T09:49:41Z</time></trkpt><trkpt lat="55.97640230156217" lon="22.235920391368644"><ele>127.0</ele><time>2026-04-18T09:49:42Z</time></trkpt><trkpt lat="55.97632738531623" lon="22.23584056587409"><ele>127.00000000000001</ele><time>2026-04-18T09:49:43Z</time></trkpt><trkpt lat="55.976263471456825" lon="22.23576013168893"><ele>127.0</ele><time>2026-04-18T09:49:44Z</time></trkpt><trkpt lat="55.97620249691576" lon="22.235677871719037"><ele>127.0</ele><time>2026-04-18T09:49:45Z</time></trkpt><trkpt lat="55.97613726509691" lon="22.235595873985915"><ele>127.0</ele><time>2026-04-18T09:49:46Z</time></trkpt><trkpt lat="55.97607234002921" lon="22.235514666183427"><ele>127.00000000000001</ele><time>2026-04-18T09:49:47Z</time></trkpt><trkpt lat="55.976006911902566" lon="22.235428739901185"><ele>127.0</ele><time>2026-04-18T09:49:48Z</time></trkpt><trkpt lat="55.975940181314066" lon="22.235335424674854"><ele>126.8</ele><time>2026-04-18T09:49:49Z</time></trkpt><trkpt lat="55.97586636110086" lon="22.235238757382728"><ele>126.6</ele><time>2026-04-18T09:49:50Z</time></trkpt><trkpt lat="55.9757889986541" lon="22.23514362206773"><ele>126.39999999999999</ele><time>2026-04-18T09:49:51Z</time></trkpt><trkpt lat="55.97570889975983" lon="22.235043295359155"><ele>126.19999999999999</ele><time>2026-04-18T09:49:52Z</time></trkpt><trkpt lat="55.975644559432645" lon="22.234956779011284"><ele>126.0</ele><time>2026-04-18T09:49:53Z</time></trkpt><trkpt lat="55.975558274198995" lon="22.234893200494422"><ele>126.8</ele><time>2026-04-18T09:49:55Z</time></trkpt><trkpt lat="55.97544679787687" lon="22.235020680305563"><ele>127.6</ele><time>2026-04-18T09:49:58Z</time></trkpt><trkpt lat="55.97546168760433" lon="22.235222731484356"><ele>128.4</ele><time>2026-04-18T09:50:00Z</time></trkpt><trkpt lat="55.9755199645447" lon="22.235294007202675"><ele>129.2</ele><time>2026-04-18T09:50:03Z</time></trkpt><trkpt lat="55.97560872396137" lon="22.235402564495853"><ele>130.0</ele><time>2026-04-18T09:51:51Z</time></trkpt><trkpt lat="55.97570391448573" lon="22.235518987328632"><ele>130.0</ele><time>2026-04-18T09:51:53Z</time></trkpt><trkpt lat="55.975784030702556" lon="22.23539938471263"><ele>130.0</ele><time>2026-04-18T09:51:54Z</time></trkpt><trkpt lat="55.97584138870295" lon="22.23534275604375"><ele>130.0</ele><time>2026-04-18T09:51:57Z</time></trkpt><trkpt lat="55.9759597194937" lon="22.235299910380544"><ele>130.0</ele><time>2026-04-18T09:52:01Z</time></trkpt><trkpt lat="55.976069268148" lon="22.235102162260656"><ele>130.0</ele><time>2026-04-18T09:52:03Z</time></trkpt><trkpt lat="55.97614329457144" lon="22.234897189634932"><ele>129.2</ele><time>2026-04-18T09:52:04Z</time></trkpt><trkpt lat="55.97621059999062" lon="22.234696184571828"><ele>128.4</ele><time>2026-04-18T09:52:05Z</time></trkpt><trkpt lat="55.97627556986835" lon="22.234538025410014"><ele>127.6</ele><time>2026-04-18T09:52:06Z</time></trkpt><trkpt lat="55.976331423250194" lon="22.234389701195845"><ele>126.8</ele><time>2026-04-18T09:52:07Z</time></trkpt><trkpt lat="55.97637310721175" lon="22.234226097092936"><ele>126.0</ele><time>2026-04-18T09:52:08Z</time></trkpt><trkpt lat="55.97639858752185" lon="22.234051901692272"><ele>126.19999999999999</ele><time>2026-04-18T09:52:09Z</time></trkpt><trkpt lat="55.97640407630324" lon="22.233874417677573"><ele>126.39999999999999</ele><time>2026-04-18T09:52:10Z</time></trkpt><trkpt lat="55.976434566643206" lon="22.23371562116814"><ele>126.6</ele><time>2026-04-18T09:52:11Z</time></trkpt><trkpt lat="55.97644807350281" lon="22.233555037853073"><ele>126.8</ele><time>2026-04-18T09:52:12Z</time></trkpt><trkpt lat="55.976452891362435" lon="22.233395711540364"><ele>127.0</ele><time>2026-04-18T09:52:13Z</time></trkpt><trkpt lat="55.97645116302657" lon="22.233241770829"><ele>127.33333333333334</ele><time>2026-04-18T09:52:14Z</time></trkpt><trkpt lat="55.976448823462604" lon="22.233091181221827"><ele>127.66666666666667</ele><time>2026-04-18T09:52:15Z</time></trkpt><trkpt lat="55.976428268265636" lon="22.23294704096094"><ele>128.0</ele><time>2026-04-18T09:52:16Z</time></trkpt><trkpt lat="55.97641627030267" lon="22.232810225211786"><ele>128.33333333333334</ele><time>2026-04-18T09:52:17Z</time></trkpt><trkpt lat="55.97640609974404" lon="22.232694280875076"><ele>128.66666666666666</ele><time>2026-04-18T09:52:18Z</time></trkpt><trkpt lat="55.97639584717093" lon="22.232577401595965"><ele>129.0</ele><time>2026-04-18T09:52:19Z</time></trkpt><trkpt lat="55.97639314009634" lon="22.232435317573987"><ele>129.8</ele><time>2026-04-18T09:52:20Z</time></trkpt><trkpt lat="55.976369314301756" lon="22.232275832498843"><ele>130.60000000000002</ele><time>2026-04-18T09:52:21Z</time></trkpt><trkpt lat="55.97634580240315" lon="22.23209043320484"><ele>131.4</ele><time>2026-04-18T09:52:22Z</time></trkpt><trkpt lat="55.97633084721653" lon="22.231918131842132"><ele>132.20000000000002</ele><time>2026-04-18T09:52:23Z</time></trkpt><trkpt lat="55.97630262518281" lon="22.23175482489058"><ele>133.0</ele><time>2026-04-18T09:52:24Z</time></trkpt><trkpt lat="55.976280996355264" lon="22.23157286933103"><ele>133.8</ele><time>2026-04-18T09:52:25Z</time></trkpt><trkpt lat="55.976259723786214" lon="22.231393912228903"><ele>134.60000000000002</ele><time>2026-04-18T09:52:26Z</time></trkpt><trkpt lat="55.97623934429851" lon="22.231222339784715"><ele>135.39999999999998</ele><time>2026-04-18T09:52:27Z</time></trkpt><trkpt lat="55.976213602031734" lon="22.23105424605442"><ele>136.2</ele><time>2026-04-18T09:52:28Z</time></trkpt><trkpt lat="55.976197297170025" lon="22.23087258432484"><ele>137.0</ele><time>2026-04-18T09:52:29Z</time></trkpt><trkpt lat="55.97619318312533" lon="22.230703235337582"><ele>137.0</ele><time>2026-04-18T09:52:30Z</time></trkpt><trkpt lat="55.97616553165006" lon="22.230543913825016"><ele>137.0</ele><time>2026-04-18T09:52:31Z</time></trkpt><trkpt lat="55.97615497731606" lon="22.230372363382525"><ele>137.0</ele><time>2026-04-18T09:52:32Z</time></trkpt><trkpt lat="55.9761398664402" lon="22.230221034409325"><ele>137.0</ele><time>2026-04-18T09:52:33Z</time></trkpt><trkpt lat="55.97612982597022" lon="22.2300863581949"><ele>137.0</ele><time>2026-04-18T09:52:34Z</time></trkpt><trkpt lat="55.976115986827864" lon="22.229946725690596"><ele>137.0</ele><time>2026-04-18T09:52:35Z</time></trkpt><trkpt lat="55.976103339713504" lon="22.229821377085937"><ele>136.66666666666666</ele><time>2026-04-18T09:52:36Z</time></trkpt><trkpt lat="55.97608996611407" lon="22.22970482906175"><ele>136.33333333333331</ele><time>2026-04-18T09:52:37Z</time></trkpt><trkpt lat="55.97608371140589" lon="22.229592371680102"><ele>136.0</ele><time>2026-04-18T09:52:38Z</time></trkpt><trkpt lat="55.97607476206915" lon="22.229469035645916"><ele>135.66666666666666</ele><time>2026-04-18T09:52:39Z</time></trkpt><trkpt lat="55.97604676051428" lon="22.229326589166455"><ele>135.33333333333334</ele><time>2026-04-18T09:52:40Z</time></trkpt><trkpt lat="55.976052160845825" lon="22.22914118254987"><ele>135.0</ele><time>2026-04-18T09:52:41Z</time></trkpt><trkpt lat="55.97602395874236" lon="22.228907719880752"><ele>134.5</ele><time>2026-04-18T09:52:42Z</time></trkpt><trkpt lat="55.97601723964617" lon="22.228680852291458"><ele>134.0</ele><time>2026-04-18T09:52:43Z</time></trkpt><trkpt lat="55.976011621299364" lon="22.228442701816423"><ele>133.5</ele><time>2026-04-18T09:52:44Z</time></trkpt><trkpt lat="55.97600486191005" lon="22.228196485135104"><ele>133.0</ele><time>2026-04-18T09:52:45Z</time></trkpt><trkpt lat="55.976003760685245" lon="22.22799386634957"><ele>133.0</ele><time>2026-04-18T09:52:46Z</time></trkpt><trkpt lat="55.97601383859465" lon="22.22782304352246"><ele>133.0</ele><time>2026-04-18T09:52:47Z</time></trkpt><trkpt lat="55.97601614732868" lon="22.227643656828082"><ele>133.0</ele><time>2026-04-18T09:52:48Z</time></trkpt><trkpt lat="55.97601437558301" lon="22.22744736579989"><ele>133.0</ele><time>2026-04-18T09:52:49Z</time></trkpt><trkpt lat="55.97601613115918" lon="22.227282238965238"><ele>133.0</ele><time>2026-04-18T09:52:50Z</time></trkpt><trkpt lat="55.976035781176705" lon="22.227097522507457"><ele>133.16666666666669</ele><time>2026-04-18T09:52:52Z</time></trkpt><trkpt lat="55.976063834684105" lon="22.226977161973476"><ele>133.33333333333334</ele><time>2026-04-18T09:52:54Z</time></trkpt><trkpt lat="55.97609809371891" lon="22.22685781804013"><ele>133.5</ele><time>2026-04-18T09:52:58Z</time></trkpt><trkpt lat="55.97613969178807" lon="22.22673589458113"><ele>133.66666666666666</ele><time>2026-04-18T09:53:00Z</time></trkpt><trkpt lat="55.9762307698234" lon="22.22663988975493"><ele>133.83333333333331</ele><time>2026-04-18T09:53:02Z</time></trkpt><trkpt lat="55.976294398250616" lon="22.226545487009385"><ele>134.0</ele><time>2026-04-18T09:53:04Z</time></trkpt><trkpt lat="55.976374589831664" lon="22.22647350448316"><ele>134.0</ele><time>2026-04-18T09:53:06Z</time></trkpt><trkpt lat="55.97646161655426" lon="22.226501057620588"><ele>134.0</ele><time>2026-04-18T09:53:08Z</time></trkpt><trkpt lat="55.9765588649156" lon="22.226527138227976"><ele>134.0</ele><time>2026-04-18T09:53:10Z</time></trkpt><trkpt lat="55.97668016285229" lon="22.226550665434743"><ele>134.0</ele><time>2026-04-18T09:53:12Z</time></trkpt><trkpt lat="55.97676075556912" lon="22.22653463020755"><ele>134.0</ele><time>2026-04-18T09:53:13Z</time></trkpt><trkpt lat="55.976827192149614" lon="22.22648565380684"><ele>134.2</ele><time>2026-04-18T09:53:14Z</time></trkpt><trkpt lat="55.97688359599925" lon="22.22641737482127"><ele>134.4</ele><time>2026-04-18T09:53:15Z</time></trkpt><trkpt lat="55.97698262019013" lon="22.226306070938474"><ele>134.6</ele><time>2026-04-18T09:53:17Z</time></trkpt><trkpt lat="55.977094820744334" lon="22.226181287901575"><ele>134.8</ele><time>2026-04-18T09:53:19Z</time></trkpt><trkpt lat="55.97715122981347" lon="22.22611853973006"><ele>135.0</ele><time>2026-04-18T09:53:20Z</time></trkpt><trkpt lat="55.97723068212418" lon="22.226030158778546"><ele>135.0</ele><time>2026-04-18T09:53:22Z</time></trkpt><trkpt lat="55.977305063678415" lon="22.225946093086712"><ele>135.0</ele><time>2026-04-18T09:53:24Z</time></trkpt><trkpt lat="55.977375411599574" lon="22.22587946170692"><ele>135.0</ele><time>2026-04-18T09:53:26Z</time></trkpt><trkpt lat="55.97745046183245" lon="22.225872684960237"><ele>135.0</ele><time>2026-04-18T09:53:29Z</time></trkpt><trkpt lat="55.97741684290391" lon="22.22577693398274"><ele>135.0</ele><time>2026-04-18T09:53:36Z</time></trkpt><trkpt lat="55.97734652573688" lon="22.225842375072574"><ele>135.0</ele><time>2026-04-18T09:53:37Z</time></trkpt><trkpt lat="55.97728132440357" lon="22.225913912125257"><ele>135.0</ele><time>2026-04-18T09:53:38Z</time></trkpt><trkpt lat="55.97721151874562" lon="22.22596712684596"><ele>135.0</ele><time>2026-04-18T09:53:40Z</time></trkpt><trkpt lat="55.97712989643215" lon="22.226080817304503"><ele>135.0</ele><time>2026-04-18T09:53:42Z</time></trkpt><trkpt lat="55.97701885675322" lon="22.2261973168492"><ele>135.0</ele><time>2026-04-18T09:53:44Z</time></trkpt><trkpt lat="55.97692166672898" lon="22.226320701820896"><ele>135.0</ele><time>2026-04-18T09:53:46Z</time></trkpt><trkpt lat="55.976833879719194" lon="22.22641690984524"><ele>135.0</ele><time>2026-04-18T09:53:48Z</time></trkpt><trkpt lat="55.976744881137435" lon="22.226505548128532"><ele>135.0</ele><time>2026-04-18T09:53:50Z</time></trkpt><trkpt lat="55.9766510334013" lon="22.226526768787927"><ele>135.0</ele><time>2026-04-18T09:53:52Z</time></trkpt><trkpt lat="55.97659509111604" lon="22.22644204175405"><ele>135.0</ele><time>2026-04-18T09:53:55Z</time></trkpt><trkpt lat="55.976608691057926" lon="22.226329273570347"><ele>135.0</ele><time>2026-04-18T09:53:57Z</time></trkpt><trkpt lat="55.976705631891164" lon="22.226268625073978"><ele>135.0</ele><time>2026-04-18T09:53:59Z</time></trkpt><trkpt lat="55.976769075279954" lon="22.226139776623786"><ele>135.0</ele><time>2026-04-18T09:54:01Z</time></trkpt><trkpt lat="55.97683950991809" lon="22.22606844986046"><ele>135.0</ele><time>2026-04-18T09:54:03Z</time></trkpt><trkpt lat="55.976901740190456" lon="22.225979063225626"><ele>135.0</ele><time>2026-04-18T09:54:06Z</time></trkpt><trkpt lat="55.976808287747474" lon="22.22610290491807"><ele>135.0</ele><time>2026-04-18T10:03:05Z</time></trkpt><trkpt lat="55.97672912883962" lon="22.226211712703396"><ele>135.0</ele><time>2026-04-18T10:03:06Z</time></trkpt><trkpt lat="55.97667682585668" lon="22.22628249177059"><ele>135.0</ele><time>2026-04-18T10:03:07Z</time></trkpt><trkpt lat="55.97661800019672" lon="22.22637772746987"><ele>134.83333333333334</ele><time>2026-04-18T10:03:09Z</time></trkpt><trkpt lat="55.97654664311486" lon="22.226426027574018"><ele>134.66666666666666</ele><time>2026-04-18T10:03:11Z</time></trkpt><trkpt lat="55.9764923988966" lon="22.2264929674409"><ele>134.5</ele><time>2026-04-18T10:03:13Z</time></trkpt><trkpt lat="55.97639007576304" lon="22.226483365239723"><ele>134.33333333333331</ele><time>2026-04-18T10:03:15Z</time></trkpt><trkpt lat="55.976297237977946" lon="22.226513516331565"><ele>134.16666666666666</ele><time>2026-04-18T10:03:18Z</time></trkpt><trkpt lat="55.97624026009711" lon="22.226562559058973"><ele>134.0</ele><time>2026-04-18T10:03:19Z</time></trkpt><trkpt lat="55.97618741555434" lon="22.226630989728005"><ele>134.0</ele><time>2026-04-18T10:03:20Z</time></trkpt><trkpt lat="55.97610589152341" lon="22.226721162108486"><ele>134.0</ele><time>2026-04-18T10:03:22Z</time></trkpt><trkpt lat="55.976070539477156" lon="22.226832567999494"><ele>134.0</ele><time>2026-04-18T10:03:24Z</time></trkpt><trkpt lat="55.976025891191796" lon="22.226965878655424"><ele>134.0</ele><time>2026-04-18T10:03:26Z</time></trkpt><trkpt lat="55.97599069108067" lon="22.22713096411399"><ele>134.0</ele><time>2026-04-18T10:03:29Z</time></trkpt><trkpt lat="55.97597992759441" lon="22.22729243736167"><ele>134.0</ele><time>2026-04-18T10:03:31Z</time></trkpt><trkpt lat="55.9759773203774" lon="22.22741042391609"><ele>133.75</ele><time>2026-04-18T10:03:32Z</time></trkpt><trkpt lat="55.97597312176147" lon="22.227600424520364"><ele>133.5</ele><time>2026-04-18T10:03:33Z</time></trkpt><trkpt lat="55.975972988907394" lon="22.227809546224368"><ele>133.25</ele><time>2026-04-18T10:03:34Z</time></trkpt><trkpt lat="55.97597116766111" lon="22.228046067505986"><ele>133.0</ele><time>2026-04-18T10:03:35Z</time></trkpt><trkpt lat="55.975971584796376" lon="22.228299903036383"><ele>133.0</ele><time>2026-04-18T10:03:36Z</time></trkpt><trkpt lat="55.97597645949921" lon="22.228513060889682"><ele>133.0</ele><time>2026-04-18T10:03:37Z</time></trkpt><trkpt lat="55.97598244563723" lon="22.228682189305353"><ele>133.0</ele><time>2026-04-18T10:03:38Z</time></trkpt><trkpt lat="55.975987117778836" lon="22.228814429366835"><ele>133.0</ele><time>2026-04-18T10:03:39Z</time></trkpt><trkpt lat="55.97599478052098" lon="22.22903454668489"><ele>133.0</ele><time>2026-04-18T10:03:41Z</time></trkpt><trkpt lat="55.975998816770904" lon="22.229149754275824"><ele>133.25</ele><time>2026-04-18T10:03:42Z</time></trkpt><trkpt lat="55.97600463029858" lon="22.22931199043521"><ele>133.5</ele><time>2026-04-18T10:03:44Z</time></trkpt><trkpt lat="55.97583823897354" lon="22.229409579979357"><ele>133.75</ele><time>2026-04-18T10:03:47Z</time></trkpt><trkpt lat="55.97574391951092" lon="22.229493900105698"><ele>134.0</ele><time>2026-04-18T10:03:47.999Z</time></trkpt><trkpt lat="55.975649328518195" lon="22.22954019540239"><ele>134.0</ele><time>2026-04-18T10:03:48.999Z</time></trkpt><trkpt lat="55.97552746628456" lon="22.229611806558363"><ele>134.0</ele><time>2026-04-18T10:03:49.999Z</time></trkpt><trkpt lat="55.97538424092485" lon="22.229708809641174"><ele>134.0</ele><time>2026-04-18T10:03:50.999Z</time></trkpt><trkpt lat="55.975220143289285" lon="22.229776114870933"><ele>134.5</ele><time>2026-04-18T10:03:51.999Z</time></trkpt><trkpt lat="55.97506760207777" lon="22.22986651076215"><ele>135.0</ele><time>2026-04-18T10:03:52.999Z</time></trkpt><trkpt lat="55.97493060497053" lon="22.229947695275623"><ele>135.5</ele><time>2026-04-18T10:03:53.999Z</time></trkpt><trkpt lat="55.97481657215302" lon="22.230015271114876"><ele>136.0</ele><time>2026-04-18T10:03:54.999Z</time></trkpt><trkpt lat="55.97471234142705" lon="22.23007703814806"><ele>135.0</ele><time>2026-04-18T10:03:55.999Z</time></trkpt><trkpt lat="55.97460653069093" lon="22.230142668704442"><ele>134.0</ele><time>2026-04-18T10:03:56.999Z</time></trkpt><trkpt lat="55.974496207736735" lon="22.230242178389148"><ele>133.0</ele><time>2026-04-18T10:03:57.999Z</time></trkpt><trkpt lat="55.9743718845768" lon="22.230308935076717"><ele>132.0</ele><time>2026-04-18T10:03:58.999Z</time></trkpt><trkpt lat="55.97428240745499" lon="22.230352340949622"><ele>132.0</ele><time>2026-04-18T10:03:59.999Z</time></trkpt><trkpt lat="55.97420243249747" lon="22.230402519668072"><ele>132.0</ele><time>2026-04-18T10:04:00.999Z</time></trkpt><trkpt lat="55.974122726499665" lon="22.230450748520134"><ele>132.0</ele><time>2026-04-18T10:04:01.999Z</time></trkpt><trkpt lat="55.97405768680333" lon="22.23048873520632"><ele>132.0</ele><time>2026-04-18T10:04:02.999Z</time></trkpt><trkpt lat="55.97397710965936" lon="22.230571457703984"><ele>132.0</ele><time>2026-04-18T10:04:04.999Z</time></trkpt><trkpt lat="55.97390900694813" lon="22.230602894452808"><ele>132.0</ele><time>2026-04-18T10:04:07.999Z</time></trkpt><trkpt lat="55.97384751474582" lon="22.230665997923346"><ele>132.0</ele><time>2026-04-18T10:04:08.999Z</time></trkpt><trkpt lat="55.97376839163607" lon="22.230697211211115"><ele>132.0</ele><time>2026-04-18T10:04:09.999Z</time></trkpt><trkpt lat="55.97368553183348" lon="22.230682272065774"><ele>132.0</ele><time>2026-04-18T10:04:10.999Z</time></trkpt><trkpt lat="55.97359163589686" lon="22.230660260046985"><ele>132.0</ele><time>2026-04-18T10:04:11.999Z</time></trkpt><trkpt lat="55.973469650002315" lon="22.23057888999651"><ele>132.0</ele><time>2026-04-18T10:04:12.999Z</time></trkpt><trkpt lat="55.97332684142919" lon="22.230519470759567"><ele>132.33333333333334</ele><time>2026-04-18T10:04:13.999Z</time></trkpt><trkpt lat="55.973171498724625" lon="22.23047657529893"><ele>132.66666666666669</ele><time>2026-04-18T10:04:14.999Z</time></trkpt><trkpt lat="55.973012969096956" lon="22.230377896276323"><ele>133.0</ele><time>2026-04-18T10:04:15.999Z</time></trkpt><trkpt lat="55.97284679607967" lon="22.23033165908405"><ele>133.0</ele><time>2026-04-18T10:04:17Z</time></trkpt><trkpt lat="55.97266674951598" lon="22.23022841335687"><ele>133.0</ele><time>2026-04-18T10:04:18Z</time></trkpt><trkpt lat="55.97246439075037" lon="22.23013439242615"><ele>133.0</ele><time>2026-04-18T10:04:19Z</time></trkpt><trkpt lat="55.97225214237849" lon="22.23005391747492"><ele>133.0</ele><time>2026-04-18T10:04:20Z</time></trkpt><trkpt lat="55.972041613703496" lon="22.229972970034694"><ele>133.0</ele><time>2026-04-18T10:04:21Z</time></trkpt><trkpt lat="55.971854615511994" lon="22.229865077477076"><ele>133.0</ele><time>2026-04-18T10:04:22Z</time></trkpt><trkpt lat="55.97168721736494" lon="22.22982074973692"><ele>132.5</ele><time>2026-04-18T10:04:23Z</time></trkpt><trkpt lat="55.97154126578732" lon="22.229753142476376"><ele>132.0</ele><time>2026-04-18T10:04:24Z</time></trkpt><trkpt lat="55.97141654926877" lon="22.229670476189902"><ele>131.5</ele><time>2026-04-18T10:04:25Z</time></trkpt><trkpt lat="55.971301208149875" lon="22.229622929808215"><ele>131.0</ele><time>2026-04-18T10:04:26Z</time></trkpt><trkpt lat="55.971191215280065" lon="22.229576573287094"><ele>131.0</ele><time>2026-04-18T10:04:27Z</time></trkpt><trkpt lat="55.971079897190286" lon="22.229529676495595"><ele>131.0</ele><time>2026-04-18T10:04:28Z</time></trkpt><trkpt lat="55.97097292123147" lon="22.22948460901148"><ele>131.0</ele><time>2026-04-18T10:04:29Z</time></trkpt><trkpt lat="55.970854070849114" lon="22.229463071534372"><ele>131.0</ele><time>2026-04-18T10:04:30Z</time></trkpt><trkpt lat="55.97071477618964" lon="22.22938027068622"><ele>131.0</ele><time>2026-04-18T10:04:31Z</time></trkpt><trkpt lat="55.9705565849979" lon="22.22931003161239"><ele>131.0</ele><time>2026-04-18T10:04:32Z</time></trkpt><trkpt lat="55.97038239036564" lon="22.22925847675973"><ele>131.0</ele><time>2026-04-18T10:04:33Z</time></trkpt><trkpt lat="55.97022114022907" lon="22.229186982622956"><ele>131.0</ele><time>2026-04-18T10:04:34Z</time></trkpt><trkpt lat="55.97006609399144" lon="22.229109261533882"><ele>131.0</ele><time>2026-04-18T10:04:35Z</time></trkpt><trkpt lat="55.969921623715976" lon="22.229046569760996"><ele>131.0</ele><time>2026-04-18T10:04:36Z</time></trkpt><trkpt lat="55.96978101931594" lon="22.22899220848399"><ele>132.25</ele><time>2026-04-18T10:04:37Z</time></trkpt><trkpt lat="55.96965066608125" lon="22.22893458398321"><ele>133.5</ele><time>2026-04-18T10:04:38Z</time></trkpt><trkpt lat="55.969529948006226" lon="22.228883903162547"><ele>134.75</ele><time>2026-04-18T10:04:39Z</time></trkpt><trkpt lat="55.96942051997482" lon="22.228832261506504"><ele>136.0</ele><time>2026-04-18T10:04:40Z</time></trkpt><trkpt lat="55.9693132378406" lon="22.228786040393228"><ele>136.0</ele><time>2026-04-18T10:04:41Z</time></trkpt><trkpt lat="55.969210219516775" lon="22.22873935107241"><ele>136.0</ele><time>2026-04-18T10:04:42Z</time></trkpt><trkpt lat="55.96910597253263" lon="22.22868685852981"><ele>136.0</ele><time>2026-04-18T10:04:43Z</time></trkpt><trkpt lat="55.968996984950216" lon="22.228637613916383"><ele>136.0</ele><time>2026-04-18T10:04:44Z</time></trkpt><trkpt lat="55.96888685140417" lon="22.228597426263292"><ele>136.0</ele><time>2026-04-18T10:04:45Z</time></trkpt><trkpt lat="55.968783523092156" lon="22.228543309938505"><ele>136.0</ele><time>2026-04-18T10:04:46Z</time></trkpt><trkpt lat="55.96868728634982" lon="22.228509773558677"><ele>136.0</ele><time>2026-04-18T10:04:47Z</time></trkpt><trkpt lat="55.968604950083275" lon="22.228461110559"><ele>136.0</ele><time>2026-04-18T10:04:48Z</time></trkpt><trkpt lat="55.96854230708574" lon="22.22844258377176"><ele>136.0</ele><time>2026-04-18T10:04:49Z</time></trkpt><trkpt lat="55.96847521802457" lon="22.228372424580137"><ele>136.0</ele><time>2026-04-18T10:04:51Z</time></trkpt><trkpt lat="55.96849448812066" lon="22.228183388180934"><ele>136.0</ele><time>2026-04-18T10:04:54Z</time></trkpt><trkpt lat="55.96852086898734" lon="22.22806993702295"><ele>136.0</ele><time>2026-04-18T10:04:55Z</time></trkpt><trkpt lat="55.96854025868207" lon="22.227920274715032"><ele>136.0</ele><time>2026-04-18T10:04:56Z</time></trkpt><trkpt lat="55.9685546628644" lon="22.227783975489707"><ele>136.0</ele><time>2026-04-18T10:04:57Z</time></trkpt><trkpt lat="55.96857493393648" lon="22.227640062440557"><ele>136.0</ele><time>2026-04-18T10:04:58Z</time></trkpt><trkpt lat="55.96859591401749" lon="22.22750346532994"><ele>136.0</ele><time>2026-04-18T10:04:59Z</time></trkpt><trkpt lat="55.96861635481535" lon="22.227391396449892"><ele>136.0</ele><time>2026-04-18T10:05:00Z</time></trkpt><trkpt lat="55.96862389498187" lon="22.22726369367096"><ele>135.75</ele><time>2026-04-18T10:05:02Z</time></trkpt><trkpt lat="55.96846710560047" lon="22.227095671147065"><ele>135.5</ele><time>2026-04-18T10:05:05Z</time></trkpt><trkpt lat="55.96838330364862" lon="22.227075215201143"><ele>135.25</ele><time>2026-04-18T10:05:06Z</time></trkpt><trkpt lat="55.968285385296035" lon="22.227054701137654"><ele>135.0</ele><time>2026-04-18T10:05:07Z</time></trkpt><trkpt lat="55.9681735161312" lon="22.226978880278597"><ele>134.75</ele><time>2026-04-18T10:05:08Z</time></trkpt><trkpt lat="55.968072244831944" lon="22.22694173760588"><ele>134.5</ele><time>2026-04-18T10:05:09Z</time></trkpt><trkpt lat="55.96797059579474" lon="22.226888506638783"><ele>134.25</ele><time>2026-04-18T10:05:10Z</time></trkpt><trkpt lat="55.96785009288842" lon="22.226836378598005"><ele>134.0</ele><time>2026-04-18T10:05:11Z</time></trkpt><trkpt lat="55.96770833840444" lon="22.226785635645758"><ele>134.0</ele><time>2026-04-18T10:05:12Z</time></trkpt><trkpt lat="55.96756112473675" lon="22.226703341697533"><ele>134.0</ele><time>2026-04-18T10:05:13Z</time></trkpt><trkpt lat="55.96741733989708" lon="22.22663501655153"><ele>134.0</ele><time>2026-04-18T10:05:14Z</time></trkpt><trkpt lat="55.967260515853795" lon="22.22656585940393"><ele>133.33333333333331</ele><time>2026-04-18T10:05:15Z</time></trkpt><trkpt lat="55.96710439194662" lon="22.22649333708876"><ele>132.66666666666666</ele><time>2026-04-18T10:05:16Z</time></trkpt><trkpt lat="55.96695321126251" lon="22.22641640016156"><ele>132.0</ele><time>2026-04-18T10:05:17Z</time></trkpt><trkpt lat="55.96679908643565" lon="22.226338457405006"><ele>132.66666666666666</ele><time>2026-04-18T10:05:18Z</time></trkpt><trkpt lat="55.966654023145985" lon="22.226275285196497"><ele>133.33333333333331</ele><time>2026-04-18T10:05:19Z</time></trkpt><trkpt lat="55.96650007081639" lon="22.226217834649646"><ele>134.0</ele><time>2026-04-18T10:05:20Z</time></trkpt><trkpt lat="55.96633622853694" lon="22.226111453696753"><ele>134.0</ele><time>2026-04-18T10:05:21Z</time></trkpt><trkpt lat="55.96619371633911" lon="22.22604500628301"><ele>134.0</ele><time>2026-04-18T10:05:22Z</time></trkpt><trkpt lat="55.966075225220315" lon="22.22598975890643"><ele>134.0</ele><time>2026-04-18T10:05:23Z</time></trkpt><trkpt lat="55.96594785043455" lon="22.22595982791516"><ele>134.0</ele><time>2026-04-18T10:05:24Z</time></trkpt><trkpt lat="55.96582354192783" lon="22.22590002450543"><ele>134.6</ele><time>2026-04-18T10:05:25Z</time></trkpt><trkpt lat="55.96570471192897" lon="22.225817045150755"><ele>135.2</ele><time>2026-04-18T10:05:26Z</time></trkpt><trkpt lat="55.96559351335978" lon="22.22576541374548"><ele>135.79999999999998</ele><time>2026-04-18T10:05:27Z</time></trkpt><trkpt lat="55.96549526608496" lon="22.225728369253336"><ele>136.4</ele><time>2026-04-18T10:05:28Z</time></trkpt><trkpt lat="55.96541674199453" lon="22.225702227832418"><ele>137.0</ele><time>2026-04-18T10:05:29Z</time></trkpt><trkpt lat="55.96535310675447" lon="22.22567717621092"><ele>136.83333333333331</ele><time>2026-04-18T10:05:30Z</time></trkpt><trkpt lat="55.96527190249895" lon="22.225616084362144"><ele>136.66666666666666</ele><time>2026-04-18T10:05:32Z</time></trkpt><trkpt lat="55.96519401762431" lon="22.225606854207687"><ele>136.5</ele><time>2026-04-18T10:05:35Z</time></trkpt><trkpt lat="55.96512046596691" lon="22.225554522188144"><ele>136.33333333333334</ele><time>2026-04-18T10:05:37Z</time></trkpt><trkpt lat="55.965032394948494" lon="22.22551349771757"><ele>136.16666666666669</ele><time>2026-04-18T10:05:39Z</time></trkpt><trkpt lat="55.964963845356564" lon="22.225481265044333"><ele>136.0</ele><time>2026-04-18T10:05:41Z</time></trkpt><trkpt lat="55.964888232022005" lon="22.22544942769732"><ele>135.83333333333334</ele><time>2026-04-18T10:05:43Z</time></trkpt><trkpt lat="55.964813631582366" lon="22.225422470756072"><ele>135.66666666666669</ele><time>2026-04-18T10:05:45Z</time></trkpt><trkpt lat="55.96475268568813" lon="22.225380215636726"><ele>135.5</ele><time>2026-04-18T10:05:48Z</time></trkpt><trkpt lat="55.96472203303273" lon="22.225258595267196"><ele>135.33333333333334</ele><time>2026-04-18T10:05:50Z</time></trkpt><trkpt lat="55.96474469361397" lon="22.22513161282518"><ele>135.16666666666666</ele><time>2026-04-18T10:05:51Z</time></trkpt><trkpt lat="55.96477830742025" lon="22.224970366277322"><ele>135.0</ele><time>2026-04-18T10:05:52Z</time></trkpt><trkpt lat="55.96480387139065" lon="22.224793515337268"><ele>134.5</ele><time>2026-04-18T10:05:53Z</time></trkpt><trkpt lat="55.96481833622389" lon="22.22455615545769"><ele>134.0</ele><time>2026-04-18T10:05:53.999Z</time></trkpt><trkpt lat="55.96484728830516" lon="22.22431572074733"><ele>133.5</ele><time>2026-04-18T10:05:54.999Z</time></trkpt><trkpt lat="55.96486823528504" lon="22.22404777118489"><ele>133.0</ele><time>2026-04-18T10:05:55.999Z</time></trkpt><trkpt lat="55.964912343630985" lon="22.223778990075417"><ele>132.0</ele><time>2026-04-18T10:05:56.999Z</time></trkpt><trkpt lat="55.96491952408405" lon="22.223528402338353"><ele>131.0</ele><time>2026-04-18T10:05:57.999Z</time></trkpt><trkpt lat="55.96494466051804" lon="22.223313988271272"><ele>130.0</ele><time>2026-04-18T10:05:58.999Z</time></trkpt><trkpt lat="55.96496898518688" lon="22.223119460568615"><ele>129.0</ele><time>2026-04-18T10:05:59.999Z</time></trkpt><trkpt lat="55.96499141435489" lon="22.22291786484823"><ele>128.75</ele><time>2026-04-18T10:06:00.999Z</time></trkpt><trkpt lat="55.96501846259646" lon="22.222713448871872"><ele>128.5</ele><time>2026-04-18T10:06:01.999Z</time></trkpt><trkpt lat="55.9650490551724" lon="22.222509219231615"><ele>128.25</ele><time>2026-04-18T10:06:02.999Z</time></trkpt><trkpt lat="55.965076858025185" lon="22.22228827551224"><ele>128.0</ele><time>2026-04-18T10:06:03.999Z</time></trkpt><trkpt lat="55.965100792087505" lon="22.222052644276467"><ele>128.5</ele><time>2026-04-18T10:06:04.999Z</time></trkpt><trkpt lat="55.965121967007505" lon="22.221863919927696"><ele>129.0</ele><time>2026-04-18T10:06:05.999Z</time></trkpt><trkpt lat="55.96514363159879" lon="22.221704704295423"><ele>129.5</ele><time>2026-04-18T10:06:06.999Z</time></trkpt><trkpt lat="55.96516173424991" lon="22.221578677677055"><ele>130.0</ele><time>2026-04-18T10:06:07.999Z</time></trkpt><trkpt lat="55.96517974281738" lon="22.221398954277046"><ele>130.5</ele><time>2026-04-18T10:06:09.999Z</time></trkpt><trkpt lat="55.96516965550455" lon="22.221287011808826"><ele>131.0</ele><time>2026-04-18T10:06:12.999Z</time></trkpt><trkpt lat="55.96502061336554" lon="22.221220229761343"><ele>131.2</ele><time>2026-04-18T10:06:13.999Z</time></trkpt><trkpt lat="55.9649338275586" lon="22.221177901852407"><ele>131.39999999999998</ele><time>2026-04-18T10:06:14.999Z</time></trkpt><trkpt lat="55.964825223372074" lon="22.221144570650626"><ele>131.6</ele><time>2026-04-18T10:06:15.999Z</time></trkpt><trkpt lat="55.96470776499567" lon="22.221105998030954"><ele>131.79999999999998</ele><time>2026-04-18T10:06:16.999Z</time></trkpt><trkpt lat="55.96460696008695" lon="22.221059618025258"><ele>132.0</ele><time>2026-04-18T10:06:17.999Z</time></trkpt><trkpt lat="55.96452765718189" lon="22.221028594973458"><ele>132.0</ele><time>2026-04-18T10:06:18.999Z</time></trkpt><trkpt lat="55.964450952588635" lon="22.2209972167855"><ele>132.0</ele><time>2026-04-18T10:06:19.999Z</time></trkpt><trkpt lat="55.964368786590995" lon="22.22096077784876"><ele>132.0</ele><time>2026-04-18T10:06:20.999Z</time></trkpt><trkpt lat="55.9642867987907" lon="22.220922499870372"><ele>132.0</ele><time>2026-04-18T10:06:21.999Z</time></trkpt><trkpt lat="55.964220746410234" lon="22.220887573436226"><ele>132.0</ele><time>2026-04-18T10:06:22.999Z</time></trkpt><trkpt lat="55.96415138085867" lon="22.220841898768153"><ele>132.0</ele><time>2026-04-18T10:06:24.999Z</time></trkpt><trkpt lat="55.96412480150911" lon="22.22047698759709"><ele>131.83333333333334</ele><time>2026-04-18T10:06:29Z</time></trkpt><trkpt lat="55.96409872827394" lon="22.220261687998143"><ele>131.66666666666666</ele><time>2026-04-18T10:06:31Z</time></trkpt><trkpt lat="55.96406280151636" lon="22.220139078977738"><ele>131.5</ele><time>2026-04-18T10:06:32Z</time></trkpt><trkpt lat="55.96402513893431" lon="22.2200144339838"><ele>131.33333333333331</ele><time>2026-04-18T10:06:33Z</time></trkpt><trkpt lat="55.963987177860375" lon="22.2199093297422"><ele>131.16666666666666</ele><time>2026-04-18T10:06:34Z</time></trkpt><trkpt lat="55.96395412550452" lon="22.21978714027222"><ele>131.0</ele><time>2026-04-18T10:06:35Z</time></trkpt><trkpt lat="55.96392662918637" lon="22.21963607519782"><ele>132.0</ele><time>2026-04-18T10:06:36Z</time></trkpt><trkpt lat="55.963915017810436" lon="22.219478280535338"><ele>133.0</ele><time>2026-04-18T10:06:37Z</time></trkpt><trkpt lat="55.96391414956744" lon="22.219279446259634"><ele>134.0</ele><time>2026-04-18T10:06:38Z</time></trkpt><trkpt lat="55.96392192445154" lon="22.2190274208386"><ele>135.0</ele><time>2026-04-18T10:06:39Z</time></trkpt><trkpt lat="55.963929488342245" lon="22.21873839868773"><ele>135.8</ele><time>2026-04-18T10:06:40Z</time></trkpt><trkpt lat="55.96392667233273" lon="22.218504171387"><ele>136.6</ele><time>2026-04-18T10:06:41Z</time></trkpt><trkpt lat="55.96392941868017" lon="22.218328507838155"><ele>137.4</ele><time>2026-04-18T10:06:42Z</time></trkpt><trkpt lat="55.96393136575531" lon="22.218171859785247"><ele>138.2</ele><time>2026-04-18T10:06:43Z</time></trkpt><trkpt lat="55.9639380722981" lon="22.21804869336362"><ele>139.0</ele><time>2026-04-18T10:06:44Z</time></trkpt><trkpt lat="55.96394962253098" lon="22.217923326051253"><ele>139.66666666666669</ele><time>2026-04-18T10:06:45Z</time></trkpt><trkpt lat="55.963944995313646" lon="22.217763131600318"><ele>140.33333333333334</ele><time>2026-04-18T10:06:46Z</time></trkpt><trkpt lat="55.963945379997014" lon="22.21760347191473"><ele>141.0</ele><time>2026-04-18T10:06:47Z</time></trkpt><trkpt lat="55.9639496780752" lon="22.21746090199148"><ele>141.66666666666666</ele><time>2026-04-18T10:06:48Z</time></trkpt><trkpt lat="55.96394759648099" lon="22.217263585900323"><ele>142.33333333333331</ele><time>2026-04-18T10:06:50Z</time></trkpt><trkpt lat="55.96395125800653" lon="22.21713438565438"><ele>143.0</ele><time>2026-04-18T10:06:54Z</time></trkpt><trkpt lat="55.96394485625126" lon="22.217012268984508"><ele>143.66666666666666</ele><time>2026-04-18T10:06:56Z</time></trkpt><trkpt lat="55.96389550495566" lon="22.216865186237037"><ele>144.33333333333331</ele><time>2026-04-18T10:06:59Z</time></trkpt><trkpt lat="55.96385963851834" lon="22.21673932635959"><ele>145.0</ele><time>2026-04-18T10:07:01Z</time></trkpt><trkpt lat="55.963829208211806" lon="22.21663374805643"><ele>145.66666666666666</ele><time>2026-04-18T10:07:04Z</time></trkpt><trkpt lat="55.96381496185371" lon="22.216512655061717"><ele>146.33333333333334</ele><time>2026-04-18T10:07:07Z</time></trkpt><trkpt lat="55.96374656154737" lon="22.216407369634954"><ele>147.0</ele><time>2026-04-18T10:07:10Z</time></trkpt><trkpt lat="55.96370932064548" lon="22.21630164763065"><ele>147.5</ele><time>2026-04-18T10:07:12Z</time></trkpt><trkpt lat="55.963673457024875" lon="22.216134152734178"><ele>148.0</ele><time>2026-04-18T10:07:15Z</time></trkpt><trkpt lat="55.96398597877374" lon="22.215695694177853"><ele>147.33333333333334</ele><time>2026-04-18T10:07:16Z</time></trkpt><trkpt lat="55.96398413638592" lon="22.215554660966497"><ele>146.66666666666669</ele><time>2026-04-18T10:07:18Z</time></trkpt><trkpt lat="55.96397678876738" lon="22.215376342408234"><ele>146.0</ele><time>2026-04-18T10:07:20Z</time></trkpt><trkpt lat="55.96396068050704" lon="22.21524459235524"><ele>145.33333333333334</ele><time>2026-04-18T10:07:22Z</time></trkpt><trkpt lat="55.963945282760676" lon="22.21509513449767"><ele>144.66666666666666</ele><time>2026-04-18T10:07:24Z</time></trkpt><trkpt lat="55.96394241347142" lon="22.21495565531287"><ele>144.0</ele><time>2026-04-18T10:07:26Z</time></trkpt><trkpt lat="55.96389648030184" lon="22.214790909684606"><ele>143.0</ele><time>2026-04-18T10:07:28Z</time></trkpt><trkpt lat="55.963863333659106" lon="22.21465945002469"><ele>142.0</ele><time>2026-04-18T10:07:30Z</time></trkpt><trkpt lat="55.96386758308082" lon="22.214544876532603"><ele>141.0</ele><time>2026-04-18T10:07:32Z</time></trkpt><trkpt lat="55.96381698760686" lon="22.21424287631429"><ele>140.0</ele><time>2026-04-18T10:07:34Z</time></trkpt><trkpt lat="55.96392124616079" lon="22.214027892111563"><ele>139.8</ele><time>2026-04-18T10:07:36Z</time></trkpt><trkpt lat="55.96398790000707" lon="22.21389078241224"><ele>139.6</ele><time>2026-04-18T10:07:37Z</time></trkpt><trkpt lat="55.96404048446572" lon="22.213782660900595"><ele>139.4</ele><time>2026-04-18T10:07:38Z</time></trkpt><trkpt lat="55.964094992232205" lon="22.213670584687193"><ele>139.2</ele><time>2026-04-18T10:07:39Z</time></trkpt><trkpt lat="55.96415771400435" lon="22.21354161927838"><ele>139.0</ele><time>2026-04-18T10:07:41Z</time></trkpt><trkpt lat="55.96421905790271" lon="22.21341548698489"><ele>142.5</ele><time>2026-04-18T10:07:43Z</time></trkpt><trkpt lat="55.96428310120534" lon="22.213283804316887"><ele>146.0</ele><time>2026-04-18T10:07:45Z</time></trkpt><trkpt lat="55.96476676620216" lon="22.213180305064984"><ele>146.0</ele><time>2026-04-18T10:07:47Z</time></trkpt><trkpt lat="55.96497999657638" lon="22.213600399866923"><ele>146.0</ele><time>2026-04-18T10:07:51Z</time></trkpt><trkpt lat="55.965041158891744" lon="22.21350410886752"><ele>146.0</ele><time>2026-04-18T10:07:52Z</time></trkpt><trkpt lat="55.965095791522" lon="22.213418097948317"><ele>146.2</ele><time>2026-04-18T10:07:53Z</time></trkpt><trkpt lat="55.96518525126636" lon="22.21327725741504"><ele>146.39999999999998</ele><time>2026-04-18T10:07:55Z</time></trkpt><trkpt lat="55.96523469157907" lon="22.213192418913533"><ele>146.6</ele><time>2026-04-18T10:07:56Z</time></trkpt><trkpt lat="55.96530512629659" lon="22.21306293017404"><ele>146.79999999999998</ele><time>2026-04-18T10:07:58Z</time></trkpt><trkpt lat="55.96537900442854" lon="22.21293629204443"><ele>147.0</ele><time>2026-04-18T10:07:59.999Z</time></trkpt><trkpt lat="55.965472574252786" lon="22.21278837817824"><ele>147.0</ele><time>2026-04-18T10:08:01.999Z</time></trkpt><trkpt lat="55.96556104446668" lon="22.212698573940052"><ele>147.0</ele><time>2026-04-18T10:08:03.999Z</time></trkpt><trkpt lat="55.96566443096191" lon="22.212600436088604"><ele>147.0</ele><time>2026-04-18T10:08:05.999Z</time></trkpt><trkpt lat="55.965727085202715" lon="22.212540898721468"><ele>147.0</ele><time>2026-04-18T10:08:06.999Z</time></trkpt><trkpt lat="55.965820452691794" lon="22.212425192190537"><ele>147.0</ele><time>2026-04-18T10:08:07.999Z</time></trkpt><trkpt lat="55.96591535971852" lon="22.212279060019455"><ele>147.79999999999998</ele><time>2026-04-18T10:08:08.999Z</time></trkpt><trkpt lat="55.96598451691025" lon="22.212162435497568"><ele>148.6</ele><time>2026-04-18T10:08:09.999Z</time></trkpt><trkpt lat="55.96605933884773" lon="22.212013681706768"><ele>149.39999999999998</ele><time>2026-04-18T10:08:11.999Z</time></trkpt><trkpt lat="55.966126552827895" lon="22.211863398392662"><ele>150.2</ele><time>2026-04-18T10:08:13.999Z</time></trkpt><trkpt lat="55.96617652084129" lon="22.211721529445406"><ele>151.0</ele><time>2026-04-18T10:08:14.999Z</time></trkpt><trkpt lat="55.966213829037954" lon="22.211589783038157"><ele>151.33333333333334</ele><time>2026-04-18T10:08:15.999Z</time></trkpt><trkpt lat="55.966247521071296" lon="22.211423066185873"><ele>151.66666666666669</ele><time>2026-04-18T10:08:16.999Z</time></trkpt><trkpt lat="55.96627744150449" lon="22.21123339840515"><ele>152.0</ele><time>2026-04-18T10:08:17.999Z</time></trkpt><trkpt lat="55.966299502001185" lon="22.211086738639636"><ele>152.33333333333334</ele><time>2026-04-18T10:08:18.999Z</time></trkpt><trkpt lat="55.966319182558294" lon="22.210956505079256"><ele>152.66666666666666</ele><time>2026-04-18T10:08:19.999Z</time></trkpt><trkpt lat="55.966336890930165" lon="22.210840134606894"><ele>153.0</ele><time>2026-04-18T10:08:20.999Z</time></trkpt><trkpt lat="55.96635802023972" lon="22.21070275802015"><ele>153.66666666666666</ele><time>2026-04-18T10:08:21.999Z</time></trkpt><trkpt lat="55.966366488079956" lon="22.210579317204807"><ele>154.33333333333334</ele><time>2026-04-18T10:08:22.999Z</time></trkpt><trkpt lat="55.96637461601648" lon="22.21044121976731"><ele>155.0</ele><time>2026-04-18T10:08:23.999Z</time></trkpt><trkpt lat="55.96638501711663" lon="22.21030054029025"><ele>155.66666666666669</ele><time>2026-04-18T10:08:24.999Z</time></trkpt><trkpt lat="55.96639684218731" lon="22.210146262047722"><ele>156.33333333333334</ele><time>2026-04-18T10:08:25.999Z</time></trkpt><trkpt lat="55.966406446435606" lon="22.21001789853046"><ele>157.0</ele><time>2026-04-18T10:08:26.999Z</time></trkpt><trkpt lat="55.96641395903976" lon="22.209859561485295"><ele>157.66666666666669</ele><time>2026-04-18T10:08:28Z</time></trkpt><trkpt lat="55.966421705615346" lon="22.209702470835285"><ele>158.33333333333334</ele><time>2026-04-18T10:08:29Z</time></trkpt><trkpt lat="55.96642741503178" lon="22.20958736416017"><ele>159.0</ele><time>2026-04-18T10:08:30Z</time></trkpt><trkpt lat="55.96643298581723" lon="22.209459721246997"><ele>159.66666666666666</ele><time>2026-04-18T10:08:31Z</time></trkpt><trkpt lat="55.96644175786235" lon="22.209277095588355"><ele>160.33333333333331</ele><time>2026-04-18T10:08:33Z</time></trkpt><trkpt lat="55.96645014660222" lon="22.209145340642785"><ele>161.0</ele><time>2026-04-18T10:08:35Z</time></trkpt><trkpt lat="55.96646083507931" lon="22.20898775494023"><ele>161.5</ele><time>2026-04-18T10:08:38Z</time></trkpt><trkpt lat="55.96646760172635" lon="22.20884319360493"><ele>162.0</ele><time>2026-04-18T10:08:40Z</time></trkpt><trkpt lat="55.96647642265591" lon="22.208692426641917"><ele>162.5</ele><time>2026-04-18T10:08:43Z</time></trkpt><trkpt lat="55.96648717417549" lon="22.208499983076038"><ele>163.0</ele><time>2026-04-18T10:08:45Z</time></trkpt><trkpt lat="55.96650334897743" lon="22.208353676409363"><ele>163.5</ele><time>2026-04-18T10:08:47Z</time></trkpt><trkpt lat="55.966519788008796" lon="22.20823860322602"><ele>164.0</ele><time>2026-04-18T10:08:48Z</time></trkpt><trkpt lat="55.966535639671804" lon="22.208127641548213"><ele>164.2</ele><time>2026-04-18T10:08:49Z</time></trkpt><trkpt lat="55.96656222576212" lon="22.207940465669125"><ele>164.39999999999998</ele><time>2026-04-18T10:08:51Z</time></trkpt><trkpt lat="55.96656966356637" lon="22.207808387619234"><ele>164.6</ele><time>2026-04-18T10:08:52Z</time></trkpt><trkpt lat="55.96657957604608" lon="22.20768515546163"><ele>164.8</ele><time>2026-04-18T10:08:53Z</time></trkpt><trkpt lat="55.966590462680195" lon="22.207485403622254"><ele>165.0</ele><time>2026-04-18T10:08:55Z</time></trkpt><trkpt lat="55.96659816055984" lon="22.20730987270445"><ele>165.0</ele><time>2026-04-18T10:08:57Z</time></trkpt><trkpt lat="55.96660340785713" lon="22.207110846835636"><ele>165.0</ele><time>2026-04-18T10:08:59Z</time></trkpt><trkpt lat="55.96660729449386" lon="22.206918597035735"><ele>165.0</ele><time>2026-04-18T10:09:01Z</time></trkpt><trkpt lat="55.96660083877017" lon="22.20674968320014"><ele>165.0</ele><time>2026-04-18T10:09:03Z</time></trkpt><trkpt lat="55.96660561005158" lon="22.206631402448416"><ele>165.0</ele><time>2026-04-18T10:09:05Z</time></trkpt><trkpt lat="55.96663831227035" lon="22.206508271492606"><ele>165.2</ele><time>2026-04-18T10:09:07Z</time></trkpt><trkpt lat="55.966662625425265" lon="22.206361861692177"><ele>165.4</ele><time>2026-04-18T10:09:09Z</time></trkpt><trkpt lat="55.966686002348695" lon="22.206234178646834"><ele>165.60000000000002</ele><time>2026-04-18T10:09:11Z</time></trkpt><trkpt lat="55.9667104127584" lon="22.206109205006477"><ele>165.8</ele><time>2026-04-18T10:09:15Z</time></trkpt><trkpt lat="55.96671611819246" lon="22.205978076449544"><ele>166.0</ele><time>2026-04-18T10:09:23Z</time></trkpt><trkpt lat="55.96659249179223" lon="22.205845239844603"><ele>166.0</ele><time>2026-04-18T10:09:30Z</time></trkpt><trkpt lat="55.96653223271955" lon="22.205799538867048"><ele>166.0</ele><time>2026-04-18T10:09:33Z</time></trkpt><trkpt lat="55.9664498036448" lon="22.2057779688955"><ele>166.0</ele><time>2026-04-18T10:09:36Z</time></trkpt><trkpt lat="55.96639202615527" lon="22.20566846349484"><ele>166.0</ele><time>2026-04-18T10:09:40Z</time></trkpt><trkpt lat="55.966317136862365" lon="22.20559380646762"><ele>166.0</ele><time>2026-04-18T10:09:42Z</time></trkpt><trkpt lat="55.96628022585222" lon="22.20549274273474"><ele>166.0</ele><time>2026-04-18T10:09:44Z</time></trkpt><trkpt lat="55.9662475057218" lon="22.20532884505641"><ele>166.66666666666669</ele><time>2026-04-18T10:09:46Z</time></trkpt><trkpt lat="55.96620428302455" lon="22.2051370974321"><ele>167.33333333333334</ele><time>2026-04-18T10:09:48Z</time></trkpt><trkpt lat="55.96617400696819" lon="22.20498037617557"><ele>168.0</ele><time>2026-04-18T10:09:50Z</time></trkpt><trkpt lat="55.9661477616842" lon="22.204860298127958"><ele>168.66666666666666</ele><time>2026-04-18T10:09:54Z</time></trkpt><trkpt lat="55.966197061508765" lon="22.204722160001857"><ele>169.33333333333331</ele><time>2026-04-18T10:09:56Z</time></trkpt><trkpt lat="55.966222635869826" lon="22.204609538354298"><ele>170.0</ele><time>2026-04-18T10:09:57Z</time></trkpt><trkpt lat="55.96622643369545" lon="22.20448380158431"><ele>170.0</ele><time>2026-04-18T10:09:58Z</time></trkpt><trkpt lat="55.96623348589148" lon="22.204370217872434"><ele>170.0</ele><time>2026-04-18T10:09:59Z</time></trkpt><trkpt lat="55.96622028869712" lon="22.20417419920517"><ele>170.0</ele><time>2026-04-18T10:10:02Z</time></trkpt><trkpt lat="55.96619162802004" lon="22.203988383685942"><ele>170.0</ele><time>2026-04-18T10:10:04Z</time></trkpt><trkpt lat="55.9661565659226" lon="22.203821439568564"><ele>170.0</ele><time>2026-04-18T10:10:05.999Z</time></trkpt><trkpt lat="55.96610696481061" lon="22.203647285255897"><ele>169.8</ele><time>2026-04-18T10:10:07.999Z</time></trkpt><trkpt lat="55.966042511363874" lon="22.203479628388358"><ele>169.6</ele><time>2026-04-18T10:10:09.999Z</time></trkpt><trkpt lat="55.9660023489197" lon="22.203326005798075"><ele>169.39999999999998</ele><time>2026-04-18T10:10:11.999Z</time></trkpt><trkpt lat="55.96599498134394" lon="22.203183419095865"><ele>169.2</ele><time>2026-04-18T10:10:13.999Z</time></trkpt><trkpt lat="55.96597665181314" lon="22.202999988052998"><ele>169.0</ele><time>2026-04-18T10:10:16.999Z</time></trkpt><trkpt lat="55.96598108648055" lon="22.202864956858186"><ele>169.66666666666669</ele><time>2026-04-18T10:10:18.999Z</time></trkpt><trkpt lat="55.96594841111954" lon="22.202767841127372"><ele>170.33333333333334</ele><time>2026-04-18T10:10:20.999Z</time></trkpt><trkpt lat="55.96588051447666" lon="22.202620819730488"><ele>171.0</ele><time>2026-04-18T10:10:22.999Z</time></trkpt><trkpt lat="55.96581783766823" lon="22.202505044090998"><ele>171.66666666666666</ele><time>2026-04-18T10:10:24Z</time></trkpt><trkpt lat="55.965775884785906" lon="22.202369262223403"><ele>172.33333333333331</ele><time>2026-04-18T10:10:25Z</time></trkpt><trkpt lat="55.96574725611411" lon="22.20223284381817"><ele>173.0</ele><time>2026-04-18T10:10:27Z</time></trkpt><trkpt lat="55.96566389537759" lon="22.20206925468091"><ele>174.0</ele><time>2026-04-18T10:10:29Z</time></trkpt><trkpt lat="55.96561220401983" lon="22.20200435614955"><ele>175.0</ele><time>2026-04-18T10:10:30Z</time></trkpt><trkpt lat="55.96554741096338" lon="22.20186548925518"><ele>176.0</ele><time>2026-04-18T10:10:32Z</time></trkpt><trkpt lat="55.96551766815853" lon="22.201765233362675"><ele>177.0</ele><time>2026-04-18T10:10:33Z</time></trkpt><trkpt lat="55.965506125785154" lon="22.20159527178526"><ele>178.0</ele><time>2026-04-18T10:10:36Z</time></trkpt><trkpt lat="55.9654952619986" lon="22.201463395594946"><ele>179.0</ele><time>2026-04-18T10:10:38Z</time></trkpt><trkpt lat="55.96545705187622" lon="22.20130171249395"><ele>179.33333333333331</ele><time>2026-04-18T10:10:40Z</time></trkpt><trkpt lat="55.965424817381255" lon="22.201189385911373"><ele>179.66666666666666</ele><time>2026-04-18T10:10:41Z</time></trkpt><trkpt lat="55.96539186301745" lon="22.201075768730206"><ele>180.0</ele><time>2026-04-18T10:10:42Z</time></trkpt><trkpt lat="55.96535963503732" lon="22.20096836366342"><ele>180.33333333333334</ele><time>2026-04-18T10:10:43Z</time></trkpt><trkpt lat="55.96531066460837" lon="22.200845178218525"><ele>180.66666666666669</ele><time>2026-04-18T10:10:45Z</time></trkpt><trkpt lat="55.965250588437414" lon="22.200661721556433"><ele>181.0</ele><time>2026-04-18T10:10:47Z</time></trkpt><trkpt lat="55.96521436109146" lon="22.200487565156628"><ele>181.0</ele><time>2026-04-18T10:10:49Z</time></trkpt><trkpt lat="55.965176920805824" lon="22.200293766638353"><ele>181.0</ele><time>2026-04-18T10:10:51Z</time></trkpt><trkpt lat="55.96516125612269" lon="22.20017769574671"><ele>181.0</ele><time>2026-04-18T10:10:52Z</time></trkpt><trkpt lat="55.96515811460194" lon="22.200031243568688"><ele>181.0</ele><time>2026-04-18T10:10:54Z</time></trkpt><trkpt lat="55.96515518509892" lon="22.199848792691586"><ele>181.0</ele><time>2026-04-18T10:10:56Z</time></trkpt><trkpt lat="55.96514511341484" lon="22.19964088011694"><ele>181.5</ele><time>2026-04-18T10:10:58Z</time></trkpt><trkpt lat="55.96514009475699" lon="22.19951718355176"><ele>182.0</ele><time>2026-04-18T10:10:59Z</time></trkpt><trkpt lat="55.96512891016452" lon="22.199403441216134"><ele>182.5</ele><time>2026-04-18T10:11:00Z</time></trkpt><trkpt lat="55.96512032703056" lon="22.199290363111867"><ele>183.0</ele><time>2026-04-18T10:11:01Z</time></trkpt><trkpt lat="55.96509962999342" lon="22.19907290886141"><ele>183.5</ele><time>2026-04-18T10:11:03Z</time></trkpt><trkpt lat="55.96508613108826" lon="22.19895572743346"><ele>184.0</ele><time>2026-04-18T10:11:04Z</time></trkpt><trkpt lat="55.9650733079535" lon="22.198829306700933"><ele>184.0</ele><time>2026-04-18T10:11:05Z</time></trkpt><trkpt lat="55.96506524370544" lon="22.198713131586935"><ele>184.0</ele><time>2026-04-18T10:11:06Z</time></trkpt><trkpt lat="55.965057983952704" lon="22.19859951498086"><ele>184.0</ele><time>2026-04-18T10:11:07Z</time></trkpt><trkpt lat="55.965048574589005" lon="22.19847594107996"><ele>184.0</ele><time>2026-04-18T10:11:08Z</time></trkpt><trkpt lat="55.96503833370172" lon="22.198357187733613"><ele>184.0</ele><time>2026-04-18T10:11:09Z</time></trkpt><trkpt lat="55.96502401258812" lon="22.198239498482"><ele>184.0</ele><time>2026-04-18T10:11:10Z</time></trkpt><trkpt lat="55.965014171718266" lon="22.198117881433948"><ele>184.0</ele><time>2026-04-18T10:11:11Z</time></trkpt><trkpt lat="55.964992323387605" lon="22.197917916972386"><ele>184.66666666666669</ele><time>2026-04-18T10:11:13Z</time></trkpt><trkpt lat="55.96497629703186" lon="22.197808634329167"><ele>185.33333333333334</ele><time>2026-04-18T10:11:14Z</time></trkpt><trkpt lat="55.964965523786425" lon="22.197671988715946"><ele>186.0</ele><time>2026-04-18T10:11:15Z</time></trkpt><trkpt lat="55.96495500486945" lon="22.19754026696574"><ele>186.66666666666666</ele><time>2026-04-18T10:11:16Z</time></trkpt><trkpt lat="55.96493615724086" lon="22.19739769319541"><ele>187.33333333333331</ele><time>2026-04-18T10:11:17Z</time></trkpt><trkpt lat="55.9649058008094" lon="22.197242709074885"><ele>188.0</ele><time>2026-04-18T10:11:18Z</time></trkpt><trkpt lat="55.964886982986634" lon="22.19711203739369"><ele>188.33333333333331</ele><time>2026-04-18T10:11:19Z</time></trkpt><trkpt lat="55.9648667895701" lon="22.196984831897353"><ele>188.66666666666666</ele><time>2026-04-18T10:11:20Z</time></trkpt><trkpt lat="55.96482990735768" lon="22.196854934382607"><ele>189.0</ele><time>2026-04-18T10:11:21Z</time></trkpt><trkpt lat="55.96479738900487" lon="22.196731889318155"><ele>189.33333333333334</ele><time>2026-04-18T10:11:22Z</time></trkpt><trkpt lat="55.96478345275511" lon="22.19653309937149"><ele>189.66666666666669</ele><time>2026-04-18T10:11:24Z</time></trkpt><trkpt lat="55.964798244794146" lon="22.19636146714902"><ele>190.0</ele><time>2026-04-18T10:11:26Z</time></trkpt><trkpt lat="55.96482628349593" lon="22.196182387908298"><ele>190.0</ele><time>2026-04-18T10:11:28Z</time></trkpt><trkpt lat="55.964851281701186" lon="22.19600452642094"><ele>190.0</ele><time>2026-04-18T10:11:30Z</time></trkpt><trkpt lat="55.964875308574236" lon="22.195829057753834"><ele>190.0</ele><time>2026-04-18T10:11:32Z</time></trkpt><trkpt lat="55.96489560994506" lon="22.19562592856745"><ele>190.0</ele><time>2026-04-18T10:11:34Z</time></trkpt><trkpt lat="55.96491530495948" lon="22.195450409030066"><ele>190.0</ele><time>2026-04-18T10:11:36Z</time></trkpt><trkpt lat="55.96491130181852" lon="22.19533399766112"><ele>189.0</ele><time>2026-04-18T10:11:38Z</time></trkpt><trkpt lat="55.96492434188387" lon="22.195205386763362"><ele>188.0</ele><time>2026-04-18T10:11:41Z</time></trkpt><trkpt lat="55.964926987818735" lon="22.19507789987492"><ele>187.0</ele><time>2026-04-18T10:11:44Z</time></trkpt><trkpt lat="55.96492068021753" lon="22.194943511060323"><ele>186.0</ele><time>2026-04-18T10:11:46Z</time></trkpt><trkpt lat="55.96488396557396" lon="22.194768020982014"><ele>185.0</ele><time>2026-04-18T10:11:48Z</time></trkpt><trkpt lat="55.96483629575759" lon="22.194605904110514"><ele>184.0</ele><time>2026-04-18T10:11:50Z</time></trkpt><trkpt lat="55.9648056754102" lon="22.19450328483758"><ele>183.0</ele><time>2026-04-18T10:11:51Z</time></trkpt><trkpt lat="55.96478216989043" lon="22.19431120251787"><ele>182.0</ele><time>2026-04-18T10:11:53Z</time></trkpt><trkpt lat="55.96476814866795" lon="22.194177281723427"><ele>181.0</ele><time>2026-04-18T10:11:55Z</time></trkpt><trkpt lat="55.96474340975286" lon="22.19406087757003"><ele>180.0</ele><time>2026-04-18T10:11:57Z</time></trkpt><trkpt lat="55.9646583207896" lon="22.19393652630533"><ele>179.0</ele><time>2026-04-18T10:11:59Z</time></trkpt><trkpt lat="55.96459038865692" lon="22.193781256093025"><ele>179.0</ele><time>2026-04-18T10:12:01Z</time></trkpt><trkpt lat="55.964551026059326" lon="22.19364006715748"><ele>179.0</ele><time>2026-04-18T10:12:03Z</time></trkpt><trkpt lat="55.96449434499367" lon="22.193463072600075"><ele>179.0</ele><time>2026-04-18T10:12:05Z</time></trkpt><trkpt lat="55.96445225567922" lon="22.19331757896347"><ele>179.0</ele><time>2026-04-18T10:12:07Z</time></trkpt><trkpt lat="55.96439435055506" lon="22.193142685630256"><ele>179.0</ele><time>2026-04-18T10:12:09Z</time></trkpt><trkpt lat="55.96433105773338" lon="22.192999155428623"><ele>179.6</ele><time>2026-04-18T10:12:11Z</time></trkpt><trkpt lat="55.964299511726715" lon="22.19281760399171"><ele>180.2</ele><time>2026-04-18T10:12:13Z</time></trkpt><trkpt lat="55.9642577114575" lon="22.19262067211631"><ele>180.79999999999998</ele><time>2026-04-18T10:12:15Z</time></trkpt><trkpt lat="55.96423740789636" lon="22.192512612102476"><ele>181.39999999999998</ele><time>2026-04-18T10:12:16Z</time></trkpt><trkpt lat="55.964216347760775" lon="22.192394622608088"><ele>182.0</ele><time>2026-04-18T10:12:17Z</time></trkpt><trkpt lat="55.964189719762906" lon="22.192181276882362"><ele>182.0</ele><time>2026-04-18T10:12:19Z</time></trkpt><trkpt lat="55.9641808544561" lon="22.19206262334569"><ele>182.0</ele><time>2026-04-18T10:12:20Z</time></trkpt><trkpt lat="55.96416755619117" lon="22.191939159119194"><ele>182.0</ele><time>2026-04-18T10:12:21Z</time></trkpt><trkpt lat="55.96417634313003" lon="22.191718427443327"><ele>182.0</ele><time>2026-04-18T10:12:23Z</time></trkpt><trkpt lat="55.96419228564346" lon="22.19160003673684"><ele>182.0</ele><time>2026-04-18T10:12:24Z</time></trkpt><trkpt lat="55.964216085154916" lon="22.19148124956871"><ele>182.0</ele><time>2026-04-18T10:12:25Z</time></trkpt><trkpt lat="55.964233407076264" lon="22.191367956951638"><ele>182.0</ele><time>2026-04-18T10:12:26Z</time></trkpt><trkpt lat="55.96424708235538" lon="22.191244079207944"><ele>182.0</ele><time>2026-04-18T10:12:27Z</time></trkpt><trkpt lat="55.96426330803104" lon="22.191128454698177"><ele>182.0</ele><time>2026-04-18T10:12:28Z</time></trkpt><trkpt lat="55.964273732576515" lon="22.190997894711373"><ele>182.0</ele><time>2026-04-18T10:12:29Z</time></trkpt><trkpt lat="55.96427661562204" lon="22.19084733394357"><ele>182.0</ele><time>2026-04-18T10:12:30Z</time></trkpt><trkpt lat="55.964274165204415" lon="22.19067879604892"><ele>182.0</ele><time>2026-04-18T10:12:31Z</time></trkpt><trkpt lat="55.96426859123476" lon="22.19053966058244"><ele>181.6</ele><time>2026-04-18T10:12:32Z</time></trkpt><trkpt lat="55.9642651134779" lon="22.190361062682733"><ele>181.2</ele><time>2026-04-18T10:12:34Z</time></trkpt><trkpt lat="55.964262048119664" lon="22.190148940480732"><ele>180.8</ele><time>2026-04-18T10:12:36Z</time></trkpt><trkpt lat="55.96427301627902" lon="22.18994009649262"><ele>180.4</ele><time>2026-04-18T10:12:38Z</time></trkpt><trkpt lat="55.96427792949339" lon="22.189749696814637"><ele>180.0</ele><time>2026-04-18T10:12:40Z</time></trkpt><trkpt lat="55.96426481595058" lon="22.189556738551236"><ele>178.6</ele><time>2026-04-18T10:12:42Z</time></trkpt><trkpt lat="55.9642558591318" lon="22.189359422548783"><ele>177.2</ele><time>2026-04-18T10:12:44Z</time></trkpt><trkpt lat="55.96425881999984" lon="22.18922443905966"><ele>175.8</ele><time>2026-04-18T10:12:47Z</time></trkpt><trkpt lat="55.96424779157318" lon="22.189090623372966"><ele>174.4</ele><time>2026-04-18T10:12:52Z</time></trkpt><trkpt lat="55.96426132449577" lon="22.188933205462096"><ele>173.0</ele><time>2026-04-18T10:12:55Z</time></trkpt><trkpt lat="55.964371156632495" lon="22.188861896702445"><ele>172.2</ele><time>2026-04-18T10:12:57Z</time></trkpt><trkpt lat="55.96442541887545" lon="22.188782862932516"><ele>171.4</ele><time>2026-04-18T10:12:58Z</time></trkpt><trkpt lat="55.964518294041085" lon="22.188648263904195"><ele>170.6</ele><time>2026-04-18T10:13:00Z</time></trkpt><trkpt lat="55.96461411105842" lon="22.18850032854815"><ele>169.79999999999998</ele><time>2026-04-18T10:13:02Z</time></trkpt><trkpt lat="55.96466760535273" lon="22.188436197609537"><ele>169.0</ele><time>2026-04-18T10:13:03Z</time></trkpt><trkpt lat="55.96476678033439" lon="22.188324851730854"><ele>169.0</ele><time>2026-04-18T10:13:05Z</time></trkpt><trkpt lat="55.964826857213275" lon="22.188253937601385"><ele>169.0</ele><time>2026-04-18T10:13:06Z</time></trkpt><trkpt lat="55.964881678940046" lon="22.188185652130716"><ele>169.0</ele><time>2026-04-18T10:13:07Z</time></trkpt><trkpt lat="55.96498925350048" lon="22.188065293263335"><ele>169.0</ele><time>2026-04-18T10:13:09Z</time></trkpt><trkpt lat="55.96507766212891" lon="22.187966071434623"><ele>169.0</ele><time>2026-04-18T10:13:11Z</time></trkpt><trkpt lat="55.96517621032634" lon="22.18785192099429"><ele>168.83333333333334</ele><time>2026-04-18T10:13:13Z</time></trkpt><trkpt lat="55.96523532874616" lon="22.187773545557462"><ele>168.66666666666669</ele><time>2026-04-18T10:13:14Z</time></trkpt><trkpt lat="55.965335003188216" lon="22.18764510834826"><ele>168.5</ele><time>2026-04-18T10:13:16Z</time></trkpt><trkpt lat="55.96538685519534" lon="22.1875784952412"><ele>168.33333333333334</ele><time>2026-04-18T10:13:17Z</time></trkpt><trkpt lat="55.96544908495389" lon="22.187503256178946"><ele>168.16666666666666</ele><time>2026-04-18T10:13:18Z</time></trkpt><trkpt lat="55.96550994014137" lon="22.1874303329487"><ele>168.0</ele><time>2026-04-18T10:13:19Z</time></trkpt><trkpt lat="55.9655689566341" lon="22.187357420886105"><ele>168.4</ele><time>2026-04-18T10:13:20Z</time></trkpt><trkpt lat="55.965656985974405" lon="22.1872896273971"><ele>168.8</ele><time>2026-04-18T10:13:21Z</time></trkpt><trkpt lat="55.965743026202304" lon="22.18716765746164"><ele>169.2</ele><time>2026-04-18T10:13:22Z</time></trkpt><trkpt lat="55.965822568248356" lon="22.187072206059717"><ele>169.6</ele><time>2026-04-18T10:13:23Z</time></trkpt><trkpt lat="55.96590469253255" lon="22.18697495951203"><ele>170.0</ele><time>2026-04-18T10:13:24Z</time></trkpt><trkpt lat="55.96596094419648" lon="22.186895412505336"><ele>170.33333333333331</ele><time>2026-04-18T10:13:25Z</time></trkpt><trkpt lat="55.96601951369623" lon="22.186821377353915"><ele>170.66666666666666</ele><time>2026-04-18T10:13:26Z</time></trkpt><trkpt lat="55.96608880224911" lon="22.186736895862197"><ele>171.0</ele><time>2026-04-18T10:13:27Z</time></trkpt><trkpt lat="55.96615360441253" lon="22.1866584174518"><ele>171.33333333333334</ele><time>2026-04-18T10:13:28Z</time></trkpt><trkpt lat="55.966217356117134" lon="22.186582571349415"><ele>171.66666666666669</ele><time>2026-04-18T10:13:29Z</time></trkpt><trkpt lat="55.96627706657851" lon="22.186506792125662"><ele>172.0</ele><time>2026-04-18T10:13:30Z</time></trkpt><trkpt lat="55.96633976575899" lon="22.18643050865618"><ele>172.0</ele><time>2026-04-18T10:13:31Z</time></trkpt><trkpt lat="55.96641104359217" lon="22.186348633081543"><ele>172.0</ele><time>2026-04-18T10:13:32Z</time></trkpt><trkpt lat="55.966483948427296" lon="22.186266420353373"><ele>172.0</ele><time>2026-04-18T10:13:33Z</time></trkpt><trkpt lat="55.966557118463164" lon="22.186193265507544"><ele>172.0</ele><time>2026-04-18T10:13:34Z</time></trkpt><trkpt lat="55.966658488340244" lon="22.18608160919795"><ele>172.0</ele><time>2026-04-18T10:13:36Z</time></trkpt><trkpt lat="55.96676817681677" lon="22.185954103270326"><ele>172.0</ele><time>2026-04-18T10:13:38Z</time></trkpt><trkpt lat="55.966850620548655" lon="22.185857927278345"><ele>172.0</ele><time>2026-04-18T10:13:40Z</time></trkpt><trkpt lat="55.96692435284885" lon="22.185763463996302"><ele>172.0</ele><time>2026-04-18T10:13:42Z</time></trkpt><trkpt lat="55.96698499483227" lon="22.185680128434353"><ele>172.0</ele><time>2026-04-18T10:13:44Z</time></trkpt><trkpt lat="55.967052679206425" lon="22.185599269949485"><ele>172.0</ele><time>2026-04-18T10:13:46Z</time></trkpt><trkpt lat="55.9671544737056" lon="22.185471058455835"><ele>171.5</ele><time>2026-04-18T10:13:48Z</time></trkpt><trkpt lat="55.96723884841639" lon="22.18536940544923"><ele>171.0</ele><time>2026-04-18T10:13:50Z</time></trkpt><trkpt lat="55.96729870864528" lon="22.185301421376696"><ele>170.5</ele><time>2026-04-18T10:13:51Z</time></trkpt><trkpt lat="55.96735988103011" lon="22.185230990500678"><ele>170.0</ele><time>2026-04-18T10:13:52Z</time></trkpt><trkpt lat="55.96742452628218" lon="22.18515798341967"><ele>169.5</ele><time>2026-04-18T10:13:53Z</time></trkpt><trkpt lat="55.96749924284144" lon="22.185069943102295"><ele>169.0</ele><time>2026-04-18T10:13:54Z</time></trkpt><trkpt lat="55.967595628577186" lon="22.184961596441322"><ele>169.0</ele><time>2026-04-18T10:13:56Z</time></trkpt><trkpt lat="55.96765277214169" lon="22.18490202815187"><ele>169.0</ele><time>2026-04-18T10:13:57Z</time></trkpt><trkpt lat="55.967714435547435" lon="22.184842143145673"><ele>169.0</ele><time>2026-04-18T10:13:58Z</time></trkpt><trkpt lat="55.96778193237087" lon="22.18478196434579"><ele>169.0</ele><time>2026-04-18T10:13:59Z</time></trkpt><trkpt lat="55.96784222197159" lon="22.184746039826614"><ele>169.0</ele><time>2026-04-18T10:14:00Z</time></trkpt><trkpt lat="55.967925450606955" lon="22.184712633636828"><ele>169.0</ele><time>2026-04-18T10:14:02Z</time></trkpt><trkpt lat="55.967910366525246" lon="22.18449136466682"><ele>168.66666666666669</ele><time>2026-04-18T10:14:03Z</time></trkpt><trkpt lat="55.96791614744755" lon="22.184355308291813"><ele>168.33333333333334</ele><time>2026-04-18T10:14:04Z</time></trkpt><trkpt lat="55.967919137251535" lon="22.18421379615956"><ele>168.0</ele><time>2026-04-18T10:14:05Z</time></trkpt><trkpt lat="55.967925645574894" lon="22.184033523702155"><ele>167.66666666666666</ele><time>2026-04-18T10:14:07Z</time></trkpt><trkpt lat="55.96794699556019" lon="22.183923810975656"><ele>167.33333333333331</ele><time>2026-04-18T10:14:11Z</time></trkpt><trkpt lat="55.967951533630576" lon="22.183766012083588"><ele>167.0</ele><time>2026-04-18T10:14:18Z</time></trkpt><trkpt lat="55.96783359401346" lon="22.183724254342657"><ele>166.6</ele><time>2026-04-18T10:14:19Z</time></trkpt><trkpt lat="55.96770767069052" lon="22.18369588173602"><ele>166.2</ele><time>2026-04-18T10:14:20Z</time></trkpt><trkpt lat="55.96759725192369" lon="22.18365564781224"><ele>165.8</ele><time>2026-04-18T10:14:22Z</time></trkpt><trkpt lat="55.96748898267665" lon="22.183657740824923"><ele>165.4</ele><time>2026-04-18T10:14:24Z</time></trkpt><trkpt lat="55.96740243796046" lon="22.183646231922463"><ele>165.0</ele><time>2026-04-18T10:14:26Z</time></trkpt><trkpt lat="55.967331480053105" lon="22.18365713186914"><ele>165.0</ele><time>2026-04-18T10:14:28Z</time></trkpt><trkpt lat="55.96730900270784" lon="22.18388294734829"><ele>165.0</ele><time>2026-04-18T10:14:31Z</time></trkpt><trkpt lat="55.96733415490448" lon="22.184037486890723"><ele>165.0</ele><time>2026-04-18T10:14:32Z</time></trkpt><trkpt lat="55.96736281439335" lon="22.18419021777774"><ele>165.0</ele><time>2026-04-18T10:14:33Z</time></trkpt><trkpt lat="55.96740459283168" lon="22.184334831392665"><ele>165.0</ele><time>2026-04-18T10:14:36Z</time></trkpt><trkpt lat="55.967371234306746" lon="22.18418343811461"><ele>165.0</ele><time>2026-04-18T10:34:21Z</time></trkpt><trkpt lat="55.96733644113285" lon="22.18404832033634"><ele>165.0</ele><time>2026-04-18T10:34:23Z</time></trkpt><trkpt lat="55.96731389561896" lon="22.183863895405178"><ele>165.0</ele><time>2026-04-18T10:34:25Z</time></trkpt><trkpt lat="55.96731101468643" lon="22.18372166270475"><ele>165.0</ele><time>2026-04-18T10:34:28Z</time></trkpt><trkpt lat="55.96739390056079" lon="22.183653062147375"><ele>165.0</ele><time>2026-04-18T10:34:31Z</time></trkpt><trkpt lat="55.96750744563103" lon="22.18367867840861"><ele>164.75</ele><time>2026-04-18T10:34:33Z</time></trkpt><trkpt lat="55.96758580671341" lon="22.183684251333293"><ele>164.5</ele><time>2026-04-18T10:34:34Z</time></trkpt><trkpt lat="55.96769059246162" lon="22.183698599832432"><ele>164.25</ele><time>2026-04-18T10:34:35Z</time></trkpt><trkpt lat="55.96779346715636" lon="22.183804948946072"><ele>164.0</ele><time>2026-04-18T10:34:36Z</time></trkpt><trkpt lat="55.96794362632724" lon="22.183879009679575"><ele>164.0</ele><time>2026-04-18T10:34:37Z</time></trkpt><trkpt lat="55.96807297215347" lon="22.183935829322788"><ele>164.0</ele><time>2026-04-18T10:34:38Z</time></trkpt><trkpt lat="55.96817192548773" lon="22.183979942233467"><ele>164.0</ele><time>2026-04-18T10:34:39Z</time></trkpt><trkpt lat="55.96823844729826" lon="22.184009597355466"><ele>164.0</ele><time>2026-04-18T10:34:40Z</time></trkpt><trkpt lat="55.96830978691722" lon="22.184041400184153"><ele>164.0</ele><time>2026-04-18T10:34:41Z</time></trkpt><trkpt lat="55.96838844781694" lon="22.18405330910373"><ele>164.5</ele><time>2026-04-18T10:34:42Z</time></trkpt><trkpt lat="55.968469387360756" lon="22.184056788211443"><ele>165.0</ele><time>2026-04-18T10:34:43Z</time></trkpt><trkpt lat="55.96855274105827" lon="22.184060371089085"><ele>165.5</ele><time>2026-04-18T10:34:44Z</time></trkpt><trkpt lat="55.96862238585626" lon="22.18406336470477"><ele>166.0</ele><time>2026-04-18T10:34:45Z</time></trkpt><trkpt lat="55.96870823207593" lon="22.18403287523636"><ele>166.5</ele><time>2026-04-18T10:34:46Z</time></trkpt><trkpt lat="55.968793831471714" lon="22.184004706578985"><ele>167.0</ele><time>2026-04-18T10:34:47Z</time></trkpt><trkpt lat="55.96886261840175" lon="22.1838291772207"><ele>167.0</ele><time>2026-04-18T10:34:48Z</time></trkpt><trkpt lat="55.96891580694488" lon="22.183718950954262"><ele>167.0</ele><time>2026-04-18T10:34:49Z</time></trkpt><trkpt lat="55.96897707936593" lon="22.183636314811118"><ele>167.0</ele><time>2026-04-18T10:34:50Z</time></trkpt><trkpt lat="55.969028506306856" lon="22.18353516754979"><ele>167.0</ele><time>2026-04-18T10:34:51Z</time></trkpt><trkpt lat="55.96908304147869" lon="22.183402221866494"><ele>167.0</ele><time>2026-04-18T10:34:52Z</time></trkpt><trkpt lat="55.96917996096593" lon="22.183245175539234"><ele>167.0</ele><time>2026-04-18T10:34:53Z</time></trkpt><trkpt lat="55.9692860142818" lon="22.183063532137705"><ele>167.0</ele><time>2026-04-18T10:34:54Z</time></trkpt><trkpt lat="55.96937835726129" lon="22.182974061201477"><ele>167.0</ele><time>2026-04-18T10:34:55Z</time></trkpt><trkpt lat="55.969454681572884" lon="22.182893415840894"><ele>167.0</ele><time>2026-04-18T10:34:56Z</time></trkpt><trkpt lat="55.96952855136189" lon="22.182815363856324"><ele>167.0</ele><time>2026-04-18T10:34:57Z</time></trkpt><trkpt lat="55.9696067366454" lon="22.182720303894296"><ele>167.0</ele><time>2026-04-18T10:34:58Z</time></trkpt><trkpt lat="55.96969690274885" lon="22.182643835646214"><ele>167.0</ele><time>2026-04-18T10:34:59Z</time></trkpt><trkpt lat="55.96977439779946" lon="22.182571803421105"><ele>167.0</ele><time>2026-04-18T10:35:00Z</time></trkpt><trkpt lat="55.96984957380291" lon="22.182515398561137"><ele>167.0</ele><time>2026-04-18T10:35:01Z</time></trkpt><trkpt lat="55.96991126444859" lon="22.182475311189553"><ele>167.0</ele><time>2026-04-18T10:35:02Z</time></trkpt><trkpt lat="55.96998867887329" lon="22.18242674747191"><ele>167.0</ele><time>2026-04-18T10:35:04Z</time></trkpt><trkpt lat="55.97005799453201" lon="22.182378744059182"><ele>166.6</ele><time>2026-04-18T10:35:07Z</time></trkpt><trkpt lat="55.970134009673515" lon="22.18230336871343"><ele>166.2</ele><time>2026-04-18T10:35:13Z</time></trkpt><trkpt lat="55.9700909943391" lon="22.182072897820895"><ele>165.8</ele><time>2026-04-18T10:35:14Z</time></trkpt><trkpt lat="55.97005698365947" lon="22.181893971813178"><ele>165.4</ele><time>2026-04-18T10:35:15Z</time></trkpt><trkpt lat="55.97002409062389" lon="22.18170048690864"><ele>165.0</ele><time>2026-04-18T10:35:16Z</time></trkpt><trkpt lat="55.9699883832802" lon="22.181461765767093"><ele>164.75</ele><time>2026-04-18T10:35:16.999Z</time></trkpt><trkpt lat="55.96995248657268" lon="22.181225516215424"><ele>164.5</ele><time>2026-04-18T10:35:17.999Z</time></trkpt><trkpt lat="55.96991584045329" lon="22.180990125679017"><ele>164.25</ele><time>2026-04-18T10:35:18.999Z</time></trkpt><trkpt lat="55.969872033638204" lon="22.180737035979906"><ele>164.0</ele><time>2026-04-18T10:35:19.999Z</time></trkpt><trkpt lat="55.96983056796744" lon="22.18048504849778"><ele>164.39999999999998</ele><time>2026-04-18T10:35:20.999Z</time></trkpt><trkpt lat="55.96979429527598" lon="22.180263960988533"><ele>164.8</ele><time>2026-04-18T10:35:21.999Z</time></trkpt><trkpt lat="55.969762746739484" lon="22.180075129247395"><ele>165.2</ele><time>2026-04-18T10:35:22.999Z</time></trkpt><trkpt lat="55.969736488790495" lon="22.179910371411605"><ele>165.60000000000002</ele><time>2026-04-18T10:35:23.999Z</time></trkpt><trkpt lat="55.96971774192497" lon="22.179794202433243"><ele>166.0</ele><time>2026-04-18T10:35:24.999Z</time></trkpt><trkpt lat="55.969701648490485" lon="22.179647361297025"><ele>166.20000000000002</ele><time>2026-04-18T10:35:26.999Z</time></trkpt><trkpt lat="55.96982102316096" lon="22.179541214814854"><ele>166.4</ele><time>2026-04-18T10:35:30.999Z</time></trkpt><trkpt lat="55.969925240830285" lon="22.179450389466986"><ele>166.6</ele><time>2026-04-18T10:35:32.999Z</time></trkpt><trkpt lat="55.97001311945596" lon="22.179358593186308"><ele>166.8</ele><time>2026-04-18T10:35:33.999Z</time></trkpt><trkpt lat="55.97009066701189" lon="22.179282716313974"><ele>167.0</ele><time>2026-04-18T10:35:34.999Z</time></trkpt><trkpt lat="55.97015101502824" lon="22.179229043018935"><ele>167.0</ele><time>2026-04-18T10:35:35.999Z</time></trkpt><trkpt lat="55.97021562087653" lon="22.17917932179241"><ele>167.0</ele><time>2026-04-18T10:35:36.999Z</time></trkpt><trkpt lat="55.970279345276786" lon="22.179158931405173"><ele>167.0</ele><time>2026-04-18T10:35:37.999Z</time></trkpt><trkpt lat="55.97040339961369" lon="22.17917045353732"><ele>167.0</ele><time>2026-04-18T10:35:39.999Z</time></trkpt><trkpt lat="55.970476035571586" lon="22.179191024553955"><ele>167.0</ele><time>2026-04-18T10:35:40.999Z</time></trkpt><trkpt lat="55.97056099912624" lon="22.17920898892422"><ele>167.0</ele><time>2026-04-18T10:35:41.999Z</time></trkpt><trkpt lat="55.97063971023192" lon="22.179220915457623"><ele>167.0</ele><time>2026-04-18T10:35:42.999Z</time></trkpt><trkpt lat="55.9707092633978" lon="22.179210671787487"><ele>167.0</ele><time>2026-04-18T10:35:43.999Z</time></trkpt><trkpt lat="55.97078734846099" lon="22.179151139736284"><ele>167.0</ele><time>2026-04-18T10:35:44.999Z</time></trkpt><trkpt lat="55.9708643977299" lon="22.179073823023"><ele>167.0</ele><time>2026-04-18T10:35:45.999Z</time></trkpt><trkpt lat="55.970930457356886" lon="22.178971189102793"><ele>167.0</ele><time>2026-04-18T10:35:46.999Z</time></trkpt><trkpt lat="55.97100022530702" lon="22.178855034915955"><ele>167.0</ele><time>2026-04-18T10:35:47.999Z</time></trkpt><trkpt lat="55.971089437690836" lon="22.178732428285496"><ele>167.2</ele><time>2026-04-18T10:35:48.999Z</time></trkpt><trkpt lat="55.97114541748288" lon="22.178617445828134"><ele>167.39999999999998</ele><time>2026-04-18T10:35:49.999Z</time></trkpt><trkpt lat="55.97121420992779" lon="22.178502000865414"><ele>167.60000000000002</ele><time>2026-04-18T10:35:50.999Z</time></trkpt><trkpt lat="55.97126269484726" lon="22.178408049247256"><ele>167.8</ele><time>2026-04-18T10:35:51.999Z</time></trkpt><trkpt lat="55.97133362436236" lon="22.178262891683367"><ele>168.0</ele><time>2026-04-18T10:35:53.999Z</time></trkpt><trkpt lat="55.97138497324435" lon="22.17809604889369"><ele>168.0</ele><time>2026-04-18T10:35:56Z</time></trkpt><trkpt lat="55.97140554022665" lon="22.177975382995538"><ele>168.0</ele><time>2026-04-18T10:35:57Z</time></trkpt><trkpt lat="55.9714295998988" lon="22.177780528391633"><ele>168.0</ele><time>2026-04-18T10:35:59Z</time></trkpt><trkpt lat="55.971515651644985" lon="22.177606034010957"><ele>168.0</ele><time>2026-04-18T10:36:01Z</time></trkpt><trkpt lat="55.97156644349934" lon="22.17753933817199"><ele>168.0</ele><time>2026-04-18T10:36:02Z</time></trkpt><trkpt lat="55.971672710973195" lon="22.1774164398968"><ele>168.16666666666666</ele><time>2026-04-18T10:36:04Z</time></trkpt><trkpt lat="55.971733735802715" lon="22.17736249919416"><ele>168.33333333333334</ele><time>2026-04-18T10:36:05Z</time></trkpt><trkpt lat="55.97180804714083" lon="22.177300685909117"><ele>168.5</ele><time>2026-04-18T10:36:06Z</time></trkpt><trkpt lat="55.971886451082554" lon="22.17724154689322"><ele>168.66666666666669</ele><time>2026-04-18T10:36:07Z</time></trkpt><trkpt lat="55.97195052206169" lon="22.177179266422737"><ele>168.83333333333334</ele><time>2026-04-18T10:36:08Z</time></trkpt><trkpt lat="55.97202190922832" lon="22.177115182247054"><ele>169.0</ele><time>2026-04-18T10:36:09Z</time></trkpt><trkpt lat="55.97209514110189" lon="22.177052015013857"><ele>169.0</ele><time>2026-04-18T10:36:10Z</time></trkpt><trkpt lat="55.97216470310448" lon="22.176998263202634"><ele>169.0</ele><time>2026-04-18T10:36:11Z</time></trkpt><trkpt lat="55.972254607815245" lon="22.176939711268542"><ele>169.0</ele><time>2026-04-18T10:36:12Z</time></trkpt><trkpt lat="55.972340716193294" lon="22.176880901026347"><ele>169.0</ele><time>2026-04-18T10:36:13Z</time></trkpt><trkpt lat="55.97243858460997" lon="22.176844066245373"><ele>169.0</ele><time>2026-04-18T10:36:14Z</time></trkpt><trkpt lat="55.97257364712778" lon="22.176814021480713"><ele>170.39999999999998</ele><time>2026-04-18T10:36:15Z</time></trkpt><trkpt lat="55.972692439154095" lon="22.17677472804719"><ele>171.8</ele><time>2026-04-18T10:36:16Z</time></trkpt><trkpt lat="55.97278530284014" lon="22.176765602020335"><ele>173.2</ele><time>2026-04-18T10:36:17Z</time></trkpt><trkpt lat="55.972859728853564" lon="22.17674034845574"><ele>174.60000000000002</ele><time>2026-04-18T10:36:18Z</time></trkpt><trkpt lat="55.97294993511043" lon="22.17671461688039"><ele>176.0</ele><time>2026-04-18T10:36:19Z</time></trkpt><trkpt lat="55.973054918611986" lon="22.17668749160941"><ele>176.0</ele><time>2026-04-18T10:36:20Z</time></trkpt><trkpt lat="55.973131601002144" lon="22.176678054354745"><ele>176.0</ele><time>2026-04-18T10:36:21Z</time></trkpt><trkpt lat="55.97321155644502" lon="22.176643830787544"><ele>176.0</ele><time>2026-04-18T10:36:22Z</time></trkpt><trkpt lat="55.97329775367037" lon="22.17660633842962"><ele>176.0</ele><time>2026-04-18T10:36:23Z</time></trkpt><trkpt lat="55.973366486036824" lon="22.176594126608347"><ele>176.0</ele><time>2026-04-18T10:36:24Z</time></trkpt><trkpt lat="55.97348749262253" lon="22.17655299171109"><ele>176.0</ele><time>2026-04-18T10:36:26Z</time></trkpt><trkpt lat="55.97355870744148" lon="22.17649597333926"><ele>176.8</ele><time>2026-04-18T10:36:28Z</time></trkpt><trkpt lat="55.9734968163646" lon="22.176354422643186"><ele>177.60000000000002</ele><time>2026-04-18T10:36:32Z</time></trkpt><trkpt lat="55.973412082150546" lon="22.176260400017956"><ele>178.4</ele><time>2026-04-18T10:36:34Z</time></trkpt><trkpt lat="55.97332338019181" lon="22.176232552220867"><ele>179.2</ele><time>2026-04-18T10:36:35Z</time></trkpt><trkpt lat="55.97321465389386" lon="22.176163742403933"><ele>180.0</ele><time>2026-04-18T10:36:36Z</time></trkpt><trkpt lat="55.97308474903942" lon="22.176059194853092"><ele>180.0</ele><time>2026-04-18T10:36:37Z</time></trkpt><trkpt lat="55.97293432945873" lon="22.175902987249074"><ele>180.0</ele><time>2026-04-18T10:36:38Z</time></trkpt><trkpt lat="55.97277619756973" lon="22.175763196857233"><ele>180.0</ele><time>2026-04-18T10:36:39Z</time></trkpt><trkpt lat="55.972659173841606" lon="22.175665920486132"><ele>180.0</ele><time>2026-04-18T10:36:40Z</time></trkpt><trkpt lat="55.97257197490596" lon="22.175572824149448"><ele>180.0</ele><time>2026-04-18T10:36:41Z</time></trkpt><trkpt lat="55.972511116631445" lon="22.175484965209215"><ele>180.0</ele><time>2026-04-18T10:36:42Z</time></trkpt><trkpt lat="55.97246693557951" lon="22.175367604136742"><ele>180.0</ele><time>2026-04-18T10:36:43Z</time></trkpt><trkpt lat="55.97240824827785" lon="22.175256315055965"><ele>180.0</ele><time>2026-04-18T10:36:44Z</time></trkpt><trkpt lat="55.97234461364816" lon="22.17514783615021"><ele>180.0</ele><time>2026-04-18T10:36:45Z</time></trkpt><trkpt lat="55.97228977195458" lon="22.175048204329403"><ele>180.0</ele><time>2026-04-18T10:36:46Z</time></trkpt><trkpt lat="55.97223402645498" lon="22.17499500052933"><ele>180.0</ele><time>2026-04-18T10:36:47Z</time></trkpt><trkpt lat="55.972161072630556" lon="22.174950307176687"><ele>180.0</ele><time>2026-04-18T10:36:48Z</time></trkpt><trkpt lat="55.972081107725096" lon="22.17488759664228"><ele>180.0</ele><time>2026-04-18T10:36:49Z</time></trkpt><trkpt lat="55.972003029592415" lon="22.174834712200337"><ele>180.0</ele><time>2026-04-18T10:36:50Z</time></trkpt><trkpt lat="55.971936027394534" lon="22.17479171503725"><ele>180.0</ele><time>2026-04-18T10:36:51Z</time></trkpt><trkpt lat="55.97186379335068" lon="22.17472061380371"><ele>179.83333333333334</ele><time>2026-04-18T10:36:52Z</time></trkpt><trkpt lat="55.971756920418706" lon="22.174657932812057"><ele>179.66666666666666</ele><time>2026-04-18T10:36:54Z</time></trkpt><trkpt lat="55.97165519453571" lon="22.17462561611735"><ele>179.5</ele><time>2026-04-18T10:36:56Z</time></trkpt><trkpt lat="55.97158952544873" lon="22.17457087783813"><ele>179.33333333333331</ele><time>2026-04-18T10:36:57Z</time></trkpt><trkpt lat="55.97153074391364" lon="22.174490734452178"><ele>179.16666666666666</ele><time>2026-04-18T10:36:58Z</time></trkpt><trkpt lat="55.97146734373783" lon="22.174391309994977"><ele>179.0</ele><time>2026-04-18T10:36:59Z</time></trkpt><trkpt lat="55.97139105467802" lon="22.174327989285675"><ele>178.5</ele><time>2026-04-18T10:37:00Z</time></trkpt><trkpt lat="55.97127708563738" lon="22.17426141984271"><ele>178.0</ele><time>2026-04-18T10:37:01Z</time></trkpt><trkpt lat="55.9711336576586" lon="22.174252413792768"><ele>177.5</ele><time>2026-04-18T10:37:02Z</time></trkpt><trkpt lat="55.97099095414598" lon="22.17422973641459"><ele>177.0</ele><time>2026-04-18T10:37:03Z</time></trkpt><trkpt lat="55.97090027499846" lon="22.174231564537504"><ele>177.0</ele><time>2026-04-18T10:37:04Z</time></trkpt><trkpt lat="55.970835234562905" lon="22.174191608854755"><ele>177.0</ele><time>2026-04-18T10:37:06Z</time></trkpt><trkpt lat="55.970787824037906" lon="22.17410165219175"><ele>177.0</ele><time>2026-04-18T10:37:09Z</time></trkpt><trkpt lat="55.97080410942596" lon="22.174234776658537"><ele>177.0</ele><time>2026-04-18T10:37:12Z</time></trkpt><trkpt lat="55.97093757437679" lon="22.174248513454256"><ele>177.0</ele><time>2026-04-18T10:37:14.001Z</time></trkpt><trkpt lat="55.971029811224966" lon="22.174252045794912"><ele>177.0</ele><time>2026-04-18T10:37:15.001Z</time></trkpt><trkpt lat="55.97118835937561" lon="22.174301589059272"><ele>177.0</ele><time>2026-04-18T10:37:16.001Z</time></trkpt><trkpt lat="55.97132499638937" lon="22.174337223227074"><ele>177.0</ele><time>2026-04-18T10:37:17.001Z</time></trkpt><trkpt lat="55.97146048938244" lon="22.174406537308897"><ele>177.0</ele><time>2026-04-18T10:37:18.001Z</time></trkpt><trkpt lat="55.97160704213547" lon="22.17455015393802"><ele>177.0</ele><time>2026-04-18T10:37:19.001Z</time></trkpt><trkpt lat="55.97178682203003" lon="22.17471172471529"><ele>177.66666666666666</ele><time>2026-04-18T10:37:20.001Z</time></trkpt><trkpt lat="55.97196132304409" lon="22.174826800411783"><ele>178.33333333333331</ele><time>2026-04-18T10:37:21.001Z</time></trkpt><trkpt lat="55.972112478974424" lon="22.174932335924236"><ele>179.0</ele><time>2026-04-18T10:37:21.999Z</time></trkpt><trkpt lat="55.97221939673963" lon="22.175021347410564"><ele>179.2</ele><time>2026-04-18T10:37:22.999Z</time></trkpt><trkpt lat="55.97231442645304" lon="22.1751058185686"><ele>179.39999999999998</ele><time>2026-04-18T10:37:23.999Z</time></trkpt><trkpt lat="55.97239609579832" lon="22.17521207169033"><ele>179.6</ele><time>2026-04-18T10:37:24.999Z</time></trkpt><trkpt lat="55.97246705918378" lon="22.175357010801843"><ele>179.8</ele><time>2026-04-18T10:37:25.999Z</time></trkpt><trkpt lat="55.97253279529519" lon="22.175516060898914"><ele>180.0</ele><time>2026-04-18T10:37:26.999Z</time></trkpt><trkpt lat="55.97263503588879" lon="22.175666440216798"><ele>180.0</ele><time>2026-04-18T10:37:27.999Z</time></trkpt><trkpt lat="55.97274919715349" lon="22.17578511520475"><ele>180.0</ele><time>2026-04-18T10:37:28.999Z</time></trkpt><trkpt lat="55.972883282727" lon="22.175893089418196"><ele>180.0</ele><time>2026-04-18T10:37:29.999Z</time></trkpt><trkpt lat="55.97303892401219" lon="22.176026840224548"><ele>180.0</ele><time>2026-04-18T10:37:30.999Z</time></trkpt><trkpt lat="55.97320618013816" lon="22.176159093240184"><ele>180.0</ele><time>2026-04-18T10:37:31.999Z</time></trkpt><trkpt lat="55.973326747266924" lon="22.17626220989493"><ele>180.0</ele><time>2026-04-18T10:37:32.999Z</time></trkpt><trkpt lat="55.97344284912391" lon="22.176322188182006"><ele>180.0</ele><time>2026-04-18T10:37:33.999Z</time></trkpt><trkpt lat="55.97356828863127" lon="22.17638749132987"><ele>180.5</ele><time>2026-04-18T10:37:35Z</time></trkpt><trkpt lat="55.9736904408391" lon="22.176442891532048"><ele>181.0</ele><time>2026-04-18T10:37:36Z</time></trkpt><trkpt lat="55.97380808306748" lon="22.176483231073075"><ele>181.5</ele><time>2026-04-18T10:37:37Z</time></trkpt><trkpt lat="55.973911717283414" lon="22.176551188603497"><ele>182.0</ele><time>2026-04-18T10:37:38Z</time></trkpt><trkpt lat="55.97401435748987" lon="22.176663847480345"><ele>182.0</ele><time>2026-04-18T10:37:39Z</time></trkpt><trkpt lat="55.9741189762219" lon="22.176792033680787"><ele>182.0</ele><time>2026-04-18T10:37:40Z</time></trkpt><trkpt lat="55.974215843170555" lon="22.176864168254397"><ele>182.0</ele><time>2026-04-18T10:37:41Z</time></trkpt><trkpt lat="55.97429543077776" lon="22.176910250253275"><ele>182.0</ele><time>2026-04-18T10:37:42Z</time></trkpt><trkpt lat="55.97436700507316" lon="22.176920411227155"><ele>182.0</ele><time>2026-04-18T10:37:43Z</time></trkpt><trkpt lat="55.97443974464388" lon="22.17690518544621"><ele>182.39999999999998</ele><time>2026-04-18T10:37:44Z</time></trkpt><trkpt lat="55.974521185033254" lon="22.176859028514784"><ele>182.79999999999998</ele><time>2026-04-18T10:37:45Z</time></trkpt><trkpt lat="55.97461140017453" lon="22.176815545569934"><ele>183.2</ele><time>2026-04-18T10:37:46Z</time></trkpt><trkpt lat="55.974718117111415" lon="22.1767507965956"><ele>183.6</ele><time>2026-04-18T10:37:47Z</time></trkpt><trkpt lat="55.974836165792475" lon="22.176720349691138"><ele>184.0</ele><time>2026-04-18T10:37:48Z</time></trkpt><trkpt lat="55.97495757257999" lon="22.176722651031604"><ele>184.0</ele><time>2026-04-18T10:37:49Z</time></trkpt><trkpt lat="55.9750644515539" lon="22.17675222752115"><ele>184.0</ele><time>2026-04-18T10:37:50Z</time></trkpt><trkpt lat="55.97514840928609" lon="22.17675074517791"><ele>184.0</ele><time>2026-04-18T10:37:51Z</time></trkpt><trkpt lat="55.97522220410762" lon="22.176753073061032"><ele>184.0</ele><time>2026-04-18T10:37:52Z</time></trkpt><trkpt lat="55.97530919368939" lon="22.176739241058847"><ele>184.0</ele><time>2026-04-18T10:37:53Z</time></trkpt><trkpt lat="55.975411674709655" lon="22.176741507479406"><ele>184.0</ele><time>2026-04-18T10:37:54Z</time></trkpt><trkpt lat="55.97551285075866" lon="22.17676086222776"><ele>184.0</ele><time>2026-04-18T10:37:55Z</time></trkpt><trkpt lat="55.9756112159307" lon="22.17681475085281"><ele>184.0</ele><time>2026-04-18T10:37:56Z</time></trkpt><trkpt lat="55.97571108080951" lon="22.176860166786675"><ele>184.0</ele><time>2026-04-18T10:37:57Z</time></trkpt><trkpt lat="55.97580330534427" lon="22.17692200023422"><ele>184.0</ele><time>2026-04-18T10:37:58Z</time></trkpt><trkpt lat="55.97588714201046" lon="22.17697543227497"><ele>183.6</ele><time>2026-04-18T10:37:59Z</time></trkpt><trkpt lat="55.97597193746541" lon="22.177019144952926"><ele>183.2</ele><time>2026-04-18T10:38:00Z</time></trkpt><trkpt lat="55.976050874251364" lon="22.177082224335756"><ele>182.79999999999998</ele><time>2026-04-18T10:38:01Z</time></trkpt><trkpt lat="55.97615747540817" lon="22.177118837611737"><ele>182.39999999999998</ele><time>2026-04-18T10:38:02Z</time></trkpt><trkpt lat="55.97626303666086" lon="22.17714982030813"><ele>182.0</ele><time>2026-04-18T10:38:03Z</time></trkpt><trkpt lat="55.9763720580863" lon="22.177175745693578"><ele>182.0</ele><time>2026-04-18T10:38:04Z</time></trkpt><trkpt lat="55.97647669036607" lon="22.17718441498376"><ele>182.0</ele><time>2026-04-18T10:38:05Z</time></trkpt><trkpt lat="55.976580115682815" lon="22.17716655279367"><ele>182.0</ele><time>2026-04-18T10:38:06Z</time></trkpt><trkpt lat="55.976693865022106" lon="22.17715091096864"><ele>182.0</ele><time>2026-04-18T10:38:07Z</time></trkpt><trkpt lat="55.976787383218934" lon="22.17714496448485"><ele>182.0</ele><time>2026-04-18T10:38:08Z</time></trkpt><trkpt lat="55.97688659929999" lon="22.177150324342342"><ele>181.0</ele><time>2026-04-18T10:38:09Z</time></trkpt><trkpt lat="55.97699193319405" lon="22.177160168177952"><ele>180.0</ele><time>2026-04-18T10:38:10Z</time></trkpt><trkpt lat="55.97709529258907" lon="22.177177335524803"><ele>179.0</ele><time>2026-04-18T10:38:11Z</time></trkpt><trkpt lat="55.97719453929225" lon="22.177195225088617"><ele>178.0</ele><time>2026-04-18T10:38:12Z</time></trkpt><trkpt lat="55.977290977123864" lon="22.17725195141694"><ele>177.0</ele><time>2026-04-18T10:38:13Z</time></trkpt><trkpt lat="55.97741212390072" lon="22.177293723172713"><ele>176.25</ele><time>2026-04-18T10:38:14Z</time></trkpt><trkpt lat="55.977581519537715" lon="22.17733796648985"><ele>175.5</ele><time>2026-04-18T10:38:15Z</time></trkpt><trkpt lat="55.97772804590751" lon="22.17740384201393"><ele>174.75</ele><time>2026-04-18T10:38:16Z</time></trkpt><trkpt lat="55.977848684839216" lon="22.17743673238567"><ele>174.0</ele><time>2026-04-18T10:38:17Z</time></trkpt><trkpt lat="55.977958196801616" lon="22.177422796172717"><ele>173.79999999999998</ele><time>2026-04-18T10:38:18Z</time></trkpt><trkpt lat="55.978059141025156" lon="22.17744147517857"><ele>173.6</ele><time>2026-04-18T10:38:19Z</time></trkpt><trkpt lat="55.978168711960514" lon="22.17744762651478"><ele>173.4</ele><time>2026-04-18T10:38:20Z</time></trkpt><trkpt lat="55.97825605782115" lon="22.177438716803845"><ele>173.2</ele><time>2026-04-18T10:38:21Z</time></trkpt><trkpt lat="55.978340900096995" lon="22.177424566031803"><ele>173.0</ele><time>2026-04-18T10:38:22Z</time></trkpt><trkpt lat="55.97842796983459" lon="22.17744923247979"><ele>172.4</ele><time>2026-04-18T10:38:23Z</time></trkpt><trkpt lat="55.97850735597579" lon="22.177479875638323"><ele>171.8</ele><time>2026-04-18T10:38:24Z</time></trkpt><trkpt lat="55.978606326320055" lon="22.177476130034446"><ele>171.2</ele><time>2026-04-18T10:38:25Z</time></trkpt><trkpt lat="55.978700298085116" lon="22.177537627577813"><ele>170.6</ele><time>2026-04-18T10:38:26Z</time></trkpt><trkpt lat="55.978807236197895" lon="22.177626750742125"><ele>170.0</ele><time>2026-04-18T10:38:27Z</time></trkpt><trkpt lat="55.97890464285253" lon="22.177719453397742"><ele>170.0</ele><time>2026-04-18T10:38:28Z</time></trkpt><trkpt lat="55.97900244135752" lon="22.177835799294986"><ele>170.0</ele><time>2026-04-18T10:38:29Z</time></trkpt><trkpt lat="55.979092869608046" lon="22.177951383457856"><ele>170.0</ele><time>2026-04-18T10:38:30Z</time></trkpt><trkpt lat="55.979179541820045" lon="22.178068152354165"><ele>170.0</ele><time>2026-04-18T10:38:31Z</time></trkpt><trkpt lat="55.97924053299614" lon="22.178166371248512"><ele>170.0</ele><time>2026-04-18T10:38:32Z</time></trkpt><trkpt lat="55.979304869080885" lon="22.178255587619773"><ele>169.5</ele><time>2026-04-18T10:38:33Z</time></trkpt><trkpt lat="55.979378606176205" lon="22.1783552050534"><ele>169.0</ele><time>2026-04-18T10:38:34Z</time></trkpt><trkpt lat="55.97945046232329" lon="22.178431360719262"><ele>168.5</ele><time>2026-04-18T10:38:35Z</time></trkpt><trkpt lat="55.97951433315468" lon="22.1784931604164"><ele>168.0</ele><time>2026-04-18T10:38:36Z</time></trkpt><trkpt lat="55.97957645323367" lon="22.178534371343222"><ele>167.5</ele><time>2026-04-18T10:38:37Z</time></trkpt><trkpt lat="55.979703609400715" lon="22.178612878912485"><ele>167.0</ele><time>2026-04-18T10:38:39Z</time></trkpt><trkpt lat="55.97977330658058" lon="22.178609661209883"><ele>167.0</ele><time>2026-04-18T10:38:40Z</time></trkpt><trkpt lat="55.97984134044666" lon="22.178647745745817"><ele>167.0</ele><time>2026-04-18T10:38:41.001Z</time></trkpt><trkpt lat="55.979931787531775" lon="22.178693071340778"><ele>167.0</ele><time>2026-04-18T10:38:42.001Z</time></trkpt><trkpt lat="55.98002262438402" lon="22.178747025475403"><ele>167.0</ele><time>2026-04-18T10:38:43.001Z</time></trkpt><trkpt lat="55.98010760020117" lon="22.17880847025328"><ele>167.0</ele><time>2026-04-18T10:38:44.001Z</time></trkpt><trkpt lat="55.98019310336374" lon="22.178873502262224"><ele>167.0</ele><time>2026-04-18T10:38:45.001Z</time></trkpt><trkpt lat="55.980293375204496" lon="22.178938424973765"><ele>166.33333333333331</ele><time>2026-04-18T10:38:46.001Z</time></trkpt><trkpt lat="55.98036685798824" lon="22.17901551334064"><ele>165.66666666666666</ele><time>2026-04-18T10:38:47.001Z</time></trkpt><trkpt lat="55.9804373037715" lon="22.179058947582888"><ele>165.0</ele><time>2026-04-18T10:38:48.001Z</time></trkpt><trkpt lat="55.980512318921875" lon="22.17910519912864"><ele>164.33333333333334</ele><time>2026-04-18T10:38:49.001Z</time></trkpt><trkpt lat="55.980585198910056" lon="22.179124487381937"><ele>163.66666666666669</ele><time>2026-04-18T10:38:50.001Z</time></trkpt><trkpt lat="55.98065343543085" lon="22.179160823136552"><ele>163.0</ele><time>2026-04-18T10:38:51.001Z</time></trkpt><trkpt lat="55.980725030474034" lon="22.179235726459897"><ele>163.0</ele><time>2026-04-18T10:38:52.001Z</time></trkpt><trkpt lat="55.98081558404987" lon="22.17925948845553"><ele>163.0</ele><time>2026-04-18T10:38:53.001Z</time></trkpt><trkpt lat="55.98088334822053" lon="22.179300035037876"><ele>163.0</ele><time>2026-04-18T10:38:54.001Z</time></trkpt><trkpt lat="55.98096767631789" lon="22.17933356282495"><ele>163.0</ele><time>2026-04-18T10:38:55.001Z</time></trkpt><trkpt lat="55.9810410972513" lon="22.17936476525274"><ele>163.0</ele><time>2026-04-18T10:38:56.001Z</time></trkpt><trkpt lat="55.981108951739955" lon="22.179375795374636"><ele>163.0</ele><time>2026-04-18T10:38:57.001Z</time></trkpt><trkpt lat="55.981190813112306" lon="22.17943665788031"><ele>163.0</ele><time>2026-04-18T10:38:58.001Z</time></trkpt><trkpt lat="55.98126483244096" lon="22.179465674725627"><ele>163.0</ele><time>2026-04-18T10:38:59.001Z</time></trkpt><trkpt lat="55.9813548155797" lon="22.179500651045306"><ele>163.0</ele><time>2026-04-18T10:39:00.001Z</time></trkpt><trkpt lat="55.98143861599567" lon="22.179477923665218"><ele>163.0</ele><time>2026-04-18T10:39:01.001Z</time></trkpt><trkpt lat="55.98151492042679" lon="22.17951843168184"><ele>163.0</ele><time>2026-04-18T10:39:02.001Z</time></trkpt><trkpt lat="55.98157880723508" lon="22.17949453718068"><ele>163.0</ele><time>2026-04-18T10:39:03.001Z</time></trkpt><trkpt lat="55.98164859174689" lon="22.179480652085847"><ele>164.25</ele><time>2026-04-18T10:39:04.001Z</time></trkpt><trkpt lat="55.9817460941048" lon="22.179462197850697"><ele>165.5</ele><time>2026-04-18T10:39:05.001Z</time></trkpt><trkpt lat="55.98187210530189" lon="22.17943740550328"><ele>166.75</ele><time>2026-04-18T10:39:06.001Z</time></trkpt><trkpt lat="55.98203463882006" lon="22.179373238022457"><ele>168.0</ele><time>2026-04-18T10:39:07.001Z</time></trkpt><trkpt lat="55.98217213066386" lon="22.179341806471513"><ele>168.0</ele><time>2026-04-18T10:39:08.001Z</time></trkpt><trkpt lat="55.98226600673746" lon="22.179303467039635"><ele>168.0</ele><time>2026-04-18T10:39:09.001Z</time></trkpt><trkpt lat="55.98233384689794" lon="22.17928306917796"><ele>168.0</ele><time>2026-04-18T10:39:10.001Z</time></trkpt><trkpt lat="55.98239850183464" lon="22.179261850775116"><ele>168.0</ele><time>2026-04-18T10:39:11.001Z</time></trkpt><trkpt lat="55.9825149050913" lon="22.179245818399867"><ele>168.0</ele><time>2026-04-18T10:39:13.001Z</time></trkpt><trkpt lat="55.982592889600674" lon="22.17922072465651"><ele>168.0</ele><time>2026-04-18T10:39:14.001Z</time></trkpt><trkpt lat="55.98267747823492" lon="22.179193505849298"><ele>168.5</ele><time>2026-04-18T10:39:15.001Z</time></trkpt><trkpt lat="55.98276232866189" lon="22.179166202825115"><ele>169.0</ele><time>2026-04-18T10:39:16.001Z</time></trkpt><trkpt lat="55.982866689632374" lon="22.179132621708106"><ele>169.5</ele><time>2026-04-18T10:39:18.001Z</time></trkpt><trkpt lat="55.98293328085385" lon="22.1791111942585"><ele>170.0</ele><time>2026-04-18T10:39:19.001Z</time></trkpt><trkpt lat="55.98300014978773" lon="22.179002554219686"><ele>170.5</ele><time>2026-04-18T10:39:20.001Z</time></trkpt><trkpt lat="55.983066497157346" lon="22.178916063656303"><ele>171.0</ele><time>2026-04-18T10:39:21.001Z</time></trkpt><trkpt lat="55.98315163281573" lon="22.178853571349926"><ele>171.0</ele><time>2026-04-18T10:39:22.001Z</time></trkpt><trkpt lat="55.983236292666014" lon="22.17883616704104"><ele>171.0</ele><time>2026-04-18T10:39:23.001Z</time></trkpt><trkpt lat="55.983304168634405" lon="22.1787996050544"><ele>171.0</ele><time>2026-04-18T10:39:24.001Z</time></trkpt><trkpt lat="55.98337083655309" lon="22.178764085161042"><ele>171.0</ele><time>2026-04-18T10:39:25.001Z</time></trkpt><trkpt lat="55.983448779510034" lon="22.178722570137616"><ele>171.0</ele><time>2026-04-18T10:39:26.001Z</time></trkpt><trkpt lat="55.98353535118925" lon="22.178652315877674"><ele>171.0</ele><time>2026-04-18T10:39:27.001Z</time></trkpt><trkpt lat="55.98361982242262" lon="22.17862696683146"><ele>170.66666666666666</ele><time>2026-04-18T10:39:28.001Z</time></trkpt><trkpt lat="55.98369859713637" lon="22.17857166954506"><ele>170.33333333333334</ele><time>2026-04-18T10:39:29.001Z</time></trkpt><trkpt lat="55.983783406181345" lon="22.178526539116962"><ele>170.0</ele><time>2026-04-18T10:39:30.001Z</time></trkpt><trkpt lat="55.9838605419966" lon="22.178495824848504"><ele>169.66666666666669</ele><time>2026-04-18T10:39:31.001Z</time></trkpt><trkpt lat="55.983923628818324" lon="22.17847911530125"><ele>169.33333333333334</ele><time>2026-04-18T10:39:32.001Z</time></trkpt><trkpt lat="55.98399091352302" lon="22.178453392599582"><ele>169.0</ele><time>2026-04-18T10:39:33.001Z</time></trkpt><trkpt lat="55.98407509241617" lon="22.17845090745158"><ele>169.0</ele><time>2026-04-18T10:39:34.001Z</time></trkpt><trkpt lat="55.98415176689213" lon="22.178424821513183"><ele>169.0</ele><time>2026-04-18T10:39:35.001Z</time></trkpt><trkpt lat="55.984258952061886" lon="22.178388391990463"><ele>169.0</ele><time>2026-04-18T10:39:37.001Z</time></trkpt><trkpt lat="55.98438221491224" lon="22.178327295673046"><ele>169.0</ele><time>2026-04-18T10:39:39.001Z</time></trkpt><trkpt lat="55.984451103114516" lon="22.178301301192633"><ele>169.0</ele><time>2026-04-18T10:39:40.001Z</time></trkpt><trkpt lat="55.98452199729598" lon="22.178286522981676"><ele>168.39999999999998</ele><time>2026-04-18T10:39:41.001Z</time></trkpt><trkpt lat="55.984616408426355" lon="22.17830709416756"><ele>167.8</ele><time>2026-04-18T10:39:43.001Z</time></trkpt><trkpt lat="55.98472694563023" lon="22.17830134135352"><ele>167.2</ele><time>2026-04-18T10:39:45.001Z</time></trkpt><trkpt lat="55.984844145947" lon="22.1783269599525"><ele>166.60000000000002</ele><time>2026-04-18T10:39:47.001Z</time></trkpt><trkpt lat="55.984909383102426" lon="22.178342152170206"><ele>166.0</ele><time>2026-04-18T10:39:48.001Z</time></trkpt><trkpt lat="55.98497984390403" lon="22.17835830444669"><ele>166.0</ele><time>2026-04-18T10:39:49.001Z</time></trkpt><trkpt lat="55.9850499386033" lon="22.178371695543714"><ele>166.0</ele><time>2026-04-18T10:39:50.001Z</time></trkpt><trkpt lat="55.985128137371326" lon="22.17838325457001"><ele>166.0</ele><time>2026-04-18T10:39:51.001Z</time></trkpt><trkpt lat="55.98521985712668" lon="22.178411600756085"><ele>166.0</ele><time>2026-04-18T10:39:53.001Z</time></trkpt><trkpt lat="55.985298582779365" lon="22.178401083080725"><ele>166.0</ele><time>2026-04-18T10:39:57.001Z</time></trkpt><trkpt lat="55.985333138307865" lon="22.178250149317602"><ele>166.0</ele><time>2026-04-18T10:39:59.001Z</time></trkpt><trkpt lat="55.985315933971904" lon="22.17803962442193"><ele>166.20000000000002</ele><time>2026-04-18T10:40:00.001Z</time></trkpt><trkpt lat="55.98529147845643" lon="22.177857366998058"><ele>166.4</ele><time>2026-04-18T10:40:01.001Z</time></trkpt><trkpt lat="55.98527553486165" lon="22.177681674093282"><ele>166.6</ele><time>2026-04-18T10:40:02.001Z</time></trkpt><trkpt lat="55.98526895907198" lon="22.177539100991005"><ele>166.8</ele><time>2026-04-18T10:40:03.001Z</time></trkpt><trkpt lat="55.985254428203056" lon="22.177428060721653"><ele>167.0</ele><time>2026-04-18T10:40:04.001Z</time></trkpt><trkpt lat="55.9852492747822" lon="22.1772257646989"><ele>167.0</ele><time>2026-04-18T10:40:06.001Z</time></trkpt><trkpt lat="55.98510397518815" lon="22.1771809734148"><ele>167.0</ele><time>2026-04-18T10:40:07.001Z</time></trkpt><trkpt lat="55.98499915283489" lon="22.177115884885772"><ele>167.0</ele><time>2026-04-18T10:40:08.001Z</time></trkpt><trkpt lat="55.9848894655656" lon="22.176992110416457"><ele>167.0</ele><time>2026-04-18T10:40:09.001Z</time></trkpt><trkpt lat="55.98480496756381" lon="22.176921399337463"><ele>167.83333333333331</ele><time>2026-04-18T10:40:10.001Z</time></trkpt><trkpt lat="55.98474500482262" lon="22.17684782689623"><ele>168.66666666666666</ele><time>2026-04-18T10:40:11.001Z</time></trkpt><trkpt lat="55.98468214628847" lon="22.176787226816135"><ele>169.5</ele><time>2026-04-18T10:40:12.001Z</time></trkpt><trkpt lat="55.98461668789719" lon="22.176724120766394"><ele>170.33333333333334</ele><time>2026-04-18T10:40:13.001Z</time></trkpt><trkpt lat="55.98452084703625" lon="22.176807714231842"><ele>171.16666666666669</ele><time>2026-04-18T10:40:14.001Z</time></trkpt><trkpt lat="55.98444785013229" lon="22.176827655020407"><ele>172.0</ele><time>2026-04-18T10:40:15.001Z</time></trkpt><trkpt lat="55.984371878349016" lon="22.176820393520376"><ele>172.0</ele><time>2026-04-18T10:40:16.001Z</time></trkpt><trkpt lat="55.9843200816883" lon="22.176728300397333"><ele>172.0</ele><time>2026-04-18T10:40:17.001Z</time></trkpt><trkpt lat="55.9842026323718" lon="22.17665638568102"><ele>172.0</ele><time>2026-04-18T10:40:19.001Z</time></trkpt><trkpt lat="55.98413273720001" lon="22.17661359009032"><ele>172.0</ele><time>2026-04-18T10:40:20.001Z</time></trkpt><trkpt lat="55.98405928898513" lon="22.176592939411613"><ele>172.0</ele><time>2026-04-18T10:40:21.001Z</time></trkpt><trkpt lat="55.98400031092133" lon="22.176546314709018"><ele>172.0</ele><time>2026-04-18T10:40:22.001Z</time></trkpt><trkpt lat="55.98393498599933" lon="22.176506497060387"><ele>172.5</ele><time>2026-04-18T10:40:23.001Z</time></trkpt><trkpt lat="55.98386817896611" lon="22.176464141064454"><ele>173.0</ele><time>2026-04-18T10:40:24.001Z</time></trkpt><trkpt lat="55.983795428687735" lon="22.176415103822922"><ele>173.5</ele><time>2026-04-18T10:40:25.001Z</time></trkpt><trkpt lat="55.98372513537635" lon="22.176380923956028"><ele>174.0</ele><time>2026-04-18T10:40:26.001Z</time></trkpt><trkpt lat="55.98360533304748" lon="22.176377362665512"><ele>174.5</ele><time>2026-04-18T10:40:28.001Z</time></trkpt><trkpt lat="55.98353313234958" lon="22.176374035435686"><ele>175.0</ele><time>2026-04-18T10:40:29.001Z</time></trkpt><trkpt lat="55.98346049280882" lon="22.176336296153323"><ele>175.0</ele><time>2026-04-18T10:40:30.001Z</time></trkpt><trkpt lat="55.98339339931931" lon="22.176322807282556"><ele>175.0</ele><time>2026-04-18T10:40:31.001Z</time></trkpt><trkpt lat="55.983272233352004" lon="22.176298831743352"><ele>175.0</ele><time>2026-04-18T10:40:33.001Z</time></trkpt><trkpt lat="55.98319507155785" lon="22.176324491039757"><ele>175.0</ele><time>2026-04-18T10:40:34.001Z</time></trkpt><trkpt lat="55.98312093912295" lon="22.17633823468878"><ele>175.0</ele><time>2026-04-18T10:40:35.001Z</time></trkpt><trkpt lat="55.98304912781797" lon="22.176363094547682"><ele>175.0</ele><time>2026-04-18T10:40:36.001Z</time></trkpt><trkpt lat="55.982934712529854" lon="22.17640868398745"><ele>174.8</ele><time>2026-04-18T10:40:38.001Z</time></trkpt><trkpt lat="55.98282086177517" lon="22.176454048483418"><ele>174.6</ele><time>2026-04-18T10:40:40.001Z</time></trkpt><trkpt lat="55.982719466405484" lon="22.176494450054648"><ele>174.39999999999998</ele><time>2026-04-18T10:40:42.001Z</time></trkpt><trkpt lat="55.98263411120653" lon="22.17655790848278"><ele>174.2</ele><time>2026-04-18T10:40:44.001Z</time></trkpt><trkpt lat="55.982542276254705" lon="22.176595267371017"><ele>174.0</ele><time>2026-04-18T10:40:46.001Z</time></trkpt><trkpt lat="55.98244430141778" lon="22.176574344050426"><ele>173.5</ele><time>2026-04-18T10:40:48.001Z</time></trkpt><trkpt lat="55.982368589831744" lon="22.176554220970097"><ele>173.0</ele><time>2026-04-18T10:40:50.001Z</time></trkpt><trkpt lat="55.982316776794825" lon="22.176478049216836"><ele>172.5</ele><time>2026-04-18T10:40:52.001Z</time></trkpt><trkpt lat="55.98232137731433" lon="22.17623900542901"><ele>172.0</ele><time>2026-04-18T10:40:54.001Z</time></trkpt><trkpt lat="55.9823132234662" lon="22.176087126947557"><ele>171.5</ele><time>2026-04-18T10:40:55.001Z</time></trkpt><trkpt lat="55.982305807187444" lon="22.175948986910573"><ele>171.0</ele><time>2026-04-18T10:40:56.001Z</time></trkpt><trkpt lat="55.98228416665703" lon="22.17582406579458"><ele>171.0</ele><time>2026-04-18T10:40:57.001Z</time></trkpt><trkpt lat="55.982280009890104" lon="22.175695795425998"><ele>171.0</ele><time>2026-04-18T10:40:58.001Z</time></trkpt><trkpt lat="55.98227446987129" lon="22.17556519022353"><ele>171.0</ele><time>2026-04-18T10:40:59.001Z</time></trkpt><trkpt lat="55.9822785251811" lon="22.17544445651797"><ele>171.0</ele><time>2026-04-18T10:41:00.001Z</time></trkpt><trkpt lat="55.98225742173268" lon="22.175322055921992"><ele>171.0</ele><time>2026-04-18T10:41:01.001Z</time></trkpt><trkpt lat="55.982275382995006" lon="22.17512571204341"><ele>171.0</ele><time>2026-04-18T10:41:03.001Z</time></trkpt><trkpt lat="55.982293834575685" lon="22.17501605510881"><ele>170.85714285714283</ele><time>2026-04-18T10:41:04.001Z</time></trkpt><trkpt lat="55.98231440273692" lon="22.17488626192884"><ele>170.71428571428572</ele><time>2026-04-18T10:41:05.001Z</time></trkpt><trkpt lat="55.98234272676551" lon="22.174770102081347"><ele>170.57142857142856</ele><time>2026-04-18T10:41:06.001Z</time></trkpt><trkpt lat="55.98236350024069" lon="22.174646252646127"><ele>170.42857142857142</ele><time>2026-04-18T10:41:07.001Z</time></trkpt><trkpt lat="55.9823846369118" lon="22.174517880695753"><ele>170.28571428571428</ele><time>2026-04-18T10:41:08.001Z</time></trkpt><trkpt lat="55.98240252757666" lon="22.174408586387155"><ele>170.14285714285714</ele><time>2026-04-18T10:41:09.001Z</time></trkpt><trkpt lat="55.98242139205256" lon="22.174295017134742"><ele>170.0</ele><time>2026-04-18T10:41:10.001Z</time></trkpt><trkpt lat="55.982426428030266" lon="22.17417178103275"><ele>169.4</ele><time>2026-04-18T10:41:11.001Z</time></trkpt><trkpt lat="55.98245366783219" lon="22.174066273880243"><ele>168.8</ele><time>2026-04-18T10:41:12.001Z</time></trkpt><trkpt lat="55.982483594037575" lon="22.173906034094983"><ele>168.2</ele><time>2026-04-18T10:41:14.001Z</time></trkpt><trkpt lat="55.98251781195767" lon="22.17374028683354"><ele>167.6</ele><time>2026-04-18T10:41:16.001Z</time></trkpt><trkpt lat="55.98256684457833" lon="22.173580840932683"><ele>167.0</ele><time>2026-04-18T10:41:18.001Z</time></trkpt><trkpt lat="55.98262618308189" lon="22.173445716035687"><ele>167.0</ele><time>2026-04-18T10:41:20.001Z</time></trkpt><trkpt lat="55.98270943197361" lon="22.173349776461478"><ele>167.0</ele><time>2026-04-18T10:41:22.001Z</time></trkpt><trkpt lat="55.98277335481696" lon="22.173298301949842"><ele>167.0</ele><time>2026-04-18T10:41:24.001Z</time></trkpt><trkpt lat="55.98285815860587" lon="22.17322947125935"><ele>167.0</ele><time>2026-04-18T10:41:28.001Z</time></trkpt><trkpt lat="55.982934671537194" lon="22.173151574166862"><ele>167.0</ele><time>2026-04-18T10:41:30.001Z</time></trkpt><trkpt lat="55.98294173690557" lon="22.17281052890132"><ele>167.0</ele><time>2026-04-18T10:41:33.001Z</time></trkpt><trkpt lat="55.982981052889414" lon="22.17269201941733"><ele>167.0</ele><time>2026-04-18T10:41:35.001Z</time></trkpt><trkpt lat="55.983021786444624" lon="22.17259725431376"><ele>167.0</ele><time>2026-04-18T10:41:37.001Z</time></trkpt><trkpt lat="55.98306539917663" lon="22.17245944158139"><ele>167.0</ele><time>2026-04-18T10:41:39.001Z</time></trkpt><trkpt lat="55.983102636334685" lon="22.172313241539648"><ele>167.0</ele><time>2026-04-18T10:41:41.001Z</time></trkpt><trkpt lat="55.983120018498866" lon="22.17219593090165"><ele>167.0</ele><time>2026-04-18T10:41:42.001Z</time></trkpt><trkpt lat="55.98314027189149" lon="22.17203634903054"><ele>167.2</ele><time>2026-04-18T10:41:43.001Z</time></trkpt><trkpt lat="55.98316127483671" lon="22.17188092063642"><ele>167.39999999999998</ele><time>2026-04-18T10:41:44.001Z</time></trkpt><trkpt lat="55.98317794274976" lon="22.171730769631797"><ele>167.60000000000002</ele><time>2026-04-18T10:41:45.001Z</time></trkpt><trkpt lat="55.9831916629856" lon="22.171589707177727"><ele>167.8</ele><time>2026-04-18T10:41:46.001Z</time></trkpt><trkpt lat="55.98321997045618" lon="22.171414926818688"><ele>168.0</ele><time>2026-04-18T10:41:48.001Z</time></trkpt><trkpt lat="55.98326209123383" lon="22.17122613299179"><ele>168.0</ele><time>2026-04-18T10:41:50.001Z</time></trkpt><trkpt lat="55.983316291863446" lon="22.171013949060068"><ele>168.0</ele><time>2026-04-18T10:41:52.001Z</time></trkpt><trkpt lat="55.98334828422732" lon="22.17084907257135"><ele>168.0</ele><time>2026-04-18T10:41:54.001Z</time></trkpt><trkpt lat="55.9833608130658" lon="22.170737517598784"><ele>168.0</ele><time>2026-04-18T10:41:56.001Z</time></trkpt><trkpt lat="55.98338809032064" lon="22.17059547984542"><ele>168.0</ele><time>2026-04-18T10:41:58.001Z</time></trkpt><trkpt lat="55.983435267954135" lon="22.17044429468628"><ele>168.0</ele><time>2026-04-18T10:42:01.001Z</time></trkpt><trkpt lat="55.98349876595503" lon="22.17032345205425"><ele>168.0</ele><time>2026-04-18T10:42:03.001Z</time></trkpt><trkpt lat="55.98355817767205" lon="22.17020274502211"><ele>168.0</ele><time>2026-04-18T10:42:05.001Z</time></trkpt><trkpt lat="55.98361483758972" lon="22.170121030581036"><ele>168.0</ele><time>2026-04-18T10:42:07.001Z</time></trkpt><trkpt lat="55.98369960464935" lon="22.170046534238054"><ele>168.0</ele><time>2026-04-18T10:42:09.001Z</time></trkpt><trkpt lat="55.983795446596275" lon="22.16994950545245"><ele>167.5</ele><time>2026-04-18T10:42:11.001Z</time></trkpt><trkpt lat="55.98388807757104" lon="22.1698139899216"><ele>167.0</ele><time>2026-04-18T10:42:13.001Z</time></trkpt><trkpt lat="55.983944110742385" lon="22.1696561503666"><ele>166.5</ele><time>2026-04-18T10:42:15.001Z</time></trkpt><trkpt lat="55.984001931909944" lon="22.169470067863053"><ele>166.0</ele><time>2026-04-18T10:42:17.001Z</time></trkpt><trkpt lat="55.9840919174721" lon="22.169306759367263"><ele>166.0</ele><time>2026-04-18T10:42:19.001Z</time></trkpt><trkpt lat="55.98415323921642" lon="22.169237911608803"><ele>166.0</ele><time>2026-04-18T10:42:20.001Z</time></trkpt><trkpt lat="55.984215085255215" lon="22.169176485428345"><ele>166.0</ele><time>2026-04-18T10:42:21.001Z</time></trkpt><trkpt lat="55.98427587339913" lon="22.16911957303365"><ele>166.0</ele><time>2026-04-18T10:42:22.001Z</time></trkpt><trkpt lat="55.9843647109559" lon="22.169039852432643"><ele>166.0</ele><time>2026-04-18T10:42:24.001Z</time></trkpt><trkpt lat="55.98444815217974" lon="22.169032722614258"><ele>166.0</ele><time>2026-04-18T10:42:26.001Z</time></trkpt><trkpt lat="55.984515279589026" lon="22.169070227951632"><ele>166.8</ele><time>2026-04-18T10:42:29.001Z</time></trkpt><trkpt lat="55.984570349452326" lon="22.169154612170136"><ele>167.60000000000002</ele><time>2026-04-18T10:42:31.001Z</time></trkpt><trkpt lat="55.98458792534678" lon="22.16935596269489"><ele>168.4</ele><time>2026-04-18T10:42:33.001Z</time></trkpt><trkpt lat="55.98459853811741" lon="22.16954105043114"><ele>169.2</ele><time>2026-04-18T10:42:35.001Z</time></trkpt><trkpt lat="55.984617867990494" lon="22.169762109114238"><ele>170.0</ele><time>2026-04-18T10:42:37.001Z</time></trkpt><trkpt lat="55.98462984235407" lon="22.169873387627945"><ele>170.4</ele><time>2026-04-18T10:42:38.001Z</time></trkpt><trkpt lat="55.984683062008386" lon="22.16997770421802"><ele>170.8</ele><time>2026-04-18T10:42:39.001Z</time></trkpt><trkpt lat="55.98469729980051" lon="22.17018851552001"><ele>171.2</ele><time>2026-04-18T10:42:41.001Z</time></trkpt><trkpt lat="55.984711904863914" lon="22.170407900823722"><ele>171.6</ele><time>2026-04-18T10:42:43.001Z</time></trkpt><trkpt lat="55.98470738408758" lon="22.17053420160115"><ele>172.0</ele><time>2026-04-18T10:42:45.001Z</time></trkpt><trkpt lat="55.98476526452698" lon="22.170612666440864"><ele>172.0</ele><time>2026-04-18T10:42:47.001Z</time></trkpt><trkpt lat="55.98478119595044" lon="22.170455692149606"><ele>172.0</ele><time>2026-04-18T10:42:56.001Z</time></trkpt><trkpt lat="55.98479951688269" lon="22.17023068588166"><ele>172.0</ele><time>2026-04-18T10:42:57.001Z</time></trkpt><trkpt lat="55.98478152973672" lon="22.17002987929585"><ele>172.0</ele><time>2026-04-18T10:42:58.001Z</time></trkpt><trkpt lat="55.98476636589811" lon="22.1697909971261"><ele>171.33333333333334</ele><time>2026-04-18T10:42:59.001Z</time></trkpt><trkpt lat="55.98474943445051" lon="22.16952267949153"><ele>170.66666666666666</ele><time>2026-04-18T10:43:00.001Z</time></trkpt><trkpt lat="55.98472924424254" lon="22.169226612928057"><ele>170.0</ele><time>2026-04-18T10:43:01.001Z</time></trkpt><trkpt lat="55.98470474965614" lon="22.168895721640904"><ele>169.33333333333331</ele><time>2026-04-18T10:43:02.001Z</time></trkpt><trkpt lat="55.98467992725006" lon="22.168552537943196"><ele>168.66666666666666</ele><time>2026-04-18T10:43:03.001Z</time></trkpt><trkpt lat="55.98465423885804" lon="22.168160401523895"><ele>168.0</ele><time>2026-04-18T10:43:04.001Z</time></trkpt><trkpt lat="55.984629484998855" lon="22.16776526294278"><ele>167.33333333333334</ele><time>2026-04-18T10:43:05.001Z</time></trkpt><trkpt lat="55.98460342378221" lon="22.167358237313305"><ele>166.66666666666669</ele><time>2026-04-18T10:43:06.001Z</time></trkpt><trkpt lat="55.98457517733346" lon="22.166986793190986"><ele>166.0</ele><time>2026-04-18T10:43:07.001Z</time></trkpt><trkpt lat="55.98454774400234" lon="22.166653380479293"><ele>166.0</ele><time>2026-04-18T10:43:08.001Z</time></trkpt><trkpt lat="55.98451019033963" lon="22.166302533269036"><ele>166.0</ele><time>2026-04-18T10:43:09.001Z</time></trkpt><trkpt lat="55.9844572107973" lon="22.16595219311729"><ele>166.0</ele><time>2026-04-18T10:43:10.001Z</time></trkpt><trkpt lat="55.98438889473285" lon="22.165622969062266"><ele>166.0</ele><time>2026-04-18T10:43:11.001Z</time></trkpt><trkpt lat="55.984303412573155" lon="22.165304451712984"><ele>166.0</ele><time>2026-04-18T10:43:12.001Z</time></trkpt><trkpt lat="55.9842032068544" lon="22.165002806382414"><ele>166.0</ele><time>2026-04-18T10:43:13.001Z</time></trkpt><trkpt lat="55.984094478758784" lon="22.164725793336604"><ele>167.33333333333334</ele><time>2026-04-18T10:43:14.001Z</time></trkpt><trkpt lat="55.98398468335016" lon="22.164487126060678"><ele>168.66666666666666</ele><time>2026-04-18T10:43:15.001Z</time></trkpt><trkpt lat="55.983879333012254" lon="22.164277080132695"><ele>170.0</ele><time>2026-04-18T10:43:16.001Z</time></trkpt><trkpt lat="55.983786371173295" lon="22.16409139851289"><ele>169.5</ele><time>2026-04-18T10:43:17.001Z</time></trkpt><trkpt lat="55.983705628040504" lon="22.163912230176052"><ele>169.0</ele><time>2026-04-18T10:43:18.001Z</time></trkpt><trkpt lat="55.98363022251632" lon="22.163742529802946"><ele>168.5</ele><time>2026-04-18T10:43:19.001Z</time></trkpt><trkpt lat="55.983562644845094" lon="22.163590064187368"><ele>168.0</ele><time>2026-04-18T10:43:20.001Z</time></trkpt><trkpt lat="55.98349529626981" lon="22.16346495250801"><ele>168.0</ele><time>2026-04-18T10:43:21.001Z</time></trkpt><trkpt lat="55.983429174159255" lon="22.16334917662099"><ele>168.0</ele><time>2026-04-18T10:43:22.001Z</time></trkpt><trkpt lat="55.98335833628177" lon="22.1632298343704"><ele>168.0</ele><time>2026-04-18T10:43:23.001Z</time></trkpt><trkpt lat="55.983289932689615" lon="22.16311724674016"><ele>168.0</ele><time>2026-04-18T10:43:24.001Z</time></trkpt><trkpt lat="55.983221060431475" lon="22.16300239474286"><ele>168.0</ele><time>2026-04-18T10:43:25.001Z</time></trkpt><trkpt lat="55.983148699958306" lon="22.16288852438634"><ele>167.4</ele><time>2026-04-18T10:43:26.001Z</time></trkpt><trkpt lat="55.983075718727285" lon="22.16277987923338"><ele>166.8</ele><time>2026-04-18T10:43:27.001Z</time></trkpt><trkpt lat="55.98300125074385" lon="22.162673490411507"><ele>166.2</ele><time>2026-04-18T10:43:28.001Z</time></trkpt><trkpt lat="55.98292346123552" lon="22.162564539889182"><ele>165.6</ele><time>2026-04-18T10:43:29.001Z</time></trkpt><trkpt lat="55.98284838045075" lon="22.1624527752501"><ele>165.0</ele><time>2026-04-18T10:43:30.001Z</time></trkpt><trkpt lat="55.98276945615474" lon="22.162338666959734"><ele>165.2</ele><time>2026-04-18T10:43:31.001Z</time></trkpt><trkpt lat="55.98269222549882" lon="22.162233682152365"><ele>165.4</ele><time>2026-04-18T10:43:32.001Z</time></trkpt><trkpt lat="55.98261349420883" lon="22.162139290689503"><ele>165.60000000000002</ele><time>2026-04-18T10:43:33.001Z</time></trkpt><trkpt lat="55.98254936636779" lon="22.162017640150577"><ele>165.8</ele><time>2026-04-18T10:43:34.001Z</time></trkpt><trkpt lat="55.98247873969997" lon="22.16191912244292"><ele>166.0</ele><time>2026-04-18T10:43:35.001Z</time></trkpt><trkpt lat="55.982399852781036" lon="22.161833389655367"><ele>166.0</ele><time>2026-04-18T10:43:36.001Z</time></trkpt><trkpt lat="55.9823257383144" lon="22.16172828092726"><ele>166.0</ele><time>2026-04-18T10:43:37.001Z</time></trkpt><trkpt lat="55.98225536163" lon="22.16162698941676"><ele>166.0</ele><time>2026-04-18T10:43:38.001Z</time></trkpt><trkpt lat="55.98217419447273" lon="22.161518057857148"><ele>166.0</ele><time>2026-04-18T10:43:39.001Z</time></trkpt><trkpt lat="55.98209929005013" lon="22.161401028555286"><ele>166.0</ele><time>2026-04-18T10:43:40.001Z</time></trkpt><trkpt lat="55.982019809475204" lon="22.16127751701692"><ele>165.8</ele><time>2026-04-18T10:43:41.001Z</time></trkpt><trkpt lat="55.9819425158147" lon="22.161166956344925"><ele>165.60000000000002</ele><time>2026-04-18T10:43:42.001Z</time></trkpt><trkpt lat="55.98186391503314" lon="22.161061506525037"><ele>165.4</ele><time>2026-04-18T10:43:43.001Z</time></trkpt><trkpt lat="55.98178708129771" lon="22.160961290349768"><ele>165.2</ele><time>2026-04-18T10:43:44.001Z</time></trkpt><trkpt lat="55.98171029170997" lon="22.16085907819765"><ele>165.0</ele><time>2026-04-18T10:43:45.001Z</time></trkpt><trkpt lat="55.98163772843379" lon="22.160754028311988"><ele>165.0</ele><time>2026-04-18T10:43:46.001Z</time></trkpt><trkpt lat="55.98156557387729" lon="22.160649163655208"><ele>165.0</ele><time>2026-04-18T10:43:47.001Z</time></trkpt><trkpt lat="55.98149746770007" lon="22.160547288810257"><ele>165.0</ele><time>2026-04-18T10:43:48.001Z</time></trkpt><trkpt lat="55.981421836418285" lon="22.1604441472817"><ele>165.0</ele><time>2026-04-18T10:43:49.001Z</time></trkpt><trkpt lat="55.98134301739819" lon="22.160341071774276"><ele>165.0</ele><time>2026-04-18T10:43:50.001Z</time></trkpt><trkpt lat="55.981265763770494" lon="22.16023464378527"><ele>165.0</ele><time>2026-04-18T10:43:51.001Z</time></trkpt><trkpt lat="55.981202300990496" lon="22.160140741400152"><ele>165.0</ele><time>2026-04-18T10:43:52.001Z</time></trkpt><trkpt lat="55.98114328923806" lon="22.16005155649562"><ele>165.0</ele><time>2026-04-18T10:43:53.001Z</time></trkpt><trkpt lat="55.981082691874015" lon="22.1599656878036"><ele>165.0</ele><time>2026-04-18T10:43:54.001Z</time></trkpt><trkpt lat="55.981023418907" lon="22.15988417192929"><ele>165.0</ele><time>2026-04-18T10:43:55.001Z</time></trkpt><trkpt lat="55.98096244071342" lon="22.15979593882986"><ele>165.0</ele><time>2026-04-18T10:43:56.001Z</time></trkpt><trkpt lat="55.98089781739796" lon="22.15970927929221"><ele>164.66666666666666</ele><time>2026-04-18T10:43:57.001Z</time></trkpt><trkpt lat="55.98082890152421" lon="22.15962712097903"><ele>164.33333333333334</ele><time>2026-04-18T10:43:58.001Z</time></trkpt><trkpt lat="55.98076816917818" lon="22.159522785175966"><ele>164.0</ele><time>2026-04-18T10:43:59.001Z</time></trkpt><trkpt lat="55.98070194798855" lon="22.159430345351364"><ele>163.66666666666669</ele><time>2026-04-18T10:44:00.001Z</time></trkpt><trkpt lat="55.98064002527661" lon="22.159343677851254"><ele>163.33333333333334</ele><time>2026-04-18T10:44:01.001Z</time></trkpt><trkpt lat="55.980585451434656" lon="22.159267189788462"><ele>163.0</ele><time>2026-04-18T10:44:02.001Z</time></trkpt><trkpt lat="55.98049665328794" lon="22.159142734643975"><ele>163.0</ele><time>2026-04-18T10:44:04.001Z</time></trkpt><trkpt lat="55.98043956248508" lon="22.15906271893446"><ele>163.0</ele><time>2026-04-18T10:44:06.001Z</time></trkpt><trkpt lat="55.98035710690205" lon="22.15897700235065"><ele>163.0</ele><time>2026-04-18T10:44:09.001Z</time></trkpt><trkpt lat="55.980281998931616" lon="22.158841885505158"><ele>163.0</ele><time>2026-04-18T10:44:11.001Z</time></trkpt><trkpt lat="55.98021218712828" lon="22.158741715974106"><ele>163.0</ele><time>2026-04-18T10:44:13.001Z</time></trkpt><trkpt lat="55.98013394393244" lon="22.158626040933676"><ele>163.0</ele><time>2026-04-18T10:44:15.001Z</time></trkpt><trkpt lat="55.980046414692495" lon="22.158496637359253"><ele>163.0</ele><time>2026-04-18T10:44:17.001Z</time></trkpt><trkpt lat="55.97995716950029" lon="22.158365873364986"><ele>163.0</ele><time>2026-04-18T10:44:19.001Z</time></trkpt><trkpt lat="55.979872427403365" lon="22.158240512421727"><ele>163.0</ele><time>2026-04-18T10:44:21.001Z</time></trkpt><trkpt lat="55.9797833925349" lon="22.15810876358939"><ele>163.0</ele><time>2026-04-18T10:44:23.001Z</time></trkpt><trkpt lat="55.97970676129075" lon="22.158027286798088"><ele>163.0</ele><time>2026-04-18T10:44:25.001Z</time></trkpt><trkpt lat="55.97963999480743" lon="22.157903055986456"><ele>163.0</ele><time>2026-04-18T10:44:26.001Z</time></trkpt><trkpt lat="55.979544019990115" lon="22.157771191347386"><ele>163.0</ele><time>2026-04-18T10:44:28.001Z</time></trkpt><trkpt lat="55.9794825859242" lon="22.15769900337046"><ele>163.0</ele><time>2026-04-18T10:44:30.001Z</time></trkpt><trkpt lat="55.979412719322106" lon="22.157706053117373"><ele>163.0</ele><time>2026-04-18T10:44:32.001Z</time></trkpt><trkpt lat="55.979346163128476" lon="22.15772131469103"><ele>163.0</ele><time>2026-04-18T10:44:34.001Z</time></trkpt><trkpt lat="55.97926008241368" lon="22.157778640770104"><ele>163.0</ele><time>2026-04-18T10:44:36.001Z</time></trkpt><trkpt lat="55.97918461581" lon="22.157829738411138"><ele>163.0</ele><time>2026-04-18T10:44:38.001Z</time></trkpt><trkpt lat="55.97909849820306" lon="22.15788842658587"><ele>163.0</ele><time>2026-04-18T10:44:40.001Z</time></trkpt><trkpt lat="55.97900946604915" lon="22.157949148686583"><ele>163.0</ele><time>2026-04-18T10:44:42.001Z</time></trkpt><trkpt lat="55.97890344849084" lon="22.158021172810653"><ele>164.4</ele><time>2026-04-18T10:44:44.001Z</time></trkpt><trkpt lat="55.978786141473286" lon="22.158100866529907"><ele>165.8</ele><time>2026-04-18T10:44:46.001Z</time></trkpt><trkpt lat="55.97871904158666" lon="22.158146524649588"><ele>167.2</ele><time>2026-04-18T10:44:47.001Z</time></trkpt><trkpt lat="55.978659973144026" lon="22.15818672342668"><ele>168.6</ele><time>2026-04-18T10:44:48.001Z</time></trkpt><trkpt lat="55.97854553302514" lon="22.15829550293825"><ele>170.0</ele><time>2026-04-18T10:44:50.001Z</time></trkpt><trkpt lat="55.97848216691873" lon="22.158322937585794"><ele>170.0</ele><time>2026-04-18T10:44:51.001Z</time></trkpt><trkpt lat="55.978358100503925" lon="22.158407682487177"><ele>170.0</ele><time>2026-04-18T10:44:53.001Z</time></trkpt><trkpt lat="55.9782482710412" lon="22.158446143674755"><ele>170.0</ele><time>2026-04-18T10:44:55.001Z</time></trkpt><trkpt lat="55.978126202448344" lon="22.158469997787705"><ele>170.0</ele><time>2026-04-18T10:44:57.001Z</time></trkpt><trkpt lat="55.97806179273211" lon="22.158467292332176"><ele>170.0</ele><time>2026-04-18T10:44:58.001Z</time></trkpt><trkpt lat="55.97795480432119" lon="22.158447213528156"><ele>171.2</ele><time>2026-04-18T10:45:00.001Z</time></trkpt><trkpt lat="55.97783969603937" lon="22.158417449470086"><ele>172.4</ele><time>2026-04-18T10:45:02.001Z</time></trkpt><trkpt lat="55.97773364164583" lon="22.158291393516674"><ele>173.60000000000002</ele><time>2026-04-18T10:45:04.001Z</time></trkpt><trkpt lat="55.97762970100829" lon="22.158197620247535"><ele>174.8</ele><time>2026-04-18T10:45:06.001Z</time></trkpt><trkpt lat="55.977571995109095" lon="22.158145577540058"><ele>176.0</ele><time>2026-04-18T10:45:07.001Z</time></trkpt><trkpt lat="55.97746782712491" lon="22.15805179695317"><ele>176.66666666666666</ele><time>2026-04-18T10:45:09.001Z</time></trkpt><trkpt lat="55.97736367003668" lon="22.15795776103574"><ele>177.33333333333331</ele><time>2026-04-18T10:45:11.001Z</time></trkpt><trkpt lat="55.97725418924081" lon="22.15788565284029"><ele>178.0</ele><time>2026-04-18T10:45:13.001Z</time></trkpt><trkpt lat="55.977198002846364" lon="22.157824697535112"><ele>178.66666666666666</ele><time>2026-04-18T10:45:14.001Z</time></trkpt><trkpt lat="55.977134573433716" lon="22.157767713791365"><ele>179.33333333333334</ele><time>2026-04-18T10:45:15.001Z</time></trkpt><trkpt lat="55.97707453493076" lon="22.15771610540486"><ele>180.0</ele><time>2026-04-18T10:45:16.001Z</time></trkpt><trkpt lat="55.97702043083353" lon="22.157647104039654"><ele>180.0</ele><time>2026-04-18T10:45:17.001Z</time></trkpt><trkpt lat="55.97695531559343" lon="22.15758849726647"><ele>180.0</ele><time>2026-04-18T10:45:18.001Z</time></trkpt><trkpt lat="55.97689889258149" lon="22.1575377139067"><ele>180.0</ele><time>2026-04-18T10:45:19.001Z</time></trkpt><trkpt lat="55.97679398726014" lon="22.15744659350786"><ele>180.0</ele><time>2026-04-18T10:45:21.001Z</time></trkpt><trkpt lat="55.97674995478491" lon="22.15734528762566"><ele>180.0</ele><time>2026-04-18T10:45:22.001Z</time></trkpt><trkpt lat="55.97668319495083" lon="22.157240034250847"><ele>180.0</ele><time>2026-04-18T10:45:23.001Z</time></trkpt><trkpt lat="55.976621043601" lon="22.15710946589412"><ele>179.33333333333334</ele><time>2026-04-18T10:45:24.001Z</time></trkpt><trkpt lat="55.976566554786565" lon="22.15698109865774"><ele>178.66666666666666</ele><time>2026-04-18T10:45:25.001Z</time></trkpt><trkpt lat="55.976510005864476" lon="22.15684908110135"><ele>178.0</ele><time>2026-04-18T10:45:26.001Z</time></trkpt><trkpt lat="55.97644493313624" lon="22.15674608476804"><ele>177.33333333333331</ele><time>2026-04-18T10:45:27.001Z</time></trkpt><trkpt lat="55.97641188495273" lon="22.156648251802334"><ele>176.66666666666666</ele><time>2026-04-18T10:45:28.001Z</time></trkpt><trkpt lat="55.97637078628525" lon="22.156529555279235"><ele>176.0</ele><time>2026-04-18T10:45:29.001Z</time></trkpt><trkpt lat="55.97632920345846" lon="22.156404801372016"><ele>176.0</ele><time>2026-04-18T10:45:30.001Z</time></trkpt><trkpt lat="55.976274359056774" lon="22.15629120286889"><ele>176.0</ele><time>2026-04-18T10:45:31.001Z</time></trkpt><trkpt lat="55.976221853701894" lon="22.156184433464897"><ele>176.0</ele><time>2026-04-18T10:45:32.001Z</time></trkpt><trkpt lat="55.976154753919054" lon="22.156080847851182"><ele>176.0</ele><time>2026-04-18T10:45:33.001Z</time></trkpt><trkpt lat="55.97609659484721" lon="22.155986139739746"><ele>176.0</ele><time>2026-04-18T10:45:34.001Z</time></trkpt><trkpt lat="55.976040624979376" lon="22.15587591925346"><ele>176.0</ele><time>2026-04-18T10:45:35.001Z</time></trkpt><trkpt lat="55.97596978400057" lon="22.155790770079342"><ele>176.0</ele><time>2026-04-18T10:45:36.001Z</time></trkpt><trkpt lat="55.97590353206853" lon="22.155730080978632"><ele>176.0</ele><time>2026-04-18T10:45:37.001Z</time></trkpt><trkpt lat="55.9758405655965" lon="22.155665497614965"><ele>176.0</ele><time>2026-04-18T10:45:38.001Z</time></trkpt><trkpt lat="55.97577405097718" lon="22.155598454807695"><ele>176.0</ele><time>2026-04-18T10:45:39.001Z</time></trkpt><trkpt lat="55.975716110248946" lon="22.155547664075815"><ele>176.0</ele><time>2026-04-18T10:45:40.001Z</time></trkpt><trkpt lat="55.97564269158058" lon="22.155506954230997"><ele>176.0</ele><time>2026-04-18T10:45:41.001Z</time></trkpt><trkpt lat="55.9755715016989" lon="22.155481763158594"><ele>176.0</ele><time>2026-04-18T10:45:42.001Z</time></trkpt><trkpt lat="55.97549506581502" lon="22.15544444315448"><ele>176.0</ele><time>2026-04-18T10:45:43.001Z</time></trkpt><trkpt lat="55.9754126430575" lon="22.155416007982645"><ele>176.0</ele><time>2026-04-18T10:45:44.001Z</time></trkpt><trkpt lat="55.97533510310826" lon="22.155389822957208"><ele>176.0</ele><time>2026-04-18T10:45:45.001Z</time></trkpt><trkpt lat="55.975248191640134" lon="22.155360473197245"><ele>176.0</ele><time>2026-04-18T10:45:46.001Z</time></trkpt><trkpt lat="55.97516308523215" lon="22.155331733003482"><ele>176.0</ele><time>2026-04-18T10:45:47.001Z</time></trkpt><trkpt lat="55.97507684231226" lon="22.15530291378762"><ele>176.0</ele><time>2026-04-18T10:45:48.001Z</time></trkpt><trkpt lat="55.974990099123104" lon="22.155274014681613"><ele>176.60000000000002</ele><time>2026-04-18T10:45:49.001Z</time></trkpt><trkpt lat="55.974910364047226" lon="22.155235507342773"><ele>177.2</ele><time>2026-04-18T10:45:50.001Z</time></trkpt><trkpt lat="55.974822963814674" lon="22.155184443446007"><ele>177.8</ele><time>2026-04-18T10:45:51.001Z</time></trkpt><trkpt lat="55.97473763951027" lon="22.15513507268441"><ele>178.39999999999998</ele><time>2026-04-18T10:45:52.001Z</time></trkpt><trkpt lat="55.9746463846371" lon="22.155082307291867"><ele>179.0</ele><time>2026-04-18T10:45:53.001Z</time></trkpt><trkpt lat="55.97452722057548" lon="22.155021966531095"><ele>179.0</ele><time>2026-04-18T10:45:54.001Z</time></trkpt><trkpt lat="55.97438679538826" lon="22.15490184286307"><ele>179.0</ele><time>2026-04-18T10:45:55.001Z</time></trkpt><trkpt lat="55.974231094939796" lon="22.154800485678326"><ele>179.0</ele><time>2026-04-18T10:45:56.001Z</time></trkpt><trkpt lat="55.97409297913812" lon="22.154716809648924"><ele>179.25</ele><time>2026-04-18T10:45:57.001Z</time></trkpt><trkpt lat="55.973991367134175" lon="22.15465611558798"><ele>179.5</ele><time>2026-04-18T10:45:58.001Z</time></trkpt><trkpt lat="55.97390099492882" lon="22.154603649412074"><ele>179.75</ele><time>2026-04-18T10:45:59.001Z</time></trkpt><trkpt lat="55.97378269337108" lon="22.154567430059636"><ele>180.0</ele><time>2026-04-18T10:46:00.001Z</time></trkpt><trkpt lat="55.973650343463184" lon="22.154517865917075"><ele>180.0</ele><time>2026-04-18T10:46:01.001Z</time></trkpt><trkpt lat="55.97352691544041" lon="22.154435011577142"><ele>180.0</ele><time>2026-04-18T10:46:02.001Z</time></trkpt><trkpt lat="55.97338306191786" lon="22.154312762465683"><ele>180.0</ele><time>2026-04-18T10:46:03.001Z</time></trkpt><trkpt lat="55.97324370698879" lon="22.154173583732383"><ele>181.66666666666666</ele><time>2026-04-18T10:46:04.001Z</time></trkpt><trkpt lat="55.973104217365496" lon="22.154030784090512"><ele>183.33333333333331</ele><time>2026-04-18T10:46:05.001Z</time></trkpt><trkpt lat="55.972965471986626" lon="22.153883299024834"><ele>185.0</ele><time>2026-04-18T10:46:06.001Z</time></trkpt><trkpt lat="55.97285050463171" lon="22.15376948859988"><ele>185.0</ele><time>2026-04-18T10:46:07.001Z</time></trkpt><trkpt lat="55.97275174005745" lon="22.15366263453153"><ele>185.0</ele><time>2026-04-18T10:46:08.001Z</time></trkpt><trkpt lat="55.97266766258495" lon="22.153545820924812"><ele>185.0</ele><time>2026-04-18T10:46:09.001Z</time></trkpt><trkpt lat="55.972566644978606" lon="22.153451254637922"><ele>185.0</ele><time>2026-04-18T10:46:10.001Z</time></trkpt><trkpt lat="55.97247475372678" lon="22.153396872969275"><ele>185.0</ele><time>2026-04-18T10:46:11.001Z</time></trkpt><trkpt lat="55.972377350223006" lon="22.15334846972868"><ele>184.8</ele><time>2026-04-18T10:46:12.001Z</time></trkpt><trkpt lat="55.97228643488673" lon="22.153324683096827"><ele>184.6</ele><time>2026-04-18T10:46:13.001Z</time></trkpt><trkpt lat="55.97220920622764" lon="22.153257567392348"><ele>184.39999999999998</ele><time>2026-04-18T10:46:14.001Z</time></trkpt><trkpt lat="55.972112378510545" lon="22.153213979206907"><ele>184.2</ele><time>2026-04-18T10:46:15.001Z</time></trkpt><trkpt lat="55.97200893678644" lon="22.153176137048415"><ele>184.0</ele><time>2026-04-18T10:46:16.001Z</time></trkpt><trkpt lat="55.971904049541" lon="22.153136111998457"><ele>184.0</ele><time>2026-04-18T10:46:17.001Z</time></trkpt><trkpt lat="55.97180827876717" lon="22.153100959795026"><ele>184.0</ele><time>2026-04-18T10:46:18.001Z</time></trkpt><trkpt lat="55.97171918363048" lon="22.15306983114376"><ele>184.0</ele><time>2026-04-18T10:46:19.001Z</time></trkpt><trkpt lat="55.97162194242728" lon="22.153043247546826"><ele>184.0</ele><time>2026-04-18T10:46:20.001Z</time></trkpt><trkpt lat="55.971525339960024" lon="22.153008508830858"><ele>184.0</ele><time>2026-04-18T10:46:21.001Z</time></trkpt><trkpt lat="55.9714187286218" lon="22.152977302576165"><ele>182.6</ele><time>2026-04-18T10:46:22.001Z</time></trkpt><trkpt lat="55.97132545290724" lon="22.152916664042106"><ele>181.2</ele><time>2026-04-18T10:46:23.001Z</time></trkpt><trkpt lat="55.97124101048055" lon="22.152874280030854"><ele>179.79999999999998</ele><time>2026-04-18T10:46:24.001Z</time></trkpt><trkpt lat="55.97116056560302" lon="22.152812372467032"><ele>178.39999999999998</ele><time>2026-04-18T10:46:25.001Z</time></trkpt><trkpt lat="55.97107123121375" lon="22.152763601230177"><ele>177.0</ele><time>2026-04-18T10:46:26.001Z</time></trkpt><trkpt lat="55.970980236399036" lon="22.15274931592715"><ele>177.0</ele><time>2026-04-18T10:46:27.001Z</time></trkpt><trkpt lat="55.970894933534225" lon="22.152708100351806"><ele>177.0</ele><time>2026-04-18T10:46:28.001Z</time></trkpt><trkpt lat="55.97081623075537" lon="22.15264275565051"><ele>177.0</ele><time>2026-04-18T10:46:29.001Z</time></trkpt><trkpt lat="55.970726124927666" lon="22.152613111023353"><ele>177.0</ele><time>2026-04-18T10:46:30.001Z</time></trkpt><trkpt lat="55.970637558477065" lon="22.152644151740027"><ele>177.0</ele><time>2026-04-18T10:46:31.001Z</time></trkpt><trkpt lat="55.97055765055349" lon="22.152641245997884"><ele>177.0</ele><time>2026-04-18T10:46:32.001Z</time></trkpt><trkpt lat="55.97046718822109" lon="22.152636045799774"><ele>177.33333333333334</ele><time>2026-04-18T10:46:33.001Z</time></trkpt><trkpt lat="55.970378809971905" lon="22.152707661601834"><ele>177.66666666666666</ele><time>2026-04-18T10:46:34.001Z</time></trkpt><trkpt lat="55.970299686324275" lon="22.15274595081114"><ele>178.0</ele><time>2026-04-18T10:46:35.001Z</time></trkpt><trkpt lat="55.970227315719754" lon="22.15280491950701"><ele>178.33333333333331</ele><time>2026-04-18T10:46:36.001Z</time></trkpt><trkpt lat="55.97015462837643" lon="22.15286354251844"><ele>178.66666666666666</ele><time>2026-04-18T10:46:37.001Z</time></trkpt><trkpt lat="55.97007034634528" lon="22.15293228469743"><ele>179.0</ele><time>2026-04-18T10:46:38.001Z</time></trkpt><trkpt lat="55.969994448868135" lon="22.15297948340581"><ele>180.0</ele><time>2026-04-18T10:46:39.001Z</time></trkpt><trkpt lat="55.96990342185738" lon="22.15302752269867"><ele>181.0</ele><time>2026-04-18T10:46:40.001Z</time></trkpt><trkpt lat="55.96981138883663" lon="22.153076183603947"><ele>182.0</ele><time>2026-04-18T10:46:41.001Z</time></trkpt><trkpt lat="55.96972394226466" lon="22.15314787391897"><ele>183.0</ele><time>2026-04-18T10:46:42.001Z</time></trkpt><trkpt lat="55.96963048209731" lon="22.153170759919323"><ele>184.0</ele><time>2026-04-18T10:46:43.001Z</time></trkpt><trkpt lat="55.969548299938104" lon="22.153231490442746"><ele>184.16666666666669</ele><time>2026-04-18T10:46:44.001Z</time></trkpt><trkpt lat="55.96946868806732" lon="22.15325223971213"><ele>184.33333333333334</ele><time>2026-04-18T10:46:45.001Z</time></trkpt><trkpt lat="55.96938576686083" lon="22.153304026564587"><ele>184.5</ele><time>2026-04-18T10:46:46.001Z</time></trkpt><trkpt lat="55.96929738032332" lon="22.153331824422438"><ele>184.66666666666666</ele><time>2026-04-18T10:46:47.001Z</time></trkpt><trkpt lat="55.96920747797518" lon="22.153331986076612"><ele>184.83333333333331</ele><time>2026-04-18T10:46:48.001Z</time></trkpt><trkpt lat="55.969118239889134" lon="22.153357214727784"><ele>185.0</ele><time>2026-04-18T10:46:49.001Z</time></trkpt><trkpt lat="55.96902686855198" lon="22.153343771380882"><ele>185.33333333333331</ele><time>2026-04-18T10:46:50.001Z</time></trkpt><trkpt lat="55.968945708557605" lon="22.153343771378147"><ele>185.66666666666666</ele><time>2026-04-18T10:46:51.001Z</time></trkpt><trkpt lat="55.968881555423955" lon="22.153343771371976"><ele>186.0</ele><time>2026-04-18T10:46:52.001Z</time></trkpt><trkpt lat="55.96881419154995" lon="22.153343771371983"><ele>186.33333333333334</ele><time>2026-04-18T10:46:53.001Z</time></trkpt><trkpt lat="55.9687371432951" lon="22.15333689749918"><ele>186.66666666666669</ele><time>2026-04-18T10:46:55.001Z</time></trkpt><trkpt lat="55.968644068062126" lon="22.15331950308408"><ele>187.0</ele><time>2026-04-18T10:46:58.001Z</time></trkpt><trkpt lat="55.96855321663164" lon="22.153302362726464"><ele>187.0</ele><time>2026-04-18T10:47:00.001Z</time></trkpt><trkpt lat="55.968470444873475" lon="22.153286720169397"><ele>187.0</ele><time>2026-04-18T10:47:01.001Z</time></trkpt><trkpt lat="55.968372829203325" lon="22.15326808062279"><ele>187.0</ele><time>2026-04-18T10:47:02.001Z</time></trkpt><trkpt lat="55.96829086234643" lon="22.15325242919425"><ele>187.0</ele><time>2026-04-18T10:47:03.001Z</time></trkpt><trkpt lat="55.96821148997659" lon="22.15323744283406"><ele>187.0</ele><time>2026-04-18T10:47:04.001Z</time></trkpt><trkpt lat="55.96814661823935" lon="22.153225322174706"><ele>187.0</ele><time>2026-04-18T10:47:05.001Z</time></trkpt><trkpt lat="55.968063405120866" lon="22.1532097348386"><ele>186.2</ele><time>2026-04-18T10:47:07.001Z</time></trkpt><trkpt lat="55.967965849071895" lon="22.153191183992764"><ele>185.39999999999998</ele><time>2026-04-18T10:47:09.001Z</time></trkpt><trkpt lat="55.967834263861235" lon="22.153165449123527"><ele>184.60000000000002</ele><time>2026-04-18T10:47:11.001Z</time></trkpt><trkpt lat="55.96773727203399" lon="22.153147756386044"><ele>183.8</ele><time>2026-04-18T10:47:12.001Z</time></trkpt><trkpt lat="55.967656381483714" lon="22.153131543771604"><ele>183.0</ele><time>2026-04-18T10:47:13.001Z</time></trkpt><trkpt lat="55.96756075831179" lon="22.153150053636807"><ele>182.66666666666666</ele><time>2026-04-18T10:47:14.001Z</time></trkpt><trkpt lat="55.96748381167604" lon="22.15314844759206"><ele>182.33333333333334</ele><time>2026-04-18T10:47:15.001Z</time></trkpt><trkpt lat="55.96741090688183" lon="22.15314287944039"><ele>182.0</ele><time>2026-04-18T10:47:16.001Z</time></trkpt><trkpt lat="55.96732467059048" lon="22.153155635486513"><ele>181.66666666666669</ele><time>2026-04-18T10:47:17.001Z</time></trkpt><trkpt lat="55.9672532449427" lon="22.153172589384063"><ele>181.33333333333334</ele><time>2026-04-18T10:47:18.001Z</time></trkpt><trkpt lat="55.96718094397769" lon="22.15322839110859"><ele>181.0</ele><time>2026-04-18T10:47:19.001Z</time></trkpt><trkpt lat="55.96710980066445" lon="22.153256173143518"><ele>180.66666666666669</ele><time>2026-04-18T10:47:20.001Z</time></trkpt><trkpt lat="55.96703494001623" lon="22.15328514893604"><ele>180.33333333333334</ele><time>2026-04-18T10:47:21.001Z</time></trkpt><trkpt lat="55.96696913609157" lon="22.153310567505535"><ele>180.0</ele><time>2026-04-18T10:47:22.001Z</time></trkpt><trkpt lat="55.96686438296459" lon="22.153350748968577"><ele>179.66666666666666</ele><time>2026-04-18T10:47:24.001Z</time></trkpt><trkpt lat="55.96678370597228" lon="22.15338149856304"><ele>179.33333333333331</ele><time>2026-04-18T10:47:27.001Z</time></trkpt><trkpt lat="55.96672020063749" lon="22.15340661626318"><ele>179.0</ele><time>2026-04-18T10:47:29.001Z</time></trkpt><trkpt lat="55.966637777346726" lon="22.153508413202392"><ele>177.79999999999998</ele><time>2026-04-18T10:47:32.001Z</time></trkpt><trkpt lat="55.966509022646086" lon="22.1535794600758"><ele>176.6</ele><time>2026-04-18T10:47:34.001Z</time></trkpt><trkpt lat="55.966446100745706" lon="22.15362336986717"><ele>175.4</ele><time>2026-04-18T10:47:35.001Z</time></trkpt><trkpt lat="55.96634164766488" lon="22.153680237164963"><ele>174.2</ele><time>2026-04-18T10:47:37.001Z</time></trkpt><trkpt lat="55.966272012401916" lon="22.15372511654972"><ele>173.0</ele><time>2026-04-18T10:47:38.001Z</time></trkpt><trkpt lat="55.96620385189863" lon="22.153771393092807"><ele>173.0</ele><time>2026-04-18T10:47:39.001Z</time></trkpt><trkpt lat="55.96614506660926" lon="22.153813696386504"><ele>173.0</ele><time>2026-04-18T10:47:40.001Z</time></trkpt><trkpt lat="55.96603754400999" lon="22.153888928755947"><ele>173.0</ele><time>2026-04-18T10:47:42.001Z</time></trkpt><trkpt lat="55.9659293844692" lon="22.153984103451773"><ele>173.0</ele><time>2026-04-18T10:47:44.001Z</time></trkpt><trkpt lat="55.96586867129807" lon="22.154041104513208"><ele>173.0</ele><time>2026-04-18T10:47:45.001Z</time></trkpt><trkpt lat="55.96581379113976" lon="22.15409747510166"><ele>173.0</ele><time>2026-04-18T10:47:46.001Z</time></trkpt><trkpt lat="55.9657110598808" lon="22.154192299124198"><ele>171.4</ele><time>2026-04-18T10:47:48.001Z</time></trkpt><trkpt lat="55.965605507114226" lon="22.15427155208978"><ele>169.8</ele><time>2026-04-18T10:47:50.001Z</time></trkpt><trkpt lat="55.965506719467484" lon="22.154308694275752"><ele>168.2</ele><time>2026-04-18T10:47:52.001Z</time></trkpt><trkpt lat="55.96540931645908" lon="22.154303581784898"><ele>166.6</ele><time>2026-04-18T10:47:54.001Z</time></trkpt><trkpt lat="55.96532597283052" lon="22.154116497838135"><ele>165.0</ele><time>2026-04-18T10:47:56.001Z</time></trkpt><trkpt lat="55.965259289770636" lon="22.154058092268695"><ele>165.33333333333334</ele><time>2026-04-18T10:47:57.001Z</time></trkpt><trkpt lat="55.96517503878058" lon="22.15395192678553"><ele>165.66666666666666</ele><time>2026-04-18T10:47:59.001Z</time></trkpt><trkpt lat="55.96510135705134" lon="22.153863499523112"><ele>166.0</ele><time>2026-04-18T10:48:01.001Z</time></trkpt><trkpt lat="55.965030132612604" lon="22.15381386446636"><ele>166.33333333333331</ele><time>2026-04-18T10:48:03.001Z</time></trkpt><trkpt lat="55.964958883619765" lon="22.15385544712562"><ele>166.66666666666666</ele><time>2026-04-18T10:48:06.001Z</time></trkpt><trkpt lat="55.96490001996924" lon="22.153901301177708"><ele>167.0</ele><time>2026-04-18T10:48:09.001Z</time></trkpt><trkpt lat="55.96489632145976" lon="22.15402257505315"><ele>165.83333333333331</ele><time>2026-04-18T10:48:10.001Z</time></trkpt><trkpt lat="55.96487910873888" lon="22.15416532786434"><ele>164.66666666666666</ele><time>2026-04-18T10:48:12.001Z</time></trkpt><trkpt lat="55.96484886982971" lon="22.154277199888686"><ele>163.5</ele><time>2026-04-18T10:48:14.001Z</time></trkpt><trkpt lat="55.96484301041561" lon="22.154478601167707"><ele>162.33333333333334</ele><time>2026-04-18T10:48:16.001Z</time></trkpt><trkpt lat="55.96482909083504" lon="22.154621656425654"><ele>161.16666666666669</ele><time>2026-04-18T10:48:18.001Z</time></trkpt><trkpt lat="55.964809759191056" lon="22.154796423543555"><ele>160.0</ele><time>2026-04-18T10:48:20.001Z</time></trkpt><trkpt lat="55.964741881405054" lon="22.154959654219127"><ele>160.0</ele><time>2026-04-18T10:48:22.001Z</time></trkpt><trkpt lat="55.964689290447104" lon="22.15511367138261"><ele>160.0</ele><time>2026-04-18T10:48:24.001Z</time></trkpt><trkpt lat="55.96463027294684" lon="22.15528407415105"><ele>160.0</ele><time>2026-04-18T10:48:26.001Z</time></trkpt><trkpt lat="55.96459471746631" lon="22.155413214133123"><ele>160.0</ele><time>2026-04-18T10:48:27.001Z</time></trkpt><trkpt lat="55.96455999230141" lon="22.15552707086869"><ele>160.0</ele><time>2026-04-18T10:48:28.001Z</time></trkpt><trkpt lat="55.96452799669406" lon="22.15564069790662"><ele>160.0</ele><time>2026-04-18T10:48:29.001Z</time></trkpt><trkpt lat="55.96450088803734" lon="22.155747897925583"><ele>161.16666666666669</ele><time>2026-04-18T10:48:30.001Z</time></trkpt><trkpt lat="55.964467037343205" lon="22.15585870538296"><ele>162.33333333333334</ele><time>2026-04-18T10:48:31.001Z</time></trkpt><trkpt lat="55.964435703620524" lon="22.155984636011393"><ele>163.5</ele><time>2026-04-18T10:48:32.001Z</time></trkpt><trkpt lat="55.96439445546263" lon="22.15612118841706"><ele>164.66666666666666</ele><time>2026-04-18T10:48:33.001Z</time></trkpt><trkpt lat="55.964353390907426" lon="22.156252635079177"><ele>165.83333333333331</ele><time>2026-04-18T10:48:34Z</time></trkpt><trkpt lat="55.96431589907379" lon="22.1563800061479"><ele>167.0</ele><time>2026-04-18T10:48:35Z</time></trkpt><trkpt lat="55.964278057874864" lon="22.156511804117738"><ele>166.83333333333331</ele><time>2026-04-18T10:48:36Z</time></trkpt><trkpt lat="55.96424625119265" lon="22.15663343419864"><ele>166.66666666666666</ele><time>2026-04-18T10:48:37Z</time></trkpt><trkpt lat="55.96420725677737" lon="22.1567618379237"><ele>166.5</ele><time>2026-04-18T10:48:38Z</time></trkpt><trkpt lat="55.96416535286666" lon="22.156884658436706"><ele>166.33333333333334</ele><time>2026-04-18T10:48:39Z</time></trkpt><trkpt lat="55.964117440612625" lon="22.157013739267878"><ele>166.16666666666669</ele><time>2026-04-18T10:48:40Z</time></trkpt><trkpt lat="55.96406355682209" lon="22.157122810922555"><ele>166.0</ele><time>2026-04-18T10:48:41Z</time></trkpt><trkpt lat="55.96402850484452" lon="22.157221937136867"><ele>166.0</ele><time>2026-04-18T10:48:42Z</time></trkpt><trkpt lat="55.96398896765943" lon="22.157326129387574"><ele>166.0</ele><time>2026-04-18T10:48:43Z</time></trkpt><trkpt lat="55.96394864735232" lon="22.157424777455386"><ele>166.0</ele><time>2026-04-18T10:48:44Z</time></trkpt><trkpt lat="55.963904991372075" lon="22.15753158663289"><ele>166.0</ele><time>2026-04-18T10:48:45Z</time></trkpt><trkpt lat="55.96383900789741" lon="22.15769065672731"><ele>166.0</ele><time>2026-04-18T10:48:47Z</time></trkpt><trkpt lat="55.96377355387465" lon="22.157850109308978"><ele>166.0</ele><time>2026-04-18T10:48:49Z</time></trkpt><trkpt lat="55.963722179163206" lon="22.15797465351336"><ele>168.0</ele><time>2026-04-18T10:48:51Z</time></trkpt><trkpt lat="55.963696552053534" lon="22.158134261178702"><ele>170.0</ele><time>2026-04-18T10:48:53Z</time></trkpt><trkpt lat="55.96389125229224" lon="22.15851370800248"><ele>172.0</ele><time>2026-04-18T10:48:54Z</time></trkpt><trkpt lat="55.963913140983216" lon="22.15865889522714"><ele>172.33333333333334</ele><time>2026-04-18T10:48:55Z</time></trkpt><trkpt lat="55.9639416080404" lon="22.158793856417137"><ele>172.66666666666669</ele><time>2026-04-18T10:48:56Z</time></trkpt><trkpt lat="55.96398383955613" lon="22.158945168322216"><ele>173.0</ele><time>2026-04-18T10:48:57Z</time></trkpt><trkpt lat="55.96402168247041" lon="22.15906564485073"><ele>173.33333333333334</ele><time>2026-04-18T10:48:58Z</time></trkpt><trkpt lat="55.96405044977613" lon="22.159181303888808"><ele>173.66666666666666</ele><time>2026-04-18T10:48:59Z</time></trkpt><trkpt lat="55.96407138097245" lon="22.15928749396238"><ele>174.0</ele><time>2026-04-18T10:49:00Z</time></trkpt><trkpt lat="55.964103263292145" lon="22.159508931678257"><ele>174.16666666666666</ele><time>2026-04-18T10:49:02Z</time></trkpt><trkpt lat="55.96411221576342" lon="22.15962525097333"><ele>174.33333333333334</ele><time>2026-04-18T10:49:03Z</time></trkpt><trkpt lat="55.964120698970845" lon="22.159756024479275"><ele>174.5</ele><time>2026-04-18T10:49:04Z</time></trkpt><trkpt lat="55.96412200235747" lon="22.159898789268215"><ele>174.66666666666669</ele><time>2026-04-18T10:49:05Z</time></trkpt><trkpt lat="55.96411156360686" lon="22.16004295130403"><ele>174.83333333333334</ele><time>2026-04-18T10:49:06Z</time></trkpt><trkpt lat="55.964094694438636" lon="22.160219204650264"><ele>175.0</ele><time>2026-04-18T10:49:07Z</time></trkpt><trkpt lat="55.96408571571473" lon="22.160341160353315"><ele>175.2</ele><time>2026-04-18T10:49:08.001Z</time></trkpt><trkpt lat="55.9640627737633" lon="22.16055240467753"><ele>175.4</ele><time>2026-04-18T10:49:10.001Z</time></trkpt><trkpt lat="55.96403876207981" lon="22.160775048084236"><ele>175.60000000000002</ele><time>2026-04-18T10:49:12.001Z</time></trkpt><trkpt lat="55.96403661303515" lon="22.160897445717307"><ele>175.8</ele><time>2026-04-18T10:49:13.001Z</time></trkpt><trkpt lat="55.964043570487576" lon="22.16103212673583"><ele>176.0</ele><time>2026-04-18T10:49:14.001Z</time></trkpt><trkpt lat="55.96404223345396" lon="22.161165865620923"><ele>176.0</ele><time>2026-04-18T10:49:15.001Z</time></trkpt><trkpt lat="55.96404236230155" lon="22.161310369462807"><ele>176.0</ele><time>2026-04-18T10:49:16.001Z</time></trkpt><trkpt lat="55.96404619943227" lon="22.161471935882755"><ele>176.0</ele><time>2026-04-18T10:49:18.001Z</time></trkpt><trkpt lat="55.96403786021159" lon="22.161587007201767"><ele>176.0</ele><time>2026-04-18T10:49:34.001Z</time></trkpt><trkpt lat="55.96419490342993" lon="22.161605453953253"><ele>176.0</ele><time>2026-04-18T10:49:37.001Z</time></trkpt><trkpt lat="55.96429129518993" lon="22.161657464891753"><ele>176.5</ele><time>2026-04-18T10:49:38.001Z</time></trkpt><trkpt lat="55.964397935654254" lon="22.16167717600298"><ele>177.0</ele><time>2026-04-18T10:49:39.001Z</time></trkpt><trkpt lat="55.964542728276264" lon="22.161703185214392"><ele>177.5</ele><time>2026-04-18T10:49:40.001Z</time></trkpt><trkpt lat="55.964705293545734" lon="22.161682591735484"><ele>178.0</ele><time>2026-04-18T10:49:41.001Z</time></trkpt><trkpt lat="55.964854124592335" lon="22.161650897512917"><ele>178.0</ele><time>2026-04-18T10:49:42.001Z</time></trkpt><trkpt lat="55.96498851978528" lon="22.161621562577558"><ele>178.0</ele><time>2026-04-18T10:49:43.001Z</time></trkpt><trkpt lat="55.9650970044725" lon="22.16159734998332"><ele>178.0</ele><time>2026-04-18T10:49:44.001Z</time></trkpt><trkpt lat="55.96518953332294" lon="22.161576013616536"><ele>178.0</ele><time>2026-04-18T10:49:45.001Z</time></trkpt><trkpt lat="55.9652670128287" lon="22.16153495238382"><ele>178.0</ele><time>2026-04-18T10:49:46.001Z</time></trkpt><trkpt lat="55.96533429701066" lon="22.161525858593684"><ele>178.0</ele><time>2026-04-18T10:49:47.001Z</time></trkpt><trkpt lat="55.965428307332544" lon="22.161492136820527"><ele>178.0</ele><time>2026-04-18T10:49:49.001Z</time></trkpt><trkpt lat="55.965501426666314" lon="22.161480037609866"><ele>178.0</ele><time>2026-04-18T10:49:51.001Z</time></trkpt><trkpt lat="55.96557064453316" lon="22.161496549974704"><ele>178.0</ele><time>2026-04-18T10:49:53.001Z</time></trkpt><trkpt lat="55.96553269925133" lon="22.16185410215285"><ele>178.0</ele><time>2026-04-18T10:50:01.001Z</time></trkpt><trkpt lat="55.96553646392965" lon="22.162052902852555"><ele>177.99999999999997</ele><time>2026-04-18T10:50:03.001Z</time></trkpt><trkpt lat="55.965533347755624" lon="22.162184304205347"><ele>178.0</ele><time>2026-04-18T10:50:04.001Z</time></trkpt><trkpt lat="55.965533707805356" lon="22.162308246321107"><ele>178.0</ele><time>2026-04-18T10:50:05.001Z</time></trkpt><trkpt lat="55.96552833970933" lon="22.16243350263538"><ele>178.0</ele><time>2026-04-18T10:50:06.001Z</time></trkpt><trkpt lat="55.96551442168251" lon="22.16255622060695"><ele>178.0</ele><time>2026-04-18T10:50:07.001Z</time></trkpt><trkpt lat="55.96550546545285" lon="22.162685188845074"><ele>177.99999999999997</ele><time>2026-04-18T10:50:08.001Z</time></trkpt><trkpt lat="55.965499670279776" lon="22.162811658425433"><ele>178.0</ele><time>2026-04-18T10:50:09.001Z</time></trkpt><trkpt lat="55.9654951564513" lon="22.162952169375256"><ele>178.16666666666669</ele><time>2026-04-18T10:50:10.001Z</time></trkpt><trkpt lat="55.96548798311155" lon="22.16309676654967"><ele>178.33333333333334</ele><time>2026-04-18T10:50:11.001Z</time></trkpt><trkpt lat="55.965481006221815" lon="22.16324569119267"><ele>178.5</ele><time>2026-04-18T10:50:12Z</time></trkpt><trkpt lat="55.96547810260009" lon="22.163385932692602"><ele>178.66666666666666</ele><time>2026-04-18T10:50:13Z</time></trkpt><trkpt lat="55.96547715162618" lon="22.163499418704095"><ele>178.83333333333331</ele><time>2026-04-18T10:50:14Z</time></trkpt><trkpt lat="55.965475639680534" lon="22.16361807508686"><ele>179.0</ele><time>2026-04-18T10:50:15Z</time></trkpt><trkpt lat="55.96547412195504" lon="22.163762913426204"><ele>179.0</ele><time>2026-04-18T10:50:16Z</time></trkpt><trkpt lat="55.96547085505585" lon="22.16391913412138"><ele>179.0</ele><time>2026-04-18T10:50:17Z</time></trkpt><trkpt lat="55.96546315981035" lon="22.164086541889773"><ele>179.0</ele><time>2026-04-18T10:50:18Z</time></trkpt><trkpt lat="55.965457335333646" lon="22.164239347767374"><ele>179.0</ele><time>2026-04-18T10:50:19Z</time></trkpt><trkpt lat="55.96545432813499" lon="22.164364193315183"><ele>179.0</ele><time>2026-04-18T10:50:20Z</time></trkpt><trkpt lat="55.96545039785438" lon="22.164480516001746"><ele>179.0</ele><time>2026-04-18T10:50:21Z</time></trkpt><trkpt lat="55.96544669806108" lon="22.164601750778452"><ele>179.5</ele><time>2026-04-18T10:50:22Z</time></trkpt><trkpt lat="55.96544556863866" lon="22.164720671704984"><ele>180.0</ele><time>2026-04-18T10:50:23Z</time></trkpt><trkpt lat="55.96544154901195" lon="22.164869868468713"><ele>180.5</ele><time>2026-04-18T10:50:24Z</time></trkpt><trkpt lat="55.96543457793296" lon="22.165029448635224"><ele>181.0</ele><time>2026-04-18T10:50:25Z</time></trkpt><trkpt lat="55.96543023576379" lon="22.165160036574502"><ele>181.5</ele><time>2026-04-18T10:50:26Z</time></trkpt><trkpt lat="55.96543767860745" lon="22.165350931226023"><ele>182.0</ele><time>2026-04-18T10:50:28Z</time></trkpt><trkpt lat="55.96543224201101" lon="22.16556262995225"><ele>181.83333333333331</ele><time>2026-04-18T10:50:30Z</time></trkpt><trkpt lat="55.965428802907525" lon="22.165709809743863"><ele>181.66666666666666</ele><time>2026-04-18T10:50:31Z</time></trkpt><trkpt lat="55.96542625178645" lon="22.16584896971792"><ele>181.5</ele><time>2026-04-18T10:50:32Z</time></trkpt><trkpt lat="55.96542140029962" lon="22.16596200636515"><ele>181.33333333333334</ele><time>2026-04-18T10:50:33Z</time></trkpt><trkpt lat="55.96540717333892" lon="22.166191154898772"><ele>181.16666666666669</ele><time>2026-04-18T10:50:35Z</time></trkpt><trkpt lat="55.96540888976948" lon="22.166337863302388"><ele>181.0</ele><time>2026-04-18T10:50:36Z</time></trkpt><trkpt lat="55.96541851198501" lon="22.1665120940604"><ele>181.0</ele><time>2026-04-18T10:50:37Z</time></trkpt><trkpt lat="55.965419991695676" lon="22.166660126592234"><ele>181.0</ele><time>2026-04-18T10:50:38Z</time></trkpt><trkpt lat="55.96541026760031" lon="22.166804193426913"><ele>181.0</ele><time>2026-04-18T10:50:39Z</time></trkpt><trkpt lat="55.96540701731011" lon="22.16694312204125"><ele>181.0</ele><time>2026-04-18T10:50:40Z</time></trkpt><trkpt lat="55.9654031412917" lon="22.167058693470185"><ele>181.0</ele><time>2026-04-18T10:50:41Z</time></trkpt><trkpt lat="55.96540738533138" lon="22.167224232103948"><ele>181.0</ele><time>2026-04-18T10:50:43Z</time></trkpt><trkpt lat="55.96541576124619" lon="22.167455794808866"><ele>181.20000000000002</ele><time>2026-04-18T10:50:45Z</time></trkpt><trkpt lat="55.96541187546412" lon="22.16760852564194"><ele>181.4</ele><time>2026-04-18T10:50:46Z</time></trkpt><trkpt lat="55.96540087741011" lon="22.167781217069077"><ele>181.6</ele><time>2026-04-18T10:50:47Z</time></trkpt><trkpt lat="55.965389387884365" lon="22.16790296061115"><ele>181.8</ele><time>2026-04-18T10:50:48Z</time></trkpt><trkpt lat="55.96538702626055" lon="22.168081421442253"><ele>182.0</ele><time>2026-04-18T10:50:50Z</time></trkpt><trkpt lat="55.96537365900284" lon="22.168283410011743"><ele>182.0</ele><time>2026-04-18T10:50:52Z</time></trkpt><trkpt lat="55.96535855649925" lon="22.168466370947545"><ele>182.0</ele><time>2026-04-18T10:50:54Z</time></trkpt><trkpt lat="55.96534798240514" lon="22.168717181528827"><ele>182.0</ele><time>2026-04-18T10:50:56Z</time></trkpt><trkpt lat="55.96534261180085" lon="22.168883384719315"><ele>182.0</ele><time>2026-04-18T10:50:57Z</time></trkpt><trkpt lat="55.9653433390444" lon="22.169034701692535"><ele>182.0</ele><time>2026-04-18T10:50:58Z</time></trkpt><trkpt lat="55.965352616295384" lon="22.169204100058902"><ele>181.8</ele><time>2026-04-18T10:50:59Z</time></trkpt><trkpt lat="55.96535912100333" lon="22.169385232724387"><ele>181.6</ele><time>2026-04-18T10:51:00Z</time></trkpt><trkpt lat="55.96535802255158" lon="22.16956901180065"><ele>181.4</ele><time>2026-04-18T10:51:01Z</time></trkpt><trkpt lat="55.965357683664855" lon="22.169772492133834"><ele>181.20000000000002</ele><time>2026-04-18T10:51:02Z</time></trkpt><trkpt lat="55.965352139748596" lon="22.16992321353471"><ele>181.0</ele><time>2026-04-18T10:51:03Z</time></trkpt><trkpt lat="55.96534320581863" lon="22.170054085757783"><ele>181.4</ele><time>2026-04-18T10:51:04Z</time></trkpt><trkpt lat="55.96533380117063" lon="22.170201637723714"><ele>181.8</ele><time>2026-04-18T10:51:05Z</time></trkpt><trkpt lat="55.965326964137226" lon="22.170371736465018"><ele>182.20000000000002</ele><time>2026-04-18T10:51:06Z</time></trkpt><trkpt lat="55.965326436285316" lon="22.170541613898937"><ele>182.60000000000002</ele><time>2026-04-18T10:51:07Z</time></trkpt><trkpt lat="55.96532771305745" lon="22.170667929373668"><ele>183.0</ele><time>2026-04-18T10:51:08Z</time></trkpt><trkpt lat="55.96532591517132" lon="22.170881997846596"><ele>183.0</ele><time>2026-04-18T10:51:10Z</time></trkpt><trkpt lat="55.965326540685254" lon="22.171018488313678"><ele>183.0</ele><time>2026-04-18T10:51:11Z</time></trkpt><trkpt lat="55.96532366570326" lon="22.171170234517536"><ele>183.0</ele><time>2026-04-18T10:51:12Z</time></trkpt><trkpt lat="55.965327195822525" lon="22.171365399763822"><ele>183.0</ele><time>2026-04-18T10:51:14Z</time></trkpt><trkpt lat="55.965340341870174" lon="22.171514509268135"><ele>183.0</ele><time>2026-04-18T10:51:16Z</time></trkpt><trkpt lat="55.96534143146047" lon="22.171713781225243"><ele>183.0</ele><time>2026-04-18T10:51:18Z</time></trkpt><trkpt lat="55.96534064962777" lon="22.171882088611515"><ele>183.0</ele><time>2026-04-18T10:51:20Z</time></trkpt><trkpt lat="55.96533707303447" lon="22.1719982240681"><ele>183.0</ele><time>2026-04-18T10:51:21Z</time></trkpt><trkpt lat="55.965333788864044" lon="22.172110873624767"><ele>183.0</ele><time>2026-04-18T10:51:22Z</time></trkpt><trkpt lat="55.9653235527362" lon="22.172287155159957"><ele>183.0</ele><time>2026-04-18T10:51:24Z</time></trkpt><trkpt lat="55.96531793302326" lon="22.17242381507351"><ele>183.0</ele><time>2026-04-18T10:51:26Z</time></trkpt><trkpt lat="55.96531585701333" lon="22.17257652714923"><ele>182.57142857142858</ele><time>2026-04-18T10:51:28Z</time></trkpt><trkpt lat="55.96531280385147" lon="22.172714282956132"><ele>182.14285714285717</ele><time>2026-04-18T10:51:30Z</time></trkpt><trkpt lat="55.96526728486398" lon="22.172830033261103"><ele>181.71428571428572</ele><time>2026-04-18T10:51:32Z</time></trkpt><trkpt lat="55.965246622397586" lon="22.172973183078753"><ele>181.28571428571428</ele><time>2026-04-18T10:51:35Z</time></trkpt><trkpt lat="55.9652552152322" lon="22.173105052990227"><ele>180.85714285714286</ele><time>2026-04-18T10:51:38Z</time></trkpt><trkpt lat="55.965298233033835" lon="22.173189834851957"><ele>180.42857142857142</ele><time>2026-04-18T10:51:40Z</time></trkpt><trkpt lat="55.96536830399599" lon="22.173197158783616"><ele>180.0</ele><time>2026-04-18T10:51:42Z</time></trkpt><trkpt lat="55.96539361750638" lon="22.17334532167385"><ele>179.33333333333334</ele><time>2026-04-18T10:51:43Z</time></trkpt><trkpt lat="55.965412174620845" lon="22.173524954411786"><ele>178.66666666666666</ele><time>2026-04-18T10:51:45Z</time></trkpt><trkpt lat="55.9654229454336" lon="22.17369185384308"><ele>178.0</ele><time>2026-04-18T10:51:47Z</time></trkpt><trkpt lat="55.96543693723751" lon="22.17384675882437"><ele>177.33333333333331</ele><time>2026-04-18T10:51:48Z</time></trkpt><trkpt lat="55.96544688993576" lon="22.173988304816362"><ele>176.66666666666666</ele><time>2026-04-18T10:51:49Z</time></trkpt><trkpt lat="55.96545495523155" lon="22.174107963960243"><ele>176.0</ele><time>2026-04-18T10:51:50Z</time></trkpt><trkpt lat="55.965457809810424" lon="22.174293766650454"><ele>175.33333333333331</ele><time>2026-04-18T10:51:52Z</time></trkpt><trkpt lat="55.965470062908174" lon="22.174492430356697"><ele>174.66666666666666</ele><time>2026-04-18T10:51:54Z</time></trkpt><trkpt lat="55.96547738136706" lon="22.17465417216147"><ele>174.0</ele><time>2026-04-18T10:51:56Z</time></trkpt><trkpt lat="55.96547552075426" lon="22.17480048512888"><ele>173.33333333333334</ele><time>2026-04-18T10:51:58Z</time></trkpt><trkpt lat="55.96546701323073" lon="22.17492494403074"><ele>172.66666666666669</ele><time>2026-04-18T10:52:00Z</time></trkpt><trkpt lat="55.96545756554753" lon="22.175068863049297"><ele>172.0</ele><time>2026-04-18T10:52:02Z</time></trkpt><trkpt lat="55.96545189606814" lon="22.175248003938155"><ele>171.6</ele><time>2026-04-18T10:52:04Z</time></trkpt><trkpt lat="55.96544196126488" lon="22.175451275190966"><ele>171.2</ele><time>2026-04-18T10:52:06Z</time></trkpt><trkpt lat="55.965432534731605" lon="22.175657184441864"><ele>170.8</ele><time>2026-04-18T10:52:08Z</time></trkpt><trkpt lat="55.96540811721189" lon="22.175826791473245"><ele>170.4</ele><time>2026-04-18T10:52:10Z</time></trkpt><trkpt lat="55.9653915311436" lon="22.175965870278603"><ele>170.0</ele><time>2026-04-18T10:52:12Z</time></trkpt><trkpt lat="55.9652581529841" lon="22.175967918458433"><ele>169.83333333333331</ele><time>2026-04-18T10:52:24Z</time></trkpt><trkpt lat="55.96513560468753" lon="22.175881470774694"><ele>169.66666666666666</ele><time>2026-04-18T10:52:26Z</time></trkpt><trkpt lat="55.965039534295784" lon="22.175812729216734"><ele>169.5</ele><time>2026-04-18T10:52:28Z</time></trkpt><trkpt lat="55.964973291546194" lon="22.17578281673876"><ele>169.33333333333334</ele><time>2026-04-18T10:52:29Z</time></trkpt><trkpt lat="55.96490453979835" lon="22.17574029645287"><ele>169.16666666666669</ele><time>2026-04-18T10:52:30Z</time></trkpt><trkpt lat="55.96483639391766" lon="22.1756951905377"><ele>169.0</ele><time>2026-04-18T10:52:31Z</time></trkpt><trkpt lat="55.964772159945824" lon="22.175650233330835"><ele>169.0</ele><time>2026-04-18T10:52:32Z</time></trkpt><trkpt lat="55.964680601133" lon="22.17559663727339"><ele>169.0</ele><time>2026-04-18T10:52:34Z</time></trkpt><trkpt lat="55.96460630056138" lon="22.175540486124017"><ele>169.0</ele><time>2026-04-18T10:52:38Z</time></trkpt><trkpt lat="55.964547432157794" lon="22.175490060705172"><ele>169.0</ele><time>2026-04-18T10:52:40Z</time></trkpt><trkpt lat="55.964581160089686" lon="22.175286054821296"><ele>169.0</ele><time>2026-04-18T10:52:41Z</time></trkpt><trkpt lat="55.96455878808572" lon="22.175097114560582"><ele>169.0</ele><time>2026-04-18T10:52:43Z</time></trkpt><trkpt lat="55.96452920971535" lon="22.174914482146598"><ele>169.0</ele><time>2026-04-18T10:52:45Z</time></trkpt><trkpt lat="55.964487729333776" lon="22.174742736561274"><ele>169.0</ele><time>2026-04-18T10:52:47Z</time></trkpt><trkpt lat="55.964467807723246" lon="22.174592532335875"><ele>169.0</ele><time>2026-04-18T10:52:49Z</time></trkpt><trkpt lat="55.964472133110576" lon="22.174443339620204"><ele>169.0</ele><time>2026-04-18T10:52:51Z</time></trkpt><trkpt lat="55.964458894209265" lon="22.174296080901417"><ele>169.0</ele><time>2026-04-18T10:52:53Z</time></trkpt><trkpt lat="55.964452494659874" lon="22.174150096163753"><ele>169.0</ele><time>2026-04-18T10:52:55Z</time></trkpt><trkpt lat="55.96445264113023" lon="22.17398725780448"><ele>169.0</ele><time>2026-04-18T10:52:57Z</time></trkpt><trkpt lat="55.964449397111295" lon="22.173847732180107"><ele>169.0</ele><time>2026-04-18T10:52:59Z</time></trkpt><trkpt lat="55.964458399442066" lon="22.1737282224762"><ele>169.0</ele><time>2026-04-18T10:53:01Z</time></trkpt><trkpt lat="55.96445643165149" lon="22.17359448033381"><ele>169.0</ele><time>2026-04-18T10:53:03Z</time></trkpt><trkpt lat="55.96445845182596" lon="22.17346515323926"><ele>169.0</ele><time>2026-04-18T10:53:05Z</time></trkpt><trkpt lat="55.96448350392211" lon="22.17336003926302"><ele>169.0</ele><time>2026-04-18T10:53:07Z</time></trkpt><trkpt lat="55.96458114307717" lon="22.17330938004994"><ele>169.0</ele><time>2026-04-18T10:53:10Z</time></trkpt><trkpt lat="55.964657129105824" lon="22.173312659270497"><ele>169.0</ele><time>2026-04-18T10:53:11Z</time></trkpt><trkpt lat="55.964768664437955" lon="22.17329302135634"><ele>169.0</ele><time>2026-04-18T10:53:12Z</time></trkpt><trkpt lat="55.96488104379558" lon="22.17329259944668"><ele>169.0</ele><time>2026-04-18T10:53:13Z</time></trkpt><trkpt lat="55.96499904273282" lon="22.173272410416082"><ele>169.0</ele><time>2026-04-18T10:53:14Z</time></trkpt><trkpt lat="55.965142099821776" lon="22.17323684188771"><ele>169.0</ele><time>2026-04-18T10:53:15Z</time></trkpt><trkpt lat="55.96527974811366" lon="22.173210656621787"><ele>169.0</ele><time>2026-04-18T10:53:16Z</time></trkpt><trkpt lat="55.96541946244518" lon="22.17316825692781"><ele>171.75</ele><time>2026-04-18T10:53:17Z</time></trkpt><trkpt lat="55.965554286516365" lon="22.17311608834745"><ele>174.5</ele><time>2026-04-18T10:53:18Z</time></trkpt><trkpt lat="55.965677390091486" lon="22.173076716658155"><ele>177.25</ele><time>2026-04-18T10:53:19Z</time></trkpt><trkpt lat="55.96578987982397" lon="22.17306110900491"><ele>180.0</ele><time>2026-04-18T10:53:20Z</time></trkpt><trkpt lat="55.965897272808164" lon="22.17306661097884"><ele>181.0</ele><time>2026-04-18T10:53:21Z</time></trkpt><trkpt lat="55.96600975112048" lon="22.173100642683075"><ele>182.0</ele><time>2026-04-18T10:53:22Z</time></trkpt><trkpt lat="55.966125774776046" lon="22.17316341996756"><ele>183.0</ele><time>2026-04-18T10:53:23Z</time></trkpt><trkpt lat="55.96624269095956" lon="22.17324803404711"><ele>184.0</ele><time>2026-04-18T10:53:24Z</time></trkpt><trkpt lat="55.96638228734898" lon="22.173332837308212"><ele>181.33333333333334</ele><time>2026-04-18T10:53:25Z</time></trkpt><trkpt lat="55.96655769521125" lon="22.173412904113636"><ele>178.66666666666666</ele><time>2026-04-18T10:53:26Z</time></trkpt><trkpt lat="55.96673630873837" lon="22.17350547054144"><ele>176.0</ele><time>2026-04-18T10:53:27Z</time></trkpt><trkpt lat="55.966892864984" lon="22.173599316740635"><ele>175.0</ele><time>2026-04-18T10:53:28Z</time></trkpt><trkpt lat="55.96705222371355" lon="22.173675643137678"><ele>174.0</ele><time>2026-04-18T10:53:29Z</time></trkpt><trkpt lat="55.9671887147419" lon="22.173719128483928"><ele>173.0</ele><time>2026-04-18T10:53:30Z</time></trkpt><trkpt lat="55.96733106183074" lon="22.173740569685368"><ele>172.0</ele><time>2026-04-18T10:53:31Z</time></trkpt><trkpt lat="55.967484290338675" lon="22.173719839203205"><ele>171.66666666666669</ele><time>2026-04-18T10:53:32Z</time></trkpt><trkpt lat="55.967638670583085" lon="22.173693703107276"><ele>171.33333333333334</ele><time>2026-04-18T10:53:33Z</time></trkpt><trkpt lat="55.967796629497364" lon="22.17366551270011"><ele>171.0</ele><time>2026-04-18T10:53:34Z</time></trkpt><trkpt lat="55.96795191631893" lon="22.173636665671065"><ele>171.0</ele><time>2026-04-18T10:53:35Z</time></trkpt><trkpt lat="55.968088756174154" lon="22.173619749202647"><ele>171.0</ele><time>2026-04-18T10:53:36Z</time></trkpt><trkpt lat="55.968209943271816" lon="22.173601149548364"><ele>171.0</ele><time>2026-04-18T10:53:37Z</time></trkpt><trkpt lat="55.968315075500264" lon="22.173563730993195"><ele>171.0</ele><time>2026-04-18T10:53:38Z</time></trkpt><trkpt lat="55.96841516825501" lon="22.173530296736654"><ele>171.60000000000002</ele><time>2026-04-18T10:53:39Z</time></trkpt><trkpt lat="55.96849334596766" lon="22.173506800455456"><ele>172.2</ele><time>2026-04-18T10:53:40Z</time></trkpt><trkpt lat="55.96858355899194" lon="22.173491453297515"><ele>172.8</ele><time>2026-04-18T10:53:42Z</time></trkpt><trkpt lat="55.96864784253277" lon="22.173451915049686"><ele>173.39999999999998</ele><time>2026-04-18T10:53:44Z</time></trkpt><trkpt lat="55.96870197151841" lon="22.17366024727454"><ele>174.0</ele><time>2026-04-18T10:53:45Z</time></trkpt><trkpt lat="55.968711164571175" lon="22.17382299956765"><ele>173.75</ele><time>2026-04-18T10:53:46Z</time></trkpt><trkpt lat="55.96876157033667" lon="22.174044771862707"><ele>173.5</ele><time>2026-04-18T10:53:47Z</time></trkpt><trkpt lat="55.968796363102115" lon="22.17431037617958"><ele>173.25</ele><time>2026-04-18T10:53:48Z</time></trkpt><trkpt lat="55.96883602083244" lon="22.174573175510048"><ele>173.0</ele><time>2026-04-18T10:53:49Z</time></trkpt><trkpt lat="55.9688828795562" lon="22.174871741100187"><ele>173.0</ele><time>2026-04-18T10:53:50Z</time></trkpt><trkpt lat="55.96894227856635" lon="22.175178366427364"><ele>173.0</ele><time>2026-04-18T10:53:51Z</time></trkpt><trkpt lat="55.968986562028235" lon="22.175475630169696"><ele>173.0</ele><time>2026-04-18T10:53:52Z</time></trkpt><trkpt lat="55.96903921711836" lon="22.175836962662594"><ele>172.66666666666666</ele><time>2026-04-18T10:53:53Z</time></trkpt><trkpt lat="55.969105286262696" lon="22.176195722862303"><ele>172.33333333333334</ele><time>2026-04-18T10:53:54Z</time></trkpt><trkpt lat="55.9691649749762" lon="22.1765297048702"><ele>172.0</ele><time>2026-04-18T10:53:55Z</time></trkpt><trkpt lat="55.969220684985665" lon="22.176871919559538"><ele>171.33333333333334</ele><time>2026-04-18T10:53:56Z</time></trkpt><trkpt lat="55.969274268322515" lon="22.17723460427176"><ele>170.66666666666666</ele><time>2026-04-18T10:53:57Z</time></trkpt><trkpt lat="55.969336781327755" lon="22.177616465114404"><ele>170.0</ele><time>2026-04-18T10:53:58Z</time></trkpt><trkpt lat="55.96940343477604" lon="22.17801283707993"><ele>169.66666666666666</ele><time>2026-04-18T10:53:59Z</time></trkpt><trkpt lat="55.96946490444305" lon="22.17838474671007"><ele>169.33333333333334</ele><time>2026-04-18T10:54:00Z</time></trkpt><trkpt lat="55.9695183969746" lon="22.178744603118357"><ele>169.0</ele><time>2026-04-18T10:54:01Z</time></trkpt><trkpt lat="55.96957567504564" lon="22.179112497057464"><ele>168.66666666666669</ele><time>2026-04-18T10:54:02Z</time></trkpt><trkpt lat="55.9696353650171" lon="22.179503347169923"><ele>168.33333333333334</ele><time>2026-04-18T10:54:03Z</time></trkpt><trkpt lat="55.969699247673184" lon="22.17988327342168"><ele>168.0</ele><time>2026-04-18T10:54:04Z</time></trkpt><trkpt lat="55.96976381035059" lon="22.180254693582786"><ele>167.33333333333334</ele><time>2026-04-18T10:54:05Z</time></trkpt><trkpt lat="55.96982121581473" lon="22.180593186507547"><ele>166.66666666666669</ele><time>2026-04-18T10:54:06Z</time></trkpt><trkpt lat="55.969865589854365" lon="22.180892870969323"><ele>166.0</ele><time>2026-04-18T10:54:07Z</time></trkpt><trkpt lat="55.96990854588548" lon="22.181180282803112"><ele>165.66666666666669</ele><time>2026-04-18T10:54:08Z</time></trkpt><trkpt lat="55.96995233151302" lon="22.18145934613357"><ele>165.33333333333334</ele><time>2026-04-18T10:54:09Z</time></trkpt><trkpt lat="55.96999640716862" lon="22.18172114118317"><ele>165.0</ele><time>2026-04-18T10:54:10Z</time></trkpt><trkpt lat="55.9700371830872" lon="22.181966406085603"><ele>165.0</ele><time>2026-04-18T10:54:11Z</time></trkpt><trkpt lat="55.970076071339264" lon="22.182212626482865"><ele>165.0</ele><time>2026-04-18T10:54:12Z</time></trkpt><trkpt lat="55.97011668090841" lon="22.182450387538726"><ele>165.0</ele><time>2026-04-18T10:54:13Z</time></trkpt><trkpt lat="55.970154014232556" lon="22.18268891490957"><ele>165.0</ele><time>2026-04-18T10:54:14Z</time></trkpt><trkpt lat="55.97019797034356" lon="22.182957222267394"><ele>165.0</ele><time>2026-04-18T10:54:15Z</time></trkpt><trkpt lat="55.97024792531105" lon="22.183278802462663"><ele>165.0</ele><time>2026-04-18T10:54:16Z</time></trkpt><trkpt lat="55.970301949346194" lon="22.18362348515001"><ele>165.0</ele><time>2026-04-18T10:54:17Z</time></trkpt><trkpt lat="55.970358850675055" lon="22.1839679490459"><ele>164.66666666666666</ele><time>2026-04-18T10:54:18Z</time></trkpt><trkpt lat="55.970415131757996" lon="22.184318271137165"><ele>164.33333333333331</ele><time>2026-04-18T10:54:19Z</time></trkpt><trkpt lat="55.970472516934564" lon="22.18467536712543"><ele>164.0</ele><time>2026-04-18T10:54:20Z</time></trkpt><trkpt lat="55.970526307903896" lon="22.18503891659571"><ele>164.0</ele><time>2026-04-18T10:54:21Z</time></trkpt><trkpt lat="55.97058445514655" lon="22.185411544558644"><ele>164.0</ele><time>2026-04-18T10:54:22Z</time></trkpt><trkpt lat="55.97064285141258" lon="22.185785739416396"><ele>164.0</ele><time>2026-04-18T10:54:23Z</time></trkpt><trkpt lat="55.9707004455906" lon="22.18616561010833"><ele>165.0</ele><time>2026-04-18T10:54:24Z</time></trkpt><trkpt lat="55.97076043878314" lon="22.18654468539747"><ele>166.0</ele><time>2026-04-18T10:54:25Z</time></trkpt><trkpt lat="55.9708130426535" lon="22.186927501344798"><ele>167.0</ele><time>2026-04-18T10:54:26Z</time></trkpt><trkpt lat="55.97087562838702" lon="22.187315870733677"><ele>169.33333333333331</ele><time>2026-04-18T10:54:27Z</time></trkpt><trkpt lat="55.97093869587342" lon="22.187695668362114"><ele>171.66666666666666</ele><time>2026-04-18T10:54:28Z</time></trkpt><trkpt lat="55.97100053681147" lon="22.18808202353924"><ele>174.0</ele><time>2026-04-18T10:54:29Z</time></trkpt><trkpt lat="55.971062511937156" lon="22.188476066325926"><ele>174.0</ele><time>2026-04-18T10:54:30Z</time></trkpt><trkpt lat="55.9711237782479" lon="22.188857152392355"><ele>174.0</ele><time>2026-04-18T10:54:31Z</time></trkpt><trkpt lat="55.97118932537595" lon="22.18923701381096"><ele>174.0</ele><time>2026-04-18T10:54:32Z</time></trkpt><trkpt lat="55.97125784312018" lon="22.189604908442902"><ele>174.33333333333334</ele><time>2026-04-18T10:54:33Z</time></trkpt><trkpt lat="55.971315205589434" lon="22.189963425639778"><ele>174.66666666666669</ele><time>2026-04-18T10:54:34Z</time></trkpt><trkpt lat="55.97136856120088" lon="22.19032720942294"><ele>175.0</ele><time>2026-04-18T10:54:35Z</time></trkpt><trkpt lat="55.971423572322635" lon="22.19067253187131"><ele>175.0</ele><time>2026-04-18T10:54:36Z</time></trkpt><trkpt lat="55.97148119277581" lon="22.191018325256493"><ele>175.0</ele><time>2026-04-18T10:54:37Z</time></trkpt><trkpt lat="55.971536593835616" lon="22.191326177083752"><ele>175.0</ele><time>2026-04-18T10:54:38Z</time></trkpt><trkpt lat="55.971571968395374" lon="22.19162806101851"><ele>175.0</ele><time>2026-04-18T10:54:39Z</time></trkpt><trkpt lat="55.97163066951164" lon="22.19189179409372"><ele>175.0</ele><time>2026-04-18T10:54:40Z</time></trkpt><trkpt lat="55.97167385390491" lon="22.192158669846183"><ele>175.0</ele><time>2026-04-18T10:54:41Z</time></trkpt><trkpt lat="55.971714424275" lon="22.192422453983244"><ele>174.25</ele><time>2026-04-18T10:54:42Z</time></trkpt><trkpt lat="55.97175143336694" lon="22.192660051054084"><ele>173.5</ele><time>2026-04-18T10:54:43Z</time></trkpt><trkpt lat="55.971789035697796" lon="22.1928778316007"><ele>172.75</ele><time>2026-04-18T10:54:44Z</time></trkpt><trkpt lat="55.97182326963247" lon="22.193095670168717"><ele>172.0</ele><time>2026-04-18T10:54:45Z</time></trkpt><trkpt lat="55.97185331001167" lon="22.193319568172086"><ele>171.25</ele><time>2026-04-18T10:54:46Z</time></trkpt><trkpt lat="55.97188428128932" lon="22.193533000089214"><ele>170.5</ele><time>2026-04-18T10:54:47Z</time></trkpt><trkpt lat="55.9719202041944" lon="22.1937276572247"><ele>169.75</ele><time>2026-04-18T10:54:48Z</time></trkpt><trkpt lat="55.971960555662804" lon="22.19391213284142"><ele>169.0</ele><time>2026-04-18T10:54:49Z</time></trkpt><trkpt lat="55.97201128410163" lon="22.194097842646816"><ele>168.39999999999998</ele><time>2026-04-18T10:54:50Z</time></trkpt><trkpt lat="55.972073966320735" lon="22.19425529800465"><ele>167.8</ele><time>2026-04-18T10:54:51Z</time></trkpt><trkpt lat="55.97214038623522" lon="22.194381755114374"><ele>167.2</ele><time>2026-04-18T10:54:52Z</time></trkpt><trkpt lat="55.97220774058118" lon="22.194492939285325"><ele>166.60000000000002</ele><time>2026-04-18T10:54:53Z</time></trkpt><trkpt lat="55.972278675567644" lon="22.19460378667275"><ele>166.0</ele><time>2026-04-18T10:54:54Z</time></trkpt><trkpt lat="55.97234838186552" lon="22.194709034326067"><ele>166.0</ele><time>2026-04-18T10:54:55Z</time></trkpt><trkpt lat="55.97241440884554" lon="22.19480682079622"><ele>166.0</ele><time>2026-04-18T10:54:56Z</time></trkpt><trkpt lat="55.97247228347904" lon="22.1948886947377"><ele>166.0</ele><time>2026-04-18T10:54:57Z</time></trkpt><trkpt lat="55.97252406367681" lon="22.194963277409496"><ele>166.0</ele><time>2026-04-18T10:54:58Z</time></trkpt><trkpt lat="55.97260020224565" lon="22.195065688767496"><ele>166.0</ele><time>2026-04-18T10:55:00Z</time></trkpt><trkpt lat="55.97265353885002" lon="22.195140676500174"><ele>166.0</ele><time>2026-04-18T10:55:02Z</time></trkpt><trkpt lat="55.9727177329102" lon="22.195201786386146"><ele>165.5</ele><time>2026-04-18T10:55:04Z</time></trkpt><trkpt lat="55.972771820854064" lon="22.19530085849934"><ele>165.0</ele><time>2026-04-18T10:55:05Z</time></trkpt><trkpt lat="55.972863975230304" lon="22.195433267694987"><ele>164.5</ele><time>2026-04-18T10:55:06Z</time></trkpt><trkpt lat="55.97298989654389" lon="22.195612998981527"><ele>164.0</ele><time>2026-04-18T10:55:07Z</time></trkpt><trkpt lat="55.97314407306321" lon="22.19582171705547"><ele>163.66666666666666</ele><time>2026-04-18T10:55:08Z</time></trkpt><trkpt lat="55.97329015612455" lon="22.19606016014383"><ele>163.33333333333334</ele><time>2026-04-18T10:55:09Z</time></trkpt><trkpt lat="55.9734637137948" lon="22.196303951095846"><ele>163.0</ele><time>2026-04-18T10:55:10Z</time></trkpt><trkpt lat="55.97364915503161" lon="22.196554432748634"><ele>165.0</ele><time>2026-04-18T10:55:11Z</time></trkpt><trkpt lat="55.97382959265977" lon="22.19680690952004"><ele>167.0</ele><time>2026-04-18T10:55:12Z</time></trkpt><trkpt lat="55.974019179894874" lon="22.197068031357315"><ele>167.0</ele><time>2026-04-18T10:55:13Z</time></trkpt><trkpt lat="55.974215119276714" lon="22.197339958794757"><ele>167.0</ele><time>2026-04-18T10:55:14Z</time></trkpt><trkpt lat="55.9744167402219" lon="22.197620349641983"><ele>167.0</ele><time>2026-04-18T10:55:15Z</time></trkpt><trkpt lat="55.974620335766545" lon="22.19790001226832"><ele>167.0</ele><time>2026-04-18T10:55:16Z</time></trkpt><trkpt lat="55.97481417320352" lon="22.198165529072707"><ele>165.5</ele><time>2026-04-18T10:55:17Z</time></trkpt><trkpt lat="55.9750098722455" lon="22.1984247134608"><ele>164.0</ele><time>2026-04-18T10:55:18Z</time></trkpt><trkpt lat="55.97520614327016" lon="22.198676849540995"><ele>163.0</ele><time>2026-04-18T10:55:19Z</time></trkpt><trkpt lat="55.97539339299049" lon="22.198931680323977"><ele>162.0</ele><time>2026-04-18T10:55:20Z</time></trkpt><trkpt lat="55.97558853950399" lon="22.199194038917316"><ele>161.5</ele><time>2026-04-18T10:55:21Z</time></trkpt><trkpt lat="55.97579745918679" lon="22.199464773231846"><ele>161.0</ele><time>2026-04-18T10:55:22Z</time></trkpt><trkpt lat="55.976006024293966" lon="22.19973542052683"><ele>161.0</ele><time>2026-04-18T10:55:23Z</time></trkpt><trkpt lat="55.976200771233145" lon="22.200000113280282"><ele>161.0</ele><time>2026-04-18T10:55:24Z</time></trkpt><trkpt lat="55.97638505589642" lon="22.200254445456224"><ele>161.0</ele><time>2026-04-18T10:55:25Z</time></trkpt><trkpt lat="55.97656344215968" lon="22.20050070797148"><ele>161.0</ele><time>2026-04-18T10:55:26Z</time></trkpt><trkpt lat="55.97674164719915" lon="22.20074021920472"><ele>161.0</ele><time>2026-04-18T10:55:27Z</time></trkpt><trkpt lat="55.97692252471006" lon="22.200984733014348"><ele>162.5</ele><time>2026-04-18T10:55:28Z</time></trkpt><trkpt lat="55.97711103922226" lon="22.201243478483814"><ele>164.0</ele><time>2026-04-18T10:55:29Z</time></trkpt><trkpt lat="55.97729316507871" lon="22.201484201876543"><ele>164.33333333333331</ele><time>2026-04-18T10:55:30Z</time></trkpt><trkpt lat="55.977459858935575" lon="22.20171216458148"><ele>164.66666666666666</ele><time>2026-04-18T10:55:31Z</time></trkpt><trkpt lat="55.977598140929686" lon="22.20190908067393"><ele>165.0</ele><time>2026-04-18T10:55:32Z</time></trkpt><trkpt lat="55.977737347443984" lon="22.202113329311562"><ele>165.33333333333334</ele><time>2026-04-18T10:55:33Z</time></trkpt><trkpt lat="55.97787558623608" lon="22.202315152027364"><ele>165.66666666666669</ele><time>2026-04-18T10:55:34Z</time></trkpt><trkpt lat="55.97800954566731" lon="22.202504043929558"><ele>166.0</ele><time>2026-04-18T10:55:35Z</time></trkpt><trkpt lat="55.978134482885274" lon="22.202678804643313"><ele>166.0</ele><time>2026-04-18T10:55:36Z</time></trkpt><trkpt lat="55.978248738562534" lon="22.202837809853065"><ele>166.0</ele><time>2026-04-18T10:55:37Z</time></trkpt><trkpt lat="55.97835162278506" lon="22.202988067190848"><ele>166.0</ele><time>2026-04-18T10:55:38Z</time></trkpt><trkpt lat="55.97844204488972" lon="22.20312080190538"><ele>166.0</ele><time>2026-04-18T10:55:39Z</time></trkpt><trkpt lat="55.97852206603178" lon="22.203236935454996"><ele>166.0</ele><time>2026-04-18T10:55:40Z</time></trkpt><trkpt lat="55.97859053920049" lon="22.20333921057565"><ele>166.0</ele><time>2026-04-18T10:55:41Z</time></trkpt><trkpt lat="55.97864533510692" lon="22.20342473120836"><ele>166.0</ele><time>2026-04-18T10:55:42Z</time></trkpt><trkpt lat="55.97869267394429" lon="22.203499008426125"><ele>166.0</ele><time>2026-04-18T10:55:43Z</time></trkpt><trkpt lat="55.97878030364028" lon="22.203647575859122"><ele>166.0</ele><time>2026-04-18T10:55:45Z</time></trkpt><trkpt lat="55.978820458828736" lon="22.20375498914651"><ele>166.0</ele><time>2026-04-18T10:55:47Z</time></trkpt><trkpt lat="55.97888351351964" lon="22.203901094476436"><ele>165.75</ele><time>2026-04-18T10:55:54Z</time></trkpt><trkpt lat="55.97886088927668" lon="22.204154110557237"><ele>165.5</ele><time>2026-04-18T10:55:55Z</time></trkpt><trkpt lat="55.9788490451448" lon="22.204357491527905"><ele>165.25</ele><time>2026-04-18T10:55:56Z</time></trkpt><trkpt lat="55.978826985543584" lon="22.204554760776194"><ele>165.0</ele><time>2026-04-18T10:55:57Z</time></trkpt><trkpt lat="55.978811859149225" lon="22.20477607073598"><ele>164.5</ele><time>2026-04-18T10:55:58Z</time></trkpt><trkpt lat="55.97880272434959" lon="22.204994909342307"><ele>164.0</ele><time>2026-04-18T10:55:59Z</time></trkpt><trkpt lat="55.978796542876765" lon="22.205214275864037"><ele>163.5</ele><time>2026-04-18T10:56:00Z</time></trkpt><trkpt lat="55.9787874002119" lon="22.20543135605466"><ele>163.0</ele><time>2026-04-18T10:56:01Z</time></trkpt><trkpt lat="55.9787806125975" lon="22.205634806902008"><ele>162.4</ele><time>2026-04-18T10:56:02Z</time></trkpt><trkpt lat="55.978769453532784" lon="22.20581494268542"><ele>161.8</ele><time>2026-04-18T10:56:03Z</time></trkpt><trkpt lat="55.978758489813195" lon="22.205986322643618"><ele>161.2</ele><time>2026-04-18T10:56:04Z</time></trkpt><trkpt lat="55.978753525182945" lon="22.2061688875043"><ele>160.6</ele><time>2026-04-18T10:56:05Z</time></trkpt><trkpt lat="55.978747246551166" lon="22.2063679908441"><ele>160.0</ele><time>2026-04-18T10:56:06Z</time></trkpt><trkpt lat="55.97874013437061" lon="22.20657487285375"><ele>159.5</ele><time>2026-04-18T10:56:07Z</time></trkpt><trkpt lat="55.97872950397119" lon="22.206790267699635"><ele>159.0</ele><time>2026-04-18T10:56:08Z</time></trkpt><trkpt lat="55.97871999435486" lon="22.207032273571606"><ele>158.5</ele><time>2026-04-18T10:56:09Z</time></trkpt><trkpt lat="55.97871004475979" lon="22.2072956227342"><ele>158.0</ele><time>2026-04-18T10:56:10Z</time></trkpt><trkpt lat="55.97870095018385" lon="22.207542736803905"><ele>158.0</ele><time>2026-04-18T10:56:11Z</time></trkpt><trkpt lat="55.97868869645429" lon="22.207789658882003"><ele>158.0</ele><time>2026-04-18T10:56:12Z</time></trkpt><trkpt lat="55.97867683883804" lon="22.20802304805561"><ele>158.0</ele><time>2026-04-18T10:56:13Z</time></trkpt><trkpt lat="55.97866608516012" lon="22.208261178805188"><ele>158.0</ele><time>2026-04-18T10:56:14Z</time></trkpt><trkpt lat="55.97865453356104" lon="22.20850912645514"><ele>158.0</ele><time>2026-04-18T10:56:15Z</time></trkpt><trkpt lat="55.97864401756484" lon="22.20875991875364"><ele>158.0</ele><time>2026-04-18T10:56:16Z</time></trkpt><trkpt lat="55.97863878424146" lon="22.209011842381823"><ele>158.0</ele><time>2026-04-18T10:56:17Z</time></trkpt><trkpt lat="55.97863804461602" lon="22.20925692496598"><ele>158.0</ele><time>2026-04-18T10:56:18Z</time></trkpt><trkpt lat="55.97864003701521" lon="22.20949915227541"><ele>157.0</ele><time>2026-04-18T10:56:19Z</time></trkpt><trkpt lat="55.978642851037165" lon="22.209735475509813"><ele>156.0</ele><time>2026-04-18T10:56:20Z</time></trkpt><trkpt lat="55.97864701313744" lon="22.209969113393655"><ele>155.0</ele><time>2026-04-18T10:56:21Z</time></trkpt><trkpt lat="55.97865385079575" lon="22.210203173700943"><ele>154.0</ele><time>2026-04-18T10:56:22Z</time></trkpt><trkpt lat="55.97866192888504" lon="22.210433327109314"><ele>153.0</ele><time>2026-04-18T10:56:23Z</time></trkpt><trkpt lat="55.97866910556023" lon="22.210661376529234"><ele>152.0</ele><time>2026-04-18T10:56:24Z</time></trkpt><trkpt lat="55.978676484498806" lon="22.21089181142016"><ele>151.0</ele><time>2026-04-18T10:56:25Z</time></trkpt><trkpt lat="55.97868293451321" lon="22.21112703629707"><ele>150.0</ele><time>2026-04-18T10:56:26Z</time></trkpt><trkpt lat="55.9786955741407" lon="22.211366386171395"><ele>149.25</ele><time>2026-04-18T10:56:27Z</time></trkpt><trkpt lat="55.9787094734769" lon="22.211610658543634"><ele>148.5</ele><time>2026-04-18T10:56:28Z</time></trkpt><trkpt lat="55.97871781066914" lon="22.211864798158093"><ele>147.75</ele><time>2026-04-18T10:56:29Z</time></trkpt><trkpt lat="55.97872368524189" lon="22.212117042400198"><ele>147.0</ele><time>2026-04-18T10:56:30Z</time></trkpt><trkpt lat="55.978730860093435" lon="22.212366217831672"><ele>146.5</ele><time>2026-04-18T10:56:31Z</time></trkpt><trkpt lat="55.97873933879914" lon="22.212619144519785"><ele>146.0</ele><time>2026-04-18T10:56:32Z</time></trkpt><trkpt lat="55.97875286583259" lon="22.212872725936542"><ele>145.5</ele><time>2026-04-18T10:56:33Z</time></trkpt><trkpt lat="55.978763808329965" lon="22.213126290220202"><ele>145.0</ele><time>2026-04-18T10:56:34Z</time></trkpt><trkpt lat="55.97877324600652" lon="22.21337131907831"><ele>145.0</ele><time>2026-04-18T10:56:35Z</time></trkpt><trkpt lat="55.97878401314811" lon="22.213619593035293"><ele>145.0</ele><time>2026-04-18T10:56:36Z</time></trkpt><trkpt lat="55.97879536178693" lon="22.21386825745627"><ele>145.0</ele><time>2026-04-18T10:56:37Z</time></trkpt><trkpt lat="55.97880523425779" lon="22.214119693747342"><ele>145.0</ele><time>2026-04-18T10:56:38Z</time></trkpt><trkpt lat="55.97881607323854" lon="22.214369099322237"><ele>144.5</ele><time>2026-04-18T10:56:39Z</time></trkpt><trkpt lat="55.97882393816187" lon="22.214608887679823"><ele>144.0</ele><time>2026-04-18T10:56:40Z</time></trkpt><trkpt lat="55.97883422332236" lon="22.214861547359583"><ele>143.5</ele><time>2026-04-18T10:56:41Z</time></trkpt><trkpt lat="55.97884253480771" lon="22.215115395293182"><ele>143.0</ele><time>2026-04-18T10:56:42Z</time></trkpt><trkpt lat="55.97885563223253" lon="22.215371721214034"><ele>142.75</ele><time>2026-04-18T10:56:43Z</time></trkpt><trkpt lat="55.97886192110975" lon="22.215633124445922"><ele>142.5</ele><time>2026-04-18T10:56:44Z</time></trkpt><trkpt lat="55.978873580271035" lon="22.21589194470934"><ele>142.25</ele><time>2026-04-18T10:56:45Z</time></trkpt><trkpt lat="55.978883670385144" lon="22.216146744985135"><ele>142.0</ele><time>2026-04-18T10:56:46Z</time></trkpt><trkpt lat="55.97889261103868" lon="22.21639203182479"><ele>141.75</ele><time>2026-04-18T10:56:47Z</time></trkpt><trkpt lat="55.97889644141352" lon="22.216626333374688"><ele>141.5</ele><time>2026-04-18T10:56:48Z</time></trkpt><trkpt lat="55.97890729648238" lon="22.216859514776818"><ele>141.25</ele><time>2026-04-18T10:56:49Z</time></trkpt><trkpt lat="55.978919383071776" lon="22.217101580577367"><ele>141.0</ele><time>2026-04-18T10:56:50Z</time></trkpt><trkpt lat="55.97892584798352" lon="22.21734842149495"><ele>141.0</ele><time>2026-04-18T10:56:51Z</time></trkpt><trkpt lat="55.978932358798126" lon="22.217590537875836"><ele>141.0</ele><time>2026-04-18T10:56:52Z</time></trkpt><trkpt lat="55.97894469779936" lon="22.217837628933957"><ele>141.0</ele><time>2026-04-18T10:56:53Z</time></trkpt><trkpt lat="55.97895664021993" lon="22.21808472441948"><ele>141.0</ele><time>2026-04-18T10:56:54Z</time></trkpt><trkpt lat="55.97896547321675" lon="22.218328226593375"><ele>141.25</ele><time>2026-04-18T10:56:55Z</time></trkpt><trkpt lat="55.97897728413237" lon="22.21857346955298"><ele>141.5</ele><time>2026-04-18T10:56:56Z</time></trkpt><trkpt lat="55.97898940910785" lon="22.218795795849644"><ele>141.75</ele><time>2026-04-18T10:56:57Z</time></trkpt><trkpt lat="55.978997586511596" lon="22.218992402582067"><ele>142.0</ele><time>2026-04-18T10:56:58Z</time></trkpt><trkpt lat="55.97900460957849" lon="22.219165183480154"><ele>142.0</ele><time>2026-04-18T10:56:59Z</time></trkpt><trkpt lat="55.97901276305568" lon="22.219321581046753"><ele>142.0</ele><time>2026-04-18T10:57:00Z</time></trkpt><trkpt lat="55.979023958142996" lon="22.219465942198337"><ele>142.0</ele><time>2026-04-18T10:57:01Z</time></trkpt><trkpt lat="55.97903328885" lon="22.21961013208005"><ele>142.0</ele><time>2026-04-18T10:57:02Z</time></trkpt><trkpt lat="55.97904101762674" lon="22.219733286981516"><ele>142.0</ele><time>2026-04-18T10:57:03Z</time></trkpt><trkpt lat="55.97904682551972" lon="22.219906108911545"><ele>142.0</ele><time>2026-04-18T10:57:05Z</time></trkpt><trkpt lat="55.97906041695322" lon="22.2200632822811"><ele>141.79999999999998</ele><time>2026-04-18T10:57:13Z</time></trkpt><trkpt lat="55.979075488047016" lon="22.220312940946034"><ele>141.6</ele><time>2026-04-18T10:57:15Z</time></trkpt><trkpt lat="55.97908579450493" lon="22.22045299881369"><ele>141.39999999999998</ele><time>2026-04-18T10:57:16Z</time></trkpt><trkpt lat="55.97909669239196" lon="22.22061369547637"><ele>141.2</ele><time>2026-04-18T10:57:17Z</time></trkpt><trkpt lat="55.97910281743122" lon="22.220812989295393"><ele>141.0</ele><time>2026-04-18T10:57:18Z</time></trkpt><trkpt lat="55.97910651319828" lon="22.22102335261357"><ele>140.5</ele><time>2026-04-18T10:57:19Z</time></trkpt><trkpt lat="55.97911684050836" lon="22.221235924976373"><ele>140.0</ele><time>2026-04-18T10:57:20Z</time></trkpt><trkpt lat="55.97913151446526" lon="22.221481585444266"><ele>139.5</ele><time>2026-04-18T10:57:21Z</time></trkpt><trkpt lat="55.97914509195339" lon="22.221725396727077"><ele>139.0</ele><time>2026-04-18T10:57:22Z</time></trkpt><trkpt lat="55.979155866720795" lon="22.22197419122097"><ele>138.5</ele><time>2026-04-18T10:57:23Z</time></trkpt><trkpt lat="55.979168803667356" lon="22.222217850313985"><ele>138.0</ele><time>2026-04-18T10:57:24Z</time></trkpt><trkpt lat="55.97917938520213" lon="22.222444894144672"><ele>137.5</ele><time>2026-04-18T10:57:25Z</time></trkpt><trkpt lat="55.9791911415662" lon="22.22266750013915"><ele>137.0</ele><time>2026-04-18T10:57:26Z</time></trkpt><trkpt lat="55.9791998664587" lon="22.222887285411907"><ele>136.5</ele><time>2026-04-18T10:57:27Z</time></trkpt><trkpt lat="55.979206014765204" lon="22.223107043409428"><ele>136.0</ele><time>2026-04-18T10:57:28Z</time></trkpt><trkpt lat="55.979214374257346" lon="22.223324020171916"><ele>135.5</ele><time>2026-04-18T10:57:29Z</time></trkpt><trkpt lat="55.97922571796054" lon="22.22353643628046"><ele>135.0</ele><time>2026-04-18T10:57:30Z</time></trkpt><trkpt lat="55.97923876530415" lon="22.22375150370766"><ele>135.0</ele><time>2026-04-18T10:57:31Z</time></trkpt><trkpt lat="55.97925172122375" lon="22.223985287438826"><ele>135.0</ele><time>2026-04-18T10:57:32Z</time></trkpt><trkpt lat="55.97925950194998" lon="22.224233905127274"><ele>135.0</ele><time>2026-04-18T10:57:33Z</time></trkpt><trkpt lat="55.97926973516704" lon="22.22447189120351"><ele>135.0</ele><time>2026-04-18T10:57:34Z</time></trkpt><trkpt lat="55.97928180423421" lon="22.224703816828885"><ele>134.75</ele><time>2026-04-18T10:57:35Z</time></trkpt><trkpt lat="55.97929092010767" lon="22.22493568727144"><ele>134.5</ele><time>2026-04-18T10:57:36Z</time></trkpt><trkpt lat="55.979296879257554" lon="22.2251613208247"><ele>134.25</ele><time>2026-04-18T10:57:37Z</time></trkpt><trkpt lat="55.97930453328241" lon="22.225392090752532"><ele>134.0</ele><time>2026-04-18T10:57:38Z</time></trkpt><trkpt lat="55.97931492223718" lon="22.22563116866047"><ele>133.75</ele><time>2026-04-18T10:57:39Z</time></trkpt><trkpt lat="55.97932442776559" lon="22.22587421436677"><ele>133.5</ele><time>2026-04-18T10:57:40Z</time></trkpt><trkpt lat="55.97933044858292" lon="22.226100580354725"><ele>133.25</ele><time>2026-04-18T10:57:41Z</time></trkpt><trkpt lat="55.9793387984686" lon="22.22630606935195"><ele>133.0</ele><time>2026-04-18T10:57:42Z</time></trkpt><trkpt lat="55.97934620748029" lon="22.226501063156324"><ele>133.6</ele><time>2026-04-18T10:57:43Z</time></trkpt><trkpt lat="55.97935320621098" lon="22.22668805625776"><ele>134.20000000000002</ele><time>2026-04-18T10:57:44Z</time></trkpt><trkpt lat="55.97935726075595" lon="22.226857044402706"><ele>134.8</ele><time>2026-04-18T10:57:45Z</time></trkpt><trkpt lat="55.97936262434425" lon="22.227026691666484"><ele>135.4</ele><time>2026-04-18T10:57:46Z</time></trkpt><trkpt lat="55.97936853952901" lon="22.22719476331938"><ele>136.0</ele><time>2026-04-18T10:57:47Z</time></trkpt><trkpt lat="55.9793780849936" lon="22.2273794751692"><ele>136.25</ele><time>2026-04-18T10:57:48Z</time></trkpt><trkpt lat="55.97938666968787" lon="22.22758611167247"><ele>136.5</ele><time>2026-04-18T10:57:49Z</time></trkpt><trkpt lat="55.97939014417546" lon="22.227803005510836"><ele>136.75</ele><time>2026-04-18T10:57:50Z</time></trkpt><trkpt lat="55.97939684010934" lon="22.228021351590368"><ele>137.0</ele><time>2026-04-18T10:57:51Z</time></trkpt><trkpt lat="55.97940468728296" lon="22.228239472534497"><ele>136.0</ele><time>2026-04-18T10:57:52Z</time></trkpt><trkpt lat="55.979415170383895" lon="22.2284663209823"><ele>135.0</ele><time>2026-04-18T10:57:53Z</time></trkpt><trkpt lat="55.97943002617409" lon="22.228698945673642"><ele>134.0</ele><time>2026-04-18T10:57:54Z</time></trkpt><trkpt lat="55.97944515716522" lon="22.228930857477277"><ele>133.0</ele><time>2026-04-18T10:57:55Z</time></trkpt><trkpt lat="55.979461375056125" lon="22.22912909020111"><ele>132.75</ele><time>2026-04-18T10:57:56Z</time></trkpt><trkpt lat="55.97946756917339" lon="22.229327006615115"><ele>132.5</ele><time>2026-04-18T10:57:57Z</time></trkpt><trkpt lat="55.97947687177194" lon="22.229532096909125"><ele>132.25</ele><time>2026-04-18T10:57:58Z</time></trkpt><trkpt lat="55.97948679633133" lon="22.229744796085846"><ele>132.0</ele><time>2026-04-18T10:57:59Z</time></trkpt><trkpt lat="55.979502721499216" lon="22.229958755080435"><ele>132.0</ele><time>2026-04-18T10:58:00Z</time></trkpt><trkpt lat="55.979527349501105" lon="22.230162010804765"><ele>132.0</ele><time>2026-04-18T10:58:01Z</time></trkpt><trkpt lat="55.9795564899663" lon="22.230359668454636"><ele>132.0</ele><time>2026-04-18T10:58:02Z</time></trkpt><trkpt lat="55.979592459438194" lon="22.230556299861604"><ele>132.0</ele><time>2026-04-18T10:58:03Z</time></trkpt><trkpt lat="55.979632338676616" lon="22.23075562907281"><ele>132.0</ele><time>2026-04-18T10:58:04Z</time></trkpt><trkpt lat="55.97967869630278" lon="22.23095389676508"><ele>132.0</ele><time>2026-04-18T10:58:05Z</time></trkpt><trkpt lat="55.979726336175844" lon="22.23114371459457"><ele>132.0</ele><time>2026-04-18T10:58:06Z</time></trkpt><trkpt lat="55.97976422701036" lon="22.23131045282195"><ele>132.0</ele><time>2026-04-18T10:58:07Z</time></trkpt><trkpt lat="55.97980243294672" lon="22.231470199301423"><ele>132.0</ele><time>2026-04-18T10:58:08Z</time></trkpt><trkpt lat="55.97984305820086" lon="22.23163503749215"><ele>132.0</ele><time>2026-04-18T10:58:09Z</time></trkpt><trkpt lat="55.9798810514809" lon="22.231805951680347"><ele>132.0</ele><time>2026-04-18T10:58:10Z</time></trkpt><trkpt lat="55.97992176073025" lon="22.231980423175912"><ele>132.0</ele><time>2026-04-18T10:58:11Z</time></trkpt><trkpt lat="55.97996208947227" lon="22.232153269263225"><ele>132.0</ele><time>2026-04-18T10:58:12Z</time></trkpt><trkpt lat="55.980000960523505" lon="22.23232591897814"><ele>132.0</ele><time>2026-04-18T10:58:13Z</time></trkpt><trkpt lat="55.9800314762708" lon="22.232483943292543"><ele>132.0</ele><time>2026-04-18T10:58:14Z</time></trkpt><trkpt lat="55.98005671183662" lon="22.232628109421753"><ele>132.0</ele><time>2026-04-18T10:58:15Z</time></trkpt><trkpt lat="55.980063405851986" lon="22.23277256815356"><ele>132.0</ele><time>2026-04-18T10:58:16Z</time></trkpt><trkpt lat="55.98006093101739" lon="22.232911044786604"><ele>132.0</ele><time>2026-04-18T10:58:17Z</time></trkpt><trkpt lat="55.98005291243561" lon="22.233034708580373"><ele>132.0</ele><time>2026-04-18T10:58:18Z</time></trkpt><trkpt lat="55.980037247015495" lon="22.233148161412906"><ele>132.0</ele><time>2026-04-18T10:58:19Z</time></trkpt><trkpt lat="55.98002225195265" lon="22.233266708933495"><ele>132.0</ele><time>2026-04-18T10:58:20Z</time></trkpt><trkpt lat="55.98000964524623" lon="22.233437566671036"><ele>131.4</ele><time>2026-04-18T10:58:21.999Z</time></trkpt><trkpt lat="55.98000265286282" lon="22.233550416238494"><ele>130.79999999999998</ele><time>2026-04-18T10:58:24.999Z</time></trkpt><trkpt lat="55.97997593377804" lon="22.233679932669236"><ele>130.2</ele><time>2026-04-18T10:58:49Z</time></trkpt><trkpt lat="55.97995767358191" lon="22.2338544464542"><ele>129.6</ele><time>2026-04-18T10:58:52Z</time></trkpt><trkpt lat="55.97994262027426" lon="22.23402461610065"><ele>129.0</ele><time>2026-04-18T10:58:54Z</time></trkpt><trkpt lat="55.97992585680445" lon="22.234230779172307"><ele>129.0</ele><time>2026-04-18T10:58:56Z</time></trkpt><trkpt lat="55.979915984680126" lon="22.23435122103189"><ele>129.0</ele><time>2026-04-18T10:58:57Z</time></trkpt><trkpt lat="55.979901482703326" lon="22.23447035219387"><ele>129.0</ele><time>2026-04-18T10:58:58Z</time></trkpt><trkpt lat="55.97987845214758" lon="22.23468000715465"><ele>129.0</ele><time>2026-04-18T10:59:00Z</time></trkpt><trkpt lat="55.979869474930084" lon="22.234796527111058"><ele>129.0</ele><time>2026-04-18T10:59:01Z</time></trkpt><trkpt lat="55.979858961416106" lon="22.234914439854137"><ele>129.0</ele><time>2026-04-18T10:59:02Z</time></trkpt><trkpt lat="55.97985122529841" lon="22.235029674787246"><ele>129.2</ele><time>2026-04-18T10:59:03Z</time></trkpt><trkpt lat="55.979832184681186" lon="22.235256889070055"><ele>129.4</ele><time>2026-04-18T10:59:05Z</time></trkpt><trkpt lat="55.979824809054435" lon="22.235372890252243"><ele>129.6</ele><time>2026-04-18T10:59:06Z</time></trkpt><trkpt lat="55.979829261961264" lon="22.235574321402908"><ele>129.8</ele><time>2026-04-18T10:59:08Z</time></trkpt><trkpt lat="55.979841850287194" lon="22.235727561438424"><ele>130.0</ele><time>2026-04-18T10:59:10Z</time></trkpt><trkpt lat="55.97985388677791" lon="22.235851368381788"><ele>130.16666666666669</ele><time>2026-04-18T10:59:12Z</time></trkpt><trkpt lat="55.979866543365446" lon="22.235980470307698"><ele>130.33333333333334</ele><time>2026-04-18T10:59:15Z</time></trkpt><trkpt lat="55.97989318859669" lon="22.236193798484788"><ele>130.5</ele><time>2026-04-18T11:00:34Z</time></trkpt><trkpt lat="55.979912356624055" lon="22.236336704530952"><ele>130.66666666666666</ele><time>2026-04-18T11:00:35Z</time></trkpt><trkpt lat="55.9799348264687" lon="22.236480475829183"><ele>130.83333333333331</ele><time>2026-04-18T11:00:36Z</time></trkpt><trkpt lat="55.979957682114474" lon="22.23660479585698"><ele>131.0</ele><time>2026-04-18T11:00:37Z</time></trkpt><trkpt lat="55.97998496147561" lon="22.236721718664214"><ele>131.16666666666666</ele><time>2026-04-18T11:00:38Z</time></trkpt><trkpt lat="55.9800080173058" lon="22.236846149646066"><ele>131.33333333333331</ele><time>2026-04-18T11:00:39Z</time></trkpt><trkpt lat="55.98003367896306" lon="22.236987799493416"><ele>131.5</ele><time>2026-04-18T11:00:40Z</time></trkpt><trkpt lat="55.98006162670736" lon="22.237118077869745"><ele>131.66666666666666</ele><time>2026-04-18T11:00:41Z</time></trkpt><trkpt lat="55.98008151394778" lon="22.23725006950475"><ele>131.83333333333334</ele><time>2026-04-18T11:00:42Z</time></trkpt><trkpt lat="55.98010291777022" lon="22.237374852428527"><ele>132.0</ele><time>2026-04-18T11:00:43Z</time></trkpt><trkpt lat="55.98013089003281" lon="22.237506600139458"><ele>132.33333333333334</ele><time>2026-04-18T11:00:44Z</time></trkpt><trkpt lat="55.98015783385173" lon="22.237635601190135"><ele>132.66666666666666</ele><time>2026-04-18T11:00:45Z</time></trkpt><trkpt lat="55.98018059040332" lon="22.237765624808873"><ele>133.0</ele><time>2026-04-18T11:00:46Z</time></trkpt><trkpt lat="55.98020582176436" lon="22.237899163792633"><ele>133.33333333333331</ele><time>2026-04-18T11:00:47Z</time></trkpt><trkpt lat="55.98023043027114" lon="22.238049512737003"><ele>133.66666666666666</ele><time>2026-04-18T11:00:48Z</time></trkpt><trkpt lat="55.980254263098296" lon="22.238201599042856"><ele>134.0</ele><time>2026-04-18T11:00:49Z</time></trkpt><trkpt lat="55.98027787378133" lon="22.238342554345998"><ele>134.16666666666666</ele><time>2026-04-18T11:00:50Z</time></trkpt><trkpt lat="55.98029851815077" lon="22.238488944301558"><ele>134.33333333333331</ele><time>2026-04-18T11:00:51Z</time></trkpt><trkpt lat="55.98032489967568" lon="22.23864587489632"><ele>134.5</ele><time>2026-04-18T11:00:52Z</time></trkpt><trkpt lat="55.9803521870586" lon="22.23878017934703"><ele>134.66666666666666</ele><time>2026-04-18T11:00:53Z</time></trkpt><trkpt lat="55.980377685409664" lon="22.238915253426068"><ele>134.83333333333334</ele><time>2026-04-18T11:00:54Z</time></trkpt><trkpt lat="55.980398367159985" lon="22.239053098654242"><ele>135.0</ele><time>2026-04-18T11:00:55Z</time></trkpt><trkpt lat="55.98042188204476" lon="22.239192048177994"><ele>135.5</ele><time>2026-04-18T11:00:56Z</time></trkpt><trkpt lat="55.980452384806085" lon="22.23932659373856"><ele>136.0</ele><time>2026-04-18T11:00:57Z</time></trkpt><trkpt lat="55.98048079543906" lon="22.239472778486505"><ele>136.5</ele><time>2026-04-18T11:00:58Z</time></trkpt><trkpt lat="55.98050485497317" lon="22.239621596012565"><ele>137.0</ele><time>2026-04-18T11:00:59Z</time></trkpt><trkpt lat="55.980530160467794" lon="22.23977151458167"><ele>137.5</ele><time>2026-04-18T11:01:00Z</time></trkpt><trkpt lat="55.9805601249464" lon="22.239914594235252"><ele>138.0</ele><time>2026-04-18T11:01:01Z</time></trkpt><trkpt lat="55.98059325611591" lon="22.240072049163935"><ele>138.5</ele><time>2026-04-18T11:01:02Z</time></trkpt><trkpt lat="55.980624559085" lon="22.24023782012783"><ele>139.0</ele><time>2026-04-18T11:01:03Z</time></trkpt><trkpt lat="55.98065208871081" lon="22.24040621915239"><ele>139.5</ele><time>2026-04-18T11:01:04Z</time></trkpt><trkpt lat="55.98067932097372" lon="22.240560069016833"><ele>140.0</ele><time>2026-04-18T11:01:05Z</time></trkpt><trkpt lat="55.98070571233442" lon="22.240697909455555"><ele>140.5</ele><time>2026-04-18T11:01:06Z</time></trkpt><trkpt lat="55.98072494175905" lon="22.24082606084763"><ele>141.0</ele><time>2026-04-18T11:01:07Z</time></trkpt><trkpt lat="55.98074946740626" lon="22.240942529134646"><ele>141.33333333333334</ele><time>2026-04-18T11:01:08Z</time></trkpt><trkpt lat="55.980770516014196" lon="22.241050856249775"><ele>141.66666666666666</ele><time>2026-04-18T11:01:09Z</time></trkpt><trkpt lat="55.98079304552113" lon="22.241174566433067"><ele>142.0</ele><time>2026-04-18T11:01:11Z</time></trkpt><trkpt lat="55.98080561805691" lon="22.241286633144377"><ele>142.33333333333331</ele><time>2026-04-18T11:01:17Z</time></trkpt><trkpt lat="55.98083613276257" lon="22.241461768708504"><ele>142.66666666666666</ele><time>2026-04-18T11:01:22Z</time></trkpt><trkpt lat="55.98086039307244" lon="22.2416133732214"><ele>143.0</ele><time>2026-04-18T11:01:23Z</time></trkpt><trkpt lat="55.980894891541354" lon="22.241776208345016"><ele>144.0</ele><time>2026-04-18T11:01:24Z</time></trkpt><trkpt lat="55.980929074378146" lon="22.242003009730436"><ele>145.0</ele><time>2026-04-18T11:01:25Z</time></trkpt><trkpt lat="55.98098140278446" lon="22.24221776096473"><ele>146.0</ele><time>2026-04-18T11:01:26Z</time></trkpt><trkpt lat="55.98101232960505" lon="22.24240055100479"><ele>147.0</ele><time>2026-04-18T11:01:27Z</time></trkpt><trkpt lat="55.981045756024315" lon="22.242574053781738"><ele>147.0</ele><time>2026-04-18T11:01:28Z</time></trkpt><trkpt lat="55.981076386643046" lon="22.242742522974794"><ele>147.0</ele><time>2026-04-18T11:01:29Z</time></trkpt><trkpt lat="55.98110622818189" lon="22.242902691248247"><ele>147.0</ele><time>2026-04-18T11:01:30Z</time></trkpt><trkpt lat="55.98113513525097" lon="22.243068476918502"><ele>147.0</ele><time>2026-04-18T11:01:31Z</time></trkpt><trkpt lat="55.98116660396766" lon="22.24324037352374"><ele>147.0</ele><time>2026-04-18T11:01:32Z</time></trkpt><trkpt lat="55.981197383063595" lon="22.24340495664931"><ele>147.2</ele><time>2026-04-18T11:01:33Z</time></trkpt><trkpt lat="55.98123247138806" lon="22.243573069601855"><ele>147.39999999999998</ele><time>2026-04-18T11:01:34Z</time></trkpt><trkpt lat="55.98126141465333" lon="22.243733447413913"><ele>147.60000000000002</ele><time>2026-04-18T11:01:35Z</time></trkpt><trkpt lat="55.98129347874956" lon="22.243900291446533"><ele>147.8</ele><time>2026-04-18T11:01:36Z</time></trkpt><trkpt lat="55.98131884718945" lon="22.244041874558107"><ele>148.0</ele><time>2026-04-18T11:01:37Z</time></trkpt><trkpt lat="55.981337136862116" lon="22.244176020961167"><ele>148.0</ele><time>2026-04-18T11:01:38Z</time></trkpt><trkpt lat="55.98137618337487" lon="22.244404584586746"><ele>148.0</ele><time>2026-04-18T11:01:40Z</time></trkpt><trkpt lat="55.98139646740097" lon="22.244529728756522"><ele>148.0</ele><time>2026-04-18T11:01:41Z</time></trkpt><trkpt lat="55.981418854816404" lon="22.24467033557228"><ele>148.0</ele><time>2026-04-18T11:01:42Z</time></trkpt><trkpt lat="55.98143983190181" lon="22.24479072702827"><ele>148.0</ele><time>2026-04-18T11:01:43Z</time></trkpt><trkpt lat="55.98145743610128" lon="22.24493102987118"><ele>148.0</ele><time>2026-04-18T11:01:44Z</time></trkpt><trkpt lat="55.98147835274382" lon="22.245064059763216"><ele>147.83333333333334</ele><time>2026-04-18T11:01:45Z</time></trkpt><trkpt lat="55.98149822831433" lon="22.245201481138647"><ele>147.66666666666669</ele><time>2026-04-18T11:01:46Z</time></trkpt><trkpt lat="55.98152137467657" lon="22.24533814761642"><ele>147.5</ele><time>2026-04-18T11:01:47Z</time></trkpt><trkpt lat="55.981551149699186" lon="22.245478320947598"><ele>147.33333333333334</ele><time>2026-04-18T11:01:48Z</time></trkpt><trkpt lat="55.9815750845705" lon="22.24562661330866"><ele>147.16666666666666</ele><time>2026-04-18T11:01:49Z</time></trkpt><trkpt lat="55.981599088285066" lon="22.24577819122248"><ele>147.0</ele><time>2026-04-18T11:01:50Z</time></trkpt><trkpt lat="55.98162824279484" lon="22.24591057186758"><ele>146.66666666666666</ele><time>2026-04-18T11:01:51Z</time></trkpt><trkpt lat="55.981660942992974" lon="22.246040493544303"><ele>146.33333333333334</ele><time>2026-04-18T11:01:52Z</time></trkpt><trkpt lat="55.98169152173531" lon="22.246164844290337"><ele>146.0</ele><time>2026-04-18T11:01:53Z</time></trkpt><trkpt lat="55.98171787374632" lon="22.246285544973652"><ele>145.66666666666669</ele><time>2026-04-18T11:01:54Z</time></trkpt><trkpt lat="55.98175971389388" lon="22.246425138404124"><ele>145.33333333333334</ele><time>2026-04-18T11:01:55Z</time></trkpt><trkpt lat="55.98180204148884" lon="22.246554929258114"><ele>145.0</ele><time>2026-04-18T11:01:56Z</time></trkpt><trkpt lat="55.98184857578232" lon="22.246680519877607"><ele>145.0</ele><time>2026-04-18T11:01:57Z</time></trkpt><trkpt lat="55.98189134991109" lon="22.246804589209468"><ele>145.0</ele><time>2026-04-18T11:01:58Z</time></trkpt><trkpt lat="55.981934536293714" lon="22.246925035618585"><ele>145.0</ele><time>2026-04-18T11:01:59Z</time></trkpt><trkpt lat="55.9819803030468" lon="22.247056059965583"><ele>145.0</ele><time>2026-04-18T11:02:00Z</time></trkpt><trkpt lat="55.982024530726896" lon="22.247191264008617"><ele>145.0</ele><time>2026-04-18T11:02:01Z</time></trkpt><trkpt lat="55.982076804942" lon="22.247325615907197"><ele>145.0</ele><time>2026-04-18T11:02:02Z</time></trkpt><trkpt lat="55.98213221682575" lon="22.24744846316872"><ele>145.0</ele><time>2026-04-18T11:02:03Z</time></trkpt><trkpt lat="55.98217609696129" lon="22.24757633103658"><ele>145.0</ele><time>2026-04-18T11:02:04Z</time></trkpt><trkpt lat="55.98222017819366" lon="22.247700846987758"><ele>145.0</ele><time>2026-04-18T11:02:05Z</time></trkpt><trkpt lat="55.98226390352824" lon="22.247823737208964"><ele>145.0</ele><time>2026-04-18T11:02:06Z</time></trkpt><trkpt lat="55.98231400357474" lon="22.247947117275075"><ele>145.0</ele><time>2026-04-18T11:02:07Z</time></trkpt><trkpt lat="55.982362743856505" lon="22.248072473083447"><ele>145.0</ele><time>2026-04-18T11:02:08Z</time></trkpt><trkpt lat="55.982409451653304" lon="22.24818651094096"><ele>143.5</ele><time>2026-04-18T11:02:09Z</time></trkpt><trkpt lat="55.98245730775291" lon="22.248304849645475"><ele>142.0</ele><time>2026-04-18T11:02:10Z</time></trkpt><trkpt lat="55.98250575779149" lon="22.24841523872994"><ele>140.5</ele><time>2026-04-18T11:02:11Z</time></trkpt><trkpt lat="55.982555986975214" lon="22.248532616056174"><ele>139.0</ele><time>2026-04-18T11:02:12Z</time></trkpt><trkpt lat="55.98260111054021" lon="22.24865990795976"><ele>137.5</ele><time>2026-04-18T11:02:13Z</time></trkpt><trkpt lat="55.98265371011188" lon="22.24877655243994"><ele>136.0</ele><time>2026-04-18T11:02:14Z</time></trkpt><trkpt lat="55.982702951981494" lon="22.248886683558226"><ele>135.4</ele><time>2026-04-18T11:02:15Z</time></trkpt><trkpt lat="55.98275459716179" lon="22.2490091967088"><ele>134.8</ele><time>2026-04-18T11:02:16Z</time></trkpt><trkpt lat="55.98281085499804" lon="22.24914617126579"><ele>134.20000000000002</ele><time>2026-04-18T11:02:17Z</time></trkpt><trkpt lat="55.98288016701652" lon="22.249317842920718"><ele>133.6</ele><time>2026-04-18T11:02:18Z</time></trkpt><trkpt lat="55.98294935175651" lon="22.249465147746154"><ele>133.0</ele><time>2026-04-18T11:02:19Z</time></trkpt><trkpt lat="55.98300025751361" lon="22.24959421453895"><ele>133.0</ele><time>2026-04-18T11:02:20Z</time></trkpt><trkpt lat="55.98305205745135" lon="22.249705101343555"><ele>133.0</ele><time>2026-04-18T11:02:21Z</time></trkpt><trkpt lat="55.983107466334395" lon="22.249817584429348"><ele>133.0</ele><time>2026-04-18T11:02:22Z</time></trkpt><trkpt lat="55.9831546521047" lon="22.249949423465296"><ele>133.0</ele><time>2026-04-18T11:02:23Z</time></trkpt><trkpt lat="55.983210458167676" lon="22.250073827018277"><ele>133.0</ele><time>2026-04-18T11:02:24Z</time></trkpt><trkpt lat="55.983265529756224" lon="22.250197855507764"><ele>133.0</ele><time>2026-04-18T11:02:25Z</time></trkpt><trkpt lat="55.983315290613255" lon="22.25031713180339"><ele>133.16666666666669</ele><time>2026-04-18T11:02:26Z</time></trkpt><trkpt lat="55.98336729743039" lon="22.25044331626625"><ele>133.33333333333334</ele><time>2026-04-18T11:02:27Z</time></trkpt><trkpt lat="55.98340852965581" lon="22.25056317637015"><ele>133.5</ele><time>2026-04-18T11:02:28Z</time></trkpt><trkpt lat="55.983448796239166" lon="22.250692689457633"><ele>133.66666666666666</ele><time>2026-04-18T11:02:29Z</time></trkpt><trkpt lat="55.983483227057796" lon="22.25083332730108"><ele>133.83333333333331</ele><time>2026-04-18T11:02:30Z</time></trkpt><trkpt lat="55.98347369191541" lon="22.25099361660858"><ele>134.0</ele><time>2026-04-18T11:02:31Z</time></trkpt><trkpt lat="55.983472285281316" lon="22.25112073506512"><ele>134.0</ele><time>2026-04-18T11:02:32Z</time></trkpt><trkpt lat="55.98348175838726" lon="22.25125062185082"><ele>134.0</ele><time>2026-04-18T11:02:32.999Z</time></trkpt><trkpt lat="55.983506274581636" lon="22.251382778183544"><ele>134.0</ele><time>2026-04-18T11:02:33.999Z</time></trkpt><trkpt lat="55.98350650909991" lon="22.251522405946204"><ele>134.0</ele><time>2026-04-18T11:02:34.999Z</time></trkpt><trkpt lat="55.98351333435588" lon="22.25166311723763"><ele>134.0</ele><time>2026-04-18T11:02:35.999Z</time></trkpt><trkpt lat="55.98351474792261" lon="22.251799231856076"><ele>134.0</ele><time>2026-04-18T11:02:36.999Z</time></trkpt><trkpt lat="55.983515659172625" lon="22.2519307736851"><ele>134.0</ele><time>2026-04-18T11:02:37.999Z</time></trkpt><trkpt lat="55.98351748174099" lon="22.252056669428438"><ele>134.0</ele><time>2026-04-18T11:02:38.999Z</time></trkpt><trkpt lat="55.98351999132682" lon="22.252188709501148"><ele>134.0</ele><time>2026-04-18T11:02:39.999Z</time></trkpt><trkpt lat="55.983519895986866" lon="22.252307725943105"><ele>134.0</ele><time>2026-04-18T11:02:40.999Z</time></trkpt><trkpt lat="55.98351910038893" lon="22.252453991776466"><ele>134.0</ele><time>2026-04-18T11:02:41.999Z</time></trkpt><trkpt lat="55.98351467718952" lon="22.252591128180267"><ele>134.0</ele><time>2026-04-18T11:02:42.999Z</time></trkpt><trkpt lat="55.98351284014328" lon="22.25272563789849"><ele>134.0</ele><time>2026-04-18T11:02:43.999Z</time></trkpt><trkpt lat="55.983510362680576" lon="22.252854808225774"><ele>134.4</ele><time>2026-04-18T11:02:44.999Z</time></trkpt><trkpt lat="55.98351310761308" lon="22.252979531871087"><ele>134.8</ele><time>2026-04-18T11:02:46Z</time></trkpt><trkpt lat="55.98350631300075" lon="22.2531349579051"><ele>135.2</ele><time>2026-04-18T11:02:48Z</time></trkpt><trkpt lat="55.98350045769787" lon="22.25326188606536"><ele>135.6</ele><time>2026-04-18T11:02:54Z</time></trkpt><trkpt lat="55.98350621274325" lon="22.253499589845656"><ele>136.0</ele><time>2026-04-18T11:02:56Z</time></trkpt><trkpt lat="55.98350885187165" lon="22.253714524468432"><ele>136.8</ele><time>2026-04-18T11:02:58Z</time></trkpt><trkpt lat="55.98350863136243" lon="22.2538875461978"><ele>137.6</ele><time>2026-04-18T11:03:00Z</time></trkpt><trkpt lat="55.98350978620795" lon="22.254005542667272"><ele>138.4</ele><time>2026-04-18T11:03:02Z</time></trkpt><trkpt lat="55.983516785650075" lon="22.254161758833447"><ele>139.2</ele><time>2026-04-18T11:03:25Z</time></trkpt><trkpt lat="55.983517220888906" lon="22.254284994197484"><ele>140.0</ele><time>2026-04-18T11:03:27Z</time></trkpt><trkpt lat="55.983559830949" lon="22.25456015352321"><ele>140.75</ele><time>2026-04-18T11:03:29Z</time></trkpt><trkpt lat="55.98360140739533" lon="22.254733403934456"><ele>141.5</ele><time>2026-04-18T11:03:30Z</time></trkpt><trkpt lat="55.9836520710872" lon="22.254952305845638"><ele>142.25</ele><time>2026-04-18T11:03:31Z</time></trkpt><trkpt lat="55.98367177233379" lon="22.255205668928213"><ele>143.0</ele><time>2026-04-18T11:03:32Z</time></trkpt><trkpt lat="55.98368739577916" lon="22.255481282377396"><ele>143.75</ele><time>2026-04-18T11:03:33Z</time></trkpt><trkpt lat="55.983706118950096" lon="22.255754257214317"><ele>144.5</ele><time>2026-04-18T11:03:34Z</time></trkpt><trkpt lat="55.98370917099637" lon="22.25596155379183"><ele>145.25</ele><time>2026-04-18T11:03:35Z</time></trkpt><trkpt lat="55.98370998378246" lon="22.25611461678333"><ele>146.0</ele><time>2026-04-18T11:03:36Z</time></trkpt><trkpt lat="55.98369950659244" lon="22.2562874267525"><ele>146.0</ele><time>2026-04-18T11:03:38Z</time></trkpt><trkpt lat="55.983820224857745" lon="22.256339476713872"><ele>146.0</ele><time>2026-04-18T11:03:41Z</time></trkpt><trkpt lat="55.98390537320176" lon="22.256341460841696"><ele>146.0</ele><time>2026-04-18T11:03:42Z</time></trkpt><trkpt lat="55.984018486349676" lon="22.256335070477032"><ele>146.0</ele><time>2026-04-18T11:03:43Z</time></trkpt><trkpt lat="55.9841034199363" lon="22.256342671613005"><ele>146.0</ele><time>2026-04-18T11:03:44Z</time></trkpt><trkpt lat="55.984184145031655" lon="22.25633762011152"><ele>145.5</ele><time>2026-04-18T11:03:45Z</time></trkpt><trkpt lat="55.984268185001625" lon="22.256332161666194"><ele>145.0</ele><time>2026-04-18T11:03:46Z</time></trkpt><trkpt lat="55.98435199804034" lon="22.256351571053564"><ele>144.5</ele><time>2026-04-18T11:03:47Z</time></trkpt><trkpt lat="55.98443552989164" lon="22.256355524400302"><ele>144.0</ele><time>2026-04-18T11:03:48Z</time></trkpt><trkpt lat="55.984515870921165" lon="22.25635932673449"><ele>143.5</ele><time>2026-04-18T11:03:49Z</time></trkpt><trkpt lat="55.98460122823248" lon="22.256335070878983"><ele>143.0</ele><time>2026-04-18T11:03:50Z</time></trkpt><trkpt lat="55.98468530958987" lon="22.2563542848562"><ele>143.0</ele><time>2026-04-18T11:03:51Z</time></trkpt><trkpt lat="55.98476800275582" lon="22.256361296511574"><ele>143.0</ele><time>2026-04-18T11:03:52Z</time></trkpt><trkpt lat="55.984847784783966" lon="22.2563660485595"><ele>143.0</ele><time>2026-04-18T11:03:53Z</time></trkpt><trkpt lat="55.98492770011393" lon="22.256371169472057"><ele>143.0</ele><time>2026-04-18T11:03:54Z</time></trkpt><trkpt lat="55.985010088735585" lon="22.256368991984107"><ele>143.0</ele><time>2026-04-18T11:03:55Z</time></trkpt><trkpt lat="55.98509187109144" lon="22.256371870420637"><ele>143.0</ele><time>2026-04-18T11:03:56Z</time></trkpt><trkpt lat="55.98517227975875" lon="22.256373956693178"><ele>142.66666666666666</ele><time>2026-04-18T11:03:57Z</time></trkpt><trkpt lat="55.985239770355186" lon="22.256379510526212"><ele>142.33333333333331</ele><time>2026-04-18T11:03:58Z</time></trkpt><trkpt lat="55.98532086004749" lon="22.256387887112957"><ele>142.0</ele><time>2026-04-18T11:04:00Z</time></trkpt><trkpt lat="55.98539299067016" lon="22.256380599006775"><ele>141.66666666666666</ele><time>2026-04-18T11:04:04Z</time></trkpt><trkpt lat="55.98546044258752" lon="22.256383700689288"><ele>141.33333333333334</ele><time>2026-04-18T11:04:06Z</time></trkpt><trkpt lat="55.98553806337394" lon="22.25638076189048"><ele>141.0</ele><time>2026-04-18T11:04:08Z</time></trkpt><trkpt lat="55.98564574273609" lon="22.25641006946701"><ele>141.0</ele><time>2026-04-18T11:04:10Z</time></trkpt><trkpt lat="55.98571688084462" lon="22.256389595256024"><ele>141.0</ele><time>2026-04-18T11:04:11Z</time></trkpt><trkpt lat="55.98579714359178" lon="22.256400301276873"><ele>141.0</ele><time>2026-04-18T11:04:12Z</time></trkpt><trkpt lat="55.98588613088714" lon="22.256409908315355"><ele>141.0</ele><time>2026-04-18T11:04:13Z</time></trkpt><trkpt lat="55.98595998072541" lon="22.2564139602465"><ele>141.0</ele><time>2026-04-18T11:04:14Z</time></trkpt><trkpt lat="55.98604860948805" lon="22.256416966700847"><ele>141.0</ele><time>2026-04-18T11:04:15Z</time></trkpt><trkpt lat="55.986139578796454" lon="22.25642065961314"><ele>141.0</ele><time>2026-04-18T11:04:16Z</time></trkpt><trkpt lat="55.986228639734634" lon="22.25642155045709"><ele>141.0</ele><time>2026-04-18T11:04:17Z</time></trkpt><trkpt lat="55.98631790418301" lon="22.256426463663175"><ele>141.0</ele><time>2026-04-18T11:04:18Z</time></trkpt><trkpt lat="55.986405491406" lon="22.25643261609246"><ele>141.0</ele><time>2026-04-18T11:04:19Z</time></trkpt><trkpt lat="55.98649299952168" lon="22.256441223161797"><ele>141.0</ele><time>2026-04-18T11:04:20Z</time></trkpt><trkpt lat="55.98657821900194" lon="22.25644524732047"><ele>141.0</ele><time>2026-04-18T11:04:21Z</time></trkpt><trkpt lat="55.98665602398607" lon="22.25644703884181"><ele>141.0</ele><time>2026-04-18T11:04:22Z</time></trkpt><trkpt lat="55.9867252658789" lon="22.256461535902584"><ele>141.0</ele><time>2026-04-18T11:04:23Z</time></trkpt><trkpt lat="55.986801431240586" lon="22.2564555156062"><ele>141.0</ele><time>2026-04-18T11:04:25Z</time></trkpt><trkpt lat="55.98687686855999" lon="22.25661598793319"><ele>141.0</ele><time>2026-04-18T11:04:30Z</time></trkpt><trkpt lat="55.98687575610836" lon="22.25678067527967"><ele>141.0</ele><time>2026-04-18T11:04:31Z</time></trkpt><trkpt lat="55.9868727552878" lon="22.256943491497623"><ele>141.0</ele><time>2026-04-18T11:04:32Z</time></trkpt><trkpt lat="55.9868791801682" lon="22.257107705810117"><ele>141.0</ele><time>2026-04-18T11:04:33Z</time></trkpt><trkpt lat="55.98688932488878" lon="22.257255546555214"><ele>141.0</ele><time>2026-04-18T11:04:34Z</time></trkpt><trkpt lat="55.98690131055818" lon="22.257424840417464"><ele>141.0</ele><time>2026-04-18T11:04:35Z</time></trkpt><trkpt lat="55.98690740224457" lon="22.257592094413308"><ele>141.0</ele><time>2026-04-18T11:04:36Z</time></trkpt><trkpt lat="55.98691102510052" lon="22.25776512350272"><ele>141.0</ele><time>2026-04-18T11:04:37Z</time></trkpt><trkpt lat="55.98692018601904" lon="22.257938734939337"><ele>140.8</ele><time>2026-04-18T11:04:38Z</time></trkpt><trkpt lat="55.986932140441965" lon="22.258111771127574"><ele>140.6</ele><time>2026-04-18T11:04:39Z</time></trkpt><trkpt lat="55.98694037418023" lon="22.258283295971882"><ele>140.4</ele><time>2026-04-18T11:04:40Z</time></trkpt><trkpt lat="55.98694474669567" lon="22.258452463001113"><ele>140.2</ele><time>2026-04-18T11:04:41Z</time></trkpt><trkpt lat="55.986956024520644" lon="22.25862186231183"><ele>140.0</ele><time>2026-04-18T11:04:42Z</time></trkpt><trkpt lat="55.98696036745945" lon="22.25876019230498"><ele>139.8</ele><time>2026-04-18T11:04:43Z</time></trkpt><trkpt lat="55.98697110299301" lon="22.25891517000903"><ele>139.6</ele><time>2026-04-18T11:04:45Z</time></trkpt><trkpt lat="55.9869900977522" lon="22.25907382913184"><ele>139.4</ele><time>2026-04-18T11:04:48Z</time></trkpt><trkpt lat="55.98700438428905" lon="22.25922603228147"><ele>139.2</ele><time>2026-04-18T11:04:49Z</time></trkpt><trkpt lat="55.987019752440915" lon="22.25940857493174"><ele>139.0</ele><time>2026-04-18T11:04:50Z</time></trkpt><trkpt lat="55.98703774483334" lon="22.259570582111962"><ele>139.0</ele><time>2026-04-18T11:04:51Z</time></trkpt><trkpt lat="55.98705589590671" lon="22.25973985214772"><ele>139.0</ele><time>2026-04-18T11:04:52Z</time></trkpt><trkpt lat="55.98708190928534" lon="22.25994882366398"><ele>139.0</ele><time>2026-04-18T11:04:53Z</time></trkpt><trkpt lat="55.98710192166711" lon="22.26019140152388"><ele>139.0</ele><time>2026-04-18T11:04:54Z</time></trkpt><trkpt lat="55.98712469818114" lon="22.26044187106826"><ele>139.66666666666669</ele><time>2026-04-18T11:04:55Z</time></trkpt><trkpt lat="55.98716815459695" lon="22.260759232088557"><ele>140.33333333333334</ele><time>2026-04-18T11:04:56Z</time></trkpt><trkpt lat="55.9872055873275" lon="22.261055676919923"><ele>141.0</ele><time>2026-04-18T11:04:57Z</time></trkpt><trkpt lat="55.98722970661563" lon="22.26129012737888"><ele>141.2</ele><time>2026-04-18T11:04:58Z</time></trkpt><trkpt lat="55.98724519676515" lon="22.261457113808298"><ele>141.39999999999998</ele><time>2026-04-18T11:04:59Z</time></trkpt><trkpt lat="55.98725823475638" lon="22.26157512857275"><ele>141.6</ele><time>2026-04-18T11:05:01Z</time></trkpt><trkpt lat="55.987269499592266" lon="22.261740075887165"><ele>141.79999999999998</ele><time>2026-04-18T11:05:09Z</time></trkpt><trkpt lat="55.98729328914348" lon="22.261953071311464"><ele>142.0</ele><time>2026-04-18T11:05:11Z</time></trkpt><trkpt lat="55.98730914769834" lon="22.262109334978614"><ele>142.2</ele><time>2026-04-18T11:05:12Z</time></trkpt><trkpt lat="55.987336965265285" lon="22.262289727614522"><ele>142.39999999999998</ele><time>2026-04-18T11:05:13Z</time></trkpt><trkpt lat="55.987357788589314" lon="22.262472293345972"><ele>142.60000000000002</ele><time>2026-04-18T11:05:14Z</time></trkpt><trkpt lat="55.98737985178748" lon="22.262659096801247"><ele>142.8</ele><time>2026-04-18T11:05:15Z</time></trkpt><trkpt lat="55.98740169470554" lon="22.26283835807708"><ele>143.0</ele><time>2026-04-18T11:05:16Z</time></trkpt><trkpt lat="55.98742106991698" lon="22.26301005115304"><ele>143.33333333333331</ele><time>2026-04-18T11:05:17Z</time></trkpt><trkpt lat="55.9874360183108" lon="22.26316704426869"><ele>143.66666666666666</ele><time>2026-04-18T11:05:18Z</time></trkpt><trkpt lat="55.987452868298014" lon="22.263303390671975"><ele>144.0</ele><time>2026-04-18T11:05:19Z</time></trkpt><trkpt lat="55.98746883820897" lon="22.263425793642448"><ele>144.33333333333334</ele><time>2026-04-18T11:05:20Z</time></trkpt><trkpt lat="55.9874862887256" lon="22.263557141440344"><ele>144.66666666666669</ele><time>2026-04-18T11:05:21Z</time></trkpt><trkpt lat="55.98750346998542" lon="22.26368669510889"><ele>145.0</ele><time>2026-04-18T11:05:22Z</time></trkpt><trkpt lat="55.98752373413537" lon="22.263798710332"><ele>144.16666666666669</ele><time>2026-04-18T11:05:23Z</time></trkpt><trkpt lat="55.98753776230678" lon="22.26391280740664"><ele>143.33333333333334</ele><time>2026-04-18T11:05:24Z</time></trkpt><trkpt lat="55.98755074349939" lon="22.264028025049825"><ele>142.5</ele><time>2026-04-18T11:05:25Z</time></trkpt><trkpt lat="55.98756787775265" lon="22.264182298928972"><ele>141.66666666666666</ele><time>2026-04-18T11:05:26Z</time></trkpt><trkpt lat="55.98758467222206" lon="22.26433892581018"><ele>140.83333333333331</ele><time>2026-04-18T11:05:27Z</time></trkpt><trkpt lat="55.987602281334375" lon="22.26450623564567"><ele>140.0</ele><time>2026-04-18T11:05:28Z</time></trkpt><trkpt lat="55.98762695067599" lon="22.264684029737424"><ele>139.83333333333331</ele><time>2026-04-18T11:05:29Z</time></trkpt><trkpt lat="55.98764545254959" lon="22.26485970859865"><ele>139.66666666666666</ele><time>2026-04-18T11:05:30Z</time></trkpt><trkpt lat="55.98766150654932" lon="22.26502558760097"><ele>139.5</ele><time>2026-04-18T11:05:31Z</time></trkpt><trkpt lat="55.98767673093839" lon="22.265189459528774"><ele>139.33333333333334</ele><time>2026-04-18T11:05:32Z</time></trkpt><trkpt lat="55.98769409723407" lon="22.265326540697394"><ele>139.16666666666669</ele><time>2026-04-18T11:05:33Z</time></trkpt><trkpt lat="55.987708861486716" lon="22.26546529607115"><ele>139.0</ele><time>2026-04-18T11:05:34Z</time></trkpt><trkpt lat="55.98772254961457" lon="22.26559280726451"><ele>138.2</ele><time>2026-04-18T11:05:35Z</time></trkpt><trkpt lat="55.98773883164538" lon="22.265708638640273"><ele>137.4</ele><time>2026-04-18T11:05:36Z</time></trkpt><trkpt lat="55.987768620892716" lon="22.265929623867596"><ele>136.6</ele><time>2026-04-18T11:05:38Z</time></trkpt><trkpt lat="55.98778727035604" lon="22.266164063241053"><ele>135.8</ele><time>2026-04-18T11:05:40Z</time></trkpt><trkpt lat="55.98779713902927" lon="22.2662894629076"><ele>135.0</ele><time>2026-04-18T11:05:41Z</time></trkpt><trkpt lat="55.98782518610678" lon="22.266401843196775"><ele>134.57142857142856</ele><time>2026-04-18T11:05:42Z</time></trkpt><trkpt lat="55.98784055363063" lon="22.26651643915115"><ele>134.14285714285714</ele><time>2026-04-18T11:05:43Z</time></trkpt><trkpt lat="55.9878568477691" lon="22.266637944873903"><ele>133.71428571428572</ele><time>2026-04-18T11:05:44Z</time></trkpt><trkpt lat="55.98787431808899" lon="22.266768221405844"><ele>133.28571428571428</ele><time>2026-04-18T11:05:45Z</time></trkpt><trkpt lat="55.98789225504743" lon="22.266902081843686"><ele>132.85714285714286</ele><time>2026-04-18T11:05:46Z</time></trkpt><trkpt lat="55.987905127650194" lon="22.267025707291943"><ele>132.42857142857142</ele><time>2026-04-18T11:05:47Z</time></trkpt><trkpt lat="55.9879283921951" lon="22.267151522267984"><ele>132.0</ele><time>2026-04-18T11:05:48Z</time></trkpt><trkpt lat="55.987962150214734" lon="22.267265642094117"><ele>132.16666666666666</ele><time>2026-04-18T11:05:49Z</time></trkpt><trkpt lat="55.98796695506236" lon="22.267396525958116"><ele>132.33333333333334</ele><time>2026-04-18T11:05:50Z</time></trkpt><trkpt lat="55.987986977203356" lon="22.267546163242802"><ele>132.5</ele><time>2026-04-18T11:05:51Z</time></trkpt><trkpt lat="55.98800444535846" lon="22.26767671628606"><ele>132.66666666666669</ele><time>2026-04-18T11:05:52Z</time></trkpt><trkpt lat="55.98802452998779" lon="22.267826824284697"><ele>132.83333333333334</ele><time>2026-04-18T11:05:53Z</time></trkpt><trkpt lat="55.988041448802896" lon="22.267953271694918"><ele>133.0</ele><time>2026-04-18T11:05:54Z</time></trkpt><trkpt lat="55.988064853702475" lon="22.26812819464571"><ele>133.0</ele><time>2026-04-18T11:05:56Z</time></trkpt><trkpt lat="55.98808523624187" lon="22.26828052914031"><ele>133.0</ele><time>2026-04-18T11:05:58Z</time></trkpt><trkpt lat="55.98810543018635" lon="22.268431454025094"><ele>133.0</ele><time>2026-04-18T11:06:01Z</time></trkpt><trkpt lat="55.98829059490333" lon="22.268398130715084"><ele>133.0</ele><time>2026-04-18T11:06:03Z</time></trkpt><trkpt lat="55.98836210870106" lon="22.26837306211633"><ele>133.0</ele><time>2026-04-18T11:06:04Z</time></trkpt><trkpt lat="55.98843320965236" lon="22.26833721008571"><ele>133.0</ele><time>2026-04-18T11:06:05Z</time></trkpt><trkpt lat="55.98851071473188" lon="22.268301765289053"><ele>133.0</ele><time>2026-04-18T11:06:06Z</time></trkpt><trkpt lat="55.988586625205585" lon="22.26827469482143"><ele>133.0</ele><time>2026-04-18T11:06:07Z</time></trkpt><trkpt lat="55.98869127050646" lon="22.268237299352045"><ele>133.0</ele><time>2026-04-18T11:06:09Z</time></trkpt><trkpt lat="55.9887976752768" lon="22.268210357939633"><ele>133.0</ele><time>2026-04-18T11:06:11Z</time></trkpt><trkpt lat="55.988906900578" lon="22.268174044583144"><ele>133.0</ele><time>2026-04-18T11:06:13Z</time></trkpt><trkpt lat="55.988999779089724" lon="22.268156240039104"><ele>133.0</ele><time>2026-04-18T11:06:15Z</time></trkpt><trkpt lat="55.98908796613423" lon="22.268147637642528"><ele>133.0</ele><time>2026-04-18T11:06:17Z</time></trkpt><trkpt lat="55.98917896876152" lon="22.268140902049016"><ele>133.0</ele><time>2026-04-18T11:06:19Z</time></trkpt><trkpt lat="55.9892651442568" lon="22.26814897902138"><ele>133.0</ele><time>2026-04-18T11:06:21Z</time></trkpt><trkpt lat="55.98933081355217" lon="22.268109837399976"><ele>133.0</ele><time>2026-04-18T11:06:23Z</time></trkpt><trkpt lat="55.989398366863256" lon="22.26807345115394"><ele>133.0</ele><time>2026-04-18T11:06:26Z</time></trkpt><trkpt lat="55.98946486887863" lon="22.26818157805364"><ele>133.0</ele><time>2026-04-18T11:06:30Z</time></trkpt><trkpt lat="55.98946642071851" lon="22.26837258558087"><ele>133.0</ele><time>2026-04-18T11:06:32Z</time></trkpt><trkpt lat="55.98946861823383" lon="22.2685144765592"><ele>133.0</ele><time>2026-04-18T11:06:34Z</time></trkpt><trkpt lat="55.98945004794834" lon="22.268623703370345"><ele>133.0</ele><time>2026-04-18T11:06:36Z</time></trkpt><trkpt lat="55.98942851395458" lon="22.26873525916331"><ele>133.0</ele><time>2026-04-18T11:06:38Z</time></trkpt><trkpt lat="55.98944732429538" lon="22.268872798511975"><ele>132.83333333333334</ele><time>2026-04-18T11:06:40Z</time></trkpt><trkpt lat="55.98947158190938" lon="22.269008111036076"><ele>132.66666666666669</ele><time>2026-04-18T11:06:42Z</time></trkpt><trkpt lat="55.98946542542573" lon="22.269153900543756"><ele>132.5</ele><time>2026-04-18T11:06:44Z</time></trkpt><trkpt lat="55.98947237443164" lon="22.269313988154984"><ele>132.33333333333334</ele><time>2026-04-18T11:06:46Z</time></trkpt><trkpt lat="55.9894781871542" lon="22.269465990822503"><ele>132.16666666666666</ele><time>2026-04-18T11:06:48Z</time></trkpt><trkpt lat="55.9894808031165" lon="22.26961142307603"><ele>132.0</ele><time>2026-04-18T11:06:50Z</time></trkpt><trkpt lat="55.989483878866544" lon="22.269775340024037"><ele>131.66666666666666</ele><time>2026-04-18T11:06:52Z</time></trkpt><trkpt lat="55.989486659663015" lon="22.26992353793604"><ele>131.33333333333334</ele><time>2026-04-18T11:06:54Z</time></trkpt><trkpt lat="55.98949036753" lon="22.270072444030802"><ele>131.0</ele><time>2026-04-18T11:06:56Z</time></trkpt><trkpt lat="55.98945567323386" lon="22.2702312870997"><ele>130.66666666666669</ele><time>2026-04-18T11:06:59Z</time></trkpt><trkpt lat="55.989439098195945" lon="22.270347968439122"><ele>130.33333333333334</ele><time>2026-04-18T11:07:01Z</time></trkpt><trkpt lat="55.98941664867523" lon="22.27050600368771"><ele>130.0</ele><time>2026-04-18T11:07:04Z</time></trkpt><trkpt lat="55.989398673350564" lon="22.27063254245544"><ele>130.0</ele><time>2026-04-18T11:07:06Z</time></trkpt><trkpt lat="55.98956230121034" lon="22.2707692775961"><ele>130.0</ele><time>2026-04-18T11:07:07Z</time></trkpt><trkpt lat="55.9895954473777" lon="22.27086911623055"><ele>130.0</ele><time>2026-04-18T11:07:09Z</time></trkpt><trkpt lat="55.98960034148447" lon="22.271038288121776"><ele>130.0</ele><time>2026-04-18T11:07:13Z</time></trkpt><trkpt lat="55.98962357226839" lon="22.27117936254686"><ele>130.0</ele><time>2026-04-18T11:07:15Z</time></trkpt><trkpt lat="55.98964119989645" lon="22.271290850701018"><ele>130.0</ele><time>2026-04-18T11:07:17Z</time></trkpt><trkpt lat="55.98966091562247" lon="22.27143517820882"><ele>130.0</ele><time>2026-04-18T11:07:19Z</time></trkpt><trkpt lat="55.989679752683614" lon="22.271588247788145"><ele>130.0</ele><time>2026-04-18T11:07:21Z</time></trkpt><trkpt lat="55.98970038031757" lon="22.271756279893538"><ele>130.0</ele><time>2026-04-18T11:07:23Z</time></trkpt><trkpt lat="55.98972731222037" lon="22.271909956796147"><ele>130.0</ele><time>2026-04-18T11:07:25Z</time></trkpt><trkpt lat="55.98976246191812" lon="22.272041139005218"><ele>130.0</ele><time>2026-04-18T11:07:27Z</time></trkpt><trkpt lat="55.989797542704956" lon="22.27218304520646"><ele>130.14285714285717</ele><time>2026-04-18T11:07:29Z</time></trkpt><trkpt lat="55.98980131887212" lon="22.272299180861665"><ele>130.28571428571428</ele><time>2026-04-18T11:07:31Z</time></trkpt><trkpt lat="55.989827770754204" lon="22.272443377719462"><ele>130.42857142857144</ele><time>2026-04-18T11:07:33Z</time></trkpt><trkpt lat="55.98985205123351" lon="22.272565453294188"><ele>130.57142857142858</ele><time>2026-04-18T11:07:35Z</time></trkpt><trkpt lat="55.98990371918835" lon="22.272650192766758"><ele>130.71428571428572</ele><time>2026-04-18T11:07:39Z</time></trkpt><trkpt lat="55.98995565040104" lon="22.27273987086495"><ele>130.85714285714286</ele><time>2026-04-18T11:07:41Z</time></trkpt><trkpt lat="55.99000496865274" lon="22.2728436147262"><ele>131.0</ele><time>2026-04-18T11:07:43Z</time></trkpt><trkpt lat="55.99005012264716" lon="22.273004218233094"><ele>131.0</ele><time>2026-04-18T11:07:46Z</time></trkpt><trkpt lat="55.99009793797723" lon="22.273156288656768"><ele>131.0</ele><time>2026-04-18T11:07:49Z</time></trkpt><trkpt lat="55.99014217576739" lon="22.27329883127648"><ele>131.0</ele><time>2026-04-18T11:07:53Z</time></trkpt><trkpt lat="55.99016388846617" lon="22.273435682288376"><ele>131.0</ele><time>2026-04-18T11:07:55Z</time></trkpt><trkpt lat="55.99013679699798" lon="22.27358410164567"><ele>131.0</ele><time>2026-04-18T11:07:58Z</time></trkpt><trkpt lat="55.99009445371061" lon="22.273668222875564"><ele>131.0</ele><time>2026-04-18T11:08:00Z</time></trkpt><trkpt lat="55.99002935898301" lon="22.273802516173735"><ele>131.0</ele><time>2026-04-18T11:08:02Z</time></trkpt><trkpt lat="55.9899768580177" lon="22.273913331323328"><ele>131.0</ele><time>2026-04-18T11:08:04Z</time></trkpt><trkpt lat="55.98993446832416" lon="22.274030669253907"><ele>131.0</ele><time>2026-04-18T11:08:06Z</time></trkpt><trkpt lat="55.98988419575779" lon="22.274154543793003"><ele>131.0</ele><time>2026-04-18T11:08:08Z</time></trkpt><trkpt lat="55.989828779365595" lon="22.27428351578066"><ele>131.0</ele><time>2026-04-18T11:08:10Z</time></trkpt><trkpt lat="55.9897869412927" lon="22.274383104515362"><ele>131.0</ele><time>2026-04-18T11:08:12Z</time></trkpt><trkpt lat="55.9897222998541" lon="22.27448917936781"><ele>131.0</ele><time>2026-04-18T11:08:14Z</time></trkpt><trkpt lat="55.989666931550374" lon="22.274614798312204"><ele>131.0</ele><time>2026-04-18T11:08:16Z</time></trkpt><trkpt lat="55.989632524285206" lon="22.274720617159314"><ele>131.0</ele><time>2026-04-18T11:08:18Z</time></trkpt><trkpt lat="55.98959260092316" lon="22.274845410664625"><ele>131.0</ele><time>2026-04-18T11:08:20Z</time></trkpt><trkpt lat="55.98956630150281" lon="22.274989049065987"><ele>131.0</ele><time>2026-04-18T11:08:22Z</time></trkpt><trkpt lat="55.98953379159899" lon="22.275098645816136"><ele>131.0</ele><time>2026-04-18T11:08:25Z</time></trkpt><trkpt lat="55.98948668884998" lon="22.275211647279534"><ele>131.0</ele><time>2026-04-18T11:08:27Z</time></trkpt><trkpt lat="55.989430899276186" lon="22.275286207742234"><ele>131.0</ele><time>2026-04-18T11:08:29Z</time></trkpt><trkpt lat="55.98936329550445" lon="22.275406220626966"><ele>131.0</ele><time>2026-04-18T11:08:32Z</time></trkpt><trkpt lat="55.989311987490446" lon="22.275539189217785"><ele>131.0</ele><time>2026-04-18T11:08:35Z</time></trkpt><trkpt lat="55.989264113052094" lon="22.275660208750146"><ele>131.0</ele><time>2026-04-18T11:08:38Z</time></trkpt><trkpt lat="55.98920114802766" lon="22.275772042223263"><ele>131.0</ele><time>2026-04-18T11:08:41Z</time></trkpt><trkpt lat="55.98915882125288" lon="22.275904221173665"><ele>130.85714285714286</ele><time>2026-04-18T11:08:44Z</time></trkpt><trkpt lat="55.98916235983203" lon="22.276021932184044"><ele>130.71428571428572</ele><time>2026-04-18T11:08:46Z</time></trkpt><trkpt lat="55.98914035381158" lon="22.276128525588867"><ele>130.57142857142858</ele><time>2026-04-18T11:08:52Z</time></trkpt><trkpt lat="55.989113222248406" lon="22.27624290294406"><ele>130.42857142857144</ele><time>2026-04-18T11:08:54Z</time></trkpt><trkpt lat="55.98905586634997" lon="22.276375964086732"><ele>130.28571428571428</ele><time>2026-04-18T11:08:57Z</time></trkpt><trkpt lat="55.989017184309574" lon="22.276486589290563"><ele>130.14285714285717</ele><time>2026-04-18T11:09:00Z</time></trkpt><trkpt lat="55.98897640708941" lon="22.27660263400497"><ele>130.0</ele><time>2026-04-18T11:09:02Z</time></trkpt><trkpt lat="55.98893110800856" lon="22.276721179210046"><ele>130.0</ele><time>2026-04-18T11:09:05Z</time></trkpt><trkpt lat="55.98888505681941" lon="22.276837585457443"><ele>130.0</ele><time>2026-04-18T11:09:09Z</time></trkpt><trkpt lat="55.9888175386831" lon="22.276913595175365"><ele>130.0</ele><time>2026-04-18T11:09:25Z</time></trkpt><trkpt lat="55.98878674180462" lon="22.277019589989614"><ele>130.0</ele><time>2026-04-18T11:09:28Z</time></trkpt><trkpt lat="55.98877049635215" lon="22.27714056461563"><ele>130.0</ele><time>2026-04-18T11:09:32Z</time></trkpt><trkpt lat="55.988731069930026" lon="22.27729290618091"><ele>130.0</ele><time>2026-04-18T11:09:35Z</time></trkpt><trkpt lat="55.98869114126153" lon="22.27741707685769"><ele>129.83333333333334</ele><time>2026-04-18T11:09:39Z</time></trkpt><trkpt lat="55.98866302101275" lon="22.2775478270218"><ele>129.66666666666669</ele><time>2026-04-18T11:09:43Z</time></trkpt><trkpt lat="55.988617658407556" lon="22.277637613423007"><ele>129.5</ele><time>2026-04-18T11:09:45Z</time></trkpt><trkpt lat="55.98858231473518" lon="22.277745558435846"><ele>129.33333333333334</ele><time>2026-04-18T11:09:47Z</time></trkpt><trkpt lat="55.98855065637426" lon="22.277850649699356"><ele>129.16666666666666</ele><time>2026-04-18T11:09:50Z</time></trkpt><trkpt lat="55.98851160491403" lon="22.277970693968587"><ele>129.0</ele><time>2026-04-18T11:09:53Z</time></trkpt><trkpt lat="55.98846264001924" lon="22.278114317815422"><ele>129.0</ele><time>2026-04-18T11:09:56Z</time></trkpt><trkpt lat="55.98842064096011" lon="22.27824144149061"><ele>129.0</ele><time>2026-04-18T11:09:59Z</time></trkpt><trkpt lat="55.98839159184296" lon="22.278351685463008"><ele>129.0</ele><time>2026-04-18T11:10:01Z</time></trkpt><trkpt lat="55.988339094901036" lon="22.27845193247281"><ele>129.0</ele><time>2026-04-18T11:10:04Z</time></trkpt><trkpt lat="55.988278663462445" lon="22.278623269700898"><ele>129.0</ele><time>2026-04-18T11:10:07Z</time></trkpt><trkpt lat="55.98817927867045" lon="22.27870661547076"><ele>128.6</ele><time>2026-04-18T11:10:09Z</time></trkpt><trkpt lat="55.9880884166169" lon="22.278746112348774"><ele>128.2</ele><time>2026-04-18T11:10:11Z</time></trkpt><trkpt lat="55.98801929422538" lon="22.2787683985268"><ele>127.79999999999998</ele><time>2026-04-18T11:10:13Z</time></trkpt><trkpt lat="55.988036683274665" lon="22.278910562040796"><ele>127.39999999999999</ele><time>2026-04-18T11:10:22Z</time></trkpt><trkpt lat="55.98818393726217" lon="22.278843635361255"><ele>127.0</ele><time>2026-04-18T11:10:24Z</time></trkpt><trkpt lat="55.988268883674635" lon="22.27881478959192"><ele>127.0</ele><time>2026-04-18T11:10:25Z</time></trkpt><trkpt lat="55.988341439470986" lon="22.278793851845833"><ele>126.99999999999999</ele><time>2026-04-18T11:10:26Z</time></trkpt><trkpt lat="55.98841266701302" lon="22.27876747268461"><ele>126.99999999999999</ele><time>2026-04-18T11:10:27Z</time></trkpt><trkpt lat="55.98850202562584" lon="22.278727034540097"><ele>127.0</ele><time>2026-04-18T11:10:29Z</time></trkpt><trkpt lat="55.988581548702854" lon="22.27873122808834"><ele>127.0</ele><time>2026-04-18T11:10:34Z</time></trkpt><trkpt lat="55.98859627604377" lon="22.278376150313278"><ele>127.5</ele><time>2026-04-18T11:10:40Z</time></trkpt><trkpt lat="55.988605545150975" lon="22.278195703672935"><ele>128.0</ele><time>2026-04-18T11:10:42Z</time></trkpt><trkpt lat="55.98865973530316" lon="22.27799120698205"><ele>128.5</ele><time>2026-04-18T11:10:44Z</time></trkpt><trkpt lat="55.98871451601835" lon="22.277800010883663"><ele>129.0</ele><time>2026-04-18T11:10:46Z</time></trkpt><trkpt lat="55.98878258353719" lon="22.277626706120746"><ele>129.0</ele><time>2026-04-18T11:10:48Z</time></trkpt><trkpt lat="55.988854870283795" lon="22.27743120608578"><ele>129.0</ele><time>2026-04-18T11:10:50Z</time></trkpt><trkpt lat="55.988895145401834" lon="22.277326301818494"><ele>129.0</ele><time>2026-04-18T11:10:51Z</time></trkpt><trkpt lat="55.98893386764969" lon="22.27722400493303"><ele>129.0</ele><time>2026-04-18T11:10:52Z</time></trkpt><trkpt lat="55.98897046376233" lon="22.277125089774675"><ele>129.0</ele><time>2026-04-18T11:10:53Z</time></trkpt><trkpt lat="55.989036778909174" lon="22.276927638706375"><ele>129.16666666666666</ele><time>2026-04-18T11:10:55Z</time></trkpt><trkpt lat="55.98907732355674" lon="22.276831734274765"><ele>129.33333333333334</ele><time>2026-04-18T11:10:56Z</time></trkpt><trkpt lat="55.98912017908565" lon="22.276733285949852"><ele>129.5</ele><time>2026-04-18T11:10:57Z</time></trkpt><trkpt lat="55.98915966899506" lon="22.276633208948716"><ele>129.66666666666669</ele><time>2026-04-18T11:10:58Z</time></trkpt><trkpt lat="55.9892298379689" lon="22.27645672122759"><ele>129.83333333333334</ele><time>2026-04-18T11:11:00Z</time></trkpt><trkpt lat="55.989275582323906" lon="22.276351268575624"><ele>130.0</ele><time>2026-04-18T11:11:01Z</time></trkpt><trkpt lat="55.98931783598867" lon="22.276249764694814"><ele>130.00000000000003</ele><time>2026-04-18T11:11:02Z</time></trkpt><trkpt lat="55.98935936118163" lon="22.276146643212904"><ele>130.0</ele><time>2026-04-18T11:11:03Z</time></trkpt><trkpt lat="55.98939744137625" lon="22.276053020961452"><ele>130.0</ele><time>2026-04-18T11:11:04Z</time></trkpt><trkpt lat="55.98943950975221" lon="22.275949387118054"><ele>130.0</ele><time>2026-04-18T11:11:05Z</time></trkpt><trkpt lat="55.98947717696759" lon="22.275851850868417"><ele>130.0</ele><time>2026-04-18T11:11:06Z</time></trkpt><trkpt lat="55.98952245876715" lon="22.275742290850612"><ele>130.00000000000003</ele><time>2026-04-18T11:11:07Z</time></trkpt><trkpt lat="55.98956443495997" lon="22.27564665083968"><ele>130.0</ele><time>2026-04-18T11:11:08Z</time></trkpt><trkpt lat="55.98960946793972" lon="22.275550519826087"><ele>130.0</ele><time>2026-04-18T11:11:09Z</time></trkpt><trkpt lat="55.989653288539884" lon="22.275451851464844"><ele>130.0</ele><time>2026-04-18T11:11:09.999Z</time></trkpt><trkpt lat="55.989693931248596" lon="22.275354365168138"><ele>130.0</ele><time>2026-04-18T11:11:10.999Z</time></trkpt><trkpt lat="55.98978235886773" lon="22.27513951764595"><ele>130.0</ele><time>2026-04-18T11:11:12.999Z</time></trkpt><trkpt lat="55.9898478805529" lon="22.274982250090634"><ele>130.0</ele><time>2026-04-18T11:11:13.999Z</time></trkpt><trkpt lat="55.98990270016196" lon="22.274856913815405"><ele>130.2</ele><time>2026-04-18T11:11:14.999Z</time></trkpt><trkpt lat="55.989959312852534" lon="22.274736128680445"><ele>130.4</ele><time>2026-04-18T11:11:15.999Z</time></trkpt><trkpt lat="55.99000825693741" lon="22.274622358576416"><ele>130.6</ele><time>2026-04-18T11:11:16.999Z</time></trkpt><trkpt lat="55.990086405202625" lon="22.274440920635872"><ele>130.8</ele><time>2026-04-18T11:11:17.999Z</time></trkpt><trkpt lat="55.99015866668914" lon="22.27428485533752"><ele>131.0</ele><time>2026-04-18T11:11:18.999Z</time></trkpt><trkpt lat="55.990205099744976" lon="22.274173821902718"><ele>131.0</ele><time>2026-04-18T11:11:19.999Z</time></trkpt><trkpt lat="55.99024612323379" lon="22.274081402649873"><ele>131.0</ele><time>2026-04-18T11:11:20.999Z</time></trkpt><trkpt lat="55.990289573591774" lon="22.273970949703415"><ele>131.0</ele><time>2026-04-18T11:11:21.999Z</time></trkpt><trkpt lat="55.99034401237896" lon="22.273829037491584"><ele>131.0</ele><time>2026-04-18T11:11:22.999Z</time></trkpt><trkpt lat="55.9903946910923" lon="22.273707274833242"><ele>131.0</ele><time>2026-04-18T11:11:24Z</time></trkpt><trkpt lat="55.99044437875735" lon="22.273581260362267"><ele>131.0</ele><time>2026-04-18T11:11:25Z</time></trkpt><trkpt lat="55.990495257210775" lon="22.27346100772491"><ele>131.0</ele><time>2026-04-18T11:11:26Z</time></trkpt><trkpt lat="55.99054871996535" lon="22.27333666005806"><ele>131.0</ele><time>2026-04-18T11:11:27Z</time></trkpt><trkpt lat="55.99060802031426" lon="22.27319155867353"><ele>131.0</ele><time>2026-04-18T11:11:29Z</time></trkpt><trkpt lat="55.99066390278612" lon="22.27306955370675"><ele>131.0</ele><time>2026-04-18T11:11:31Z</time></trkpt><trkpt lat="55.99073721341027" lon="22.27293228375605"><ele>131.0</ele><time>2026-04-18T11:11:40Z</time></trkpt><trkpt lat="55.99077271976053" lon="22.27276610690717"><ele>130.66666666666666</ele><time>2026-04-18T11:11:42Z</time></trkpt><trkpt lat="55.99079859852087" lon="22.272643288028448"><ele>130.33333333333331</ele><time>2026-04-18T11:11:45Z</time></trkpt><trkpt lat="55.99085657340529" lon="22.272511702256832"><ele>130.0</ele><time>2026-04-18T11:11:47Z</time></trkpt><trkpt lat="55.99090541072349" lon="22.272409360792906"><ele>129.66666666666666</ele><time>2026-04-18T11:11:49Z</time></trkpt><trkpt lat="55.99095129668753" lon="22.27228631581196"><ele>129.33333333333334</ele><time>2026-04-18T11:11:51Z</time></trkpt><trkpt lat="55.99099708458399" lon="22.272158355744345"><ele>129.0</ele><time>2026-04-18T11:11:53Z</time></trkpt><trkpt lat="55.99104878681737" lon="22.272042010898808"><ele>129.0</ele><time>2026-04-18T11:11:55Z</time></trkpt><trkpt lat="55.99110542767428" lon="22.27192644307383"><ele>129.0</ele><time>2026-04-18T11:11:57Z</time></trkpt><trkpt lat="55.99115748754398" lon="22.271815784490677"><ele>129.0</ele><time>2026-04-18T11:11:59Z</time></trkpt><trkpt lat="55.99120326001642" lon="22.27170987981473"><ele>129.0</ele><time>2026-04-18T11:12:01Z</time></trkpt><trkpt lat="55.99124524905824" lon="22.27160351903964"><ele>129.0</ele><time>2026-04-18T11:12:03Z</time></trkpt><trkpt lat="55.99129738458224" lon="22.271472090465267"><ele>129.0</ele><time>2026-04-18T11:12:05Z</time></trkpt><trkpt lat="55.99134388837125" lon="22.271341497089836"><ele>129.5</ele><time>2026-04-18T11:12:07Z</time></trkpt><trkpt lat="55.99139626322611" lon="22.271199936398585"><ele>130.0</ele><time>2026-04-18T11:12:09Z</time></trkpt><trkpt lat="55.99143138897481" lon="22.271087565109376"><ele>130.5</ele><time>2026-04-18T11:12:11Z</time></trkpt><trkpt lat="55.99146241908762" lon="22.270967105971497"><ele>131.0</ele><time>2026-04-18T11:12:13Z</time></trkpt><trkpt lat="55.991488711691126" lon="22.27082964050796"><ele>131.5</ele><time>2026-04-18T11:12:15Z</time></trkpt><trkpt lat="55.991577610640334" lon="22.270852490278017"><ele>132.0</ele><time>2026-04-18T11:12:18Z</time></trkpt><trkpt lat="55.99165147125839" lon="22.271000319608437"><ele>131.79999999999998</ele><time>2026-04-18T11:12:20Z</time></trkpt><trkpt lat="55.99173595469031" lon="22.271138944569294"><ele>131.6</ele><time>2026-04-18T11:12:22Z</time></trkpt><trkpt lat="55.99182705193233" lon="22.271257658628237"><ele>131.39999999999998</ele><time>2026-04-18T11:12:24Z</time></trkpt><trkpt lat="55.99190755422975" lon="22.27135150750048"><ele>131.2</ele><time>2026-04-18T11:12:26Z</time></trkpt><trkpt lat="55.99198060577211" lon="22.271448509508787"><ele>131.0</ele><time>2026-04-18T11:12:28Z</time></trkpt><trkpt lat="55.992059580939355" lon="22.27153499523033"><ele>131.0</ele><time>2026-04-18T11:12:30Z</time></trkpt><trkpt lat="55.99213500667537" lon="22.27155214712423"><ele>131.0</ele><time>2026-04-18T11:12:32Z</time></trkpt><trkpt lat="55.99221566462825" lon="22.271487787463606"><ele>131.0</ele><time>2026-04-18T11:12:34Z</time></trkpt><trkpt lat="55.99229350992173" lon="22.271304505389086"><ele>131.0</ele><time>2026-04-18T11:12:36Z</time></trkpt><trkpt lat="55.99231848702624" lon="22.27117866851918"><ele>131.0</ele><time>2026-04-18T11:12:37Z</time></trkpt><trkpt lat="55.992339496799936" lon="22.271058929063525"><ele>131.0</ele><time>2026-04-18T11:12:38Z</time></trkpt><trkpt lat="55.992362488523675" lon="22.270951221676125"><ele>131.5</ele><time>2026-04-18T11:12:39Z</time></trkpt><trkpt lat="55.992394472625506" lon="22.270737008310306"><ele>132.0</ele><time>2026-04-18T11:12:41Z</time></trkpt><trkpt lat="55.99240659057147" lon="22.270611362035226"><ele>132.5</ele><time>2026-04-18T11:12:42Z</time></trkpt><trkpt lat="55.992425274332476" lon="22.27049195266311"><ele>133.0</ele><time>2026-04-18T11:12:43Z</time></trkpt><trkpt lat="55.99244295155045" lon="22.270379225205783"><ele>133.5</ele><time>2026-04-18T11:12:44Z</time></trkpt><trkpt lat="55.99245400576398" lon="22.270250492281512"><ele>134.0</ele><time>2026-04-18T11:12:45Z</time></trkpt><trkpt lat="55.99246722783122" lon="22.270133538650654"><ele>134.6</ele><time>2026-04-18T11:12:46Z</time></trkpt><trkpt lat="55.99248342145585" lon="22.269908911658"><ele>135.2</ele><time>2026-04-18T11:12:48Z</time></trkpt><trkpt lat="55.992495317202604" lon="22.26979441536124"><ele>135.79999999999998</ele><time>2026-04-18T11:12:49Z</time></trkpt><trkpt lat="55.9925203288287" lon="22.269628082373195"><ele>136.4</ele><time>2026-04-18T11:12:51Z</time></trkpt><trkpt lat="55.99255222681085" lon="22.269439711695654"><ele>137.0</ele><time>2026-04-18T11:12:53Z</time></trkpt><trkpt lat="55.99255072673231" lon="22.269311710420094"><ele>137.0</ele><time>2026-04-18T11:12:55Z</time></trkpt><trkpt lat="55.99258694112591" lon="22.269173102116667"><ele>137.0</ele><time>2026-04-18T11:12:58Z</time></trkpt><trkpt lat="55.99267512194791" lon="22.26911054428133"><ele>137.0</ele><time>2026-04-18T11:13:00Z</time></trkpt><trkpt lat="55.99275333516749" lon="22.268910219283097"><ele>137.0</ele><time>2026-04-18T11:13:02Z</time></trkpt><trkpt lat="55.992787224721155" lon="22.26879085143876"><ele>137.0</ele><time>2026-04-18T11:13:03Z</time></trkpt><trkpt lat="55.99282629384489" lon="22.268683437970076"><ele>137.33333333333331</ele><time>2026-04-18T11:13:04Z</time></trkpt><trkpt lat="55.99287083514051" lon="22.26857741447713"><ele>137.66666666666666</ele><time>2026-04-18T11:13:05Z</time></trkpt><trkpt lat="55.99290877558403" lon="22.26847675430945"><ele>138.0</ele><time>2026-04-18T11:13:06Z</time></trkpt><trkpt lat="55.99294632026301" lon="22.26834933864164"><ele>138.33333333333334</ele><time>2026-04-18T11:13:07Z</time></trkpt><trkpt lat="55.992991168325005" lon="22.26818544087424"><ele>138.66666666666669</ele><time>2026-04-18T11:13:08Z</time></trkpt><trkpt lat="55.993036521002935" lon="22.26806142434863"><ele>139.0</ele><time>2026-04-18T11:13:09Z</time></trkpt><trkpt lat="55.99310754834616" lon="22.2681269465248"><ele>139.4</ele><time>2026-04-18T11:13:11Z</time></trkpt><trkpt lat="55.993174015784525" lon="22.268106231054983"><ele>139.8</ele><time>2026-04-18T11:13:12Z</time></trkpt><trkpt lat="55.99326459358693" lon="22.268056755311733"><ele>140.2</ele><time>2026-04-18T11:13:14Z</time></trkpt><trkpt lat="55.99335183098811" lon="22.267980658631895"><ele>140.6</ele><time>2026-04-18T11:13:16Z</time></trkpt><trkpt lat="55.99344173591168" lon="22.267887677211146"><ele>141.0</ele><time>2026-04-18T11:13:18Z</time></trkpt><trkpt lat="55.99352243675472" lon="22.267759585080814"><ele>141.25</ele><time>2026-04-18T11:13:20Z</time></trkpt><trkpt lat="55.993593898334034" lon="22.267593374455096"><ele>141.5</ele><time>2026-04-18T11:13:22Z</time></trkpt><trkpt lat="55.99367958473253" lon="22.26764029192703"><ele>141.75</ele><time>2026-04-18T11:13:25Z</time></trkpt><trkpt lat="55.9937109060351" lon="22.267957956089713"><ele>142.0</ele><time>2026-04-18T11:13:30Z</time></trkpt><trkpt lat="55.99372813364544" lon="22.268152355708374"><ele>142.0</ele><time>2026-04-18T11:13:31Z</time></trkpt><trkpt lat="55.99374717003669" lon="22.268318518342245"><ele>142.0</ele><time>2026-04-18T11:13:32Z</time></trkpt><trkpt lat="55.99376374178852" lon="22.268489188494076"><ele>142.0</ele><time>2026-04-18T11:13:33Z</time></trkpt><trkpt lat="55.99377952712985" lon="22.2686507393963"><ele>142.0</ele><time>2026-04-18T11:13:34Z</time></trkpt><trkpt lat="55.99380083780305" lon="22.26886721071617"><ele>142.0</ele><time>2026-04-18T11:13:35Z</time></trkpt><trkpt lat="55.993826755294144" lon="22.269122356151797"><ele>141.75</ele><time>2026-04-18T11:13:36Z</time></trkpt><trkpt lat="55.99385563937005" lon="22.26938904285578"><ele>141.5</ele><time>2026-04-18T11:13:37Z</time></trkpt><trkpt lat="55.993883959818525" lon="22.269653361783472"><ele>141.25</ele><time>2026-04-18T11:13:38Z</time></trkpt><trkpt lat="55.99390094367911" lon="22.269874144334604"><ele>141.0</ele><time>2026-04-18T11:13:39Z</time></trkpt><trkpt lat="55.99391737957721" lon="22.270068742884636"><ele>140.5</ele><time>2026-04-18T11:13:40Z</time></trkpt><trkpt lat="55.99393455447332" lon="22.270268406582506"><ele>140.0</ele><time>2026-04-18T11:13:41Z</time></trkpt><trkpt lat="55.99395519374262" lon="22.270482367775685"><ele>139.5</ele><time>2026-04-18T11:13:42Z</time></trkpt><trkpt lat="55.99398001748323" lon="22.27076326148356"><ele>139.0</ele><time>2026-04-18T11:13:43Z</time></trkpt><trkpt lat="55.99400971902573" lon="22.271080272662232"><ele>138.66666666666669</ele><time>2026-04-18T11:13:44Z</time></trkpt><trkpt lat="55.9940418423714" lon="22.271403374786278"><ele>138.33333333333334</ele><time>2026-04-18T11:13:45Z</time></trkpt><trkpt lat="55.994070603561845" lon="22.271719660786797"><ele>138.0</ele><time>2026-04-18T11:13:46Z</time></trkpt><trkpt lat="55.994090744230945" lon="22.271980197172613"><ele>138.0</ele><time>2026-04-18T11:13:47Z</time></trkpt><trkpt lat="55.99411032369314" lon="22.27220558269352"><ele>138.0</ele><time>2026-04-18T11:13:48Z</time></trkpt><trkpt lat="55.99413678098959" lon="22.272408260175805"><ele>138.0</ele><time>2026-04-18T11:13:49Z</time></trkpt><trkpt lat="55.994159821111026" lon="22.272588633967885"><ele>138.0</ele><time>2026-04-18T11:13:50Z</time></trkpt><trkpt lat="55.99417963912784" lon="22.2727534848135"><ele>138.0</ele><time>2026-04-18T11:13:51Z</time></trkpt><trkpt lat="55.994201529160144" lon="22.27295332807482"><ele>138.16666666666666</ele><time>2026-04-18T11:13:52Z</time></trkpt><trkpt lat="55.99421775506492" lon="22.273135981526995"><ele>138.33333333333334</ele><time>2026-04-18T11:13:53Z</time></trkpt><trkpt lat="55.99423369467485" lon="22.273287762028833"><ele>138.5</ele><time>2026-04-18T11:13:54Z</time></trkpt><trkpt lat="55.99425158585029" lon="22.273406030355883"><ele>138.66666666666669</ele><time>2026-04-18T11:13:55Z</time></trkpt><trkpt lat="55.994272439456566" lon="22.27351780637076"><ele>138.83333333333334</ele><time>2026-04-18T11:13:56Z</time></trkpt><trkpt lat="55.99430978146406" lon="22.273689992228242"><ele>139.0</ele><time>2026-04-18T11:13:58Z</time></trkpt><trkpt lat="55.994345043727144" lon="22.273838380520655"><ele>138.6</ele><time>2026-04-18T11:14:00Z</time></trkpt><trkpt lat="55.99439109665885" lon="22.274002261104886"><ele>138.2</ele><time>2026-04-18T11:14:02Z</time></trkpt><trkpt lat="55.994401960273024" lon="22.274120512779895"><ele>137.79999999999998</ele><time>2026-04-18T11:14:04Z</time></trkpt><trkpt lat="55.9942892893508" lon="22.27428958404493"><ele>137.4</ele><time>2026-04-18T11:14:07Z</time></trkpt><trkpt lat="55.994206142782986" lon="22.274281594339577"><ele>137.0</ele><time>2026-04-18T11:14:09Z</time></trkpt><trkpt lat="55.99415841509503" lon="22.274396073309333"><ele>137.0</ele><time>2026-04-18T11:14:12Z</time></trkpt><trkpt lat="55.994219916859265" lon="22.274457379533807"><ele>137.0</ele><time>2026-04-18T11:14:15Z</time></trkpt><trkpt lat="55.99427861204199" lon="22.274308493888682"><ele>137.0</ele><time>2026-04-18T11:18:34Z</time></trkpt><trkpt lat="55.99433101190557" lon="22.27423369063909"><ele>137.0</ele><time>2026-04-18T11:18:36Z</time></trkpt><trkpt lat="55.99439708799694" lon="22.27413540807712"><ele>137.0</ele><time>2026-04-18T11:18:38Z</time></trkpt><trkpt lat="55.99447323979883" lon="22.27412044763381"><ele>137.0</ele><time>2026-04-18T11:18:40Z</time></trkpt><trkpt lat="55.99456904280407" lon="22.27419806456037"><ele>137.0</ele><time>2026-04-18T11:18:42Z</time></trkpt><trkpt lat="55.99461886941319" lon="22.274268783726725"><ele>137.0</ele><time>2026-04-18T11:18:43Z</time></trkpt><trkpt lat="55.994701887609445" lon="22.274393308501175"><ele>137.0</ele><time>2026-04-18T11:18:45Z</time></trkpt><trkpt lat="55.99478576353221" lon="22.27452632384523"><ele>137.0</ele><time>2026-04-18T11:18:47Z</time></trkpt><trkpt lat="55.99486083473354" lon="22.274651788244125"><ele>137.0</ele><time>2026-04-18T11:18:49Z</time></trkpt><trkpt lat="55.9948971630189" lon="22.274746077174775"><ele>137.0</ele><time>2026-04-18T11:18:53Z</time></trkpt><trkpt lat="55.99502417530705" lon="22.274641420685526"><ele>137.0</ele><time>2026-04-18T11:18:55Z</time></trkpt><trkpt lat="55.99507894732888" lon="22.274543626196284"><ele>137.0</ele><time>2026-04-18T11:18:57Z</time></trkpt><trkpt lat="55.99510897499726" lon="22.27440907450929"><ele>137.0</ele><time>2026-04-18T11:18:58Z</time></trkpt><trkpt lat="55.99514103115438" lon="22.27427961890731"><ele>137.0</ele><time>2026-04-18T11:18:59Z</time></trkpt><trkpt lat="55.99512878751432" lon="22.274132162030945"><ele>137.0</ele><time>2026-04-18T11:19:00Z</time></trkpt><trkpt lat="55.995132171453804" lon="22.27398220563125"><ele>137.0</ele><time>2026-04-18T11:19:01Z</time></trkpt><trkpt lat="55.9951323984057" lon="22.273797575593356"><ele>137.0</ele><time>2026-04-18T11:19:02Z</time></trkpt><trkpt lat="55.99514336899219" lon="22.27359569421918"><ele>137.0</ele><time>2026-04-18T11:19:03Z</time></trkpt><trkpt lat="55.99512549065563" lon="22.273400332455154"><ele>137.0</ele><time>2026-04-18T11:19:04Z</time></trkpt><trkpt lat="55.99512690307317" lon="22.27320442638614"><ele>137.4</ele><time>2026-04-18T11:19:05Z</time></trkpt><trkpt lat="55.99513838277227" lon="22.272995869186353"><ele>137.79999999999998</ele><time>2026-04-18T11:19:06Z</time></trkpt><trkpt lat="55.99512144401831" lon="22.2727903311353"><ele>138.2</ele><time>2026-04-18T11:19:07Z</time></trkpt><trkpt lat="55.995134938362675" lon="22.27260010932485"><ele>138.6</ele><time>2026-04-18T11:19:08Z</time></trkpt><trkpt lat="55.99511658507401" lon="22.27242803643563"><ele>139.0</ele><time>2026-04-18T11:19:09Z</time></trkpt><trkpt lat="55.99513139056216" lon="22.27226024015628"><ele>139.0</ele><time>2026-04-18T11:19:10Z</time></trkpt><trkpt lat="55.995129688043015" lon="22.272096256388977"><ele>139.0</ele><time>2026-04-18T11:19:11Z</time></trkpt><trkpt lat="55.995116060153165" lon="22.271918509736516"><ele>139.0</ele><time>2026-04-18T11:19:12Z</time></trkpt><trkpt lat="55.99511661240155" lon="22.271703960248967"><ele>139.0</ele><time>2026-04-18T11:19:13Z</time></trkpt><trkpt lat="55.99508994050428" lon="22.271429079626873"><ele>139.4</ele><time>2026-04-18T11:19:14Z</time></trkpt><trkpt lat="55.99509046594412" lon="22.27116419987863"><ele>139.8</ele><time>2026-04-18T11:19:15Z</time></trkpt><trkpt lat="55.99506467127968" lon="22.270978217318703"><ele>140.2</ele><time>2026-04-18T11:19:16Z</time></trkpt><trkpt lat="55.99504095373366" lon="22.270830377307465"><ele>140.6</ele><time>2026-04-18T11:19:17Z</time></trkpt><trkpt lat="55.995015828358135" lon="22.270695601592116"><ele>141.0</ele><time>2026-04-18T11:19:18Z</time></trkpt><trkpt lat="55.99498076854675" lon="22.270585756101877"><ele>141.0</ele><time>2026-04-18T11:19:19Z</time></trkpt><trkpt lat="55.99493587035332" lon="22.270418169933766"><ele>141.0</ele><time>2026-04-18T11:19:20.999Z</time></trkpt><trkpt lat="55.99489442092992" lon="22.27027311917285"><ele>141.0</ele><time>2026-04-18T11:19:22.999Z</time></trkpt><trkpt lat="55.9948619178097" lon="22.270151867519694"><ele>141.0</ele><time>2026-04-18T11:19:24.999Z</time></trkpt><trkpt lat="55.994842269142154" lon="22.270035223155354"><ele>141.0</ele><time>2026-04-18T11:19:27.999Z</time></trkpt><trkpt lat="55.99488014252489" lon="22.27021922121425"><ele>141.0</ele><time>2026-04-18T11:20:33Z</time></trkpt><trkpt lat="55.99498408287896" lon="22.270203726461062"><ele>141.0</ele><time>2026-04-18T11:20:36Z</time></trkpt><trkpt lat="55.99503153016477" lon="22.270065008039605"><ele>141.0</ele><time>2026-04-18T11:20:39Z</time></trkpt><trkpt lat="55.9950453911653" lon="22.269893987778243"><ele>141.0</ele><time>2026-04-18T11:20:42Z</time></trkpt><trkpt lat="55.995043475943746" lon="22.269775162748786"><ele>141.0</ele><time>2026-04-18T11:20:44Z</time></trkpt><trkpt lat="55.99507914009893" lon="22.269623856173638"><ele>141.0</ele><time>2026-04-18T11:20:47Z</time></trkpt><trkpt lat="55.995085396074586" lon="22.269489554889734"><ele>141.0</ele><time>2026-04-18T11:20:50Z</time></trkpt><trkpt lat="55.995075573777626" lon="22.269372348063158"><ele>141.16666666666666</ele><time>2026-04-18T11:20:52Z</time></trkpt><trkpt lat="55.99505277425561" lon="22.269234308217964"><ele>141.33333333333334</ele><time>2026-04-18T11:20:54Z</time></trkpt><trkpt lat="55.995032574933646" lon="22.269091199325704"><ele>141.5</ele><time>2026-04-18T11:20:57Z</time></trkpt><trkpt lat="55.99502115429461" lon="22.268970004656307"><ele>141.66666666666669</ele><time>2026-04-18T11:20:59Z</time></trkpt><trkpt lat="55.99500130662101" lon="22.268819140188914"><ele>141.83333333333334</ele><time>2026-04-18T11:21:01Z</time></trkpt><trkpt lat="55.99498203898965" lon="22.26868003022726"><ele>142.0</ele><time>2026-04-18T11:21:04Z</time></trkpt><trkpt lat="55.994970034711606" lon="22.268558681347425"><ele>141.83333333333334</ele><time>2026-04-18T11:21:06Z</time></trkpt><trkpt lat="55.994952676667126" lon="22.268435028434954"><ele>141.66666666666669</ele><time>2026-04-18T11:21:08Z</time></trkpt><trkpt lat="55.99494685028195" lon="22.268306162670964"><ele>141.5</ele><time>2026-04-18T11:21:10Z</time></trkpt><trkpt lat="55.99493367292261" lon="22.268176878997227"><ele>141.33333333333334</ele><time>2026-04-18T11:21:12Z</time></trkpt><trkpt lat="55.99491430091274" lon="22.26804531752107"><ele>141.16666666666666</ele><time>2026-04-18T11:21:14Z</time></trkpt><trkpt lat="55.99490039270659" lon="22.267899085078664"><ele>141.0</ele><time>2026-04-18T11:21:16Z</time></trkpt><trkpt lat="55.99487502655546" lon="22.26770990433895"><ele>141.0</ele><time>2026-04-18T11:21:18Z</time></trkpt><trkpt lat="55.99485114992112" lon="22.267532568668695"><ele>141.0</ele><time>2026-04-18T11:21:20Z</time></trkpt><trkpt lat="55.99482840881089" lon="22.267395307105097"><ele>141.0</ele><time>2026-04-18T11:21:22Z</time></trkpt><trkpt lat="55.994806791222665" lon="22.26722159109724"><ele>141.0</ele><time>2026-04-18T11:21:24Z</time></trkpt><trkpt lat="55.99477152532316" lon="22.267030534161755"><ele>141.0</ele><time>2026-04-18T11:21:26Z</time></trkpt><trkpt lat="55.994748704230595" lon="22.266868006842344"><ele>141.16666666666666</ele><time>2026-04-18T11:21:27.999Z</time></trkpt><trkpt lat="55.994722449167384" lon="22.266691444927613"><ele>141.33333333333334</ele><time>2026-04-18T11:21:29.999Z</time></trkpt><trkpt lat="55.99470506064611" lon="22.266557493823452"><ele>141.5</ele><time>2026-04-18T11:21:31.999Z</time></trkpt><trkpt lat="55.994687244303655" lon="22.266429173460953"><ele>141.66666666666669</ele><time>2026-04-18T11:21:33.999Z</time></trkpt><trkpt lat="55.994656876049056" lon="22.266257994912053"><ele>141.83333333333334</ele><time>2026-04-18T11:21:35.999Z</time></trkpt><trkpt lat="55.99463623939338" lon="22.26609723143092"><ele>142.0</ele><time>2026-04-18T11:21:37.999Z</time></trkpt><trkpt lat="55.99464215166864" lon="22.265926156694615"><ele>142.25</ele><time>2026-04-18T11:21:39.999Z</time></trkpt><trkpt lat="55.99464418777865" lon="22.26575005330963"><ele>142.5</ele><time>2026-04-18T11:21:41.999Z</time></trkpt><trkpt lat="55.99463300576892" lon="22.265582298369882"><ele>142.75</ele><time>2026-04-18T11:21:43.999Z</time></trkpt><trkpt lat="55.994596893039365" lon="22.265385645058608"><ele>143.0</ele><time>2026-04-18T11:21:45.999Z</time></trkpt><trkpt lat="55.99456234071007" lon="22.265115939988597"><ele>143.16666666666666</ele><time>2026-04-18T11:21:58.999Z</time></trkpt><trkpt lat="55.99457355691671" lon="22.264949286649756"><ele>143.33333333333331</ele><time>2026-04-18T11:21:59.999Z</time></trkpt><trkpt lat="55.99454917528048" lon="22.264780582711627"><ele>143.5</ele><time>2026-04-18T11:22:00.999Z</time></trkpt><trkpt lat="55.99451355690688" lon="22.264625972500095"><ele>143.66666666666666</ele><time>2026-04-18T11:22:01.999Z</time></trkpt><trkpt lat="55.99450294216259" lon="22.2644842969991"><ele>143.83333333333334</ele><time>2026-04-18T11:22:02.999Z</time></trkpt><trkpt lat="55.994483139291816" lon="22.264357106828296"><ele>144.0</ele><time>2026-04-18T11:22:03.999Z</time></trkpt><trkpt lat="55.99445184548125" lon="22.264125925473994"><ele>144.00000000000003</ele><time>2026-04-18T11:22:05.999Z</time></trkpt><trkpt lat="55.9944383210658" lon="22.26400250001142"><ele>144.0</ele><time>2026-04-18T11:22:06.999Z</time></trkpt><trkpt lat="55.994424380673536" lon="22.26386562418689"><ele>144.0</ele><time>2026-04-18T11:22:07.999Z</time></trkpt><trkpt lat="55.994410163011885" lon="22.26374162684343"><ele>144.0</ele><time>2026-04-18T11:22:09Z</time></trkpt><trkpt lat="55.99438000196049" lon="22.263620131802547"><ele>144.0</ele><time>2026-04-18T11:22:10Z</time></trkpt><trkpt lat="55.99437830994802" lon="22.26348914036053"><ele>144.00000000000003</ele><time>2026-04-18T11:22:11Z</time></trkpt><trkpt lat="55.99435642153292" lon="22.26335564675545"><ele>144.0</ele><time>2026-04-18T11:22:12Z</time></trkpt><trkpt lat="55.9943309679969" lon="22.263219974088575"><ele>143.66666666666666</ele><time>2026-04-18T11:22:13Z</time></trkpt><trkpt lat="55.99429191042066" lon="22.263090401860893"><ele>143.33333333333334</ele><time>2026-04-18T11:22:14Z</time></trkpt><trkpt lat="55.99426758670989" lon="22.262949111308806"><ele>143.0</ele><time>2026-04-18T11:22:15Z</time></trkpt><trkpt lat="55.99424075349762" lon="22.262823401097112"><ele>142.66666666666669</ele><time>2026-04-18T11:22:16Z</time></trkpt><trkpt lat="55.994211126232514" lon="22.262703836692413"><ele>142.33333333333334</ele><time>2026-04-18T11:22:17Z</time></trkpt><trkpt lat="55.99415207246452" lon="22.262561336410794"><ele>142.0</ele><time>2026-04-18T11:22:18Z</time></trkpt><trkpt lat="55.994101116229075" lon="22.262433400122703"><ele>142.0</ele><time>2026-04-18T11:22:19Z</time></trkpt><trkpt lat="55.99405008917843" lon="22.26230133190085"><ele>142.0</ele><time>2026-04-18T11:22:20Z</time></trkpt><trkpt lat="55.99401456313323" lon="22.262186792553823"><ele>142.0</ele><time>2026-04-18T11:22:21Z</time></trkpt><trkpt lat="55.99398897543978" lon="22.262015674205568"><ele>142.0</ele><time>2026-04-18T11:22:23Z</time></trkpt><trkpt lat="55.994002662365894" lon="22.261867317625235"><ele>142.0</ele><time>2026-04-18T11:22:25Z</time></trkpt><trkpt lat="55.9938721943811" lon="22.26182498468826"><ele>142.0</ele><time>2026-04-18T11:22:28Z</time></trkpt><trkpt lat="55.993832382622706" lon="22.261585361196833"><ele>142.0</ele><time>2026-04-18T11:22:33Z</time></trkpt><trkpt lat="55.99383896133235" lon="22.261471411813517"><ele>142.0</ele><time>2026-04-18T11:22:35Z</time></trkpt><trkpt lat="55.99382115570457" lon="22.261301710342206"><ele>142.0</ele><time>2026-04-18T11:22:36Z</time></trkpt><trkpt lat="55.99377660461679" lon="22.261160695316544"><ele>142.0</ele><time>2026-04-18T11:22:37Z</time></trkpt><trkpt lat="55.993720763906666" lon="22.261010518064687"><ele>142.0</ele><time>2026-04-18T11:22:38Z</time></trkpt><trkpt lat="55.99366421718453" lon="22.26085376612814"><ele>142.0</ele><time>2026-04-18T11:22:39Z</time></trkpt><trkpt lat="55.99361016540926" lon="22.26071739796114"><ele>142.0</ele><time>2026-04-18T11:22:40Z</time></trkpt><trkpt lat="55.993550518136736" lon="22.260559629637136"><ele>142.0</ele><time>2026-04-18T11:22:41Z</time></trkpt><trkpt lat="55.99348574090018" lon="22.260410782367277"><ele>142.0</ele><time>2026-04-18T11:22:42Z</time></trkpt><trkpt lat="55.99341428352093" lon="22.260273539012847"><ele>141.79999999999998</ele><time>2026-04-18T11:22:43Z</time></trkpt><trkpt lat="55.99334589229455" lon="22.260138640658244"><ele>141.6</ele><time>2026-04-18T11:22:44Z</time></trkpt><trkpt lat="55.99328829212677" lon="22.25998916764484"><ele>141.39999999999998</ele><time>2026-04-18T11:22:45Z</time></trkpt><trkpt lat="55.9932456809658" lon="22.25982826387135"><ele>141.2</ele><time>2026-04-18T11:22:46Z</time></trkpt><trkpt lat="55.9932203889076" lon="22.259661227379766"><ele>141.0</ele><time>2026-04-18T11:22:47Z</time></trkpt><trkpt lat="55.99319874087645" lon="22.259481850713847"><ele>141.6</ele><time>2026-04-18T11:22:48Z</time></trkpt><trkpt lat="55.99317721153487" lon="22.259317867591182"><ele>142.2</ele><time>2026-04-18T11:22:49Z</time></trkpt><trkpt lat="55.993153481447" lon="22.259148712924002"><ele>142.8</ele><time>2026-04-18T11:22:50Z</time></trkpt><trkpt lat="55.99312871967088" lon="22.258977457410346"><ele>143.4</ele><time>2026-04-18T11:22:51Z</time></trkpt><trkpt lat="55.99310636979509" lon="22.258803423964807"><ele>144.0</ele><time>2026-04-18T11:22:52Z</time></trkpt><trkpt lat="55.99308380829624" lon="22.258605680380697"><ele>144.0</ele><time>2026-04-18T11:22:53Z</time></trkpt><trkpt lat="55.99306401167122" lon="22.258412087521542"><ele>144.0</ele><time>2026-04-18T11:22:54Z</time></trkpt><trkpt lat="55.993043425723705" lon="22.25822049600281"><ele>144.0</ele><time>2026-04-18T11:22:55Z</time></trkpt><trkpt lat="55.99302513597442" lon="22.258042089469857"><ele>144.0</ele><time>2026-04-18T11:22:56Z</time></trkpt><trkpt lat="55.99300549029934" lon="22.2578670876615"><ele>144.0</ele><time>2026-04-18T11:22:57Z</time></trkpt><trkpt lat="55.99299067465011" lon="22.257699052685695"><ele>144.0</ele><time>2026-04-18T11:22:58Z</time></trkpt><trkpt lat="55.99297226584309" lon="22.257536207788327"><ele>144.0</ele><time>2026-04-18T11:22:59Z</time></trkpt><trkpt lat="55.99295102548513" lon="22.257373521476413"><ele>144.0</ele><time>2026-04-18T11:23:00Z</time></trkpt><trkpt lat="55.99293183041509" lon="22.257197846315016"><ele>144.0</ele><time>2026-04-18T11:23:01Z</time></trkpt><trkpt lat="55.99291424356328" lon="22.2570745397514"><ele>144.0</ele><time>2026-04-18T11:23:02Z</time></trkpt><trkpt lat="55.992891317555944" lon="22.256870034026683"><ele>144.00000000000003</ele><time>2026-04-18T11:23:04Z</time></trkpt><trkpt lat="55.99288917720187" lon="22.25674829069634"><ele>144.0</ele><time>2026-04-18T11:23:05Z</time></trkpt><trkpt lat="55.99287500108551" lon="22.256634564363033"><ele>144.0</ele><time>2026-04-18T11:23:06Z</time></trkpt><trkpt lat="55.992858642464334" lon="22.256503329099964"><ele>144.0</ele><time>2026-04-18T11:23:07Z</time></trkpt><trkpt lat="55.99284198224676" lon="22.25636904939947"><ele>144.0</ele><time>2026-04-18T11:23:08Z</time></trkpt><trkpt lat="55.99282420251361" lon="22.25622385519686"><ele>144.00000000000003</ele><time>2026-04-18T11:23:09Z</time></trkpt><trkpt lat="55.99280731842681" lon="22.256085975086464"><ele>144.0</ele><time>2026-04-18T11:23:10Z</time></trkpt><trkpt lat="55.99279149589307" lon="22.255958780587058"><ele>143.85714285714286</ele><time>2026-04-18T11:23:11Z</time></trkpt><trkpt lat="55.992763006304486" lon="22.255836436687705"><ele>143.71428571428572</ele><time>2026-04-18T11:23:12Z</time></trkpt><trkpt lat="55.992750721945846" lon="22.25571175488844"><ele>143.57142857142856</ele><time>2026-04-18T11:23:13Z</time></trkpt><trkpt lat="55.992737237578446" lon="22.255589831225144"><ele>143.42857142857144</ele><time>2026-04-18T11:23:14Z</time></trkpt><trkpt lat="55.99271643439103" lon="22.255460868711552"><ele>143.28571428571428</ele><time>2026-04-18T11:23:15Z</time></trkpt><trkpt lat="55.99268933733603" lon="22.25533295520461"><ele>143.14285714285714</ele><time>2026-04-18T11:23:16Z</time></trkpt><trkpt lat="55.99264126847503" lon="22.255211850718343"><ele>143.0</ele><time>2026-04-18T11:23:17Z</time></trkpt><trkpt lat="55.99257543475457" lon="22.255123667234194"><ele>143.33333333333331</ele><time>2026-04-18T11:23:18Z</time></trkpt><trkpt lat="55.99249218639699" lon="22.255070396967696"><ele>143.66666666666666</ele><time>2026-04-18T11:23:19Z</time></trkpt><trkpt lat="55.99240410840076" lon="22.255040557461808"><ele>144.0</ele><time>2026-04-18T11:23:20Z</time></trkpt><trkpt lat="55.99231501219194" lon="22.25502784166981"><ele>144.33333333333334</ele><time>2026-04-18T11:23:21Z</time></trkpt><trkpt lat="55.99222318397039" lon="22.25501258883976"><ele>144.66666666666669</ele><time>2026-04-18T11:23:22Z</time></trkpt><trkpt lat="55.99213637651382" lon="22.254995412173248"><ele>145.0</ele><time>2026-04-18T11:23:23Z</time></trkpt><trkpt lat="55.99205380260196" lon="22.25497217868844"><ele>145.0</ele><time>2026-04-18T11:23:24Z</time></trkpt><trkpt lat="55.991965612492336" lon="22.25495403878056"><ele>145.0</ele><time>2026-04-18T11:23:25Z</time></trkpt><trkpt lat="55.991880703544844" lon="22.25493813250005"><ele>145.0</ele><time>2026-04-18T11:23:26Z</time></trkpt><trkpt lat="55.99179387586652" lon="22.254924738155683"><ele>145.0</ele><time>2026-04-18T11:23:27Z</time></trkpt><trkpt lat="55.99170744609078" lon="22.254909719478956"><ele>145.0</ele><time>2026-04-18T11:23:28Z</time></trkpt><trkpt lat="55.991625474254995" lon="22.2548939902462"><ele>145.0</ele><time>2026-04-18T11:23:29Z</time></trkpt><trkpt lat="55.99153119599136" lon="22.254870465153378"><ele>145.4</ele><time>2026-04-18T11:23:30Z</time></trkpt><trkpt lat="55.99143707368292" lon="22.2548479100251"><ele>145.8</ele><time>2026-04-18T11:23:31Z</time></trkpt><trkpt lat="55.991346639535266" lon="22.254826650463862"><ele>146.2</ele><time>2026-04-18T11:23:32Z</time></trkpt><trkpt lat="55.99125404223059" lon="22.25480971349901"><ele>146.6</ele><time>2026-04-18T11:23:32.999Z</time></trkpt><trkpt lat="55.99116656063471" lon="22.25479337178496"><ele>147.0</ele><time>2026-04-18T11:23:33.999Z</time></trkpt><trkpt lat="55.99108271348509" lon="22.25477393804261"><ele>147.0</ele><time>2026-04-18T11:23:34.999Z</time></trkpt><trkpt lat="55.99100008305134" lon="22.25475594882076"><ele>147.0</ele><time>2026-04-18T11:23:35.999Z</time></trkpt><trkpt lat="55.99092020150481" lon="22.25474539601788"><ele>147.0</ele><time>2026-04-18T11:23:36.999Z</time></trkpt><trkpt lat="55.99084017849278" lon="22.254727837377594"><ele>147.0</ele><time>2026-04-18T11:23:37.999Z</time></trkpt><trkpt lat="55.99075885142504" lon="22.254717239042467"><ele>147.0</ele><time>2026-04-18T11:23:38.999Z</time></trkpt><trkpt lat="55.99067415860438" lon="22.25470006851234"><ele>147.0</ele><time>2026-04-18T11:23:39.999Z</time></trkpt><trkpt lat="55.9905905592705" lon="22.254684378173017"><ele>147.0</ele><time>2026-04-18T11:23:40.999Z</time></trkpt><trkpt lat="55.99050429590017" lon="22.254662513416484"><ele>147.0</ele><time>2026-04-18T11:23:41.999Z</time></trkpt><trkpt lat="55.990420586649094" lon="22.25464028438091"><ele>147.0</ele><time>2026-04-18T11:23:42.999Z</time></trkpt><trkpt lat="55.99033274477785" lon="22.254626114921166"><ele>147.0</ele><time>2026-04-18T11:23:43.999Z</time></trkpt><trkpt lat="55.99024652540854" lon="22.25461195621874"><ele>147.0</ele><time>2026-04-18T11:23:44.999Z</time></trkpt><trkpt lat="55.990164826075265" lon="22.2545968769352"><ele>147.0</ele><time>2026-04-18T11:23:45.999Z</time></trkpt><trkpt lat="55.990088012921234" lon="22.254587996717824"><ele>147.2</ele><time>2026-04-18T11:23:46.999Z</time></trkpt><trkpt lat="55.98998208304156" lon="22.254553645158328"><ele>147.39999999999998</ele><time>2026-04-18T11:23:48.999Z</time></trkpt><trkpt lat="55.989912653438736" lon="22.25443711612392"><ele>147.60000000000002</ele><time>2026-04-18T11:23:50.999Z</time></trkpt><trkpt lat="55.98990760639923" lon="22.25421604537693"><ele>147.8</ele><time>2026-04-18T11:23:52.999Z</time></trkpt><trkpt lat="55.98991241991358" lon="22.254067249164926"><ele>148.0</ele><time>2026-04-18T11:23:53.999Z</time></trkpt><trkpt lat="55.98992344235463" lon="22.253911884186696"><ele>147.5</ele><time>2026-04-18T11:23:54.999Z</time></trkpt><trkpt lat="55.9899331986725" lon="22.253733720385377"><ele>147.0</ele><time>2026-04-18T11:23:55.999Z</time></trkpt><trkpt lat="55.989942975945155" lon="22.25352562020649"><ele>146.5</ele><time>2026-04-18T11:23:56.999Z</time></trkpt><trkpt lat="55.989940281122756" lon="22.25327653073185"><ele>146.0</ele><time>2026-04-18T11:23:57.999Z</time></trkpt><trkpt lat="55.989950972345405" lon="22.253028223351485"><ele>146.0</ele><time>2026-04-18T11:23:58.999Z</time></trkpt><trkpt lat="55.98996269170428" lon="22.25272680577645"><ele>146.0</ele><time>2026-04-18T11:23:59.999Z</time></trkpt><trkpt lat="55.98998893864016" lon="22.252396003101794"><ele>146.0</ele><time>2026-04-18T11:24:00.999Z</time></trkpt><trkpt lat="55.99000176162135" lon="22.25206710267185"><ele>145.75</ele><time>2026-04-18T11:24:01.999Z</time></trkpt><trkpt lat="55.99000160075244" lon="22.251775952775766"><ele>145.5</ele><time>2026-04-18T11:24:02.999Z</time></trkpt><trkpt lat="55.99001407479109" lon="22.2515208732517"><ele>145.25</ele><time>2026-04-18T11:24:03.999Z</time></trkpt><trkpt lat="55.99003321849369" lon="22.25129764270989"><ele>145.0</ele><time>2026-04-18T11:24:04.999Z</time></trkpt><trkpt lat="55.99004851457944" lon="22.25107284286945"><ele>145.0</ele><time>2026-04-18T11:24:05.999Z</time></trkpt><trkpt lat="55.99004944042289" lon="22.25082859388024"><ele>145.0</ele><time>2026-04-18T11:24:07Z</time></trkpt><trkpt lat="55.99004975187471" lon="22.250572947639537"><ele>145.0</ele><time>2026-04-18T11:24:08Z</time></trkpt><trkpt lat="55.99005400140121" lon="22.25032547605122"><ele>145.0</ele><time>2026-04-18T11:24:09Z</time></trkpt><trkpt lat="55.990057926921516" lon="22.25008267218837"><ele>145.0</ele><time>2026-04-18T11:24:10Z</time></trkpt><trkpt lat="55.99005144207708" lon="22.249825614442194"><ele>145.0</ele><time>2026-04-18T11:24:11Z</time></trkpt><trkpt lat="55.99003723570054" lon="22.249565914830207"><ele>145.0</ele><time>2026-04-18T11:24:12Z</time></trkpt><trkpt lat="55.990024495910525" lon="22.249311373851697"><ele>145.0</ele><time>2026-04-18T11:24:13Z</time></trkpt><trkpt lat="55.99002681899611" lon="22.24906515500237"><ele>143.75</ele><time>2026-04-18T11:24:14Z</time></trkpt><trkpt lat="55.990005521479766" lon="22.248823234843965"><ele>142.5</ele><time>2026-04-18T11:24:15Z</time></trkpt><trkpt lat="55.98996806553855" lon="22.248589270775454"><ele>141.25</ele><time>2026-04-18T11:24:16Z</time></trkpt><trkpt lat="55.989938578046846" lon="22.24834821800304"><ele>140.0</ele><time>2026-04-18T11:24:17Z</time></trkpt><trkpt lat="55.98989526273101" lon="22.24811051937608"><ele>139.66666666666666</ele><time>2026-04-18T11:24:18Z</time></trkpt><trkpt lat="55.98984589662635" lon="22.247854344415487"><ele>139.33333333333334</ele><time>2026-04-18T11:24:19Z</time></trkpt><trkpt lat="55.98980406848385" lon="22.24755500080146"><ele>139.0</ele><time>2026-04-18T11:24:20Z</time></trkpt><trkpt lat="55.98976245061875" lon="22.247262187264084"><ele>139.0</ele><time>2026-04-18T11:24:21Z</time></trkpt><trkpt lat="55.98972340991071" lon="22.24701249460911"><ele>139.0</ele><time>2026-04-18T11:24:22Z</time></trkpt><trkpt lat="55.98968045386455" lon="22.246797998020725"><ele>139.0</ele><time>2026-04-18T11:24:23Z</time></trkpt><trkpt lat="55.989641212673426" lon="22.24659044286391"><ele>139.0</ele><time>2026-04-18T11:24:24Z</time></trkpt><trkpt lat="55.98960916699149" lon="22.246378477350675"><ele>139.0</ele><time>2026-04-18T11:24:25Z</time></trkpt><trkpt lat="55.989575901353994" lon="22.246169590365877"><ele>139.0</ele><time>2026-04-18T11:24:26Z</time></trkpt><trkpt lat="55.98954235788193" lon="22.24595783231991"><ele>139.0</ele><time>2026-04-18T11:24:27Z</time></trkpt><trkpt lat="55.98950995197251" lon="22.245743773085888"><ele>139.0</ele><time>2026-04-18T11:24:28Z</time></trkpt><trkpt lat="55.98947777600224" lon="22.245528510946443"><ele>139.0</ele><time>2026-04-18T11:24:29Z</time></trkpt><trkpt lat="55.9894433884419" lon="22.245326875592582"><ele>139.0</ele><time>2026-04-18T11:24:30Z</time></trkpt><trkpt lat="55.98942097600835" lon="22.245162224687416"><ele>139.0</ele><time>2026-04-18T11:24:31Z</time></trkpt><trkpt lat="55.98940585071579" lon="22.24504270568392"><ele>139.0</ele><time>2026-04-18T11:24:32Z</time></trkpt><trkpt lat="55.98938586376636" lon="22.24489732758386"><ele>139.0</ele><time>2026-04-18T11:24:34Z</time></trkpt><trkpt lat="55.98935251670271" lon="22.244760019294816"><ele>139.0</ele><time>2026-04-18T11:25:12Z</time></trkpt><trkpt lat="55.98933031197839" lon="22.244571521863197"><ele>139.33333333333334</ele><time>2026-04-18T11:25:14Z</time></trkpt><trkpt lat="55.98933552058583" lon="22.24445584440742"><ele>139.66666666666669</ele><time>2026-04-18T11:25:15Z</time></trkpt><trkpt lat="55.98937847587176" lon="22.244359732705902"><ele>140.0</ele><time>2026-04-18T11:25:16Z</time></trkpt><trkpt lat="55.98943221957827" lon="22.244262746769156"><ele>140.33333333333334</ele><time>2026-04-18T11:25:17Z</time></trkpt><trkpt lat="55.989497006097935" lon="22.24415822604867"><ele>140.66666666666666</ele><time>2026-04-18T11:25:18Z</time></trkpt><trkpt lat="55.98956817756811" lon="22.24404763540497"><ele>141.0</ele><time>2026-04-18T11:25:19Z</time></trkpt><trkpt lat="55.98963263421201" lon="22.243933495218243"><ele>141.25</ele><time>2026-04-18T11:25:20Z</time></trkpt><trkpt lat="55.98971378681902" lon="22.243822010935318"><ele>141.5</ele><time>2026-04-18T11:25:21Z</time></trkpt><trkpt lat="55.98982394662556" lon="22.243695516559672"><ele>141.75</ele><time>2026-04-18T11:25:22Z</time></trkpt><trkpt lat="55.98994339191421" lon="22.24359381077983"><ele>142.0</ele><time>2026-04-18T11:25:23Z</time></trkpt><trkpt lat="55.99006318308942" lon="22.243525882036824"><ele>141.25</ele><time>2026-04-18T11:25:24Z</time></trkpt><trkpt lat="55.990190901019886" lon="22.243456404698236"><ele>140.5</ele><time>2026-04-18T11:25:25Z</time></trkpt><trkpt lat="55.99032536566691" lon="22.243388951162444"><ele>139.75</ele><time>2026-04-18T11:25:26Z</time></trkpt><trkpt lat="55.9904830059248" lon="22.24330173233179"><ele>139.0</ele><time>2026-04-18T11:25:27Z</time></trkpt><trkpt lat="55.99068722438359" lon="22.243213679543494"><ele>139.66666666666669</ele><time>2026-04-18T11:25:28Z</time></trkpt><trkpt lat="55.99089707811215" lon="22.24312129621324"><ele>140.33333333333334</ele><time>2026-04-18T11:25:29Z</time></trkpt><trkpt lat="55.991104509414576" lon="22.243006244299934"><ele>141.0</ele><time>2026-04-18T11:25:30Z</time></trkpt><trkpt lat="55.99132350786369" lon="22.242934803849742"><ele>141.0</ele><time>2026-04-18T11:25:31Z</time></trkpt><trkpt lat="55.99154240138413" lon="22.24284781166628"><ele>141.0</ele><time>2026-04-18T11:25:32Z</time></trkpt><trkpt lat="55.99172905948615" lon="22.24276964874821"><ele>141.0</ele><time>2026-04-18T11:25:33Z</time></trkpt><trkpt lat="55.991894947994126" lon="22.242690548383315"><ele>141.0</ele><time>2026-04-18T11:25:34Z</time></trkpt><trkpt lat="55.992053215127484" lon="22.242623391271657"><ele>141.0</ele><time>2026-04-18T11:25:35Z</time></trkpt><trkpt lat="55.99219800859555" lon="22.242563607048503"><ele>141.0</ele><time>2026-04-18T11:25:36Z</time></trkpt><trkpt lat="55.99234709824642" lon="22.242501260472952"><ele>141.0</ele><time>2026-04-18T11:25:37Z</time></trkpt><trkpt lat="55.99249374148908" lon="22.242424857755715"><ele>141.0</ele><time>2026-04-18T11:25:38Z</time></trkpt><trkpt lat="55.99264895021406" lon="22.242347701401886"><ele>141.0</ele><time>2026-04-18T11:25:39Z</time></trkpt><trkpt lat="55.99280454338947" lon="22.24227109103032"><ele>141.0</ele><time>2026-04-18T11:25:40Z</time></trkpt><trkpt lat="55.992967465868496" lon="22.242198924546063"><ele>141.0</ele><time>2026-04-18T11:25:41Z</time></trkpt><trkpt lat="55.99313681679944" lon="22.242123505667674"><ele>141.0</ele><time>2026-04-18T11:25:42Z</time></trkpt><trkpt lat="55.9933055320949" lon="22.242042880409443"><ele>141.0</ele><time>2026-04-18T11:25:43Z</time></trkpt><trkpt lat="55.9934642062873" lon="22.241969889888487"><ele>141.0</ele><time>2026-04-18T11:25:44Z</time></trkpt><trkpt lat="55.9936104103201" lon="22.241905149649476"><ele>141.0</ele><time>2026-04-18T11:25:45Z</time></trkpt><trkpt lat="55.99374996585306" lon="22.241848994581204"><ele>141.0</ele><time>2026-04-18T11:25:46Z</time></trkpt><trkpt lat="55.993881252437696" lon="22.24179642500246"><ele>141.0</ele><time>2026-04-18T11:25:47Z</time></trkpt><trkpt lat="55.994005003957255" lon="22.241739952820044"><ele>141.0</ele><time>2026-04-18T11:25:48Z</time></trkpt><trkpt lat="55.99412809958527" lon="22.24168499744083"><ele>141.0</ele><time>2026-04-18T11:25:49Z</time></trkpt><trkpt lat="55.99425256421451" lon="22.24163111145867"><ele>140.75</ele><time>2026-04-18T11:25:50Z</time></trkpt><trkpt lat="55.99438180972793" lon="22.241572943861577"><ele>140.5</ele><time>2026-04-18T11:25:51Z</time></trkpt><trkpt lat="55.994506996719196" lon="22.241512754115575"><ele>140.25</ele><time>2026-04-18T11:25:52Z</time></trkpt><trkpt lat="55.99464141624641" lon="22.241446980043914"><ele>140.0</ele><time>2026-04-18T11:25:53Z</time></trkpt><trkpt lat="55.994783916263096" lon="22.241382229903323"><ele>140.0</ele><time>2026-04-18T11:25:54Z</time></trkpt><trkpt lat="55.994929846185904" lon="22.241317576375568"><ele>140.0</ele><time>2026-04-18T11:25:55Z</time></trkpt><trkpt lat="55.995080987374294" lon="22.24124997426554"><ele>140.0</ele><time>2026-04-18T11:25:56Z</time></trkpt><trkpt lat="55.995233288423904" lon="22.24117843725819"><ele>139.66666666666666</ele><time>2026-04-18T11:25:57Z</time></trkpt><trkpt lat="55.99539014139451" lon="22.241113877501327"><ele>139.33333333333334</ele><time>2026-04-18T11:25:58Z</time></trkpt><trkpt lat="55.99554760909323" lon="22.24104299019565"><ele>139.0</ele><time>2026-04-18T11:25:59Z</time></trkpt><trkpt lat="55.995700189046886" lon="22.24097157817825"><ele>139.25</ele><time>2026-04-18T11:26:00Z</time></trkpt><trkpt lat="55.99584147001987" lon="22.240904463511207"><ele>139.5</ele><time>2026-04-18T11:26:01Z</time></trkpt><trkpt lat="55.99597100077794" lon="22.240849186583635"><ele>139.75</ele><time>2026-04-18T11:26:02Z</time></trkpt><trkpt lat="55.99609299491258" lon="22.240796099017206"><ele>140.0</ele><time>2026-04-18T11:26:03Z</time></trkpt><trkpt lat="55.996214878546255" lon="22.240742636124494"><ele>140.0</ele><time>2026-04-18T11:26:04Z</time></trkpt><trkpt lat="55.99634608560523" lon="22.24067721499104"><ele>140.0</ele><time>2026-04-18T11:26:05Z</time></trkpt><trkpt lat="55.99647718997109" lon="22.240621563904984"><ele>140.0</ele><time>2026-04-18T11:26:06Z</time></trkpt><trkpt lat="55.996612278685774" lon="22.240566413601357"><ele>140.0</ele><time>2026-04-18T11:26:07Z</time></trkpt><trkpt lat="55.99674293858346" lon="22.24050293258965"><ele>139.75</ele><time>2026-04-18T11:26:08Z</time></trkpt><trkpt lat="55.99687376435598" lon="22.240442453330058"><ele>139.5</ele><time>2026-04-18T11:26:09Z</time></trkpt><trkpt lat="55.997007586946914" lon="22.24038346820068"><ele>139.25</ele><time>2026-04-18T11:26:10Z</time></trkpt><trkpt lat="55.99715478271445" lon="22.240328748403105"><ele>139.0</ele><time>2026-04-18T11:26:11Z</time></trkpt><trkpt lat="55.99731351300114" lon="22.24026197275886"><ele>139.0</ele><time>2026-04-18T11:26:12Z</time></trkpt><trkpt lat="55.9974879217764" lon="22.24018586352726"><ele>139.0</ele><time>2026-04-18T11:26:13Z</time></trkpt><trkpt lat="55.99767303183903" lon="22.240108757992136"><ele>139.0</ele><time>2026-04-18T11:26:14Z</time></trkpt><trkpt lat="55.997854364914" lon="22.240033490004798"><ele>138.66666666666669</ele><time>2026-04-18T11:26:15Z</time></trkpt><trkpt lat="55.99802560759158" lon="22.23995276645541"><ele>138.33333333333334</ele><time>2026-04-18T11:26:16Z</time></trkpt><trkpt lat="55.99817915775324" lon="22.239879871809325"><ele>138.0</ele><time>2026-04-18T11:26:17Z</time></trkpt><trkpt lat="55.99832597738501" lon="22.239819872553966"><ele>138.0</ele><time>2026-04-18T11:26:18Z</time></trkpt><trkpt lat="55.99846651630098" lon="22.23976177329195"><ele>138.0</ele><time>2026-04-18T11:26:19Z</time></trkpt><trkpt lat="55.99859876256207" lon="22.239706829084863"><ele>138.0</ele><time>2026-04-18T11:26:20Z</time></trkpt><trkpt lat="55.99871132661259" lon="22.239658861753114"><ele>138.0</ele><time>2026-04-18T11:26:21Z</time></trkpt><trkpt lat="55.998803700460556" lon="22.239624382327467"><ele>138.0</ele><time>2026-04-18T11:26:22Z</time></trkpt><trkpt lat="55.99887905923911" lon="22.239593700652833"><ele>138.0</ele><time>2026-04-18T11:26:23Z</time></trkpt><trkpt lat="55.99898070125112" lon="22.239544704123347"><ele>138.0</ele><time>2026-04-18T11:26:25Z</time></trkpt><trkpt lat="55.99907441491156" lon="22.23957605162759"><ele>138.0</ele><time>2026-04-18T11:26:27Z</time></trkpt><trkpt lat="55.99918930773931" lon="22.239612640781676"><ele>138.0</ele><time>2026-04-18T11:26:29Z</time></trkpt><trkpt lat="55.99925526523074" lon="22.239549517513368"><ele>138.0</ele><time>2026-04-18T11:26:30Z</time></trkpt><trkpt lat="55.99932632474985" lon="22.239437310952425"><ele>138.0</ele><time>2026-04-18T11:26:31Z</time></trkpt><trkpt lat="55.99941457409568" lon="22.23933306181598"><ele>138.0</ele><time>2026-04-18T11:26:32Z</time></trkpt><trkpt lat="55.99952960140106" lon="22.239273967305685"><ele>138.0</ele><time>2026-04-18T11:26:33Z</time></trkpt><trkpt lat="55.99966057711323" lon="22.239236931652396"><ele>138.0</ele><time>2026-04-18T11:26:34Z</time></trkpt><trkpt lat="55.999809605266414" lon="22.239187858390704"><ele>138.0</ele><time>2026-04-18T11:26:35Z</time></trkpt><trkpt lat="55.99996145277472" lon="22.23912136582263"><ele>138.0</ele><time>2026-04-18T11:26:36Z</time></trkpt><trkpt lat="56.00010769405387" lon="22.23904867982338"><ele>138.0</ele><time>2026-04-18T11:26:37Z</time></trkpt><trkpt lat="56.00027201700789" lon="22.238981402717787"><ele>138.0</ele><time>2026-04-18T11:26:38Z</time></trkpt><trkpt lat="56.000454449041804" lon="22.238911546631233"><ele>138.0</ele><time>2026-04-18T11:26:39Z</time></trkpt><trkpt lat="56.000648504679894" lon="22.23883680907479"><ele>138.0</ele><time>2026-04-18T11:26:40Z</time></trkpt><trkpt lat="56.00083179750568" lon="22.238784271561112"><ele>138.0</ele><time>2026-04-18T11:26:41Z</time></trkpt><trkpt lat="56.00101954462819" lon="22.23875342986828"><ele>138.0</ele><time>2026-04-18T11:26:42Z</time></trkpt><trkpt lat="56.00120863716803" lon="22.238729565153704"><ele>138.0</ele><time>2026-04-18T11:26:43Z</time></trkpt><trkpt lat="56.001414785433006" lon="22.23870418988089"><ele>138.0</ele><time>2026-04-18T11:26:44Z</time></trkpt><trkpt lat="56.00163168841639" lon="22.23868441852968"><ele>138.0</ele><time>2026-04-18T11:26:45Z</time></trkpt><trkpt lat="56.00185351503186" lon="22.238666722265055"><ele>137.66666666666666</ele><time>2026-04-18T11:26:46Z</time></trkpt><trkpt lat="56.00207020015214" lon="22.238646825927166"><ele>137.33333333333331</ele><time>2026-04-18T11:26:47Z</time></trkpt><trkpt lat="56.002258782938235" lon="22.238629722393267"><ele>137.0</ele><time>2026-04-18T11:26:48Z</time></trkpt><trkpt lat="56.00242949739857" lon="22.238619078659948"><ele>136.75</ele><time>2026-04-18T11:26:49Z</time></trkpt><trkpt lat="56.00258137693215" lon="22.238612142876313"><ele>136.5</ele><time>2026-04-18T11:26:50Z</time></trkpt><trkpt lat="56.00272394651911" lon="22.238601088418534"><ele>136.25</ele><time>2026-04-18T11:26:51Z</time></trkpt><trkpt lat="56.002874994536846" lon="22.238583811127"><ele>136.0</ele><time>2026-04-18T11:26:52Z</time></trkpt><trkpt lat="56.003031852006366" lon="22.238560232583847"><ele>136.0</ele><time>2026-04-18T11:26:53Z</time></trkpt><trkpt lat="56.0032034630572" lon="22.238519153648966"><ele>136.0</ele><time>2026-04-18T11:26:54Z</time></trkpt><trkpt lat="56.00339259736357" lon="22.238476771572028"><ele>136.0</ele><time>2026-04-18T11:26:55Z</time></trkpt><trkpt lat="56.003565296102224" lon="22.23846135408118"><ele>136.2</ele><time>2026-04-18T11:26:56Z</time></trkpt><trkpt lat="56.00371505440997" lon="22.238453384326057"><ele>136.39999999999998</ele><time>2026-04-18T11:26:57Z</time></trkpt><trkpt lat="56.0038347876769" lon="22.23844022586536"><ele>136.6</ele><time>2026-04-18T11:26:58Z</time></trkpt><trkpt lat="56.00393052228246" lon="22.238430702883868"><ele>136.79999999999998</ele><time>2026-04-18T11:26:59Z</time></trkpt><trkpt lat="56.00400709938009" lon="22.23842280082213"><ele>137.0</ele><time>2026-04-18T11:27:00Z</time></trkpt><trkpt lat="56.00407540653547" lon="22.23843676494942"><ele>137.0</ele><time>2026-04-18T11:27:01Z</time></trkpt><trkpt lat="56.0041368322349" lon="22.23848891520732"><ele>137.0</ele><time>2026-04-18T11:27:02Z</time></trkpt><trkpt lat="56.00422674568582" lon="22.23858217567966"><ele>137.0</ele><time>2026-04-18T11:27:04Z</time></trkpt><trkpt lat="56.00432476038268" lon="22.23855514201859"><ele>137.0</ele><time>2026-04-18T11:27:06Z</time></trkpt><trkpt lat="56.00438516240319" lon="22.238461498420513"><ele>137.0</ele><time>2026-04-18T11:27:07Z</time></trkpt><trkpt lat="56.00445888071255" lon="22.23836080241851"><ele>137.0</ele><time>2026-04-18T11:27:08Z</time></trkpt><trkpt lat="56.00456217193616" lon="22.23828244806654"><ele>137.25</ele><time>2026-04-18T11:27:09Z</time></trkpt><trkpt lat="56.00468000014612" lon="22.23823681597256"><ele>137.5</ele><time>2026-04-18T11:27:10Z</time></trkpt><trkpt lat="56.004831130012995" lon="22.23814937572753"><ele>137.75</ele><time>2026-04-18T11:27:11Z</time></trkpt><trkpt lat="56.0049883781633" lon="22.238036834988065"><ele>138.0</ele><time>2026-04-18T11:27:12Z</time></trkpt><trkpt lat="56.00514160718083" lon="22.23789777881505"><ele>138.0</ele><time>2026-04-18T11:27:13Z</time></trkpt><trkpt lat="56.00531535145013" lon="22.237747826135237"><ele>138.0</ele><time>2026-04-18T11:27:14Z</time></trkpt><trkpt lat="56.0054786878677" lon="22.23753429346514"><ele>138.0</ele><time>2026-04-18T11:27:15Z</time></trkpt><trkpt lat="56.00563744191529" lon="22.23729262026775"><ele>137.33333333333334</ele><time>2026-04-18T11:27:16Z</time></trkpt><trkpt lat="56.00577614446369" lon="22.237037159495575"><ele>136.66666666666669</ele><time>2026-04-18T11:27:17Z</time></trkpt><trkpt lat="56.005906925900774" lon="22.23677556884185"><ele>136.0</ele><time>2026-04-18T11:27:18Z</time></trkpt><trkpt lat="56.00604289825532" lon="22.236494442957042"><ele>134.66666666666669</ele><time>2026-04-18T11:27:19Z</time></trkpt><trkpt lat="56.00617973918182" lon="22.236197328536147"><ele>133.33333333333334</ele><time>2026-04-18T11:27:20Z</time></trkpt><trkpt lat="56.00631876866113" lon="22.23589196107564"><ele>132.0</ele><time>2026-04-18T11:27:21Z</time></trkpt><trkpt lat="56.00645457052457" lon="22.235591206396865"><ele>132.0</ele><time>2026-04-18T11:27:22Z</time></trkpt><trkpt lat="56.00658470501771" lon="22.23530338073302"><ele>132.0</ele><time>2026-04-18T11:27:23Z</time></trkpt><trkpt lat="56.006715152273955" lon="22.235015214444747"><ele>132.0</ele><time>2026-04-18T11:27:24Z</time></trkpt><trkpt lat="56.00684404235359" lon="22.23472991032933"><ele>132.33333333333334</ele><time>2026-04-18T11:27:25Z</time></trkpt><trkpt lat="56.006972090460195" lon="22.234445348009192"><ele>132.66666666666669</ele><time>2026-04-18T11:27:26Z</time></trkpt><trkpt lat="56.00710011913823" lon="22.23416146979588"><ele>133.0</ele><time>2026-04-18T11:27:27Z</time></trkpt><trkpt lat="56.00722626193912" lon="22.23388309049364"><ele>132.33333333333334</ele><time>2026-04-18T11:27:28Z</time></trkpt><trkpt lat="56.00735615063734" lon="22.233594554495"><ele>131.66666666666666</ele><time>2026-04-18T11:27:29Z</time></trkpt><trkpt lat="56.00748801677511" lon="22.233304808510166"><ele>131.0</ele><time>2026-04-18T11:27:30Z</time></trkpt><trkpt lat="56.00762875008582" lon="22.23299752196638"><ele>132.66666666666666</ele><time>2026-04-18T11:27:31Z</time></trkpt><trkpt lat="56.00776556102887" lon="22.23269880370057"><ele>134.33333333333334</ele><time>2026-04-18T11:27:32Z</time></trkpt><trkpt lat="56.00789771084122" lon="22.232409948685593"><ele>136.0</ele><time>2026-04-18T11:27:33Z</time></trkpt><trkpt lat="56.008031760527174" lon="22.232116940898916"><ele>137.0</ele><time>2026-04-18T11:27:34Z</time></trkpt><trkpt lat="56.00815528308164" lon="22.23185522898711"><ele>138.0</ele><time>2026-04-18T11:27:35Z</time></trkpt><trkpt lat="56.008292314526905" lon="22.23157069270622"><ele>139.0</ele><time>2026-04-18T11:27:36Z</time></trkpt><trkpt lat="56.00841883675955" lon="22.23132071303061"><ele>139.0</ele><time>2026-04-18T11:27:37Z</time></trkpt><trkpt lat="56.008561878692205" lon="22.23106786706364"><ele>139.0</ele><time>2026-04-18T11:27:38Z</time></trkpt><trkpt lat="56.008706104690425" lon="22.230849155304647"><ele>139.0</ele><time>2026-04-18T11:27:39Z</time></trkpt><trkpt lat="56.00886213183902" lon="22.230648599088227"><ele>137.66666666666669</ele><time>2026-04-18T11:27:40Z</time></trkpt><trkpt lat="56.0090319891212" lon="22.230471679599646"><ele>136.33333333333334</ele><time>2026-04-18T11:27:41Z</time></trkpt><trkpt lat="56.00921323276226" lon="22.230303598947295"><ele>135.0</ele><time>2026-04-18T11:27:42Z</time></trkpt><trkpt lat="56.00942081703762" lon="22.23013967088506"><ele>134.0</ele><time>2026-04-18T11:27:43Z</time></trkpt><trkpt lat="56.00962485274228" lon="22.229984705150972"><ele>133.0</ele><time>2026-04-18T11:27:44Z</time></trkpt><trkpt lat="56.00983098056585" lon="22.229799343624972"><ele>132.0</ele><time>2026-04-18T11:27:45Z</time></trkpt><trkpt lat="56.010051620929644" lon="22.22963721623849"><ele>131.0</ele><time>2026-04-18T11:27:46Z</time></trkpt><trkpt lat="56.01027745723" lon="22.22949860805372"><ele>131.0</ele><time>2026-04-18T11:27:47Z</time></trkpt><trkpt lat="56.010497042356725" lon="22.229336411147433"><ele>131.0</ele><time>2026-04-18T11:27:48Z</time></trkpt><trkpt lat="56.01070640591711" lon="22.229151292966463"><ele>132.33333333333331</ele><time>2026-04-18T11:27:49Z</time></trkpt><trkpt lat="56.01091573431091" lon="22.22900099394923"><ele>133.66666666666666</ele><time>2026-04-18T11:27:50Z</time></trkpt><trkpt lat="56.01111310234623" lon="22.22886214477719"><ele>135.0</ele><time>2026-04-18T11:27:51Z</time></trkpt><trkpt lat="56.01131398259762" lon="22.22871059368765"><ele>135.0</ele><time>2026-04-18T11:27:52Z</time></trkpt><trkpt lat="56.01152296249417" lon="22.228590089271353"><ele>135.0</ele><time>2026-04-18T11:27:53Z</time></trkpt><trkpt lat="56.01172138121505" lon="22.22844827020028"><ele>135.0</ele><time>2026-04-18T11:27:54Z</time></trkpt><trkpt lat="56.01191367198546" lon="22.228310812343835"><ele>134.33333333333334</ele><time>2026-04-18T11:27:55Z</time></trkpt><trkpt lat="56.012094326225885" lon="22.228181633694224"><ele>133.66666666666669</ele><time>2026-04-18T11:27:56Z</time></trkpt><trkpt lat="56.012251725089044" lon="22.228069100849524"><ele>133.0</ele><time>2026-04-18T11:27:57Z</time></trkpt><trkpt lat="56.01238801450159" lon="22.227943168460126"><ele>133.4</ele><time>2026-04-18T11:27:58Z</time></trkpt><trkpt lat="56.012513008292125" lon="22.22786346771194"><ele>133.8</ele><time>2026-04-18T11:27:59Z</time></trkpt><trkpt lat="56.01262116405491" lon="22.227799556564378"><ele>134.2</ele><time>2026-04-18T11:28:00Z</time></trkpt><trkpt lat="56.012715506103966" lon="22.22774073857818"><ele>134.6</ele><time>2026-04-18T11:28:01Z</time></trkpt><trkpt lat="56.01279352088812" lon="22.227680329262753"><ele>135.0</ele><time>2026-04-18T11:28:02Z</time></trkpt><trkpt lat="56.012856465620835" lon="22.22762657225055"><ele>135.0</ele><time>2026-04-18T11:28:03Z</time></trkpt><trkpt lat="56.01297360563033" lon="22.227576091831455"><ele>135.0</ele><time>2026-04-18T11:28:05Z</time></trkpt><trkpt lat="56.01307680975074" lon="22.227556017900678"><ele>135.0</ele><time>2026-04-18T11:28:07Z</time></trkpt><trkpt lat="56.01317032302378" lon="22.227708084663192"><ele>135.0</ele><time>2026-04-18T11:28:08Z</time></trkpt><trkpt lat="56.013250644187856" lon="22.22783903434361"><ele>134.66666666666666</ele><time>2026-04-18T11:28:09Z</time></trkpt><trkpt lat="56.013346163331924" lon="22.228022198146046"><ele>134.33333333333331</ele><time>2026-04-18T11:28:10Z</time></trkpt><trkpt lat="56.01346296817614" lon="22.228242311765165"><ele>134.0</ele><time>2026-04-18T11:28:11Z</time></trkpt><trkpt lat="56.01358692664084" lon="22.228461043972572"><ele>134.0</ele><time>2026-04-18T11:28:12Z</time></trkpt><trkpt lat="56.01371688821414" lon="22.228672484771902"><ele>134.0</ele><time>2026-04-18T11:28:13Z</time></trkpt><trkpt lat="56.01385935674984" lon="22.228896081847164"><ele>134.0</ele><time>2026-04-18T11:28:14Z</time></trkpt><trkpt lat="56.01402275674958" lon="22.229128085635306"><ele>133.33333333333331</ele><time>2026-04-18T11:28:15Z</time></trkpt><trkpt lat="56.014188603143374" lon="22.22933619440554"><ele>132.66666666666666</ele><time>2026-04-18T11:28:16Z</time></trkpt><trkpt lat="56.01434827971113" lon="22.229561740412645"><ele>132.0</ele><time>2026-04-18T11:28:17Z</time></trkpt><trkpt lat="56.01452830481418" lon="22.229758191513532"><ele>131.66666666666666</ele><time>2026-04-18T11:28:18Z</time></trkpt><trkpt lat="56.01471172674148" lon="22.229939913912865"><ele>131.33333333333331</ele><time>2026-04-18T11:28:19Z</time></trkpt><trkpt lat="56.01491304768505" lon="22.230097305852834"><ele>131.0</ele><time>2026-04-18T11:28:20Z</time></trkpt><trkpt lat="56.01511432581691" lon="22.23027215613056"><ele>131.33333333333331</ele><time>2026-04-18T11:28:21Z</time></trkpt><trkpt lat="56.01531559796063" lon="22.23042665928117"><ele>131.66666666666666</ele><time>2026-04-18T11:28:22Z</time></trkpt><trkpt lat="56.015521899524614" lon="22.230567222999714"><ele>132.0</ele><time>2026-04-18T11:28:23Z</time></trkpt><trkpt lat="56.01573102722536" lon="22.230693504772336"><ele>132.0</ele><time>2026-04-18T11:28:24Z</time></trkpt><trkpt lat="56.01594541498572" lon="22.23081194003381"><ele>132.0</ele><time>2026-04-18T11:28:25Z</time></trkpt><trkpt lat="56.01616104293845" lon="22.23092964842317"><ele>132.0</ele><time>2026-04-18T11:28:26Z</time></trkpt><trkpt lat="56.016368951606026" lon="22.231074495934635"><ele>132.0</ele><time>2026-04-18T11:28:27Z</time></trkpt><trkpt lat="56.01657959848828" lon="22.231157797053072"><ele>132.0</ele><time>2026-04-18T11:28:28Z</time></trkpt><trkpt lat="56.016782751253245" lon="22.231266416373362"><ele>132.66666666666666</ele><time>2026-04-18T11:28:29Z</time></trkpt><trkpt lat="56.01697599058513" lon="22.23137167367441"><ele>133.33333333333331</ele><time>2026-04-18T11:28:30Z</time></trkpt><trkpt lat="56.017182120151865" lon="22.231483495751906"><ele>134.0</ele><time>2026-04-18T11:28:31Z</time></trkpt><trkpt lat="56.01739021256475" lon="22.231596901368"><ele>135.66666666666666</ele><time>2026-04-18T11:28:32Z</time></trkpt><trkpt lat="56.01760787275815" lon="22.23171214552203"><ele>137.33333333333334</ele><time>2026-04-18T11:28:33Z</time></trkpt><trkpt lat="56.01781729043786" lon="22.231825145927676"><ele>139.0</ele><time>2026-04-18T11:28:34Z</time></trkpt><trkpt lat="56.01803935287576" lon="22.231941351052743"><ele>139.0</ele><time>2026-04-18T11:28:35Z</time></trkpt><trkpt lat="56.01826206631353" lon="22.23205612444074"><ele>139.0</ele><time>2026-04-18T11:28:36Z</time></trkpt><trkpt lat="56.018488623522906" lon="22.23217287233833"><ele>139.5</ele><time>2026-04-18T11:28:37Z</time></trkpt><trkpt lat="56.01872704788663" lon="22.232297415044016"><ele>140.0</ele><time>2026-04-18T11:28:38Z</time></trkpt><trkpt lat="56.01896578702942" lon="22.232421528555754"><ele>140.5</ele><time>2026-04-18T11:28:39Z</time></trkpt><trkpt lat="56.01919326044704" lon="22.232538028892204"><ele>141.0</ele><time>2026-04-18T11:28:40Z</time></trkpt><trkpt lat="56.01943465056754" lon="22.232658659600276"><ele>141.0</ele><time>2026-04-18T11:28:41Z</time></trkpt><trkpt lat="56.019672828570094" lon="22.232781748395585"><ele>141.0</ele><time>2026-04-18T11:28:42Z</time></trkpt><trkpt lat="56.0199050483616" lon="22.232905145917655"><ele>141.5</ele><time>2026-04-18T11:28:43Z</time></trkpt><trkpt lat="56.02013357444146" lon="22.233027783809884"><ele>142.0</ele><time>2026-04-18T11:28:44Z</time></trkpt><trkpt lat="56.02037122217581" lon="22.233148529476765"><ele>142.0</ele><time>2026-04-18T11:28:45Z</time></trkpt><trkpt lat="56.0206030010548" lon="22.23327431035155"><ele>142.0</ele><time>2026-04-18T11:28:46Z</time></trkpt><trkpt lat="56.02083439391832" lon="22.23339840362129"><ele>141.0</ele><time>2026-04-18T11:28:47Z</time></trkpt><trkpt lat="56.02106534674183" lon="22.2335173106423"><ele>140.0</ele><time>2026-04-18T11:28:48Z</time></trkpt><trkpt lat="56.02128528982338" lon="22.233638243001995"><ele>140.0</ele><time>2026-04-18T11:28:49Z</time></trkpt><trkpt lat="56.02151372228632" lon="22.233763228331963"><ele>140.0</ele><time>2026-04-18T11:28:50Z</time></trkpt><trkpt lat="56.021735566971365" lon="22.23388924739526"><ele>139.66666666666666</ele><time>2026-04-18T11:28:51Z</time></trkpt><trkpt lat="56.02193509001967" lon="22.233999813290833"><ele>139.33333333333334</ele><time>2026-04-18T11:28:52Z</time></trkpt><trkpt lat="56.022119315795685" lon="22.234098036575524"><ele>139.0</ele><time>2026-04-18T11:28:53Z</time></trkpt><trkpt lat="56.02229363099858" lon="22.234192531043554"><ele>139.0</ele><time>2026-04-18T11:28:54Z</time></trkpt><trkpt lat="56.02245606461336" lon="22.234294704341394"><ele>139.0</ele><time>2026-04-18T11:28:55Z</time></trkpt><trkpt lat="56.02262255956254" lon="22.234408366324153"><ele>139.0</ele><time>2026-04-18T11:28:56Z</time></trkpt><trkpt lat="56.0227872915067" lon="22.234524428182393"><ele>138.33333333333334</ele><time>2026-04-18T11:28:57Z</time></trkpt><trkpt lat="56.022955384734146" lon="22.234649998455918"><ele>137.66666666666666</ele><time>2026-04-18T11:28:58Z</time></trkpt><trkpt lat="56.02312311206145" lon="22.234788196668582"><ele>137.0</ele><time>2026-04-18T11:28:59Z</time></trkpt><trkpt lat="56.02328926697821" lon="22.234930960733156"><ele>135.66666666666666</ele><time>2026-04-18T11:29:00Z</time></trkpt><trkpt lat="56.023479168182035" lon="22.235088553562807"><ele>134.33333333333334</ele><time>2026-04-18T11:29:01Z</time></trkpt><trkpt lat="56.02368971072236" lon="22.23527336675933"><ele>133.0</ele><time>2026-04-18T11:29:02Z</time></trkpt><trkpt lat="56.023898522190265" lon="22.235471619948196"><ele>133.0</ele><time>2026-04-18T11:29:03Z</time></trkpt><trkpt lat="56.02410529317271" lon="22.23566934696164"><ele>133.0</ele><time>2026-04-18T11:29:04Z</time></trkpt><trkpt lat="56.024309721567946" lon="22.235865912995877"><ele>132.5</ele><time>2026-04-18T11:29:05Z</time></trkpt><trkpt lat="56.024509833097746" lon="22.23606552676748"><ele>132.0</ele><time>2026-04-18T11:29:06Z</time></trkpt><trkpt lat="56.024707230217054" lon="22.23627306109396"><ele>132.0</ele><time>2026-04-18T11:29:07Z</time></trkpt><trkpt lat="56.024912563205895" lon="22.23650215271887"><ele>132.0</ele><time>2026-04-18T11:29:08Z</time></trkpt><trkpt lat="56.02511945698254" lon="22.23674901763174"><ele>131.5</ele><time>2026-04-18T11:29:09Z</time></trkpt><trkpt lat="56.02532581714217" lon="22.237020162300592"><ele>131.0</ele><time>2026-04-18T11:29:10Z</time></trkpt><trkpt lat="56.02552224369577" lon="22.237299342854662"><ele>131.0</ele><time>2026-04-18T11:29:11Z</time></trkpt><trkpt lat="56.02569659473383" lon="22.237556093218377"><ele>131.0</ele><time>2026-04-18T11:29:12Z</time></trkpt><trkpt lat="56.02585125333796" lon="22.23778075083076"><ele>131.0</ele><time>2026-04-18T11:29:13Z</time></trkpt><trkpt lat="56.02598991581834" lon="22.237993302695727"><ele>130.33333333333331</ele><time>2026-04-18T11:29:14Z</time></trkpt><trkpt lat="56.02611685749574" lon="22.238202202504418"><ele>129.66666666666666</ele><time>2026-04-18T11:29:15Z</time></trkpt><trkpt lat="56.026231333931094" lon="22.238399443964493"><ele>129.0</ele><time>2026-04-18T11:29:16Z</time></trkpt><trkpt lat="56.02634013394248" lon="22.2385867426699"><ele>129.0</ele><time>2026-04-18T11:29:17Z</time></trkpt><trkpt lat="56.026449354366655" lon="22.23877502035153"><ele>129.0</ele><time>2026-04-18T11:29:18Z</time></trkpt><trkpt lat="56.026562555123135" lon="22.23897165141555"><ele>129.0</ele><time>2026-04-18T11:29:19Z</time></trkpt><trkpt lat="56.02667705698244" lon="22.239193385295593"><ele>129.0</ele><time>2026-04-18T11:29:20Z</time></trkpt><trkpt lat="56.02678763646272" lon="22.239419546670327"><ele>129.0</ele><time>2026-04-18T11:29:21Z</time></trkpt><trkpt lat="56.02690747641226" lon="22.23966781433507"><ele>129.0</ele><time>2026-04-18T11:29:22Z</time></trkpt><trkpt lat="56.02702568085537" lon="22.239911224325695"><ele>128.33333333333334</ele><time>2026-04-18T11:29:23Z</time></trkpt><trkpt lat="56.02714961516751" lon="22.240163053516866"><ele>127.66666666666667</ele><time>2026-04-18T11:29:24Z</time></trkpt><trkpt lat="56.02727727400023" lon="22.2404200824155"><ele>127.0</ele><time>2026-04-18T11:29:25Z</time></trkpt><trkpt lat="56.02739464709781" lon="22.24066937002794"><ele>127.0</ele><time>2026-04-18T11:29:26Z</time></trkpt><trkpt lat="56.027520266528036" lon="22.24093267898829"><ele>127.0</ele><time>2026-04-18T11:29:27Z</time></trkpt><trkpt lat="56.02764314571852" lon="22.241189828282852"><ele>127.0</ele><time>2026-04-18T11:29:28Z</time></trkpt><trkpt lat="56.027766161253716" lon="22.241446182139633"><ele>126.66666666666667</ele><time>2026-04-18T11:29:29Z</time></trkpt><trkpt lat="56.0278898823034" lon="22.24171271197547"><ele>126.33333333333334</ele><time>2026-04-18T11:29:30Z</time></trkpt><trkpt lat="56.02801430382995" lon="22.241985185456837"><ele>126.0</ele><time>2026-04-18T11:29:31Z</time></trkpt><trkpt lat="56.02813458072484" lon="22.242257183533336"><ele>125.33333333333334</ele><time>2026-04-18T11:29:32Z</time></trkpt><trkpt lat="56.02825170624203" lon="22.242533917832024"><ele>124.66666666666667</ele><time>2026-04-18T11:29:33Z</time></trkpt><trkpt lat="56.02835436047179" lon="22.242802701524038"><ele>124.0</ele><time>2026-04-18T11:29:34Z</time></trkpt><trkpt lat="56.0284622657752" lon="22.243077823582787"><ele>125.0</ele><time>2026-04-18T11:29:35Z</time></trkpt><trkpt lat="56.02858025020253" lon="22.243365583420857"><ele>126.0</ele><time>2026-04-18T11:29:36Z</time></trkpt><trkpt lat="56.02869800476023" lon="22.24366389932367"><ele>127.0</ele><time>2026-04-18T11:29:37Z</time></trkpt><trkpt lat="56.02881820541378" lon="22.24398799516887"><ele>127.0</ele><time>2026-04-18T11:29:38Z</time></trkpt><trkpt lat="56.02893306157172" lon="22.244319062914027"><ele>127.0</ele><time>2026-04-18T11:29:39Z</time></trkpt><trkpt lat="56.02904395000146" lon="22.244669428459602"><ele>127.0</ele><time>2026-04-18T11:29:40Z</time></trkpt><trkpt lat="56.02915025633222" lon="22.24502651371708"><ele>127.0</ele><time>2026-04-18T11:29:41Z</time></trkpt><trkpt lat="56.029250289802704" lon="22.24538535554085"><ele>127.0</ele><time>2026-04-18T11:29:42Z</time></trkpt><trkpt lat="56.02935130160976" lon="22.24576203019043"><ele>127.0</ele><time>2026-04-18T11:29:43Z</time></trkpt><trkpt lat="56.029444769027116" lon="22.24612724286753"><ele>127.0</ele><time>2026-04-18T11:29:44Z</time></trkpt><trkpt lat="56.02953439637592" lon="22.246488232989314"><ele>127.0</ele><time>2026-04-18T11:29:45Z</time></trkpt><trkpt lat="56.02961634902939" lon="22.246833467411566"><ele>126.66666666666667</ele><time>2026-04-18T11:29:46Z</time></trkpt><trkpt lat="56.02968365907996" lon="22.247134316178872"><ele>126.33333333333334</ele><time>2026-04-18T11:29:47Z</time></trkpt><trkpt lat="56.02973928389536" lon="22.247397842962854"><ele>126.0</ele><time>2026-04-18T11:29:48Z</time></trkpt><trkpt lat="56.02978496215762" lon="22.247624152614357"><ele>126.0</ele><time>2026-04-18T11:29:49Z</time></trkpt><trkpt lat="56.02982380744946" lon="22.247806038183366"><ele>126.0</ele><time>2026-04-18T11:29:50Z</time></trkpt><trkpt lat="56.02985436405127" lon="22.247948941443862"><ele>126.0</ele><time>2026-04-18T11:29:51.001Z</time></trkpt><trkpt lat="56.02988344948394" lon="22.24805648698132"><ele>126.0</ele><time>2026-04-18T11:29:52.001Z</time></trkpt><trkpt lat="56.02995110958086" lon="22.248148149415695"><ele>126.0</ele><time>2026-04-18T11:29:54.001Z</time></trkpt><trkpt lat="56.03002813239993" lon="22.248137672354517"><ele>126.0</ele><time>2026-04-18T11:29:57.001Z</time></trkpt><trkpt lat="56.030113591123104" lon="22.248094725768166"><ele>126.6</ele><time>2026-04-18T11:29:59.001Z</time></trkpt><trkpt lat="56.03017901588748" lon="22.248066541579494"><ele>127.19999999999999</ele><time>2026-04-18T11:30:00.001Z</time></trkpt><trkpt lat="56.03026804211574" lon="22.24803856156235"><ele>127.80000000000001</ele><time>2026-04-18T11:30:01.001Z</time></trkpt><trkpt lat="56.03037234294412" lon="22.248022961262805"><ele>128.4</ele><time>2026-04-18T11:30:02Z</time></trkpt><trkpt lat="56.03047214124444" lon="22.248026242493776"><ele>129.0</ele><time>2026-04-18T11:30:03Z</time></trkpt><trkpt lat="56.030571497226745" lon="22.248043105719223"><ele>129.0</ele><time>2026-04-18T11:30:04Z</time></trkpt><trkpt lat="56.0307030377049" lon="22.248072739846688"><ele>129.0</ele><time>2026-04-18T11:30:05Z</time></trkpt><trkpt lat="56.030823166749855" lon="22.24818972878617"><ele>129.0</ele><time>2026-04-18T11:30:06Z</time></trkpt><trkpt lat="56.03092831777674" lon="22.248193779991702"><ele>129.0</ele><time>2026-04-18T11:30:07Z</time></trkpt><trkpt lat="56.031010347406685" lon="22.248238341575256"><ele>130.4</ele><time>2026-04-18T11:30:08Z</time></trkpt><trkpt lat="56.03109430407316" lon="22.248272477521194"><ele>131.8</ele><time>2026-04-18T11:30:09Z</time></trkpt><trkpt lat="56.031168341712906" lon="22.248267920534126"><ele>133.2</ele><time>2026-04-18T11:30:10Z</time></trkpt><trkpt lat="56.031263236107" lon="22.248232891230774"><ele>134.6</ele><time>2026-04-18T11:30:11Z</time></trkpt><trkpt lat="56.031359582239496" lon="22.248202200245196"><ele>136.0</ele><time>2026-04-18T11:30:12Z</time></trkpt><trkpt lat="56.03145567968194" lon="22.24821559874959"><ele>136.0</ele><time>2026-04-18T11:30:13Z</time></trkpt><trkpt lat="56.03154710818007" lon="22.24817621313483"><ele>136.0</ele><time>2026-04-18T11:30:14Z</time></trkpt><trkpt lat="56.03164123472434" lon="22.248156924331724"><ele>136.0</ele><time>2026-04-18T11:30:15Z</time></trkpt><trkpt lat="56.03172146875607" lon="22.248140906713207"><ele>136.0</ele><time>2026-04-18T11:30:16Z</time></trkpt><trkpt lat="56.03178455127176" lon="22.24812835909343"><ele>136.0</ele><time>2026-04-18T11:30:17Z</time></trkpt><trkpt lat="56.031847407359635" lon="22.248109777869708"><ele>136.0</ele><time>2026-04-18T11:30:18Z</time></trkpt><trkpt lat="56.03192251216463" lon="22.248087747688555"><ele>136.0</ele><time>2026-04-18T11:30:19Z</time></trkpt><trkpt lat="56.03200303175559" lon="22.248064129208114"><ele>136.0</ele><time>2026-04-18T11:30:20Z</time></trkpt><trkpt lat="56.032088805966474" lon="22.248039229896257"><ele>136.0</ele><time>2026-04-18T11:30:21Z</time></trkpt><trkpt lat="56.032161536684946" lon="22.248022396760017"><ele>136.0</ele><time>2026-04-18T11:30:22Z</time></trkpt><trkpt lat="56.03224553813186" lon="22.247947379891794"><ele>136.0</ele><time>2026-04-18T11:30:23Z</time></trkpt><trkpt lat="56.03234755581408" lon="22.247903246467203"><ele>136.0</ele><time>2026-04-18T11:30:24Z</time></trkpt><trkpt lat="56.03243818839807" lon="22.24780666758828"><ele>136.8</ele><time>2026-04-18T11:30:25Z</time></trkpt><trkpt lat="56.0325510332276" lon="22.247680842275212"><ele>137.6</ele><time>2026-04-18T11:30:26Z</time></trkpt><trkpt lat="56.03266244990027" lon="22.247557944639297"><ele>138.4</ele><time>2026-04-18T11:30:27Z</time></trkpt><trkpt lat="56.03274253129351" lon="22.247491811110166"><ele>139.2</ele><time>2026-04-18T11:30:28Z</time></trkpt><trkpt lat="56.03282549017875" lon="22.247420482371254"><ele>140.0</ele><time>2026-04-18T11:30:29Z</time></trkpt><trkpt lat="56.03290606168924" lon="22.247351617319303"><ele>140.0</ele><time>2026-04-18T11:30:30Z</time></trkpt><trkpt lat="56.03298511797864" lon="22.2473066158028"><ele>140.0</ele><time>2026-04-18T11:30:31Z</time></trkpt><trkpt lat="56.033100673511605" lon="22.247258576194223"><ele>140.0</ele><time>2026-04-18T11:30:32Z</time></trkpt><trkpt lat="56.03326173183302" lon="22.24716871051929"><ele>140.0</ele><time>2026-04-18T11:30:33Z</time></trkpt><trkpt lat="56.03342748501834" lon="22.24715432020131"><ele>140.5</ele><time>2026-04-18T11:30:34Z</time></trkpt><trkpt lat="56.03356064262192" lon="22.247157263890713"><ele>141.0</ele><time>2026-04-18T11:30:35Z</time></trkpt><trkpt lat="56.03367426415193" lon="22.247196755731945"><ele>141.5</ele><time>2026-04-18T11:30:36Z</time></trkpt><trkpt lat="56.03378697839249" lon="22.24720840931933"><ele>142.0</ele><time>2026-04-18T11:30:37Z</time></trkpt><trkpt lat="56.033904340022566" lon="22.247220071752963"><ele>142.0</ele><time>2026-04-18T11:30:38Z</time></trkpt><trkpt lat="56.034010258895485" lon="22.24723077632268"><ele>142.0</ele><time>2026-04-18T11:30:39Z</time></trkpt><trkpt lat="56.034113052505525" lon="22.247241165040414"><ele>142.0</ele><time>2026-04-18T11:30:40Z</time></trkpt><trkpt lat="56.03424104516635" lon="22.24725367308874"><ele>142.0</ele><time>2026-04-18T11:30:41Z</time></trkpt><trkpt lat="56.03440131791316" lon="22.247255617809028"><ele>141.5</ele><time>2026-04-18T11:30:42Z</time></trkpt><trkpt lat="56.0345348402684" lon="22.247311065420423"><ele>141.0</ele><time>2026-04-18T11:30:43Z</time></trkpt><trkpt lat="56.03465002994198" lon="22.247391975727364"><ele>140.5</ele><time>2026-04-18T11:30:44Z</time></trkpt><trkpt lat="56.034772826538116" lon="22.247457167268767"><ele>140.0</ele><time>2026-04-18T11:30:45Z</time></trkpt><trkpt lat="56.034919282910636" lon="22.247531209715422"><ele>139.33333333333331</ele><time>2026-04-18T11:30:46Z</time></trkpt><trkpt lat="56.0350660270141" lon="22.247599942766605"><ele>138.66666666666666</ele><time>2026-04-18T11:30:47Z</time></trkpt><trkpt lat="56.03521016993419" lon="22.247667480129312"><ele>138.0</ele><time>2026-04-18T11:30:48Z</time></trkpt><trkpt lat="56.03535429708926" lon="22.247735710111552"><ele>138.0</ele><time>2026-04-18T11:30:49Z</time></trkpt><trkpt lat="56.03547093523353" lon="22.24779071451884"><ele>138.0</ele><time>2026-04-18T11:30:50Z</time></trkpt><trkpt lat="56.03557507062122" lon="22.2478397476513"><ele>138.0</ele><time>2026-04-18T11:30:51Z</time></trkpt><trkpt lat="56.0356804566859" lon="22.247889138120076"><ele>138.0</ele><time>2026-04-18T11:30:52Z</time></trkpt><trkpt lat="56.0357874429021" lon="22.247939278528488"><ele>138.0</ele><time>2026-04-18T11:30:53Z</time></trkpt><trkpt lat="56.03590634693222" lon="22.247968445909077"><ele>138.0</ele><time>2026-04-18T11:30:54Z</time></trkpt><trkpt lat="56.03601245371245" lon="22.248052254778315"><ele>138.0</ele><time>2026-04-18T11:30:55Z</time></trkpt><trkpt lat="56.036123221261825" lon="22.248111324610836"><ele>138.0</ele><time>2026-04-18T11:30:56Z</time></trkpt><trkpt lat="56.036246058447695" lon="22.248173212330112"><ele>138.0</ele><time>2026-04-18T11:30:57Z</time></trkpt><trkpt lat="56.03636446402363" lon="22.24824679234663"><ele>138.0</ele><time>2026-04-18T11:30:58Z</time></trkpt><trkpt lat="56.036484550912135" lon="22.248303248315768"><ele>138.0</ele><time>2026-04-18T11:30:59Z</time></trkpt><trkpt lat="56.03660579688561" lon="22.248349073536975"><ele>138.0</ele><time>2026-04-18T11:31:00Z</time></trkpt><trkpt lat="56.036714904185565" lon="22.248393239171026"><ele>138.0</ele><time>2026-04-18T11:31:01Z</time></trkpt><trkpt lat="56.0368339272319" lon="22.248419259018323"><ele>138.25</ele><time>2026-04-18T11:31:02Z</time></trkpt><trkpt lat="56.03695588589954" lon="22.24841928407248"><ele>138.5</ele><time>2026-04-18T11:31:03Z</time></trkpt><trkpt lat="56.03707696455458" lon="22.248441277043916"><ele>138.75</ele><time>2026-04-18T11:31:04Z</time></trkpt><trkpt lat="56.037191428058854" lon="22.24844127704661"><ele>139.0</ele><time>2026-04-18T11:31:05Z</time></trkpt><trkpt lat="56.037313437634054" lon="22.2483977938862"><ele>139.0</ele><time>2026-04-18T11:31:06Z</time></trkpt><trkpt lat="56.03742368971924" lon="22.248355929304434"><ele>139.0</ele><time>2026-04-18T11:31:07Z</time></trkpt><trkpt lat="56.037542188048185" lon="22.24831099559596"><ele>139.0</ele><time>2026-04-18T11:31:08Z</time></trkpt><trkpt lat="56.03765685910446" lon="22.24826770223101"><ele>139.0</ele><time>2026-04-18T11:31:09Z</time></trkpt><trkpt lat="56.03776731407444" lon="22.248226035645207"><ele>139.0</ele><time>2026-04-18T11:31:10Z</time></trkpt><trkpt lat="56.03787725023986" lon="22.24818445555571"><ele>139.0</ele><time>2026-04-18T11:31:11Z</time></trkpt><trkpt lat="56.0379832151907" lon="22.248144237836684"><ele>139.0</ele><time>2026-04-18T11:31:12Z</time></trkpt><trkpt lat="56.03808597835565" lon="22.248105322799"><ele>139.0</ele><time>2026-04-18T11:31:13Z</time></trkpt><trkpt lat="56.03820867837026" lon="22.248059096986044"><ele>137.25</ele><time>2026-04-18T11:31:14Z</time></trkpt><trkpt lat="56.03833021410213" lon="22.248012972330518"><ele>135.5</ele><time>2026-04-18T11:31:15Z</time></trkpt><trkpt lat="56.03845188071345" lon="22.247955593574694"><ele>133.75</ele><time>2026-04-18T11:31:16Z</time></trkpt><trkpt lat="56.03857879652334" lon="22.247929931138184"><ele>132.0</ele><time>2026-04-18T11:31:17Z</time></trkpt><trkpt lat="56.03870408608621" lon="22.247886383771952"><ele>132.0</ele><time>2026-04-18T11:31:18Z</time></trkpt><trkpt lat="56.03880215251993" lon="22.24785077828221"><ele>132.0</ele><time>2026-04-18T11:31:19Z</time></trkpt><trkpt lat="56.03889414928794" lon="22.24781947771426"><ele>132.0</ele><time>2026-04-18T11:31:20Z</time></trkpt><trkpt lat="56.0389892785031" lon="22.247785211619977"><ele>132.0</ele><time>2026-04-18T11:31:21Z</time></trkpt><trkpt lat="56.03908724412508" lon="22.247740102636786"><ele>132.0</ele><time>2026-04-18T11:31:22Z</time></trkpt><trkpt lat="56.03919386416493" lon="22.2476926801676"><ele>132.0</ele><time>2026-04-18T11:31:23Z</time></trkpt><trkpt lat="56.039311442808874" lon="22.247651732162375"><ele>132.0</ele><time>2026-04-18T11:31:24Z</time></trkpt><trkpt lat="56.03942687839155" lon="22.247610311372007"><ele>132.0</ele><time>2026-04-18T11:31:25Z</time></trkpt><trkpt lat="56.03953461591606" lon="22.247584137533636"><ele>132.0</ele><time>2026-04-18T11:31:26Z</time></trkpt><trkpt lat="56.03964356456921" lon="22.247545316405983"><ele>132.0</ele><time>2026-04-18T11:31:27Z</time></trkpt><trkpt lat="56.03975176977893" lon="22.247497895490245"><ele>132.0</ele><time>2026-04-18T11:31:28Z</time></trkpt><trkpt lat="56.039852060688474" lon="22.24745928400404"><ele>132.0</ele><time>2026-04-18T11:31:29Z</time></trkpt><trkpt lat="56.039960676405116" lon="22.247416069160295"><ele>132.0</ele><time>2026-04-18T11:31:30Z</time></trkpt><trkpt lat="56.0401068501205" lon="22.24736755445006"><ele>132.33333333333334</ele><time>2026-04-18T11:31:31Z</time></trkpt><trkpt lat="56.04026732143763" lon="22.247309325077097"><ele>132.66666666666669</ele><time>2026-04-18T11:31:32Z</time></trkpt><trkpt lat="56.040432819642795" lon="22.247282161560484"><ele>133.0</ele><time>2026-04-18T11:31:33Z</time></trkpt><trkpt lat="56.04059314199975" lon="22.247231614080434"><ele>133.5</ele><time>2026-04-18T11:31:34Z</time></trkpt><trkpt lat="56.04073579192985" lon="22.2471867929516"><ele>134.0</ele><time>2026-04-18T11:31:35Z</time></trkpt><trkpt lat="56.04086311704543" lon="22.247146004537754"><ele>134.5</ele><time>2026-04-18T11:31:36Z</time></trkpt><trkpt lat="56.04098386457068" lon="22.247107632252913"><ele>135.0</ele><time>2026-04-18T11:31:37Z</time></trkpt><trkpt lat="56.04111185634995" lon="22.24706695785564"><ele>135.25</ele><time>2026-04-18T11:31:38Z</time></trkpt><trkpt lat="56.04124647713593" lon="22.24702423182134"><ele>135.5</ele><time>2026-04-18T11:31:39Z</time></trkpt><trkpt lat="56.04138194743723" lon="22.246981796767457"><ele>135.75</ele><time>2026-04-18T11:31:40Z</time></trkpt><trkpt lat="56.041512938459846" lon="22.24693940648015"><ele>136.0</ele><time>2026-04-18T11:31:41Z</time></trkpt><trkpt lat="56.04166004615264" lon="22.246889842785755"><ele>136.0</ele><time>2026-04-18T11:31:42Z</time></trkpt><trkpt lat="56.04179468640082" lon="22.246844089677143"><ele>136.0</ele><time>2026-04-18T11:31:43Z</time></trkpt><trkpt lat="56.04193777409504" lon="22.24679582179206"><ele>136.0</ele><time>2026-04-18T11:31:44Z</time></trkpt><trkpt lat="56.04210330258499" lon="22.246740943076674"><ele>136.0</ele><time>2026-04-18T11:31:45Z</time></trkpt><trkpt lat="56.04228901065641" lon="22.24667833710578"><ele>136.0</ele><time>2026-04-18T11:31:46Z</time></trkpt><trkpt lat="56.042451407492436" lon="22.246623589802876"><ele>136.0</ele><time>2026-04-18T11:31:47Z</time></trkpt><trkpt lat="56.04258263364831" lon="22.24657466364456"><ele>136.5</ele><time>2026-04-18T11:31:48Z</time></trkpt><trkpt lat="56.042705760266756" lon="22.246529279878757"><ele>137.0</ele><time>2026-04-18T11:31:49Z</time></trkpt><trkpt lat="56.04282059411537" lon="22.246486567024558"><ele>137.5</ele><time>2026-04-18T11:31:50Z</time></trkpt><trkpt lat="56.04294117044467" lon="22.246441596393353"><ele>138.0</ele><time>2026-04-18T11:31:51Z</time></trkpt><trkpt lat="56.04306759114839" lon="22.246394579398885"><ele>138.0</ele><time>2026-04-18T11:31:52Z</time></trkpt><trkpt lat="56.043194862662745" lon="22.246347457622935"><ele>138.0</ele><time>2026-04-18T11:31:53Z</time></trkpt><trkpt lat="56.043318566993975" lon="22.246301754234057"><ele>138.0</ele><time>2026-04-18T11:31:54Z</time></trkpt><trkpt lat="56.0434273613437" lon="22.246261641797624"><ele>138.0</ele><time>2026-04-18T11:31:55Z</time></trkpt><trkpt lat="56.04351764113252" lon="22.246228056614825"><ele>138.0</ele><time>2026-04-18T11:31:56Z</time></trkpt><trkpt lat="56.04358882986822" lon="22.24618510253502"><ele>138.0</ele><time>2026-04-18T11:31:57.001Z</time></trkpt><trkpt lat="56.04367070334075" lon="22.2461424389744"><ele>138.0</ele><time>2026-04-18T11:31:58.001Z</time></trkpt><trkpt lat="56.04375148397811" lon="22.24612959664298"><ele>138.0</ele><time>2026-04-18T11:31:59.001Z</time></trkpt><trkpt lat="56.043836873003514" lon="22.246084382083104"><ele>138.0</ele><time>2026-04-18T11:32:00.001Z</time></trkpt><trkpt lat="56.04394600488514" lon="22.246052239872718"><ele>138.0</ele><time>2026-04-18T11:32:01.001Z</time></trkpt><trkpt lat="56.044066799111626" lon="22.246024510927313"><ele>137.5</ele><time>2026-04-18T11:32:02.001Z</time></trkpt><trkpt lat="56.04419021734405" lon="22.245979173809918"><ele>137.0</ele><time>2026-04-18T11:32:03.001Z</time></trkpt><trkpt lat="56.04431154492702" lon="22.245934120581527"><ele>136.5</ele><time>2026-04-18T11:32:04.001Z</time></trkpt><trkpt lat="56.04443473028245" lon="22.245888377769262"><ele>136.0</ele><time>2026-04-18T11:32:05.001Z</time></trkpt><trkpt lat="56.044557107801964" lon="22.24584293460952"><ele>136.0</ele><time>2026-04-18T11:32:06.001Z</time></trkpt><trkpt lat="56.04467565376861" lon="22.245773630229003"><ele>136.0</ele><time>2026-04-18T11:32:07.001Z</time></trkpt><trkpt lat="56.04479327105829" lon="22.245738955391733"><ele>136.0</ele><time>2026-04-18T11:32:08Z</time></trkpt><trkpt lat="56.044898914671606" lon="22.24570052184994"><ele>136.0</ele><time>2026-04-18T11:32:09Z</time></trkpt><trkpt lat="56.045003893842825" lon="22.245673848640703"><ele>136.0</ele><time>2026-04-18T11:32:10Z</time></trkpt><trkpt lat="56.04510927305747" lon="22.24563397536191"><ele>136.0</ele><time>2026-04-18T11:32:11Z</time></trkpt><trkpt lat="56.04519664253606" lon="22.24560079154782"><ele>136.0</ele><time>2026-04-18T11:32:12Z</time></trkpt><trkpt lat="56.04526995230028" lon="22.245583218122054"><ele>136.0</ele><time>2026-04-18T11:32:13Z</time></trkpt><trkpt lat="56.045332716090016" lon="22.245555048065103"><ele>136.0</ele><time>2026-04-18T11:32:14Z</time></trkpt><trkpt lat="56.04541600173478" lon="22.2455360035132"><ele>136.0</ele><time>2026-04-18T11:32:15Z</time></trkpt><trkpt lat="56.04550812029028" lon="22.245511800904737"><ele>136.0</ele><time>2026-04-18T11:32:16Z</time></trkpt><trkpt lat="56.045571342820985" lon="22.245492437999545"><ele>136.0</ele><time>2026-04-18T11:32:17Z</time></trkpt><trkpt lat="56.04566846037872" lon="22.24544139037856"><ele>136.0</ele><time>2026-04-18T11:32:19Z</time></trkpt><trkpt lat="56.045750269876855" lon="22.245430794667055"><ele>136.0</ele><time>2026-04-18T11:32:22Z</time></trkpt><trkpt lat="56.04576551727123" lon="22.245194084591194"><ele>136.0</ele><time>2026-04-18T11:32:23Z</time></trkpt><trkpt lat="56.04576959137749" lon="22.24507569778904"><ele>136.0</ele><time>2026-04-18T11:32:24Z</time></trkpt><trkpt lat="56.04577461462715" lon="22.244928784434506"><ele>136.2</ele><time>2026-04-18T11:32:25Z</time></trkpt><trkpt lat="56.04578062545267" lon="22.24475063381267"><ele>136.39999999999998</ele><time>2026-04-18T11:32:26Z</time></trkpt><trkpt lat="56.045787308546046" lon="22.244552557543912"><ele>136.6</ele><time>2026-04-18T11:32:27Z</time></trkpt><trkpt lat="56.04579654754717" lon="22.244352811484216"><ele>136.79999999999998</ele><time>2026-04-18T11:32:28Z</time></trkpt><trkpt lat="56.04579159603679" lon="22.24416863181515"><ele>137.0</ele><time>2026-04-18T11:32:29Z</time></trkpt><trkpt lat="56.045787232757334" lon="22.244006330984504"><ele>136.79999999999998</ele><time>2026-04-18T11:32:30Z</time></trkpt><trkpt lat="56.04578377885368" lon="22.243877855839678"><ele>136.6</ele><time>2026-04-18T11:32:31Z</time></trkpt><trkpt lat="56.04577706492172" lon="22.24362811788335"><ele>136.39999999999998</ele><time>2026-04-18T11:32:33Z</time></trkpt><trkpt lat="56.045772733297476" lon="22.243466994232374"><ele>136.2</ele><time>2026-04-18T11:32:34Z</time></trkpt><trkpt lat="56.04576887456559" lon="22.24332346066912"><ele>136.0</ele><time>2026-04-18T11:32:35Z</time></trkpt><trkpt lat="56.045764039419545" lon="22.243137139433127"><ele>136.0</ele><time>2026-04-18T11:32:36Z</time></trkpt><trkpt lat="56.04575950295427" lon="22.242969678822085"><ele>136.0</ele><time>2026-04-18T11:32:37Z</time></trkpt><trkpt lat="56.045753369620094" lon="22.24282129120661"><ele>136.0</ele><time>2026-04-18T11:32:38Z</time></trkpt><trkpt lat="56.04574175030239" lon="22.242692425799987"><ele>136.0</ele><time>2026-04-18T11:32:39Z</time></trkpt><trkpt lat="56.04572936710933" lon="22.242557417268866"><ele>136.0</ele><time>2026-04-18T11:32:40Z</time></trkpt><trkpt lat="56.045716791801176" lon="22.24242031425809"><ele>136.0</ele><time>2026-04-18T11:32:41Z</time></trkpt><trkpt lat="56.04570164403407" lon="22.24225716985704"><ele>136.16666666666669</ele><time>2026-04-18T11:32:42Z</time></trkpt><trkpt lat="56.04570881495118" lon="22.24212308655104"><ele>136.33333333333334</ele><time>2026-04-18T11:32:43Z</time></trkpt><trkpt lat="56.04571129093573" lon="22.241955266144114"><ele>136.5</ele><time>2026-04-18T11:32:44Z</time></trkpt><trkpt lat="56.045733272594845" lon="22.241838863814987"><ele>136.66666666666666</ele><time>2026-04-18T11:32:45Z</time></trkpt><trkpt lat="56.045769541514495" lon="22.241665814517535"><ele>136.83333333333331</ele><time>2026-04-18T11:32:46Z</time></trkpt><trkpt lat="56.04579528857478" lon="22.24154352766092"><ele>137.0</ele><time>2026-04-18T11:32:47Z</time></trkpt><trkpt lat="56.04583187425127" lon="22.241367240813066"><ele>137.0</ele><time>2026-04-18T11:32:49Z</time></trkpt><trkpt lat="56.04582488678705" lon="22.24122361064268"><ele>137.0</ele><time>2026-04-18T11:32:50Z</time></trkpt><trkpt lat="56.04582130931939" lon="22.24106636177284"><ele>137.0</ele><time>2026-04-18T11:32:51Z</time></trkpt><trkpt lat="56.045819023974765" lon="22.240857023386074"><ele>137.0</ele><time>2026-04-18T11:32:52Z</time></trkpt><trkpt lat="56.0458183355653" lon="22.240705949318198"><ele>137.0</ele><time>2026-04-18T11:32:53Z</time></trkpt><trkpt lat="56.045809031316196" lon="22.24058884580259"><ele>137.0</ele><time>2026-04-18T11:32:54Z</time></trkpt><trkpt lat="56.04585257060199" lon="22.240471168286696"><ele>137.2</ele><time>2026-04-18T11:32:55Z</time></trkpt><trkpt lat="56.04589100104029" lon="22.240312778826812"><ele>137.39999999999998</ele><time>2026-04-18T11:32:56Z</time></trkpt><trkpt lat="56.04592238894022" lon="22.240183642023485"><ele>137.60000000000002</ele><time>2026-04-18T11:32:57Z</time></trkpt><trkpt lat="56.04590605816047" lon="22.239987688058132"><ele>137.8</ele><time>2026-04-18T11:32:58Z</time></trkpt><trkpt lat="56.045888060898456" lon="22.239822975122355"><ele>138.0</ele><time>2026-04-18T11:32:59Z</time></trkpt><trkpt lat="56.04587729956663" lon="22.23966727277054"><ele>137.66666666666666</ele><time>2026-04-18T11:33:00Z</time></trkpt><trkpt lat="56.04588335692232" lon="22.239521158912936"><ele>137.33333333333334</ele><time>2026-04-18T11:33:01Z</time></trkpt><trkpt lat="56.04587501996419" lon="22.239386057309197"><ele>137.0</ele><time>2026-04-18T11:33:02Z</time></trkpt><trkpt lat="56.04588896694868" lon="22.239272975003267"><ele>136.66666666666669</ele><time>2026-04-18T11:33:03Z</time></trkpt><trkpt lat="56.04589498997268" lon="22.239142637662155"><ele>136.33333333333334</ele><time>2026-04-18T11:33:04Z</time></trkpt><trkpt lat="56.045901911196" lon="22.238993707695574"><ele>136.0</ele><time>2026-04-18T11:33:05Z</time></trkpt><trkpt lat="56.04591057839376" lon="22.238828925149015"><ele>135.5</ele><time>2026-04-18T11:33:06Z</time></trkpt><trkpt lat="56.04593084796283" lon="22.238691980914524"><ele>135.0</ele><time>2026-04-18T11:33:07Z</time></trkpt><trkpt lat="56.04595022682858" lon="22.238561025466023"><ele>134.5</ele><time>2026-04-18T11:33:08Z</time></trkpt><trkpt lat="56.04597042722501" lon="22.238424518793686"><ele>134.0</ele><time>2026-04-18T11:33:09Z</time></trkpt><trkpt lat="56.045992529886796" lon="22.238274110575585"><ele>133.5</ele><time>2026-04-18T11:33:10Z</time></trkpt><trkpt lat="56.046018713907465" lon="22.238094237678524"><ele>133.0</ele><time>2026-04-18T11:33:11Z</time></trkpt><trkpt lat="56.046018094083614" lon="22.237903084334217"><ele>132.83333333333334</ele><time>2026-04-18T11:33:12Z</time></trkpt><trkpt lat="56.04602021503168" lon="22.237761821623003"><ele>132.66666666666669</ele><time>2026-04-18T11:33:13Z</time></trkpt><trkpt lat="56.04602002427064" lon="22.237640316267232"><ele>132.5</ele><time>2026-04-18T11:33:14Z</time></trkpt><trkpt lat="56.04601918793686" lon="22.237495942393362"><ele>132.33333333333334</ele><time>2026-04-18T11:33:15Z</time></trkpt><trkpt lat="56.0459797774422" lon="22.23732776242754"><ele>132.16666666666666</ele><time>2026-04-18T11:33:16Z</time></trkpt><trkpt lat="56.0459487975396" lon="22.237171589242532"><ele>132.0</ele><time>2026-04-18T11:33:17Z</time></trkpt><trkpt lat="56.0459184852491" lon="22.23701880387788"><ele>131.79999999999998</ele><time>2026-04-18T11:33:18Z</time></trkpt><trkpt lat="56.04588978688218" lon="22.236874142258387"><ele>131.6</ele><time>2026-04-18T11:33:19Z</time></trkpt><trkpt lat="56.0458584475192" lon="22.236716158438846"><ele>131.39999999999998</ele><time>2026-04-18T11:33:20Z</time></trkpt><trkpt lat="56.04579423135818" lon="22.236579366819583"><ele>131.2</ele><time>2026-04-18T11:33:21Z</time></trkpt><trkpt lat="56.045733723599895" lon="22.236456639374403"><ele>131.0</ele><time>2026-04-18T11:33:22Z</time></trkpt><trkpt lat="56.045668103783285" lon="22.23634001126285"><ele>130.66666666666666</ele><time>2026-04-18T11:33:23Z</time></trkpt><trkpt lat="56.045605518551554" lon="22.236243783046525"><ele>130.33333333333331</ele><time>2026-04-18T11:33:24Z</time></trkpt><trkpt lat="56.045556357086745" lon="22.23616841187766"><ele>130.0</ele><time>2026-04-18T11:33:25Z</time></trkpt><trkpt lat="56.04549569938044" lon="22.23602342674157"><ele>129.66666666666666</ele><time>2026-04-18T11:33:27Z</time></trkpt><trkpt lat="56.04545678039174" lon="22.23592208038439"><ele>129.33333333333334</ele><time>2026-04-18T11:33:28Z</time></trkpt><trkpt lat="56.04541787255433" lon="22.235821181617478"><ele>129.0</ele><time>2026-04-18T11:33:29Z</time></trkpt><trkpt lat="56.0453525252273" lon="22.23565171805055"><ele>128.8</ele><time>2026-04-18T11:33:31Z</time></trkpt><trkpt lat="56.04528944628526" lon="22.23548813237377"><ele>128.60000000000002</ele><time>2026-04-18T11:33:33Z</time></trkpt><trkpt lat="56.045225650288195" lon="22.23532267216399"><ele>128.4</ele><time>2026-04-18T11:33:35Z</time></trkpt><trkpt lat="56.04518461117629" lon="22.235216548537288"><ele>128.20000000000002</ele><time>2026-04-18T11:33:36Z</time></trkpt><trkpt lat="56.04513527029609" lon="22.23508895497138"><ele>128.0</ele><time>2026-04-18T11:33:37Z</time></trkpt><trkpt lat="56.04506752949311" lon="22.234977004304806"><ele>127.99999999999999</ele><time>2026-04-18T11:33:38Z</time></trkpt><trkpt lat="56.04501598076514" lon="22.23487794063694"><ele>128.0</ele><time>2026-04-18T11:33:39Z</time></trkpt><trkpt lat="56.044936045216055" lon="22.23480735310653"><ele>128.0</ele><time>2026-04-18T11:33:40Z</time></trkpt><trkpt lat="56.04486503868057" lon="22.23473737561637"><ele>128.0</ele><time>2026-04-18T11:33:41Z</time></trkpt><trkpt lat="56.04478329753043" lon="22.234674452381736"><ele>127.99999999999999</ele><time>2026-04-18T11:33:42Z</time></trkpt><trkpt lat="56.04470561556597" lon="22.23461962094098"><ele>128.0</ele><time>2026-04-18T11:33:43Z</time></trkpt><trkpt lat="56.044620443745295" lon="22.234559699166976"><ele>127.99999999999999</ele><time>2026-04-18T11:33:44Z</time></trkpt><trkpt lat="56.04455765107845" lon="22.23444911683424"><ele>128.0</ele><time>2026-04-18T11:33:45Z</time></trkpt><trkpt lat="56.04448528927538" lon="22.23434777829731"><ele>128.0</ele><time>2026-04-18T11:33:46Z</time></trkpt><trkpt lat="56.04446283219826" lon="22.23423109462407"><ele>128.0</ele><time>2026-04-18T11:33:47Z</time></trkpt><trkpt lat="56.0444179885594" lon="22.234093569921637"><ele>127.99999999999999</ele><time>2026-04-18T11:33:48Z</time></trkpt><trkpt lat="56.04438802799881" lon="22.233990666243564"><ele>128.0</ele><time>2026-04-18T11:33:49Z</time></trkpt><trkpt lat="56.0443346952258" lon="22.23377224634766"><ele>128.16666666666666</ele><time>2026-04-18T11:33:51Z</time></trkpt><trkpt lat="56.04432191501985" lon="22.233657557904902"><ele>128.33333333333331</ele><time>2026-04-18T11:33:52Z</time></trkpt><trkpt lat="56.04432436234694" lon="22.23352342814753"><ele>128.5</ele><time>2026-04-18T11:33:53Z</time></trkpt><trkpt lat="56.04432643130932" lon="22.233329152791374"><ele>128.66666666666666</ele><time>2026-04-18T11:33:55Z</time></trkpt><trkpt lat="56.044353776568094" lon="22.23312809507564"><ele>128.83333333333334</ele><time>2026-04-18T11:33:57Z</time></trkpt><trkpt lat="56.04437047496705" lon="22.23299552701514"><ele>129.0</ele><time>2026-04-18T11:33:58Z</time></trkpt><trkpt lat="56.044422010957696" lon="22.232884140917562"><ele>129.5</ele><time>2026-04-18T11:33:59Z</time></trkpt><trkpt lat="56.04447667669167" lon="22.232780125644844"><ele>130.0</ele><time>2026-04-18T11:34:00Z</time></trkpt><trkpt lat="56.04452559951187" lon="22.232704071825044"><ele>130.5</ele><time>2026-04-18T11:34:01Z</time></trkpt><trkpt lat="56.04458052654239" lon="22.232631222509372"><ele>131.0</ele><time>2026-04-18T11:34:02Z</time></trkpt><trkpt lat="56.04464529934729" lon="22.232578759090984"><ele>131.5</ele><time>2026-04-18T11:34:03.001Z</time></trkpt><trkpt lat="56.0446751225782" lon="22.232431334742582"><ele>132.0</ele><time>2026-04-18T11:34:04.001Z</time></trkpt><trkpt lat="56.044710904059485" lon="22.232292004010272"><ele>133.2</ele><time>2026-04-18T11:34:05.001Z</time></trkpt><trkpt lat="56.044764037899604" lon="22.23215077677818"><ele>134.39999999999998</ele><time>2026-04-18T11:34:06.001Z</time></trkpt><trkpt lat="56.044813592721226" lon="22.23199695287931"><ele>135.60000000000002</ele><time>2026-04-18T11:34:07.001Z</time></trkpt><trkpt lat="56.04485752974309" lon="22.23186255868921"><ele>136.8</ele><time>2026-04-18T11:34:08Z</time></trkpt><trkpt lat="56.04490069815915" lon="22.231729667210043"><ele>138.0</ele><time>2026-04-18T11:34:09Z</time></trkpt><trkpt lat="56.04494542065078" lon="22.231591566505614"><ele>136.16666666666666</ele><time>2026-04-18T11:34:10Z</time></trkpt><trkpt lat="56.044974613453796" lon="22.231455319983233"><ele>134.33333333333334</ele><time>2026-04-18T11:34:11Z</time></trkpt><trkpt lat="56.045022378277984" lon="22.231334146532742"><ele>132.5</ele><time>2026-04-18T11:34:12Z</time></trkpt><trkpt lat="56.04507626396921" lon="22.231218140382232"><ele>130.66666666666669</ele><time>2026-04-18T11:34:13Z</time></trkpt><trkpt lat="56.04513568829099" lon="22.231094172890774"><ele>128.83333333333334</ele><time>2026-04-18T11:34:14Z</time></trkpt><trkpt lat="56.04518607074644" lon="22.23097327566239"><ele>127.0</ele><time>2026-04-18T11:34:15Z</time></trkpt><trkpt lat="56.0452497879931" lon="22.23088421738521"><ele>127.00000000000001</ele><time>2026-04-18T11:34:16Z</time></trkpt><trkpt lat="56.045258948648495" lon="22.23074586859845"><ele>127.0</ele><time>2026-04-18T11:34:17Z</time></trkpt><trkpt lat="56.045306700997564" lon="22.230537602073376"><ele>127.0</ele><time>2026-04-18T11:34:19Z</time></trkpt><trkpt lat="56.04532945846911" lon="22.230421155448852"><ele>127.0</ele><time>2026-04-18T11:34:20Z</time></trkpt><trkpt lat="56.04534666659629" lon="22.230290102167107"><ele>127.00000000000001</ele><time>2026-04-18T11:34:21Z</time></trkpt><trkpt lat="56.04536320628697" lon="22.23014477790858"><ele>127.0</ele><time>2026-04-18T11:34:22Z</time></trkpt><trkpt lat="56.04537747354884" lon="22.229984703762632"><ele>127.0</ele><time>2026-04-18T11:34:23Z</time></trkpt><trkpt lat="56.04539086607613" lon="22.229816509686028"><ele>126.99999999999999</ele><time>2026-04-18T11:34:24Z</time></trkpt><trkpt lat="56.04540688507574" lon="22.229653708788078"><ele>126.99999999999999</ele><time>2026-04-18T11:34:25Z</time></trkpt><trkpt lat="56.04541985631231" lon="22.229493019885783"><ele>127.0</ele><time>2026-04-18T11:34:26Z</time></trkpt><trkpt lat="56.045428041260536" lon="22.229329950778823"><ele>127.0</ele><time>2026-04-18T11:34:27Z</time></trkpt><trkpt lat="56.045450460014614" lon="22.229174997922772"><ele>127.50000000000001</ele><time>2026-04-18T11:34:28Z</time></trkpt><trkpt lat="56.04546101547558" lon="22.22903391597013"><ele>128.0</ele><time>2026-04-18T11:34:29Z</time></trkpt><trkpt lat="56.04545707346537" lon="22.228894828779126"><ele>128.5</ele><time>2026-04-18T11:34:30Z</time></trkpt><trkpt lat="56.04547245284916" lon="22.22873742954836"><ele>129.0</ele><time>2026-04-18T11:34:31Z</time></trkpt><trkpt lat="56.0454820131667" lon="22.228596261771617"><ele>129.5</ele><time>2026-04-18T11:34:32Z</time></trkpt><trkpt lat="56.04549032906377" lon="22.22844572239223"><ele>130.0</ele><time>2026-04-18T11:34:33Z</time></trkpt><trkpt lat="56.045514761884085" lon="22.22831644469051"><ele>130.83333333333334</ele><time>2026-04-18T11:34:34Z</time></trkpt><trkpt lat="56.045529442520085" lon="22.228152045948047"><ele>131.66666666666669</ele><time>2026-04-18T11:34:35Z</time></trkpt><trkpt lat="56.045540662353574" lon="22.228022701164516"><ele>132.5</ele><time>2026-04-18T11:34:36Z</time></trkpt><trkpt lat="56.04555156688258" lon="22.227900578428866"><ele>133.33333333333334</ele><time>2026-04-18T11:34:37Z</time></trkpt><trkpt lat="56.04556186000965" lon="22.22778700379773"><ele>134.16666666666666</ele><time>2026-04-18T11:34:38Z</time></trkpt><trkpt lat="56.045574624820574" lon="22.227646157102516"><ele>135.0</ele><time>2026-04-18T11:34:39Z</time></trkpt><trkpt lat="56.045587680860486" lon="22.227502038932265"><ele>135.33333333333334</ele><time>2026-04-18T11:34:40Z</time></trkpt><trkpt lat="56.04560192008453" lon="22.22734454448006"><ele>135.66666666666666</ele><time>2026-04-18T11:34:41Z</time></trkpt><trkpt lat="56.04561511519382" lon="22.22719465767904"><ele>136.0</ele><time>2026-04-18T11:34:42Z</time></trkpt><trkpt lat="56.045624766332466" lon="22.22704899918193"><ele>136.33333333333331</ele><time>2026-04-18T11:34:43Z</time></trkpt><trkpt lat="56.04563615077315" lon="22.226916235215576"><ele>136.66666666666666</ele><time>2026-04-18T11:34:44Z</time></trkpt><trkpt lat="56.04564490182067" lon="22.226792587568724"><ele>137.0</ele><time>2026-04-18T11:34:45Z</time></trkpt><trkpt lat="56.04565489239036" lon="22.226669038565777"><ele>137.16666666666666</ele><time>2026-04-18T11:34:46Z</time></trkpt><trkpt lat="56.045662483673986" lon="22.226532031213"><ele>137.33333333333331</ele><time>2026-04-18T11:34:47Z</time></trkpt><trkpt lat="56.045671724286336" lon="22.226382828531722"><ele>137.5</ele><time>2026-04-18T11:34:48Z</time></trkpt><trkpt lat="56.045678884575125" lon="22.226216310656245"><ele>137.66666666666666</ele><time>2026-04-18T11:34:49Z</time></trkpt><trkpt lat="56.04569006234523" lon="22.22605487975374"><ele>137.83333333333334</ele><time>2026-04-18T11:34:50Z</time></trkpt><trkpt lat="56.04570560011429" lon="22.22589197194474"><ele>138.0</ele><time>2026-04-18T11:34:51Z</time></trkpt><trkpt lat="56.04571811814654" lon="22.225738265720977"><ele>137.5</ele><time>2026-04-18T11:34:52Z</time></trkpt><trkpt lat="56.04572494974311" lon="22.22562307941474"><ele>137.0</ele><time>2026-04-18T11:34:53Z</time></trkpt><trkpt lat="56.04572317002633" lon="22.225420526100752"><ele>136.5</ele><time>2026-04-18T11:34:55Z</time></trkpt><trkpt lat="56.04574771227938" lon="22.225293075528125"><ele>136.0</ele><time>2026-04-18T11:34:56Z</time></trkpt><trkpt lat="56.04574174938963" lon="22.22517208289648"><ele>135.5</ele><time>2026-04-18T11:34:57Z</time></trkpt><trkpt lat="56.04573616601059" lon="22.2250583968531"><ele>135.0</ele><time>2026-04-18T11:34:58Z</time></trkpt><trkpt lat="56.04572927112934" lon="22.22492071177484"><ele>134.0</ele><time>2026-04-18T11:34:59Z</time></trkpt><trkpt lat="56.045723162271464" lon="22.224799858392142"><ele>133.0</ele><time>2026-04-18T11:35:00Z</time></trkpt><trkpt lat="56.045717431388866" lon="22.224681975984044"><ele>132.0</ele><time>2026-04-18T11:35:01Z</time></trkpt><trkpt lat="56.04569145342254" lon="22.22448230955052"><ele>131.0</ele><time>2026-04-18T11:35:03Z</time></trkpt><trkpt lat="56.04563787756617" lon="22.2242688062065"><ele>130.0</ele><time>2026-04-18T11:35:05Z</time></trkpt><trkpt lat="56.04563934182489" lon="22.224123667616453"><ele>129.5</ele><time>2026-04-18T11:35:06Z</time></trkpt><trkpt lat="56.04564371739639" lon="22.223957253429134"><ele>129.0</ele><time>2026-04-18T11:35:07Z</time></trkpt><trkpt lat="56.045657009405986" lon="22.223816399863658"><ele>128.5</ele><time>2026-04-18T11:35:08Z</time></trkpt><trkpt lat="56.04567813237901" lon="22.223638292719578"><ele>128.0</ele><time>2026-04-18T11:35:09Z</time></trkpt><trkpt lat="56.04569845628904" lon="22.223501756950675"><ele>127.50000000000001</ele><time>2026-04-18T11:35:10Z</time></trkpt><trkpt lat="56.04570881256774" lon="22.22338109560097"><ele>127.0</ele><time>2026-04-18T11:35:11Z</time></trkpt><trkpt lat="56.04572757738874" lon="22.223260801856497"><ele>127.33333333333334</ele><time>2026-04-18T11:35:12Z</time></trkpt><trkpt lat="56.045756745988015" lon="22.2231264662273"><ele>127.66666666666667</ele><time>2026-04-18T11:35:13Z</time></trkpt><trkpt lat="56.045798631075996" lon="22.223002700431365"><ele>128.0</ele><time>2026-04-18T11:35:14Z</time></trkpt><trkpt lat="56.045842548904645" lon="22.222907876769984"><ele>128.33333333333334</ele><time>2026-04-18T11:35:15Z</time></trkpt><trkpt lat="56.045894456409165" lon="22.222833125239582"><ele>128.66666666666666</ele><time>2026-04-18T11:35:16Z</time></trkpt><trkpt lat="56.0459417977594" lon="22.222634386421348"><ele>129.0</ele><time>2026-04-18T11:35:18Z</time></trkpt><trkpt lat="56.04609992041265" lon="22.22271318575931"><ele>129.4</ele><time>2026-04-18T11:35:19Z</time></trkpt><trkpt lat="56.04620479665563" lon="22.222602480312304"><ele>129.8</ele><time>2026-04-18T11:35:21Z</time></trkpt><trkpt lat="56.04625262873112" lon="22.222433254824722"><ele>130.2</ele><time>2026-04-18T11:35:23Z</time></trkpt><trkpt lat="56.04625487776724" lon="22.22220038054148"><ele>130.6</ele><time>2026-04-18T11:35:25Z</time></trkpt><trkpt lat="56.04625260253847" lon="22.222056059587263"><ele>131.0</ele><time>2026-04-18T11:35:26Z</time></trkpt><trkpt lat="56.046254249187825" lon="22.221907921821273"><ele>131.16666666666666</ele><time>2026-04-18T11:35:27Z</time></trkpt><trkpt lat="56.04632716369184" lon="22.22174934075937"><ele>131.33333333333331</ele><time>2026-04-18T11:35:29Z</time></trkpt><trkpt lat="56.04639491710979" lon="22.22169866676913"><ele>131.5</ele><time>2026-04-18T11:35:30Z</time></trkpt><trkpt lat="56.04647293524452" lon="22.221634325286566"><ele>131.66666666666666</ele><time>2026-04-18T11:35:31Z</time></trkpt><trkpt lat="56.046551777157866" lon="22.221549417584317"><ele>131.83333333333334</ele><time>2026-04-18T11:35:32Z</time></trkpt><trkpt lat="56.04660578677041" lon="22.221479511104917"><ele>132.0</ele><time>2026-04-18T11:35:33Z</time></trkpt><trkpt lat="56.046657963743385" lon="22.221299334133267"><ele>133.2</ele><time>2026-04-18T11:35:35Z</time></trkpt><trkpt lat="56.04668038341886" lon="22.22104267550041"><ele>134.39999999999998</ele><time>2026-04-18T11:35:37Z</time></trkpt><trkpt lat="56.04668789023938" lon="22.220889245443058"><ele>135.60000000000002</ele><time>2026-04-18T11:35:38Z</time></trkpt><trkpt lat="56.0466854868528" lon="22.220769226145254"><ele>136.8</ele><time>2026-04-18T11:35:39Z</time></trkpt><trkpt lat="56.04668102806178" lon="22.2205398113007"><ele>138.0</ele><time>2026-04-18T11:35:41Z</time></trkpt><trkpt lat="56.04667130576647" lon="22.220408202566357"><ele>138.0</ele><time>2026-04-18T11:35:42Z</time></trkpt><trkpt lat="56.046662337171966" lon="22.22029362945256"><ele>138.0</ele><time>2026-04-18T11:35:43Z</time></trkpt><trkpt lat="56.0466578735297" lon="22.22015828285985"><ele>138.0</ele><time>2026-04-18T11:35:44Z</time></trkpt><trkpt lat="56.0466609673036" lon="22.220006679896002"><ele>138.0</ele><time>2026-04-18T11:35:45Z</time></trkpt><trkpt lat="56.04665579809285" lon="22.21982088684924"><ele>138.0</ele><time>2026-04-18T11:35:46Z</time></trkpt><trkpt lat="56.046663947445566" lon="22.219675690293577"><ele>138.0</ele><time>2026-04-18T11:35:47Z</time></trkpt><trkpt lat="56.046673543099736" lon="22.2195320284409"><ele>138.20000000000002</ele><time>2026-04-18T11:35:48Z</time></trkpt><trkpt lat="56.046690707467285" lon="22.219420467462676"><ele>138.4</ele><time>2026-04-18T11:35:49Z</time></trkpt><trkpt lat="56.04665208361685" lon="22.219172888196084"><ele>138.60000000000002</ele><time>2026-04-18T11:35:51Z</time></trkpt><trkpt lat="56.046615600270606" lon="22.21902500868675"><ele>138.8</ele><time>2026-04-18T11:35:52Z</time></trkpt><trkpt lat="56.04657188085258" lon="22.218879511780777"><ele>139.0</ele><time>2026-04-18T11:35:53Z</time></trkpt><trkpt lat="56.04653421456699" lon="22.218712413476474"><ele>139.0</ele><time>2026-04-18T11:35:54Z</time></trkpt><trkpt lat="56.04650272169792" lon="22.21857566082301"><ele>139.0</ele><time>2026-04-18T11:35:55Z</time></trkpt><trkpt lat="56.04646542463288" lon="22.218427110521404"><ele>139.0</ele><time>2026-04-18T11:35:56Z</time></trkpt><trkpt lat="56.04643166803879" lon="22.21832756460091"><ele>139.0</ele><time>2026-04-18T11:35:57Z</time></trkpt><trkpt lat="56.04640737879988" lon="22.218219536588784"><ele>139.0</ele><time>2026-04-18T11:35:58Z</time></trkpt><trkpt lat="56.046405119969904" lon="22.218075031826945"><ele>139.0</ele><time>2026-04-18T11:35:59Z</time></trkpt><trkpt lat="56.0464160222456" lon="22.217929826928053"><ele>138.8</ele><time>2026-04-18T11:36:00Z</time></trkpt><trkpt lat="56.04636096592972" lon="22.217738908479305"><ele>138.60000000000002</ele><time>2026-04-18T11:36:01Z</time></trkpt><trkpt lat="56.04637642938381" lon="22.21757251697808"><ele>138.4</ele><time>2026-04-18T11:36:02Z</time></trkpt><trkpt lat="56.04639303723431" lon="22.217396684821857"><ele>138.20000000000002</ele><time>2026-04-18T11:36:03Z</time></trkpt><trkpt lat="56.04640871030968" lon="22.21722752078311"><ele>138.0</ele><time>2026-04-18T11:36:04Z</time></trkpt><trkpt lat="56.04642239720569" lon="22.217068287790468"><ele>137.66666666666666</ele><time>2026-04-18T11:36:05Z</time></trkpt><trkpt lat="56.046435004804884" lon="22.21692174278438"><ele>137.33333333333334</ele><time>2026-04-18T11:36:06Z</time></trkpt><trkpt lat="56.04644937705637" lon="22.216752426793132"><ele>137.0</ele><time>2026-04-18T11:36:07Z</time></trkpt><trkpt lat="56.046461314970365" lon="22.216608524187166"><ele>136.66666666666669</ele><time>2026-04-18T11:36:08Z</time></trkpt><trkpt lat="56.04647204668404" lon="22.216480425585743"><ele>136.33333333333334</ele><time>2026-04-18T11:36:09Z</time></trkpt><trkpt lat="56.04648532152557" lon="22.21629702801958"><ele>136.0</ele><time>2026-04-18T11:36:10Z</time></trkpt><trkpt lat="56.04649370522877" lon="22.216133206072584"><ele>136.0</ele><time>2026-04-18T11:36:11Z</time></trkpt><trkpt lat="56.04650623881525" lon="22.215985412502864"><ele>136.0</ele><time>2026-04-18T11:36:12Z</time></trkpt><trkpt lat="56.046520415919765" lon="22.21581472809626"><ele>136.0</ele><time>2026-04-18T11:36:13Z</time></trkpt><trkpt lat="56.046535407247525" lon="22.21564109637861"><ele>136.0</ele><time>2026-04-18T11:36:14Z</time></trkpt><trkpt lat="56.046549230609706" lon="22.215476912448338"><ele>136.0</ele><time>2026-04-18T11:36:15Z</time></trkpt><trkpt lat="56.04656512969047" lon="22.2152942531778"><ele>136.0</ele><time>2026-04-18T11:36:16Z</time></trkpt><trkpt lat="56.046582827334426" lon="22.21508840612439"><ele>136.0</ele><time>2026-04-18T11:36:17Z</time></trkpt><trkpt lat="56.04660179994163" lon="22.21486369103438"><ele>136.0</ele><time>2026-04-18T11:36:18Z</time></trkpt><trkpt lat="56.04661694239953" lon="22.21468473543826"><ele>136.0</ele><time>2026-04-18T11:36:19Z</time></trkpt><trkpt lat="56.04663042504121" lon="22.21452839469756"><ele>136.0</ele><time>2026-04-18T11:36:20Z</time></trkpt><trkpt lat="56.04664401168482" lon="22.214364185451064"><ele>135.8</ele><time>2026-04-18T11:36:21Z</time></trkpt><trkpt lat="56.04665945819845" lon="22.214182380872803"><ele>135.6</ele><time>2026-04-18T11:36:22Z</time></trkpt><trkpt lat="56.04667481936359" lon="22.213997360732776"><ele>135.4</ele><time>2026-04-18T11:36:23Z</time></trkpt><trkpt lat="56.04668993512375" lon="22.21380959919832"><ele>135.2</ele><time>2026-04-18T11:36:24Z</time></trkpt><trkpt lat="56.04670334669908" lon="22.213633649457645"><ele>135.0</ele><time>2026-04-18T11:36:25Z</time></trkpt><trkpt lat="56.0467158610539" lon="22.21347746801808"><ele>135.0</ele><time>2026-04-18T11:36:26Z</time></trkpt><trkpt lat="56.0467285880299" lon="22.213315409612505"><ele>135.0</ele><time>2026-04-18T11:36:27Z</time></trkpt><trkpt lat="56.046725688969964" lon="22.21314495424142"><ele>135.0</ele><time>2026-04-18T11:36:28Z</time></trkpt><trkpt lat="56.046740050696165" lon="22.212970765156854"><ele>135.0</ele><time>2026-04-18T11:36:29Z</time></trkpt><trkpt lat="56.046760715316545" lon="22.212793487844515"><ele>135.0</ele><time>2026-04-18T11:36:30Z</time></trkpt><trkpt lat="56.0467732140478" lon="22.21261536130667"><ele>135.0</ele><time>2026-04-18T11:36:31Z</time></trkpt><trkpt lat="56.04679015914698" lon="22.212442188613498"><ele>135.0</ele><time>2026-04-18T11:36:32Z</time></trkpt><trkpt lat="56.04679698981781" lon="22.21229523560446"><ele>135.0</ele><time>2026-04-18T11:36:33Z</time></trkpt><trkpt lat="56.04681933402027" lon="22.21217462748832"><ele>135.0</ele><time>2026-04-18T11:36:34Z</time></trkpt><trkpt lat="56.0468301539941" lon="22.212038470041353"><ele>135.0</ele><time>2026-04-18T11:36:35Z</time></trkpt><trkpt lat="56.04684203537552" lon="22.21188788146947"><ele>135.0</ele><time>2026-04-18T11:36:36Z</time></trkpt><trkpt lat="56.04685459052382" lon="22.211731883272403"><ele>135.0</ele><time>2026-04-18T11:36:37Z</time></trkpt><trkpt lat="56.046850828719315" lon="22.21161667358025"><ele>135.0</ele><time>2026-04-18T11:36:38Z</time></trkpt><trkpt lat="56.046873307208934" lon="22.211387529549985"><ele>135.0</ele><time>2026-04-18T11:36:40Z</time></trkpt><trkpt lat="56.04689629744927" lon="22.211256839961106"><ele>135.0</ele><time>2026-04-18T11:36:41Z</time></trkpt><trkpt lat="56.04690895892975" lon="22.211115770843413"><ele>135.0</ele><time>2026-04-18T11:36:42Z</time></trkpt><trkpt lat="56.04692323864021" lon="22.2109623803202"><ele>135.0</ele><time>2026-04-18T11:36:43Z</time></trkpt><trkpt lat="56.04693505617699" lon="22.210836663927545"><ele>135.0</ele><time>2026-04-18T11:36:44Z</time></trkpt><trkpt lat="56.04694491197417" lon="22.21072315760035"><ele>135.0</ele><time>2026-04-18T11:36:45Z</time></trkpt><trkpt lat="56.0469560874628" lon="22.210603441502585"><ele>135.0</ele><time>2026-04-18T11:36:46Z</time></trkpt><trkpt lat="56.04695972673741" lon="22.210469984777323"><ele>135.0</ele><time>2026-04-18T11:36:47Z</time></trkpt><trkpt lat="56.04700927786766" lon="22.21037620761572"><ele>135.0</ele><time>2026-04-18T11:36:48Z</time></trkpt><trkpt lat="56.0470491221969" lon="22.210253774636353"><ele>135.0</ele><time>2026-04-18T11:36:49Z</time></trkpt><trkpt lat="56.047087696289" lon="22.21013460773842"><ele>135.0</ele><time>2026-04-18T11:36:50Z</time></trkpt><trkpt lat="56.04711163852521" lon="22.210004834169446"><ele>134.8</ele><time>2026-04-18T11:36:51Z</time></trkpt><trkpt lat="56.04718335904495" lon="22.209835153322913"><ele>134.6</ele><time>2026-04-18T11:36:53Z</time></trkpt><trkpt lat="56.04722702715976" lon="22.209747005494172"><ele>134.4</ele><time>2026-04-18T11:36:54Z</time></trkpt><trkpt lat="56.04730580838946" lon="22.209581177496304"><ele>134.2</ele><time>2026-04-18T11:36:56Z</time></trkpt><trkpt lat="56.047340204784824" lon="22.209480057869264"><ele>134.0</ele><time>2026-04-18T11:36:57Z</time></trkpt><trkpt lat="56.04738860389471" lon="22.20925987237132"><ele>134.0</ele><time>2026-04-18T11:36:59Z</time></trkpt><trkpt lat="56.04741892912765" lon="22.20913583299207"><ele>134.0</ele><time>2026-04-18T11:37:00Z</time></trkpt><trkpt lat="56.047462518386865" lon="22.209000917783502"><ele>134.0</ele><time>2026-04-18T11:37:01Z</time></trkpt><trkpt lat="56.04750784894283" lon="22.20887091799387"><ele>134.0</ele><time>2026-04-18T11:37:02Z</time></trkpt><trkpt lat="56.047568162891515" lon="22.208758670214134"><ele>134.0</ele><time>2026-04-18T11:37:03Z</time></trkpt><trkpt lat="56.04762188743336" lon="22.20868463608266"><ele>134.0</ele><time>2026-04-18T11:37:04Z</time></trkpt><trkpt lat="56.04767654269828" lon="22.20862135261736"><ele>134.0</ele><time>2026-04-18T11:37:05Z</time></trkpt><trkpt lat="56.04775399467917" lon="22.20852523276241"><ele>134.0</ele><time>2026-04-18T11:37:06Z</time></trkpt><trkpt lat="56.04784125133717" lon="22.2084129414217"><ele>134.0</ele><time>2026-04-18T11:37:07Z</time></trkpt><trkpt lat="56.04792194688824" lon="22.208324002415807"><ele>134.0</ele><time>2026-04-18T11:37:08Z</time></trkpt><trkpt lat="56.0480038987008" lon="22.208243530413327"><ele>134.0</ele><time>2026-04-18T11:37:09Z</time></trkpt><trkpt lat="56.04808061339553" lon="22.208157427567276"><ele>134.0</ele><time>2026-04-18T11:37:10Z</time></trkpt><trkpt lat="56.04814721409497" lon="22.208077586713422"><ele>134.0</ele><time>2026-04-18T11:37:11Z</time></trkpt><trkpt lat="56.04822314137652" lon="22.207976361180897"><ele>134.0</ele><time>2026-04-18T11:37:12Z</time></trkpt><trkpt lat="56.04829593731652" lon="22.207888341520974"><ele>134.0</ele><time>2026-04-18T11:37:13Z</time></trkpt><trkpt lat="56.04835434161714" lon="22.20777634082158"><ele>134.0</ele><time>2026-04-18T11:37:14Z</time></trkpt><trkpt lat="56.04842681020616" lon="22.207667757129517"><ele>134.0</ele><time>2026-04-18T11:37:15Z</time></trkpt><trkpt lat="56.04849407722807" lon="22.20758398036517"><ele>134.33333333333331</ele><time>2026-04-18T11:37:16Z</time></trkpt><trkpt lat="56.0485611589117" lon="22.207535554994056"><ele>134.66666666666666</ele><time>2026-04-18T11:37:17Z</time></trkpt><trkpt lat="56.048665805770895" lon="22.207452790856465"><ele>135.0</ele><time>2026-04-18T11:37:19Z</time></trkpt><trkpt lat="56.04874158134967" lon="22.207392856883455"><ele>135.33333333333334</ele><time>2026-04-18T11:37:20Z</time></trkpt><trkpt lat="56.04881315383221" lon="22.207336247439702"><ele>135.66666666666669</ele><time>2026-04-18T11:37:21Z</time></trkpt><trkpt lat="56.048881263704715" lon="22.2072829288838"><ele>136.0</ele><time>2026-04-18T11:37:22Z</time></trkpt><trkpt lat="56.04895458097023" lon="22.2072264533258"><ele>136.0</ele><time>2026-04-18T11:37:23Z</time></trkpt><trkpt lat="56.04900676194495" lon="22.207092678830556"><ele>136.0</ele><time>2026-04-18T11:37:24Z</time></trkpt><trkpt lat="56.04908397079659" lon="22.206953171048514"><ele>136.0</ele><time>2026-04-18T11:37:25Z</time></trkpt><trkpt lat="56.04914513582076" lon="22.206842652290465"><ele>136.0</ele><time>2026-04-18T11:37:26Z</time></trkpt><trkpt lat="56.04923053956674" lon="22.206687482559865"><ele>136.0</ele><time>2026-04-18T11:37:28Z</time></trkpt><trkpt lat="56.04929841845183" lon="22.20652008048269"><ele>135.2</ele><time>2026-04-18T11:37:30Z</time></trkpt><trkpt lat="56.04933840541859" lon="22.206404619968502"><ele>134.39999999999998</ele><time>2026-04-18T11:37:31Z</time></trkpt><trkpt lat="56.049377379118894" lon="22.206293184367432"><ele>133.6</ele><time>2026-04-18T11:37:32Z</time></trkpt><trkpt lat="56.04943605919216" lon="22.206123922157584"><ele>132.79999999999998</ele><time>2026-04-18T11:37:34Z</time></trkpt><trkpt lat="56.049413158362725" lon="22.205936029479588"><ele>132.0</ele><time>2026-04-18T11:37:35Z</time></trkpt><trkpt lat="56.04940210366064" lon="22.205753601295037"><ele>131.2</ele><time>2026-04-18T11:37:36Z</time></trkpt><trkpt lat="56.04938768225843" lon="22.2055990922669"><ele>130.39999999999998</ele><time>2026-04-18T11:37:38Z</time></trkpt><trkpt lat="56.04939555190069" lon="22.20547604657352"><ele>129.60000000000002</ele><time>2026-04-18T11:37:39Z</time></trkpt><trkpt lat="56.04937290167307" lon="22.2052935595686"><ele>128.8</ele><time>2026-04-18T11:37:41Z</time></trkpt><trkpt lat="56.04925046715172" lon="22.205263119394836"><ele>128.0</ele><time>2026-04-18T11:37:43Z</time></trkpt><trkpt lat="56.049193537988344" lon="22.205196024105042"><ele>127.99999999999999</ele><time>2026-04-18T11:37:44Z</time></trkpt><trkpt lat="56.049129366690806" lon="22.205118452482065"><ele>128.0</ele><time>2026-04-18T11:37:45Z</time></trkpt><trkpt lat="56.04906466634815" lon="22.20503431152624"><ele>128.0</ele><time>2026-04-18T11:37:46Z</time></trkpt><trkpt lat="56.048986521613905" lon="22.204986250513677"><ele>128.0</ele><time>2026-04-18T11:37:47Z</time></trkpt><trkpt lat="56.04891372762364" lon="22.204880541828686"><ele>127.99999999999999</ele><time>2026-04-18T11:37:48Z</time></trkpt><trkpt lat="56.048854314503984" lon="22.204809847156223"><ele>128.0</ele><time>2026-04-18T11:37:49Z</time></trkpt><trkpt lat="56.048783071275224" lon="22.20472507582467"><ele>127.0</ele><time>2026-04-18T11:37:50Z</time></trkpt><trkpt lat="56.04870603975642" lon="22.204633671715452"><ele>126.00000000000001</ele><time>2026-04-18T11:37:51Z</time></trkpt><trkpt lat="56.04864155800251" lon="22.20454405477932"><ele>125.00000000000001</ele><time>2026-04-18T11:37:52Z</time></trkpt><trkpt lat="56.04851875296327" lon="22.204377966236617"><ele>124.0</ele><time>2026-04-18T11:37:54Z</time></trkpt><trkpt lat="56.04844404895926" lon="22.204276814103864"><ele>123.0</ele><time>2026-04-18T11:37:55Z</time></trkpt><trkpt lat="56.04836976080549" lon="22.20416743932959"><ele>123.0</ele><time>2026-04-18T11:37:56Z</time></trkpt><trkpt lat="56.048312816031064" lon="22.20407074560314"><ele>123.0</ele><time>2026-04-18T11:37:57Z</time></trkpt><trkpt lat="56.04825751004128" lon="22.20395258085702"><ele>123.0</ele><time>2026-04-18T11:37:58Z</time></trkpt><trkpt lat="56.048204062771404" lon="22.203829941212913"><ele>123.0</ele><time>2026-04-18T11:37:59Z</time></trkpt><trkpt lat="56.04820790532626" lon="22.20371365690357"><ele>123.0</ele><time>2026-04-18T11:38:00Z</time></trkpt><trkpt lat="56.048217443820405" lon="22.20357756414192"><ele>123.0</ele><time>2026-04-18T11:38:01Z</time></trkpt><trkpt lat="56.048220146814515" lon="22.203431986834893"><ele>124.0</ele><time>2026-04-18T11:38:02Z</time></trkpt><trkpt lat="56.048226876044836" lon="22.203267742990043"><ele>125.0</ele><time>2026-04-18T11:38:03Z</time></trkpt><trkpt lat="56.04823279521209" lon="22.20312011599241"><ele>126.0</ele><time>2026-04-18T11:38:04Z</time></trkpt><trkpt lat="56.04822601687302" lon="22.20297305849232"><ele>127.0</ele><time>2026-04-18T11:38:05Z</time></trkpt><trkpt lat="56.048220685560445" lon="22.20284097024146"><ele>128.0</ele><time>2026-04-18T11:38:06Z</time></trkpt><trkpt lat="56.0482163893476" lon="22.202718095455406"><ele>129.0</ele><time>2026-04-18T11:38:07Z</time></trkpt><trkpt lat="56.04817165097762" lon="22.20258138622864"><ele>130.33333333333334</ele><time>2026-04-18T11:38:08Z</time></trkpt><trkpt lat="56.04814663613832" lon="22.20244705736162"><ele>131.66666666666666</ele><time>2026-04-18T11:38:09Z</time></trkpt><trkpt lat="56.04810333111215" lon="22.202301242369046"><ele>133.0</ele><time>2026-04-18T11:38:10Z</time></trkpt><trkpt lat="56.048062262563356" lon="22.202160978057794"><ele>134.33333333333331</ele><time>2026-04-18T11:38:11Z</time></trkpt><trkpt lat="56.04802751302103" lon="22.202023452986847"><ele>135.66666666666666</ele><time>2026-04-18T11:38:12Z</time></trkpt><trkpt lat="56.04799409364559" lon="22.201890199990988"><ele>137.0</ele><time>2026-04-18T11:38:13Z</time></trkpt><trkpt lat="56.04795256753286" lon="22.2017782045156"><ele>137.6</ele><time>2026-04-18T11:38:14Z</time></trkpt><trkpt lat="56.04793959135157" lon="22.201638131966824"><ele>138.2</ele><time>2026-04-18T11:38:15Z</time></trkpt><trkpt lat="56.047904792597066" lon="22.201499267869412"><ele>138.8</ele><time>2026-04-18T11:38:16Z</time></trkpt><trkpt lat="56.0478785026483" lon="22.201394327788275"><ele>139.4</ele><time>2026-04-18T11:38:17Z</time></trkpt><trkpt lat="56.04781265380189" lon="22.201185035299424"><ele>140.0</ele><time>2026-04-18T11:38:19Z</time></trkpt><trkpt lat="56.047754097815236" lon="22.201061969072768"><ele>140.16666666666666</ele><time>2026-04-18T11:38:20Z</time></trkpt><trkpt lat="56.047690863841986" lon="22.200972256841837"><ele>140.33333333333331</ele><time>2026-04-18T11:38:21Z</time></trkpt><trkpt lat="56.04763681430421" lon="22.20087744331753"><ele>140.5</ele><time>2026-04-18T11:38:22Z</time></trkpt><trkpt lat="56.04756252673918" lon="22.20084063632622"><ele>140.66666666666666</ele><time>2026-04-18T11:38:23Z</time></trkpt><trkpt lat="56.047477116794475" lon="22.200822061665757"><ele>140.83333333333334</ele><time>2026-04-18T11:38:24Z</time></trkpt><trkpt lat="56.04739667227142" lon="22.200755950799138"><ele>141.0</ele><time>2026-04-18T11:38:25Z</time></trkpt><trkpt lat="56.047308793018274" lon="22.200682455784797"><ele>141.0</ele><time>2026-04-18T11:38:26Z</time></trkpt><trkpt lat="56.047228501908215" lon="22.200599818375103"><ele>141.0</ele><time>2026-04-18T11:38:27Z</time></trkpt><trkpt lat="56.047158410775516" lon="22.200524791869324"><ele>141.0</ele><time>2026-04-18T11:38:28Z</time></trkpt><trkpt lat="56.04707803911957" lon="22.200448720403877"><ele>141.0</ele><time>2026-04-18T11:38:29Z</time></trkpt><trkpt lat="56.047004958357945" lon="22.20034551389578"><ele>141.0</ele><time>2026-04-18T11:38:30Z</time></trkpt><trkpt lat="56.04692990693109" lon="22.20026809734861"><ele>141.0</ele><time>2026-04-18T11:38:31Z</time></trkpt><trkpt lat="56.04687281311616" lon="22.200204293314535"><ele>141.0</ele><time>2026-04-18T11:38:32Z</time></trkpt><trkpt lat="56.04679926839782" lon="22.200115889483357"><ele>141.0</ele><time>2026-04-18T11:38:34Z</time></trkpt><trkpt lat="56.04677395203327" lon="22.199991400618497"><ele>141.0</ele><time>2026-04-18T11:38:42Z</time></trkpt><trkpt lat="56.046657123788336" lon="22.200083002545938"><ele>141.0</ele><time>2026-04-18T11:38:43Z</time></trkpt><trkpt lat="56.046565675458055" lon="22.200155157708373"><ele>141.0</ele><time>2026-04-18T11:38:44Z</time></trkpt><trkpt lat="56.04644578687708" lon="22.200245677349464"><ele>141.5</ele><time>2026-04-18T11:38:45Z</time></trkpt><trkpt lat="56.04633180944948" lon="22.2003240657654"><ele>142.0</ele><time>2026-04-18T11:38:46Z</time></trkpt><trkpt lat="56.046189950465845" lon="22.200406415497586"><ele>142.5</ele><time>2026-04-18T11:38:47Z</time></trkpt><trkpt lat="56.04603623425604" lon="22.20049500411642"><ele>143.0</ele><time>2026-04-18T11:38:48Z</time></trkpt><trkpt lat="56.04586714266066" lon="22.200600069597417"><ele>142.66666666666666</ele><time>2026-04-18T11:38:49Z</time></trkpt><trkpt lat="56.045690634225366" lon="22.200708063630255"><ele>142.33333333333334</ele><time>2026-04-18T11:38:50Z</time></trkpt><trkpt lat="56.04551060038793" lon="22.200820210813617"><ele>142.0</ele><time>2026-04-18T11:38:51Z</time></trkpt><trkpt lat="56.04530940990729" lon="22.200943336969512"><ele>142.0</ele><time>2026-04-18T11:38:52Z</time></trkpt><trkpt lat="56.045100702761765" lon="22.201069917269383"><ele>142.0</ele><time>2026-04-18T11:38:53Z</time></trkpt><trkpt lat="56.04489022959465" lon="22.201202850332052"><ele>142.0</ele><time>2026-04-18T11:38:54Z</time></trkpt><trkpt lat="56.04467389993367" lon="22.201334732637665"><ele>141.33333333333334</ele><time>2026-04-18T11:38:55Z</time></trkpt><trkpt lat="56.04446448170999" lon="22.201462202244684"><ele>140.66666666666666</ele><time>2026-04-18T11:38:56Z</time></trkpt><trkpt lat="56.04425408789125" lon="22.201590409316537"><ele>140.0</ele><time>2026-04-18T11:38:57Z</time></trkpt><trkpt lat="56.04405997045543" lon="22.201713190128466"><ele>137.0</ele><time>2026-04-18T11:38:58Z</time></trkpt><trkpt lat="56.04383413790648" lon="22.20185457399957"><ele>134.0</ele><time>2026-04-18T11:38:59Z</time></trkpt><trkpt lat="56.04361928271527" lon="22.20198864896004"><ele>134.0</ele><time>2026-04-18T11:39:00Z</time></trkpt><trkpt lat="56.043408340130476" lon="22.202122869793836"><ele>134.0</ele><time>2026-04-18T11:39:01Z</time></trkpt><trkpt lat="56.0431788705502" lon="22.202263968931238"><ele>133.66666666666666</ele><time>2026-04-18T11:39:02Z</time></trkpt><trkpt lat="56.0429691652074" lon="22.202387957649616"><ele>133.33333333333334</ele><time>2026-04-18T11:39:03Z</time></trkpt><trkpt lat="56.04275521517275" lon="22.202505289282314"><ele>133.0</ele><time>2026-04-18T11:39:04Z</time></trkpt><trkpt lat="56.042542670549295" lon="22.202616007956607"><ele>133.5</ele><time>2026-04-18T11:39:05Z</time></trkpt><trkpt lat="56.0423206662246" lon="22.2027198237503"><ele>134.0</ele><time>2026-04-18T11:39:06Z</time></trkpt><trkpt lat="56.042089365163434" lon="22.202816730039228"><ele>134.0</ele><time>2026-04-18T11:39:07Z</time></trkpt><trkpt lat="56.04186363927929" lon="22.202908518012784"><ele>134.0</ele><time>2026-04-18T11:39:08Z</time></trkpt><trkpt lat="56.041647313293375" lon="22.203001240236347"><ele>134.33333333333331</ele><time>2026-04-18T11:39:09Z</time></trkpt><trkpt lat="56.04143722591673" lon="22.20308341945354"><ele>134.66666666666666</ele><time>2026-04-18T11:39:10Z</time></trkpt><trkpt lat="56.04121403851783" lon="22.203168956963125"><ele>135.0</ele><time>2026-04-18T11:39:11Z</time></trkpt><trkpt lat="56.04102662835669" lon="22.203231725103215"><ele>135.0</ele><time>2026-04-18T11:39:12Z</time></trkpt><trkpt lat="56.04088608965169" lon="22.203279547716107"><ele>135.0</ele><time>2026-04-18T11:39:13Z</time></trkpt><trkpt lat="56.0407778738776" lon="22.20331741655359"><ele>135.0</ele><time>2026-04-18T11:39:14Z</time></trkpt><trkpt lat="56.04070161279306" lon="22.20334344558249"><ele>135.0</ele><time>2026-04-18T11:39:15Z</time></trkpt><trkpt lat="56.04063236895178" lon="22.203354069497156"><ele>135.0</ele><time>2026-04-18T11:39:17Z</time></trkpt><trkpt lat="56.04057846465087" lon="22.203204924735395"><ele>135.0</ele><time>2026-04-18T11:39:21Z</time></trkpt><trkpt lat="56.04059091093116" lon="22.203072727789962"><ele>135.0</ele><time>2026-04-18T11:39:22Z</time></trkpt><trkpt lat="56.040612702626056" lon="22.20291120124009"><ele>135.0</ele><time>2026-04-18T11:39:23Z</time></trkpt><trkpt lat="56.04062038329378" lon="22.202771951205985"><ele>135.0</ele><time>2026-04-18T11:39:24Z</time></trkpt><trkpt lat="56.040607079429044" lon="22.202648261415153"><ele>135.0</ele><time>2026-04-18T11:39:25Z</time></trkpt><trkpt lat="56.04058535184294" lon="22.202514269156257"><ele>135.0</ele><time>2026-04-18T11:39:26Z</time></trkpt><trkpt lat="56.040558556042065" lon="22.20236458513217"><ele>135.0</ele><time>2026-04-18T11:39:27Z</time></trkpt><trkpt lat="56.04053521527323" lon="22.2021797460249"><ele>135.0</ele><time>2026-04-18T11:39:28Z</time></trkpt><trkpt lat="56.04050123282249" lon="22.201940447638506"><ele>135.0</ele><time>2026-04-18T11:39:29Z</time></trkpt><trkpt lat="56.04046019012925" lon="22.201681026407474"><ele>135.0</ele><time>2026-04-18T11:39:30Z</time></trkpt><trkpt lat="56.040422445252354" lon="22.201414055223673"><ele>134.83333333333334</ele><time>2026-04-18T11:39:31Z</time></trkpt><trkpt lat="56.040394155654326" lon="22.201215244946244"><ele>134.66666666666666</ele><time>2026-04-18T11:39:32Z</time></trkpt><trkpt lat="56.04037141848312" lon="22.201055989058073"><ele>134.5</ele><time>2026-04-18T11:39:33Z</time></trkpt><trkpt lat="56.04035595437191" lon="22.200928666702993"><ele>134.33333333333331</ele><time>2026-04-18T11:39:34Z</time></trkpt><trkpt lat="56.04033841673748" lon="22.200784833843944"><ele>134.16666666666666</ele><time>2026-04-18T11:39:35Z</time></trkpt><trkpt lat="56.04032684167826" lon="22.20065920126055"><ele>134.0</ele><time>2026-04-18T11:39:36Z</time></trkpt><trkpt lat="56.04031513466966" lon="22.200539554876226"><ele>133.66666666666666</ele><time>2026-04-18T11:39:37Z</time></trkpt><trkpt lat="56.04030068835959" lon="22.20040832602474"><ele>133.33333333333331</ele><time>2026-04-18T11:39:38Z</time></trkpt><trkpt lat="56.040289003180035" lon="22.200285144632215"><ele>133.0</ele><time>2026-04-18T11:39:39Z</time></trkpt><trkpt lat="56.040275603472494" lon="22.200140787112694"><ele>132.66666666666666</ele><time>2026-04-18T11:39:40Z</time></trkpt><trkpt lat="56.04025727941358" lon="22.19996345905612"><ele>132.33333333333334</ele><time>2026-04-18T11:39:41Z</time></trkpt><trkpt lat="56.04024349449884" lon="22.19981819366629"><ele>132.0</ele><time>2026-04-18T11:39:42Z</time></trkpt><trkpt lat="56.04022658746878" lon="22.199662521738322"><ele>131.79999999999998</ele><time>2026-04-18T11:39:43Z</time></trkpt><trkpt lat="56.04021244268368" lon="22.199535617990836"><ele>131.6</ele><time>2026-04-18T11:39:44Z</time></trkpt><trkpt lat="56.04019659961447" lon="22.19942128537565"><ele>131.39999999999998</ele><time>2026-04-18T11:39:45Z</time></trkpt><trkpt lat="56.04015141031466" lon="22.19923609178159"><ele>131.2</ele><time>2026-04-18T11:39:47Z</time></trkpt><trkpt lat="56.04005458763957" lon="22.19909201258334"><ele>131.0</ele><time>2026-04-18T11:39:49Z</time></trkpt><trkpt lat="56.03995285970329" lon="22.19899903047349"><ele>131.0</ele><time>2026-04-18T11:39:51Z</time></trkpt><trkpt lat="56.03988431517967" lon="22.198949918244093"><ele>131.0</ele><time>2026-04-18T11:39:52Z</time></trkpt><trkpt lat="56.03979942893355" lon="22.198918898444578"><ele>131.0</ele><time>2026-04-18T11:39:53Z</time></trkpt><trkpt lat="56.03970419151677" lon="22.198901085826204"><ele>131.0</ele><time>2026-04-18T11:39:54Z</time></trkpt><trkpt lat="56.03963717229296" lon="22.198895287086867"><ele>131.0</ele><time>2026-04-18T11:39:55Z</time></trkpt><trkpt lat="56.039543986859904" lon="22.198877983630286"><ele>131.0</ele><time>2026-04-18T11:39:57Z</time></trkpt><trkpt lat="56.03948456255586" lon="22.198815722797193"><ele>131.0</ele><time>2026-04-18T11:39:59Z</time></trkpt><trkpt lat="56.03947881647775" lon="22.198665368266525"><ele>131.0</ele><time>2026-04-18T11:40:01Z</time></trkpt><trkpt lat="56.039470428702195" lon="22.198534144245002"><ele>131.0</ele><time>2026-04-18T11:40:04Z</time></trkpt><trkpt lat="56.03945083268036" lon="22.19864395033325"><ele>131.0</ele><time>2026-04-18T11:40:08Z</time></trkpt><trkpt lat="56.039484456963486" lon="22.19879335687413"><ele>131.0</ele><time>2026-04-18T11:40:10Z</time></trkpt><trkpt lat="56.03940688292418" lon="22.198880761433248"><ele>131.0</ele><time>2026-04-18T11:40:13Z</time></trkpt><trkpt lat="56.03930458660261" lon="22.198826502311565"><ele>131.0</ele><time>2026-04-18T11:40:15Z</time></trkpt><trkpt lat="56.03924093376221" lon="22.198795038479947"><ele>131.0</ele><time>2026-04-18T11:40:16Z</time></trkpt><trkpt lat="56.03913169594731" lon="22.198776833620133"><ele>131.0</ele><time>2026-04-18T11:40:18Z</time></trkpt><trkpt lat="56.03903028002782" lon="22.19876437200301"><ele>131.0</ele><time>2026-04-18T11:40:20Z</time></trkpt><trkpt lat="56.03895222794362" lon="22.19876174439272"><ele>131.0</ele><time>2026-04-18T11:40:22Z</time></trkpt><trkpt lat="56.03885220568868" lon="22.198727121113134"><ele>131.2</ele><time>2026-04-18T11:40:24Z</time></trkpt><trkpt lat="56.038758585426066" lon="22.198693913756493"><ele>131.39999999999998</ele><time>2026-04-18T11:40:26Z</time></trkpt><trkpt lat="56.0386517803284" lon="22.198639616472324"><ele>131.6</ele><time>2026-04-18T11:40:28Z</time></trkpt><trkpt lat="56.038537567806706" lon="22.198587306894282"><ele>131.79999999999998</ele><time>2026-04-18T11:40:30Z</time></trkpt><trkpt lat="56.038430177043516" lon="22.198568377743182"><ele>132.0</ele><time>2026-04-18T11:40:32Z</time></trkpt><trkpt lat="56.03832666428478" lon="22.198538150805405"><ele>132.33333333333334</ele><time>2026-04-18T11:40:34Z</time></trkpt><trkpt lat="56.03823083733964" lon="22.198509020327425"><ele>132.66666666666666</ele><time>2026-04-18T11:40:36Z</time></trkpt><trkpt lat="56.03812761210841" lon="22.198468523520926"><ele>133.0</ele><time>2026-04-18T11:40:38Z</time></trkpt><trkpt lat="56.03806554953635" lon="22.198432763115985"><ele>133.33333333333331</ele><time>2026-04-18T11:40:40Z</time></trkpt><trkpt lat="56.03799356148359" lon="22.198387736974702"><ele>133.66666666666666</ele><time>2026-04-18T11:40:42Z</time></trkpt><trkpt lat="56.037928474078164" lon="22.198358893281338"><ele>134.0</ele><time>2026-04-18T11:40:44Z</time></trkpt><trkpt lat="56.03786074748335" lon="22.19834626020961"><ele>134.0</ele><time>2026-04-18T11:40:46Z</time></trkpt><trkpt lat="56.03776379677765" lon="22.198344406772854"><ele>134.0</ele><time>2026-04-18T11:40:48Z</time></trkpt><trkpt lat="56.037671529074586" lon="22.19832550383413"><ele>134.0</ele><time>2026-04-18T11:40:50Z</time></trkpt><trkpt lat="56.03756437013894" lon="22.1982975155577"><ele>134.0</ele><time>2026-04-18T11:40:52Z</time></trkpt><trkpt lat="56.037421808832306" lon="22.198265442981523"><ele>134.0</ele><time>2026-04-18T11:40:54Z</time></trkpt><trkpt lat="56.03731896877335" lon="22.19823986050085"><ele>134.28571428571428</ele><time>2026-04-18T11:40:55Z</time></trkpt><trkpt lat="56.03724892734821" lon="22.198195800952874"><ele>134.57142857142856</ele><time>2026-04-18T11:40:56Z</time></trkpt><trkpt lat="56.037182660051634" lon="22.198155098153727"><ele>134.85714285714283</ele><time>2026-04-18T11:40:57Z</time></trkpt><trkpt lat="56.03711481249463" lon="22.198128345965603"><ele>135.14285714285714</ele><time>2026-04-18T11:40:58Z</time></trkpt><trkpt lat="56.03705167783384" lon="22.19811085407643"><ele>135.42857142857142</ele><time>2026-04-18T11:40:59Z</time></trkpt><trkpt lat="56.036980644596795" lon="22.198134603512536"><ele>135.7142857142857</ele><time>2026-04-18T11:41:01Z</time></trkpt><trkpt lat="56.036906997287076" lon="22.19816089412894"><ele>136.0</ele><time>2026-04-18T11:41:09Z</time></trkpt><trkpt lat="56.03681087387515" lon="22.198117994116956"><ele>136.0</ele><time>2026-04-18T11:41:11Z</time></trkpt><trkpt lat="56.036745094066404" lon="22.198094751741763"><ele>136.0</ele><time>2026-04-18T11:41:13Z</time></trkpt><trkpt lat="56.03666069620803" lon="22.198068832694812"><ele>136.0</ele><time>2026-04-18T11:41:15Z</time></trkpt><trkpt lat="56.03656673601777" lon="22.198029714870124"><ele>136.0</ele><time>2026-04-18T11:41:17Z</time></trkpt><trkpt lat="56.03648422428897" lon="22.19798326513371"><ele>136.0</ele><time>2026-04-18T11:41:19Z</time></trkpt><trkpt lat="56.03637784590349" lon="22.1978959855405"><ele>136.0</ele><time>2026-04-18T11:41:21Z</time></trkpt><trkpt lat="56.03628819473169" lon="22.197794228440962"><ele>136.0</ele><time>2026-04-18T11:41:23Z</time></trkpt><trkpt lat="56.03620070842955" lon="22.197663648063227"><ele>136.0</ele><time>2026-04-18T11:41:25Z</time></trkpt><trkpt lat="56.036151569304906" lon="22.197581169870592"><ele>136.0</ele><time>2026-04-18T11:41:26Z</time></trkpt><trkpt lat="56.0360949268537" lon="22.197461378855103"><ele>136.0</ele><time>2026-04-18T11:41:27Z</time></trkpt><trkpt lat="56.03599043702065" lon="22.197355554305247"><ele>135.99999999999997</ele><time>2026-04-18T11:41:30Z</time></trkpt><trkpt lat="56.03592242688315" lon="22.19730759723483"><ele>136.0</ele><time>2026-04-18T11:41:31Z</time></trkpt><trkpt lat="56.03584682287401" lon="22.197253209893198"><ele>136.0</ele><time>2026-04-18T11:41:32Z</time></trkpt><trkpt lat="56.03577852819757" lon="22.197219909035933"><ele>136.0</ele><time>2026-04-18T11:41:33Z</time></trkpt><trkpt lat="56.035707939413605" lon="22.19719029139839"><ele>136.0</ele><time>2026-04-18T11:41:34Z</time></trkpt><trkpt lat="56.03563831625548" lon="22.197160303469932"><ele>135.99999999999997</ele><time>2026-04-18T11:41:35Z</time></trkpt><trkpt lat="56.03557163028347" lon="22.197124075027087"><ele>136.0</ele><time>2026-04-18T11:41:36Z</time></trkpt><trkpt lat="56.03549598338526" lon="22.19708056758471"><ele>135.4</ele><time>2026-04-18T11:41:37Z</time></trkpt><trkpt lat="56.03537061831757" lon="22.197004823762263"><ele>134.8</ele><time>2026-04-18T11:41:39Z</time></trkpt><trkpt lat="56.03529429917009" lon="22.19695776983932"><ele>134.20000000000002</ele><time>2026-04-18T11:41:40Z</time></trkpt><trkpt lat="56.035235064411694" lon="22.196906759849945"><ele>133.6</ele><time>2026-04-18T11:41:41Z</time></trkpt><trkpt lat="56.03512125822918" lon="22.19681334896202"><ele>133.0</ele><time>2026-04-18T11:41:43Z</time></trkpt><trkpt lat="56.035044288922094" lon="22.196769544451186"><ele>133.0</ele><time>2026-04-18T11:41:44Z</time></trkpt><trkpt lat="56.034969320194705" lon="22.19673415597216"><ele>133.0</ele><time>2026-04-18T11:41:45Z</time></trkpt><trkpt lat="56.034890993987844" lon="22.1967060526581"><ele>133.0</ele><time>2026-04-18T11:41:46Z</time></trkpt><trkpt lat="56.034815475309735" lon="22.196680633164096"><ele>133.0</ele><time>2026-04-18T11:41:47Z</time></trkpt><trkpt lat="56.03474035065399" lon="22.196653673529465"><ele>133.0</ele><time>2026-04-18T11:41:48Z</time></trkpt><trkpt lat="56.03466302044025" lon="22.196625108948123"><ele>133.0</ele><time>2026-04-18T11:41:49Z</time></trkpt><trkpt lat="56.03459802362654" lon="22.196600445390118"><ele>133.0</ele><time>2026-04-18T11:41:50Z</time></trkpt><trkpt lat="56.034529742605194" lon="22.19658246195072"><ele>133.0</ele><time>2026-04-18T11:41:51Z</time></trkpt><trkpt lat="56.03446346962562" lon="22.19656337654196"><ele>133.0</ele><time>2026-04-18T11:41:52Z</time></trkpt><trkpt lat="56.03433896443941" lon="22.196524859271566"><ele>133.0</ele><time>2026-04-18T11:41:54Z</time></trkpt><trkpt lat="56.03427597461117" lon="22.19650639349857"><ele>133.0</ele><time>2026-04-18T11:41:55Z</time></trkpt><trkpt lat="56.034165066275385" lon="22.196458338432496"><ele>133.0</ele><time>2026-04-18T11:41:57Z</time></trkpt><trkpt lat="56.0340616133266" lon="22.196385425105383"><ele>133.0</ele><time>2026-04-18T11:41:59Z</time></trkpt><trkpt lat="56.03399134558245" lon="22.196280729260675"><ele>133.0</ele><time>2026-04-18T11:42:01Z</time></trkpt><trkpt lat="56.03392830140263" lon="22.196128881793545"><ele>133.0</ele><time>2026-04-18T11:42:03Z</time></trkpt><trkpt lat="56.03390330980648" lon="22.196025169724955"><ele>133.0</ele><time>2026-04-18T11:42:04Z</time></trkpt><trkpt lat="56.03388633285453" lon="22.195838939148743"><ele>133.0</ele><time>2026-04-18T11:42:06Z</time></trkpt><trkpt lat="56.03388530685279" lon="22.195719345284264"><ele>133.0</ele><time>2026-04-18T11:42:07Z</time></trkpt><trkpt lat="56.03389532042374" lon="22.19559552192697"><ele>133.4</ele><time>2026-04-18T11:42:08Z</time></trkpt><trkpt lat="56.03391073291842" lon="22.195478103799484"><ele>133.8</ele><time>2026-04-18T11:42:09Z</time></trkpt><trkpt lat="56.03387959497162" lon="22.195205965789103"><ele>134.2</ele><time>2026-04-18T11:42:11Z</time></trkpt><trkpt lat="56.03392804870832" lon="22.19504081686869"><ele>134.6</ele><time>2026-04-18T11:42:13Z</time></trkpt><trkpt lat="56.03396754549812" lon="22.194916347549366"><ele>135.0</ele><time>2026-04-18T11:42:14.999Z</time></trkpt><trkpt lat="56.03401385092019" lon="22.194769382529767"><ele>135.33333333333334</ele><time>2026-04-18T11:42:17.999Z</time></trkpt><trkpt lat="56.03404671933256" lon="22.194665045799038"><ele>135.66666666666666</ele><time>2026-04-18T11:42:18.999Z</time></trkpt><trkpt lat="56.034105727579515" lon="22.194529246167523"><ele>136.0</ele><time>2026-04-18T11:42:20.999Z</time></trkpt><trkpt lat="56.034156033215496" lon="22.194414405848786"><ele>136.33333333333331</ele><time>2026-04-18T11:42:22.999Z</time></trkpt><trkpt lat="56.03418948328911" lon="22.194314451733163"><ele>136.66666666666666</ele><time>2026-04-18T11:42:25.999Z</time></trkpt><trkpt lat="56.03420753759808" lon="22.19412871621512"><ele>137.0</ele><time>2026-04-18T11:42:27Z</time></trkpt><trkpt lat="56.03397920140841" lon="22.19420460712283"><ele>137.79999999999998</ele><time>2026-04-18T11:42:30Z</time></trkpt><trkpt lat="56.03388909202371" lon="22.19429338794664"><ele>138.6</ele><time>2026-04-18T11:42:32Z</time></trkpt><trkpt lat="56.03382033169624" lon="22.194362560923192"><ele>139.39999999999998</ele><time>2026-04-18T11:42:33Z</time></trkpt><trkpt lat="56.03372825294331" lon="22.194458649083703"><ele>140.2</ele><time>2026-04-18T11:42:34Z</time></trkpt><trkpt lat="56.03361874079651" lon="22.19458509980063"><ele>141.0</ele><time>2026-04-18T11:42:35Z</time></trkpt><trkpt lat="56.033508079284545" lon="22.19472433192765"><ele>141.0</ele><time>2026-04-18T11:42:36Z</time></trkpt><trkpt lat="56.03344069462472" lon="22.194800529990918"><ele>141.0</ele><time>2026-04-18T11:42:37Z</time></trkpt><trkpt lat="56.033374389634645" lon="22.194853692665063"><ele>141.0</ele><time>2026-04-18T11:42:38Z</time></trkpt><trkpt lat="56.03329726839723" lon="22.194886178515542"><ele>141.0</ele><time>2026-04-18T11:42:39Z</time></trkpt><trkpt lat="56.03321648762589" lon="22.194922182349394"><ele>141.0</ele><time>2026-04-18T11:42:40Z</time></trkpt><trkpt lat="56.03313703981793" lon="22.194971527485066"><ele>141.0</ele><time>2026-04-18T11:42:41Z</time></trkpt><trkpt lat="56.03305435299177" lon="22.195025078164115"><ele>142.16666666666666</ele><time>2026-04-18T11:42:42Z</time></trkpt><trkpt lat="56.032972281931194" lon="22.195050403144858"><ele>143.33333333333334</ele><time>2026-04-18T11:42:43Z</time></trkpt><trkpt lat="56.032883976603124" lon="22.195055621403274"><ele>144.5</ele><time>2026-04-18T11:42:44Z</time></trkpt><trkpt lat="56.03279499701168" lon="22.19503497491427"><ele>145.66666666666669</ele><time>2026-04-18T11:42:45Z</time></trkpt><trkpt lat="56.03271358312469" lon="22.19499043907866"><ele>146.83333333333334</ele><time>2026-04-18T11:42:46Z</time></trkpt><trkpt lat="56.0326225816637" lon="22.19492729692622"><ele>148.0</ele><time>2026-04-18T11:42:47Z</time></trkpt><trkpt lat="56.03252931139552" lon="22.194855567798186"><ele>149.0</ele><time>2026-04-18T11:42:48Z</time></trkpt><trkpt lat="56.03243559817633" lon="22.194782944263665"><ele>150.0</ele><time>2026-04-18T11:42:49Z</time></trkpt><trkpt lat="56.03236387683381" lon="22.194733143572737"><ele>151.0</ele><time>2026-04-18T11:42:50Z</time></trkpt><trkpt lat="56.0322366306912" lon="22.194693123974144"><ele>152.0</ele><time>2026-04-18T11:42:52Z</time></trkpt><trkpt lat="56.032157657831824" lon="22.194698808194637"><ele>153.0</ele><time>2026-04-18T11:42:53Z</time></trkpt><trkpt lat="56.0320762572946" lon="22.194565369585405"><ele>153.0</ele><time>2026-04-18T11:42:54Z</time></trkpt><trkpt lat="56.03199772707607" lon="22.19456324201735"><ele>153.0</ele><time>2026-04-18T11:42:55Z</time></trkpt><trkpt lat="56.0319161236639" lon="22.194577229644416"><ele>153.0</ele><time>2026-04-18T11:42:56Z</time></trkpt><trkpt lat="56.031825094998034" lon="22.194555833909394"><ele>153.0</ele><time>2026-04-18T11:42:57Z</time></trkpt><trkpt lat="56.03171782517517" lon="22.194553288672978"><ele>153.0</ele><time>2026-04-18T11:42:58Z</time></trkpt><trkpt lat="56.03160331100143" lon="22.194556907068236"><ele>152.83333333333334</ele><time>2026-04-18T11:42:59Z</time></trkpt><trkpt lat="56.031503884791945" lon="22.19455799980197"><ele>152.66666666666666</ele><time>2026-04-18T11:43:00Z</time></trkpt><trkpt lat="56.03140462618003" lon="22.194557381276926"><ele>152.5</ele><time>2026-04-18T11:43:01Z</time></trkpt><trkpt lat="56.03131861590706" lon="22.19456448919034"><ele>152.33333333333331</ele><time>2026-04-18T11:43:02Z</time></trkpt><trkpt lat="56.03123194959831" lon="22.194570372495395"><ele>152.16666666666666</ele><time>2026-04-18T11:43:03Z</time></trkpt><trkpt lat="56.03116184840011" lon="22.19456303667076"><ele>152.0</ele><time>2026-04-18T11:43:04Z</time></trkpt><trkpt lat="56.03108820506212" lon="22.194560901264396"><ele>152.0</ele><time>2026-04-18T11:43:05Z</time></trkpt><trkpt lat="56.031011165494974" lon="22.1945633422444"><ele>152.0</ele><time>2026-04-18T11:43:06Z</time></trkpt><trkpt lat="56.030930434505144" lon="22.19455945658211"><ele>152.0</ele><time>2026-04-18T11:43:07Z</time></trkpt><trkpt lat="56.03081740094793" lon="22.194563728271532"><ele>152.0</ele><time>2026-04-18T11:43:09Z</time></trkpt><trkpt lat="56.030708162471235" lon="22.194532265452995"><ele>152.0</ele><time>2026-04-18T11:43:11Z</time></trkpt><trkpt lat="56.03063429396002" lon="22.19453180613299"><ele>151.79999999999998</ele><time>2026-04-18T11:43:12Z</time></trkpt><trkpt lat="56.03054097988712" lon="22.194550975043775"><ele>151.6</ele><time>2026-04-18T11:43:13Z</time></trkpt><trkpt lat="56.03044041470031" lon="22.194542938584533"><ele>151.39999999999998</ele><time>2026-04-18T11:43:14Z</time></trkpt><trkpt lat="56.03033184456572" lon="22.194541490215478"><ele>151.2</ele><time>2026-04-18T11:43:15Z</time></trkpt><trkpt lat="56.03021595595973" lon="22.19454282891841"><ele>151.0</ele><time>2026-04-18T11:43:16Z</time></trkpt><trkpt lat="56.030106278886755" lon="22.19453792495907"><ele>151.0</ele><time>2026-04-18T11:43:17Z</time></trkpt><trkpt lat="56.030004828760795" lon="22.194531081888126"><ele>151.0</ele><time>2026-04-18T11:43:18Z</time></trkpt><trkpt lat="56.02991348843385" lon="22.194518312579078"><ele>151.0</ele><time>2026-04-18T11:43:19Z</time></trkpt><trkpt lat="56.02983770489527" lon="22.1945085822683"><ele>151.0</ele><time>2026-04-18T11:43:20Z</time></trkpt><trkpt lat="56.02975350642107" lon="22.194508330064014"><ele>151.0</ele><time>2026-04-18T11:43:22Z</time></trkpt><trkpt lat="56.02971270359008" lon="22.194677521973208"><ele>151.0</ele><time>2026-04-18T11:43:25Z</time></trkpt><trkpt lat="56.029712144035074" lon="22.1948637914309"><ele>149.0</ele><time>2026-04-18T11:43:27Z</time></trkpt><trkpt lat="56.02972610319054" lon="22.195008515180827"><ele>149.0</ele><time>2026-04-18T11:43:29Z</time></trkpt><trkpt lat="56.02975596906787" lon="22.195120633123764"><ele>149.0</ele><time>2026-04-18T11:43:32Z</time></trkpt><trkpt lat="56.02982371277442" lon="22.195194891327013"><ele>149.0</ele><time>2026-04-18T11:43:35Z</time></trkpt><trkpt lat="56.0298185132016" lon="22.19507339137979"><ele>149.0</ele><time>2026-04-18T11:43:38.999Z</time></trkpt></trkseg><trkseg><trkpt lat="56.02991226767276" lon="22.194957895177215"><ele>149.0</ele><time>2026-04-18T13:51:05.583Z</time></trkpt><trkpt lat="56.029857637089144" lon="22.195042510175018"><ele>149.0</ele><time>2026-04-18T13:51:07.583Z</time></trkpt><trkpt lat="56.02979321174864" lon="22.19509789520827"><ele>149.0</ele><time>2026-04-18T13:51:48Z</time></trkpt><trkpt lat="56.02972549024476" lon="22.195035891450228"><ele>149.0</ele><time>2026-04-18T13:51:51Z</time></trkpt><trkpt lat="56.02971967118625" lon="22.194863832054544"><ele>149.0</ele><time>2026-04-18T13:51:54Z</time></trkpt><trkpt lat="56.029726079905984" lon="22.19473087553267"><ele>149.0</ele><time>2026-04-18T13:51:56Z</time></trkpt><trkpt lat="56.029729677075586" lon="22.19458880004525"><ele>149.4</ele><time>2026-04-18T13:51:59Z</time></trkpt><trkpt lat="56.02965739416778" lon="22.19452672001346"><ele>149.8</ele><time>2026-04-18T13:52:01Z</time></trkpt><trkpt lat="56.029549412787645" lon="22.194520742173026"><ele>150.2</ele><time>2026-04-18T13:52:02Z</time></trkpt><trkpt lat="56.02945250728475" lon="22.19452913537817"><ele>150.6</ele><time>2026-04-18T13:52:03Z</time></trkpt><trkpt lat="56.02938269940187" lon="22.194536052015184"><ele>151.0</ele><time>2026-04-18T13:52:04Z</time></trkpt><trkpt lat="56.02927996035845" lon="22.19453294930549"><ele>151.0</ele><time>2026-04-18T13:52:06Z</time></trkpt><trkpt lat="56.029222445540185" lon="22.194462297414827"><ele>151.0</ele><time>2026-04-18T13:52:08Z</time></trkpt><trkpt lat="56.0292011684599" lon="22.19424768688513"><ele>151.0</ele><time>2026-04-18T13:52:10Z</time></trkpt><trkpt lat="56.02922782914913" lon="22.194073567172616"><ele>151.0</ele><time>2026-04-18T13:52:11Z</time></trkpt><trkpt lat="56.02921442273104" lon="22.19391550358537"><ele>151.0</ele><time>2026-04-18T13:52:12Z</time></trkpt><trkpt lat="56.02922173528503" lon="22.193767309792523"><ele>151.33333333333334</ele><time>2026-04-18T13:52:13Z</time></trkpt><trkpt lat="56.02922603030737" lon="22.193620396059274"><ele>151.66666666666669</ele><time>2026-04-18T13:52:14Z</time></trkpt><trkpt lat="56.02922607186019" lon="22.1934724506981"><ele>152.0</ele><time>2026-04-18T13:52:15Z</time></trkpt><trkpt lat="56.02922735981723" lon="22.19332870934125"><ele>152.33333333333334</ele><time>2026-04-18T13:52:16Z</time></trkpt><trkpt lat="56.02923151367649" lon="22.193186589507135"><ele>152.66666666666666</ele><time>2026-04-18T13:52:17Z</time></trkpt><trkpt lat="56.029233542477996" lon="22.1930353229821"><ele>153.0</ele><time>2026-04-18T13:52:18Z</time></trkpt><trkpt lat="56.0292420010071" lon="22.19288476151099"><ele>153.0</ele><time>2026-04-18T13:52:19Z</time></trkpt><trkpt lat="56.02924607931491" lon="22.192737208543427"><ele>153.0</ele><time>2026-04-18T13:52:20Z</time></trkpt><trkpt lat="56.029249294188766" lon="22.19259143390516"><ele>153.0</ele><time>2026-04-18T13:52:21Z</time></trkpt><trkpt lat="56.02925015096898" lon="22.192449749439305"><ele>153.0</ele><time>2026-04-18T13:52:22Z</time></trkpt><trkpt lat="56.02924879561674" lon="22.192311877290013"><ele>153.0</ele><time>2026-04-18T13:52:23Z</time></trkpt><trkpt lat="56.02924718613146" lon="22.1921782374859"><ele>153.0</ele><time>2026-04-18T13:52:24Z</time></trkpt><trkpt lat="56.02925022744414" lon="22.192053649154804"><ele>152.6</ele><time>2026-04-18T13:52:25Z</time></trkpt><trkpt lat="56.029250977366694" lon="22.191909519401246"><ele>152.20000000000002</ele><time>2026-04-18T13:52:27Z</time></trkpt><trkpt lat="56.02925763475915" lon="22.191730588489047"><ele>151.8</ele><time>2026-04-18T13:52:29Z</time></trkpt><trkpt lat="56.02925589322865" lon="22.191603450657695"><ele>151.4</ele><time>2026-04-18T13:52:30Z</time></trkpt><trkpt lat="56.02925769467607" lon="22.191390563679565"><ele>151.0</ele><time>2026-04-18T13:52:32Z</time></trkpt><trkpt lat="56.02925971211997" lon="22.191196824684404"><ele>151.0</ele><time>2026-04-18T13:52:34Z</time></trkpt><trkpt lat="56.02925726306686" lon="22.19099845182624"><ele>151.0</ele><time>2026-04-18T13:52:36Z</time></trkpt><trkpt lat="56.02923119648799" lon="22.1908014884046"><ele>151.0</ele><time>2026-04-18T13:52:38Z</time></trkpt><trkpt lat="56.029220720842325" lon="22.190658387523317"><ele>151.0</ele><time>2026-04-18T13:52:39Z</time></trkpt><trkpt lat="56.029157045479685" lon="22.19048582990867"><ele>151.0</ele><time>2026-04-18T13:52:40Z</time></trkpt><trkpt lat="56.02910579351719" lon="22.19029818091063"><ele>150.0</ele><time>2026-04-18T13:52:41Z</time></trkpt><trkpt lat="56.029057265685346" lon="22.190098666300475"><ele>149.0</ele><time>2026-04-18T13:52:42Z</time></trkpt><trkpt lat="56.02899967073974" lon="22.18989350074017"><ele>148.0</ele><time>2026-04-18T13:52:43Z</time></trkpt><trkpt lat="56.02893228099476" lon="22.189697320181743"><ele>147.0</ele><time>2026-04-18T13:52:44Z</time></trkpt><trkpt lat="56.02886886764461" lon="22.189506618234564"><ele>147.0</ele><time>2026-04-18T13:52:45Z</time></trkpt><trkpt lat="56.028804062855365" lon="22.189321463956137"><ele>147.0</ele><time>2026-04-18T13:52:46Z</time></trkpt><trkpt lat="56.028737779645155" lon="22.189133294207135"><ele>147.0</ele><time>2026-04-18T13:52:47Z</time></trkpt><trkpt lat="56.02867313226853" lon="22.188953601355472"><ele>147.0</ele><time>2026-04-18T13:52:48Z</time></trkpt><trkpt lat="56.02860923123488" lon="22.188779971448273"><ele>147.5</ele><time>2026-04-18T13:52:49Z</time></trkpt><trkpt lat="56.02854883791771" lon="22.188599457026893"><ele>148.0</ele><time>2026-04-18T13:52:50Z</time></trkpt><trkpt lat="56.02848759290982" lon="22.188415735096875"><ele>148.5</ele><time>2026-04-18T13:52:51Z</time></trkpt><trkpt lat="56.028420963041214" lon="22.188233947574297"><ele>149.0</ele><time>2026-04-18T13:52:52Z</time></trkpt><trkpt lat="56.02835372348516" lon="22.188039152617392"><ele>150.0</ele><time>2026-04-18T13:52:53Z</time></trkpt><trkpt lat="56.02826822839073" lon="22.187798967791796"><ele>151.0</ele><time>2026-04-18T13:52:54Z</time></trkpt><trkpt lat="56.028179480951465" lon="22.18754579732541"><ele>152.0</ele><time>2026-04-18T13:52:55Z</time></trkpt><trkpt lat="56.028092581649545" lon="22.187300156444135"><ele>152.0</ele><time>2026-04-18T13:52:56Z</time></trkpt><trkpt lat="56.02799672921136" lon="22.187020303023438"><ele>152.0</ele><time>2026-04-18T13:52:57Z</time></trkpt><trkpt lat="56.02789414607394" lon="22.186739448273613"><ele>152.0</ele><time>2026-04-18T13:52:58Z</time></trkpt><trkpt lat="56.027801853048516" lon="22.18648073247663"><ele>152.0</ele><time>2026-04-18T13:52:59Z</time></trkpt><trkpt lat="56.02773362627294" lon="22.1862435673559"><ele>152.0</ele><time>2026-04-18T13:53:00Z</time></trkpt><trkpt lat="56.02765312411242" lon="22.186014444746792"><ele>152.0</ele><time>2026-04-18T13:53:01Z</time></trkpt><trkpt lat="56.02757424388198" lon="22.185790286544716"><ele>152.0</ele><time>2026-04-18T13:53:02Z</time></trkpt><trkpt lat="56.02749266194341" lon="22.18555864340048"><ele>152.66666666666666</ele><time>2026-04-18T13:53:03Z</time></trkpt><trkpt lat="56.027406845585915" lon="22.185314975312576"><ele>153.33333333333334</ele><time>2026-04-18T13:53:04Z</time></trkpt><trkpt lat="56.02731636795241" lon="22.185057879999395"><ele>154.0</ele><time>2026-04-18T13:53:05Z</time></trkpt><trkpt lat="56.027217689308614" lon="22.18477748121907"><ele>155.0</ele><time>2026-04-18T13:53:06Z</time></trkpt><trkpt lat="56.02712315046225" lon="22.184509058350937"><ele>156.0</ele><time>2026-04-18T13:53:07Z</time></trkpt><trkpt lat="56.027043495474366" lon="22.184280769302248"><ele>157.0</ele><time>2026-04-18T13:53:08Z</time></trkpt><trkpt lat="56.02696804119082" lon="22.184066851816887"><ele>157.5</ele><time>2026-04-18T13:53:09Z</time></trkpt><trkpt lat="56.02688593298769" lon="22.18388436209377"><ele>158.0</ele><time>2026-04-18T13:53:10Z</time></trkpt><trkpt lat="56.026817950458835" lon="22.183680736688583"><ele>158.5</ele><time>2026-04-18T13:53:11Z</time></trkpt><trkpt lat="56.02674972262182" lon="22.183481278073124"><ele>159.0</ele><time>2026-04-18T13:53:12Z</time></trkpt><trkpt lat="56.02668840228118" lon="22.18328515667087"><ele>160.0</ele><time>2026-04-18T13:53:13Z</time></trkpt><trkpt lat="56.02662855082172" lon="22.18309889908588"><ele>161.0</ele><time>2026-04-18T13:53:14Z</time></trkpt><trkpt lat="56.0265731440033" lon="22.182916782273185"><ele>162.0</ele><time>2026-04-18T13:53:15Z</time></trkpt><trkpt lat="56.026520054833334" lon="22.182754684591806"><ele>163.0</ele><time>2026-04-18T13:53:16Z</time></trkpt><trkpt lat="56.02646865806006" lon="22.18259055539814"><ele>164.0</ele><time>2026-04-18T13:53:17Z</time></trkpt><trkpt lat="56.026411003731724" lon="22.18241841604612"><ele>164.25</ele><time>2026-04-18T13:53:18Z</time></trkpt><trkpt lat="56.02635009893814" lon="22.182240757836595"><ele>164.5</ele><time>2026-04-18T13:53:19Z</time></trkpt><trkpt lat="56.02628806864152" lon="22.18206636875131"><ele>164.75</ele><time>2026-04-18T13:53:20Z</time></trkpt><trkpt lat="56.026224177917975" lon="22.181872815830797"><ele>165.0</ele><time>2026-04-18T13:53:21Z</time></trkpt><trkpt lat="56.02616497717339" lon="22.18168553816443"><ele>165.25</ele><time>2026-04-18T13:53:22Z</time></trkpt><trkpt lat="56.026102936999855" lon="22.181494312907393"><ele>165.5</ele><time>2026-04-18T13:53:23Z</time></trkpt><trkpt lat="56.02604028130585" lon="22.181300028028296"><ele>165.75</ele><time>2026-04-18T13:53:24Z</time></trkpt><trkpt lat="56.025987377984045" lon="22.181078380009737"><ele>166.0</ele><time>2026-04-18T13:53:25Z</time></trkpt><trkpt lat="56.02591081510763" lon="22.1808379065353"><ele>165.66666666666669</ele><time>2026-04-18T13:53:26Z</time></trkpt><trkpt lat="56.02582801992271" lon="22.180577858069512"><ele>165.33333333333334</ele><time>2026-04-18T13:53:27Z</time></trkpt><trkpt lat="56.025744555320486" lon="22.180317118903957"><ele>165.0</ele><time>2026-04-18T13:53:28Z</time></trkpt><trkpt lat="56.025665537074076" lon="22.180068657528523"><ele>164.75</ele><time>2026-04-18T13:53:29Z</time></trkpt><trkpt lat="56.0255783178099" lon="22.179850246001912"><ele>164.5</ele><time>2026-04-18T13:53:30Z</time></trkpt><trkpt lat="56.025515419182234" lon="22.17964027761314"><ele>164.25</ele><time>2026-04-18T13:53:30.999Z</time></trkpt><trkpt lat="56.0254554233065" lon="22.179422159677735"><ele>164.0</ele><time>2026-04-18T13:53:31.999Z</time></trkpt><trkpt lat="56.025393220649995" lon="22.179197303575055"><ele>164.33333333333331</ele><time>2026-04-18T13:53:32.999Z</time></trkpt><trkpt lat="56.02532537065943" lon="22.178958457130808"><ele>164.66666666666666</ele><time>2026-04-18T13:53:33.999Z</time></trkpt><trkpt lat="56.0252601562383" lon="22.178714867230102"><ele>165.0</ele><time>2026-04-18T13:53:34.999Z</time></trkpt><trkpt lat="56.02519925182963" lon="22.178462051859494"><ele>165.0</ele><time>2026-04-18T13:53:35.999Z</time></trkpt><trkpt lat="56.02513931585573" lon="22.178204838248178"><ele>165.0</ele><time>2026-04-18T13:53:36.999Z</time></trkpt><trkpt lat="56.02507675057916" lon="22.177946191911673"><ele>165.0</ele><time>2026-04-18T13:53:37.999Z</time></trkpt><trkpt lat="56.025016069983295" lon="22.177693604278925"><ele>165.66666666666666</ele><time>2026-04-18T13:53:38.998Z</time></trkpt><trkpt lat="56.02495493493854" lon="22.177437575785074"><ele>166.33333333333331</ele><time>2026-04-18T13:53:39.998Z</time></trkpt><trkpt lat="56.02489582981866" lon="22.177181892707733"><ele>167.0</ele><time>2026-04-18T13:53:40.998Z</time></trkpt><trkpt lat="56.02483509130249" lon="22.176929666783277"><ele>167.0</ele><time>2026-04-18T13:53:41.998Z</time></trkpt><trkpt lat="56.02477633011338" lon="22.176672040352116"><ele>167.0</ele><time>2026-04-18T13:53:42.998Z</time></trkpt><trkpt lat="56.02471527427967" lon="22.176409922850674"><ele>167.0</ele><time>2026-04-18T13:53:43.998Z</time></trkpt><trkpt lat="56.02465674010117" lon="22.176151980183363"><ele>166.66666666666666</ele><time>2026-04-18T13:53:44.998Z</time></trkpt><trkpt lat="56.02459248101147" lon="22.1758950418324"><ele>166.33333333333334</ele><time>2026-04-18T13:53:45.998Z</time></trkpt><trkpt lat="56.02452845063676" lon="22.175631877080892"><ele>166.0</ele><time>2026-04-18T13:53:46.998Z</time></trkpt><trkpt lat="56.024468424438666" lon="22.175377040064653"><ele>166.0</ele><time>2026-04-18T13:53:47.998Z</time></trkpt><trkpt lat="56.024410366544274" lon="22.17512092035753"><ele>166.0</ele><time>2026-04-18T13:53:48.998Z</time></trkpt><trkpt lat="56.024349119270966" lon="22.174857544310736"><ele>166.0</ele><time>2026-04-18T13:53:49.998Z</time></trkpt><trkpt lat="56.02428762896476" lon="22.17460134495454"><ele>166.0</ele><time>2026-04-18T13:53:50.998Z</time></trkpt><trkpt lat="56.0242248548413" lon="22.174343888385827"><ele>166.0</ele><time>2026-04-18T13:53:51.998Z</time></trkpt><trkpt lat="56.02416428507391" lon="22.174089023806324"><ele>166.0</ele><time>2026-04-18T13:53:52.998Z</time></trkpt><trkpt lat="56.024099332856935" lon="22.173823537078597"><ele>166.0</ele><time>2026-04-18T13:53:53.998Z</time></trkpt><trkpt lat="56.02403640468052" lon="22.17355683111064"><ele>166.0</ele><time>2026-04-18T13:53:54.998Z</time></trkpt><trkpt lat="56.02396535495036" lon="22.17329137834708"><ele>166.0</ele><time>2026-04-18T13:53:55.998Z</time></trkpt><trkpt lat="56.02390204055169" lon="22.173031953695638"><ele>166.33333333333334</ele><time>2026-04-18T13:53:56.998Z</time></trkpt><trkpt lat="56.02385208032376" lon="22.172749006568687"><ele>166.66666666666666</ele><time>2026-04-18T13:53:57.998Z</time></trkpt><trkpt lat="56.02379254021329" lon="22.172497673220235"><ele>167.0</ele><time>2026-04-18T13:53:58.998Z</time></trkpt><trkpt lat="56.023716979023376" lon="22.17224864965584"><ele>167.0</ele><time>2026-04-18T13:53:59.998Z</time></trkpt><trkpt lat="56.023649936544494" lon="22.171954992260265"><ele>167.0</ele><time>2026-04-18T13:54:00.998Z</time></trkpt><trkpt lat="56.02357349021495" lon="22.17164090904318"><ele>167.0</ele><time>2026-04-18T13:54:01.997Z</time></trkpt><trkpt lat="56.023501347509466" lon="22.171337333452755"><ele>166.66666666666666</ele><time>2026-04-18T13:54:02.997Z</time></trkpt><trkpt lat="56.023432321737005" lon="22.17105674404989"><ele>166.33333333333334</ele><time>2026-04-18T13:54:03.997Z</time></trkpt><trkpt lat="56.02338273531615" lon="22.17077264140442"><ele>166.0</ele><time>2026-04-18T13:54:04.997Z</time></trkpt><trkpt lat="56.023304483276945" lon="22.17051187268959"><ele>165.0</ele><time>2026-04-18T13:54:05.997Z</time></trkpt><trkpt lat="56.023241856946036" lon="22.17023757076289"><ele>164.0</ele><time>2026-04-18T13:54:06.997Z</time></trkpt><trkpt lat="56.023180506833384" lon="22.169972358096388"><ele>163.0</ele><time>2026-04-18T13:54:07.997Z</time></trkpt><trkpt lat="56.02311912439119" lon="22.16971121102873"><ele>163.0</ele><time>2026-04-18T13:54:08.997Z</time></trkpt><trkpt lat="56.02305701220587" lon="22.169449638108617"><ele>163.0</ele><time>2026-04-18T13:54:09.997Z</time></trkpt><trkpt lat="56.022996264339135" lon="22.1691935258773"><ele>163.0</ele><time>2026-04-18T13:54:10.997Z</time></trkpt><trkpt lat="56.02293813386269" lon="22.168931305761387"><ele>164.0</ele><time>2026-04-18T13:54:11.997Z</time></trkpt><trkpt lat="56.02287545328982" lon="22.168667382538544"><ele>165.0</ele><time>2026-04-18T13:54:12.997Z</time></trkpt><trkpt lat="56.022811367235704" lon="22.168401479038387"><ele>166.0</ele><time>2026-04-18T13:54:13.997Z</time></trkpt><trkpt lat="56.02274553487393" lon="22.168130890497025"><ele>167.0</ele><time>2026-04-18T13:54:14.997Z</time></trkpt><trkpt lat="56.02267240404703" lon="22.167822513928396"><ele>168.0</ele><time>2026-04-18T13:54:15.997Z</time></trkpt><trkpt lat="56.02259289944567" lon="22.167494865027994"><ele>169.0</ele><time>2026-04-18T13:54:16.997Z</time></trkpt><trkpt lat="56.02252021618669" lon="22.167191361442292"><ele>169.25</ele><time>2026-04-18T13:54:17.997Z</time></trkpt><trkpt lat="56.0224599014314" lon="22.166950066560016"><ele>169.5</ele><time>2026-04-18T13:54:18.997Z</time></trkpt><trkpt lat="56.02241433386602" lon="22.166754465627907"><ele>169.75</ele><time>2026-04-18T13:54:19.997Z</time></trkpt><trkpt lat="56.02237211482723" lon="22.166573415009225"><ele>170.0</ele><time>2026-04-18T13:54:20.997Z</time></trkpt><trkpt lat="56.02233543845009" lon="22.166423889788142"><ele>170.8</ele><time>2026-04-18T13:54:21.997Z</time></trkpt><trkpt lat="56.02230715891617" lon="22.166284118226034"><ele>171.6</ele><time>2026-04-18T13:54:22.997Z</time></trkpt><trkpt lat="56.02227587932399" lon="22.166182980068697"><ele>172.39999999999998</ele><time>2026-04-18T13:54:23.997Z</time></trkpt><trkpt lat="56.022241755103664" lon="22.1660044765174"><ele>173.2</ele><time>2026-04-18T13:54:25.997Z</time></trkpt><trkpt lat="56.02224029070022" lon="22.165885022400516"><ele>174.0</ele><time>2026-04-18T13:54:27.997Z</time></trkpt><trkpt lat="56.02236799015479" lon="22.16577824759156"><ele>174.0</ele><time>2026-04-18T13:54:30.997Z</time></trkpt><trkpt lat="56.02243370960393" lon="22.165792525220187"><ele>174.0</ele><time>2026-04-18T13:54:31.997Z</time></trkpt><trkpt lat="56.022497999919636" lon="22.165837535825123"><ele>174.0</ele><time>2026-04-18T13:54:32.997Z</time></trkpt><trkpt lat="56.02259045341763" lon="22.16589914360176"><ele>174.0</ele><time>2026-04-18T13:54:33.997Z</time></trkpt><trkpt lat="56.02267621828285" lon="22.165948025851094"><ele>174.0</ele><time>2026-04-18T13:54:34.997Z</time></trkpt><trkpt lat="56.02276422968529" lon="22.165986850350315"><ele>174.0</ele><time>2026-04-18T13:54:35.997Z</time></trkpt><trkpt lat="56.02287217247511" lon="22.166026448928832"><ele>173.75</ele><time>2026-04-18T13:54:36.997Z</time></trkpt><trkpt lat="56.02299952393059" lon="22.166068891732813"><ele>173.5</ele><time>2026-04-18T13:54:37.997Z</time></trkpt><trkpt lat="56.02312794009273" lon="22.16610578469067"><ele>173.25</ele><time>2026-04-18T13:54:38.997Z</time></trkpt><trkpt lat="56.02326564526085" lon="22.16614756675976"><ele>173.0</ele><time>2026-04-18T13:54:39.997Z</time></trkpt><trkpt lat="56.02339951360603" lon="22.166196001198177"><ele>173.60000000000002</ele><time>2026-04-18T13:54:40.997Z</time></trkpt><trkpt lat="56.023519932293894" lon="22.166257371921873"><ele>174.20000000000002</ele><time>2026-04-18T13:54:41.997Z</time></trkpt><trkpt lat="56.02362319587836" lon="22.166312261982515"><ele>174.8</ele><time>2026-04-18T13:54:42.997Z</time></trkpt><trkpt lat="56.023713306073574" lon="22.16634888939885"><ele>175.4</ele><time>2026-04-18T13:54:43.997Z</time></trkpt><trkpt lat="56.0238005310421" lon="22.166364320215752"><ele>176.0</ele><time>2026-04-18T13:54:44.997Z</time></trkpt><trkpt lat="56.02386807856794" lon="22.16637105777723"><ele>176.0</ele><time>2026-04-18T13:54:45.997Z</time></trkpt><trkpt lat="56.02393519096269" lon="22.166377322792506"><ele>176.0</ele><time>2026-04-18T13:54:46.997Z</time></trkpt><trkpt lat="56.02401348363883" lon="22.166382682109713"><ele>176.0</ele><time>2026-04-18T13:54:47.997Z</time></trkpt><trkpt lat="56.02409882047352" lon="22.166394413107188"><ele>176.0</ele><time>2026-04-18T13:54:48.997Z</time></trkpt><trkpt lat="56.024200111122475" lon="22.166404797617275"><ele>176.0</ele><time>2026-04-18T13:54:49.997Z</time></trkpt><trkpt lat="56.024326689672456" lon="22.166413977702053"><ele>176.0</ele><time>2026-04-18T13:54:50.997Z</time></trkpt><trkpt lat="56.02445581366761" lon="22.16641699732978"><ele>176.0</ele><time>2026-04-18T13:54:51.997Z</time></trkpt><trkpt lat="56.02456739189375" lon="22.166408507040376"><ele>176.0</ele><time>2026-04-18T13:54:52.997Z</time></trkpt><trkpt lat="56.02467620970318" lon="22.166387037219685"><ele>176.0</ele><time>2026-04-18T13:54:53.997Z</time></trkpt><trkpt lat="56.02477966140119" lon="22.16635780693614"><ele>176.0</ele><time>2026-04-18T13:54:54.997Z</time></trkpt><trkpt lat="56.02488632203563" lon="22.166330347643992"><ele>176.0</ele><time>2026-04-18T13:54:55.997Z</time></trkpt><trkpt lat="56.02498998714113" lon="22.166298365703973"><ele>176.0</ele><time>2026-04-18T13:54:56.997Z</time></trkpt><trkpt lat="56.02509576895628" lon="22.16626732381324"><ele>176.0</ele><time>2026-04-18T13:54:57.997Z</time></trkpt><trkpt lat="56.02517924576615" lon="22.166252822132023"><ele>176.0</ele><time>2026-04-18T13:54:58.997Z</time></trkpt><trkpt lat="56.02524689327622" lon="22.16624074261113"><ele>175.16666666666666</ele><time>2026-04-18T13:54:59.997Z</time></trkpt><trkpt lat="56.02531401233739" lon="22.166239114827963"><ele>174.33333333333331</ele><time>2026-04-18T13:55:00.997Z</time></trkpt><trkpt lat="56.02542698579439" lon="22.166298162433385"><ele>173.5</ele><time>2026-04-18T13:55:02.997Z</time></trkpt><trkpt lat="56.025494027918846" lon="22.166297120315946"><ele>172.66666666666666</ele><time>2026-04-18T13:55:03.997Z</time></trkpt><trkpt lat="56.02553738518511" lon="22.166482803190203"><ele>171.83333333333334</ele><time>2026-04-18T13:55:04.997Z</time></trkpt><trkpt lat="56.025517575869856" lon="22.166600634937858"><ele>171.0</ele><time>2026-04-18T13:55:05.997Z</time></trkpt><trkpt lat="56.02554245183956" lon="22.16670635950288"><ele>170.7142857142857</ele><time>2026-04-18T13:55:06.997Z</time></trkpt><trkpt lat="56.02557806353662" lon="22.16680513485753"><ele>170.42857142857142</ele><time>2026-04-18T13:55:07.997Z</time></trkpt><trkpt lat="56.025600517337615" lon="22.166921760750945"><ele>170.14285714285714</ele><time>2026-04-18T13:55:08.997Z</time></trkpt><trkpt lat="56.02562629047939" lon="22.167056633813772"><ele>169.85714285714283</ele><time>2026-04-18T13:55:09.997Z</time></trkpt><trkpt lat="56.02565274942123" lon="22.167188794256933"><ele>169.57142857142856</ele><time>2026-04-18T13:55:10.997Z</time></trkpt><trkpt lat="56.025681672307385" lon="22.167312301463085"><ele>169.28571428571428</ele><time>2026-04-18T13:55:11.997Z</time></trkpt><trkpt lat="56.025712480807876" lon="22.16743060124786"><ele>169.0</ele><time>2026-04-18T13:55:12.997Z</time></trkpt><trkpt lat="56.02580400868509" lon="22.167596084875495"><ele>169.16666666666669</ele><time>2026-04-18T13:55:14.997Z</time></trkpt><trkpt lat="56.02587730903608" lon="22.167655835718065"><ele>169.33333333333334</ele><time>2026-04-18T13:55:15.997Z</time></trkpt><trkpt lat="56.025962107293964" lon="22.167700298288448"><ele>169.5</ele><time>2026-04-18T13:55:16.997Z</time></trkpt><trkpt lat="56.026051483053074" lon="22.167749328307945"><ele>169.66666666666666</ele><time>2026-04-18T13:55:17.997Z</time></trkpt><trkpt lat="56.026118890003225" lon="22.167792087844077"><ele>169.83333333333331</ele><time>2026-04-18T13:55:18.997Z</time></trkpt><trkpt lat="56.02621267725703" lon="22.167846390712672"><ele>170.0</ele><time>2026-04-18T13:55:19.997Z</time></trkpt><trkpt lat="56.026302887486956" lon="22.167889241049526"><ele>170.0</ele><time>2026-04-18T13:55:20.997Z</time></trkpt><trkpt lat="56.026382804694414" lon="22.167918977193278"><ele>170.0</ele><time>2026-04-18T13:55:21.997Z</time></trkpt><trkpt lat="56.026476485938865" lon="22.167946172043024"><ele>170.0</ele><time>2026-04-18T13:55:22.997Z</time></trkpt><trkpt lat="56.02656280465475" lon="22.167960479586277"><ele>170.0</ele><time>2026-04-18T13:55:23.997Z</time></trkpt><trkpt lat="56.02664112336553" lon="22.16796506431958"><ele>170.0</ele><time>2026-04-18T13:55:24.998Z</time></trkpt><trkpt lat="56.026725122453726" lon="22.16796535037249"><ele>170.0</ele><time>2026-04-18T13:55:25.998Z</time></trkpt><trkpt lat="56.026812571432785" lon="22.16797135638227"><ele>169.66666666666666</ele><time>2026-04-18T13:55:26.998Z</time></trkpt><trkpt lat="56.026895710912406" lon="22.16798821582406"><ele>169.33333333333331</ele><time>2026-04-18T13:55:27.998Z</time></trkpt><trkpt lat="56.02697450172634" lon="22.1680154656889"><ele>169.0</ele><time>2026-04-18T13:55:28.998Z</time></trkpt><trkpt lat="56.02703986707467" lon="22.168041058221455"><ele>168.66666666666666</ele><time>2026-04-18T13:55:29.998Z</time></trkpt><trkpt lat="56.027151566396654" lon="22.168079204479625"><ele>168.33333333333334</ele><time>2026-04-18T13:55:31.998Z</time></trkpt><trkpt lat="56.02721845917007" lon="22.168105172823886"><ele>168.0</ele><time>2026-04-18T13:55:32.999Z</time></trkpt><trkpt lat="56.0272808702058" lon="22.168121181313904"><ele>168.0</ele><time>2026-04-18T13:55:33.999Z</time></trkpt><trkpt lat="56.02740026197719" lon="22.168134728585127"><ele>168.0</ele><time>2026-04-18T13:55:35.999Z</time></trkpt><trkpt lat="56.027501696525945" lon="22.168129184638467"><ele>168.0</ele><time>2026-04-18T13:55:37.999Z</time></trkpt><trkpt lat="56.02762177051056" lon="22.16807449184942"><ele>168.0</ele><time>2026-04-18T13:55:39.999Z</time></trkpt><trkpt lat="56.027685430438154" lon="22.16803247886814"><ele>168.0</ele><time>2026-04-18T13:55:40.999Z</time></trkpt><trkpt lat="56.027744299334685" lon="22.167988203206516"><ele>168.33333333333334</ele><time>2026-04-18T13:55:41.999Z</time></trkpt><trkpt lat="56.02782618855824" lon="22.16795846881806"><ele>168.66666666666666</ele><time>2026-04-18T13:55:43.999Z</time></trkpt><trkpt lat="56.02790712085671" lon="22.16792471762989"><ele>169.0</ele><time>2026-04-18T13:55:45.999Z</time></trkpt><trkpt lat="56.02797571765094" lon="22.167858152143104"><ele>169.33333333333331</ele><time>2026-04-18T13:55:48.999Z</time></trkpt><trkpt lat="56.02790673206718" lon="22.167768069782724"><ele>169.66666666666666</ele><time>2026-04-18T13:55:50.999Z</time></trkpt><trkpt lat="56.02795179771717" lon="22.167682490178063"><ele>170.0</ele><time>2026-04-18T13:55:55.999Z</time></trkpt><trkpt lat="56.02797130926594" lon="22.167574541751474"><ele>170.0</ele><time>2026-04-18T13:55:57.999Z</time></trkpt><trkpt lat="56.02802401707578" lon="22.16744979777025"><ele>170.0</ele><time>2026-04-18T13:55:59.999Z</time></trkpt><trkpt lat="56.02810078009137" lon="22.16735261701392"><ele>170.0</ele><time>2026-04-18T13:56:00.999Z</time></trkpt><trkpt lat="56.02818602136833" lon="22.1672646672743"><ele>170.0</ele><time>2026-04-18T13:56:02Z</time></trkpt><trkpt lat="56.02828976689595" lon="22.1671375153122"><ele>170.0</ele><time>2026-04-18T13:56:03Z</time></trkpt><trkpt lat="56.028395798826836" lon="22.16701680378824"><ele>170.2</ele><time>2026-04-18T13:56:04Z</time></trkpt><trkpt lat="56.028493049735815" lon="22.16694999894653"><ele>170.4</ele><time>2026-04-18T13:56:05Z</time></trkpt><trkpt lat="56.028561750798296" lon="22.166995410722976"><ele>170.60000000000002</ele><time>2026-04-18T13:56:06Z</time></trkpt><trkpt lat="56.02863715424009" lon="22.166959598113863"><ele>170.8</ele><time>2026-04-18T13:56:07Z</time></trkpt><trkpt lat="56.028723182171404" lon="22.166952026824063"><ele>171.0</ele><time>2026-04-18T13:56:08Z</time></trkpt><trkpt lat="56.028837940277796" lon="22.166952664718515"><ele>171.0</ele><time>2026-04-18T13:56:10Z</time></trkpt><trkpt lat="56.02894518862184" lon="22.166932112952416"><ele>171.0</ele><time>2026-04-18T13:56:12Z</time></trkpt><trkpt lat="56.02905778867247" lon="22.16687846020337"><ele>171.0</ele><time>2026-04-18T13:56:14Z</time></trkpt><trkpt lat="56.02917098164355" lon="22.166781088379444"><ele>171.0</ele><time>2026-04-18T13:56:16Z</time></trkpt><trkpt lat="56.029232083488544" lon="22.16672797450218"><ele>171.0</ele><time>2026-04-18T13:56:17Z</time></trkpt><trkpt lat="56.02929922904313" lon="22.16666566810533"><ele>170.66666666666666</ele><time>2026-04-18T13:56:18Z</time></trkpt><trkpt lat="56.02936283317871" lon="22.166594455930298"><ele>170.33333333333334</ele><time>2026-04-18T13:56:19Z</time></trkpt><trkpt lat="56.02942927398576" lon="22.166511749674594"><ele>170.0</ele><time>2026-04-18T13:56:20Z</time></trkpt><trkpt lat="56.02949048716924" lon="22.16643102457241"><ele>169.66666666666669</ele><time>2026-04-18T13:56:21Z</time></trkpt><trkpt lat="56.02955488091081" lon="22.166346511103953"><ele>169.33333333333334</ele><time>2026-04-18T13:56:22Z</time></trkpt><trkpt lat="56.02963182844578" lon="22.16624131245214"><ele>169.0</ele><time>2026-04-18T13:56:23Z</time></trkpt><trkpt lat="56.02971103948706" lon="22.16618004365934"><ele>169.0</ele><time>2026-04-18T13:56:24Z</time></trkpt><trkpt lat="56.02978794317075" lon="22.166090879152854"><ele>169.0</ele><time>2026-04-18T13:56:25Z</time></trkpt><trkpt lat="56.02986353192836" lon="22.166019131858143"><ele>169.0</ele><time>2026-04-18T13:56:26Z</time></trkpt><trkpt lat="56.02995323261919" lon="22.166064723698938"><ele>169.0</ele><time>2026-04-18T13:56:27Z</time></trkpt><trkpt lat="56.03003450333039" lon="22.166031034294246"><ele>169.0</ele><time>2026-04-18T13:56:28Z</time></trkpt><trkpt lat="56.03012900964388" lon="22.166048594381742"><ele>169.0</ele><time>2026-04-18T13:56:29Z</time></trkpt><trkpt lat="56.03022713208371" lon="22.166064794219903"><ele>167.83333333333334</ele><time>2026-04-18T13:56:30Z</time></trkpt><trkpt lat="56.03031706338876" lon="22.16606399809562"><ele>166.66666666666669</ele><time>2026-04-18T13:56:31Z</time></trkpt><trkpt lat="56.030406247872634" lon="22.166063056967374"><ele>165.5</ele><time>2026-04-18T13:56:32Z</time></trkpt><trkpt lat="56.03048972075193" lon="22.16606319824581"><ele>164.33333333333334</ele><time>2026-04-18T13:56:33Z</time></trkpt><trkpt lat="56.030572244557085" lon="22.166067693027546"><ele>163.16666666666666</ele><time>2026-04-18T13:56:34Z</time></trkpt><trkpt lat="56.0306593885653" lon="22.166064741242817"><ele>162.0</ele><time>2026-04-18T13:56:35Z</time></trkpt><trkpt lat="56.03074952881742" lon="22.166057756994498"><ele>161.33333333333334</ele><time>2026-04-18T13:56:36Z</time></trkpt><trkpt lat="56.03083766140952" lon="22.166051875549254"><ele>160.66666666666666</ele><time>2026-04-18T13:56:37Z</time></trkpt><trkpt lat="56.03090115496123" lon="22.16605116674096"><ele>160.0</ele><time>2026-04-18T13:56:38Z</time></trkpt><trkpt lat="56.03096867362849" lon="22.166041076227966"><ele>159.33333333333331</ele><time>2026-04-18T13:56:39Z</time></trkpt><trkpt lat="56.0310382182853" lon="22.16603171263762"><ele>158.66666666666666</ele><time>2026-04-18T13:56:40Z</time></trkpt><trkpt lat="56.03112180154423" lon="22.166012491176527"><ele>158.0</ele><time>2026-04-18T13:56:41Z</time></trkpt><trkpt lat="56.03121073664233" lon="22.16598042818355"><ele>158.0</ele><time>2026-04-18T13:56:42Z</time></trkpt><trkpt lat="56.03130001019168" lon="22.165937679547493"><ele>158.0</ele><time>2026-04-18T13:56:43Z</time></trkpt><trkpt lat="56.03137748128997" lon="22.16589472731718"><ele>158.0</ele><time>2026-04-18T13:56:44Z</time></trkpt><trkpt lat="56.03145510872375" lon="22.16586004955849"><ele>158.0</ele><time>2026-04-18T13:56:45Z</time></trkpt><trkpt lat="56.031529547258096" lon="22.165817773680445"><ele>158.0</ele><time>2026-04-18T13:56:46Z</time></trkpt><trkpt lat="56.03159900126693" lon="22.165787170511564"><ele>158.0</ele><time>2026-04-18T13:56:47Z</time></trkpt><trkpt lat="56.03166916622819" lon="22.16574754553801"><ele>157.33333333333331</ele><time>2026-04-18T13:56:48Z</time></trkpt><trkpt lat="56.03173178126558" lon="22.16571986639152"><ele>156.66666666666666</ele><time>2026-04-18T13:56:49Z</time></trkpt><trkpt lat="56.031793658920655" lon="22.1656934490405"><ele>156.0</ele><time>2026-04-18T13:56:50Z</time></trkpt><trkpt lat="56.03185719820954" lon="22.165709896791654"><ele>155.33333333333334</ele><time>2026-04-18T13:56:51Z</time></trkpt><trkpt lat="56.031966429639716" lon="22.165690666317488"><ele>154.66666666666669</ele><time>2026-04-18T13:56:53Z</time></trkpt><trkpt lat="56.032050762060635" lon="22.165696040539117"><ele>154.0</ele><time>2026-04-18T13:56:55Z</time></trkpt><trkpt lat="56.03211491662778" lon="22.16570495658933"><ele>153.8</ele><time>2026-04-18T13:56:58Z</time></trkpt><trkpt lat="56.03221420355311" lon="22.165701471379222"><ele>153.60000000000002</ele><time>2026-04-18T13:57:01Z</time></trkpt><trkpt lat="56.03229705663705" lon="22.16573588232229"><ele>153.4</ele><time>2026-04-18T13:57:02Z</time></trkpt><trkpt lat="56.03240830938237" lon="22.165755435225858"><ele>153.20000000000002</ele><time>2026-04-18T13:57:03Z</time></trkpt><trkpt lat="56.0325413033645" lon="22.1657786276832"><ele>153.0</ele><time>2026-04-18T13:57:04Z</time></trkpt><trkpt lat="56.0327047742338" lon="22.165805771279842"><ele>151.66666666666666</ele><time>2026-04-18T13:57:05Z</time></trkpt><trkpt lat="56.032884049693614" lon="22.165886417502776"><ele>150.33333333333331</ele><time>2026-04-18T13:57:06Z</time></trkpt><trkpt lat="56.03304906526354" lon="22.16596500770436"><ele>149.0</ele><time>2026-04-18T13:57:07Z</time></trkpt><trkpt lat="56.03318333741525" lon="22.166021245221604"><ele>149.0</ele><time>2026-04-18T13:57:08Z</time></trkpt><trkpt lat="56.033302834592625" lon="22.16606843479735"><ele>149.0</ele><time>2026-04-18T13:57:09Z</time></trkpt><trkpt lat="56.03340891251469" lon="22.166115190285275"><ele>149.0</ele><time>2026-04-18T13:57:10Z</time></trkpt><trkpt lat="56.03350074752055" lon="22.166148390849177"><ele>149.0</ele><time>2026-04-18T13:57:11Z</time></trkpt><trkpt lat="56.03359171316664" lon="22.16617756347794"><ele>149.0</ele><time>2026-04-18T13:57:12Z</time></trkpt><trkpt lat="56.03366521618474" lon="22.166198716370992"><ele>148.83333333333331</ele><time>2026-04-18T13:57:13Z</time></trkpt><trkpt lat="56.03374281039712" lon="22.166227701563237"><ele>148.66666666666666</ele><time>2026-04-18T13:57:14Z</time></trkpt><trkpt lat="56.03380663753042" lon="22.166257340605444"><ele>148.5</ele><time>2026-04-18T13:57:15Z</time></trkpt><trkpt lat="56.03387071350798" lon="22.166271605244443"><ele>148.33333333333334</ele><time>2026-04-18T13:57:16Z</time></trkpt><trkpt lat="56.033979655517285" lon="22.16626102221018"><ele>148.16666666666669</ele><time>2026-04-18T13:57:18Z</time></trkpt><trkpt lat="56.03410657466581" lon="22.166305657498317"><ele>148.0</ele><time>2026-04-18T13:57:20Z</time></trkpt><trkpt lat="56.03426012986783" lon="22.16595939867961"><ele>148.0</ele><time>2026-04-18T13:57:22Z</time></trkpt><trkpt lat="56.034321774674574" lon="22.16589720274259"><ele>148.0</ele><time>2026-04-18T13:57:23Z</time></trkpt><trkpt lat="56.034440744555916" lon="22.165809027568905"><ele>148.0</ele><time>2026-04-18T13:57:25Z</time></trkpt><trkpt lat="56.03455172229047" lon="22.165636669102064"><ele>148.0</ele><time>2026-04-18T13:57:27Z</time></trkpt><trkpt lat="56.03459224764666" lon="22.16552388221085"><ele>148.0</ele><time>2026-04-18T13:57:28Z</time></trkpt><trkpt lat="56.03465700971195" lon="22.165423246811926"><ele>147.75</ele><time>2026-04-18T13:57:29Z</time></trkpt><trkpt lat="56.03472926494368" lon="22.165280256861017"><ele>147.5</ele><time>2026-04-18T13:57:30Z</time></trkpt><trkpt lat="56.034828899018635" lon="22.16508461621642"><ele>147.25</ele><time>2026-04-18T13:57:31Z</time></trkpt><trkpt lat="56.034946284411866" lon="22.164838090181682"><ele>147.0</ele><time>2026-04-18T13:57:32Z</time></trkpt><trkpt lat="56.03506495937664" lon="22.164615770874306"><ele>146.75</ele><time>2026-04-18T13:57:33Z</time></trkpt><trkpt lat="56.0351543422991" lon="22.164438134080008"><ele>146.5</ele><time>2026-04-18T13:57:34Z</time></trkpt><trkpt lat="56.03525389105419" lon="22.1642982386241"><ele>146.25</ele><time>2026-04-18T13:57:35Z</time></trkpt><trkpt lat="56.03533472500236" lon="22.164163389874442"><ele>146.0</ele><time>2026-04-18T13:57:36Z</time></trkpt><trkpt lat="56.03539321942264" lon="22.164034480842574"><ele>145.8</ele><time>2026-04-18T13:57:37Z</time></trkpt><trkpt lat="56.0354583955351" lon="22.1639556758446"><ele>145.6</ele><time>2026-04-18T13:57:38Z</time></trkpt><trkpt lat="56.035506166510146" lon="22.16387564832733"><ele>145.4</ele><time>2026-04-18T13:57:39Z</time></trkpt><trkpt lat="56.03558678706744" lon="22.163740590241957"><ele>145.2</ele><time>2026-04-18T13:57:41Z</time></trkpt><trkpt lat="56.035665507857296" lon="22.163629058065663"><ele>145.0</ele><time>2026-04-18T13:57:43Z</time></trkpt><trkpt lat="56.03584602245175" lon="22.16373633731883"><ele>145.0</ele><time>2026-04-18T13:57:45Z</time></trkpt><trkpt lat="56.03595148946273" lon="22.163815703235727"><ele>145.0</ele><time>2026-04-18T13:57:46Z</time></trkpt><trkpt lat="56.0360770781454" lon="22.163912626979602"><ele>145.0</ele><time>2026-04-18T13:57:47Z</time></trkpt><trkpt lat="56.03621177511694" lon="22.164003614342178"><ele>145.0</ele><time>2026-04-18T13:57:48Z</time></trkpt><trkpt lat="56.036355989228184" lon="22.164107573744065"><ele>144.33333333333334</ele><time>2026-04-18T13:57:49Z</time></trkpt><trkpt lat="56.03650536430483" lon="22.16423213291437"><ele>143.66666666666666</ele><time>2026-04-18T13:57:50Z</time></trkpt><trkpt lat="56.03667229275821" lon="22.164365609759855"><ele>143.0</ele><time>2026-04-18T13:57:51Z</time></trkpt><trkpt lat="56.036851284674924" lon="22.164524871132194"><ele>143.0</ele><time>2026-04-18T13:57:52Z</time></trkpt><trkpt lat="56.03699890524529" lon="22.164658351292235"><ele>143.0</ele><time>2026-04-18T13:57:53Z</time></trkpt><trkpt lat="56.03712386453276" lon="22.1647637078763"><ele>143.0</ele><time>2026-04-18T13:57:54Z</time></trkpt><trkpt lat="56.037245879379725" lon="22.16485220762559"><ele>143.0</ele><time>2026-04-18T13:57:55Z</time></trkpt><trkpt lat="56.0373691346379" lon="22.164952966049167"><ele>142.25</ele><time>2026-04-18T13:57:56Z</time></trkpt><trkpt lat="56.03749416388169" lon="22.165062989770803"><ele>141.5</ele><time>2026-04-18T13:57:57Z</time></trkpt><trkpt lat="56.03761867675526" lon="22.165173858961232"><ele>140.75</ele><time>2026-04-18T13:57:58Z</time></trkpt><trkpt lat="56.0377448330822" lon="22.16528635983561"><ele>140.0</ele><time>2026-04-18T13:57:59Z</time></trkpt><trkpt lat="56.037856781225344" lon="22.16538717153572"><ele>140.0</ele><time>2026-04-18T13:58:00Z</time></trkpt><trkpt lat="56.03796708861839" lon="22.1654954327211"><ele>140.0</ele><time>2026-04-18T13:58:01Z</time></trkpt><trkpt lat="56.03806272192037" lon="22.165600335328207"><ele>140.0</ele><time>2026-04-18T13:58:02Z</time></trkpt><trkpt lat="56.03815427893782" lon="22.165699967865823"><ele>140.0</ele><time>2026-04-18T13:58:03Z</time></trkpt><trkpt lat="56.03823816198147" lon="22.165787720632114"><ele>140.0</ele><time>2026-04-18T13:58:04Z</time></trkpt><trkpt lat="56.03831192804049" lon="22.165862595769113"><ele>139.83333333333331</ele><time>2026-04-18T13:58:05Z</time></trkpt><trkpt lat="56.03837806991365" lon="22.165929326680583"><ele>139.66666666666666</ele><time>2026-04-18T13:58:06Z</time></trkpt><trkpt lat="56.03843874585981" lon="22.165983756250586"><ele>139.5</ele><time>2026-04-18T13:58:07Z</time></trkpt><trkpt lat="56.038532149547905" lon="22.166010896751665"><ele>139.33333333333334</ele><time>2026-04-18T13:58:09Z</time></trkpt><trkpt lat="56.03860140180539" lon="22.165960650151014"><ele>139.16666666666669</ele><time>2026-04-18T13:58:11Z</time></trkpt><trkpt lat="56.038700339509" lon="22.16585187798327"><ele>139.0</ele><time>2026-04-18T13:58:13Z</time></trkpt><trkpt lat="56.0387717605398" lon="22.16578527937914"><ele>139.0</ele><time>2026-04-18T13:58:14Z</time></trkpt><trkpt lat="56.038869833147245" lon="22.165703132784504"><ele>139.0</ele><time>2026-04-18T13:58:15Z</time></trkpt><trkpt lat="56.03897262975348" lon="22.165630434085827"><ele>139.0</ele><time>2026-04-18T13:58:16Z</time></trkpt><trkpt lat="56.03907397919157" lon="22.16559642144321"><ele>139.0</ele><time>2026-04-18T13:58:17Z</time></trkpt><trkpt lat="56.0391977781135" lon="22.165633477261668"><ele>139.0</ele><time>2026-04-18T13:58:18Z</time></trkpt><trkpt lat="56.039335431499104" lon="22.165619929120794"><ele>138.5</ele><time>2026-04-18T13:58:19Z</time></trkpt><trkpt lat="56.03948617546027" lon="22.165647200975563"><ele>138.0</ele><time>2026-04-18T13:58:19.999Z</time></trkpt><trkpt lat="56.03962821644298" lon="22.16566603120831"><ele>137.5</ele><time>2026-04-18T13:58:20.999Z</time></trkpt><trkpt lat="56.03977967747194" lon="22.16567649810206"><ele>137.0</ele><time>2026-04-18T13:58:21.999Z</time></trkpt><trkpt lat="56.03994263725031" lon="22.165687771506633"><ele>137.33333333333331</ele><time>2026-04-18T13:58:22.999Z</time></trkpt><trkpt lat="56.04012590103129" lon="22.165703705872502"><ele>137.66666666666666</ele><time>2026-04-18T13:58:23.999Z</time></trkpt><trkpt lat="56.040298318555976" lon="22.16572218135721"><ele>138.0</ele><time>2026-04-18T13:58:24.999Z</time></trkpt><trkpt lat="56.04046218712233" lon="22.165735888189573"><ele>138.0</ele><time>2026-04-18T13:58:25.999Z</time></trkpt><trkpt lat="56.0406210412942" lon="22.16575689821664"><ele>138.0</ele><time>2026-04-18T13:58:26.999Z</time></trkpt><trkpt lat="56.04078403924217" lon="22.165772602343605"><ele>138.0</ele><time>2026-04-18T13:58:27.999Z</time></trkpt><trkpt lat="56.04096014569197" lon="22.16578691468767"><ele>138.0</ele><time>2026-04-18T13:58:28.999Z</time></trkpt><trkpt lat="56.04114153806834" lon="22.16580677005352"><ele>138.0</ele><time>2026-04-18T13:58:29.999Z</time></trkpt><trkpt lat="56.04130367638359" lon="22.165818271457084"><ele>138.0</ele><time>2026-04-18T13:58:30.999Z</time></trkpt><trkpt lat="56.041449876486126" lon="22.16583786571348"><ele>138.0</ele><time>2026-04-18T13:58:31.999Z</time></trkpt><trkpt lat="56.0416021659351" lon="22.165857293167907"><ele>138.0</ele><time>2026-04-18T13:58:32.999Z</time></trkpt><trkpt lat="56.04176025332257" lon="22.165877524937915"><ele>138.0</ele><time>2026-04-18T13:58:33.999Z</time></trkpt><trkpt lat="56.04189651540923" lon="22.165892972990445"><ele>138.0</ele><time>2026-04-18T13:58:34.999Z</time></trkpt><trkpt lat="56.04201367159219" lon="22.165904846118334"><ele>138.0</ele><time>2026-04-18T13:58:35.999Z</time></trkpt><trkpt lat="56.04210875371778" lon="22.165916571094495"><ele>138.0</ele><time>2026-04-18T13:58:36.999Z</time></trkpt><trkpt lat="56.042196961828964" lon="22.16593003505588"><ele>138.0</ele><time>2026-04-18T13:58:37.999Z</time></trkpt><trkpt lat="56.042272516753535" lon="22.16597264343243"><ele>138.0</ele><time>2026-04-18T13:58:38.999Z</time></trkpt><trkpt lat="56.042342695356595" lon="22.1660483489959"><ele>138.0</ele><time>2026-04-18T13:58:39.999Z</time></trkpt><trkpt lat="56.042392248057794" lon="22.166184099126628"><ele>138.0</ele><time>2026-04-18T13:58:40.999Z</time></trkpt><trkpt lat="56.04246091871953" lon="22.166310231765"><ele>137.75</ele><time>2026-04-18T13:58:41.999Z</time></trkpt><trkpt lat="56.04248877391652" lon="22.166493066189933"><ele>137.5</ele><time>2026-04-18T13:58:42.999Z</time></trkpt><trkpt lat="56.0425489951217" lon="22.166664795633995"><ele>137.25</ele><time>2026-04-18T13:58:43.999Z</time></trkpt><trkpt lat="56.042605780704" lon="22.166909007322378"><ele>137.0</ele><time>2026-04-18T13:58:44.999Z</time></trkpt><trkpt lat="56.04267649497159" lon="22.16717657578354"><ele>135.66666666666666</ele><time>2026-04-18T13:58:45.999Z</time></trkpt><trkpt lat="56.04275542921481" lon="22.167448116245613"><ele>134.33333333333334</ele><time>2026-04-18T13:58:46.999Z</time></trkpt><trkpt lat="56.0428409127559" lon="22.167754823524096"><ele>133.0</ele><time>2026-04-18T13:58:47.999Z</time></trkpt><trkpt lat="56.04292702759637" lon="22.168082291355386"><ele>133.0</ele><time>2026-04-18T13:58:48.999Z</time></trkpt><trkpt lat="56.0430185120957" lon="22.16842232642122"><ele>133.0</ele><time>2026-04-18T13:58:49.999Z</time></trkpt><trkpt lat="56.04312262471287" lon="22.168778485129675"><ele>133.0</ele><time>2026-04-18T13:58:50.999Z</time></trkpt><trkpt lat="56.04322269593912" lon="22.169141191894838"><ele>132.66666666666669</ele><time>2026-04-18T13:58:51.999Z</time></trkpt><trkpt lat="56.04330645369623" lon="22.16946708370828"><ele>132.33333333333334</ele><time>2026-04-18T13:58:52.999Z</time></trkpt><trkpt lat="56.0433826439333" lon="22.169747296857302"><ele>132.0</ele><time>2026-04-18T13:58:53.999Z</time></trkpt><trkpt lat="56.04345209036155" lon="22.17000333543325"><ele>132.0</ele><time>2026-04-18T13:58:54.999Z</time></trkpt><trkpt lat="56.04350922036766" lon="22.17022264778748"><ele>132.0</ele><time>2026-04-18T13:58:55.999Z</time></trkpt><trkpt lat="56.04356710668448" lon="22.170437928815367"><ele>132.0</ele><time>2026-04-18T13:58:56.999Z</time></trkpt><trkpt lat="56.043611062892346" lon="22.170604158484775"><ele>132.0</ele><time>2026-04-18T13:58:57.999Z</time></trkpt><trkpt lat="56.043650792475496" lon="22.17074788126759"><ele>132.0</ele><time>2026-04-18T13:58:58.999Z</time></trkpt><trkpt lat="56.04369596250602" lon="22.170862809611908"><ele>132.0</ele><time>2026-04-18T13:58:59.999Z</time></trkpt><trkpt lat="56.04376431049444" lon="22.1709728946353"><ele>132.0</ele><time>2026-04-18T13:59:00.999Z</time></trkpt><trkpt lat="56.0438475008678" lon="22.171044731262704"><ele>132.0</ele><time>2026-04-18T13:59:01.999Z</time></trkpt><trkpt lat="56.04393182598139" lon="22.171080288440567"><ele>132.0</ele><time>2026-04-18T13:59:02.999Z</time></trkpt><trkpt lat="56.044037468883" lon="22.171098878047605"><ele>132.25</ele><time>2026-04-18T13:59:03.999Z</time></trkpt><trkpt lat="56.04414752407799" lon="22.17111018966633"><ele>132.5</ele><time>2026-04-18T13:59:04.999Z</time></trkpt><trkpt lat="56.04426591775607" lon="22.17112559863756"><ele>132.75</ele><time>2026-04-18T13:59:05.999Z</time></trkpt><trkpt lat="56.04438957113482" lon="22.171138928119795"><ele>133.0</ele><time>2026-04-18T13:59:06.999Z</time></trkpt><trkpt lat="56.04451504247717" lon="22.17116704145712"><ele>133.0</ele><time>2026-04-18T13:59:07.999Z</time></trkpt><trkpt lat="56.04462639739794" lon="22.171201715794357"><ele>133.0</ele><time>2026-04-18T13:59:08.999Z</time></trkpt><trkpt lat="56.044739186080484" lon="22.17122945672697"><ele>133.0</ele><time>2026-04-18T13:59:09.999Z</time></trkpt><trkpt lat="56.044835288879476" lon="22.171259823520455"><ele>133.0</ele><time>2026-04-18T13:59:10.999Z</time></trkpt><trkpt lat="56.04490325187784" lon="22.171301734916014"><ele>133.0</ele><time>2026-04-18T13:59:11.999Z</time></trkpt><trkpt lat="56.04497440851071" lon="22.171361228295407"><ele>133.0</ele><time>2026-04-18T13:59:12.999Z</time></trkpt><trkpt lat="56.045042989407584" lon="22.171422046513626"><ele>133.0</ele><time>2026-04-18T13:59:13.999Z</time></trkpt><trkpt lat="56.04509980753766" lon="22.171602761288202"><ele>133.0</ele><time>2026-04-18T13:59:15.999Z</time></trkpt><trkpt lat="56.04512249919263" lon="22.171754678956667"><ele>133.0</ele><time>2026-04-18T13:59:16.999Z</time></trkpt><trkpt lat="56.045127534718915" lon="22.171929797520075"><ele>133.0</ele><time>2026-04-18T13:59:17.999Z</time></trkpt><trkpt lat="56.04514214935582" lon="22.17215845366941"><ele>132.0</ele><time>2026-04-18T13:59:18.999Z</time></trkpt><trkpt lat="56.04517085650499" lon="22.17243484558427"><ele>131.0</ele><time>2026-04-18T13:59:19.999Z</time></trkpt><trkpt lat="56.04521289715861" lon="22.17275099710198"><ele>130.0</ele><time>2026-04-18T13:59:20.999Z</time></trkpt><trkpt lat="56.045250158075625" lon="22.173088075700452"><ele>130.0</ele><time>2026-04-18T13:59:21.999Z</time></trkpt><trkpt lat="56.04529406252463" lon="22.173468254244067"><ele>130.0</ele><time>2026-04-18T13:59:22.999Z</time></trkpt><trkpt lat="56.04533881520462" lon="22.17384565469855"><ele>130.0</ele><time>2026-04-18T13:59:23.999Z</time></trkpt><trkpt lat="56.045384540674824" lon="22.174243141985077"><ele>129.5</ele><time>2026-04-18T13:59:24.999Z</time></trkpt><trkpt lat="56.045424263563405" lon="22.174636251119434"><ele>129.0</ele><time>2026-04-18T13:59:25.999Z</time></trkpt><trkpt lat="56.04546969115614" lon="22.175048405002837"><ele>128.5</ele><time>2026-04-18T13:59:26.999Z</time></trkpt><trkpt lat="56.04552125635931" lon="22.175482679520478"><ele>128.0</ele><time>2026-04-18T13:59:27.999Z</time></trkpt><trkpt lat="56.0455664160847" lon="22.175897002945028"><ele>128.0</ele><time>2026-04-18T13:59:28.999Z</time></trkpt><trkpt lat="56.045604830932874" lon="22.176252462737995"><ele>128.0</ele><time>2026-04-18T13:59:29.999Z</time></trkpt><trkpt lat="56.04563954597172" lon="22.176572521666603"><ele>128.0</ele><time>2026-04-18T13:59:30.999Z</time></trkpt><trkpt lat="56.0456752250977" lon="22.17687955612497"><ele>128.33333333333331</ele><time>2026-04-18T13:59:31.999Z</time></trkpt><trkpt lat="56.04570578600637" lon="22.177155101554913"><ele>128.66666666666666</ele><time>2026-04-18T13:59:32.999Z</time></trkpt><trkpt lat="56.045734035584275" lon="22.17741928594997"><ele>129.0</ele><time>2026-04-18T13:59:34Z</time></trkpt><trkpt lat="56.04576172222258" lon="22.1776707061432"><ele>129.25</ele><time>2026-04-18T13:59:35Z</time></trkpt><trkpt lat="56.045789247376995" lon="22.177908790969546"><ele>129.5</ele><time>2026-04-18T13:59:36Z</time></trkpt><trkpt lat="56.04581361198472" lon="22.17812326114157"><ele>129.75</ele><time>2026-04-18T13:59:37Z</time></trkpt><trkpt lat="56.04583406598083" lon="22.178318795793793"><ele>130.0</ele><time>2026-04-18T13:59:38Z</time></trkpt><trkpt lat="56.04585465616083" lon="22.178501046465293"><ele>129.4</ele><time>2026-04-18T13:59:39Z</time></trkpt><trkpt lat="56.04588604628857" lon="22.178675099136917"><ele>128.8</ele><time>2026-04-18T13:59:40Z</time></trkpt><trkpt lat="56.04593244614569" lon="22.178857413369226"><ele>128.2</ele><time>2026-04-18T13:59:41Z</time></trkpt><trkpt lat="56.04599118229472" lon="22.179013753359392"><ele>127.6</ele><time>2026-04-18T13:59:42Z</time></trkpt><trkpt lat="56.04606200897038" lon="22.179152648849847"><ele>127.0</ele><time>2026-04-18T13:59:43Z</time></trkpt><trkpt lat="56.04613479735173" lon="22.179284259982552"><ele>127.0</ele><time>2026-04-18T13:59:44Z</time></trkpt><trkpt lat="56.04620389810636" lon="22.179398595339173"><ele>126.99999999999999</ele><time>2026-04-18T13:59:45Z</time></trkpt><trkpt lat="56.04627378119079" lon="22.17948227688779"><ele>126.99999999999999</ele><time>2026-04-18T13:59:46Z</time></trkpt><trkpt lat="56.04636533183875" lon="22.17955071435625"><ele>127.0</ele><time>2026-04-18T13:59:47Z</time></trkpt><trkpt lat="56.04647875796294" lon="22.179613310736137"><ele>127.0</ele><time>2026-04-18T13:59:48Z</time></trkpt><trkpt lat="56.046615102825555" lon="22.179686427606775"><ele>127.0</ele><time>2026-04-18T13:59:49Z</time></trkpt><trkpt lat="56.0467745872017" lon="22.179767476565978"><ele>127.0</ele><time>2026-04-18T13:59:50Z</time></trkpt><trkpt lat="56.04695608440016" lon="22.179865762732323"><ele>127.0</ele><time>2026-04-18T13:59:51Z</time></trkpt><trkpt lat="56.04714447841" lon="22.179961881455682"><ele>127.33333333333334</ele><time>2026-04-18T13:59:52Z</time></trkpt><trkpt lat="56.04732663954076" lon="22.180053404717434"><ele>127.66666666666666</ele><time>2026-04-18T13:59:53Z</time></trkpt><trkpt lat="56.04752711455765" lon="22.180160130243678"><ele>128.0</ele><time>2026-04-18T13:59:54Z</time></trkpt><trkpt lat="56.047720630471325" lon="22.18027664366623"><ele>128.33333333333331</ele><time>2026-04-18T13:59:55Z</time></trkpt><trkpt lat="56.047902386350344" lon="22.18038911674607"><ele>128.66666666666666</ele><time>2026-04-18T13:59:56Z</time></trkpt><trkpt lat="56.04808111351876" lon="22.180504202219993"><ele>129.0</ele><time>2026-04-18T13:59:57Z</time></trkpt><trkpt lat="56.04827489344634" lon="22.180618067868497"><ele>129.33333333333334</ele><time>2026-04-18T13:59:58Z</time></trkpt><trkpt lat="56.04844697671698" lon="22.18072292786765"><ele>129.66666666666669</ele><time>2026-04-18T13:59:59Z</time></trkpt><trkpt lat="56.04860518093639" lon="22.180801037980846"><ele>130.0</ele><time>2026-04-18T14:00:00Z</time></trkpt><trkpt lat="56.04876938763765" lon="22.18087162226847"><ele>130.0</ele><time>2026-04-18T14:00:01Z</time></trkpt><trkpt lat="56.04893771314188" lon="22.18096232859381"><ele>130.0</ele><time>2026-04-18T14:00:02Z</time></trkpt><trkpt lat="56.049107368596395" lon="22.18105794628494"><ele>130.0</ele><time>2026-04-18T14:00:03Z</time></trkpt><trkpt lat="56.04927485928147" lon="22.18114795981173"><ele>132.0</ele><time>2026-04-18T14:00:04Z</time></trkpt><trkpt lat="56.0494447604155" lon="22.18124392542008"><ele>134.0</ele><time>2026-04-18T14:00:05Z</time></trkpt><trkpt lat="56.04961538039416" lon="22.181333267566888"><ele>136.0</ele><time>2026-04-18T14:00:06Z</time></trkpt><trkpt lat="56.049780011058466" lon="22.181434089317793"><ele>136.0</ele><time>2026-04-18T14:00:07Z</time></trkpt><trkpt lat="56.049939607841935" lon="22.18154329853411"><ele>136.0</ele><time>2026-04-18T14:00:08Z</time></trkpt><trkpt lat="56.05008535699351" lon="22.18163725542535"><ele>136.0</ele><time>2026-04-18T14:00:09Z</time></trkpt><trkpt lat="56.05021065004927" lon="22.181728864475538"><ele>137.0</ele><time>2026-04-18T14:00:10Z</time></trkpt><trkpt lat="56.05032293210794" lon="22.181819037184294"><ele>138.0</ele><time>2026-04-18T14:00:11Z</time></trkpt><trkpt lat="56.05043055022015" lon="22.18192761748343"><ele>139.0</ele><time>2026-04-18T14:00:12Z</time></trkpt><trkpt lat="56.05053793074231" lon="22.182060031005058"><ele>140.0</ele><time>2026-04-18T14:00:13Z</time></trkpt><trkpt lat="56.050638840913045" lon="22.182217677653977"><ele>140.25</ele><time>2026-04-18T14:00:14Z</time></trkpt><trkpt lat="56.05073381643223" lon="22.182380654650192"><ele>140.5</ele><time>2026-04-18T14:00:15Z</time></trkpt><trkpt lat="56.05083405752587" lon="22.18255748528809"><ele>140.75</ele><time>2026-04-18T14:00:16Z</time></trkpt><trkpt lat="56.05093965244703" lon="22.18272465803837"><ele>141.0</ele><time>2026-04-18T14:00:17Z</time></trkpt><trkpt lat="56.051049072305936" lon="22.18289408465879"><ele>141.0</ele><time>2026-04-18T14:00:18Z</time></trkpt><trkpt lat="56.051167800796925" lon="22.18307849865898"><ele>141.0</ele><time>2026-04-18T14:00:19Z</time></trkpt><trkpt lat="56.05128843657319" lon="22.183265500111"><ele>141.0</ele><time>2026-04-18T14:00:20Z</time></trkpt><trkpt lat="56.051411442968025" lon="22.18344134480986"><ele>140.33333333333334</ele><time>2026-04-18T14:00:21Z</time></trkpt><trkpt lat="56.05154160791269" lon="22.183633030944517"><ele>139.66666666666669</ele><time>2026-04-18T14:00:22Z</time></trkpt><trkpt lat="56.05166394295233" lon="22.18381347457856"><ele>139.0</ele><time>2026-04-18T14:00:23Z</time></trkpt><trkpt lat="56.05177825397352" lon="22.183982218268028"><ele>139.6</ele><time>2026-04-18T14:00:24Z</time></trkpt><trkpt lat="56.05186701478857" lon="22.184121890155648"><ele>140.2</ele><time>2026-04-18T14:00:25Z</time></trkpt><trkpt lat="56.051930341088564" lon="22.18421554614783"><ele>140.79999999999998</ele><time>2026-04-18T14:00:26Z</time></trkpt><trkpt lat="56.052007030120016" lon="22.18432430160789"><ele>141.4</ele><time>2026-04-18T14:00:28Z</time></trkpt><trkpt lat="56.052060290269814" lon="22.184390649503758"><ele>142.0</ele><time>2026-04-18T14:00:31Z</time></trkpt><trkpt lat="56.05214625436303" lon="22.184209097169227"><ele>142.0</ele><time>2026-04-18T14:00:33Z</time></trkpt><trkpt lat="56.05217562063965" lon="22.184101240677165"><ele>142.0</ele><time>2026-04-18T14:00:34Z</time></trkpt><trkpt lat="56.05220775170184" lon="22.183936316313623"><ele>142.0</ele><time>2026-04-18T14:00:35Z</time></trkpt><trkpt lat="56.05223836978047" lon="22.183756446046626"><ele>142.0</ele><time>2026-04-18T14:00:36Z</time></trkpt><trkpt lat="56.05227983243845" lon="22.183529267563312"><ele>142.0</ele><time>2026-04-18T14:00:37Z</time></trkpt><trkpt lat="56.05232901632415" lon="22.183291768019554"><ele>141.75</ele><time>2026-04-18T14:00:38Z</time></trkpt><trkpt lat="56.05238562531758" lon="22.183067078983974"><ele>141.5</ele><time>2026-04-18T14:00:39Z</time></trkpt><trkpt lat="56.05241703919226" lon="22.182822488921165"><ele>141.25</ele><time>2026-04-18T14:00:40Z</time></trkpt><trkpt lat="56.052464633836394" lon="22.182636568774416"><ele>141.0</ele><time>2026-04-18T14:00:41Z</time></trkpt><trkpt lat="56.05249261194629" lon="22.182477383922347"><ele>138.8</ele><time>2026-04-18T14:00:42Z</time></trkpt><trkpt lat="56.05253157373927" lon="22.18230072438602"><ele>136.6</ele><time>2026-04-18T14:00:43Z</time></trkpt><trkpt lat="56.052573212835526" lon="22.182131712149488"><ele>134.4</ele><time>2026-04-18T14:00:44Z</time></trkpt><trkpt lat="56.052611822447275" lon="22.181943349920257"><ele>132.2</ele><time>2026-04-18T14:00:45Z</time></trkpt><trkpt lat="56.05264537383645" lon="22.18174990608166"><ele>130.0</ele><time>2026-04-18T14:00:46Z</time></trkpt><trkpt lat="56.052676156735195" lon="22.181566120801982"><ele>130.0</ele><time>2026-04-18T14:00:47Z</time></trkpt><trkpt lat="56.05270953693329" lon="22.18135756786195"><ele>130.0</ele><time>2026-04-18T14:00:48Z</time></trkpt><trkpt lat="56.05273642238887" lon="22.181147834522225"><ele>130.0</ele><time>2026-04-18T14:00:49Z</time></trkpt><trkpt lat="56.05276419092788" lon="22.18094342149174"><ele>130.0</ele><time>2026-04-18T14:00:50Z</time></trkpt><trkpt lat="56.05279038478092" lon="22.180750652120917"><ele>130.0</ele><time>2026-04-18T14:00:51Z</time></trkpt><trkpt lat="56.05281336485902" lon="22.180549234617118"><ele>130.0</ele><time>2026-04-18T14:00:52Z</time></trkpt><trkpt lat="56.05283756570097" lon="22.180357582481342"><ele>130.0</ele><time>2026-04-18T14:00:53Z</time></trkpt><trkpt lat="56.052860018343715" lon="22.180162922628202"><ele>130.0</ele><time>2026-04-18T14:00:54Z</time></trkpt><trkpt lat="56.052882786951706" lon="22.179974401291943"><ele>130.0</ele><time>2026-04-18T14:00:55Z</time></trkpt><trkpt lat="56.05290549249251" lon="22.179785817901987"><ele>131.0</ele><time>2026-04-18T14:00:56Z</time></trkpt><trkpt lat="56.052928413425676" lon="22.17959783157943"><ele>132.0</ele><time>2026-04-18T14:00:57Z</time></trkpt><trkpt lat="56.052978242126876" lon="22.17920816460027"><ele>133.0</ele><time>2026-04-18T14:00:59Z</time></trkpt><trkpt lat="56.05299888942896" lon="22.17899929194301"><ele>134.0</ele><time>2026-04-18T14:01:00Z</time></trkpt><trkpt lat="56.053024656359476" lon="22.178804584404865"><ele>134.2</ele><time>2026-04-18T14:01:01Z</time></trkpt><trkpt lat="56.053047807223784" lon="22.178604783109687"><ele>134.4</ele><time>2026-04-18T14:01:02Z</time></trkpt><trkpt lat="56.05306499998185" lon="22.1784383283968"><ele>134.6</ele><time>2026-04-18T14:01:03Z</time></trkpt><trkpt lat="56.05308390721989" lon="22.1782748378919"><ele>134.8</ele><time>2026-04-18T14:01:04Z</time></trkpt><trkpt lat="56.05310503669623" lon="22.178111090253893"><ele>135.0</ele><time>2026-04-18T14:01:05Z</time></trkpt><trkpt lat="56.05312432495754" lon="22.17794868074615"><ele>134.5</ele><time>2026-04-18T14:01:06Z</time></trkpt><trkpt lat="56.05314090142451" lon="22.17780377020227"><ele>134.0</ele><time>2026-04-18T14:01:07Z</time></trkpt><trkpt lat="56.05315779773363" lon="22.17767382387671"><ele>133.5</ele><time>2026-04-18T14:01:08Z</time></trkpt><trkpt lat="56.0531766071496" lon="22.177530469831176"><ele>133.0</ele><time>2026-04-18T14:01:09Z</time></trkpt><trkpt lat="56.053185410454596" lon="22.177397702847596"><ele>132.5</ele><time>2026-04-18T14:01:10Z</time></trkpt><trkpt lat="56.05319363371054" lon="22.17725392605454"><ele>132.0</ele><time>2026-04-18T14:01:11Z</time></trkpt><trkpt lat="56.053223264486945" lon="22.177148768206777"><ele>131.83333333333334</ele><time>2026-04-18T14:01:12Z</time></trkpt><trkpt lat="56.05323882101651" lon="22.177024273234665"><ele>131.66666666666666</ele><time>2026-04-18T14:01:13Z</time></trkpt><trkpt lat="56.05325479320106" lon="22.176897154548715"><ele>131.5</ele><time>2026-04-18T14:01:14Z</time></trkpt><trkpt lat="56.053269502576654" lon="22.176769615959603"><ele>131.33333333333331</ele><time>2026-04-18T14:01:15Z</time></trkpt><trkpt lat="56.05325483682271" lon="22.176596646035573"><ele>131.16666666666666</ele><time>2026-04-18T14:01:17Z</time></trkpt><trkpt lat="56.05319954379234" lon="22.176434992372897"><ele>131.0</ele><time>2026-04-18T14:01:19Z</time></trkpt><trkpt lat="56.05316661197768" lon="22.176310361137876"><ele>131.0</ele><time>2026-04-18T14:01:21Z</time></trkpt><trkpt lat="56.05317879502011" lon="22.176121082476232"><ele>131.0</ele><time>2026-04-18T14:01:24Z</time></trkpt><trkpt lat="56.05319267448617" lon="22.175983388608916"><ele>131.0</ele><time>2026-04-18T14:01:26Z</time></trkpt><trkpt lat="56.05323572481586" lon="22.175856436145683"><ele>131.0</ele><time>2026-04-18T14:01:28Z</time></trkpt><trkpt lat="56.05328842885539" lon="22.17572116227537"><ele>131.0</ele><time>2026-04-18T14:01:30Z</time></trkpt><trkpt lat="56.05336723137091" lon="22.17559139226013"><ele>131.2</ele><time>2026-04-18T14:01:32Z</time></trkpt><trkpt lat="56.05344363659795" lon="22.17551451332328"><ele>131.39999999999998</ele><time>2026-04-18T14:01:35Z</time></trkpt><trkpt lat="56.05342926756015" lon="22.175332101013822"><ele>131.6</ele><time>2026-04-18T14:01:37Z</time></trkpt><trkpt lat="56.0534392281849" lon="22.175153380712427"><ele>131.79999999999998</ele><time>2026-04-18T14:01:39Z</time></trkpt><trkpt lat="56.05344228249582" lon="22.175019542503435"><ele>132.0</ele><time>2026-04-18T14:01:40Z</time></trkpt><trkpt lat="56.05345392641656" lon="22.174868624557078"><ele>132.33333333333334</ele><time>2026-04-18T14:01:41Z</time></trkpt><trkpt lat="56.05347783957566" lon="22.174729424420104"><ele>132.66666666666666</ele><time>2026-04-18T14:01:42Z</time></trkpt><trkpt lat="56.05350698812899" lon="22.174600062649528"><ele>133.0</ele><time>2026-04-18T14:01:43Z</time></trkpt><trkpt lat="56.05353697426943" lon="22.174492007574337"><ele>133.33333333333331</ele><time>2026-04-18T14:01:44Z</time></trkpt><trkpt lat="56.05356974465941" lon="22.174384274390075"><ele>133.66666666666666</ele><time>2026-04-18T14:01:45Z</time></trkpt><trkpt lat="56.05361868745957" lon="22.17417834268941"><ele>134.0</ele><time>2026-04-18T14:01:47Z</time></trkpt><trkpt lat="56.05364417721669" lon="22.17405460620335"><ele>134.33333333333331</ele><time>2026-04-18T14:01:47.999Z</time></trkpt><trkpt lat="56.05367238248663" lon="22.173932672769407"><ele>134.66666666666666</ele><time>2026-04-18T14:01:48.999Z</time></trkpt><trkpt lat="56.05369735586304" lon="22.17381562346086"><ele>135.0</ele><time>2026-04-18T14:01:49.999Z</time></trkpt><trkpt lat="56.05374134392085" lon="22.173620128073402"><ele>135.33333333333334</ele><time>2026-04-18T14:01:51.999Z</time></trkpt><trkpt lat="56.05377054815291" lon="22.173412959625868"><ele>135.66666666666669</ele><time>2026-04-18T14:01:53.999Z</time></trkpt><trkpt lat="56.05378607301409" lon="22.173298975489587"><ele>136.0</ele><time>2026-04-18T14:01:55Z</time></trkpt><trkpt lat="56.05381446581138" lon="22.173091337677196"><ele>136.0</ele><time>2026-04-18T14:01:57Z</time></trkpt><trkpt lat="56.05384928462517" lon="22.172872721874473"><ele>136.0</ele><time>2026-04-18T14:01:59Z</time></trkpt><trkpt lat="56.05387505222972" lon="22.17268329429459"><ele>136.0</ele><time>2026-04-18T14:02:01Z</time></trkpt><trkpt lat="56.05393028559737" lon="22.172527561090288"><ele>136.0</ele><time>2026-04-18T14:02:03Z</time></trkpt><trkpt lat="56.05395644040925" lon="22.172345366009093"><ele>136.0</ele><time>2026-04-18T14:02:05Z</time></trkpt><trkpt lat="56.053980673113" lon="22.172220473814306"><ele>136.2</ele><time>2026-04-18T14:02:07Z</time></trkpt><trkpt lat="56.054024651979844" lon="22.172063499144315"><ele>136.39999999999998</ele><time>2026-04-18T14:02:09Z</time></trkpt><trkpt lat="56.05402864758588" lon="22.171900672676987"><ele>136.6</ele><time>2026-04-18T14:02:11Z</time></trkpt><trkpt lat="56.05406269817609" lon="22.171739758257928"><ele>136.79999999999998</ele><time>2026-04-18T14:02:13Z</time></trkpt><trkpt lat="56.05407297246128" lon="22.17157705026525"><ele>137.0</ele><time>2026-04-18T14:02:15Z</time></trkpt><trkpt lat="56.05407863107299" lon="22.17140975213548"><ele>137.0</ele><time>2026-04-18T14:02:17Z</time></trkpt><trkpt lat="56.054084813397566" lon="22.1712328456668"><ele>137.0</ele><time>2026-04-18T14:02:19Z</time></trkpt><trkpt lat="56.05409098167009" lon="22.171057564390416"><ele>137.0</ele><time>2026-04-18T14:02:21Z</time></trkpt><trkpt lat="56.05409750559932" lon="22.17086937612153"><ele>137.0</ele><time>2026-04-18T14:02:23Z</time></trkpt><trkpt lat="56.05410295880571" lon="22.17070605283773"><ele>137.0</ele><time>2026-04-18T14:02:25Z</time></trkpt><trkpt lat="56.054116729559894" lon="22.170545946004005"><ele>137.2</ele><time>2026-04-18T14:02:27Z</time></trkpt><trkpt lat="56.05419542090001" lon="22.1703984025099"><ele>137.39999999999998</ele><time>2026-04-18T14:02:29Z</time></trkpt><trkpt lat="56.05426400928781" lon="22.170373313883598"><ele>137.60000000000002</ele><time>2026-04-18T14:02:30Z</time></trkpt><trkpt lat="56.054368340290466" lon="22.17025395653619"><ele>137.8</ele><time>2026-04-18T14:02:32Z</time></trkpt><trkpt lat="56.05445606033916" lon="22.17012814961355"><ele>138.0</ele><time>2026-04-18T14:02:34Z</time></trkpt><trkpt lat="56.05453142003071" lon="22.17005281607438"><ele>138.0</ele><time>2026-04-18T14:02:35Z</time></trkpt><trkpt lat="56.05459709395551" lon="22.169912566386955"><ele>138.0</ele><time>2026-04-18T14:02:37Z</time></trkpt><trkpt lat="56.05466279776733" lon="22.169804036132728"><ele>138.0</ele><time>2026-04-18T14:02:38Z</time></trkpt><trkpt lat="56.054709750200374" lon="22.16964714997445"><ele>138.0</ele><time>2026-04-18T14:02:40Z</time></trkpt><trkpt lat="56.05477868637171" lon="22.169407546750218"><ele>138.0</ele><time>2026-04-18T14:02:42Z</time></trkpt><trkpt lat="56.054801327781995" lon="22.16926637623732"><ele>138.0</ele><time>2026-04-18T14:02:44Z</time></trkpt><trkpt lat="56.05482656107737" lon="22.169109194344212"><ele>138.0</ele><time>2026-04-18T14:02:46Z</time></trkpt><trkpt lat="56.05485220163108" lon="22.16894947607506"><ele>138.0</ele><time>2026-04-18T14:02:48Z</time></trkpt><trkpt lat="56.054867276777784" lon="22.1688340953076"><ele>138.0</ele><time>2026-04-18T14:02:49Z</time></trkpt><trkpt lat="56.054885529851184" lon="22.168671515390063"><ele>138.0</ele><time>2026-04-18T14:02:51Z</time></trkpt><trkpt lat="56.05490600350479" lon="22.16848915494071"><ele>138.0</ele><time>2026-04-18T14:02:53Z</time></trkpt><trkpt lat="56.054926848535615" lon="22.168303486763534"><ele>138.0</ele><time>2026-04-18T14:02:55Z</time></trkpt><trkpt lat="56.05494299186332" lon="22.168084687717403"><ele>138.0</ele><time>2026-04-18T14:02:57Z</time></trkpt><trkpt lat="56.05495305852131" lon="22.16789207159936"><ele>138.0</ele><time>2026-04-18T14:02:59Z</time></trkpt><trkpt lat="56.05496346845422" lon="22.16769971672558"><ele>138.0</ele><time>2026-04-18T14:03:01Z</time></trkpt><trkpt lat="56.05496633702487" lon="22.167567163467915"><ele>138.0</ele><time>2026-04-18T14:03:03Z</time></trkpt><trkpt lat="56.054956893038565" lon="22.16738213193424"><ele>138.0</ele><time>2026-04-18T14:03:05Z</time></trkpt><trkpt lat="56.05497180983867" lon="22.16719304280598"><ele>138.0</ele><time>2026-04-18T14:03:07Z</time></trkpt><trkpt lat="56.0549864351847" lon="22.16705939910396"><ele>138.0</ele><time>2026-04-18T14:03:09Z</time></trkpt><trkpt lat="56.05499003229902" lon="22.166898868981075"><ele>138.0</ele><time>2026-04-18T14:03:11Z</time></trkpt><trkpt lat="56.054982014262656" lon="22.16672790039192"><ele>138.0</ele><time>2026-04-18T14:03:13Z</time></trkpt><trkpt lat="56.054988244168406" lon="22.166598270967118"><ele>138.0</ele><time>2026-04-18T14:03:15Z</time></trkpt><trkpt lat="56.05499151755605" lon="22.166401017291008"><ele>138.0</ele><time>2026-04-18T14:03:17Z</time></trkpt><trkpt lat="56.05501016258022" lon="22.166215178670228"><ele>138.0</ele><time>2026-04-18T14:03:19Z</time></trkpt><trkpt lat="56.055024205680446" lon="22.166075217066975"><ele>138.0</ele><time>2026-04-18T14:03:20Z</time></trkpt><trkpt lat="56.05505173101615" lon="22.165800141930518"><ele>138.0</ele><time>2026-04-18T14:03:22Z</time></trkpt><trkpt lat="56.055066904878935" lon="22.165687515513234"><ele>138.0</ele><time>2026-04-18T14:03:23Z</time></trkpt><trkpt lat="56.055084540281086" lon="22.165556618634593"><ele>137.83333333333334</ele><time>2026-04-18T14:03:24Z</time></trkpt><trkpt lat="56.05510071101753" lon="22.165436593295098"><ele>137.66666666666666</ele><time>2026-04-18T14:03:25Z</time></trkpt><trkpt lat="56.055116672201066" lon="22.1653181225748"><ele>137.5</ele><time>2026-04-18T14:03:26Z</time></trkpt><trkpt lat="56.055134069301225" lon="22.165188704666928"><ele>137.33333333333331</ele><time>2026-04-18T14:03:27Z</time></trkpt><trkpt lat="56.05515076683496" lon="22.165064277119992"><ele>137.16666666666666</ele><time>2026-04-18T14:03:28Z</time></trkpt><trkpt lat="56.0551655059081" lon="22.16495444665314"><ele>137.0</ele><time>2026-04-18T14:03:29Z</time></trkpt><trkpt lat="56.05522214586418" lon="22.16474729257611"><ele>136.5</ele><time>2026-04-18T14:03:31Z</time></trkpt><trkpt lat="56.05526474968372" lon="22.16466377107803"><ele>136.0</ele><time>2026-04-18T14:03:32Z</time></trkpt><trkpt lat="56.055913580941876" lon="22.16455412341652"><ele>135.99999999999997</ele><time>2026-04-18T14:03:35Z</time></trkpt><trkpt lat="56.055958211570925" lon="22.164454930103282"><ele>136.0</ele><time>2026-04-18T14:03:36Z</time></trkpt><trkpt lat="56.05600284670306" lon="22.16434541552374"><ele>136.0</ele><time>2026-04-18T14:03:37Z</time></trkpt><trkpt lat="56.05605297862923" lon="22.164239325167706"><ele>136.0</ele><time>2026-04-18T14:03:38Z</time></trkpt><trkpt lat="56.056109245078304" lon="22.164143166929144"><ele>136.0</ele><time>2026-04-18T14:03:39Z</time></trkpt><trkpt lat="56.056162485036985" lon="22.164053630257712"><ele>135.99999999999997</ele><time>2026-04-18T14:03:40Z</time></trkpt><trkpt lat="56.05620828098051" lon="22.16396051621363"><ele>136.0</ele><time>2026-04-18T14:03:41Z</time></trkpt><trkpt lat="56.05625532497513" lon="22.16385588790901"><ele>135.8</ele><time>2026-04-18T14:03:42Z</time></trkpt><trkpt lat="56.056295563217375" lon="22.16375039703956"><ele>135.6</ele><time>2026-04-18T14:03:43Z</time></trkpt><trkpt lat="56.05633790786527" lon="22.163637452503465"><ele>135.4</ele><time>2026-04-18T14:03:44Z</time></trkpt><trkpt lat="56.056422080554825" lon="22.1634887732359"><ele>135.2</ele><time>2026-04-18T14:03:46Z</time></trkpt><trkpt lat="56.05652170193126" lon="22.16336513383248"><ele>135.0</ele><time>2026-04-18T14:03:48Z</time></trkpt><trkpt lat="56.05658157998222" lon="22.163284035788863"><ele>135.0</ele><time>2026-04-18T14:03:49Z</time></trkpt><trkpt lat="56.05666229479178" lon="22.163144204961956"><ele>135.0</ele><time>2026-04-18T14:03:51Z</time></trkpt><trkpt lat="56.056707791291366" lon="22.163059158505973"><ele>135.0</ele><time>2026-04-18T14:03:52Z</time></trkpt><trkpt lat="56.05678451216777" lon="22.16289918677653"><ele>135.0</ele><time>2026-04-18T14:03:54Z</time></trkpt><trkpt lat="56.056814271582226" lon="22.162789979360408"><ele>135.0</ele><time>2026-04-18T14:03:55Z</time></trkpt><trkpt lat="56.05684203652933" lon="22.16268043436494"><ele>135.0</ele><time>2026-04-18T14:03:56Z</time></trkpt><trkpt lat="56.056893406827676" lon="22.162486000276452"><ele>135.0</ele><time>2026-04-18T14:03:58Z</time></trkpt><trkpt lat="56.05695839185144" lon="22.162302659958755"><ele>135.0</ele><time>2026-04-18T14:04:00Z</time></trkpt><trkpt lat="56.05699294327455" lon="22.162206987918765"><ele>135.0</ele><time>2026-04-18T14:04:01Z</time></trkpt><trkpt lat="56.05705280557152" lon="22.162018214971287"><ele>135.0</ele><time>2026-04-18T14:04:03Z</time></trkpt><trkpt lat="56.05707854224041" lon="22.161913081872395"><ele>135.0</ele><time>2026-04-18T14:04:04Z</time></trkpt><trkpt lat="56.05714872008029" lon="22.16172467329811"><ele>135.0</ele><time>2026-04-18T14:04:06Z</time></trkpt><trkpt lat="56.05719311800975" lon="22.161637212910005"><ele>135.0</ele><time>2026-04-18T14:04:07Z</time></trkpt><trkpt lat="56.05728914306641" lon="22.16150462334285"><ele>135.0</ele><time>2026-04-18T14:04:09Z</time></trkpt><trkpt lat="56.05735450811562" lon="22.16138614877861"><ele>135.0</ele><time>2026-04-18T14:04:11Z</time></trkpt><trkpt lat="56.05740139326353" lon="22.161211089540743"><ele>135.0</ele><time>2026-04-18T14:04:13Z</time></trkpt><trkpt lat="56.057441432405085" lon="22.161062701198933"><ele>135.0</ele><time>2026-04-18T14:04:15Z</time></trkpt><trkpt lat="56.05749688644669" lon="22.160964003676746"><ele>135.0</ele><time>2026-04-18T14:04:17Z</time></trkpt><trkpt lat="56.05751920696223" lon="22.16079648663792"><ele>135.0</ele><time>2026-04-18T14:04:19Z</time></trkpt><trkpt lat="56.057526789905396" lon="22.160646272225986"><ele>135.0</ele><time>2026-04-18T14:04:21Z</time></trkpt><trkpt lat="56.05759902752441" lon="22.1605684395054"><ele>135.0</ele><time>2026-04-18T14:04:25Z</time></trkpt><trkpt lat="56.0577190483231" lon="22.16059553736191"><ele>135.4</ele><time>2026-04-18T14:04:27Z</time></trkpt><trkpt lat="56.057806421431714" lon="22.160700884583164"><ele>135.8</ele><time>2026-04-18T14:04:28Z</time></trkpt><trkpt lat="56.057905262537844" lon="22.16075207669193"><ele>136.2</ele><time>2026-04-18T14:04:29Z</time></trkpt><trkpt lat="56.0580131123528" lon="22.160808128802163"><ele>136.6</ele><time>2026-04-18T14:04:30Z</time></trkpt><trkpt lat="56.05813837381756" lon="22.16084419284396"><ele>137.0</ele><time>2026-04-18T14:04:31Z</time></trkpt><trkpt lat="56.0582458638108" lon="22.16091362105464"><ele>136.66666666666666</ele><time>2026-04-18T14:04:32Z</time></trkpt><trkpt lat="56.05833995327512" lon="22.160951574117657"><ele>136.33333333333331</ele><time>2026-04-18T14:04:33Z</time></trkpt><trkpt lat="56.058423296412286" lon="22.160999482303392"><ele>136.0</ele><time>2026-04-18T14:04:34Z</time></trkpt><trkpt lat="56.05848504797151" lon="22.161029504407217"><ele>135.66666666666666</ele><time>2026-04-18T14:04:35Z</time></trkpt><trkpt lat="56.05854769023135" lon="22.161083985274672"><ele>135.33333333333334</ele><time>2026-04-18T14:04:36Z</time></trkpt><trkpt lat="56.05861784689012" lon="22.161120720620595"><ele>135.0</ele><time>2026-04-18T14:04:37Z</time></trkpt><trkpt lat="56.05869387967309" lon="22.161160413608055"><ele>135.0</ele><time>2026-04-18T14:04:38Z</time></trkpt><trkpt lat="56.05881143326462" lon="22.161221796546698"><ele>135.0</ele><time>2026-04-18T14:04:40Z</time></trkpt><trkpt lat="56.05889367521003" lon="22.16117196006513"><ele>135.0</ele><time>2026-04-18T14:04:41Z</time></trkpt><trkpt lat="56.058946768797625" lon="22.161022499449736"><ele>135.0</ele><time>2026-04-18T14:04:42Z</time></trkpt><trkpt lat="56.05900304607822" lon="22.16093252423958"><ele>135.0</ele><time>2026-04-18T14:04:43Z</time></trkpt><trkpt lat="56.059076316358144" lon="22.160858500913434"><ele>134.33333333333334</ele><time>2026-04-18T14:04:44Z</time></trkpt><trkpt lat="56.05912671114881" lon="22.160772560182906"><ele>133.66666666666666</ele><time>2026-04-18T14:04:45Z</time></trkpt><trkpt lat="56.05922105771606" lon="22.16084455447946"><ele>133.0</ele><time>2026-04-18T14:04:46Z</time></trkpt><trkpt lat="56.059283912700074" lon="22.16092744959841"><ele>132.33333333333331</ele><time>2026-04-18T14:04:47Z</time></trkpt><trkpt lat="56.05934707749231" lon="22.160968456864794"><ele>131.66666666666666</ele><time>2026-04-18T14:04:48Z</time></trkpt><trkpt lat="56.05942496115307" lon="22.16101902228389"><ele>131.0</ele><time>2026-04-18T14:04:49Z</time></trkpt><trkpt lat="56.05950814773873" lon="22.161072732312054"><ele>131.0</ele><time>2026-04-18T14:04:50Z</time></trkpt><trkpt lat="56.059590690742965" lon="22.161109992397453"><ele>131.0</ele><time>2026-04-18T14:04:51Z</time></trkpt><trkpt lat="56.05966311658725" lon="22.16115295623788"><ele>131.0</ele><time>2026-04-18T14:04:52Z</time></trkpt><trkpt lat="56.05973723407889" lon="22.16120456450915"><ele>131.0</ele><time>2026-04-18T14:04:53Z</time></trkpt><trkpt lat="56.05980272792415" lon="22.161247336413492"><ele>131.0</ele><time>2026-04-18T14:04:54Z</time></trkpt><trkpt lat="56.05986826169343" lon="22.161293449659375"><ele>131.0</ele><time>2026-04-18T14:04:55Z</time></trkpt><trkpt lat="56.05994016091754" lon="22.16134077090264"><ele>131.0</ele><time>2026-04-18T14:04:56Z</time></trkpt><trkpt lat="56.06001576186067" lon="22.161389722114343"><ele>131.0</ele><time>2026-04-18T14:04:57Z</time></trkpt><trkpt lat="56.060096409762316" lon="22.161441230583065"><ele>131.0</ele><time>2026-04-18T14:04:58Z</time></trkpt><trkpt lat="56.060186177472126" lon="22.16150084928394"><ele>131.0</ele><time>2026-04-18T14:04:59Z</time></trkpt><trkpt lat="56.06027197964513" lon="22.161557603471838"><ele>131.0</ele><time>2026-04-18T14:05:00Z</time></trkpt><trkpt lat="56.060361534890575" lon="22.16161444964681"><ele>131.0</ele><time>2026-04-18T14:05:01Z</time></trkpt><trkpt lat="56.06044474870938" lon="22.16166061716516"><ele>130.8</ele><time>2026-04-18T14:05:02Z</time></trkpt><trkpt lat="56.06052990109454" lon="22.16171555320152"><ele>130.6</ele><time>2026-04-18T14:05:03Z</time></trkpt><trkpt lat="56.06061651915564" lon="22.161779943838706"><ele>130.4</ele><time>2026-04-18T14:05:04Z</time></trkpt><trkpt lat="56.06070152012795" lon="22.161842193860483"><ele>130.2</ele><time>2026-04-18T14:05:05Z</time></trkpt><trkpt lat="56.06078539967462" lon="22.16190231529456"><ele>130.0</ele><time>2026-04-18T14:05:06Z</time></trkpt><trkpt lat="56.06087778490879" lon="22.161961617399857"><ele>130.0</ele><time>2026-04-18T14:05:07Z</time></trkpt><trkpt lat="56.06096391158173" lon="22.162016985534446"><ele>130.0</ele><time>2026-04-18T14:05:08Z</time></trkpt><trkpt lat="56.06104898787939" lon="22.16206117022708"><ele>130.0</ele><time>2026-04-18T14:05:09Z</time></trkpt><trkpt lat="56.06113961918361" lon="22.16212080426096"><ele>130.0</ele><time>2026-04-18T14:05:10Z</time></trkpt><trkpt lat="56.06121420407673" lon="22.162167040096154"><ele>130.0</ele><time>2026-04-18T14:05:11Z</time></trkpt><trkpt lat="56.06127462584595" lon="22.16220901142408"><ele>130.0</ele><time>2026-04-18T14:05:12Z</time></trkpt><trkpt lat="56.0613869442782" lon="22.162276299441245"><ele>130.0</ele><time>2026-04-18T14:05:14Z</time></trkpt><trkpt lat="56.06150058834768" lon="22.162353785821"><ele>130.0</ele><time>2026-04-18T14:05:16Z</time></trkpt><trkpt lat="56.06158433538402" lon="22.162390252312345"><ele>130.0</ele><time>2026-04-18T14:05:17Z</time></trkpt><trkpt lat="56.06165638554456" lon="22.16246296264401"><ele>130.0</ele><time>2026-04-18T14:05:18Z</time></trkpt><trkpt lat="56.06173432291931" lon="22.162482540521758"><ele>130.0</ele><time>2026-04-18T14:05:19Z</time></trkpt><trkpt lat="56.061818381891676" lon="22.16254747918165"><ele>129.6</ele><time>2026-04-18T14:05:20Z</time></trkpt><trkpt lat="56.06189435662464" lon="22.16261071446292"><ele>129.2</ele><time>2026-04-18T14:05:21Z</time></trkpt><trkpt lat="56.06197951443602" lon="22.162678941293578"><ele>128.8</ele><time>2026-04-18T14:05:22Z</time></trkpt><trkpt lat="56.06206196044986" lon="22.162730627831536"><ele>128.4</ele><time>2026-04-18T14:05:23Z</time></trkpt><trkpt lat="56.06215430016223" lon="22.16277927845579"><ele>128.0</ele><time>2026-04-18T14:05:24Z</time></trkpt><trkpt lat="56.0622394412943" lon="22.162829186215856"><ele>128.0</ele><time>2026-04-18T14:05:25Z</time></trkpt><trkpt lat="56.06233299687035" lon="22.162885537780074"><ele>128.0</ele><time>2026-04-18T14:05:26Z</time></trkpt><trkpt lat="56.06241804181927" lon="22.162936487490587"><ele>128.0</ele><time>2026-04-18T14:05:27Z</time></trkpt><trkpt lat="56.06250481108254" lon="22.162987387683525"><ele>128.0</ele><time>2026-04-18T14:05:28Z</time></trkpt><trkpt lat="56.062593552573766" lon="22.163041108932433"><ele>128.0</ele><time>2026-04-18T14:05:29Z</time></trkpt><trkpt lat="56.06267604776503" lon="22.16309266971803"><ele>127.99999999999999</ele><time>2026-04-18T14:05:30Z</time></trkpt><trkpt lat="56.06276029649064" lon="22.16314244516533"><ele>128.0</ele><time>2026-04-18T14:05:31Z</time></trkpt><trkpt lat="56.06284155705232" lon="22.16319462003655"><ele>128.0</ele><time>2026-04-18T14:05:32Z</time></trkpt><trkpt lat="56.062915710837835" lon="22.16324474656143"><ele>128.0</ele><time>2026-04-18T14:05:32.999Z</time></trkpt><trkpt lat="56.06297923125916" lon="22.16328746425741"><ele>127.99999999999999</ele><time>2026-04-18T14:05:33.999Z</time></trkpt><trkpt lat="56.06306408498848" lon="22.163353217855178"><ele>128.0</ele><time>2026-04-18T14:05:35.999Z</time></trkpt><trkpt lat="56.06313065144206" lon="22.163394210255127"><ele>128.20000000000002</ele><time>2026-04-18T14:05:37.999Z</time></trkpt><trkpt lat="56.063199922646874" lon="22.16345200655886"><ele>128.4</ele><time>2026-04-18T14:05:40.999Z</time></trkpt><trkpt lat="56.063262812713035" lon="22.16325411094844"><ele>128.60000000000002</ele><time>2026-04-18T14:05:41.999Z</time></trkpt><trkpt lat="56.063307455292474" lon="22.163145436337583"><ele>128.8</ele><time>2026-04-18T14:05:42.999Z</time></trkpt><trkpt lat="56.06336913058484" lon="22.162981432062143"><ele>129.0</ele><time>2026-04-18T14:05:43.999Z</time></trkpt><trkpt lat="56.06342901032287" lon="22.16281922655013"><ele>129.25</ele><time>2026-04-18T14:05:44.999Z</time></trkpt><trkpt lat="56.063496948876946" lon="22.16263273807184"><ele>129.5</ele><time>2026-04-18T14:05:45.999Z</time></trkpt><trkpt lat="56.06356828336096" lon="22.16240832005177"><ele>129.75</ele><time>2026-04-18T14:05:46.999Z</time></trkpt><trkpt lat="56.063641073049" lon="22.162174350861466"><ele>130.0</ele><time>2026-04-18T14:05:47.999Z</time></trkpt><trkpt lat="56.06371968522178" lon="22.161917473328618"><ele>130.0</ele><time>2026-04-18T14:05:48.999Z</time></trkpt><trkpt lat="56.063798808215445" lon="22.161660164216787"><ele>130.0</ele><time>2026-04-18T14:05:49.999Z</time></trkpt><trkpt lat="56.06386581053713" lon="22.161409731574597"><ele>130.0</ele><time>2026-04-18T14:05:50.999Z</time></trkpt><trkpt lat="56.06392562684774" lon="22.161175788722904"><ele>129.75</ele><time>2026-04-18T14:05:52Z</time></trkpt><trkpt lat="56.06397750409985" lon="22.160947791709322"><ele>129.5</ele><time>2026-04-18T14:05:53Z</time></trkpt><trkpt lat="56.0640331867692" lon="22.160722779158625"><ele>129.25</ele><time>2026-04-18T14:05:54Z</time></trkpt><trkpt lat="56.06408359566883" lon="22.16049446307604"><ele>129.0</ele><time>2026-04-18T14:05:55Z</time></trkpt><trkpt lat="56.06414004053088" lon="22.160217817180452"><ele>128.66666666666666</ele><time>2026-04-18T14:05:56Z</time></trkpt><trkpt lat="56.06419991172968" lon="22.1599040837296"><ele>128.33333333333331</ele><time>2026-04-18T14:05:57Z</time></trkpt><trkpt lat="56.0642584268949" lon="22.159587455795613"><ele>128.0</ele><time>2026-04-18T14:05:58Z</time></trkpt><trkpt lat="56.06431310107429" lon="22.159295417163733"><ele>128.0</ele><time>2026-04-18T14:05:59Z</time></trkpt><trkpt lat="56.064363118524916" lon="22.15901210141521"><ele>128.0</ele><time>2026-04-18T14:06:00Z</time></trkpt><trkpt lat="56.06442019337902" lon="22.158694738813523"><ele>128.0</ele><time>2026-04-18T14:06:01Z</time></trkpt><trkpt lat="56.064473728172196" lon="22.158377097941518"><ele>128.66666666666666</ele><time>2026-04-18T14:06:02Z</time></trkpt><trkpt lat="56.06451991811961" lon="22.15806593144257"><ele>129.33333333333334</ele><time>2026-04-18T14:06:03Z</time></trkpt><trkpt lat="56.06455944578349" lon="22.157776702027704"><ele>130.0</ele><time>2026-04-18T14:06:04Z</time></trkpt><trkpt lat="56.0645977833837" lon="22.157443131184234"><ele>129.66666666666669</ele><time>2026-04-18T14:06:05Z</time></trkpt><trkpt lat="56.06463359227065" lon="22.157121704585695"><ele>129.33333333333334</ele><time>2026-04-18T14:06:06Z</time></trkpt><trkpt lat="56.064666712026025" lon="22.15679623808469"><ele>129.0</ele><time>2026-04-18T14:06:07Z</time></trkpt><trkpt lat="56.06470238472239" lon="22.15645048618554"><ele>128.66666666666666</ele><time>2026-04-18T14:06:08Z</time></trkpt><trkpt lat="56.06473759144698" lon="22.15610867749766"><ele>128.33333333333331</ele><time>2026-04-18T14:06:09Z</time></trkpt><trkpt lat="56.06477022508879" lon="22.15577702319687"><ele>128.0</ele><time>2026-04-18T14:06:10Z</time></trkpt><trkpt lat="56.06480548345424" lon="22.15541763230987"><ele>128.0</ele><time>2026-04-18T14:06:11Z</time></trkpt><trkpt lat="56.06484485362577" lon="22.15504238592264"><ele>128.0</ele><time>2026-04-18T14:06:12Z</time></trkpt><trkpt lat="56.064884427118514" lon="22.154636798843235"><ele>128.0</ele><time>2026-04-18T14:06:13Z</time></trkpt><trkpt lat="56.06492279296406" lon="22.154247637284083"><ele>128.66666666666666</ele><time>2026-04-18T14:06:14Z</time></trkpt><trkpt lat="56.064975062100096" lon="22.15389717226259"><ele>129.33333333333334</ele><time>2026-04-18T14:06:15Z</time></trkpt><trkpt lat="56.06501095518168" lon="22.153560044993156"><ele>130.0</ele><time>2026-04-18T14:06:16Z</time></trkpt><trkpt lat="56.065047856191484" lon="22.153210402913004"><ele>130.33333333333334</ele><time>2026-04-18T14:06:17Z</time></trkpt><trkpt lat="56.065065032821856" lon="22.152872715317006"><ele>130.66666666666666</ele><time>2026-04-18T14:06:18Z</time></trkpt><trkpt lat="56.06512026507924" lon="22.152521919279362"><ele>131.0</ele><time>2026-04-18T14:06:19Z</time></trkpt><trkpt lat="56.06516645854082" lon="22.152168537466466"><ele>131.0</ele><time>2026-04-18T14:06:20Z</time></trkpt><trkpt lat="56.06519964813815" lon="22.151916267427055"><ele>131.0</ele><time>2026-04-18T14:06:21Z</time></trkpt><trkpt lat="56.06523575690229" lon="22.15164078170265"><ele>131.0</ele><time>2026-04-18T14:06:22Z</time></trkpt><trkpt lat="56.06527461563452" lon="22.151343472584912"><ele>131.33333333333331</ele><time>2026-04-18T14:06:23Z</time></trkpt><trkpt lat="56.06531754638344" lon="22.151013389256924"><ele>131.66666666666666</ele><time>2026-04-18T14:06:24Z</time></trkpt><trkpt lat="56.065362208316415" lon="22.150670733347297"><ele>132.0</ele><time>2026-04-18T14:06:25Z</time></trkpt><trkpt lat="56.065397542532736" lon="22.15031586491954"><ele>132.0</ele><time>2026-04-18T14:06:26Z</time></trkpt><trkpt lat="56.06544629987335" lon="22.15002996132221"><ele>132.0</ele><time>2026-04-18T14:06:27Z</time></trkpt><trkpt lat="56.06546965719667" lon="22.149751625805553"><ele>132.0</ele><time>2026-04-18T14:06:28Z</time></trkpt><trkpt lat="56.06550340769046" lon="22.14948301815803"><ele>132.33333333333334</ele><time>2026-04-18T14:06:29Z</time></trkpt><trkpt lat="56.06554205277139" lon="22.14920331111048"><ele>132.66666666666669</ele><time>2026-04-18T14:06:30Z</time></trkpt><trkpt lat="56.06558029672709" lon="22.148897438672844"><ele>133.0</ele><time>2026-04-18T14:06:31Z</time></trkpt><trkpt lat="56.065619603813126" lon="22.148582567261954"><ele>134.0</ele><time>2026-04-18T14:06:32Z</time></trkpt><trkpt lat="56.065663525607334" lon="22.148258062269026"><ele>135.0</ele><time>2026-04-18T14:06:33Z</time></trkpt><trkpt lat="56.06571299148412" lon="22.147930406614638"><ele>136.0</ele><time>2026-04-18T14:06:34Z</time></trkpt><trkpt lat="56.06576053171835" lon="22.147604665013287"><ele>135.66666666666669</ele><time>2026-04-18T14:06:35Z</time></trkpt><trkpt lat="56.065809857077795" lon="22.147288421163655"><ele>135.33333333333334</ele><time>2026-04-18T14:06:36Z</time></trkpt><trkpt lat="56.06585455631771" lon="22.14698094492909"><ele>135.0</ele><time>2026-04-18T14:06:37Z</time></trkpt><trkpt lat="56.06590366245029" lon="22.146686531072277"><ele>135.0</ele><time>2026-04-18T14:06:38Z</time></trkpt><trkpt lat="56.06594570819081" lon="22.146408391688514"><ele>135.0</ele><time>2026-04-18T14:06:39Z</time></trkpt><trkpt lat="56.065982942463705" lon="22.14615319371423"><ele>135.0</ele><time>2026-04-18T14:06:40Z</time></trkpt><trkpt lat="56.06602571973406" lon="22.145868874656074"><ele>134.66666666666666</ele><time>2026-04-18T14:06:41Z</time></trkpt><trkpt lat="56.06606491014037" lon="22.14558294139593"><ele>134.33333333333331</ele><time>2026-04-18T14:06:42Z</time></trkpt><trkpt lat="56.06611176681098" lon="22.145282913612544"><ele>134.0</ele><time>2026-04-18T14:06:43Z</time></trkpt><trkpt lat="56.06615996552754" lon="22.14497948971888"><ele>133.66666666666666</ele><time>2026-04-18T14:06:44Z</time></trkpt><trkpt lat="56.06621305161672" lon="22.144620375527715"><ele>133.33333333333334</ele><time>2026-04-18T14:06:45Z</time></trkpt><trkpt lat="56.06626650380803" lon="22.144373231135724"><ele>133.0</ele><time>2026-04-18T14:06:46Z</time></trkpt><trkpt lat="56.06635111478715" lon="22.144125780353672"><ele>132.66666666666669</ele><time>2026-04-18T14:06:47Z</time></trkpt><trkpt lat="56.066426940788425" lon="22.14384755329577"><ele>132.33333333333334</ele><time>2026-04-18T14:06:48Z</time></trkpt><trkpt lat="56.06649145609075" lon="22.143550913343724"><ele>132.0</ele><time>2026-04-18T14:06:49Z</time></trkpt><trkpt lat="56.066588528759894" lon="22.143267289524623"><ele>131.33333333333334</ele><time>2026-04-18T14:06:50Z</time></trkpt><trkpt lat="56.06667870950785" lon="22.142968113480574"><ele>130.66666666666669</ele><time>2026-04-18T14:06:51Z</time></trkpt><trkpt lat="56.06677584394662" lon="22.142669340078477"><ele>130.0</ele><time>2026-04-18T14:06:52Z</time></trkpt><trkpt lat="56.06687671307206" lon="22.14236910627801"><ele>130.0</ele><time>2026-04-18T14:06:53Z</time></trkpt><trkpt lat="56.066974895665545" lon="22.14204999865601"><ele>130.0</ele><time>2026-04-18T14:06:54Z</time></trkpt><trkpt lat="56.06706177272757" lon="22.141785658816403"><ele>130.0</ele><time>2026-04-18T14:06:55Z</time></trkpt><trkpt lat="56.06712975523185" lon="22.14155444737056"><ele>130.0</ele><time>2026-04-18T14:06:56Z</time></trkpt><trkpt lat="56.067198985680776" lon="22.141338372780226"><ele>130.0</ele><time>2026-04-18T14:06:57Z</time></trkpt><trkpt lat="56.06725973117833" lon="22.141140941657056"><ele>130.0</ele><time>2026-04-18T14:06:58Z</time></trkpt><trkpt lat="56.06732168198608" lon="22.140940031340705"><ele>130.0</ele><time>2026-04-18T14:06:59Z</time></trkpt><trkpt lat="56.067379946052135" lon="22.140737321661792"><ele>130.2</ele><time>2026-04-18T14:07:00Z</time></trkpt><trkpt lat="56.06743755176156" lon="22.140545988421337"><ele>130.4</ele><time>2026-04-18T14:07:01Z</time></trkpt><trkpt lat="56.06748880154853" lon="22.14038642241814"><ele>130.6</ele><time>2026-04-18T14:07:02Z</time></trkpt><trkpt lat="56.06753730605543" lon="22.140243462775494"><ele>130.8</ele><time>2026-04-18T14:07:03Z</time></trkpt><trkpt lat="56.06758411069712" lon="22.140104661815055"><ele>131.0</ele><time>2026-04-18T14:07:04Z</time></trkpt><trkpt lat="56.067620712144254" lon="22.139959856592622"><ele>130.5</ele><time>2026-04-18T14:07:05Z</time></trkpt><trkpt lat="56.06767288184652" lon="22.13978263890735"><ele>130.0</ele><time>2026-04-18T14:07:06Z</time></trkpt><trkpt lat="56.067725708530226" lon="22.139579026604792"><ele>129.5</ele><time>2026-04-18T14:07:07Z</time></trkpt><trkpt lat="56.06778548031074" lon="22.13937457129474"><ele>129.0</ele><time>2026-04-18T14:07:08Z</time></trkpt><trkpt lat="56.06785274419926" lon="22.13915557512457"><ele>129.33333333333334</ele><time>2026-04-18T14:07:09Z</time></trkpt><trkpt lat="56.067932914015415" lon="22.13890072882657"><ele>129.66666666666669</ele><time>2026-04-18T14:07:10Z</time></trkpt><trkpt lat="56.06803065278037" lon="22.13859977861236"><ele>130.0</ele><time>2026-04-18T14:07:10.999Z</time></trkpt><trkpt lat="56.06813725388227" lon="22.13826767803783"><ele>129.33333333333334</ele><time>2026-04-18T14:07:11.999Z</time></trkpt><trkpt lat="56.06823195934881" lon="22.137972245257302"><ele>128.66666666666666</ele><time>2026-04-18T14:07:12.999Z</time></trkpt><trkpt lat="56.06832206931225" lon="22.137662818812743"><ele>128.0</ele><time>2026-04-18T14:07:13.999Z</time></trkpt><trkpt lat="56.06842788385964" lon="22.137314689537867"><ele>126.0</ele><time>2026-04-18T14:07:14.999Z</time></trkpt><trkpt lat="56.0685380497173" lon="22.13695465555175"><ele>124.0</ele><time>2026-04-18T14:07:15.999Z</time></trkpt><trkpt lat="56.06865260372584" lon="22.136585656243504"><ele>123.5</ele><time>2026-04-18T14:07:16.999Z</time></trkpt><trkpt lat="56.06875919171432" lon="22.136234345600933"><ele>123.0</ele><time>2026-04-18T14:07:17.999Z</time></trkpt><trkpt lat="56.068868081501215" lon="22.135873685577184"><ele>122.5</ele><time>2026-04-18T14:07:18.999Z</time></trkpt><trkpt lat="56.06897285749037" lon="22.13552585066685"><ele>122.0</ele><time>2026-04-18T14:07:19.999Z</time></trkpt><trkpt lat="56.06908406869034" lon="22.13516445004634"><ele>121.66666666666666</ele><time>2026-04-18T14:07:20.999Z</time></trkpt><trkpt lat="56.06919414133986" lon="22.134818318922502"><ele>121.33333333333334</ele><time>2026-04-18T14:07:21.999Z</time></trkpt><trkpt lat="56.06929800521507" lon="22.134484344498855"><ele>121.0</ele><time>2026-04-18T14:07:22.999Z</time></trkpt><trkpt lat="56.06940043362758" lon="22.134150351759583"><ele>120.66666666666667</ele><time>2026-04-18T14:07:23.999Z</time></trkpt><trkpt lat="56.069503888128615" lon="22.133819865183757"><ele>120.33333333333334</ele><time>2026-04-18T14:07:24.999Z</time></trkpt><trkpt lat="56.069613649458546" lon="22.133469391617787"><ele>120.0</ele><time>2026-04-18T14:07:25.999Z</time></trkpt><trkpt lat="56.06972617783732" lon="22.133125494332646"><ele>120.0</ele><time>2026-04-18T14:07:26.999Z</time></trkpt><trkpt lat="56.06984063264398" lon="22.132766756073224"><ele>120.0</ele><time>2026-04-18T14:07:27.999Z</time></trkpt><trkpt lat="56.06995261239095" lon="22.13241494279843"><ele>119.5</ele><time>2026-04-18T14:07:28.999Z</time></trkpt><trkpt lat="56.070064410486445" lon="22.13203409510481"><ele>119.0</ele><time>2026-04-18T14:07:29.999Z</time></trkpt><trkpt lat="56.07016844401876" lon="22.13168245404284"><ele>119.0</ele><time>2026-04-18T14:07:30.999Z</time></trkpt><trkpt lat="56.070266186860884" lon="22.131352481662457"><ele>119.0</ele><time>2026-04-18T14:07:31.999Z</time></trkpt><trkpt lat="56.07035620440461" lon="22.131042819134542"><ele>119.0</ele><time>2026-04-18T14:07:32.999Z</time></trkpt><trkpt lat="56.070443077928935" lon="22.13077694413629"><ele>118.66666666666666</ele><time>2026-04-18T14:07:33.999Z</time></trkpt><trkpt lat="56.07052777103502" lon="22.130488682300783"><ele>118.33333333333334</ele><time>2026-04-18T14:07:34.999Z</time></trkpt><trkpt lat="56.07062389887168" lon="22.13023014685603"><ele>118.0</ele><time>2026-04-18T14:07:35.999Z</time></trkpt><trkpt lat="56.07070874984533" lon="22.129953908390732"><ele>118.66666666666667</ele><time>2026-04-18T14:07:36.999Z</time></trkpt><trkpt lat="56.0707924592123" lon="22.12967713888158"><ele>119.33333333333334</ele><time>2026-04-18T14:07:37.999Z</time></trkpt><trkpt lat="56.07087320917454" lon="22.129403438423708"><ele>120.0</ele><time>2026-04-18T14:07:38.999Z</time></trkpt><trkpt lat="56.07095885882577" lon="22.129108144408207"><ele>120.0</ele><time>2026-04-18T14:07:39.999Z</time></trkpt><trkpt lat="56.07103727282397" lon="22.128800146913317"><ele>120.0</ele><time>2026-04-18T14:07:40.999Z</time></trkpt><trkpt lat="56.07109308186511" lon="22.12852602265958"><ele>120.0</ele><time>2026-04-18T14:07:41.999Z</time></trkpt><trkpt lat="56.071116018307194" lon="22.128194553788298"><ele>120.0</ele><time>2026-04-18T14:07:42.999Z</time></trkpt><trkpt lat="56.0711242714463" lon="22.127878071424572"><ele>120.0</ele><time>2026-04-18T14:07:43.999Z</time></trkpt><trkpt lat="56.071118075127096" lon="22.127543323668938"><ele>120.0</ele><time>2026-04-18T14:07:44.999Z</time></trkpt><trkpt lat="56.07111057928684" lon="22.127200541724346"><ele>120.66666666666666</ele><time>2026-04-18T14:07:45.999Z</time></trkpt><trkpt lat="56.07111053347349" lon="22.126863651873403"><ele>121.33333333333333</ele><time>2026-04-18T14:07:46.999Z</time></trkpt><trkpt lat="56.071104477082685" lon="22.12653372768914"><ele>122.0</ele><time>2026-04-18T14:07:47.999Z</time></trkpt><trkpt lat="56.07110121866755" lon="22.12629998956549"><ele>122.25</ele><time>2026-04-18T14:07:48.999Z</time></trkpt><trkpt lat="56.07109790924974" lon="22.126063001765285"><ele>122.5</ele><time>2026-04-18T14:07:49.999Z</time></trkpt><trkpt lat="56.071100144103376" lon="22.12585024126545"><ele>122.75</ele><time>2026-04-18T14:07:50.999Z</time></trkpt><trkpt lat="56.071102362632935" lon="22.12568146216009"><ele>123.0</ele><time>2026-04-18T14:07:51.999Z</time></trkpt><trkpt lat="56.07111178106669" lon="22.125466947335497"><ele>123.0</ele><time>2026-04-18T14:07:52.999Z</time></trkpt><trkpt lat="56.0711215292451" lon="22.125270088948263"><ele>123.00000000000001</ele><time>2026-04-18T14:07:53.999Z</time></trkpt><trkpt lat="56.07113371549838" lon="22.125074774599977"><ele>123.00000000000001</ele><time>2026-04-18T14:07:54.999Z</time></trkpt><trkpt lat="56.07114815285997" lon="22.124887079472302"><ele>123.0</ele><time>2026-04-18T14:07:55.999Z</time></trkpt><trkpt lat="56.07115002031417" lon="22.12471263426595"><ele>123.0</ele><time>2026-04-18T14:07:56.999Z</time></trkpt><trkpt lat="56.07118116174052" lon="22.124546703474174"><ele>123.0</ele><time>2026-04-18T14:07:58Z</time></trkpt><trkpt lat="56.07122743566894" lon="22.12433088808099"><ele>123.0</ele><time>2026-04-18T14:07:59Z</time></trkpt><trkpt lat="56.07130040480921" lon="22.124087295533606"><ele>123.0</ele><time>2026-04-18T14:08:00Z</time></trkpt><trkpt lat="56.07134373578394" lon="22.123798362778373"><ele>123.0</ele><time>2026-04-18T14:08:01Z</time></trkpt><trkpt lat="56.07138162740594" lon="22.123542225849985"><ele>123.00000000000001</ele><time>2026-04-18T14:08:02Z</time></trkpt><trkpt lat="56.071420121932306" lon="22.123354251495822"><ele>123.00000000000001</ele><time>2026-04-18T14:08:03Z</time></trkpt><trkpt lat="56.0714486637958" lon="22.123214964910964"><ele>123.0</ele><time>2026-04-18T14:08:04Z</time></trkpt><trkpt lat="56.071465672079455" lon="22.123105023073748"><ele>123.0</ele><time>2026-04-18T14:08:05Z</time></trkpt><trkpt lat="56.07148422184834" lon="22.122964810994734"><ele>123.16666666666667</ele><time>2026-04-18T14:08:08Z</time></trkpt><trkpt lat="56.07137866917346" lon="22.12280060526325"><ele>123.33333333333334</ele><time>2026-04-18T14:08:11Z</time></trkpt><trkpt lat="56.07131628069045" lon="22.12275276228975"><ele>123.5</ele><time>2026-04-18T14:08:12Z</time></trkpt><trkpt lat="56.071245867167036" lon="22.122720128960815"><ele>123.66666666666667</ele><time>2026-04-18T14:08:13Z</time></trkpt><trkpt lat="56.07116926101109" lon="22.12269982930088"><ele>123.83333333333334</ele><time>2026-04-18T14:08:14Z</time></trkpt><trkpt lat="56.07109870280861" lon="22.12263427901591"><ele>124.0</ele><time>2026-04-18T14:08:15Z</time></trkpt><trkpt lat="56.0710242099975" lon="22.122592232525303"><ele>124.0</ele><time>2026-04-18T14:08:16Z</time></trkpt><trkpt lat="56.07095361182137" lon="22.122552384407417"><ele>124.00000000000001</ele><time>2026-04-18T14:08:17Z</time></trkpt><trkpt lat="56.07087959897746" lon="22.122510608869103"><ele>124.0</ele><time>2026-04-18T14:08:18Z</time></trkpt><trkpt lat="56.07080263477289" lon="22.122467167519524"><ele>124.0</ele><time>2026-04-18T14:08:19Z</time></trkpt><trkpt lat="56.070731035050386" lon="22.122426753982577"><ele>124.00000000000001</ele><time>2026-04-18T14:08:20Z</time></trkpt><trkpt lat="56.07066166095513" lon="22.122414155587528"><ele>124.0</ele><time>2026-04-18T14:08:21Z</time></trkpt><trkpt lat="56.07060063207705" lon="22.122373455567743"><ele>124.0</ele><time>2026-04-18T14:08:22Z</time></trkpt><trkpt lat="56.07048342508733" lon="22.122306737748307"><ele>124.2</ele><time>2026-04-18T14:08:24Z</time></trkpt><trkpt lat="56.07037691491893" lon="22.122242532111333"><ele>124.4</ele><time>2026-04-18T14:08:26Z</time></trkpt><trkpt lat="56.07028054325875" lon="22.122171561427546"><ele>124.6</ele><time>2026-04-18T14:08:28Z</time></trkpt><trkpt lat="56.07016283787181" lon="22.122134893002745"><ele>124.8</ele><time>2026-04-18T14:08:30Z</time></trkpt><trkpt lat="56.070106576141185" lon="22.12208028515777"><ele>125.0</ele><time>2026-04-18T14:08:31Z</time></trkpt><trkpt lat="56.06998033063374" lon="22.122024556995285"><ele>125.2</ele><time>2026-04-18T14:08:33Z</time></trkpt><trkpt lat="56.06991321668926" lon="22.121988902554754"><ele>125.4</ele><time>2026-04-18T14:08:34Z</time></trkpt><trkpt lat="56.069841123497554" lon="22.121941227451064"><ele>125.6</ele><time>2026-04-18T14:08:35Z</time></trkpt><trkpt lat="56.06976422813716" lon="22.121900958885526"><ele>125.8</ele><time>2026-04-18T14:08:36Z</time></trkpt><trkpt lat="56.06964866465314" lon="22.1218129478623"><ele>126.0</ele><time>2026-04-18T14:08:37Z</time></trkpt><trkpt lat="56.069516689321134" lon="22.12173821993716"><ele>126.0</ele><time>2026-04-18T14:08:38Z</time></trkpt><trkpt lat="56.06938764686955" lon="22.121665152521043"><ele>126.0</ele><time>2026-04-18T14:08:39Z</time></trkpt><trkpt lat="56.069257371446405" lon="22.121591385102995"><ele>126.0</ele><time>2026-04-18T14:08:40Z</time></trkpt><trkpt lat="56.06908653880713" lon="22.121494597675348"><ele>126.33333333333334</ele><time>2026-04-18T14:08:41Z</time></trkpt><trkpt lat="56.068930066158735" lon="22.121405945920344"><ele>126.66666666666667</ele><time>2026-04-18T14:08:42Z</time></trkpt><trkpt lat="56.06877422872761" lon="22.121317588211983"><ele>127.0</ele><time>2026-04-18T14:08:43Z</time></trkpt><trkpt lat="56.06858337268149" lon="22.12121025926935"><ele>127.0</ele><time>2026-04-18T14:08:44Z</time></trkpt><trkpt lat="56.068411639322946" lon="22.121117473666768"><ele>127.0</ele><time>2026-04-18T14:08:45Z</time></trkpt><trkpt lat="56.0682630414845" lon="22.12103775637431"><ele>127.0</ele><time>2026-04-18T14:08:46Z</time></trkpt><trkpt lat="56.06813154932645" lon="22.12096693273802"><ele>127.5</ele><time>2026-04-18T14:08:47Z</time></trkpt><trkpt lat="56.068012996593" lon="22.12090274583432"><ele>128.0</ele><time>2026-04-18T14:08:48Z</time></trkpt><trkpt lat="56.06790386095566" lon="22.120843900965852"><ele>128.5</ele><time>2026-04-18T14:08:49Z</time></trkpt><trkpt lat="56.06780585368211" lon="22.120791278703052"><ele>129.0</ele><time>2026-04-18T14:08:50Z</time></trkpt><trkpt lat="56.067694674631475" lon="22.120760263642346"><ele>130.25</ele><time>2026-04-18T14:08:51Z</time></trkpt><trkpt lat="56.06758299138727" lon="22.120688629140457"><ele>131.5</ele><time>2026-04-18T14:08:52Z</time></trkpt><trkpt lat="56.06745301624583" lon="22.120618347502646"><ele>132.75</ele><time>2026-04-18T14:08:53Z</time></trkpt><trkpt lat="56.06732771605853" lon="22.12056128808051"><ele>134.0</ele><time>2026-04-18T14:08:54Z</time></trkpt><trkpt lat="56.06721403828446" lon="22.12052517140973"><ele>134.5</ele><time>2026-04-18T14:08:55Z</time></trkpt><trkpt lat="56.06709887574021" lon="22.120479330452085"><ele>135.0</ele><time>2026-04-18T14:08:56Z</time></trkpt><trkpt lat="56.06695829458971" lon="22.120482595485107"><ele>135.5</ele><time>2026-04-18T14:08:57Z</time></trkpt><trkpt lat="56.0667900304388" lon="22.120482595485804"><ele>136.0</ele><time>2026-04-18T14:08:58Z</time></trkpt><trkpt lat="56.066604005372774" lon="22.120482599044625"><ele>136.0</ele><time>2026-04-18T14:08:59Z</time></trkpt><trkpt lat="56.06642475299405" lon="22.120505360919203"><ele>136.0</ele><time>2026-04-18T14:09:00Z</time></trkpt><trkpt lat="56.06623642445436" lon="22.12049991220678"><ele>136.0</ele><time>2026-04-18T14:09:01Z</time></trkpt><trkpt lat="56.06605654728257" lon="22.120506276060777"><ele>136.0</ele><time>2026-04-18T14:09:02Z</time></trkpt><trkpt lat="56.065854833722966" lon="22.120510721191863"><ele>136.0</ele><time>2026-04-18T14:09:03Z</time></trkpt><trkpt lat="56.065653425054165" lon="22.120481299037543"><ele>136.0</ele><time>2026-04-18T14:09:04Z</time></trkpt><trkpt lat="56.0654535993066" lon="22.12048129903548"><ele>136.0</ele><time>2026-04-18T14:09:05Z</time></trkpt><trkpt lat="56.065241425391164" lon="22.120479899034834"><ele>136.0</ele><time>2026-04-18T14:09:06Z</time></trkpt><trkpt lat="56.065022447275176" lon="22.12050917637451"><ele>136.0</ele><time>2026-04-18T14:09:07Z</time></trkpt><trkpt lat="56.064794983635494" lon="22.12050925980388"><ele>135.0</ele><time>2026-04-18T14:09:08Z</time></trkpt><trkpt lat="56.06457707220333" lon="22.120492529468027"><ele>134.0</ele><time>2026-04-18T14:09:08.999Z</time></trkpt><trkpt lat="56.064396899468036" lon="22.12047859903302"><ele>133.0</ele><time>2026-04-18T14:09:09.999Z</time></trkpt><trkpt lat="56.064210178435395" lon="22.120507354018162"><ele>130.66666666666669</ele><time>2026-04-18T14:09:10.999Z</time></trkpt><trkpt lat="56.06403218739151" lon="22.120478599035437"><ele>128.33333333333334</ele><time>2026-04-18T14:09:11.999Z</time></trkpt><trkpt lat="56.063861991773535" lon="22.12047845543767"><ele>126.0</ele><time>2026-04-18T14:09:12.999Z</time></trkpt><trkpt lat="56.06371040482065" lon="22.120477510548678"><ele>126.0</ele><time>2026-04-18T14:09:13.999Z</time></trkpt><trkpt lat="56.06352073875024" lon="22.12049799467417"><ele>126.0</ele><time>2026-04-18T14:09:14.999Z</time></trkpt><trkpt lat="56.0633358844285" lon="22.120495792317175"><ele>126.0</ele><time>2026-04-18T14:09:15.999Z</time></trkpt><trkpt lat="56.06314131131078" lon="22.120497493971982"><ele>126.33333333333334</ele><time>2026-04-18T14:09:16.999Z</time></trkpt><trkpt lat="56.06294962448666" lon="22.120496953613394"><ele>126.66666666666667</ele><time>2026-04-18T14:09:17.999Z</time></trkpt><trkpt lat="56.06275155289834" lon="22.120496953458012"><ele>127.0</ele><time>2026-04-18T14:09:18.999Z</time></trkpt><trkpt lat="56.06254948100499" lon="22.120496627567967"><ele>127.66666666666667</ele><time>2026-04-18T14:09:19.999Z</time></trkpt><trkpt lat="56.06235290356234" lon="22.12049673446727"><ele>128.33333333333334</ele><time>2026-04-18T14:09:20.999Z</time></trkpt><trkpt lat="56.06215337953956" lon="22.12050068292583"><ele>129.0</ele><time>2026-04-18T14:09:21.999Z</time></trkpt><trkpt lat="56.06195581887213" lon="22.12050148928348"><ele>129.0</ele><time>2026-04-18T14:09:22.999Z</time></trkpt><trkpt lat="56.061754145504935" lon="22.120501823899637"><ele>129.0</ele><time>2026-04-18T14:09:23.999Z</time></trkpt><trkpt lat="56.061563178185764" lon="22.120502315421355"><ele>129.0</ele><time>2026-04-18T14:09:24.999Z</time></trkpt><trkpt lat="56.06136629978042" lon="22.120496612519013"><ele>128.66666666666666</ele><time>2026-04-18T14:09:25.999Z</time></trkpt><trkpt lat="56.06116564447328" lon="22.120491415616392"><ele>128.33333333333331</ele><time>2026-04-18T14:09:26.999Z</time></trkpt><trkpt lat="56.060974445903106" lon="22.1204890047203"><ele>128.0</ele><time>2026-04-18T14:09:27.999Z</time></trkpt><trkpt lat="56.06077540084956" lon="22.120486186363976"><ele>128.0</ele><time>2026-04-18T14:09:28.999Z</time></trkpt><trkpt lat="56.06059501575884" lon="22.120484406910077"><ele>128.0</ele><time>2026-04-18T14:09:29.999Z</time></trkpt><trkpt lat="56.06042257417415" lon="22.120483281015318"><ele>128.0</ele><time>2026-04-18T14:09:30.999Z</time></trkpt><trkpt lat="56.06025119276336" lon="22.12048084764121"><ele>128.0</ele><time>2026-04-18T14:09:31.999Z</time></trkpt><trkpt lat="56.06007504690491" lon="22.12048309304113"><ele>128.0</ele><time>2026-04-18T14:09:32.999Z</time></trkpt><trkpt lat="56.05990136671278" lon="22.120487506200075"><ele>128.0</ele><time>2026-04-18T14:09:33.999Z</time></trkpt><trkpt lat="56.059723239060965" lon="22.120493283459506"><ele>128.66666666666666</ele><time>2026-04-18T14:09:34.999Z</time></trkpt><trkpt lat="56.059541753105236" lon="22.120490031662996"><ele>129.33333333333334</ele><time>2026-04-18T14:09:35.999Z</time></trkpt><trkpt lat="56.05936363005989" lon="22.120492174218292"><ele>130.0</ele><time>2026-04-18T14:09:36.999Z</time></trkpt><trkpt lat="56.05918372416889" lon="22.120497922460444"><ele>130.33333333333334</ele><time>2026-04-18T14:09:37.999Z</time></trkpt><trkpt lat="56.05900654257" lon="22.120501614479338"><ele>130.66666666666666</ele><time>2026-04-18T14:09:38.999Z</time></trkpt><trkpt lat="56.05882919775764" lon="22.120502939309183"><ele>131.0</ele><time>2026-04-18T14:09:39.999Z</time></trkpt><trkpt lat="56.058662188671455" lon="22.12050361847753"><ele>131.0</ele><time>2026-04-18T14:09:40.999Z</time></trkpt><trkpt lat="56.0584965715192" lon="22.120511819390554"><ele>131.0</ele><time>2026-04-18T14:09:41.999Z</time></trkpt><trkpt lat="56.058323314416214" lon="22.120513830339114"><ele>131.0</ele><time>2026-04-18T14:09:42.999Z</time></trkpt><trkpt lat="56.0581453169317" lon="22.120515354277178"><ele>131.66666666666666</ele><time>2026-04-18T14:09:43.999Z</time></trkpt><trkpt lat="56.05795499514343" lon="22.12050684045464"><ele>132.33333333333334</ele><time>2026-04-18T14:09:44.999Z</time></trkpt><trkpt lat="56.05776537595935" lon="22.120504865354008"><ele>133.0</ele><time>2026-04-18T14:09:45.999Z</time></trkpt><trkpt lat="56.05757146816733" lon="22.120502299987443"><ele>133.0</ele><time>2026-04-18T14:09:46.999Z</time></trkpt><trkpt lat="56.05737051038235" lon="22.120500479376545"><ele>133.0</ele><time>2026-04-18T14:09:47.999Z</time></trkpt><trkpt lat="56.05717781742099" lon="22.120501193226264"><ele>133.0</ele><time>2026-04-18T14:09:48.999Z</time></trkpt><trkpt lat="56.05700507976538" lon="22.120496872088207"><ele>133.0</ele><time>2026-04-18T14:09:49.999Z</time></trkpt><trkpt lat="56.056838528509495" lon="22.120467123861165"><ele>133.0</ele><time>2026-04-18T14:09:50.999Z</time></trkpt><trkpt lat="56.05667670483057" lon="22.120463854544344"><ele>133.0</ele><time>2026-04-18T14:09:51.999Z</time></trkpt><trkpt lat="56.05650678930636" lon="22.120460417806697"><ele>133.0</ele><time>2026-04-18T14:09:52.999Z</time></trkpt><trkpt lat="56.056376018697904" lon="22.120457745832017"><ele>133.0</ele><time>2026-04-18T14:09:53.999Z</time></trkpt><trkpt lat="56.05625206906679" lon="22.120455146836917"><ele>133.0</ele><time>2026-04-18T14:09:54.999Z</time></trkpt><trkpt lat="56.056147444792785" lon="22.120452953044246"><ele>133.0</ele><time>2026-04-18T14:09:55.999Z</time></trkpt><trkpt lat="56.056059537683126" lon="22.120451706540134"><ele>133.0</ele><time>2026-04-18T14:09:56.999Z</time></trkpt><trkpt lat="56.05598425348339" lon="22.120441462869692"><ele>133.0</ele><time>2026-04-18T14:09:57.999Z</time></trkpt><trkpt lat="56.05588655299515" lon="22.120454617919826"><ele>133.0</ele><time>2026-04-18T14:09:59.999Z</time></trkpt><trkpt lat="56.055811343065564" lon="22.1204137378018"><ele>133.0</ele><time>2026-04-18T14:10:02.999Z</time></trkpt><trkpt lat="56.05574032398007" lon="22.120364858646706"><ele>133.0</ele><time>2026-04-18T14:10:08Z</time></trkpt><trkpt lat="56.05571686948265" lon="22.12054117757144"><ele>133.0</ele><time>2026-04-18T14:10:10Z</time></trkpt><trkpt lat="56.05571796086492" lon="22.1207170859856"><ele>133.85714285714286</ele><time>2026-04-18T14:10:12Z</time></trkpt><trkpt lat="56.055712494023396" lon="22.12084515834317"><ele>134.71428571428572</ele><time>2026-04-18T14:10:13Z</time></trkpt><trkpt lat="56.05570525781616" lon="22.120979478018413"><ele>135.57142857142856</ele><time>2026-04-18T14:10:14Z</time></trkpt><trkpt lat="56.05570398296332" lon="22.121104303506325"><ele>136.42857142857144</ele><time>2026-04-18T14:10:15Z</time></trkpt><trkpt lat="56.055700036184824" lon="22.121224949486752"><ele>137.28571428571428</ele><time>2026-04-18T14:10:16Z</time></trkpt><trkpt lat="56.05568857609046" lon="22.12136820070754"><ele>138.14285714285714</ele><time>2026-04-18T14:10:17Z</time></trkpt><trkpt lat="56.0556687619833" lon="22.121505657350692"><ele>139.0</ele><time>2026-04-18T14:10:18Z</time></trkpt><trkpt lat="56.05563601919454" lon="22.121645097905798"><ele>139.33333333333334</ele><time>2026-04-18T14:10:19Z</time></trkpt><trkpt lat="56.05559364204492" lon="22.121793328883275"><ele>139.66666666666669</ele><time>2026-04-18T14:10:20Z</time></trkpt><trkpt lat="56.055555047439086" lon="22.121932810406758"><ele>140.0</ele><time>2026-04-18T14:10:21Z</time></trkpt><trkpt lat="56.055522322150665" lon="22.122071955030712"><ele>140.33333333333334</ele><time>2026-04-18T14:10:22Z</time></trkpt><trkpt lat="56.05548774591912" lon="22.12223776240376"><ele>140.66666666666666</ele><time>2026-04-18T14:10:23Z</time></trkpt><trkpt lat="56.05546043760419" lon="22.122374896715613"><ele>141.0</ele><time>2026-04-18T14:10:24Z</time></trkpt><trkpt lat="56.05543765677241" lon="22.122503801949986"><ele>141.28571428571428</ele><time>2026-04-18T14:10:25Z</time></trkpt><trkpt lat="56.05542148341826" lon="22.122635425597103"><ele>141.57142857142856</ele><time>2026-04-18T14:10:26Z</time></trkpt><trkpt lat="56.05540429937336" lon="22.122752621690807"><ele>141.85714285714283</ele><time>2026-04-18T14:10:27Z</time></trkpt><trkpt lat="56.05538123455211" lon="22.12286704051179"><ele>142.14285714285714</ele><time>2026-04-18T14:10:28Z</time></trkpt><trkpt lat="56.05533969575463" lon="22.122974685838383"><ele>142.42857142857142</ele><time>2026-04-18T14:10:29Z</time></trkpt><trkpt lat="56.05528712273643" lon="22.123070797483656"><ele>142.7142857142857</ele><time>2026-04-18T14:10:30Z</time></trkpt><trkpt lat="56.05521456795049" lon="22.123133618384994"><ele>143.0</ele><time>2026-04-18T14:10:31Z</time></trkpt><trkpt lat="56.05515700625316" lon="22.123245514445827"><ele>143.0</ele><time>2026-04-18T14:10:32Z</time></trkpt><trkpt lat="56.05506566134187" lon="22.12334719470396"><ele>143.0</ele><time>2026-04-18T14:10:33Z</time></trkpt><trkpt lat="56.054955733169464" lon="22.123470547016954"><ele>143.0</ele><time>2026-04-18T14:10:34Z</time></trkpt><trkpt lat="56.054861308398266" lon="22.12357639518612"><ele>143.0</ele><time>2026-04-18T14:10:35Z</time></trkpt><trkpt lat="56.054789578826615" lon="22.12365850615366"><ele>143.0</ele><time>2026-04-18T14:10:36Z</time></trkpt><trkpt lat="56.054725189571" lon="22.123730442809283"><ele>143.0</ele><time>2026-04-18T14:10:37Z</time></trkpt><trkpt lat="56.05466763090468" lon="22.123801320204212"><ele>143.0</ele><time>2026-04-18T14:10:38Z</time></trkpt><trkpt lat="56.0545676360331" lon="22.123893056783988"><ele>143.0</ele><time>2026-04-18T14:10:40Z</time></trkpt><trkpt lat="56.05449378529685" lon="22.123952773581912"><ele>143.0</ele><time>2026-04-18T14:10:42Z</time></trkpt><trkpt lat="56.05438966710314" lon="22.123794961300288"><ele>143.0</ele><time>2026-04-18T14:10:43Z</time></trkpt><trkpt lat="56.05429325671447" lon="22.123786693441915"><ele>143.0</ele><time>2026-04-18T14:10:44Z</time></trkpt><trkpt lat="56.05416197905325" lon="22.12382596468133"><ele>143.0</ele><time>2026-04-18T14:10:45Z</time></trkpt><trkpt lat="56.054020276641694" lon="22.123862040710957"><ele>143.0</ele><time>2026-04-18T14:10:46Z</time></trkpt><trkpt lat="56.05387701962083" lon="22.123904985583533"><ele>143.0</ele><time>2026-04-18T14:10:47Z</time></trkpt><trkpt lat="56.05376095791706" lon="22.123939358716928"><ele>143.16666666666666</ele><time>2026-04-18T14:10:48Z</time></trkpt><trkpt lat="56.05366360839288" lon="22.123968824497343"><ele>143.33333333333331</ele><time>2026-04-18T14:10:49Z</time></trkpt><trkpt lat="56.053581616124056" lon="22.124002272661055"><ele>143.5</ele><time>2026-04-18T14:10:50Z</time></trkpt><trkpt lat="56.05351243616374" lon="22.124057390719738"><ele>143.66666666666666</ele><time>2026-04-18T14:10:51Z</time></trkpt><trkpt lat="56.053449115106886" lon="22.12407084308843"><ele>143.83333333333334</ele><time>2026-04-18T14:10:52Z</time></trkpt><trkpt lat="56.05334254148618" lon="22.124130237824872"><ele>144.0</ele><time>2026-04-18T14:10:54Z</time></trkpt><trkpt lat="56.053226413838075" lon="22.124198003452406"><ele>143.0</ele><time>2026-04-18T14:10:56Z</time></trkpt><trkpt lat="56.05317968941585" lon="22.124288641553655"><ele>142.0</ele><time>2026-04-18T14:10:57Z</time></trkpt><trkpt lat="56.053134848852274" lon="22.12437978164309"><ele>141.0</ele><time>2026-04-18T14:10:58Z</time></trkpt><trkpt lat="56.053074466667915" lon="22.124437827240172"><ele>140.0</ele><time>2026-04-18T14:10:59Z</time></trkpt><trkpt lat="56.05298796570868" lon="22.124563075299644"><ele>139.0</ele><time>2026-04-18T14:11:01Z</time></trkpt><trkpt lat="56.05293475492345" lon="22.124656138338562"><ele>138.0</ele><time>2026-04-18T14:11:03Z</time></trkpt><trkpt lat="56.05301587178659" lon="22.124560041298647"><ele>138.0</ele><time>2026-04-18T14:11:11.999Z</time></trkpt><trkpt lat="56.05311622794239" lon="22.124393716728772"><ele>138.0</ele><time>2026-04-18T14:11:13.999Z</time></trkpt><trkpt lat="56.05321229249534" lon="22.124253010335273"><ele>138.0</ele><time>2026-04-18T14:11:15.999Z</time></trkpt><trkpt lat="56.05327422267446" lon="22.12417772551269"><ele>138.0</ele><time>2026-04-18T14:11:16.999Z</time></trkpt><trkpt lat="56.05335441322253" lon="22.124097403636444"><ele>138.0</ele><time>2026-04-18T14:11:17.999Z</time></trkpt><trkpt lat="56.053467785784434" lon="22.12413342647404"><ele>139.20000000000002</ele><time>2026-04-18T14:11:18.999Z</time></trkpt><trkpt lat="56.05356506574457" lon="22.12404747369784"><ele>140.4</ele><time>2026-04-18T14:11:19.999Z</time></trkpt><trkpt lat="56.05367455115242" lon="22.124039703454798"><ele>141.60000000000002</ele><time>2026-04-18T14:11:20.999Z</time></trkpt><trkpt lat="56.05377422837797" lon="22.12399792005642"><ele>142.8</ele><time>2026-04-18T14:11:21.999Z</time></trkpt><trkpt lat="56.05387598176838" lon="22.123935531609124"><ele>144.0</ele><time>2026-04-18T14:11:22.999Z</time></trkpt><trkpt lat="56.05397266984932" lon="22.123914098225995"><ele>144.0</ele><time>2026-04-18T14:11:23.999Z</time></trkpt><trkpt lat="56.05404507751712" lon="22.123902187930526"><ele>144.0</ele><time>2026-04-18T14:11:24.999Z</time></trkpt><trkpt lat="56.054118813185966" lon="22.12389112598987"><ele>144.0</ele><time>2026-04-18T14:11:25.999Z</time></trkpt><trkpt lat="56.054193973742876" lon="22.1238735044908"><ele>144.0</ele><time>2026-04-18T14:11:26.999Z</time></trkpt><trkpt lat="56.054272505436934" lon="22.123860452110062"><ele>144.0</ele><time>2026-04-18T14:11:27.999Z</time></trkpt><trkpt lat="56.054341647826504" lon="22.12384980803394"><ele>144.0</ele><time>2026-04-18T14:11:28.999Z</time></trkpt><trkpt lat="56.05442797841795" lon="22.12384849286004"><ele>143.83333333333334</ele><time>2026-04-18T14:11:30.999Z</time></trkpt><trkpt lat="56.05442701696805" lon="22.12403271688367"><ele>143.66666666666666</ele><time>2026-04-18T14:11:35.999Z</time></trkpt><trkpt lat="56.05437682572606" lon="22.124105572704966"><ele>143.5</ele><time>2026-04-18T14:11:36.999Z</time></trkpt><trkpt lat="56.05432483069729" lon="22.1242312500214"><ele>143.33333333333331</ele><time>2026-04-18T14:11:37.999Z</time></trkpt><trkpt lat="56.054282264130016" lon="22.124355044683274"><ele>143.16666666666666</ele><time>2026-04-18T14:11:38.999Z</time></trkpt><trkpt lat="56.054253184144244" lon="22.124509466039882"><ele>143.0</ele><time>2026-04-18T14:11:39.999Z</time></trkpt><trkpt lat="56.054233177587534" lon="22.124657813032577"><ele>143.33333333333331</ele><time>2026-04-18T14:11:40.999Z</time></trkpt><trkpt lat="56.05423266677591" lon="22.124806997742247"><ele>143.66666666666666</ele><time>2026-04-18T14:11:41.999Z</time></trkpt><trkpt lat="56.05422021499807" lon="22.12492821323686"><ele>144.0</ele><time>2026-04-18T14:11:42.999Z</time></trkpt><trkpt lat="56.054219324088976" lon="22.12506280971462"><ele>144.33333333333334</ele><time>2026-04-18T14:11:43.999Z</time></trkpt><trkpt lat="56.05420217416961" lon="22.1252133390026"><ele>144.66666666666669</ele><time>2026-04-18T14:11:44.999Z</time></trkpt><trkpt lat="56.054218225522966" lon="22.125372640435522"><ele>145.0</ele><time>2026-04-18T14:11:45.999Z</time></trkpt><trkpt lat="56.054233139575146" lon="22.125535669092415"><ele>145.16666666666669</ele><time>2026-04-18T14:11:46.999Z</time></trkpt><trkpt lat="56.054253546475486" lon="22.125698079420275"><ele>145.33333333333334</ele><time>2026-04-18T14:11:47.999Z</time></trkpt><trkpt lat="56.05427965299371" lon="22.125856176967417"><ele>145.5</ele><time>2026-04-18T14:11:48.999Z</time></trkpt><trkpt lat="56.05429263732522" lon="22.12600580665078"><ele>145.66666666666666</ele><time>2026-04-18T14:11:49.999Z</time></trkpt><trkpt lat="56.05431399260621" lon="22.12612127694949"><ele>145.83333333333331</ele><time>2026-04-18T14:11:50.999Z</time></trkpt><trkpt lat="56.054322182929965" lon="22.126272091971096"><ele>146.0</ele><time>2026-04-18T14:11:51.999Z</time></trkpt><trkpt lat="56.05434040483872" lon="22.126395231481755"><ele>145.33333333333331</ele><time>2026-04-18T14:11:52.999Z</time></trkpt><trkpt lat="56.054315732775784" lon="22.126584042322065"><ele>144.66666666666666</ele><time>2026-04-18T14:11:54.999Z</time></trkpt><trkpt lat="56.05431831119128" lon="22.12669889755197"><ele>144.0</ele><time>2026-04-18T14:11:58.999Z</time></trkpt><trkpt lat="56.054360424184864" lon="22.12659559117997"><ele>143.33333333333334</ele><time>2026-04-18T14:12:02.999Z</time></trkpt><trkpt lat="56.05438094024865" lon="22.126481745271413"><ele>142.66666666666669</ele><time>2026-04-18T14:12:03.999Z</time></trkpt><trkpt lat="56.05433518165187" lon="22.126295904294054"><ele>142.0</ele><time>2026-04-18T14:12:04.999Z</time></trkpt><trkpt lat="56.054319132296335" lon="22.126180581968335"><ele>142.0</ele><time>2026-04-18T14:12:05.999Z</time></trkpt><trkpt lat="56.054300459861786" lon="22.12597539859101"><ele>142.0</ele><time>2026-04-18T14:12:07.999Z</time></trkpt><trkpt lat="56.054280967490364" lon="22.125848800128058"><ele>142.0</ele><time>2026-04-18T14:12:08.999Z</time></trkpt><trkpt lat="56.05426824553692" lon="22.1257034515577"><ele>142.0</ele><time>2026-04-18T14:12:10Z</time></trkpt><trkpt lat="56.05425924829417" lon="22.125565019999414"><ele>142.0</ele><time>2026-04-18T14:12:11Z</time></trkpt><trkpt lat="56.05424446490495" lon="22.125401029406227"><ele>142.0</ele><time>2026-04-18T14:12:12Z</time></trkpt><trkpt lat="56.054255586957005" lon="22.12523540718631"><ele>142.6</ele><time>2026-04-18T14:12:13Z</time></trkpt><trkpt lat="56.05425924544451" lon="22.125103844841586"><ele>143.2</ele><time>2026-04-18T14:12:14Z</time></trkpt><trkpt lat="56.0542649242673" lon="22.12496802399166"><ele>143.8</ele><time>2026-04-18T14:12:15Z</time></trkpt><trkpt lat="56.054279398821244" lon="22.124764022705286"><ele>144.4</ele><time>2026-04-18T14:12:17Z</time></trkpt><trkpt lat="56.0543057033748" lon="22.124545913300135"><ele>145.0</ele><time>2026-04-18T14:12:19Z</time></trkpt><trkpt lat="56.05432428888586" lon="22.124419561666173"><ele>145.0</ele><time>2026-04-18T14:12:20Z</time></trkpt><trkpt lat="56.054337742938145" lon="22.12429509563585"><ele>145.0</ele><time>2026-04-18T14:12:21Z</time></trkpt><trkpt lat="56.054381979653606" lon="22.124178863911695"><ele>145.0</ele><time>2026-04-18T14:12:22Z</time></trkpt><trkpt lat="56.054431916230605" lon="22.124078848677495"><ele>145.0</ele><time>2026-04-18T14:12:23Z</time></trkpt><trkpt lat="56.05449651071898" lon="22.124027770202407"><ele>145.0</ele><time>2026-04-18T14:12:24Z</time></trkpt><trkpt lat="56.054543605726685" lon="22.123952690663202"><ele>145.0</ele><time>2026-04-18T14:12:25Z</time></trkpt><trkpt lat="56.05463551809255" lon="22.12390632954374"><ele>144.66666666666669</ele><time>2026-04-18T14:12:27Z</time></trkpt><trkpt lat="56.05472061812666" lon="22.123800580115613"><ele>144.33333333333334</ele><time>2026-04-18T14:12:29Z</time></trkpt><trkpt lat="56.054810859401016" lon="22.12369791819674"><ele>144.0</ele><time>2026-04-18T14:12:31Z</time></trkpt><trkpt lat="56.05487942424636" lon="22.123618984579107"><ele>143.66666666666666</ele><time>2026-04-18T14:12:32Z</time></trkpt><trkpt lat="56.05494166888513" lon="22.123560599671926"><ele>143.33333333333331</ele><time>2026-04-18T14:12:33Z</time></trkpt><trkpt lat="56.05500851258806" lon="22.123503028962624"><ele>143.0</ele><time>2026-04-18T14:12:34Z</time></trkpt><trkpt lat="56.05506692258299" lon="22.12345892375263"><ele>143.0</ele><time>2026-04-18T14:12:35Z</time></trkpt><trkpt lat="56.055152795222206" lon="22.123413959903363"><ele>143.0</ele><time>2026-04-18T14:12:37Z</time></trkpt><trkpt lat="56.05538338898416" lon="22.123959111797646"><ele>143.16666666666666</ele><time>2026-04-18T14:12:38Z</time></trkpt><trkpt lat="56.05544262455645" lon="22.124083842060262"><ele>143.33333333333331</ele><time>2026-04-18T14:12:40Z</time></trkpt><trkpt lat="56.055470169219895" lon="22.124185908337207"><ele>143.5</ele><time>2026-04-18T14:12:41Z</time></trkpt><trkpt lat="56.05549650853187" lon="22.124419128469054"><ele>143.66666666666666</ele><time>2026-04-18T14:12:43Z</time></trkpt><trkpt lat="56.05551400517914" lon="22.124552947218092"><ele>143.83333333333334</ele><time>2026-04-18T14:12:44Z</time></trkpt><trkpt lat="56.05552492099591" lon="22.124674671457498"><ele>144.0</ele><time>2026-04-18T14:12:45Z</time></trkpt><trkpt lat="56.05551846511307" lon="22.124799135484864"><ele>144.0</ele><time>2026-04-18T14:12:46Z</time></trkpt><trkpt lat="56.05555660883049" lon="22.12501648328855"><ele>144.0</ele><time>2026-04-18T14:12:48Z</time></trkpt><trkpt lat="56.05557259157935" lon="22.12513999388819"><ele>144.0</ele><time>2026-04-18T14:12:49Z</time></trkpt><trkpt lat="56.05561205841294" lon="22.12526079549783"><ele>144.0</ele><time>2026-04-18T14:12:50Z</time></trkpt><trkpt lat="56.05566169065374" lon="22.1254079022618"><ele>144.0</ele><time>2026-04-18T14:12:51Z</time></trkpt><trkpt lat="56.05571469477526" lon="22.125561712125144"><ele>143.75</ele><time>2026-04-18T14:12:52Z</time></trkpt><trkpt lat="56.055763878290854" lon="22.125748188493368"><ele>143.5</ele><time>2026-04-18T14:12:53Z</time></trkpt><trkpt lat="56.055814838741284" lon="22.125958949341186"><ele>143.25</ele><time>2026-04-18T14:12:54Z</time></trkpt><trkpt lat="56.0558757469209" lon="22.126185271911343"><ele>143.0</ele><time>2026-04-18T14:12:55Z</time></trkpt><trkpt lat="56.05595924454327" lon="22.1264259982567"><ele>143.0</ele><time>2026-04-18T14:12:56Z</time></trkpt><trkpt lat="56.05603159631652" lon="22.126595066001524"><ele>143.0</ele><time>2026-04-18T14:12:57Z</time></trkpt><trkpt lat="56.05608217296713" lon="22.126755196966457"><ele>143.0</ele><time>2026-04-18T14:12:58Z</time></trkpt><trkpt lat="56.056127495109145" lon="22.126896740023206"><ele>143.0</ele><time>2026-04-18T14:12:59Z</time></trkpt><trkpt lat="56.056159502501366" lon="22.12702458762344"><ele>143.0</ele><time>2026-04-18T14:13:00Z</time></trkpt><trkpt lat="56.056201493884025" lon="22.127175266146413"><ele>143.0</ele><time>2026-04-18T14:13:01Z</time></trkpt><trkpt lat="56.056222131966734" lon="22.127302212685898"><ele>143.0</ele><time>2026-04-18T14:13:02Z</time></trkpt><trkpt lat="56.056245704025564" lon="22.127453206283093"><ele>143.0</ele><time>2026-04-18T14:13:03Z</time></trkpt><trkpt lat="56.05627073440656" lon="22.12762253178868"><ele>143.0</ele><time>2026-04-18T14:13:04Z</time></trkpt><trkpt lat="56.0562683466313" lon="22.12780273592874"><ele>143.0</ele><time>2026-04-18T14:13:05Z</time></trkpt><trkpt lat="56.05629174921933" lon="22.127993321207764"><ele>142.0</ele><time>2026-04-18T14:13:05.999Z</time></trkpt><trkpt lat="56.05630363623124" lon="22.128188088899705"><ele>141.0</ele><time>2026-04-18T14:13:06.999Z</time></trkpt><trkpt lat="56.056312267031345" lon="22.128368798733963"><ele>140.0</ele><time>2026-04-18T14:13:07.999Z</time></trkpt><trkpt lat="56.056326272357" lon="22.128556315239265"><ele>139.0</ele><time>2026-04-18T14:13:08.999Z</time></trkpt><trkpt lat="56.05633955654125" lon="22.12874213492211"><ele>138.0</ele><time>2026-04-18T14:13:09.999Z</time></trkpt><trkpt lat="56.05635539770243" lon="22.128922051977863"><ele>137.8</ele><time>2026-04-18T14:13:10.999Z</time></trkpt><trkpt lat="56.056382872505" lon="22.129124222278172"><ele>137.60000000000002</ele><time>2026-04-18T14:13:11.999Z</time></trkpt><trkpt lat="56.056402483162934" lon="22.129291543938614"><ele>137.39999999999998</ele><time>2026-04-18T14:13:12.999Z</time></trkpt><trkpt lat="56.05641567394229" lon="22.129436605260143"><ele>137.2</ele><time>2026-04-18T14:13:13.999Z</time></trkpt><trkpt lat="56.056426707314024" lon="22.129584863367263"><ele>137.0</ele><time>2026-04-18T14:13:14.999Z</time></trkpt><trkpt lat="56.056428584410334" lon="22.12972980013275"><ele>138.0</ele><time>2026-04-18T14:13:15.999Z</time></trkpt><trkpt lat="56.056434338810355" lon="22.129902063329318"><ele>139.0</ele><time>2026-04-18T14:13:16.999Z</time></trkpt><trkpt lat="56.05644044766137" lon="22.13006693001568"><ele>140.0</ele><time>2026-04-18T14:13:17.999Z</time></trkpt><trkpt lat="56.05644915311504" lon="22.130237358565076"><ele>141.0</ele><time>2026-04-18T14:13:18.999Z</time></trkpt><trkpt lat="56.056460851837535" lon="22.130380414530787"><ele>142.0</ele><time>2026-04-18T14:13:19.999Z</time></trkpt><trkpt lat="56.056469214827686" lon="22.13050510700858"><ele>143.0</ele><time>2026-04-18T14:13:20.999Z</time></trkpt><trkpt lat="56.05647511874482" lon="22.130652449799225"><ele>144.20000000000002</ele><time>2026-04-18T14:13:21.999Z</time></trkpt><trkpt lat="56.05647304583137" lon="22.130786392844858"><ele>145.4</ele><time>2026-04-18T14:13:22.999Z</time></trkpt><trkpt lat="56.05645770327558" lon="22.130974474978203"><ele>146.60000000000002</ele><time>2026-04-18T14:13:24.999Z</time></trkpt><trkpt lat="56.05648098930636" lon="22.13111689379279"><ele>147.8</ele><time>2026-04-18T14:13:26.999Z</time></trkpt><trkpt lat="56.0564571283531" lon="22.13131697948919"><ele>149.0</ele><time>2026-04-18T14:13:28.999Z</time></trkpt><trkpt lat="56.056456869833724" lon="22.131456100365824"><ele>149.0</ele><time>2026-04-18T14:13:29.999Z</time></trkpt><trkpt lat="56.056423227070304" lon="22.131551644448866"><ele>149.0</ele><time>2026-04-18T14:13:30.999Z</time></trkpt><trkpt lat="56.05637524558777" lon="22.13171185588319"><ele>149.0</ele><time>2026-04-18T14:13:33.999Z</time></trkpt><trkpt lat="56.05631382957383" lon="22.13190978694522"><ele>149.0</ele><time>2026-04-18T14:13:35.999Z</time></trkpt><trkpt lat="56.05626794954418" lon="22.131991777362618"><ele>149.0</ele><time>2026-04-18T14:13:36.999Z</time></trkpt><trkpt lat="56.05621679447146" lon="22.132058015467994"><ele>149.0</ele><time>2026-04-18T14:13:37.999Z</time></trkpt><trkpt lat="56.0561537364023" lon="22.13214726437555"><ele>148.0</ele><time>2026-04-18T14:13:38.999Z</time></trkpt><trkpt lat="56.05608752109746" lon="22.132241456834965"><ele>147.0</ele><time>2026-04-18T14:13:39.999Z</time></trkpt><trkpt lat="56.05601117611028" lon="22.132330883101673"><ele>146.0</ele><time>2026-04-18T14:13:40.999Z</time></trkpt><trkpt lat="56.05594582823033" lon="22.132431109355387"><ele>145.0</ele><time>2026-04-18T14:13:41.999Z</time></trkpt><trkpt lat="56.0558783727171" lon="22.132564563314094"><ele>144.0</ele><time>2026-04-18T14:13:42.999Z</time></trkpt><trkpt lat="56.05584300538067" lon="22.132659808570974"><ele>143.0</ele><time>2026-04-18T14:13:43.999Z</time></trkpt><trkpt lat="56.055753600641864" lon="22.13282832450738"><ele>141.16666666666666</ele><time>2026-04-18T14:13:44.999Z</time></trkpt><trkpt lat="56.05569910525074" lon="22.132908665168472"><ele>139.33333333333331</ele><time>2026-04-18T14:13:45.999Z</time></trkpt><trkpt lat="56.05569191376173" lon="22.13304294022257"><ele>137.5</ele><time>2026-04-18T14:13:46.999Z</time></trkpt><trkpt lat="56.05565215017073" lon="22.13317509870917"><ele>135.66666666666666</ele><time>2026-04-18T14:13:47.999Z</time></trkpt><trkpt lat="56.055625584680534" lon="22.133355425737587"><ele>133.83333333333334</ele><time>2026-04-18T14:13:49.999Z</time></trkpt><trkpt lat="56.055607334111706" lon="22.133467324483757"><ele>132.0</ele><time>2026-04-18T14:13:50.999Z</time></trkpt><trkpt lat="56.05558946291428" lon="22.13358895291942"><ele>131.5</ele><time>2026-04-18T14:13:51.999Z</time></trkpt><trkpt lat="56.05557584195234" lon="22.13374038021679"><ele>131.0</ele><time>2026-04-18T14:13:52.999Z</time></trkpt><trkpt lat="56.05557035539442" lon="22.133893640519204"><ele>130.5</ele><time>2026-04-18T14:13:53.999Z</time></trkpt><trkpt lat="56.055599813258226" lon="22.134036417015412"><ele>130.0</ele><time>2026-04-18T14:13:54.999Z</time></trkpt><trkpt lat="56.05561891538536" lon="22.13416528900042"><ele>129.5</ele><time>2026-04-18T14:13:55.999Z</time></trkpt><trkpt lat="56.05562964079736" lon="22.134296738388922"><ele>129.0</ele><time>2026-04-18T14:13:56.999Z</time></trkpt><trkpt lat="56.05568228249948" lon="22.13453560775024"><ele>128.75</ele><time>2026-04-18T14:13:58.999Z</time></trkpt><trkpt lat="56.05571331012561" lon="22.134676461659943"><ele>128.5</ele><time>2026-04-18T14:13:59.999Z</time></trkpt><trkpt lat="56.055775648449696" lon="22.134904203756058"><ele>128.25</ele><time>2026-04-18T14:14:00.999Z</time></trkpt><trkpt lat="56.0558273846292" lon="22.135212182086423"><ele>128.0</ele><time>2026-04-18T14:14:01.999Z</time></trkpt><trkpt lat="56.05590394622236" lon="22.1354651433863"><ele>128.0</ele><time>2026-04-18T14:14:02.999Z</time></trkpt><trkpt lat="56.05592295829268" lon="22.135688843161073"><ele>128.0</ele><time>2026-04-18T14:14:03.999Z</time></trkpt><trkpt lat="56.055947425505884" lon="22.135909096304513"><ele>128.0</ele><time>2026-04-18T14:14:04.999Z</time></trkpt><trkpt lat="56.05597207114512" lon="22.136182127304235"><ele>128.0</ele><time>2026-04-18T14:14:05.999Z</time></trkpt><trkpt lat="56.05595345524312" lon="22.135835762342904"><ele>128.0</ele><time>2026-04-18T14:14:06.999Z</time></trkpt><trkpt lat="56.055962969324064" lon="22.135991579326426"><ele>128.0</ele><time>2026-04-18T14:14:07.999Z</time></trkpt><trkpt lat="56.05595250512277" lon="22.136205933958"><ele>128.0</ele><time>2026-04-18T14:14:08.999Z</time></trkpt><trkpt lat="56.055996895327254" lon="22.136415349529063"><ele>128.0</ele><time>2026-04-18T14:14:10.999Z</time></trkpt><trkpt lat="56.05599227607833" lon="22.136638428851327"><ele>127.80000000000001</ele><time>2026-04-18T14:14:11.999Z</time></trkpt><trkpt lat="56.05599776038941" lon="22.136755962207044"><ele>127.60000000000001</ele><time>2026-04-18T14:14:12.999Z</time></trkpt><trkpt lat="56.05601703568105" lon="22.136989557644494"><ele>127.39999999999999</ele><time>2026-04-18T14:14:13.999Z</time></trkpt><trkpt lat="56.05602961796494" lon="22.13721229639494"><ele>127.19999999999999</ele><time>2026-04-18T14:14:16Z</time></trkpt><trkpt lat="56.05603866905713" lon="22.13737291232902"><ele>127.0</ele><time>2026-04-18T14:14:17Z</time></trkpt><trkpt lat="56.05603082169984" lon="22.13748517217721"><ele>126.83333333333334</ele><time>2026-04-18T14:14:18Z</time></trkpt><trkpt lat="56.056042281000416" lon="22.137636582565484"><ele>126.66666666666667</ele><time>2026-04-18T14:14:19Z</time></trkpt><trkpt lat="56.05607040695816" lon="22.137762819762685"><ele>126.5</ele><time>2026-04-18T14:14:20Z</time></trkpt><trkpt lat="56.05609065417107" lon="22.137916961604013"><ele>126.33333333333334</ele><time>2026-04-18T14:14:21Z</time></trkpt><trkpt lat="56.05611138193459" lon="22.13804553652687"><ele>126.16666666666667</ele><time>2026-04-18T14:14:22Z</time></trkpt><trkpt lat="56.05613919495121" lon="22.138177243601497"><ele>126.0</ele><time>2026-04-18T14:14:23Z</time></trkpt><trkpt lat="56.05614727422784" lon="22.13832276226143"><ele>126.0</ele><time>2026-04-18T14:14:24Z</time></trkpt><trkpt lat="56.056177186872695" lon="22.13845817904967"><ele>126.0</ele><time>2026-04-18T14:14:25Z</time></trkpt><trkpt lat="56.05620894469064" lon="22.138598857931186"><ele>126.0</ele><time>2026-04-18T14:14:26Z</time></trkpt><trkpt lat="56.05623903953535" lon="22.13873217045273"><ele>126.0</ele><time>2026-04-18T14:14:27Z</time></trkpt><trkpt lat="56.056270371952486" lon="22.138871652845108"><ele>126.0</ele><time>2026-04-18T14:14:28Z</time></trkpt><trkpt lat="56.05631445475631" lon="22.13899901873346"><ele>126.0</ele><time>2026-04-18T14:14:29Z</time></trkpt><trkpt lat="56.056339307600716" lon="22.13914004543405"><ele>126.0</ele><time>2026-04-18T14:14:30Z</time></trkpt><trkpt lat="56.056365631376195" lon="22.1392763715664"><ele>126.0</ele><time>2026-04-18T14:14:31Z</time></trkpt><trkpt lat="56.05639498061155" lon="22.13940316107232"><ele>126.0</ele><time>2026-04-18T14:14:32Z</time></trkpt><trkpt lat="56.0564279919432" lon="22.1395325193896"><ele>126.0</ele><time>2026-04-18T14:14:33Z</time></trkpt><trkpt lat="56.05645752111862" lon="22.139664067957668"><ele>126.0</ele><time>2026-04-18T14:14:34Z</time></trkpt><trkpt lat="56.05648268013417" lon="22.139795586771964"><ele>126.0</ele><time>2026-04-18T14:14:35Z</time></trkpt><trkpt lat="56.05649906912741" lon="22.139924154990872"><ele>126.16666666666667</ele><time>2026-04-18T14:14:36Z</time></trkpt><trkpt lat="56.05651028120366" lon="22.140041215226145"><ele>126.33333333333334</ele><time>2026-04-18T14:14:37Z</time></trkpt><trkpt lat="56.05652619552636" lon="22.140158334185454"><ele>126.5</ele><time>2026-04-18T14:14:38Z</time></trkpt><trkpt lat="56.05653890384795" lon="22.140282235393144"><ele>126.66666666666667</ele><time>2026-04-18T14:14:39Z</time></trkpt><trkpt lat="56.056543807273734" lon="22.140399118861456"><ele>126.83333333333334</ele><time>2026-04-18T14:14:40Z</time></trkpt><trkpt lat="56.0565423957159" lon="22.140561909890977"><ele>127.0</ele><time>2026-04-18T14:14:42Z</time></trkpt><trkpt lat="56.05655417879963" lon="22.140776238690684"><ele>127.0</ele><time>2026-04-18T14:14:44Z</time></trkpt><trkpt lat="56.056601778676864" lon="22.140898626633064"><ele>126.99999999999999</ele><time>2026-04-18T14:14:46Z</time></trkpt><trkpt lat="56.05663864262259" lon="22.141002207745974"><ele>126.99999999999999</ele><time>2026-04-18T14:14:50Z</time></trkpt><trkpt lat="56.05666836816372" lon="22.141134364461017"><ele>127.0</ele><time>2026-04-18T14:14:52Z</time></trkpt><trkpt lat="56.05673511676327" lon="22.141296815094172"><ele>127.0</ele><time>2026-04-18T14:14:53Z</time></trkpt><trkpt lat="56.05681286335905" lon="22.141428705103454"><ele>127.0</ele><time>2026-04-18T14:14:55Z</time></trkpt><trkpt lat="56.05685483456791" lon="22.141564043344655"><ele>126.99999999999999</ele><time>2026-04-18T14:14:57Z</time></trkpt><trkpt lat="56.056916903362236" lon="22.14172434560886"><ele>126.99999999999999</ele><time>2026-04-18T14:14:59Z</time></trkpt><trkpt lat="56.056989105043456" lon="22.14189964579354"><ele>127.0</ele><time>2026-04-18T14:15:00.999Z</time></trkpt><trkpt lat="56.05705597558738" lon="22.142085883524434"><ele>127.0</ele><time>2026-04-18T14:15:02.999Z</time></trkpt><trkpt lat="56.057090602245644" lon="22.14218356588191"><ele>127.0</ele><time>2026-04-18T14:15:03.999Z</time></trkpt><trkpt lat="56.057123449875725" lon="22.142280999990717"><ele>126.99999999999999</ele><time>2026-04-18T14:15:04.999Z</time></trkpt><trkpt lat="56.0571957399039" lon="22.142456297088387"><ele>126.99999999999999</ele><time>2026-04-18T14:15:06.999Z</time></trkpt><trkpt lat="56.05726487496193" lon="22.142629052502908"><ele>127.0</ele><time>2026-04-18T14:15:08.999Z</time></trkpt><trkpt lat="56.05731715200981" lon="22.142812806168717"><ele>127.0</ele><time>2026-04-18T14:15:10.999Z</time></trkpt><trkpt lat="56.057370516390485" lon="22.142935445906453"><ele>127.25</ele><time>2026-04-18T14:15:12.999Z</time></trkpt><trkpt lat="56.05743672683818" lon="22.143153098981898"><ele>127.5</ele><time>2026-04-18T14:15:14.999Z</time></trkpt><trkpt lat="56.05751273457621" lon="22.143314253293912"><ele>127.75</ele><time>2026-04-18T14:15:16.999Z</time></trkpt><trkpt lat="56.05758289224198" lon="22.143491702544488"><ele>128.0</ele><time>2026-04-18T14:15:18.999Z</time></trkpt><trkpt lat="56.057663503535686" lon="22.14364232354425"><ele>128.0</ele><time>2026-04-18T14:15:20.999Z</time></trkpt><trkpt lat="56.05771067234204" lon="22.14371792286906"><ele>128.0</ele><time>2026-04-18T14:15:21.999Z</time></trkpt><trkpt lat="56.05780314623013" lon="22.14385592679844"><ele>128.0</ele><time>2026-04-18T14:15:23.999Z</time></trkpt><trkpt lat="56.05785986395825" lon="22.143948326865715"><ele>128.0</ele><time>2026-04-18T14:15:25.999Z</time></trkpt><trkpt lat="56.05794115937243" lon="22.14407660295723"><ele>128.0</ele><time>2026-04-18T14:15:27.999Z</time></trkpt><trkpt lat="56.05802908343933" lon="22.144216962472793"><ele>128.14285714285714</ele><time>2026-04-18T14:15:29.999Z</time></trkpt><trkpt lat="56.05808012511497" lon="22.144290215875323"><ele>128.28571428571428</ele><time>2026-04-18T14:15:30.999Z</time></trkpt><trkpt lat="56.05813127813355" lon="22.144369177186146"><ele>128.42857142857142</ele><time>2026-04-18T14:15:31.999Z</time></trkpt><trkpt lat="56.05818261551573" lon="22.144454433870255"><ele>128.57142857142856</ele><time>2026-04-18T14:15:32.999Z</time></trkpt><trkpt lat="56.05822534507529" lon="22.144554254546325"><ele>128.71428571428572</ele><time>2026-04-18T14:15:33.999Z</time></trkpt><trkpt lat="56.05828962865192" lon="22.14461461110057"><ele>128.85714285714283</ele><time>2026-04-18T14:15:34.999Z</time></trkpt><trkpt lat="56.0583519618957" lon="22.14471167047632"><ele>129.0</ele><time>2026-04-18T14:15:35.999Z</time></trkpt><trkpt lat="56.05842253645656" lon="22.14481289065922"><ele>129.4</ele><time>2026-04-18T14:15:36.999Z</time></trkpt><trkpt lat="56.05848191685099" lon="22.144907617275074"><ele>129.8</ele><time>2026-04-18T14:15:37.999Z</time></trkpt><trkpt lat="56.05856850946694" lon="22.145051148768303"><ele>130.2</ele><time>2026-04-18T14:15:39.999Z</time></trkpt><trkpt lat="56.05862611587782" lon="22.14515122213475"><ele>130.6</ele><time>2026-04-18T14:15:40.999Z</time></trkpt><trkpt lat="56.05868913368713" lon="22.14525451492544"><ele>131.0</ele><time>2026-04-18T14:15:41.999Z</time></trkpt><trkpt lat="56.058755906327974" lon="22.14535272453104"><ele>131.0</ele><time>2026-04-18T14:15:42.999Z</time></trkpt><trkpt lat="56.058809965347" lon="22.145431532674777"><ele>131.0</ele><time>2026-04-18T14:15:43.999Z</time></trkpt><trkpt lat="56.058866028075705" lon="22.14551280571454"><ele>131.0</ele><time>2026-04-18T14:15:44.999Z</time></trkpt><trkpt lat="56.05893513236069" lon="22.145609948958686"><ele>131.0</ele><time>2026-04-18T14:15:45.999Z</time></trkpt><trkpt lat="56.05900615557612" lon="22.14570021581774"><ele>131.0</ele><time>2026-04-18T14:15:46.999Z</time></trkpt><trkpt lat="56.05907929044558" lon="22.14579447525157"><ele>131.0</ele><time>2026-04-18T14:15:47.999Z</time></trkpt><trkpt lat="56.059142554500035" lon="22.14588084246425"><ele>130.83333333333331</ele><time>2026-04-18T14:15:48.999Z</time></trkpt><trkpt lat="56.059199758927164" lon="22.145958716652206"><ele>130.66666666666666</ele><time>2026-04-18T14:15:49.999Z</time></trkpt><trkpt lat="56.05925641924574" lon="22.146035308367527"><ele>130.5</ele><time>2026-04-18T14:15:50.999Z</time></trkpt><trkpt lat="56.05931124678953" lon="22.14610760363083"><ele>130.33333333333334</ele><time>2026-04-18T14:15:51.999Z</time></trkpt><trkpt lat="56.05937007085562" lon="22.146169955157525"><ele>130.16666666666669</ele><time>2026-04-18T14:15:52.999Z</time></trkpt><trkpt lat="56.05946581839269" lon="22.146246663989924"><ele>130.0</ele><time>2026-04-18T14:15:54.999Z</time></trkpt><trkpt lat="56.05957683984182" lon="22.14631399792755"><ele>130.0</ele><time>2026-04-18T14:15:56.999Z</time></trkpt><trkpt lat="56.05965042770688" lon="22.146362339853333"><ele>130.0</ele><time>2026-04-18T14:15:57.999Z</time></trkpt><trkpt lat="56.059727836601176" lon="22.146408648568066"><ele>130.0</ele><time>2026-04-18T14:15:58.999Z</time></trkpt><trkpt lat="56.059815261172666" lon="22.14646226824426"><ele>130.0</ele><time>2026-04-18T14:15:59.999Z</time></trkpt><trkpt lat="56.05989315173154" lon="22.146508736656404"><ele>130.0</ele><time>2026-04-18T14:16:00.999Z</time></trkpt><trkpt lat="56.059967762190624" lon="22.146558175978583"><ele>130.0</ele><time>2026-04-18T14:16:01.999Z</time></trkpt><trkpt lat="56.060041483562124" lon="22.14660824097288"><ele>130.16666666666669</ele><time>2026-04-18T14:16:02.999Z</time></trkpt><trkpt lat="56.060116345035894" lon="22.14665291732364"><ele>130.33333333333334</ele><time>2026-04-18T14:16:03.999Z</time></trkpt><trkpt lat="56.060187134375376" lon="22.146692393443033"><ele>130.5</ele><time>2026-04-18T14:16:04.999Z</time></trkpt><trkpt lat="56.06026330443365" lon="22.14673762707965"><ele>130.66666666666666</ele><time>2026-04-18T14:16:05.999Z</time></trkpt><trkpt lat="56.06034424295808" lon="22.146783061186877"><ele>130.83333333333331</ele><time>2026-04-18T14:16:06.999Z</time></trkpt><trkpt lat="56.060423399997006" lon="22.146823627610537"><ele>131.0</ele><time>2026-04-18T14:16:07.999Z</time></trkpt><trkpt lat="56.06050682490153" lon="22.146871656088024"><ele>131.0</ele><time>2026-04-18T14:16:08.999Z</time></trkpt><trkpt lat="56.06058704753241" lon="22.146922400201206"><ele>131.0</ele><time>2026-04-18T14:16:09.999Z</time></trkpt><trkpt lat="56.06066798333934" lon="22.146965736308236"><ele>131.0</ele><time>2026-04-18T14:16:10.999Z</time></trkpt><trkpt lat="56.06074265139234" lon="22.147000369249227"><ele>131.0</ele><time>2026-04-18T14:16:11.999Z</time></trkpt><trkpt lat="56.06081594357155" lon="22.147052173854874"><ele>131.0</ele><time>2026-04-18T14:16:12.999Z</time></trkpt><trkpt lat="56.06088955459433" lon="22.147080267553438"><ele>131.0</ele><time>2026-04-18T14:16:13.999Z</time></trkpt><trkpt lat="56.06096852407743" lon="22.147117077298013"><ele>131.6</ele><time>2026-04-18T14:16:14.999Z</time></trkpt><trkpt lat="56.06106017048827" lon="22.14716809170704"><ele>132.2</ele><time>2026-04-18T14:16:15.999Z</time></trkpt><trkpt lat="56.06116680774786" lon="22.147230583474688"><ele>132.8</ele><time>2026-04-18T14:16:16.999Z</time></trkpt><trkpt lat="56.061250905470246" lon="22.147272208677872"><ele>133.4</ele><time>2026-04-18T14:16:17.999Z</time></trkpt><trkpt lat="56.06134640087921" lon="22.147319570530062"><ele>134.0</ele><time>2026-04-18T14:16:18.999Z</time></trkpt><trkpt lat="56.061429419886636" lon="22.147360960460844"><ele>133.83333333333331</ele><time>2026-04-18T14:16:19.999Z</time></trkpt><trkpt lat="56.06152236506582" lon="22.147407130102433"><ele>133.66666666666666</ele><time>2026-04-18T14:16:20.999Z</time></trkpt><trkpt lat="56.06160832688492" lon="22.147396201181788"><ele>133.5</ele><time>2026-04-18T14:16:22Z</time></trkpt><trkpt lat="56.061681226220756" lon="22.147432767831592"><ele>133.33333333333334</ele><time>2026-04-18T14:16:23Z</time></trkpt><trkpt lat="56.061779618702545" lon="22.14742675881207"><ele>133.16666666666669</ele><time>2026-04-18T14:16:24Z</time></trkpt><trkpt lat="56.06186345828877" lon="22.14742483926863"><ele>133.0</ele><time>2026-04-18T14:16:25Z</time></trkpt><trkpt lat="56.06193307700043" lon="22.147421568448124"><ele>133.0</ele><time>2026-04-18T14:16:26Z</time></trkpt><trkpt lat="56.06201534427888" lon="22.147398711457665"><ele>133.0</ele><time>2026-04-18T14:16:27Z</time></trkpt><trkpt lat="56.06209999357551" lon="22.147382271172575"><ele>133.0</ele><time>2026-04-18T14:16:28Z</time></trkpt><trkpt lat="56.06217897580665" lon="22.147376754391946"><ele>133.0</ele><time>2026-04-18T14:16:29Z</time></trkpt><trkpt lat="56.06225431909295" lon="22.14736427561079"><ele>133.0</ele><time>2026-04-18T14:16:30Z</time></trkpt><trkpt lat="56.062323349151285" lon="22.147367371354814"><ele>133.0</ele><time>2026-04-18T14:16:31Z</time></trkpt><trkpt lat="56.06239764827827" lon="22.14736874307648"><ele>133.25</ele><time>2026-04-18T14:16:32Z</time></trkpt><trkpt lat="56.06250553373566" lon="22.147378084548777"><ele>133.5</ele><time>2026-04-18T14:16:33Z</time></trkpt><trkpt lat="56.06263554491034" lon="22.147370214169545"><ele>133.75</ele><time>2026-04-18T14:16:34Z</time></trkpt><trkpt lat="56.06278063812561" lon="22.147394833672717"><ele>134.0</ele><time>2026-04-18T14:16:35Z</time></trkpt><trkpt lat="56.06286434449867" lon="22.147413044002032"><ele>134.0</ele><time>2026-04-18T14:16:36Z</time></trkpt><trkpt lat="56.06297477812123" lon="22.147432854021517"><ele>134.0</ele><time>2026-04-18T14:16:36.999Z</time></trkpt><trkpt lat="56.06310992094209" lon="22.14746134445411"><ele>134.0</ele><time>2026-04-18T14:16:37.999Z</time></trkpt><trkpt lat="56.0632293507293" lon="22.147448708361395"><ele>134.0</ele><time>2026-04-18T14:16:38.999Z</time></trkpt><trkpt lat="56.063345256761934" lon="22.147487531365083"><ele>134.4</ele><time>2026-04-18T14:16:39.999Z</time></trkpt><trkpt lat="56.063447676481054" lon="22.14751393910685"><ele>134.8</ele><time>2026-04-18T14:16:40.999Z</time></trkpt><trkpt lat="56.06354583076525" lon="22.14755353893212"><ele>135.2</ele><time>2026-04-18T14:16:41.999Z</time></trkpt><trkpt lat="56.0636426594295" lon="22.14761030216844"><ele>135.6</ele><time>2026-04-18T14:16:42.999Z</time></trkpt><trkpt lat="56.063746042121956" lon="22.147693358286226"><ele>136.0</ele><time>2026-04-18T14:16:43.999Z</time></trkpt><trkpt lat="56.06385050408759" lon="22.14776523602439"><ele>136.0</ele><time>2026-04-18T14:16:44.999Z</time></trkpt><trkpt lat="56.063939468866295" lon="22.14783097660659"><ele>136.0</ele><time>2026-04-18T14:16:45.999Z</time></trkpt><trkpt lat="56.06402654634008" lon="22.147887823301758"><ele>136.0</ele><time>2026-04-18T14:16:46.999Z</time></trkpt><trkpt lat="56.064115414258815" lon="22.147940059978083"><ele>136.0</ele><time>2026-04-18T14:16:47.999Z</time></trkpt><trkpt lat="56.06420377767988" lon="22.147998325264723"><ele>136.0</ele><time>2026-04-18T14:16:48.999Z</time></trkpt><trkpt lat="56.06427949813116" lon="22.148038475502172"><ele>136.2</ele><time>2026-04-18T14:16:49.999Z</time></trkpt><trkpt lat="56.064364641442175" lon="22.148082056058502"><ele>136.39999999999998</ele><time>2026-04-18T14:16:50.999Z</time></trkpt><trkpt lat="56.06445011431368" lon="22.14813998287605"><ele>136.6</ele><time>2026-04-18T14:16:51.999Z</time></trkpt><trkpt lat="56.0645438622775" lon="22.148206362895532"><ele>136.79999999999998</ele><time>2026-04-18T14:16:52.999Z</time></trkpt><trkpt lat="56.06464407602516" lon="22.148271043620984"><ele>137.0</ele><time>2026-04-18T14:16:53.999Z</time></trkpt><trkpt lat="56.064747201293336" lon="22.148329936297532"><ele>137.0</ele><time>2026-04-18T14:16:54.999Z</time></trkpt><trkpt lat="56.064851562982035" lon="22.148383146785026"><ele>137.0</ele><time>2026-04-18T14:16:55.998Z</time></trkpt><trkpt lat="56.06492967069777" lon="22.148417825753704"><ele>137.0</ele><time>2026-04-18T14:16:56.998Z</time></trkpt><trkpt lat="56.0650077616226" lon="22.148451979596757"><ele>137.0</ele><time>2026-04-18T14:16:57.998Z</time></trkpt><trkpt lat="56.06507740447116" lon="22.14848285752067"><ele>137.0</ele><time>2026-04-18T14:16:58.998Z</time></trkpt><trkpt lat="56.0651462940919" lon="22.148506794288995"><ele>137.0</ele><time>2026-04-18T14:16:59.998Z</time></trkpt><trkpt lat="56.0652238711263" lon="22.14853100784382"><ele>136.83333333333331</ele><time>2026-04-18T14:17:00.998Z</time></trkpt><trkpt lat="56.06531013498886" lon="22.148553755443654"><ele>136.66666666666666</ele><time>2026-04-18T14:17:01.998Z</time></trkpt><trkpt lat="56.06539555049014" lon="22.148564651636367"><ele>136.5</ele><time>2026-04-18T14:17:02.998Z</time></trkpt><trkpt lat="56.06546052280576" lon="22.148568035309424"><ele>136.33333333333334</ele><time>2026-04-18T14:17:03.998Z</time></trkpt><trkpt lat="56.06554459029889" lon="22.148583334682208"><ele>136.16666666666669</ele><time>2026-04-18T14:17:05.998Z</time></trkpt><trkpt lat="56.06558810805988" lon="22.14879613576443"><ele>136.0</ele><time>2026-04-18T14:17:09.998Z</time></trkpt><trkpt lat="56.06556877868358" lon="22.148961139962875"><ele>135.4</ele><time>2026-04-18T14:17:11.998Z</time></trkpt><trkpt lat="56.065543657921545" lon="22.1491183796358"><ele>134.8</ele><time>2026-04-18T14:17:13.998Z</time></trkpt><trkpt lat="56.06552173589097" lon="22.149276274319504"><ele>134.20000000000002</ele><time>2026-04-18T14:17:14.998Z</time></trkpt><trkpt lat="56.06549051109616" lon="22.149493188776674"><ele>133.6</ele><time>2026-04-18T14:17:15.998Z</time></trkpt><trkpt lat="56.06546319620034" lon="22.14970210682641"><ele>133.0</ele><time>2026-04-18T14:17:16.998Z</time></trkpt><trkpt lat="56.06542814178408" lon="22.14996617984835"><ele>132.66666666666669</ele><time>2026-04-18T14:17:17.998Z</time></trkpt><trkpt lat="56.06539663715261" lon="22.150231454155648"><ele>132.33333333333334</ele><time>2026-04-18T14:17:18.998Z</time></trkpt><trkpt lat="56.06535468088268" lon="22.15053218027018"><ele>132.0</ele><time>2026-04-18T14:17:19.998Z</time></trkpt><trkpt lat="56.06531267037394" lon="22.150818758080636"><ele>132.0</ele><time>2026-04-18T14:17:20.998Z</time></trkpt><trkpt lat="56.065265722904215" lon="22.151131350044285"><ele>132.0</ele><time>2026-04-18T14:17:21.998Z</time></trkpt><trkpt lat="56.06522404487934" lon="22.151425602860883"><ele>132.0</ele><time>2026-04-18T14:17:22.998Z</time></trkpt><trkpt lat="56.065181546609516" lon="22.151756601392762"><ele>131.66666666666666</ele><time>2026-04-18T14:17:23.998Z</time></trkpt><trkpt lat="56.0651432841013" lon="22.152077450203304"><ele>131.33333333333331</ele><time>2026-04-18T14:17:24.998Z</time></trkpt><trkpt lat="56.06510100943272" lon="22.152393162977837"><ele>131.0</ele><time>2026-04-18T14:17:25.998Z</time></trkpt><trkpt lat="56.06506299931737" lon="22.15270495162437"><ele>131.0</ele><time>2026-04-18T14:17:26.998Z</time></trkpt><trkpt lat="56.06502697233337" lon="22.153019294282853"><ele>131.0</ele><time>2026-04-18T14:17:27.998Z</time></trkpt><trkpt lat="56.06499495576167" lon="22.153328314455678"><ele>131.0</ele><time>2026-04-18T14:17:28.998Z</time></trkpt><trkpt lat="56.06496691264832" lon="22.153635474072193"><ele>130.66666666666666</ele><time>2026-04-18T14:17:29.998Z</time></trkpt><trkpt lat="56.064936733504155" lon="22.153942642469794"><ele>130.33333333333334</ele><time>2026-04-18T14:17:30.998Z</time></trkpt><trkpt lat="56.064903262233436" lon="22.154262837987297"><ele>130.0</ele><time>2026-04-18T14:17:31.998Z</time></trkpt><trkpt lat="56.0648694782611" lon="22.154580101224823"><ele>129.33333333333334</ele><time>2026-04-18T14:17:32.998Z</time></trkpt><trkpt lat="56.06483855160577" lon="22.15489053747171"><ele>128.66666666666666</ele><time>2026-04-18T14:17:33.998Z</time></trkpt><trkpt lat="56.06480743473494" lon="22.155196813584084"><ele>128.0</ele><time>2026-04-18T14:17:34.998Z</time></trkpt><trkpt lat="56.06477752005247" lon="22.155507705161384"><ele>128.0</ele><time>2026-04-18T14:17:35.998Z</time></trkpt><trkpt lat="56.0647452175968" lon="22.15584168475286"><ele>128.0</ele><time>2026-04-18T14:17:36.998Z</time></trkpt><trkpt lat="56.06471079564417" lon="22.156120310290977"><ele>128.0</ele><time>2026-04-18T14:17:37.998Z</time></trkpt><trkpt lat="56.06467959519876" lon="22.156415973866977"><ele>128.33333333333331</ele><time>2026-04-18T14:17:38.998Z</time></trkpt><trkpt lat="56.064651065828464" lon="22.15671580758933"><ele>128.66666666666666</ele><time>2026-04-18T14:17:39.998Z</time></trkpt><trkpt lat="56.06462214954332" lon="22.157013992032127"><ele>129.0</ele><time>2026-04-18T14:17:40.998Z</time></trkpt><trkpt lat="56.06459159152728" lon="22.15730244914104"><ele>129.33333333333334</ele><time>2026-04-18T14:17:41.998Z</time></trkpt><trkpt lat="56.06456331987474" lon="22.15760173087048"><ele>129.66666666666669</ele><time>2026-04-18T14:17:42.998Z</time></trkpt><trkpt lat="56.064525312921646" lon="22.157881319508324"><ele>130.0</ele><time>2026-04-18T14:17:43.998Z</time></trkpt><trkpt lat="56.06448668944171" lon="22.158157360274124"><ele>129.33333333333334</ele><time>2026-04-18T14:17:44.998Z</time></trkpt><trkpt lat="56.06444172527437" lon="22.158450244920047"><ele>128.66666666666666</ele><time>2026-04-18T14:17:45.998Z</time></trkpt><trkpt lat="56.064385725826966" lon="22.15876957845322"><ele>128.0</ele><time>2026-04-18T14:17:46.998Z</time></trkpt><trkpt lat="56.06432176927184" lon="22.15911340096557"><ele>128.0</ele><time>2026-04-18T14:17:47.998Z</time></trkpt><trkpt lat="56.0642625768175" lon="22.159435177922852"><ele>128.0</ele><time>2026-04-18T14:17:48.998Z</time></trkpt><trkpt lat="56.064200711791194" lon="22.15979217409577"><ele>128.0</ele><time>2026-04-18T14:17:49.998Z</time></trkpt><trkpt lat="56.06411562104716" lon="22.16013694395916"><ele>127.66666666666666</ele><time>2026-04-18T14:17:50.998Z</time></trkpt><trkpt lat="56.06404662331256" lon="22.160442806555615"><ele>127.33333333333334</ele><time>2026-04-18T14:17:51.998Z</time></trkpt><trkpt lat="56.06398017673976" lon="22.160737097444585"><ele>127.0</ele><time>2026-04-18T14:17:52.998Z</time></trkpt><trkpt lat="56.06391703053953" lon="22.161018026703168"><ele>127.66666666666667</ele><time>2026-04-18T14:17:53.998Z</time></trkpt><trkpt lat="56.06385680030605" lon="22.1612701330419"><ele>128.33333333333334</ele><time>2026-04-18T14:17:54.998Z</time></trkpt><trkpt lat="56.06378609601273" lon="22.161509400778183"><ele>129.0</ele><time>2026-04-18T14:17:55.998Z</time></trkpt><trkpt lat="56.06370779780056" lon="22.16177468939687"><ele>129.33333333333334</ele><time>2026-04-18T14:17:56.998Z</time></trkpt><trkpt lat="56.06363500809836" lon="22.162069373259694"><ele>129.66666666666669</ele><time>2026-04-18T14:17:57.998Z</time></trkpt><trkpt lat="56.06355120927103" lon="22.162340966558816"><ele>130.0</ele><time>2026-04-18T14:17:58.998Z</time></trkpt><trkpt lat="56.06346264271861" lon="22.162615071902046"><ele>130.0</ele><time>2026-04-18T14:17:59.998Z</time></trkpt><trkpt lat="56.06336831799864" lon="22.16289659927217"><ele>130.0</ele><time>2026-04-18T14:18:00.998Z</time></trkpt><trkpt lat="56.06327764004825" lon="22.163155300277584"><ele>130.0</ele><time>2026-04-18T14:18:01.998Z</time></trkpt><trkpt lat="56.06319651685753" lon="22.163388047669688"><ele>129.66666666666669</ele><time>2026-04-18T14:18:02.998Z</time></trkpt><trkpt lat="56.063108461293794" lon="22.163636722898215"><ele>129.33333333333334</ele><time>2026-04-18T14:18:03.998Z</time></trkpt><trkpt lat="56.063016083807796" lon="22.163879685910707"><ele>129.0</ele><time>2026-04-18T14:18:04.998Z</time></trkpt><trkpt lat="56.062924426598016" lon="22.164112828514313"><ele>130.0</ele><time>2026-04-18T14:18:05.998Z</time></trkpt><trkpt lat="56.06284131062928" lon="22.164341845075135"><ele>131.0</ele><time>2026-04-18T14:18:06.998Z</time></trkpt><trkpt lat="56.06277351133539" lon="22.164548402450805"><ele>132.0</ele><time>2026-04-18T14:18:07.998Z</time></trkpt><trkpt lat="56.06270856415777" lon="22.164759213355325"><ele>133.0</ele><time>2026-04-18T14:18:08.998Z</time></trkpt><trkpt lat="56.06265326107106" lon="22.16496022986934"><ele>134.0</ele><time>2026-04-18T14:18:09.998Z</time></trkpt><trkpt lat="56.06260236503281" lon="22.16516544815346"><ele>135.0</ele><time>2026-04-18T14:18:10.998Z</time></trkpt><trkpt lat="56.06255411701807" lon="22.16537554680514"><ele>136.0</ele><time>2026-04-18T14:18:11.998Z</time></trkpt><trkpt lat="56.06250478084321" lon="22.165589963176966"><ele>137.0</ele><time>2026-04-18T14:18:12.998Z</time></trkpt><trkpt lat="56.06246043647078" lon="22.16580487606665"><ele>136.33333333333331</ele><time>2026-04-18T14:18:13.998Z</time></trkpt><trkpt lat="56.06240689929234" lon="22.166062889500576"><ele>135.66666666666666</ele><time>2026-04-18T14:18:14.998Z</time></trkpt><trkpt lat="56.062355435605845" lon="22.1663896026901"><ele>135.0</ele><time>2026-04-18T14:18:15.998Z</time></trkpt><trkpt lat="56.06229944307299" lon="22.166735278024998"><ele>134.33333333333334</ele><time>2026-04-18T14:18:16.998Z</time></trkpt><trkpt lat="56.06224060154057" lon="22.16709046831797"><ele>133.66666666666669</ele><time>2026-04-18T14:18:17.998Z</time></trkpt><trkpt lat="56.06217972904781" lon="22.167438942678302"><ele>133.0</ele><time>2026-04-18T14:18:18.998Z</time></trkpt><trkpt lat="56.06212171375269" lon="22.167799440363762"><ele>132.66666666666669</ele><time>2026-04-18T14:18:19.998Z</time></trkpt><trkpt lat="56.062067676719565" lon="22.168111770348478"><ele>132.33333333333334</ele><time>2026-04-18T14:18:20.998Z</time></trkpt><trkpt lat="56.062016154983986" lon="22.168407758214585"><ele>132.0</ele><time>2026-04-18T14:18:21.998Z</time></trkpt><trkpt lat="56.06195439445432" lon="22.168732268392702"><ele>132.33333333333334</ele><time>2026-04-18T14:18:22.998Z</time></trkpt><trkpt lat="56.061895320038" lon="22.169039916317477"><ele>132.66666666666669</ele><time>2026-04-18T14:18:23.998Z</time></trkpt><trkpt lat="56.06184120651419" lon="22.16934746962854"><ele>133.0</ele><time>2026-04-18T14:18:24.998Z</time></trkpt><trkpt lat="56.061787214829174" lon="22.169663093328694"><ele>133.33333333333334</ele><time>2026-04-18T14:18:25.998Z</time></trkpt><trkpt lat="56.061734057425284" lon="22.169981548261397"><ele>133.66666666666666</ele><time>2026-04-18T14:18:26.998Z</time></trkpt><trkpt lat="56.06167785156509" lon="22.170307658976228"><ele>134.0</ele><time>2026-04-18T14:18:27.998Z</time></trkpt><trkpt lat="56.06162057599798" lon="22.170627111521156"><ele>134.0</ele><time>2026-04-18T14:18:28.998Z</time></trkpt><trkpt lat="56.0615604216945" lon="22.17094281620713"><ele>134.0</ele><time>2026-04-18T14:18:29.998Z</time></trkpt><trkpt lat="56.06150690428812" lon="22.17124756085249"><ele>134.0</ele><time>2026-04-18T14:18:30.998Z</time></trkpt><trkpt lat="56.06145357048456" lon="22.171556313277037"><ele>134.0</ele><time>2026-04-18T14:18:31.998Z</time></trkpt><trkpt lat="56.06140490474174" lon="22.17183803288226"><ele>134.0</ele><time>2026-04-18T14:18:32.998Z</time></trkpt><trkpt lat="56.06135705826594" lon="22.172096494502775"><ele>134.0</ele><time>2026-04-18T14:18:33.998Z</time></trkpt><trkpt lat="56.06131273417032" lon="22.172339386083234"><ele>134.0</ele><time>2026-04-18T14:18:34.999Z</time></trkpt><trkpt lat="56.06126631780042" lon="22.172587371779876"><ele>134.0</ele><time>2026-04-18T14:18:35.999Z</time></trkpt><trkpt lat="56.061217680009186" lon="22.172847604393652"><ele>134.0</ele><time>2026-04-18T14:18:36.999Z</time></trkpt><trkpt lat="56.06116506045974" lon="22.173111758548693"><ele>134.0</ele><time>2026-04-18T14:18:37.999Z</time></trkpt><trkpt lat="56.061112136217865" lon="22.173383076507427"><ele>134.0</ele><time>2026-04-18T14:18:38.999Z</time></trkpt><trkpt lat="56.06106195149419" lon="22.173660443889776"><ele>134.0</ele><time>2026-04-18T14:18:39.999Z</time></trkpt><trkpt lat="56.061018591418" lon="22.17392786973325"><ele>134.0</ele><time>2026-04-18T14:18:40.999Z</time></trkpt><trkpt lat="56.06097645593259" lon="22.174195893133593"><ele>134.0</ele><time>2026-04-18T14:18:41.999Z</time></trkpt><trkpt lat="56.06093237221674" lon="22.174459784444586"><ele>134.0</ele><time>2026-04-18T14:18:42.999Z</time></trkpt><trkpt lat="56.060894443280915" lon="22.174696598948074"><ele>134.0</ele><time>2026-04-18T14:18:43.999Z</time></trkpt><trkpt lat="56.06085947187374" lon="22.174934276677863"><ele>133.75</ele><time>2026-04-18T14:18:44.999Z</time></trkpt><trkpt lat="56.06083060144711" lon="22.175171342877142"><ele>133.5</ele><time>2026-04-18T14:18:45.999Z</time></trkpt><trkpt lat="56.060804126813174" lon="22.175407598944123"><ele>133.25</ele><time>2026-04-18T14:18:46.999Z</time></trkpt><trkpt lat="56.06078167942074" lon="22.17564771186076"><ele>133.0</ele><time>2026-04-18T14:18:47.999Z</time></trkpt><trkpt lat="56.060767544498454" lon="22.1758757522645"><ele>132.75</ele><time>2026-04-18T14:18:48.999Z</time></trkpt><trkpt lat="56.060762820218386" lon="22.17610287647609"><ele>132.5</ele><time>2026-04-18T14:18:49.999Z</time></trkpt><trkpt lat="56.06076871381233" lon="22.176337441330165"><ele>132.25</ele><time>2026-04-18T14:18:50.999Z</time></trkpt><trkpt lat="56.06079035938839" lon="22.176570429226306"><ele>132.0</ele><time>2026-04-18T14:18:51.999Z</time></trkpt><trkpt lat="56.06081545098875" lon="22.176799459174564"><ele>131.75</ele><time>2026-04-18T14:18:52.999Z</time></trkpt><trkpt lat="56.06083828226541" lon="22.1770049179265"><ele>131.5</ele><time>2026-04-18T14:18:53.999Z</time></trkpt><trkpt lat="56.06086627097259" lon="22.17723971713471"><ele>131.25</ele><time>2026-04-18T14:18:54.999Z</time></trkpt><trkpt lat="56.06087778903742" lon="22.177450152976064"><ele>131.0</ele><time>2026-04-18T14:18:55.999Z</time></trkpt><trkpt lat="56.060888594906984" lon="22.17766814773095"><ele>131.0</ele><time>2026-04-18T14:18:56.999Z</time></trkpt><trkpt lat="56.06090012750351" lon="22.177880439301703"><ele>131.0</ele><time>2026-04-18T14:18:57.999Z</time></trkpt><trkpt lat="56.060912367500606" lon="22.17810101366038"><ele>131.0</ele><time>2026-04-18T14:18:58.999Z</time></trkpt><trkpt lat="56.06091950778776" lon="22.178313887796048"><ele>131.0</ele><time>2026-04-18T14:18:59.999Z</time></trkpt><trkpt lat="56.060931071457574" lon="22.178548322378404"><ele>131.25</ele><time>2026-04-18T14:19:00.999Z</time></trkpt><trkpt lat="56.06094333699743" lon="22.178793300099986"><ele>131.5</ele><time>2026-04-18T14:19:01.999Z</time></trkpt><trkpt lat="56.0609523226054" lon="22.179031302224242"><ele>131.75</ele><time>2026-04-18T14:19:02.999Z</time></trkpt><trkpt lat="56.06095963720178" lon="22.179250758930596"><ele>132.0</ele><time>2026-04-18T14:19:03.999Z</time></trkpt><trkpt lat="56.060964033433116" lon="22.179439774339624"><ele>132.0</ele><time>2026-04-18T14:19:04.999Z</time></trkpt><trkpt lat="56.06096925007211" lon="22.179607926913345"><ele>132.0</ele><time>2026-04-18T14:19:05.999Z</time></trkpt><trkpt lat="56.060974354905454" lon="22.179769187941538"><ele>132.0</ele><time>2026-04-18T14:19:06.999Z</time></trkpt><trkpt lat="56.06098120116403" lon="22.179938372326575"><ele>132.0</ele><time>2026-04-18T14:19:07.999Z</time></trkpt><trkpt lat="56.06098863232691" lon="22.180091993051654"><ele>132.0</ele><time>2026-04-18T14:19:08.999Z</time></trkpt><trkpt lat="56.06099315256823" lon="22.180221700914288"><ele>132.0</ele><time>2026-04-18T14:19:09.999Z</time></trkpt><trkpt lat="56.06099107427002" lon="22.180361238946446"><ele>131.6</ele><time>2026-04-18T14:19:11.999Z</time></trkpt><trkpt lat="56.06099960492135" lon="22.18047547775795"><ele>131.2</ele><time>2026-04-18T14:19:13.999Z</time></trkpt><trkpt lat="56.061018249282235" lon="22.180633285016462"><ele>130.8</ele><time>2026-04-18T14:19:24.999Z</time></trkpt><trkpt lat="56.06090439775786" lon="22.180701836953432"><ele>130.4</ele><time>2026-04-18T14:19:25.999Z</time></trkpt><trkpt lat="56.06083189499023" lon="22.180792524429894"><ele>130.0</ele><time>2026-04-18T14:19:26.999Z</time></trkpt><trkpt lat="56.06075606887125" lon="22.18090960728533"><ele>129.75</ele><time>2026-04-18T14:19:27.999Z</time></trkpt><trkpt lat="56.060654729438646" lon="22.181035076482257"><ele>129.5</ele><time>2026-04-18T14:19:28.999Z</time></trkpt><trkpt lat="56.06055273128359" lon="22.18115057913207"><ele>129.25</ele><time>2026-04-18T14:19:29.999Z</time></trkpt><trkpt lat="56.06044890545488" lon="22.18127676401025"><ele>129.0</ele><time>2026-04-18T14:19:30.999Z</time></trkpt><trkpt lat="56.06034067799998" lon="22.181411670572167"><ele>129.2</ele><time>2026-04-18T14:19:31.999Z</time></trkpt><trkpt lat="56.06023783495256" lon="22.181538132098275"><ele>129.4</ele><time>2026-04-18T14:19:32.999Z</time></trkpt><trkpt lat="56.06015028297033" lon="22.18165022447028"><ele>129.6</ele><time>2026-04-18T14:19:33.999Z</time></trkpt><trkpt lat="56.06007040107284" lon="22.181750662129993"><ele>129.8</ele><time>2026-04-18T14:19:34.999Z</time></trkpt><trkpt lat="56.05999856910073" lon="22.181843687915784"><ele>130.0</ele><time>2026-04-18T14:19:35.999Z</time></trkpt><trkpt lat="56.0599270853819" lon="22.18193229489067"><ele>130.0</ele><time>2026-04-18T14:19:36.999Z</time></trkpt><trkpt lat="56.059853980819796" lon="22.182019985450065"><ele>130.0</ele><time>2026-04-18T14:19:37.999Z</time></trkpt><trkpt lat="56.05978196052192" lon="22.182108938428293"><ele>130.0</ele><time>2026-04-18T14:19:38.999Z</time></trkpt><trkpt lat="56.05971912816933" lon="22.182189870302988"><ele>130.0</ele><time>2026-04-18T14:19:39.999Z</time></trkpt><trkpt lat="56.059628035474525" lon="22.182298549665585"><ele>130.0</ele><time>2026-04-18T14:19:41.999Z</time></trkpt><trkpt lat="56.059558199155155" lon="22.182370059241638"><ele>130.0</ele><time>2026-04-18T14:19:43.999Z</time></trkpt><trkpt lat="56.059618763969276" lon="22.182647462326994"><ele>129.75</ele><time>2026-04-18T14:19:46.999Z</time></trkpt><trkpt lat="56.059653803679396" lon="22.182743712309613"><ele>129.5</ele><time>2026-04-18T14:19:47.999Z</time></trkpt><trkpt lat="56.05973837733909" lon="22.182922351838588"><ele>129.25</ele><time>2026-04-18T14:19:49.999Z</time></trkpt><trkpt lat="56.0598322397632" lon="22.183124076459563"><ele>129.0</ele><time>2026-04-18T14:19:51.999Z</time></trkpt><trkpt lat="56.05990217479823" lon="22.183289033254113"><ele>129.2</ele><time>2026-04-18T14:19:52.999Z</time></trkpt><trkpt lat="56.05996450992936" lon="22.183433531406315"><ele>129.4</ele><time>2026-04-18T14:19:53.999Z</time></trkpt><trkpt lat="56.06003229179932" lon="22.183580817809414"><ele>129.6</ele><time>2026-04-18T14:19:54.999Z</time></trkpt><trkpt lat="56.06011572740662" lon="22.18374577853797"><ele>129.8</ele><time>2026-04-18T14:19:55.999Z</time></trkpt><trkpt lat="56.06019437273313" lon="22.183900230086124"><ele>130.0</ele><time>2026-04-18T14:19:56.999Z</time></trkpt><trkpt lat="56.060262017949434" lon="22.18402472502709"><ele>130.0</ele><time>2026-04-18T14:19:57.999Z</time></trkpt><trkpt lat="56.06032845806786" lon="22.184150156461556"><ele>130.0</ele><time>2026-04-18T14:19:58.999Z</time></trkpt><trkpt lat="56.060397712404914" lon="22.184276721241236"><ele>130.0</ele><time>2026-04-18T14:19:59.999Z</time></trkpt><trkpt lat="56.060472953469485" lon="22.184409891459197"><ele>130.0</ele><time>2026-04-18T14:20:00.999Z</time></trkpt><trkpt lat="56.060553219463294" lon="22.184550330551154"><ele>130.0</ele><time>2026-04-18T14:20:01.999Z</time></trkpt><trkpt lat="56.06062524480646" lon="22.184679650734964"><ele>130.0</ele><time>2026-04-18T14:20:02.999Z</time></trkpt><trkpt lat="56.060694028139515" lon="22.18480869950583"><ele>130.0</ele><time>2026-04-18T14:20:03.999Z</time></trkpt><trkpt lat="56.060773757186915" lon="22.184945171201846"><ele>130.0</ele><time>2026-04-18T14:20:04.999Z</time></trkpt><trkpt lat="56.06084771174788" lon="22.18507304558308"><ele>130.0</ele><time>2026-04-18T14:20:05.999Z</time></trkpt><trkpt lat="56.060919008931975" lon="22.18520700179142"><ele>130.0</ele><time>2026-04-18T14:20:06.999Z</time></trkpt><trkpt lat="56.06099189808575" lon="22.185345307530703"><ele>130.5</ele><time>2026-04-18T14:20:07.999Z</time></trkpt><trkpt lat="56.06105945248688" lon="22.185464980623834"><ele>131.0</ele><time>2026-04-18T14:20:08.999Z</time></trkpt><trkpt lat="56.06113379347591" lon="22.185583261015598"><ele>131.5</ele><time>2026-04-18T14:20:09.999Z</time></trkpt><trkpt lat="56.06119847765617" lon="22.185688629620458"><ele>132.0</ele><time>2026-04-18T14:20:10.999Z</time></trkpt><trkpt lat="56.06125457406766" lon="22.185793994853167"><ele>132.5</ele><time>2026-04-18T14:20:11.999Z</time></trkpt><trkpt lat="56.06131857746842" lon="22.18589554029257"><ele>133.0</ele><time>2026-04-18T14:20:12.999Z</time></trkpt><trkpt lat="56.06138230318876" lon="22.18599185497614"><ele>133.0</ele><time>2026-04-18T14:20:13.999Z</time></trkpt><trkpt lat="56.06145604760769" lon="22.18609189819806"><ele>133.0</ele><time>2026-04-18T14:20:14.999Z</time></trkpt><trkpt lat="56.06152808861477" lon="22.186184311717376"><ele>133.0</ele><time>2026-04-18T14:20:15.999Z</time></trkpt><trkpt lat="56.06160560719052" lon="22.186271703229462"><ele>133.0</ele><time>2026-04-18T14:20:16.999Z</time></trkpt><trkpt lat="56.06168510565455" lon="22.186350807237186"><ele>133.0</ele><time>2026-04-18T14:20:17.999Z</time></trkpt><trkpt lat="56.06176643587207" lon="22.18642955167641"><ele>132.6</ele><time>2026-04-18T14:20:18.999Z</time></trkpt><trkpt lat="56.06185408249398" lon="22.1865171962532"><ele>132.20000000000002</ele><time>2026-04-18T14:20:19.999Z</time></trkpt><trkpt lat="56.06194666607302" lon="22.186608330623613"><ele>131.8</ele><time>2026-04-18T14:20:20.999Z</time></trkpt><trkpt lat="56.06204314851075" lon="22.18669514846686"><ele>131.4</ele><time>2026-04-18T14:20:21.999Z</time></trkpt><trkpt lat="56.06213789469599" lon="22.18678220027919"><ele>131.0</ele><time>2026-04-18T14:20:22.999Z</time></trkpt><trkpt lat="56.062235970845094" lon="22.18686928493735"><ele>131.0</ele><time>2026-04-18T14:20:23.999Z</time></trkpt><trkpt lat="56.062335577776146" lon="22.186954936833544"><ele>131.0</ele><time>2026-04-18T14:20:24.999Z</time></trkpt><trkpt lat="56.06243456779443" lon="22.187043636528873"><ele>131.0</ele><time>2026-04-18T14:20:25.999Z</time></trkpt><trkpt lat="56.062528149430584" lon="22.187133720301073"><ele>131.0</ele><time>2026-04-18T14:20:26.999Z</time></trkpt><trkpt lat="56.06262754250173" lon="22.187223316169625"><ele>131.0</ele><time>2026-04-18T14:20:27.999Z</time></trkpt><trkpt lat="56.06272645734219" lon="22.187313987154692"><ele>130.4</ele><time>2026-04-18T14:20:28.999Z</time></trkpt><trkpt lat="56.06282745765736" lon="22.187410642444057"><ele>129.8</ele><time>2026-04-18T14:20:29.999Z</time></trkpt><trkpt lat="56.06292703566303" lon="22.187502715257946"><ele>129.20000000000002</ele><time>2026-04-18T14:20:30.999Z</time></trkpt><trkpt lat="56.06302995530289" lon="22.187598135839288"><ele>128.6</ele><time>2026-04-18T14:20:31.999Z</time></trkpt><trkpt lat="56.063121854464455" lon="22.18768615256159"><ele>128.0</ele><time>2026-04-18T14:20:32.999Z</time></trkpt><trkpt lat="56.063216172598906" lon="22.18776916006349"><ele>128.0</ele><time>2026-04-18T14:20:33.999Z</time></trkpt><trkpt lat="56.063302633213326" lon="22.187855006157573"><ele>128.0</ele><time>2026-04-18T14:20:34.999Z</time></trkpt><trkpt lat="56.06338799968944" lon="22.187940702766767"><ele>128.0</ele><time>2026-04-18T14:20:35.999Z</time></trkpt><trkpt lat="56.06348342825149" lon="22.188029602285038"><ele>128.0</ele><time>2026-04-18T14:20:36.999Z</time></trkpt><trkpt lat="56.06357734594712" lon="22.188113340717457"><ele>128.0</ele><time>2026-04-18T14:20:37.999Z</time></trkpt><trkpt lat="56.06367313638714" lon="22.188211104202292"><ele>127.80000000000001</ele><time>2026-04-18T14:20:38.999Z</time></trkpt><trkpt lat="56.0637725339871" lon="22.18830860188454"><ele>127.60000000000001</ele><time>2026-04-18T14:20:39.999Z</time></trkpt><trkpt lat="56.063869065414295" lon="22.18840182140017"><ele>127.39999999999999</ele><time>2026-04-18T14:20:40.999Z</time></trkpt><trkpt lat="56.06397171558658" lon="22.18848729811526"><ele>127.19999999999999</ele><time>2026-04-18T14:20:41.999Z</time></trkpt><trkpt lat="56.06407060403926" lon="22.1885750228061"><ele>127.0</ele><time>2026-04-18T14:20:42.999Z</time></trkpt><trkpt lat="56.06416760512988" lon="22.188674447228156"><ele>127.0</ele><time>2026-04-18T14:20:43.999Z</time></trkpt><trkpt lat="56.064260039230184" lon="22.18876966202939"><ele>126.99999999999999</ele><time>2026-04-18T14:20:44.999Z</time></trkpt><trkpt lat="56.06435705591182" lon="22.18886658142227"><ele>126.99999999999999</ele><time>2026-04-18T14:20:45.999Z</time></trkpt><trkpt lat="56.064452288393106" lon="22.188961559760287"><ele>127.0</ele><time>2026-04-18T14:20:46.999Z</time></trkpt><trkpt lat="56.0645514647243" lon="22.18905364990863"><ele>127.0</ele><time>2026-04-18T14:20:47.999Z</time></trkpt><trkpt lat="56.0646569302751" lon="22.189143277847077"><ele>126.6</ele><time>2026-04-18T14:20:48.999Z</time></trkpt><trkpt lat="56.064745463273766" lon="22.189222909763483"><ele>126.19999999999999</ele><time>2026-04-18T14:20:49.999Z</time></trkpt><trkpt lat="56.064824591821505" lon="22.189289215586424"><ele>125.8</ele><time>2026-04-18T14:20:50.999Z</time></trkpt><trkpt lat="56.06492022782731" lon="22.189348066935086"><ele>125.4</ele><time>2026-04-18T14:20:51.999Z</time></trkpt><trkpt lat="56.06501300389801" lon="22.189399406518884"><ele>125.0</ele><time>2026-04-18T14:20:52.999Z</time></trkpt><trkpt lat="56.06509566982393" lon="22.189439590040475"><ele>124.99999999999999</ele><time>2026-04-18T14:20:53.999Z</time></trkpt><trkpt lat="56.06517967829731" lon="22.189463029119402"><ele>125.0</ele><time>2026-04-18T14:20:54.999Z</time></trkpt><trkpt lat="56.0652488642871" lon="22.189471644884954"><ele>125.0</ele><time>2026-04-18T14:20:55.999Z</time></trkpt><trkpt lat="56.06531583486218" lon="22.1894767257061"><ele>125.0</ele><time>2026-04-18T14:20:56.999Z</time></trkpt><trkpt lat="56.065391017405204" lon="22.189490699725642"><ele>124.99999999999999</ele><time>2026-04-18T14:20:57.999Z</time></trkpt><trkpt lat="56.065480679888914" lon="22.189509608306857"><ele>125.0</ele><time>2026-04-18T14:20:58.999Z</time></trkpt><trkpt lat="56.065572073309006" lon="22.1895305129651"><ele>125.0</ele><time>2026-04-18T14:20:59.999Z</time></trkpt><trkpt lat="56.06568657185248" lon="22.189551675852986"><ele>125.0</ele><time>2026-04-18T14:21:00.999Z</time></trkpt><trkpt lat="56.06579084145313" lon="22.18957412609209"><ele>125.0</ele><time>2026-04-18T14:21:01.999Z</time></trkpt><trkpt lat="56.06589765066315" lon="22.18959911948936"><ele>125.0</ele><time>2026-04-18T14:21:02.999Z</time></trkpt><trkpt lat="56.06599626765803" lon="22.189619475195364"><ele>125.0</ele><time>2026-04-18T14:21:03.999Z</time></trkpt><trkpt lat="56.06609885377151" lon="22.189654988520488"><ele>124.83333333333333</ele><time>2026-04-18T14:21:04.999Z</time></trkpt><trkpt lat="56.06619131294968" lon="22.189688261665925"><ele>124.66666666666666</ele><time>2026-04-18T14:21:05.999Z</time></trkpt><trkpt lat="56.06627476007499" lon="22.18971767887591"><ele>124.5</ele><time>2026-04-18T14:21:06.999Z</time></trkpt><trkpt lat="56.06635270022287" lon="22.18975248932631"><ele>124.33333333333334</ele><time>2026-04-18T14:21:07.999Z</time></trkpt><trkpt lat="56.06643282072743" lon="22.189788401602375"><ele>124.16666666666667</ele><time>2026-04-18T14:21:08.999Z</time></trkpt><trkpt lat="56.066519959120996" lon="22.189823467651895"><ele>124.0</ele><time>2026-04-18T14:21:09.999Z</time></trkpt><trkpt lat="56.06660918753703" lon="22.1898651155139"><ele>124.16666666666667</ele><time>2026-04-18T14:21:10.999Z</time></trkpt><trkpt lat="56.06668536492646" lon="22.189902416429693"><ele>124.33333333333334</ele><time>2026-04-18T14:21:11.999Z</time></trkpt><trkpt lat="56.06675643989087" lon="22.189939797463815"><ele>124.5</ele><time>2026-04-18T14:21:12.999Z</time></trkpt><trkpt lat="56.06683302367134" lon="22.18997852094439"><ele>124.66666666666666</ele><time>2026-04-18T14:21:13.999Z</time></trkpt><trkpt lat="56.066906457749624" lon="22.1900152143874"><ele>124.83333333333333</ele><time>2026-04-18T14:21:14.999Z</time></trkpt><trkpt lat="56.06698352637001" lon="22.19005798778229"><ele>125.0</ele><time>2026-04-18T14:21:15.999Z</time></trkpt><trkpt lat="56.067057438028094" lon="22.190102350305686"><ele>125.0</ele><time>2026-04-18T14:21:16.999Z</time></trkpt><trkpt lat="56.067132322499745" lon="22.190141103022828"><ele>125.0</ele><time>2026-04-18T14:21:17.999Z</time></trkpt><trkpt lat="56.067205543047244" lon="22.190173035445046"><ele>125.0</ele><time>2026-04-18T14:21:18.999Z</time></trkpt><trkpt lat="56.067282689292036" lon="22.1902058090723"><ele>125.0</ele><time>2026-04-18T14:21:19.999Z</time></trkpt><trkpt lat="56.067349793531776" lon="22.190244532972578"><ele>125.0</ele><time>2026-04-18T14:21:20.999Z</time></trkpt><trkpt lat="56.06741725470551" lon="22.190286175951535"><ele>125.0</ele><time>2026-04-18T14:21:21.999Z</time></trkpt><trkpt lat="56.06748232721287" lon="22.190320049764207"><ele>125.0</ele><time>2026-04-18T14:21:22.999Z</time></trkpt><trkpt lat="56.06755372252698" lon="22.190354016265257"><ele>124.83333333333333</ele><time>2026-04-18T14:21:23.999Z</time></trkpt><trkpt lat="56.067619707081576" lon="22.190389571693572"><ele>124.66666666666666</ele><time>2026-04-18T14:21:24.999Z</time></trkpt><trkpt lat="56.06768710144232" lon="22.190424832256557"><ele>124.5</ele><time>2026-04-18T14:21:25.999Z</time></trkpt><trkpt lat="56.06774800310108" lon="22.19045708842079"><ele>124.33333333333334</ele><time>2026-04-18T14:21:26.999Z</time></trkpt><trkpt lat="56.06785104448277" lon="22.19050204447628"><ele>124.16666666666667</ele><time>2026-04-18T14:21:28.999Z</time></trkpt><trkpt lat="56.06792466859657" lon="22.190543310067493"><ele>124.0</ele><time>2026-04-18T14:21:30.999Z</time></trkpt><trkpt lat="56.067999185589194" lon="22.190591666773024"><ele>123.80000000000001</ele><time>2026-04-18T14:21:33.999Z</time></trkpt><trkpt lat="56.067996633878195" lon="22.190771635298262"><ele>123.60000000000001</ele><time>2026-04-18T14:21:35.999Z</time></trkpt><trkpt lat="56.0679296097757" lon="22.190887912755116"><ele>123.4</ele><time>2026-04-18T14:21:37.999Z</time></trkpt><trkpt lat="56.06784423911964" lon="22.19097171671301"><ele>123.2</ele><time>2026-04-18T14:21:39.999Z</time></trkpt><trkpt lat="56.067784656232256" lon="22.191021826090733"><ele>123.0</ele><time>2026-04-18T14:21:40.999Z</time></trkpt><trkpt lat="56.0676913083651" lon="22.191097854533822"><ele>123.0</ele><time>2026-04-18T14:21:41.999Z</time></trkpt><trkpt lat="56.06758739226363" lon="22.191193910477633"><ele>123.00000000000001</ele><time>2026-04-18T14:21:42.999Z</time></trkpt><trkpt lat="56.06747661201281" lon="22.19132613525755"><ele>123.00000000000001</ele><time>2026-04-18T14:21:43.999Z</time></trkpt><trkpt lat="56.06738316974179" lon="22.19143931533219"><ele>123.0</ele><time>2026-04-18T14:21:44.999Z</time></trkpt><trkpt lat="56.067313364477464" lon="22.191519390248025"><ele>123.0</ele><time>2026-04-18T14:21:45.999Z</time></trkpt><trkpt lat="56.067256982105526" lon="22.19158007946422"><ele>122.83333333333333</ele><time>2026-04-18T14:21:46.999Z</time></trkpt><trkpt lat="56.06716256490815" lon="22.191691954736438"><ele>122.66666666666666</ele><time>2026-04-18T14:21:48.999Z</time></trkpt><trkpt lat="56.06711277444881" lon="22.1917787014915"><ele>122.5</ele><time>2026-04-18T14:21:49.999Z</time></trkpt><trkpt lat="56.06707407176684" lon="22.19187087941876"><ele>122.33333333333333</ele><time>2026-04-18T14:21:50.999Z</time></trkpt><trkpt lat="56.06704991051858" lon="22.191983775056194"><ele>122.16666666666666</ele><time>2026-04-18T14:21:51.999Z</time></trkpt><trkpt lat="56.0670465584415" lon="22.1921158165105"><ele>122.0</ele><time>2026-04-18T14:21:52.999Z</time></trkpt><trkpt lat="56.06705827689255" lon="22.19235163505226"><ele>121.66666666666666</ele><time>2026-04-18T14:21:54.999Z</time></trkpt><trkpt lat="56.06705892303386" lon="22.19247040391816"><ele>121.33333333333333</ele><time>2026-04-18T14:21:55.999Z</time></trkpt><trkpt lat="56.06705816034087" lon="22.19259296031769"><ele>121.0</ele><time>2026-04-18T14:21:56.999Z</time></trkpt><trkpt lat="56.06705905269371" lon="22.192719440803863"><ele>120.66666666666666</ele><time>2026-04-18T14:21:57.999Z</time></trkpt><trkpt lat="56.06706513924444" lon="22.19286539111503"><ele>120.33333333333333</ele><time>2026-04-18T14:21:58.999Z</time></trkpt><trkpt lat="56.067073916045814" lon="22.193029828999354"><ele>120.0</ele><time>2026-04-18T14:21:59.999Z</time></trkpt><trkpt lat="56.06708144776849" lon="22.1931716794715"><ele>120.0</ele><time>2026-04-18T14:22:00.999Z</time></trkpt><trkpt lat="56.06708802720414" lon="22.193312724093836"><ele>120.0</ele><time>2026-04-18T14:22:01.999Z</time></trkpt><trkpt lat="56.067090339277065" lon="22.193468289486745"><ele>120.0</ele><time>2026-04-18T14:22:02.999Z</time></trkpt><trkpt lat="56.067090635913914" lon="22.193628197267444"><ele>120.0</ele><time>2026-04-18T14:22:03.999Z</time></trkpt><trkpt lat="56.067095046727125" lon="22.193781726192334"><ele>120.0</ele><time>2026-04-18T14:22:04.999Z</time></trkpt><trkpt lat="56.06709785764135" lon="22.19394021316573"><ele>120.0</ele><time>2026-04-18T14:22:05.999Z</time></trkpt><trkpt lat="56.067099861975166" lon="22.194101495987063"><ele>120.0</ele><time>2026-04-18T14:22:06.999Z</time></trkpt><trkpt lat="56.06710082375341" lon="22.194253169991978"><ele>120.0</ele><time>2026-04-18T14:22:07.999Z</time></trkpt><trkpt lat="56.06710268308962" lon="22.194380976356882"><ele>120.0</ele><time>2026-04-18T14:22:08.999Z</time></trkpt><trkpt lat="56.06710628894738" lon="22.19449806154148"><ele>120.0</ele><time>2026-04-18T14:22:09.999Z</time></trkpt><trkpt lat="56.06710801523019" lon="22.194627096939225"><ele>120.0</ele><time>2026-04-18T14:22:10.999Z</time></trkpt><trkpt lat="56.06711293521587" lon="22.194758528002094"><ele>120.0</ele><time>2026-04-18T14:22:11.999Z</time></trkpt><trkpt lat="56.067115117837645" lon="22.194907322307397"><ele>119.83333333333333</ele><time>2026-04-18T14:22:12.999Z</time></trkpt><trkpt lat="56.067123012778765" lon="22.195049817459918"><ele>119.66666666666666</ele><time>2026-04-18T14:22:13.999Z</time></trkpt><trkpt lat="56.06713106003127" lon="22.19520188807544"><ele>119.5</ele><time>2026-04-18T14:22:14.999Z</time></trkpt><trkpt lat="56.06713747216132" lon="22.195325227355713"><ele>119.33333333333333</ele><time>2026-04-18T14:22:15.999Z</time></trkpt><trkpt lat="56.06714356804815" lon="22.19547818106369"><ele>119.16666666666666</ele><time>2026-04-18T14:22:16.999Z</time></trkpt><trkpt lat="56.06714862227448" lon="22.195633274440205"><ele>119.0</ele><time>2026-04-18T14:22:17.999Z</time></trkpt><trkpt lat="56.067152879401014" lon="22.195770297209577"><ele>118.99999999999999</ele><time>2026-04-18T14:22:18.999Z</time></trkpt><trkpt lat="56.0671603693434" lon="22.195912445345325"><ele>119.0</ele><time>2026-04-18T14:22:19.999Z</time></trkpt><trkpt lat="56.06716617350908" lon="22.196041254578507"><ele>119.0</ele><time>2026-04-18T14:22:20.999Z</time></trkpt><trkpt lat="56.067169578705034" lon="22.196160714808073"><ele>119.0</ele><time>2026-04-18T14:22:21.999Z</time></trkpt><trkpt lat="56.067180919801224" lon="22.196347207558794"><ele>118.99999999999999</ele><time>2026-04-18T14:22:23.999Z</time></trkpt><trkpt lat="56.067186668611754" lon="22.196522299674136"><ele>119.0</ele><time>2026-04-18T14:22:25.999Z</time></trkpt><trkpt lat="56.06719146712498" lon="22.196635495941386"><ele>118.71428571428572</ele><time>2026-04-18T14:22:26.999Z</time></trkpt><trkpt lat="56.067197484658635" lon="22.196753138669287"><ele>118.42857142857143</ele><time>2026-04-18T14:22:27.999Z</time></trkpt><trkpt lat="56.06720083308547" lon="22.1968770501651"><ele>118.14285714285714</ele><time>2026-04-18T14:22:28.999Z</time></trkpt><trkpt lat="56.067199907890554" lon="22.196998414473857"><ele>117.85714285714286</ele><time>2026-04-18T14:22:29.999Z</time></trkpt><trkpt lat="56.067199449313165" lon="22.197125259434582"><ele>117.57142857142858</ele><time>2026-04-18T14:22:30.999Z</time></trkpt><trkpt lat="56.06720368252739" lon="22.19727915928994"><ele>117.28571428571429</ele><time>2026-04-18T14:22:31.999Z</time></trkpt><trkpt lat="56.06720546735053" lon="22.197414062006608"><ele>117.0</ele><time>2026-04-18T14:22:32.999Z</time></trkpt><trkpt lat="56.06721249292206" lon="22.19757640602238"><ele>117.0</ele><time>2026-04-18T14:22:33.999Z</time></trkpt><trkpt lat="56.067215986306955" lon="22.197726948008523"><ele>117.0</ele><time>2026-04-18T14:22:34.999Z</time></trkpt><trkpt lat="56.06721898641892" lon="22.19787976697088"><ele>117.0</ele><time>2026-04-18T14:22:35.999Z</time></trkpt><trkpt lat="56.06722010906755" lon="22.198029011103532"><ele>117.0</ele><time>2026-04-18T14:22:36.999Z</time></trkpt><trkpt lat="56.06722542024203" lon="22.198204092020404"><ele>117.0</ele><time>2026-04-18T14:22:37.999Z</time></trkpt><trkpt lat="56.06722644001669" lon="22.19834001338896"><ele>117.0</ele><time>2026-04-18T14:22:38.999Z</time></trkpt><trkpt lat="56.06722742572829" lon="22.19847175171068"><ele>117.0</ele><time>2026-04-18T14:22:39.999Z</time></trkpt><trkpt lat="56.06723201878675" lon="22.198605831940785"><ele>116.99999999999999</ele><time>2026-04-18T14:22:40.999Z</time></trkpt><trkpt lat="56.067231971164816" lon="22.198831190382272"><ele>116.99999999999999</ele><time>2026-04-18T14:22:42.999Z</time></trkpt><trkpt lat="56.06723609140613" lon="22.19903452602366"><ele>117.0</ele><time>2026-04-18T14:22:44.999Z</time></trkpt><trkpt lat="56.06724554712241" lon="22.199246905689904"><ele>117.0</ele><time>2026-04-18T14:22:46.999Z</time></trkpt><trkpt lat="56.067244328546714" lon="22.199362751641782"><ele>117.0</ele><time>2026-04-18T14:22:47.999Z</time></trkpt><trkpt lat="56.0672456833127" lon="22.199483503996692"><ele>117.00000000000001</ele><time>2026-04-18T14:22:48.999Z</time></trkpt><trkpt lat="56.06724748101484" lon="22.19961313343106"><ele>117.0</ele><time>2026-04-18T14:22:49.999Z</time></trkpt><trkpt lat="56.06725319346767" lon="22.199743976452382"><ele>117.0</ele><time>2026-04-18T14:22:50.999Z</time></trkpt><trkpt lat="56.06725640682456" lon="22.199864342654763"><ele>117.00000000000001</ele><time>2026-04-18T14:22:51.999Z</time></trkpt><trkpt lat="56.06725361725341" lon="22.200044638337253"><ele>117.0</ele><time>2026-04-18T14:22:53.999Z</time></trkpt><trkpt lat="56.06725668366263" lon="22.200159184945864"><ele>117.0</ele><time>2026-04-18T14:22:54.999Z</time></trkpt><trkpt lat="56.067265415999536" lon="22.200271106144832"><ele>116.75</ele><time>2026-04-18T14:22:55.999Z</time></trkpt><trkpt lat="56.06730149724364" lon="22.200464822094915"><ele>116.5</ele><time>2026-04-18T14:22:57.999Z</time></trkpt><trkpt lat="56.06736118440229" lon="22.200626876454674"><ele>116.25</ele><time>2026-04-18T14:22:59.999Z</time></trkpt><trkpt lat="56.067430244787474" lon="22.200814913278425"><ele>116.0</ele><time>2026-04-18T14:23:01.999Z</time></trkpt><trkpt lat="56.06749741296077" lon="22.201001779738228"><ele>116.0</ele><time>2026-04-18T14:23:03.999Z</time></trkpt><trkpt lat="56.0675321113402" lon="22.201105342359828"><ele>116.0</ele><time>2026-04-18T14:23:04.999Z</time></trkpt><trkpt lat="56.06757004099411" lon="22.201210308832703"><ele>116.0</ele><time>2026-04-18T14:23:05.999Z</time></trkpt><trkpt lat="56.06763259065343" lon="22.201389709320566"><ele>116.0</ele><time>2026-04-18T14:23:07.999Z</time></trkpt><trkpt lat="56.067687068293786" lon="22.201542908071097"><ele>116.0</ele><time>2026-04-18T14:23:09.999Z</time></trkpt><trkpt lat="56.067753404515614" lon="22.201709185843946"><ele>116.33333333333333</ele><time>2026-04-18T14:23:11.999Z</time></trkpt><trkpt lat="56.067810855186394" lon="22.20188157990603"><ele>116.66666666666666</ele><time>2026-04-18T14:23:13.999Z</time></trkpt><trkpt lat="56.06785765397556" lon="22.202032936452063"><ele>117.0</ele><time>2026-04-18T14:23:15.999Z</time></trkpt><trkpt lat="56.067914074371686" lon="22.20219785211805"><ele>117.33333333333334</ele><time>2026-04-18T14:23:17.999Z</time></trkpt><trkpt lat="56.06794822606713" lon="22.202295886739435"><ele>117.66666666666667</ele><time>2026-04-18T14:23:18.999Z</time></trkpt><trkpt lat="56.06798286863224" lon="22.202390252278946"><ele>118.0</ele><time>2026-04-18T14:23:19.999Z</time></trkpt><trkpt lat="56.06801821078702" lon="22.202485015293377"><ele>118.2</ele><time>2026-04-18T14:23:20.999Z</time></trkpt><trkpt lat="56.068052005260704" lon="22.202581087660654"><ele>118.4</ele><time>2026-04-18T14:23:21.999Z</time></trkpt><trkpt lat="56.068111903798126" lon="22.202746675639315"><ele>118.60000000000001</ele><time>2026-04-18T14:23:23.999Z</time></trkpt><trkpt lat="56.06817208845811" lon="22.202916273004277"><ele>118.80000000000001</ele><time>2026-04-18T14:23:25.999Z</time></trkpt><trkpt lat="56.06821827411343" lon="22.203110667799095"><ele>119.0</ele><time>2026-04-18T14:23:27.999Z</time></trkpt><trkpt lat="56.06823497288843" lon="22.203321885990924"><ele>118.99999999999999</ele><time>2026-04-18T14:23:29.999Z</time></trkpt><trkpt lat="56.0682327654198" lon="22.203437886086004"><ele>119.0</ele><time>2026-04-18T14:23:30.999Z</time></trkpt><trkpt lat="56.068228702890714" lon="22.20355371232186"><ele>119.0</ele><time>2026-04-18T14:23:31.999Z</time></trkpt><trkpt lat="56.06822852237344" lon="22.203670204660177"><ele>119.0</ele><time>2026-04-18T14:23:32.999Z</time></trkpt><trkpt lat="56.068251750961544" lon="22.20388827187139"><ele>118.99999999999999</ele><time>2026-04-18T14:23:34.999Z</time></trkpt><trkpt lat="56.06827095523088" lon="22.204106987300076"><ele>119.0</ele><time>2026-04-18T14:23:36.999Z</time></trkpt><trkpt lat="56.06829439166036" lon="22.2043029493418"><ele>118.2</ele><time>2026-04-18T14:23:38.999Z</time></trkpt><trkpt lat="56.06834444828903" lon="22.20444747604624"><ele>117.4</ele><time>2026-04-18T14:23:40.999Z</time></trkpt><trkpt lat="56.06841392802656" lon="22.204582694180054"><ele>116.6</ele><time>2026-04-18T14:23:42.999Z</time></trkpt><trkpt lat="56.068489762885925" lon="22.20470347559838"><ele>115.8</ele><time>2026-04-18T14:23:44.999Z</time></trkpt><trkpt lat="56.06858845803281" lon="22.204832368367914"><ele>115.0</ele><time>2026-04-18T14:23:46.999Z</time></trkpt><trkpt lat="56.06867274340374" lon="22.204979229075345"><ele>114.85714285714283</ele><time>2026-04-18T14:23:48.999Z</time></trkpt><trkpt lat="56.068727456389986" lon="22.20505882593619"><ele>114.71428571428571</ele><time>2026-04-18T14:23:49.999Z</time></trkpt><trkpt lat="56.068777197002625" lon="22.205140515680668"><ele>114.57142857142856</ele><time>2026-04-18T14:23:50.999Z</time></trkpt><trkpt lat="56.068828297938374" lon="22.20522589277423"><ele>114.42857142857142</ele><time>2026-04-18T14:23:51.999Z</time></trkpt><trkpt lat="56.06888617922503" lon="22.20530789992709"><ele>114.28571428571428</ele><time>2026-04-18T14:23:52.999Z</time></trkpt><trkpt lat="56.06894878074181" lon="22.20539578311181"><ele>114.14285714285714</ele><time>2026-04-18T14:23:53.999Z</time></trkpt><trkpt lat="56.06900908939621" lon="22.205499527563784"><ele>114.0</ele><time>2026-04-18T14:23:54.999Z</time></trkpt><trkpt lat="56.06905940261009" lon="22.205594588031556"><ele>114.0</ele><time>2026-04-18T14:23:55.999Z</time></trkpt><trkpt lat="56.0691061169727" lon="22.205685841968947"><ele>113.99999999999999</ele><time>2026-04-18T14:23:56.999Z</time></trkpt><trkpt lat="56.06915675606386" lon="22.205768799801668"><ele>114.0</ele><time>2026-04-18T14:23:57.999Z</time></trkpt><trkpt lat="56.06920983857857" lon="22.205841247044095"><ele>114.0</ele><time>2026-04-18T14:23:58.999Z</time></trkpt><trkpt lat="56.0692669393966" lon="22.205927341287797"><ele>113.99999999999999</ele><time>2026-04-18T14:23:59.999Z</time></trkpt><trkpt lat="56.06931954130331" lon="22.20601470466242"><ele>114.0</ele><time>2026-04-18T14:24:00.999Z</time></trkpt><trkpt lat="56.0693708422648" lon="22.2060944904667"><ele>114.0</ele><time>2026-04-18T14:24:01.999Z</time></trkpt><trkpt lat="56.06942190943499" lon="22.206174575232176"><ele>114.0</ele><time>2026-04-18T14:24:02.999Z</time></trkpt><trkpt lat="56.069473841912526" lon="22.206249293359026"><ele>113.99999999999999</ele><time>2026-04-18T14:24:03.999Z</time></trkpt><trkpt lat="56.069524749822065" lon="22.206325911423114"><ele>114.0</ele><time>2026-04-18T14:24:04.999Z</time></trkpt><trkpt lat="56.06957785512135" lon="22.206409574719192"><ele>114.0</ele><time>2026-04-18T14:24:05.999Z</time></trkpt><trkpt lat="56.06963311283973" lon="22.20649996223749"><ele>113.99999999999999</ele><time>2026-04-18T14:24:06.999Z</time></trkpt><trkpt lat="56.0696988288541" lon="22.206581863411838"><ele>114.0</ele><time>2026-04-18T14:24:07.999Z</time></trkpt><trkpt lat="56.06976813873094" lon="22.20668499652204"><ele>114.0</ele><time>2026-04-18T14:24:08.999Z</time></trkpt><trkpt lat="56.06981927845203" lon="22.20680084477561"><ele>114.0</ele><time>2026-04-18T14:24:09.999Z</time></trkpt><trkpt lat="56.06987247025343" lon="22.206903269659353"><ele>114.0</ele><time>2026-04-18T14:24:10.999Z</time></trkpt><trkpt lat="56.0699413437953" lon="22.207014018185124"><ele>114.0</ele><time>2026-04-18T14:24:11.999Z</time></trkpt><trkpt lat="56.070013772323136" lon="22.2071338631914"><ele>114.0</ele><time>2026-04-18T14:24:12.999Z</time></trkpt><trkpt lat="56.070079803652675" lon="22.207242659596766"><ele>114.0</ele><time>2026-04-18T14:24:13.999Z</time></trkpt><trkpt lat="56.07014665620951" lon="22.207348298629423"><ele>114.0</ele><time>2026-04-18T14:24:14.999Z</time></trkpt><trkpt lat="56.070207625049946" lon="22.20744952357053"><ele>114.0</ele><time>2026-04-18T14:24:15.999Z</time></trkpt><trkpt lat="56.070272195743264" lon="22.20755705619584"><ele>114.0</ele><time>2026-04-18T14:24:16.999Z</time></trkpt><trkpt lat="56.07032906538098" lon="22.2076538796113"><ele>114.0</ele><time>2026-04-18T14:24:17.999Z</time></trkpt><trkpt lat="56.0703857112035" lon="22.20774835466017"><ele>114.0</ele><time>2026-04-18T14:24:18.999Z</time></trkpt><trkpt lat="56.07044982824059" lon="22.207841809927697"><ele>114.0</ele><time>2026-04-18T14:24:19.999Z</time></trkpt><trkpt lat="56.070519619454075" lon="22.20792459862436"><ele>114.0</ele><time>2026-04-18T14:24:20.999Z</time></trkpt><trkpt lat="56.0705906123445" lon="22.208024699604"><ele>114.0</ele><time>2026-04-18T14:24:21.999Z</time></trkpt><trkpt lat="56.07065758388485" lon="22.208139645312635"><ele>114.0</ele><time>2026-04-18T14:24:22.999Z</time></trkpt><trkpt lat="56.07072384785854" lon="22.208248940259388"><ele>114.0</ele><time>2026-04-18T14:24:23.999Z</time></trkpt><trkpt lat="56.07078957383822" lon="22.208355883611485"><ele>114.0</ele><time>2026-04-18T14:24:24.999Z</time></trkpt><trkpt lat="56.07085223635431" lon="22.2084578057048"><ele>114.0</ele><time>2026-04-18T14:24:25.999Z</time></trkpt><trkpt lat="56.07091461233432" lon="22.208559833119605"><ele>114.0</ele><time>2026-04-18T14:24:26.999Z</time></trkpt><trkpt lat="56.07097683234607" lon="22.2086585949954"><ele>114.0</ele><time>2026-04-18T14:24:27.999Z</time></trkpt><trkpt lat="56.07103633590384" lon="22.20873863979413"><ele>114.0</ele><time>2026-04-18T14:24:28.999Z</time></trkpt><trkpt lat="56.07111825290542" lon="22.208840201014535"><ele>114.0</ele><time>2026-04-18T14:24:30.999Z</time></trkpt><trkpt lat="56.07117925302973" lon="22.208933786153235"><ele>114.0</ele><time>2026-04-18T14:24:32.999Z</time></trkpt><trkpt lat="56.07125739796775" lon="22.209063483782018"><ele>114.0</ele><time>2026-04-18T14:24:34.999Z</time></trkpt><trkpt lat="56.07135340552297" lon="22.20922304905998"><ele>113.80000000000001</ele><time>2026-04-18T14:24:36.999Z</time></trkpt><trkpt lat="56.071432926802224" lon="22.20934974730228"><ele>113.60000000000001</ele><time>2026-04-18T14:24:37.999Z</time></trkpt><trkpt lat="56.07151313413989" lon="22.209477558447645"><ele>113.4</ele><time>2026-04-18T14:24:38.999Z</time></trkpt><trkpt lat="56.071585778844494" lon="22.209586742059606"><ele>113.2</ele><time>2026-04-18T14:24:39.999Z</time></trkpt><trkpt lat="56.07165928288515" lon="22.209691828885575"><ele>113.0</ele><time>2026-04-18T14:24:40.999Z</time></trkpt><trkpt lat="56.07171492553274" lon="22.209793598409544"><ele>112.66666666666666</ele><time>2026-04-18T14:24:41.999Z</time></trkpt><trkpt lat="56.07180513104441" lon="22.209827561419424"><ele>112.33333333333333</ele><time>2026-04-18T14:24:42.999Z</time></trkpt><trkpt lat="56.071892255926855" lon="22.20986790860018"><ele>112.0</ele><time>2026-04-18T14:24:43.999Z</time></trkpt><trkpt lat="56.07197582545289" lon="22.2098881021777"><ele>111.66666666666666</ele><time>2026-04-18T14:24:44.999Z</time></trkpt><trkpt lat="56.07206461937553" lon="22.20989453622892"><ele>111.33333333333333</ele><time>2026-04-18T14:24:45.999Z</time></trkpt><trkpt lat="56.07215082488047" lon="22.209888741529774"><ele>111.0</ele><time>2026-04-18T14:24:46.999Z</time></trkpt><trkpt lat="56.0722439053838" lon="22.20987514154894"><ele>111.0</ele><time>2026-04-18T14:24:47.999Z</time></trkpt><trkpt lat="56.072334182619045" lon="22.20986259317879"><ele>111.0</ele><time>2026-04-18T14:24:48.999Z</time></trkpt><trkpt lat="56.072428319626525" lon="22.209857244657552"><ele>111.0</ele><time>2026-04-18T14:24:49.999Z</time></trkpt><trkpt lat="56.07251999868905" lon="22.209851428467946"><ele>111.0</ele><time>2026-04-18T14:24:50.999Z</time></trkpt><trkpt lat="56.07261277904061" lon="22.209846048584186"><ele>111.0</ele><time>2026-04-18T14:24:51.999Z</time></trkpt><trkpt lat="56.07269805495705" lon="22.209842024274685"><ele>111.33333333333333</ele><time>2026-04-18T14:24:52.999Z</time></trkpt><trkpt lat="56.0727831952631" lon="22.209834143285377"><ele>111.66666666666666</ele><time>2026-04-18T14:24:53.999Z</time></trkpt><trkpt lat="56.072863578219284" lon="22.209825356926203"><ele>112.0</ele><time>2026-04-18T14:24:54.999Z</time></trkpt><trkpt lat="56.07294105980766" lon="22.209813993763166"><ele>112.33333333333333</ele><time>2026-04-18T14:24:55.999Z</time></trkpt><trkpt lat="56.0730267240403" lon="22.209804831252665"><ele>112.66666666666666</ele><time>2026-04-18T14:24:56.999Z</time></trkpt><trkpt lat="56.07311407387495" lon="22.20979903274504"><ele>113.0</ele><time>2026-04-18T14:24:57.999Z</time></trkpt><trkpt lat="56.073200222474675" lon="22.20979475318756"><ele>113.0</ele><time>2026-04-18T14:24:58.999Z</time></trkpt><trkpt lat="56.0732922147397" lon="22.2097950064826"><ele>113.00000000000001</ele><time>2026-04-18T14:24:59.999Z</time></trkpt><trkpt lat="56.07337893436755" lon="22.209788429806668"><ele>113.00000000000001</ele><time>2026-04-18T14:25:00.999Z</time></trkpt><trkpt lat="56.073471461020375" lon="22.20977908369107"><ele>113.0</ele><time>2026-04-18T14:25:01.999Z</time></trkpt><trkpt lat="56.073590583441586" lon="22.209762062093628"><ele>113.0</ele><time>2026-04-18T14:25:02.999Z</time></trkpt><trkpt lat="56.07373767297355" lon="22.209754308918445"><ele>113.0</ele><time>2026-04-18T14:25:03.999Z</time></trkpt><trkpt lat="56.07388618242299" lon="22.209742786449212"><ele>113.0</ele><time>2026-04-18T14:25:04.999Z</time></trkpt><trkpt lat="56.07405767677543" lon="22.209725046187486"><ele>113.0</ele><time>2026-04-18T14:25:05.999Z</time></trkpt><trkpt lat="56.074229385205086" lon="22.20970972417302"><ele>113.0</ele><time>2026-04-18T14:25:06.999Z</time></trkpt><trkpt lat="56.07439856266608" lon="22.209693232098978"><ele>113.0</ele><time>2026-04-18T14:25:07.999Z</time></trkpt><trkpt lat="56.07457813538846" lon="22.209675781283813"><ele>113.0</ele><time>2026-04-18T14:25:08.999Z</time></trkpt><trkpt lat="56.074749274022714" lon="22.20965967413262"><ele>113.0</ele><time>2026-04-18T14:25:09.999Z</time></trkpt><trkpt lat="56.074918224279365" lon="22.20964470508062"><ele>113.0</ele><time>2026-04-18T14:25:10.999Z</time></trkpt><trkpt lat="56.075089067415384" lon="22.209637166036465"><ele>113.0</ele><time>2026-04-18T14:25:11.999Z</time></trkpt><trkpt lat="56.075261952255104" lon="22.209632447137437"><ele>112.66666666666666</ele><time>2026-04-18T14:25:12.999Z</time></trkpt><trkpt lat="56.07544909110597" lon="22.209618753770307"><ele>112.33333333333334</ele><time>2026-04-18T14:25:13.999Z</time></trkpt><trkpt lat="56.075641076213316" lon="22.2096021373402"><ele>112.0</ele><time>2026-04-18T14:25:14.999Z</time></trkpt><trkpt lat="56.07584100906889" lon="22.209586372951446"><ele>112.0</ele><time>2026-04-18T14:25:15.999Z</time></trkpt><trkpt lat="56.07604031794377" lon="22.209574756508438"><ele>112.0</ele><time>2026-04-18T14:25:16.999Z</time></trkpt><trkpt lat="56.07623904162694" lon="22.209563214914"><ele>112.0</ele><time>2026-04-18T14:25:17.999Z</time></trkpt><trkpt lat="56.076428397606094" lon="22.209547098269393"><ele>112.0</ele><time>2026-04-18T14:25:18.999Z</time></trkpt><trkpt lat="56.076590663156736" lon="22.20953834903206"><ele>112.0</ele><time>2026-04-18T14:25:19.999Z</time></trkpt><trkpt lat="56.07675376674485" lon="22.209529093372502"><ele>112.0</ele><time>2026-04-18T14:25:20.999Z</time></trkpt><trkpt lat="56.076921670328844" lon="22.20951525600232"><ele>112.33333333333334</ele><time>2026-04-18T14:25:21.999Z</time></trkpt><trkpt lat="56.07709801423076" lon="22.20950154652821"><ele>112.66666666666666</ele><time>2026-04-18T14:25:22.999Z</time></trkpt><trkpt lat="56.07726280895555" lon="22.209492479997785"><ele>113.0</ele><time>2026-04-18T14:25:23.999Z</time></trkpt><trkpt lat="56.07740408113491" lon="22.20948603825159"><ele>113.0</ele><time>2026-04-18T14:25:24.999Z</time></trkpt><trkpt lat="56.077532354411" lon="22.20947755623099"><ele>113.0</ele><time>2026-04-18T14:25:25.999Z</time></trkpt><trkpt lat="56.077643137974114" lon="22.209466857404493"><ele>113.0</ele><time>2026-04-18T14:25:26.999Z</time></trkpt><trkpt lat="56.07775262932719" lon="22.20944764055598"><ele>113.0</ele><time>2026-04-18T14:25:27.999Z</time></trkpt><trkpt lat="56.07785913514248" lon="22.20941536306459"><ele>113.0</ele><time>2026-04-18T14:25:28.999Z</time></trkpt><trkpt lat="56.07796756020146" lon="22.209407127996286"><ele>113.0</ele><time>2026-04-18T14:25:29.999Z</time></trkpt><trkpt lat="56.07808318899816" lon="22.209291195437842"><ele>113.0</ele><time>2026-04-18T14:25:30.999Z</time></trkpt><trkpt lat="56.078204621092254" lon="22.20917519574747"><ele>113.0</ele><time>2026-04-18T14:25:31.999Z</time></trkpt><trkpt lat="56.07834055686859" lon="22.209033011807"><ele>113.0</ele><time>2026-04-18T14:25:32.999Z</time></trkpt><trkpt lat="56.078476528077644" lon="22.208900199803477"><ele>113.0</ele><time>2026-04-18T14:25:33.999Z</time></trkpt><trkpt lat="56.0786228111103" lon="22.208773003583648"><ele>113.0</ele><time>2026-04-18T14:25:34.999Z</time></trkpt><trkpt lat="56.07875680957275" lon="22.208652519550345"><ele>113.0</ele><time>2026-04-18T14:25:35.999Z</time></trkpt><trkpt lat="56.0788908206077" lon="22.208524233017847"><ele>113.0</ele><time>2026-04-18T14:25:36.999Z</time></trkpt><trkpt lat="56.07902711676019" lon="22.20839063033817"><ele>113.0</ele><time>2026-04-18T14:25:37.999Z</time></trkpt><trkpt lat="56.07916016098531" lon="22.20826595113842"><ele>112.75</ele><time>2026-04-18T14:25:38.999Z</time></trkpt><trkpt lat="56.079290859586" lon="22.20813809225434"><ele>112.5</ele><time>2026-04-18T14:25:39.999Z</time></trkpt><trkpt lat="56.07942029151708" lon="22.20800955001987"><ele>112.25</ele><time>2026-04-18T14:25:40.999Z</time></trkpt><trkpt lat="56.07954868981789" lon="22.20788186378986"><ele>112.0</ele><time>2026-04-18T14:25:41.999Z</time></trkpt><trkpt lat="56.07967788449651" lon="22.20776219867009"><ele>112.0</ele><time>2026-04-18T14:25:42.999Z</time></trkpt><trkpt lat="56.07980557898698" lon="22.20764092678552"><ele>112.0</ele><time>2026-04-18T14:25:43.999Z</time></trkpt><trkpt lat="56.07993059856659" lon="22.20751794368558"><ele>112.0</ele><time>2026-04-18T14:25:44.999Z</time></trkpt><trkpt lat="56.08005436948594" lon="22.20738990116378"><ele>112.0</ele><time>2026-04-18T14:25:45.999Z</time></trkpt><trkpt lat="56.08018800890221" lon="22.207290782114274"><ele>112.0</ele><time>2026-04-18T14:25:46.999Z</time></trkpt><trkpt lat="56.0803111556566" lon="22.20714861831606"><ele>112.0</ele><time>2026-04-18T14:25:47.999Z</time></trkpt><trkpt lat="56.0804370990051" lon="22.207036709359695"><ele>112.0</ele><time>2026-04-18T14:25:48.999Z</time></trkpt><trkpt lat="56.08056188717559" lon="22.20691643433485"><ele>112.0</ele><time>2026-04-18T14:25:49.999Z</time></trkpt><trkpt lat="56.08068471671347" lon="22.206798882358484"><ele>112.0</ele><time>2026-04-18T14:25:50.999Z</time></trkpt><trkpt lat="56.080809560938896" lon="22.20668086948013"><ele>112.0</ele><time>2026-04-18T14:25:51.999Z</time></trkpt><trkpt lat="56.08093763419722" lon="22.206556322330027"><ele>112.0</ele><time>2026-04-18T14:25:52.999Z</time></trkpt><trkpt lat="56.081066006974446" lon="22.20643519625908"><ele>112.0</ele><time>2026-04-18T14:25:53.999Z</time></trkpt><trkpt lat="56.08118984288977" lon="22.20631896146709"><ele>112.0</ele><time>2026-04-18T14:25:54.999Z</time></trkpt><trkpt lat="56.08130970029226" lon="22.206201671802592"><ele>112.0</ele><time>2026-04-18T14:25:55.999Z</time></trkpt><trkpt lat="56.08141368884518" lon="22.206102505802626"><ele>112.0</ele><time>2026-04-18T14:25:56.999Z</time></trkpt><trkpt lat="56.081524144219195" lon="22.20599703557822"><ele>112.0</ele><time>2026-04-18T14:25:57.999Z</time></trkpt><trkpt lat="56.08162464779959" lon="22.205912297210574"><ele>113.25</ele><time>2026-04-18T14:25:58.999Z</time></trkpt><trkpt lat="56.08173384108385" lon="22.205820119649143"><ele>114.5</ele><time>2026-04-18T14:25:59.999Z</time></trkpt><trkpt lat="56.08185502879545" lon="22.20572282813729"><ele>115.75</ele><time>2026-04-18T14:26:00.999Z</time></trkpt><trkpt lat="56.08196854436596" lon="22.205635050278445"><ele>117.0</ele><time>2026-04-18T14:26:01.999Z</time></trkpt><trkpt lat="56.08209029463698" lon="22.205549317380363"><ele>117.75</ele><time>2026-04-18T14:26:02.999Z</time></trkpt><trkpt lat="56.08220587682236" lon="22.205474923733497"><ele>118.5</ele><time>2026-04-18T14:26:03.999Z</time></trkpt><trkpt lat="56.082326851593166" lon="22.205394072188295"><ele>119.25</ele><time>2026-04-18T14:26:04.999Z</time></trkpt><trkpt lat="56.08244306801708" lon="22.205310115337113"><ele>120.0</ele><time>2026-04-18T14:26:05.999Z</time></trkpt><trkpt lat="56.08257500568583" lon="22.20520908922066"><ele>120.25</ele><time>2026-04-18T14:26:06.999Z</time></trkpt><trkpt lat="56.08269130047778" lon="22.205136205172536"><ele>120.5</ele><time>2026-04-18T14:26:07.999Z</time></trkpt><trkpt lat="56.08281659475713" lon="22.20505517810993"><ele>120.75</ele><time>2026-04-18T14:26:08.999Z</time></trkpt><trkpt lat="56.08293512185851" lon="22.204970486310195"><ele>121.0</ele><time>2026-04-18T14:26:09.999Z</time></trkpt><trkpt lat="56.08305949123014" lon="22.20488888434994"><ele>121.5</ele><time>2026-04-18T14:26:10.999Z</time></trkpt><trkpt lat="56.083180052976495" lon="22.204814047281783"><ele>122.0</ele><time>2026-04-18T14:26:11.999Z</time></trkpt><trkpt lat="56.08329697202134" lon="22.204735544923743"><ele>122.5</ele><time>2026-04-18T14:26:12.999Z</time></trkpt><trkpt lat="56.083421035943736" lon="22.20465170690459"><ele>123.0</ele><time>2026-04-18T14:26:13.999Z</time></trkpt><trkpt lat="56.08353593487482" lon="22.204563622936433"><ele>123.0</ele><time>2026-04-18T14:26:14.999Z</time></trkpt><trkpt lat="56.083656206407845" lon="22.204482240846993"><ele>123.0</ele><time>2026-04-18T14:26:15.999Z</time></trkpt><trkpt lat="56.08378011301447" lon="22.20440394752977"><ele>123.0</ele><time>2026-04-18T14:26:16.999Z</time></trkpt><trkpt lat="56.083902894099566" lon="22.204317584799735"><ele>123.0</ele><time>2026-04-18T14:26:17.999Z</time></trkpt><trkpt lat="56.08402940690109" lon="22.20422519997193"><ele>123.0</ele><time>2026-04-18T14:26:18.999Z</time></trkpt><trkpt lat="56.08416471495791" lon="22.204136035761188"><ele>123.0</ele><time>2026-04-18T14:26:19.999Z</time></trkpt><trkpt lat="56.08430004957873" lon="22.204045410678862"><ele>123.0</ele><time>2026-04-18T14:26:20.999Z</time></trkpt><trkpt lat="56.08442643403161" lon="22.203951894105227"><ele>123.0</ele><time>2026-04-18T14:26:21.999Z</time></trkpt><trkpt lat="56.084545938591646" lon="22.203873093393725"><ele>123.25</ele><time>2026-04-18T14:26:22.999Z</time></trkpt><trkpt lat="56.08465659792024" lon="22.203797823809"><ele>123.5</ele><time>2026-04-18T14:26:23.999Z</time></trkpt><trkpt lat="56.08477103289971" lon="22.203714588735867"><ele>123.75</ele><time>2026-04-18T14:26:24.999Z</time></trkpt><trkpt lat="56.08488623185998" lon="22.20363431871778"><ele>124.0</ele><time>2026-04-18T14:26:25.999Z</time></trkpt><trkpt lat="56.08499657088597" lon="22.203556702332886"><ele>124.0</ele><time>2026-04-18T14:26:26.999Z</time></trkpt><trkpt lat="56.08511213712892" lon="22.203479902031933"><ele>124.0</ele><time>2026-04-18T14:26:27.999Z</time></trkpt><trkpt lat="56.085234583802595" lon="22.203395796747028"><ele>124.0</ele><time>2026-04-18T14:26:28.999Z</time></trkpt><trkpt lat="56.08536690316637" lon="22.20330605002435"><ele>124.0</ele><time>2026-04-18T14:26:29.999Z</time></trkpt><trkpt lat="56.08550362695951" lon="22.203212333078177"><ele>124.0</ele><time>2026-04-18T14:26:30.999Z</time></trkpt><trkpt lat="56.08564052393003" lon="22.20311464502822"><ele>124.0</ele><time>2026-04-18T14:26:31.999Z</time></trkpt><trkpt lat="56.08577418139235" lon="22.20303208525509"><ele>124.0</ele><time>2026-04-18T14:26:32.999Z</time></trkpt><trkpt lat="56.085895702416884" lon="22.202954669021203"><ele>124.0</ele><time>2026-04-18T14:26:33.999Z</time></trkpt><trkpt lat="56.08600020461077" lon="22.202887070125318"><ele>124.5</ele><time>2026-04-18T14:26:34.999Z</time></trkpt><trkpt lat="56.086099869970774" lon="22.202834693741448"><ele>125.0</ele><time>2026-04-18T14:26:35.999Z</time></trkpt><trkpt lat="56.086213365773894" lon="22.202749545646356"><ele>125.5</ele><time>2026-04-18T14:26:36.999Z</time></trkpt><trkpt lat="56.08632304151342" lon="22.20268425900334"><ele>126.0</ele><time>2026-04-18T14:26:37.999Z</time></trkpt><trkpt lat="56.086434111685435" lon="22.202640478744453"><ele>126.0</ele><time>2026-04-18T14:26:38.999Z</time></trkpt><trkpt lat="56.08656452744662" lon="22.20260183184277"><ele>126.0</ele><time>2026-04-18T14:26:39.999Z</time></trkpt><trkpt lat="56.0866837627682" lon="22.202595462454934"><ele>126.0</ele><time>2026-04-18T14:26:40.999Z</time></trkpt><trkpt lat="56.086830112304995" lon="22.20256867503246"><ele>126.0</ele><time>2026-04-18T14:26:41.999Z</time></trkpt><trkpt lat="56.086956503257525" lon="22.20255902918505"><ele>125.5</ele><time>2026-04-18T14:26:42.999Z</time></trkpt><trkpt lat="56.08709459651109" lon="22.202546541845255"><ele>125.0</ele><time>2026-04-18T14:26:43.999Z</time></trkpt><trkpt lat="56.08722675388109" lon="22.2025249358407"><ele>124.5</ele><time>2026-04-18T14:26:44.999Z</time></trkpt><trkpt lat="56.08736202412082" lon="22.202498072796736"><ele>124.0</ele><time>2026-04-18T14:26:45.999Z</time></trkpt><trkpt lat="56.08749992486784" lon="22.202477209338987"><ele>123.25</ele><time>2026-04-18T14:26:46.999Z</time></trkpt><trkpt lat="56.087637419515" lon="22.202452767107605"><ele>122.5</ele><time>2026-04-18T14:26:47.999Z</time></trkpt><trkpt lat="56.087767336928174" lon="22.202429992943845"><ele>121.75</ele><time>2026-04-18T14:26:48.999Z</time></trkpt><trkpt lat="56.087894077605455" lon="22.20238798609785"><ele>121.0</ele><time>2026-04-18T14:26:49.999Z</time></trkpt><trkpt lat="56.088024741667624" lon="22.202369806969426"><ele>121.0</ele><time>2026-04-18T14:26:50.999Z</time></trkpt><trkpt lat="56.08815570549978" lon="22.202357769531492"><ele>121.0</ele><time>2026-04-18T14:26:51.999Z</time></trkpt><trkpt lat="56.08829073741456" lon="22.202367828706404"><ele>121.0</ele><time>2026-04-18T14:26:52.999Z</time></trkpt><trkpt lat="56.08841209443664" lon="22.20238481864735"><ele>121.0</ele><time>2026-04-18T14:26:53.999Z</time></trkpt><trkpt lat="56.088550667346965" lon="22.20240499411399"><ele>120.75</ele><time>2026-04-18T14:26:54.999Z</time></trkpt><trkpt lat="56.08869114877493" lon="22.20241904605753"><ele>120.5</ele><time>2026-04-18T14:26:55.999Z</time></trkpt><trkpt lat="56.088839566276114" lon="22.202445551678053"><ele>120.25</ele><time>2026-04-18T14:26:56.999Z</time></trkpt><trkpt lat="56.08898310113983" lon="22.20249075629198"><ele>120.0</ele><time>2026-04-18T14:26:57.999Z</time></trkpt><trkpt lat="56.08916001800248" lon="22.20255323025255"><ele>120.0</ele><time>2026-04-18T14:26:58.999Z</time></trkpt><trkpt lat="56.089311785250054" lon="22.202620223849213"><ele>120.0</ele><time>2026-04-18T14:26:59.999Z</time></trkpt><trkpt lat="56.0894317818521" lon="22.202698251290958"><ele>120.0</ele><time>2026-04-18T14:27:00.999Z</time></trkpt><trkpt lat="56.08953726714469" lon="22.202799291268196"><ele>120.0</ele><time>2026-04-18T14:27:01.999Z</time></trkpt><trkpt lat="56.089645864139996" lon="22.20295842175929"><ele>120.0</ele><time>2026-04-18T14:27:02.999Z</time></trkpt><trkpt lat="56.089742299583946" lon="22.203137859354467"><ele>120.0</ele><time>2026-04-18T14:27:03.999Z</time></trkpt><trkpt lat="56.08982222611669" lon="22.203290330253488"><ele>120.0</ele><time>2026-04-18T14:27:04.999Z</time></trkpt><trkpt lat="56.08989822838207" lon="22.203428013148876"><ele>120.0</ele><time>2026-04-18T14:27:05.999Z</time></trkpt><trkpt lat="56.08997342102328" lon="22.20357169505422"><ele>119.0</ele><time>2026-04-18T14:27:06.999Z</time></trkpt><trkpt lat="56.090062987173084" lon="22.20368573878434"><ele>118.0</ele><time>2026-04-18T14:27:07.999Z</time></trkpt><trkpt lat="56.09016014303116" lon="22.203785504387298"><ele>117.0</ele><time>2026-04-18T14:27:08.999Z</time></trkpt><trkpt lat="56.09025299591543" lon="22.203873498100503"><ele>116.0</ele><time>2026-04-18T14:27:09.999Z</time></trkpt><trkpt lat="56.090385931014325" lon="22.20389385073974"><ele>116.0</ele><time>2026-04-18T14:27:10.999Z</time></trkpt><trkpt lat="56.09053901518674" lon="22.20391865165858"><ele>116.0</ele><time>2026-04-18T14:27:11.999Z</time></trkpt><trkpt lat="56.090689595340784" lon="22.203949431700703"><ele>116.0</ele><time>2026-04-18T14:27:12.999Z</time></trkpt><trkpt lat="56.09084874683762" lon="22.20396751421983"><ele>115.5</ele><time>2026-04-18T14:27:13.999Z</time></trkpt><trkpt lat="56.09099347095907" lon="22.203972844278553"><ele>115.0</ele><time>2026-04-18T14:27:14.999Z</time></trkpt><trkpt lat="56.09112551350374" lon="22.203973591598174"><ele>114.5</ele><time>2026-04-18T14:27:15.999Z</time></trkpt><trkpt lat="56.091248863170115" lon="22.203956189583785"><ele>114.0</ele><time>2026-04-18T14:27:16.999Z</time></trkpt><trkpt lat="56.09137762767871" lon="22.203927400816386"><ele>114.0</ele><time>2026-04-18T14:27:17.999Z</time></trkpt><trkpt lat="56.09149788749523" lon="22.2038764989611"><ele>114.0</ele><time>2026-04-18T14:27:18.999Z</time></trkpt><trkpt lat="56.09162321524879" lon="22.203788968907027"><ele>114.0</ele><time>2026-04-18T14:27:19.999Z</time></trkpt><trkpt lat="56.091746885950535" lon="22.203685397890983"><ele>114.0</ele><time>2026-04-18T14:27:20.999Z</time></trkpt><trkpt lat="56.091875369195684" lon="22.20356514626976"><ele>114.66666666666666</ele><time>2026-04-18T14:27:21.999Z</time></trkpt><trkpt lat="56.092010281683685" lon="22.203446302520778"><ele>115.33333333333333</ele><time>2026-04-18T14:27:22.999Z</time></trkpt><trkpt lat="56.09214392508653" lon="22.20332684348545"><ele>116.0</ele><time>2026-04-18T14:27:23.999Z</time></trkpt><trkpt lat="56.09228536527554" lon="22.203231489569255"><ele>118.66666666666666</ele><time>2026-04-18T14:27:24.999Z</time></trkpt><trkpt lat="56.0924291585607" lon="22.20314770143683"><ele>121.33333333333334</ele><time>2026-04-18T14:27:25.999Z</time></trkpt><trkpt lat="56.092577918331926" lon="22.203083014334034"><ele>124.0</ele><time>2026-04-18T14:27:26.999Z</time></trkpt><trkpt lat="56.092719772150964" lon="22.203018099539957"><ele>124.0</ele><time>2026-04-18T14:27:27.999Z</time></trkpt><trkpt lat="56.0928638878852" lon="22.20294786274348"><ele>124.0</ele><time>2026-04-18T14:27:28.999Z</time></trkpt><trkpt lat="56.09299117577769" lon="22.202879768142374"><ele>124.0</ele><time>2026-04-18T14:27:29.999Z</time></trkpt><trkpt lat="56.09311298839359" lon="22.202807432965937"><ele>124.0</ele><time>2026-04-18T14:27:30.999Z</time></trkpt><trkpt lat="56.0932317147069" lon="22.202736513051878"><ele>123.6</ele><time>2026-04-18T14:27:31.999Z</time></trkpt><trkpt lat="56.09335590648649" lon="22.202672836079607"><ele>123.2</ele><time>2026-04-18T14:27:32.999Z</time></trkpt><trkpt lat="56.09344803284781" lon="22.202627996688907"><ele>122.79999999999998</ele><time>2026-04-18T14:27:33.999Z</time></trkpt><trkpt lat="56.09354146501121" lon="22.202570873563424"><ele>122.39999999999999</ele><time>2026-04-18T14:27:34.999Z</time></trkpt><trkpt lat="56.093621650008885" lon="22.202512030467656"><ele>122.0</ele><time>2026-04-18T14:27:35.999Z</time></trkpt><trkpt lat="56.09368399356113" lon="22.202445088647437"><ele>122.0</ele><time>2026-04-18T14:27:36.999Z</time></trkpt><trkpt lat="56.093747774752124" lon="22.202355674645474"><ele>121.99999999999999</ele><time>2026-04-18T14:27:37.999Z</time></trkpt><trkpt lat="56.09380130922692" lon="22.2022357438936"><ele>121.99999999999999</ele><time>2026-04-18T14:27:38.999Z</time></trkpt><trkpt lat="56.09385699293408" lon="22.202090965284206"><ele>122.0</ele><time>2026-04-18T14:27:39.999Z</time></trkpt><trkpt lat="56.09391210993376" lon="22.201932510583163"><ele>122.0</ele><time>2026-04-18T14:27:40.999Z</time></trkpt><trkpt lat="56.09397785383568" lon="22.20175110327839"><ele>122.0</ele><time>2026-04-18T14:27:41.999Z</time></trkpt><trkpt lat="56.09403608616102" lon="22.201569870063494"><ele>121.99999999999999</ele><time>2026-04-18T14:27:42.999Z</time></trkpt><trkpt lat="56.094089563771256" lon="22.201380358253296"><ele>121.99999999999999</ele><time>2026-04-18T14:27:43.999Z</time></trkpt><trkpt lat="56.09414129581118" lon="22.201239651702124"><ele>122.0</ele><time>2026-04-18T14:27:44.999Z</time></trkpt><trkpt lat="56.09419976890544" lon="22.201122006860466"><ele>122.0</ele><time>2026-04-18T14:27:45.999Z</time></trkpt><trkpt lat="56.09428909609157" lon="22.2010621678956"><ele>120.8</ele><time>2026-04-18T14:27:46.999Z</time></trkpt><trkpt lat="56.09436652217109" lon="22.20096867644888"><ele>119.6</ele><time>2026-04-18T14:27:47.999Z</time></trkpt><trkpt lat="56.09445454911497" lon="22.20092233534685"><ele>118.39999999999999</ele><time>2026-04-18T14:27:48.999Z</time></trkpt><trkpt lat="56.09455617709552" lon="22.200855093792924"><ele>117.19999999999999</ele><time>2026-04-18T14:27:49.999Z</time></trkpt><trkpt lat="56.09465375640429" lon="22.200777775295624"><ele>116.0</ele><time>2026-04-18T14:27:50.999Z</time></trkpt><trkpt lat="56.0947498901078" lon="22.200694337718982"><ele>116.0</ele><time>2026-04-18T14:27:51.999Z</time></trkpt><trkpt lat="56.09485201626868" lon="22.200587490732843"><ele>116.0</ele><time>2026-04-18T14:27:52.999Z</time></trkpt><trkpt lat="56.09494774595685" lon="22.200494951285357"><ele>116.0</ele><time>2026-04-18T14:27:53.999Z</time></trkpt><trkpt lat="56.09503888716596" lon="22.20042964325398"><ele>116.0</ele><time>2026-04-18T14:27:54.999Z</time></trkpt><trkpt lat="56.0951438519989" lon="22.200380721277458"><ele>116.0</ele><time>2026-04-18T14:27:55.999Z</time></trkpt><trkpt lat="56.09526651646416" lon="22.200348776739204"><ele>116.5</ele><time>2026-04-18T14:27:56.999Z</time></trkpt><trkpt lat="56.0954111641138" lon="22.200347730600168"><ele>117.0</ele><time>2026-04-18T14:27:57.999Z</time></trkpt><trkpt lat="56.095564990983846" lon="22.200340034205414"><ele>117.5</ele><time>2026-04-18T14:27:58.999Z</time></trkpt><trkpt lat="56.09570784918608" lon="22.200329864291554"><ele>118.0</ele><time>2026-04-18T14:27:59.999Z</time></trkpt><trkpt lat="56.0958502553131" lon="22.200313790983127"><ele>118.0</ele><time>2026-04-18T14:28:00.999Z</time></trkpt><trkpt lat="56.0960032896742" lon="22.20029916878113"><ele>118.0</ele><time>2026-04-18T14:28:01.999Z</time></trkpt><trkpt lat="56.09613724782376" lon="22.200296910155554"><ele>118.0</ele><time>2026-04-18T14:28:02.999Z</time></trkpt><trkpt lat="56.09628021720454" lon="22.20028212340228"><ele>118.0</ele><time>2026-04-18T14:28:03.999Z</time></trkpt><trkpt lat="56.0964273679984" lon="22.200264179202655"><ele>118.0</ele><time>2026-04-18T14:28:04.999Z</time></trkpt><trkpt lat="56.09658249668994" lon="22.200251556381335"><ele>118.0</ele><time>2026-04-18T14:28:05.999Z</time></trkpt><trkpt lat="56.09674094268868" lon="22.200234253676847"><ele>118.0</ele><time>2026-04-18T14:28:06.999Z</time></trkpt><trkpt lat="56.09690004319177" lon="22.20021072349529"><ele>118.0</ele><time>2026-04-18T14:28:07.999Z</time></trkpt><trkpt lat="56.097058485656866" lon="22.200198434756082"><ele>118.0</ele><time>2026-04-18T14:28:08.999Z</time></trkpt><trkpt lat="56.09720597798935" lon="22.20018937853711"><ele>118.0</ele><time>2026-04-18T14:28:09.999Z</time></trkpt><trkpt lat="56.09736754380167" lon="22.200172693621848"><ele>118.0</ele><time>2026-04-18T14:28:10.999Z</time></trkpt><trkpt lat="56.097534647273605" lon="22.20016672245882"><ele>118.0</ele><time>2026-04-18T14:28:11.999Z</time></trkpt><trkpt lat="56.097703167567715" lon="22.20015832888247"><ele>118.0</ele><time>2026-04-18T14:28:12.999Z</time></trkpt><trkpt lat="56.0978559045479" lon="22.20014566377363"><ele>118.0</ele><time>2026-04-18T14:28:13.999Z</time></trkpt><trkpt lat="56.097998149481015" lon="22.200135776667363"><ele>118.0</ele><time>2026-04-18T14:28:14.999Z</time></trkpt><trkpt lat="56.09811083285954" lon="22.200122319568017"><ele>118.0</ele><time>2026-04-18T14:28:15.999Z</time></trkpt><trkpt lat="56.09821571766542" lon="22.200108297378893"><ele>118.0</ele><time>2026-04-18T14:28:16.999Z</time></trkpt><trkpt lat="56.0983143717777" lon="22.200088195101973"><ele>118.4</ele><time>2026-04-18T14:28:17.999Z</time></trkpt><trkpt lat="56.098409877366755" lon="22.200065912859014"><ele>118.80000000000001</ele><time>2026-04-18T14:28:18.999Z</time></trkpt><trkpt lat="56.09851516389104" lon="22.200031062856016"><ele>119.2</ele><time>2026-04-18T14:28:19.999Z</time></trkpt><trkpt lat="56.09861826794433" lon="22.19996174159785"><ele>119.6</ele><time>2026-04-18T14:28:20.999Z</time></trkpt><trkpt lat="56.09872543126647" lon="22.199921082547043"><ele>120.0</ele><time>2026-04-18T14:28:21.999Z</time></trkpt><trkpt lat="56.0988140730303" lon="22.199775360643535"><ele>120.0</ele><time>2026-04-18T14:28:22.999Z</time></trkpt><trkpt lat="56.09890912401666" lon="22.19966087376102"><ele>120.0</ele><time>2026-04-18T14:28:23.999Z</time></trkpt><trkpt lat="56.09900221662265" lon="22.19952663564633"><ele>120.0</ele><time>2026-04-18T14:28:24.999Z</time></trkpt><trkpt lat="56.09908598414295" lon="22.199409116107386"><ele>120.0</ele><time>2026-04-18T14:28:25.999Z</time></trkpt><trkpt lat="56.099164817320876" lon="22.19930399027766"><ele>120.0</ele><time>2026-04-18T14:28:26.999Z</time></trkpt><trkpt lat="56.099254910645534" lon="22.19916778494926"><ele>119.8</ele><time>2026-04-18T14:28:27.999Z</time></trkpt><trkpt lat="56.09933818205963" lon="22.199038971696087"><ele>119.6</ele><time>2026-04-18T14:28:28.999Z</time></trkpt><trkpt lat="56.09943123923173" lon="22.198906722795687"><ele>119.4</ele><time>2026-04-18T14:28:29.999Z</time></trkpt><trkpt lat="56.09950954862137" lon="22.198783350253322"><ele>119.2</ele><time>2026-04-18T14:28:30.999Z</time></trkpt><trkpt lat="56.09959550446348" lon="22.198649807861848"><ele>119.0</ele><time>2026-04-18T14:28:31.999Z</time></trkpt><trkpt lat="56.09967219138036" lon="22.198497531281536"><ele>119.0</ele><time>2026-04-18T14:28:32.999Z</time></trkpt><trkpt lat="56.09974767958641" lon="22.19833721190069"><ele>119.0</ele><time>2026-04-18T14:28:33.999Z</time></trkpt><trkpt lat="56.099825306320966" lon="22.19817027570921"><ele>119.0</ele><time>2026-04-18T14:28:34.999Z</time></trkpt><trkpt lat="56.09993432071888" lon="22.197923838643938"><ele>119.0</ele><time>2026-04-18T14:28:35.999Z</time></trkpt><trkpt lat="56.10003186678087" lon="22.197702784261843"><ele>119.0</ele><time>2026-04-18T14:28:36.999Z</time></trkpt><trkpt lat="56.100103214655775" lon="22.197519994968342"><ele>119.0</ele><time>2026-04-18T14:28:37.999Z</time></trkpt><trkpt lat="56.1001672978515" lon="22.197355128648482"><ele>119.0</ele><time>2026-04-18T14:28:38.999Z</time></trkpt><trkpt lat="56.100227859148774" lon="22.19720529353934"><ele>119.0</ele><time>2026-04-18T14:28:39.999Z</time></trkpt><trkpt lat="56.10028659140985" lon="22.197030637326453"><ele>120.0</ele><time>2026-04-18T14:28:40.999Z</time></trkpt><trkpt lat="56.10034218156583" lon="22.19682520088461"><ele>121.0</ele><time>2026-04-18T14:28:41.999Z</time></trkpt><trkpt lat="56.100398498814315" lon="22.196582588151397"><ele>122.0</ele><time>2026-04-18T14:28:42.999Z</time></trkpt><trkpt lat="56.10045469058831" lon="22.196330369710083"><ele>123.0</ele><time>2026-04-18T14:28:43.999Z</time></trkpt><trkpt lat="56.10050176451601" lon="22.19612258036089"><ele>123.25</ele><time>2026-04-18T14:28:44.999Z</time></trkpt><trkpt lat="56.10054685717255" lon="22.19594366189192"><ele>123.5</ele><time>2026-04-18T14:28:45.999Z</time></trkpt><trkpt lat="56.100601311731026" lon="22.195745274160537"><ele>123.75</ele><time>2026-04-18T14:28:46.999Z</time></trkpt><trkpt lat="56.100642755860925" lon="22.195531200338557"><ele>124.0</ele><time>2026-04-18T14:28:47.999Z</time></trkpt><trkpt lat="56.10073808434708" lon="22.195370349979104"><ele>124.0</ele><time>2026-04-18T14:28:48.999Z</time></trkpt><trkpt lat="56.10083625178087" lon="22.1952047634556"><ele>124.0</ele><time>2026-04-18T14:28:49.999Z</time></trkpt><trkpt lat="56.100921493732606" lon="22.195024224761234"><ele>124.0</ele><time>2026-04-18T14:28:50.999Z</time></trkpt><trkpt lat="56.10100562489709" lon="22.194844883204002"><ele>124.0</ele><time>2026-04-18T14:28:51.999Z</time></trkpt><trkpt lat="56.101069383282066" lon="22.194687296934102"><ele>123.80000000000001</ele><time>2026-04-18T14:28:52.999Z</time></trkpt><trkpt lat="56.101123879999435" lon="22.19455244151111"><ele>123.60000000000001</ele><time>2026-04-18T14:28:53.999Z</time></trkpt><trkpt lat="56.101169610739426" lon="22.194438209268768"><ele>123.4</ele><time>2026-04-18T14:28:54.999Z</time></trkpt><trkpt lat="56.10120780450105" lon="22.194343864542482"><ele>123.2</ele><time>2026-04-18T14:28:55.999Z</time></trkpt><trkpt lat="56.10127345574436" lon="22.194180908250104"><ele>123.0</ele><time>2026-04-18T14:28:58Z</time></trkpt><trkpt lat="56.101372994278755" lon="22.19404239821528"><ele>123.0</ele><time>2026-04-18T14:29:00Z</time></trkpt><trkpt lat="56.10146432019634" lon="22.1940486267739"><ele>123.00000000000001</ele><time>2026-04-18T14:29:01Z</time></trkpt><trkpt lat="56.10156346328243" lon="22.194103947172025"><ele>123.00000000000001</ele><time>2026-04-18T14:29:02Z</time></trkpt><trkpt lat="56.1016881779354" lon="22.194186209142146"><ele>123.0</ele><time>2026-04-18T14:29:03Z</time></trkpt><trkpt lat="56.101776738914594" lon="22.19424527073615"><ele>123.0</ele><time>2026-04-18T14:29:04Z</time></trkpt><trkpt lat="56.10186126091281" lon="22.194282355857116"><ele>122.25</ele><time>2026-04-18T14:29:05Z</time></trkpt><trkpt lat="56.10195007597622" lon="22.194327723426888"><ele>121.5</ele><time>2026-04-18T14:29:06Z</time></trkpt><trkpt lat="56.1020628618447" lon="22.194351570212422"><ele>120.75</ele><time>2026-04-18T14:29:07Z</time></trkpt><trkpt lat="56.10217720380153" lon="22.194389313722017"><ele>120.0</ele><time>2026-04-18T14:29:08Z</time></trkpt><trkpt lat="56.10230186399819" lon="22.19429110343994"><ele>120.0</ele><time>2026-04-18T14:29:09Z</time></trkpt><trkpt lat="56.10241722362238" lon="22.194254098694103"><ele>120.0</ele><time>2026-04-18T14:29:10Z</time></trkpt><trkpt lat="56.10252379403666" lon="22.194210254747404"><ele>120.0</ele><time>2026-04-18T14:29:11Z</time></trkpt><trkpt lat="56.102642185691536" lon="22.194068300601334"><ele>120.0</ele><time>2026-04-18T14:29:12Z</time></trkpt><trkpt lat="56.10272889438378" lon="22.19386295805173"><ele>120.0</ele><time>2026-04-18T14:29:13Z</time></trkpt><trkpt lat="56.10281908697534" lon="22.193675833722292"><ele>120.0</ele><time>2026-04-18T14:29:14Z</time></trkpt><trkpt lat="56.102916155224236" lon="22.193447033398108"><ele>120.0</ele><time>2026-04-18T14:29:15Z</time></trkpt><trkpt lat="56.103021065409465" lon="22.193250085901937"><ele>120.33333333333334</ele><time>2026-04-18T14:29:16Z</time></trkpt><trkpt lat="56.10311055347102" lon="22.193043608511513"><ele>120.66666666666667</ele><time>2026-04-18T14:29:17Z</time></trkpt><trkpt lat="56.10323106251573" lon="22.192823857069016"><ele>121.0</ele><time>2026-04-18T14:29:18Z</time></trkpt><trkpt lat="56.10330766330347" lon="22.19262054053127"><ele>121.25</ele><time>2026-04-18T14:29:19Z</time></trkpt><trkpt lat="56.103402061142894" lon="22.192470351752075"><ele>121.5</ele><time>2026-04-18T14:29:20Z</time></trkpt><trkpt lat="56.103481706506436" lon="22.192305322969407"><ele>121.75</ele><time>2026-04-18T14:29:21Z</time></trkpt><trkpt lat="56.103558101653235" lon="22.192147029843653"><ele>122.0</ele><time>2026-04-18T14:29:22Z</time></trkpt><trkpt lat="56.103639751272574" lon="22.19197938904092"><ele>120.66666666666666</ele><time>2026-04-18T14:29:23Z</time></trkpt><trkpt lat="56.10370956953777" lon="22.191784313193725"><ele>119.33333333333334</ele><time>2026-04-18T14:29:24Z</time></trkpt><trkpt lat="56.10378158316679" lon="22.191553157499758"><ele>118.0</ele><time>2026-04-18T14:29:25Z</time></trkpt><trkpt lat="56.10385763153116" lon="22.191252077740604"><ele>117.33333333333334</ele><time>2026-04-18T14:29:26Z</time></trkpt><trkpt lat="56.10393248803427" lon="22.190955935808812"><ele>116.66666666666666</ele><time>2026-04-18T14:29:27Z</time></trkpt><trkpt lat="56.103997451351674" lon="22.190699710719212"><ele>116.0</ele><time>2026-04-18T14:29:28Z</time></trkpt><trkpt lat="56.10404020457989" lon="22.190462197597157"><ele>116.4</ele><time>2026-04-18T14:29:29Z</time></trkpt><trkpt lat="56.10409061202122" lon="22.190275937112325"><ele>116.8</ele><time>2026-04-18T14:29:30Z</time></trkpt><trkpt lat="56.104140295478636" lon="22.190100602257147"><ele>117.20000000000002</ele><time>2026-04-18T14:29:31Z</time></trkpt><trkpt lat="56.10418181032412" lon="22.189948007389138"><ele>117.60000000000001</ele><time>2026-04-18T14:29:32Z</time></trkpt><trkpt lat="56.104222091458524" lon="22.189818840263403"><ele>118.0</ele><time>2026-04-18T14:29:33Z</time></trkpt><trkpt lat="56.104247699717035" lon="22.18969476861152"><ele>118.2</ele><time>2026-04-18T14:29:34Z</time></trkpt><trkpt lat="56.104266191381235" lon="22.189570646803805"><ele>118.4</ele><time>2026-04-18T14:29:35Z</time></trkpt><trkpt lat="56.10430735377655" lon="22.18947511737352"><ele>118.60000000000001</ele><time>2026-04-18T14:29:36Z</time></trkpt><trkpt lat="56.10426238114963" lon="22.189283916926595"><ele>118.80000000000001</ele><time>2026-04-18T14:29:37Z</time></trkpt><trkpt lat="56.10417008708149" lon="22.189160981307445"><ele>119.0</ele><time>2026-04-18T14:29:38Z</time></trkpt><trkpt lat="56.10409569060628" lon="22.188959088133124"><ele>120.2</ele><time>2026-04-18T14:29:39Z</time></trkpt><trkpt lat="56.104029825548196" lon="22.188820218210605"><ele>121.4</ele><time>2026-04-18T14:29:40Z</time></trkpt><trkpt lat="56.10396021017462" lon="22.18865246918516"><ele>122.6</ele><time>2026-04-18T14:29:42Z</time></trkpt><trkpt lat="56.10392906975759" lon="22.188545410612107"><ele>123.8</ele><time>2026-04-18T14:29:42.999Z</time></trkpt><trkpt lat="56.103985821515806" lon="22.18839830568472"><ele>125.0</ele><time>2026-04-18T14:29:43.999Z</time></trkpt><trkpt lat="56.10402277548167" lon="22.188229905423295"><ele>124.5</ele><time>2026-04-18T14:29:44.999Z</time></trkpt><trkpt lat="56.104063903786816" lon="22.188042400716228"><ele>124.0</ele><time>2026-04-18T14:29:45.999Z</time></trkpt><trkpt lat="56.10410785388396" lon="22.18782665461904"><ele>123.5</ele><time>2026-04-18T14:29:46.999Z</time></trkpt><trkpt lat="56.104164830816686" lon="22.18760179404231"><ele>123.0</ele><time>2026-04-18T14:29:47.999Z</time></trkpt><trkpt lat="56.104222593659564" lon="22.187341753055147"><ele>123.0</ele><time>2026-04-18T14:29:48.999Z</time></trkpt><trkpt lat="56.104284182082765" lon="22.187097770086567"><ele>123.0</ele><time>2026-04-18T14:29:49.999Z</time></trkpt><trkpt lat="56.10433720403732" lon="22.18689773630693"><ele>123.0</ele><time>2026-04-18T14:29:50.999Z</time></trkpt><trkpt lat="56.104387488145214" lon="22.18669090336895"><ele>123.0</ele><time>2026-04-18T14:29:51.999Z</time></trkpt><trkpt lat="56.1044322451668" lon="22.18650772436821"><ele>123.2</ele><time>2026-04-18T14:29:52.999Z</time></trkpt><trkpt lat="56.1044754027936" lon="22.186342143508146"><ele>123.4</ele><time>2026-04-18T14:29:53.999Z</time></trkpt><trkpt lat="56.10452099963377" lon="22.186171309857674"><ele>123.60000000000001</ele><time>2026-04-18T14:29:54.999Z</time></trkpt><trkpt lat="56.104576718066404" lon="22.185983805234386"><ele>123.80000000000001</ele><time>2026-04-18T14:29:55.999Z</time></trkpt><trkpt lat="56.10462217889187" lon="22.185815082647377"><ele>124.0</ele><time>2026-04-18T14:29:56.999Z</time></trkpt><trkpt lat="56.10467763188419" lon="22.185626279555976"><ele>124.0</ele><time>2026-04-18T14:29:57.999Z</time></trkpt><trkpt lat="56.10472610601463" lon="22.18543360972741"><ele>124.0</ele><time>2026-04-18T14:29:58.999Z</time></trkpt><trkpt lat="56.104771261056946" lon="22.1852773077186"><ele>124.0</ele><time>2026-04-18T14:29:59.999Z</time></trkpt><trkpt lat="56.104804286453685" lon="22.185130728689444"><ele>124.0</ele><time>2026-04-18T14:30:00.999Z</time></trkpt><trkpt lat="56.1048367662304" lon="22.184999614783315"><ele>124.0</ele><time>2026-04-18T14:30:01.999Z</time></trkpt><trkpt lat="56.1048598093062" lon="22.18486694094527"><ele>124.00000000000001</ele><time>2026-04-18T14:30:02.999Z</time></trkpt><trkpt lat="56.1048764491791" lon="22.184723390688486"><ele>124.0</ele><time>2026-04-18T14:30:03.999Z</time></trkpt><trkpt lat="56.10489272399189" lon="22.184562154767892"><ele>124.0</ele><time>2026-04-18T14:30:04.999Z</time></trkpt><trkpt lat="56.10490700986808" lon="22.18441155180263"><ele>124.0</ele><time>2026-04-18T14:30:05.999Z</time></trkpt><trkpt lat="56.10492410627627" lon="22.184246648007424"><ele>124.00000000000001</ele><time>2026-04-18T14:30:06.999Z</time></trkpt><trkpt lat="56.10495789710423" lon="22.18408500077819"><ele>124.0</ele><time>2026-04-18T14:30:07.999Z</time></trkpt><trkpt lat="56.10498853227338" lon="22.183933857226773"><ele>122.75</ele><time>2026-04-18T14:30:08.999Z</time></trkpt><trkpt lat="56.105023256967435" lon="22.18376476688964"><ele>121.5</ele><time>2026-04-18T14:30:09.999Z</time></trkpt><trkpt lat="56.10508791085196" lon="22.183592723189502"><ele>120.25</ele><time>2026-04-18T14:30:10.999Z</time></trkpt><trkpt lat="56.10517522785428" lon="22.183351363515058"><ele>119.0</ele><time>2026-04-18T14:30:11.999Z</time></trkpt><trkpt lat="56.10527234585786" lon="22.1830793241496"><ele>118.5</ele><time>2026-04-18T14:30:12.999Z</time></trkpt><trkpt lat="56.1053529016729" lon="22.182844588221933"><ele>118.0</ele><time>2026-04-18T14:30:13.999Z</time></trkpt><trkpt lat="56.10541392741443" lon="22.18265473173838"><ele>117.5</ele><time>2026-04-18T14:30:14.999Z</time></trkpt><trkpt lat="56.10548552138062" lon="22.182473689477938"><ele>117.0</ele><time>2026-04-18T14:30:15.999Z</time></trkpt><trkpt lat="56.10554706007745" lon="22.182325300517814"><ele>117.0</ele><time>2026-04-18T14:30:16.999Z</time></trkpt><trkpt lat="56.105626871359775" lon="22.182100161092485"><ele>117.0</ele><time>2026-04-18T14:30:17.999Z</time></trkpt><trkpt lat="56.10572292402059" lon="22.181884871036935"><ele>117.0</ele><time>2026-04-18T14:30:18.999Z</time></trkpt><trkpt lat="56.105840962090994" lon="22.181658763526947"><ele>117.75</ele><time>2026-04-18T14:30:19.999Z</time></trkpt><trkpt lat="56.10594780663156" lon="22.18146829344588"><ele>118.5</ele><time>2026-04-18T14:30:20.999Z</time></trkpt><trkpt lat="56.10605328885215" lon="22.181286966966674"><ele>119.25</ele><time>2026-04-18T14:30:21.999Z</time></trkpt><trkpt lat="56.10615854230947" lon="22.18109110058185"><ele>120.0</ele><time>2026-04-18T14:30:22.999Z</time></trkpt><trkpt lat="56.10625828718076" lon="22.180864065026217"><ele>119.66666666666666</ele><time>2026-04-18T14:30:23.999Z</time></trkpt><trkpt lat="56.10635535855096" lon="22.18059918331428"><ele>119.33333333333333</ele><time>2026-04-18T14:30:24.999Z</time></trkpt><trkpt lat="56.106469876066875" lon="22.18032893455107"><ele>119.0</ele><time>2026-04-18T14:30:25.999Z</time></trkpt><trkpt lat="56.106560873435576" lon="22.180079578182763"><ele>118.75</ele><time>2026-04-18T14:30:26.999Z</time></trkpt><trkpt lat="56.10664618153328" lon="22.179852350759187"><ele>118.5</ele><time>2026-04-18T14:30:27.999Z</time></trkpt><trkpt lat="56.10672522394268" lon="22.179649586294456"><ele>118.25</ele><time>2026-04-18T14:30:28.999Z</time></trkpt><trkpt lat="56.106803599262804" lon="22.17944693632552"><ele>118.0</ele><time>2026-04-18T14:30:29.999Z</time></trkpt><trkpt lat="56.10686508460375" lon="22.179277038723956"><ele>117.83333333333334</ele><time>2026-04-18T14:30:30.999Z</time></trkpt><trkpt lat="56.10691761743743" lon="22.17912445701647"><ele>117.66666666666667</ele><time>2026-04-18T14:30:32Z</time></trkpt><trkpt lat="56.106967802130384" lon="22.17898637205679"><ele>117.5</ele><time>2026-04-18T14:30:33Z</time></trkpt><trkpt lat="56.10701116854086" lon="22.178873528740148"><ele>117.33333333333334</ele><time>2026-04-18T14:30:34Z</time></trkpt><trkpt lat="56.10705367124371" lon="22.178758854472807"><ele>117.16666666666667</ele><time>2026-04-18T14:30:35Z</time></trkpt><trkpt lat="56.10709038950449" lon="22.178664542981576"><ele>117.0</ele><time>2026-04-18T14:30:36Z</time></trkpt><trkpt lat="56.107139507494296" lon="22.17857827722521"><ele>117.5</ele><time>2026-04-18T14:30:37Z</time></trkpt><trkpt lat="56.10721453797408" lon="22.178391473123465"><ele>118.0</ele><time>2026-04-18T14:30:39Z</time></trkpt><trkpt lat="56.10737408266908" lon="22.17832602277449"><ele>118.5</ele><time>2026-04-18T14:30:40Z</time></trkpt><trkpt lat="56.10746892577584" lon="22.17834203412736"><ele>119.0</ele><time>2026-04-18T14:30:41Z</time></trkpt><trkpt lat="56.10754893773444" lon="22.178363237401868"><ele>119.33333333333333</ele><time>2026-04-18T14:30:42Z</time></trkpt><trkpt lat="56.10762034622259" lon="22.178340754323457"><ele>119.66666666666666</ele><time>2026-04-18T14:30:43Z</time></trkpt><trkpt lat="56.10768999419225" lon="22.17836254218711"><ele>120.0</ele><time>2026-04-18T14:30:44Z</time></trkpt><trkpt lat="56.1077745430548" lon="22.178376322266708"><ele>120.33333333333334</ele><time>2026-04-18T14:30:45Z</time></trkpt><trkpt lat="56.10786891138402" lon="22.178367435871074"><ele>120.66666666666667</ele><time>2026-04-18T14:30:46Z</time></trkpt><trkpt lat="56.107959588378165" lon="22.178386140888236"><ele>121.0</ele><time>2026-04-18T14:30:47Z</time></trkpt><trkpt lat="56.108064952340406" lon="22.178415785842695"><ele>121.0</ele><time>2026-04-18T14:30:48Z</time></trkpt><trkpt lat="56.10817849403486" lon="22.17843613616812"><ele>121.0</ele><time>2026-04-18T14:30:49Z</time></trkpt><trkpt lat="56.10829446875102" lon="22.178453971075694"><ele>121.0</ele><time>2026-04-18T14:30:50Z</time></trkpt><trkpt lat="56.108406349421934" lon="22.17847428988096"><ele>121.0</ele><time>2026-04-18T14:30:51Z</time></trkpt><trkpt lat="56.108524186684726" lon="22.178498037086413"><ele>120.0</ele><time>2026-04-18T14:30:52Z</time></trkpt><trkpt lat="56.10864008519177" lon="22.178526007838474"><ele>119.0</ele><time>2026-04-18T14:30:53Z</time></trkpt><trkpt lat="56.10874380135217" lon="22.178554377625193"><ele>118.0</ele><time>2026-04-18T14:30:54Z</time></trkpt><trkpt lat="56.1088446082656" lon="22.178568034523142"><ele>117.0</ele><time>2026-04-18T14:30:55Z</time></trkpt><trkpt lat="56.10895356738198" lon="22.17858264715073"><ele>116.0</ele><time>2026-04-18T14:30:56Z</time></trkpt><trkpt lat="56.10905562451685" lon="22.178603973714342"><ele>115.4</ele><time>2026-04-18T14:30:57Z</time></trkpt><trkpt lat="56.109163942584374" lon="22.178604004776695"><ele>114.8</ele><time>2026-04-18T14:30:58Z</time></trkpt><trkpt lat="56.10927087893144" lon="22.17860892485203"><ele>114.20000000000002</ele><time>2026-04-18T14:30:59Z</time></trkpt><trkpt lat="56.10937816357666" lon="22.178621377479107"><ele>113.60000000000001</ele><time>2026-04-18T14:31:00Z</time></trkpt><trkpt lat="56.109479239112844" lon="22.178629972182694"><ele>113.0</ele><time>2026-04-18T14:31:01Z</time></trkpt><trkpt lat="56.10958143630038" lon="22.178638684320056"><ele>113.0</ele><time>2026-04-18T14:31:02Z</time></trkpt><trkpt lat="56.109684939501214" lon="22.17865022654629"><ele>113.00000000000001</ele><time>2026-04-18T14:31:03Z</time></trkpt><trkpt lat="56.109790169593964" lon="22.1786618418887"><ele>113.00000000000001</ele><time>2026-04-18T14:31:04.001Z</time></trkpt><trkpt lat="56.1099038499319" lon="22.178667368314397"><ele>113.0</ele><time>2026-04-18T14:31:05.001Z</time></trkpt><trkpt lat="56.11000291436199" lon="22.178683832341978"><ele>113.0</ele><time>2026-04-18T14:31:06.001Z</time></trkpt><trkpt lat="56.11010428452697" lon="22.178689946824555"><ele>112.33333333333333</ele><time>2026-04-18T14:31:07.001Z</time></trkpt><trkpt lat="56.11020489236718" lon="22.178699574431022"><ele>111.66666666666666</ele><time>2026-04-18T14:31:08.001Z</time></trkpt><trkpt lat="56.11029277233138" lon="22.17871245865621"><ele>111.0</ele><time>2026-04-18T14:31:09.001Z</time></trkpt><trkpt lat="56.11036989868951" lon="22.178720816135357"><ele>110.33333333333334</ele><time>2026-04-18T14:31:10.001Z</time></trkpt><trkpt lat="56.11043720838533" lon="22.178743637546464"><ele>109.66666666666667</ele><time>2026-04-18T14:31:11.001Z</time></trkpt><trkpt lat="56.110511119771076" lon="22.17874663270109"><ele>109.0</ele><time>2026-04-18T14:31:12.001Z</time></trkpt><trkpt lat="56.11057568278726" lon="22.178759674580235"><ele>109.0</ele><time>2026-04-18T14:31:13.001Z</time></trkpt><trkpt lat="56.110662455705906" lon="22.178770872790395"><ele>109.0</ele><time>2026-04-18T14:31:15.001Z</time></trkpt><trkpt lat="56.11075768010024" lon="22.178785395306676"><ele>109.0</ele><time>2026-04-18T14:31:18.001Z</time></trkpt><trkpt lat="56.11086944546415" lon="22.17880001669748"><ele>109.0</ele><time>2026-04-18T14:31:21.001Z</time></trkpt><trkpt lat="56.1109472359524" lon="22.178819860098486"><ele>109.0</ele><time>2026-04-18T14:31:22.001Z</time></trkpt><trkpt lat="56.11104068101099" lon="22.178829730265505"><ele>109.4</ele><time>2026-04-18T14:31:23.001Z</time></trkpt><trkpt lat="56.111120734310816" lon="22.17883375261873"><ele>109.80000000000001</ele><time>2026-04-18T14:31:24.001Z</time></trkpt><trkpt lat="56.11120748133725" lon="22.1788179441858"><ele>110.19999999999999</ele><time>2026-04-18T14:31:25.001Z</time></trkpt><trkpt lat="56.11130442241416" lon="22.1787648460326"><ele>110.6</ele><time>2026-04-18T14:31:26.001Z</time></trkpt><trkpt lat="56.11141392431645" lon="22.178673034724756"><ele>111.0</ele><time>2026-04-18T14:31:27.001Z</time></trkpt><trkpt lat="56.11149455259834" lon="22.17860256840254"><ele>111.0</ele><time>2026-04-18T14:31:28.001Z</time></trkpt><trkpt lat="56.111565163497474" lon="22.17852432595247"><ele>111.0</ele><time>2026-04-18T14:31:29.001Z</time></trkpt><trkpt lat="56.11163550232697" lon="22.17843318356217"><ele>111.0</ele><time>2026-04-18T14:31:30.001Z</time></trkpt><trkpt lat="56.11170153017715" lon="22.178372844621496"><ele>111.0</ele><time>2026-04-18T14:31:31.001Z</time></trkpt><trkpt lat="56.111763600312045" lon="22.1783100949292"><ele>111.0</ele><time>2026-04-18T14:31:32.001Z</time></trkpt><trkpt lat="56.111831587531825" lon="22.178263928684224"><ele>111.0</ele><time>2026-04-18T14:31:33.001Z</time></trkpt><trkpt lat="56.11190420652516" lon="22.178209990495006"><ele>112.6</ele><time>2026-04-18T14:31:34.001Z</time></trkpt><trkpt lat="56.1119889144907" lon="22.17811908001673"><ele>114.19999999999999</ele><time>2026-04-18T14:31:35.001Z</time></trkpt><trkpt lat="56.112079204696336" lon="22.178064226087095"><ele>115.80000000000001</ele><time>2026-04-18T14:31:36.001Z</time></trkpt><trkpt lat="56.11217175623982" lon="22.17800996699912"><ele>117.4</ele><time>2026-04-18T14:31:37.001Z</time></trkpt><trkpt lat="56.11225421876296" lon="22.17794443330211"><ele>119.0</ele><time>2026-04-18T14:31:38.001Z</time></trkpt><trkpt lat="56.11233330447751" lon="22.177937069985884"><ele>119.83333333333333</ele><time>2026-04-18T14:31:39.001Z</time></trkpt><trkpt lat="56.11240760606704" lon="22.177901310241243"><ele>120.66666666666666</ele><time>2026-04-18T14:31:40.001Z</time></trkpt><trkpt lat="56.112495594171435" lon="22.177858937890495"><ele>121.5</ele><time>2026-04-18T14:31:41.001Z</time></trkpt><trkpt lat="56.112572115220495" lon="22.17782213552783"><ele>122.33333333333334</ele><time>2026-04-18T14:31:42.001Z</time></trkpt><trkpt lat="56.11264198652694" lon="22.17778884266825"><ele>123.16666666666667</ele><time>2026-04-18T14:31:43.001Z</time></trkpt><trkpt lat="56.11273013168079" lon="22.17774681902128"><ele>124.0</ele><time>2026-04-18T14:31:44.001Z</time></trkpt><trkpt lat="56.11280008742334" lon="22.17771332195728"><ele>124.0</ele><time>2026-04-18T14:31:45.001Z</time></trkpt><trkpt lat="56.11287892703013" lon="22.17767493966196"><ele>124.0</ele><time>2026-04-18T14:31:46.001Z</time></trkpt><trkpt lat="56.112960463315595" lon="22.1776357956357"><ele>124.0</ele><time>2026-04-18T14:31:47.001Z</time></trkpt><trkpt lat="56.113051630246225" lon="22.17759259963742"><ele>124.0</ele><time>2026-04-18T14:31:48.001Z</time></trkpt><trkpt lat="56.11313577700719" lon="22.177529325193955"><ele>124.0</ele><time>2026-04-18T14:31:49.001Z</time></trkpt><trkpt lat="56.11323647883294" lon="22.177483315920703"><ele>124.6</ele><time>2026-04-18T14:31:50.001Z</time></trkpt><trkpt lat="56.1133433973638" lon="22.177454528397"><ele>125.2</ele><time>2026-04-18T14:31:51.001Z</time></trkpt><trkpt lat="56.11343921313865" lon="22.17743439726064"><ele>125.79999999999998</ele><time>2026-04-18T14:31:52.001Z</time></trkpt><trkpt lat="56.113521743122114" lon="22.17742717140697"><ele>126.39999999999999</ele><time>2026-04-18T14:31:53.001Z</time></trkpt><trkpt lat="56.11359742802355" lon="22.17742058586033"><ele>127.0</ele><time>2026-04-18T14:31:54.001Z</time></trkpt><trkpt lat="56.11368927095999" lon="22.177399621092754"><ele>127.00000000000001</ele><time>2026-04-18T14:31:55.001Z</time></trkpt><trkpt lat="56.11378185139561" lon="22.177380685911405"><ele>127.0</ele><time>2026-04-18T14:31:56.001Z</time></trkpt><trkpt lat="56.113873502811416" lon="22.177359083873718"><ele>127.0</ele><time>2026-04-18T14:31:57.001Z</time></trkpt><trkpt lat="56.11396346017415" lon="22.17731847159581"><ele>127.0</ele><time>2026-04-18T14:31:58.001Z</time></trkpt><trkpt lat="56.11403636672307" lon="22.17727140534295"><ele>127.00000000000001</ele><time>2026-04-18T14:31:59.001Z</time></trkpt><trkpt lat="56.11409516427368" lon="22.177206403170295"><ele>127.0</ele><time>2026-04-18T14:32:00.001Z</time></trkpt><trkpt lat="56.11417436600927" lon="22.177164849840416"><ele>127.00000000000001</ele><time>2026-04-18T14:32:01.001Z</time></trkpt><trkpt lat="56.11425520720426" lon="22.177105908832154"><ele>127.0</ele><time>2026-04-18T14:32:02.001Z</time></trkpt><trkpt lat="56.11432683409663" lon="22.177054320638085"><ele>127.0</ele><time>2026-04-18T14:32:03.001Z</time></trkpt><trkpt lat="56.114391570225656" lon="22.17699313740553"><ele>127.0</ele><time>2026-04-18T14:32:04.001Z</time></trkpt><trkpt lat="56.1144575892365" lon="22.176999883494187"><ele>127.00000000000001</ele><time>2026-04-18T14:32:05.001Z</time></trkpt><trkpt lat="56.11453342865656" lon="22.177028391105022"><ele>127.0</ele><time>2026-04-18T14:32:06.001Z</time></trkpt><trkpt lat="56.11462416270009" lon="22.17704427388898"><ele>127.0</ele><time>2026-04-18T14:32:07Z</time></trkpt><trkpt lat="56.11471674715797" lon="22.177103831943718"><ele>126.99999999999999</ele><time>2026-04-18T14:32:08Z</time></trkpt><trkpt lat="56.11477730431764" lon="22.17718575849828"><ele>126.99999999999999</ele><time>2026-04-18T14:32:09Z</time></trkpt><trkpt lat="56.11486798585942" lon="22.177247364031327"><ele>127.0</ele><time>2026-04-18T14:32:10Z</time></trkpt><trkpt lat="56.11496527041142" lon="22.17731032643541"><ele>127.0</ele><time>2026-04-18T14:32:11Z</time></trkpt><trkpt lat="56.115081090458744" lon="22.177421893977666"><ele>126.66666666666667</ele><time>2026-04-18T14:32:12Z</time></trkpt><trkpt lat="56.11523008185015" lon="22.177545655984822"><ele>126.33333333333334</ele><time>2026-04-18T14:32:13Z</time></trkpt><trkpt lat="56.11539799928864" lon="22.17764738992787"><ele>126.0</ele><time>2026-04-18T14:32:14Z</time></trkpt><trkpt lat="56.11559454807733" lon="22.17775998655432"><ele>126.33333333333334</ele><time>2026-04-18T14:32:15Z</time></trkpt><trkpt lat="56.115778002287925" lon="22.177813069623376"><ele>126.66666666666667</ele><time>2026-04-18T14:32:16Z</time></trkpt><trkpt lat="56.115935452167754" lon="22.17786553523435"><ele>127.0</ele><time>2026-04-18T14:32:17Z</time></trkpt><trkpt lat="56.11605392522694" lon="22.17790441781844"><ele>127.0</ele><time>2026-04-18T14:32:18Z</time></trkpt><trkpt lat="56.11616699452735" lon="22.177935271459678"><ele>126.99999999999999</ele><time>2026-04-18T14:32:19Z</time></trkpt><trkpt lat="56.11627182119981" lon="22.177948791189444"><ele>126.99999999999999</ele><time>2026-04-18T14:32:20Z</time></trkpt><trkpt lat="56.11637052003809" lon="22.17796778693818"><ele>127.0</ele><time>2026-04-18T14:32:21Z</time></trkpt><trkpt lat="56.116480428205115" lon="22.177902382350084"><ele>127.0</ele><time>2026-04-18T14:32:22Z</time></trkpt><trkpt lat="56.11661396468252" lon="22.177843319598548"><ele>127.75</ele><time>2026-04-18T14:32:23Z</time></trkpt><trkpt lat="56.116755653526845" lon="22.17777277093245"><ele>128.5</ele><time>2026-04-18T14:32:24Z</time></trkpt><trkpt lat="56.11688395851787" lon="22.177709481171735"><ele>129.25</ele><time>2026-04-18T14:32:25Z</time></trkpt><trkpt lat="56.11701455808176" lon="22.17763349490507"><ele>130.0</ele><time>2026-04-18T14:32:26Z</time></trkpt><trkpt lat="56.117160224988034" lon="22.177607164228192"><ele>130.0</ele><time>2026-04-18T14:32:27Z</time></trkpt><trkpt lat="56.11732274475574" lon="22.177560010867232"><ele>130.0</ele><time>2026-04-18T14:32:28Z</time></trkpt><trkpt lat="56.11748020490981" lon="22.177519377793807"><ele>130.0</ele><time>2026-04-18T14:32:29Z</time></trkpt><trkpt lat="56.11763120571278" lon="22.177495790534927"><ele>129.75</ele><time>2026-04-18T14:32:30Z</time></trkpt><trkpt lat="56.11776364218098" lon="22.17746186521212"><ele>129.5</ele><time>2026-04-18T14:32:31Z</time></trkpt><trkpt lat="56.11788815820353" lon="22.177429176353897"><ele>129.25</ele><time>2026-04-18T14:32:32Z</time></trkpt><trkpt lat="56.118029276552086" lon="22.177397069975335"><ele>129.0</ele><time>2026-04-18T14:32:33Z</time></trkpt><trkpt lat="56.1181797779473" lon="22.177382619401325"><ele>128.75</ele><time>2026-04-18T14:32:34Z</time></trkpt><trkpt lat="56.11833263661217" lon="22.17734791558179"><ele>128.5</ele><time>2026-04-18T14:32:35Z</time></trkpt><trkpt lat="56.11845857852356" lon="22.177318525481986"><ele>128.25</ele><time>2026-04-18T14:32:36Z</time></trkpt><trkpt lat="56.118580578164696" lon="22.177262226706343"><ele>128.0</ele><time>2026-04-18T14:32:37Z</time></trkpt><trkpt lat="56.11870519100426" lon="22.177176914323947"><ele>128.0</ele><time>2026-04-18T14:32:38Z</time></trkpt><trkpt lat="56.11883965102253" lon="22.17713422031202"><ele>128.0</ele><time>2026-04-18T14:32:39Z</time></trkpt><trkpt lat="56.11897963789577" lon="22.17707945698875"><ele>128.0</ele><time>2026-04-18T14:32:40Z</time></trkpt><trkpt lat="56.119101209291124" lon="22.177031439616556"><ele>128.0</ele><time>2026-04-18T14:32:41Z</time></trkpt><trkpt lat="56.119218844739386" lon="22.176996537208577"><ele>127.0</ele><time>2026-04-18T14:32:42Z</time></trkpt><trkpt lat="56.11931140926548" lon="22.17697535836876"><ele>126.00000000000001</ele><time>2026-04-18T14:32:43Z</time></trkpt><trkpt lat="56.11940308856792" lon="22.176996824959062"><ele>125.00000000000001</ele><time>2026-04-18T14:32:44Z</time></trkpt><trkpt lat="56.119505670910854" lon="22.17699501808126"><ele>124.0</ele><time>2026-04-18T14:32:45Z</time></trkpt><trkpt lat="56.11960363824079" lon="22.176965101349026"><ele>123.0</ele><time>2026-04-18T14:32:46Z</time></trkpt><trkpt lat="56.11970572262612" lon="22.176988935089994"><ele>123.0</ele><time>2026-04-18T14:32:47Z</time></trkpt><trkpt lat="56.11979030121705" lon="22.17704713127414"><ele>123.00000000000001</ele><time>2026-04-18T14:32:48Z</time></trkpt><trkpt lat="56.119865061553845" lon="22.177082054102375"><ele>123.00000000000001</ele><time>2026-04-18T14:32:49Z</time></trkpt><trkpt lat="56.11994985123103" lon="22.177101694322523"><ele>123.0</ele><time>2026-04-18T14:32:50Z</time></trkpt><trkpt lat="56.12001447766579" lon="22.177231585361863"><ele>123.0</ele><time>2026-04-18T14:32:51Z</time></trkpt><trkpt lat="56.1201171078197" lon="22.177368613891684"><ele>123.25</ele><time>2026-04-18T14:32:52Z</time></trkpt><trkpt lat="56.12024368262061" lon="22.177505264729728"><ele>123.5</ele><time>2026-04-18T14:32:53Z</time></trkpt><trkpt lat="56.120341769381405" lon="22.177668966159697"><ele>123.75</ele><time>2026-04-18T14:32:54Z</time></trkpt><trkpt lat="56.12044548972645" lon="22.17773166560836"><ele>124.0</ele><time>2026-04-18T14:32:55Z</time></trkpt><trkpt lat="56.12054811733678" lon="22.17782482632341"><ele>124.0</ele><time>2026-04-18T14:32:56Z</time></trkpt><trkpt lat="56.120655949655095" lon="22.177916251565275"><ele>124.0</ele><time>2026-04-18T14:32:57Z</time></trkpt><trkpt lat="56.1207604206127" lon="22.178011697584473"><ele>124.0</ele><time>2026-04-18T14:32:58Z</time></trkpt><trkpt lat="56.12086648844109" lon="22.17814300137295"><ele>124.0</ele><time>2026-04-18T14:32:59Z</time></trkpt><trkpt lat="56.12097307324295" lon="22.178249410109295"><ele>124.75</ele><time>2026-04-18T14:33:00Z</time></trkpt><trkpt lat="56.12108782705385" lon="22.178359859887003"><ele>125.5</ele><time>2026-04-18T14:33:01Z</time></trkpt><trkpt lat="56.12119760885048" lon="22.178470035071324"><ele>126.25</ele><time>2026-04-18T14:33:02Z</time></trkpt><trkpt lat="56.12130422059413" lon="22.17859843448396"><ele>127.0</ele><time>2026-04-18T14:33:03Z</time></trkpt><trkpt lat="56.12140935270264" lon="22.17872034794896"><ele>127.0</ele><time>2026-04-18T14:33:04Z</time></trkpt><trkpt lat="56.1215269028426" lon="22.178826038010648"><ele>127.0</ele><time>2026-04-18T14:33:05Z</time></trkpt><trkpt lat="56.121636821070766" lon="22.17892778126862"><ele>127.0</ele><time>2026-04-18T14:33:06Z</time></trkpt><trkpt lat="56.12173955680908" lon="22.179018967500838"><ele>127.0</ele><time>2026-04-18T14:33:07Z</time></trkpt><trkpt lat="56.12183063216969" lon="22.179078601795783"><ele>126.5</ele><time>2026-04-18T14:33:08Z</time></trkpt><trkpt lat="56.121927272520935" lon="22.179145812270928"><ele>126.0</ele><time>2026-04-18T14:33:09Z</time></trkpt><trkpt lat="56.12203584354796" lon="22.179231263146736"><ele>125.5</ele><time>2026-04-18T14:33:10.001Z</time></trkpt><trkpt lat="56.12214609446148" lon="22.179290536309846"><ele>125.0</ele><time>2026-04-18T14:33:11.001Z</time></trkpt><trkpt lat="56.12226315830037" lon="22.17933071894597"><ele>125.0</ele><time>2026-04-18T14:33:12.001Z</time></trkpt><trkpt lat="56.12238530284358" lon="22.179347900391107"><ele>125.0</ele><time>2026-04-18T14:33:13.001Z</time></trkpt><trkpt lat="56.1225075827711" lon="22.17936028414302"><ele>125.0</ele><time>2026-04-18T14:33:14.001Z</time></trkpt><trkpt lat="56.12263048540605" lon="22.179358307697644"><ele>125.0</ele><time>2026-04-18T14:33:15.001Z</time></trkpt><trkpt lat="56.122745366397425" lon="22.179356550535168"><ele>123.5</ele><time>2026-04-18T14:33:16.001Z</time></trkpt><trkpt lat="56.12286362142571" lon="22.17935169673116"><ele>122.0</ele><time>2026-04-18T14:33:17.001Z</time></trkpt><trkpt lat="56.12298757920951" lon="22.1793553378876"><ele>120.5</ele><time>2026-04-18T14:33:18.001Z</time></trkpt><trkpt lat="56.12309453530402" lon="22.17936787090133"><ele>119.0</ele><time>2026-04-18T14:33:19.001Z</time></trkpt><trkpt lat="56.123199642235335" lon="22.17939036659143"><ele>119.2</ele><time>2026-04-18T14:33:20.001Z</time></trkpt><trkpt lat="56.123318441145834" lon="22.179418175776465"><ele>119.4</ele><time>2026-04-18T14:33:21.001Z</time></trkpt><trkpt lat="56.12342681567583" lon="22.179454161291726"><ele>119.6</ele><time>2026-04-18T14:33:22.001Z</time></trkpt><trkpt lat="56.12352894337841" lon="22.17946498996075"><ele>119.8</ele><time>2026-04-18T14:33:23.001Z</time></trkpt><trkpt lat="56.12363553727914" lon="22.179485066078065"><ele>120.0</ele><time>2026-04-18T14:33:24.001Z</time></trkpt><trkpt lat="56.123760179331754" lon="22.179522212908907"><ele>120.0</ele><time>2026-04-18T14:33:25.001Z</time></trkpt><trkpt lat="56.12387879262135" lon="22.179553077053868"><ele>120.0</ele><time>2026-04-18T14:33:26Z</time></trkpt><trkpt lat="56.123991341221554" lon="22.179557446874067"><ele>120.0</ele><time>2026-04-18T14:33:27Z</time></trkpt><trkpt lat="56.1240969625605" lon="22.17957355938592"><ele>120.0</ele><time>2026-04-18T14:33:28Z</time></trkpt><trkpt lat="56.124200039477394" lon="22.179595583951304"><ele>120.0</ele><time>2026-04-18T14:33:29Z</time></trkpt><trkpt lat="56.12428661816084" lon="22.17961075215072"><ele>120.0</ele><time>2026-04-18T14:33:30Z</time></trkpt><trkpt lat="56.12437311243553" lon="22.17962029587629"><ele>120.0</ele><time>2026-04-18T14:33:31Z</time></trkpt><trkpt lat="56.12446369843259" lon="22.179591893146917"><ele>120.0</ele><time>2026-04-18T14:33:32Z</time></trkpt><trkpt lat="56.1245631415992" lon="22.17957867819887"><ele>120.0</ele><time>2026-04-18T14:33:33Z</time></trkpt><trkpt lat="56.124674232333625" lon="22.179527000051138"><ele>120.0</ele><time>2026-04-18T14:33:33.999Z</time></trkpt><trkpt lat="56.12478302315105" lon="22.179479652109432"><ele>119.5</ele><time>2026-04-18T14:33:34.999Z</time></trkpt><trkpt lat="56.124899530203315" lon="22.17943257718182"><ele>119.0</ele><time>2026-04-18T14:33:35.999Z</time></trkpt><trkpt lat="56.12501358189963" lon="22.179386269562595"><ele>118.5</ele><time>2026-04-18T14:33:36.999Z</time></trkpt><trkpt lat="56.12512284431908" lon="22.179349684532113"><ele>118.0</ele><time>2026-04-18T14:33:37.999Z</time></trkpt><trkpt lat="56.125234800278754" lon="22.179322179645595"><ele>118.0</ele><time>2026-04-18T14:33:38.999Z</time></trkpt><trkpt lat="56.12534602735021" lon="22.179283322827846"><ele>118.0</ele><time>2026-04-18T14:33:39.999Z</time></trkpt><trkpt lat="56.12548085435249" lon="22.17924436213904"><ele>118.0</ele><time>2026-04-18T14:33:40.999Z</time></trkpt><trkpt lat="56.125630630054474" lon="22.179213760425228"><ele>118.0</ele><time>2026-04-18T14:33:41.999Z</time></trkpt><trkpt lat="56.12578348056755" lon="22.17919439324974"><ele>117.0</ele><time>2026-04-18T14:33:42.999Z</time></trkpt><trkpt lat="56.125918762498614" lon="22.179178867263637"><ele>116.0</ele><time>2026-04-18T14:33:43.999Z</time></trkpt><trkpt lat="56.126038686187464" lon="22.179171716097954"><ele>115.0</ele><time>2026-04-18T14:33:44.999Z</time></trkpt><trkpt lat="56.12617084414636" lon="22.17917953294282"><ele>114.0</ele><time>2026-04-18T14:33:45.999Z</time></trkpt><trkpt lat="56.126294876706226" lon="22.179198804378096"><ele>114.0</ele><time>2026-04-18T14:33:46.999Z</time></trkpt><trkpt lat="56.12643554205997" lon="22.17920863274367"><ele>114.0</ele><time>2026-04-18T14:33:47.999Z</time></trkpt><trkpt lat="56.126569272575175" lon="22.179215808158098"><ele>114.0</ele><time>2026-04-18T14:33:48.999Z</time></trkpt><trkpt lat="56.12669881348205" lon="22.179223942366157"><ele>114.0</ele><time>2026-04-18T14:33:49.999Z</time></trkpt><trkpt lat="56.126816447096886" lon="22.17923890393936"><ele>114.0</ele><time>2026-04-18T14:33:50.999Z</time></trkpt><trkpt lat="56.126909424167934" lon="22.179245384091818"><ele>114.0</ele><time>2026-04-18T14:33:51.999Z</time></trkpt><trkpt lat="56.126995466816396" lon="22.179247532209228"><ele>114.0</ele><time>2026-04-18T14:33:52.998Z</time></trkpt><trkpt lat="56.12709002315512" lon="22.179269247040832"><ele>114.0</ele><time>2026-04-18T14:33:53.998Z</time></trkpt><trkpt lat="56.12719597391264" lon="22.17930624880738"><ele>114.0</ele><time>2026-04-18T14:33:54.998Z</time></trkpt><trkpt lat="56.12730613791673" lon="22.179348395044112"><ele>114.25</ele><time>2026-04-18T14:33:55.998Z</time></trkpt><trkpt lat="56.1274222714451" lon="22.17937270731233"><ele>114.5</ele><time>2026-04-18T14:33:56.998Z</time></trkpt><trkpt lat="56.12755378257064" lon="22.179369840756742"><ele>114.75</ele><time>2026-04-18T14:33:57.998Z</time></trkpt><trkpt lat="56.127694347541656" lon="22.17936320613896"><ele>115.0</ele><time>2026-04-18T14:33:58.998Z</time></trkpt><trkpt lat="56.127823093756916" lon="22.17933557444418"><ele>115.00000000000001</ele><time>2026-04-18T14:33:59.998Z</time></trkpt><trkpt lat="56.12792663455503" lon="22.17932070756248"><ele>115.0</ele><time>2026-04-18T14:34:00.998Z</time></trkpt><trkpt lat="56.1280173637892" lon="22.179311223591696"><ele>115.0</ele><time>2026-04-18T14:34:01.998Z</time></trkpt><trkpt lat="56.12810333542125" lon="22.179310233022633"><ele>115.0</ele><time>2026-04-18T14:34:02.998Z</time></trkpt><trkpt lat="56.12819112152877" lon="22.179325545019516"><ele>115.00000000000001</ele><time>2026-04-18T14:34:03.998Z</time></trkpt><trkpt lat="56.12826238477434" lon="22.179371883829877"><ele>115.0</ele><time>2026-04-18T14:34:04.998Z</time></trkpt><trkpt lat="56.12833613805137" lon="22.179457337370316"><ele>115.25</ele><time>2026-04-18T14:34:05.998Z</time></trkpt><trkpt lat="56.12839072899237" lon="22.17959462064024"><ele>115.5</ele><time>2026-04-18T14:34:06.998Z</time></trkpt><trkpt lat="56.12845052700331" lon="22.179755781295068"><ele>115.75</ele><time>2026-04-18T14:34:07.998Z</time></trkpt><trkpt lat="56.12851753982481" lon="22.179938513136875"><ele>116.0</ele><time>2026-04-18T14:34:08.998Z</time></trkpt><trkpt lat="56.12860309773723" lon="22.18015520949628"><ele>116.0</ele><time>2026-04-18T14:34:09.998Z</time></trkpt><trkpt lat="56.12868971043759" lon="22.180352475224463"><ele>116.0</ele><time>2026-04-18T14:34:10.998Z</time></trkpt><trkpt lat="56.12875850565629" lon="22.180481136518885"><ele>116.0</ele><time>2026-04-18T14:34:11.998Z</time></trkpt><trkpt lat="56.128829129930196" lon="22.18060239586153"><ele>116.0</ele><time>2026-04-18T14:34:12.998Z</time></trkpt><trkpt lat="56.12891515460553" lon="22.180724649289235"><ele>116.0</ele><time>2026-04-18T14:34:13.998Z</time></trkpt><trkpt lat="56.12901473441417" lon="22.180832744854083"><ele>116.4</ele><time>2026-04-18T14:34:14.998Z</time></trkpt><trkpt lat="56.129104046870694" lon="22.18098979348579"><ele>116.8</ele><time>2026-04-18T14:34:15.998Z</time></trkpt><trkpt lat="56.12918915919211" lon="22.18109068309397"><ele>117.20000000000002</ele><time>2026-04-18T14:34:16.998Z</time></trkpt><trkpt lat="56.129253955352155" lon="22.181183449553103"><ele>117.60000000000001</ele><time>2026-04-18T14:34:17.998Z</time></trkpt><trkpt lat="56.12934930370484" lon="22.18128406379591"><ele>118.0</ele><time>2026-04-18T14:34:18.998Z</time></trkpt><trkpt lat="56.12942368474917" lon="22.181412002224448"><ele>117.75</ele><time>2026-04-18T14:34:19.998Z</time></trkpt><trkpt lat="56.129533409943456" lon="22.18151958689042"><ele>117.5</ele><time>2026-04-18T14:34:20.998Z</time></trkpt><trkpt lat="56.129647513836396" lon="22.18166479081859"><ele>117.25</ele><time>2026-04-18T14:34:21.998Z</time></trkpt><trkpt lat="56.12977152330814" lon="22.181822894372353"><ele>117.0</ele><time>2026-04-18T14:34:22.998Z</time></trkpt><trkpt lat="56.12986245028679" lon="22.18197019976195"><ele>117.8</ele><time>2026-04-18T14:34:23.998Z</time></trkpt><trkpt lat="56.12996934473772" lon="22.18200284145444"><ele>118.6</ele><time>2026-04-18T14:34:24.998Z</time></trkpt><trkpt lat="56.13006413170606" lon="22.182046630194726"><ele>119.39999999999999</ele><time>2026-04-18T14:34:25.998Z</time></trkpt><trkpt lat="56.13016553838668" lon="22.1821142634373"><ele>120.19999999999999</ele><time>2026-04-18T14:34:26.998Z</time></trkpt><trkpt lat="56.13028214861119" lon="22.182085773911783"><ele>121.0</ele><time>2026-04-18T14:34:27.998Z</time></trkpt><trkpt lat="56.13039328533105" lon="22.182016307720968"><ele>121.0</ele><time>2026-04-18T14:34:28.998Z</time></trkpt><trkpt lat="56.13048106102188" lon="22.181952529613678"><ele>121.0</ele><time>2026-04-18T14:34:29.998Z</time></trkpt><trkpt lat="56.130587416317496" lon="22.181877880072456"><ele>121.0</ele><time>2026-04-18T14:34:30.998Z</time></trkpt><trkpt lat="56.13071390814025" lon="22.181786452040846"><ele>121.0</ele><time>2026-04-18T14:34:31.998Z</time></trkpt><trkpt lat="56.13082930919231" lon="22.181686831779967"><ele>120.66666666666667</ele><time>2026-04-18T14:34:32.998Z</time></trkpt><trkpt lat="56.13096064727203" lon="22.181519746124835"><ele>120.33333333333334</ele><time>2026-04-18T14:34:33.998Z</time></trkpt><trkpt lat="56.1310776651528" lon="22.181356473130343"><ele>120.0</ele><time>2026-04-18T14:34:34.998Z</time></trkpt><trkpt lat="56.13119913884218" lon="22.181216584833077"><ele>120.66666666666666</ele><time>2026-04-18T14:34:35.998Z</time></trkpt><trkpt lat="56.131329656497165" lon="22.181050795805714"><ele>121.33333333333333</ele><time>2026-04-18T14:34:36.998Z</time></trkpt><trkpt lat="56.13145708298249" lon="22.18090367839015"><ele>122.0</ele><time>2026-04-18T14:34:37.998Z</time></trkpt><trkpt lat="56.13157504733609" lon="22.18076397019919"><ele>120.8</ele><time>2026-04-18T14:34:38.998Z</time></trkpt><trkpt lat="56.131679584712764" lon="22.180638515915554"><ele>119.6</ele><time>2026-04-18T14:34:39.998Z</time></trkpt><trkpt lat="56.13178491631254" lon="22.180518381956297"><ele>118.39999999999999</ele><time>2026-04-18T14:34:40.998Z</time></trkpt><trkpt lat="56.131872598649345" lon="22.18041356207448"><ele>117.19999999999999</ele><time>2026-04-18T14:34:41.998Z</time></trkpt><trkpt lat="56.13195088449023" lon="22.18032347911767"><ele>116.0</ele><time>2026-04-18T14:34:42.998Z</time></trkpt><trkpt lat="56.13204829279209" lon="22.180222888970864"><ele>116.0</ele><time>2026-04-18T14:34:43.998Z</time></trkpt><trkpt lat="56.132135629140286" lon="22.180135793634783"><ele>116.0</ele><time>2026-04-18T14:34:44.998Z</time></trkpt><trkpt lat="56.13225240077375" lon="22.179994433643845"><ele>116.0</ele><time>2026-04-18T14:34:45.998Z</time></trkpt><trkpt lat="56.13233727464747" lon="22.17990882397125"><ele>116.0</ele><time>2026-04-18T14:34:46.998Z</time></trkpt><trkpt lat="56.132432260113944" lon="22.179793873442737"><ele>115.75</ele><time>2026-04-18T14:34:47.998Z</time></trkpt><trkpt lat="56.13252898548744" lon="22.17967212200185"><ele>115.5</ele><time>2026-04-18T14:34:48.998Z</time></trkpt><trkpt lat="56.13262466259839" lon="22.17956186296507"><ele>115.25</ele><time>2026-04-18T14:34:49.998Z</time></trkpt><trkpt lat="56.13272429210735" lon="22.179451317542924"><ele>115.0</ele><time>2026-04-18T14:34:50.998Z</time></trkpt><trkpt lat="56.13282416763768" lon="22.179330792769758"><ele>115.0</ele><time>2026-04-18T14:34:51.998Z</time></trkpt><trkpt lat="56.13292398688967" lon="22.179213223956417"><ele>115.0</ele><time>2026-04-18T14:34:52.998Z</time></trkpt><trkpt lat="56.133038496031496" lon="22.17907623738307"><ele>115.0</ele><time>2026-04-18T14:34:53.998Z</time></trkpt><trkpt lat="56.133160182536976" lon="22.178946167849382"><ele>115.0</ele><time>2026-04-18T14:34:54.998Z</time></trkpt><trkpt lat="56.13328779858063" lon="22.178787684127858"><ele>115.66666666666667</ele><time>2026-04-18T14:34:55.998Z</time></trkpt><trkpt lat="56.13343330204991" lon="22.17859734625493"><ele>116.33333333333334</ele><time>2026-04-18T14:34:56.998Z</time></trkpt><trkpt lat="56.13357132192132" lon="22.17843431218038"><ele>117.0</ele><time>2026-04-18T14:34:57.998Z</time></trkpt><trkpt lat="56.1336964055264" lon="22.178293566765554"><ele>117.0</ele><time>2026-04-18T14:34:58.998Z</time></trkpt><trkpt lat="56.13381935253954" lon="22.178160839013525"><ele>117.0</ele><time>2026-04-18T14:34:59.998Z</time></trkpt><trkpt lat="56.13393216743439" lon="22.178031604208048"><ele>117.0</ele><time>2026-04-18T14:35:00.998Z</time></trkpt><trkpt lat="56.13403817115962" lon="22.177908304841065"><ele>117.0</ele><time>2026-04-18T14:35:01.998Z</time></trkpt><trkpt lat="56.13413985869782" lon="22.177786514514963"><ele>117.75</ele><time>2026-04-18T14:35:02.998Z</time></trkpt><trkpt lat="56.13425277201988" lon="22.177652637777317"><ele>118.5</ele><time>2026-04-18T14:35:03.998Z</time></trkpt><trkpt lat="56.13437787562219" lon="22.17750540128108"><ele>119.25</ele><time>2026-04-18T14:35:04.998Z</time></trkpt><trkpt lat="56.134504960223154" lon="22.177354094423375"><ele>120.0</ele><time>2026-04-18T14:35:05.998Z</time></trkpt><trkpt lat="56.134633595609856" lon="22.177199961006814"><ele>120.0</ele><time>2026-04-18T14:35:06.998Z</time></trkpt><trkpt lat="56.13476984623459" lon="22.177042710544917"><ele>120.0</ele><time>2026-04-18T14:35:07.998Z</time></trkpt><trkpt lat="56.13489976544532" lon="22.176893554911718"><ele>120.0</ele><time>2026-04-18T14:35:08.998Z</time></trkpt><trkpt lat="56.13502789892269" lon="22.176739243700183"><ele>120.5</ele><time>2026-04-18T14:35:09.998Z</time></trkpt><trkpt lat="56.13515143222073" lon="22.176595691851034"><ele>121.0</ele><time>2026-04-18T14:35:10.998Z</time></trkpt><trkpt lat="56.135259321900485" lon="22.176469992185254"><ele>121.5</ele><time>2026-04-18T14:35:11.998Z</time></trkpt><trkpt lat="56.13535548917358" lon="22.176355145618604"><ele>122.0</ele><time>2026-04-18T14:35:12.998Z</time></trkpt><trkpt lat="56.13544566440969" lon="22.176248474668313"><ele>122.0</ele><time>2026-04-18T14:35:13.998Z</time></trkpt><trkpt lat="56.135538751726436" lon="22.176148483006582"><ele>122.0</ele><time>2026-04-18T14:35:14.998Z</time></trkpt><trkpt lat="56.135629625070386" lon="22.176036687057536"><ele>122.0</ele><time>2026-04-18T14:35:15.998Z</time></trkpt><trkpt lat="56.135726778668676" lon="22.175922988048608"><ele>122.0</ele><time>2026-04-18T14:35:16.998Z</time></trkpt><trkpt lat="56.135824691916255" lon="22.17580279390457"><ele>122.25</ele><time>2026-04-18T14:35:17.998Z</time></trkpt><trkpt lat="56.13592963486507" lon="22.175676686232805"><ele>122.5</ele><time>2026-04-18T14:35:18.999Z</time></trkpt><trkpt lat="56.13602946756896" lon="22.175548536421466"><ele>122.75</ele><time>2026-04-18T14:35:19.999Z</time></trkpt><trkpt lat="56.13612250175948" lon="22.17542486786883"><ele>123.0</ele><time>2026-04-18T14:35:20.999Z</time></trkpt><trkpt lat="56.13620698531053" lon="22.1753322798119"><ele>123.0</ele><time>2026-04-18T14:35:21.999Z</time></trkpt><trkpt lat="56.13627916049135" lon="22.175246194569834"><ele>123.0</ele><time>2026-04-18T14:35:22.999Z</time></trkpt><trkpt lat="56.13634771063558" lon="22.17516445442614"><ele>123.0</ele><time>2026-04-18T14:35:23.999Z</time></trkpt><trkpt lat="56.13641220610485" lon="22.175093497731094"><ele>123.0</ele><time>2026-04-18T14:35:24.999Z</time></trkpt><trkpt lat="56.13647084006097" lon="22.175025693900484"><ele>123.0</ele><time>2026-04-18T14:35:25.999Z</time></trkpt><trkpt lat="56.136537460905245" lon="22.17499091282496"><ele>123.0</ele><time>2026-04-18T14:35:26.999Z</time></trkpt><trkpt lat="56.13660202989875" lon="22.17493608497212"><ele>122.2</ele><time>2026-04-18T14:35:28Z</time></trkpt><trkpt lat="56.13665977692555" lon="22.17481077919945"><ele>121.4</ele><time>2026-04-18T14:35:29Z</time></trkpt><trkpt lat="56.136734457731464" lon="22.174762855218656"><ele>120.60000000000001</ele><time>2026-04-18T14:35:30Z</time></trkpt><trkpt lat="56.13680948298155" lon="22.174687755790096"><ele>119.80000000000001</ele><time>2026-04-18T14:35:31Z</time></trkpt><trkpt lat="56.13689662642326" lon="22.174600800913595"><ele>119.0</ele><time>2026-04-18T14:35:32Z</time></trkpt><trkpt lat="56.13698189163114" lon="22.174515176364757"><ele>119.0</ele><time>2026-04-18T14:35:33Z</time></trkpt><trkpt lat="56.13706872601314" lon="22.174429536406038"><ele>119.0</ele><time>2026-04-18T14:35:34Z</time></trkpt><trkpt lat="56.13715829105814" lon="22.174339986185934"><ele>119.0</ele><time>2026-04-18T14:35:35Z</time></trkpt><trkpt lat="56.13723986729611" lon="22.17425791407351"><ele>119.0</ele><time>2026-04-18T14:35:36Z</time></trkpt><trkpt lat="56.137324929238325" lon="22.174184263305975"><ele>119.0</ele><time>2026-04-18T14:35:37Z</time></trkpt><trkpt lat="56.13741068396994" lon="22.17411837914585"><ele>119.6</ele><time>2026-04-18T14:35:38Z</time></trkpt><trkpt lat="56.137492367420144" lon="22.174056053173985"><ele>120.2</ele><time>2026-04-18T14:35:39Z</time></trkpt><trkpt lat="56.13757779354059" lon="22.173990871458333"><ele>120.79999999999998</ele><time>2026-04-18T14:35:40Z</time></trkpt><trkpt lat="56.13766742151524" lon="22.173922483718012"><ele>121.39999999999999</ele><time>2026-04-18T14:35:41Z</time></trkpt><trkpt lat="56.137751878816424" lon="22.173858041216956"><ele>122.0</ele><time>2026-04-18T14:35:42Z</time></trkpt><trkpt lat="56.13783807015544" lon="22.173791379729764"><ele>121.19999999999999</ele><time>2026-04-18T14:35:43Z</time></trkpt><trkpt lat="56.13791993251083" lon="22.173700841901223"><ele>120.39999999999999</ele><time>2026-04-18T14:35:44Z</time></trkpt><trkpt lat="56.138009021676275" lon="22.17363662387181"><ele>119.60000000000001</ele><time>2026-04-18T14:35:45Z</time></trkpt><trkpt lat="56.13809944344947" lon="22.17357320520311"><ele>118.80000000000001</ele><time>2026-04-18T14:35:46Z</time></trkpt><trkpt lat="56.13819586130453" lon="22.173536056897877"><ele>118.0</ele><time>2026-04-18T14:35:47Z</time></trkpt><trkpt lat="56.1382826174759" lon="22.173476616710825"><ele>118.00000000000001</ele><time>2026-04-18T14:35:48Z</time></trkpt><trkpt lat="56.13836135118157" lon="22.17342267652751"><ele>118.0</ele><time>2026-04-18T14:35:49Z</time></trkpt><trkpt lat="56.138431815624635" lon="22.173374398673634"><ele>118.0</ele><time>2026-04-18T14:35:50Z</time></trkpt><trkpt lat="56.13850007516525" lon="22.17332763126517"><ele>118.0</ele><time>2026-04-18T14:35:51Z</time></trkpt><trkpt lat="56.13856598102152" lon="22.173282476443514"><ele>118.00000000000001</ele><time>2026-04-18T14:35:52Z</time></trkpt><trkpt lat="56.138673699756424" lon="22.173209002133703"><ele>118.0</ele><time>2026-04-18T14:35:54Z</time></trkpt><trkpt lat="56.1387796585724" lon="22.173136435989456"><ele>117.83333333333334</ele><time>2026-04-18T14:35:56Z</time></trkpt><trkpt lat="56.138847619234035" lon="22.17308995979125"><ele>117.66666666666667</ele><time>2026-04-18T14:35:58Z</time></trkpt><trkpt lat="56.13890444981137" lon="22.173011386976018"><ele>117.5</ele><time>2026-04-18T14:36:00Z</time></trkpt><trkpt lat="56.138985695632606" lon="22.172968245512838"><ele>117.33333333333334</ele><time>2026-04-18T14:36:03Z</time></trkpt><trkpt lat="56.13906019508995" lon="22.172892297010705"><ele>117.16666666666667</ele><time>2026-04-18T14:36:07Z</time></trkpt><trkpt lat="56.1391228114745" lon="22.17286340535784"><ele>117.0</ele><time>2026-04-18T14:36:10Z</time></trkpt><trkpt lat="56.13902727078966" lon="22.17259018557063"><ele>117.16666666666667</ele><time>2026-04-18T14:36:16Z</time></trkpt><trkpt lat="56.138953825503705" lon="22.17264016623442"><ele>117.33333333333334</ele><time>2026-04-18T14:36:32Z</time></trkpt><trkpt lat="56.138966698083095" lon="22.172786409768737"><ele>117.5</ele><time>2026-04-18T14:36:35Z</time></trkpt><trkpt lat="56.139007774025956" lon="22.17288299286977"><ele>117.66666666666667</ele><time>2026-04-18T14:36:38Z</time></trkpt><trkpt lat="56.138954719943484" lon="22.17301166262252"><ele>117.83333333333334</ele><time>2026-04-18T14:36:40Z</time></trkpt><trkpt lat="56.13886378342989" lon="22.173013696114506"><ele>118.0</ele><time>2026-04-18T14:36:42Z</time></trkpt><trkpt lat="56.138903966134784" lon="22.173351688914057"><ele>118.0</ele><time>2026-04-18T14:36:45Z</time></trkpt><trkpt lat="56.138952050818546" lon="22.17355357633383"><ele>118.00000000000001</ele><time>2026-04-18T14:36:47Z</time></trkpt><trkpt lat="56.13897515170061" lon="22.17366440436647"><ele>118.00000000000001</ele><time>2026-04-18T14:36:48Z</time></trkpt><trkpt lat="56.139016793942915" lon="22.173900340499934"><ele>118.0</ele><time>2026-04-18T14:36:50Z</time></trkpt><trkpt lat="56.13904331016614" lon="22.17402570560845"><ele>118.0</ele><time>2026-04-18T14:36:51Z</time></trkpt><trkpt lat="56.13907339226534" lon="22.17414661348183"><ele>118.33333333333334</ele><time>2026-04-18T14:36:52Z</time></trkpt><trkpt lat="56.139102395480336" lon="22.17426265927617"><ele>118.66666666666667</ele><time>2026-04-18T14:36:53Z</time></trkpt><trkpt lat="56.13912903207139" lon="22.17437092556654"><ele>119.0</ele><time>2026-04-18T14:36:54Z</time></trkpt><trkpt lat="56.13915458834816" lon="22.174478216314757"><ele>119.33333333333334</ele><time>2026-04-18T14:36:55Z</time></trkpt><trkpt lat="56.13919324889823" lon="22.174664332989465"><ele>119.66666666666667</ele><time>2026-04-18T14:36:57Z</time></trkpt><trkpt lat="56.1392390153448" lon="22.17485355198484"><ele>120.0</ele><time>2026-04-18T14:36:59Z</time></trkpt><trkpt lat="56.139292903585314" lon="22.175043052508844"><ele>120.0</ele><time>2026-04-18T14:37:01Z</time></trkpt><trkpt lat="56.13932986355659" lon="22.17520357829665"><ele>120.0</ele><time>2026-04-18T14:37:03Z</time></trkpt><trkpt lat="56.139371179843806" lon="22.17537938600893"><ele>120.0</ele><time>2026-04-18T14:37:05Z</time></trkpt><trkpt lat="56.13939964370792" lon="22.175511979918888"><ele>120.0</ele><time>2026-04-18T14:37:07Z</time></trkpt><trkpt lat="56.139426538731065" lon="22.17563296529532"><ele>120.0</ele><time>2026-04-18T14:37:09Z</time></trkpt><trkpt lat="56.1394597364082" lon="22.17577103735656"><ele>120.0</ele><time>2026-04-18T14:37:11Z</time></trkpt><trkpt lat="56.13949413858557" lon="22.175940677736513"><ele>119.8</ele><time>2026-04-18T14:37:13Z</time></trkpt><trkpt lat="56.1395418417862" lon="22.176117456980613"><ele>119.6</ele><time>2026-04-18T14:37:15Z</time></trkpt><trkpt lat="56.13958093033502" lon="22.17629249887693"><ele>119.4</ele><time>2026-04-18T14:37:17Z</time></trkpt><trkpt lat="56.139617214821094" lon="22.17646562531567"><ele>119.2</ele><time>2026-04-18T14:37:19Z</time></trkpt><trkpt lat="56.139637873565015" lon="22.176577963530715"><ele>119.0</ele><time>2026-04-18T14:37:21Z</time></trkpt><trkpt lat="56.13964791852866" lon="22.17674576701667"><ele>119.0</ele><time>2026-04-18T14:37:24.001Z</time></trkpt><trkpt lat="56.13963278087586" lon="22.17693120512478"><ele>119.0</ele><time>2026-04-18T14:37:26.001Z</time></trkpt><trkpt lat="56.13960984623155" lon="22.177095978238402"><ele>119.0</ele><time>2026-04-18T14:37:28.001Z</time></trkpt><trkpt lat="56.13958973382848" lon="22.177264453350247"><ele>119.0</ele><time>2026-04-18T14:37:30.001Z</time></trkpt><trkpt lat="56.13956582919439" lon="22.177420909929573"><ele>119.0</ele><time>2026-04-18T14:37:32.001Z</time></trkpt><trkpt lat="56.13955584394908" lon="22.17755351897307"><ele>118.99999999999999</ele><time>2026-04-18T14:37:34.001Z</time></trkpt><trkpt lat="56.1395265280498" lon="22.17767255373642"><ele>119.0</ele><time>2026-04-18T14:37:37.001Z</time></trkpt><trkpt lat="56.13963773949341" lon="22.177774846081224"><ele>119.0</ele><time>2026-04-18T14:37:38.001Z</time></trkpt><trkpt lat="56.139692982318024" lon="22.17784403685433"><ele>119.0</ele><time>2026-04-18T14:37:39.001Z</time></trkpt><trkpt lat="56.13975638444972" lon="22.1779019984248"><ele>118.99999999999999</ele><time>2026-04-18T14:37:40.001Z</time></trkpt><trkpt lat="56.139819083081534" lon="22.17796257856847"><ele>119.0</ele><time>2026-04-18T14:37:41.001Z</time></trkpt><trkpt lat="56.13989200205205" lon="22.178034747639835"><ele>119.0</ele><time>2026-04-18T14:37:42.001Z</time></trkpt><trkpt lat="56.139968707477614" lon="22.178109263020726"><ele>119.0</ele><time>2026-04-18T14:37:43.001Z</time></trkpt><trkpt lat="56.14005716222019" lon="22.17818366743306"><ele>119.0</ele><time>2026-04-18T14:37:44.001Z</time></trkpt><trkpt lat="56.14013503594827" lon="22.178250304003363"><ele>119.0</ele><time>2026-04-18T14:37:45.001Z</time></trkpt><trkpt lat="56.140213763520016" lon="22.178338370417986"><ele>119.0</ele><time>2026-04-18T14:37:46.001Z</time></trkpt><trkpt lat="56.140295419524364" lon="22.178420578466675"><ele>119.0</ele><time>2026-04-18T14:37:47.001Z</time></trkpt><trkpt lat="56.140380830583666" lon="22.178496447923607"><ele>119.0</ele><time>2026-04-18T14:37:48.001Z</time></trkpt><trkpt lat="56.14046825694693" lon="22.17857000559139"><ele>119.0</ele><time>2026-04-18T14:37:49.001Z</time></trkpt><trkpt lat="56.14055841703832" lon="22.178652790480502"><ele>119.0</ele><time>2026-04-18T14:37:50.001Z</time></trkpt><trkpt lat="56.1406464910737" lon="22.17873714832693"><ele>119.0</ele><time>2026-04-18T14:37:51.001Z</time></trkpt><trkpt lat="56.140738201613125" lon="22.17881724704614"><ele>119.0</ele><time>2026-04-18T14:37:52.001Z</time></trkpt><trkpt lat="56.14084281141489" lon="22.178881299603816"><ele>119.0</ele><time>2026-04-18T14:37:53.001Z</time></trkpt><trkpt lat="56.14094833818998" lon="22.17892419246778"><ele>119.0</ele><time>2026-04-18T14:37:54.001Z</time></trkpt><trkpt lat="56.141050325951085" lon="22.178940520647213"><ele>119.0</ele><time>2026-04-18T14:37:55.001Z</time></trkpt><trkpt lat="56.14115908831757" lon="22.17894944565077"><ele>119.0</ele><time>2026-04-18T14:37:56.001Z</time></trkpt><trkpt lat="56.141270328738514" lon="22.178945610802355"><ele>119.0</ele><time>2026-04-18T14:37:57Z</time></trkpt><trkpt lat="56.14138073369557" lon="22.178931972231666"><ele>119.0</ele><time>2026-04-18T14:37:58Z</time></trkpt><trkpt lat="56.141490721881745" lon="22.178913388229724"><ele>119.0</ele><time>2026-04-18T14:37:59Z</time></trkpt><trkpt lat="56.141597164692854" lon="22.178884043185445"><ele>119.0</ele><time>2026-04-18T14:38:00Z</time></trkpt><trkpt lat="56.141703919666156" lon="22.17884753797339"><ele>119.0</ele><time>2026-04-18T14:38:01Z</time></trkpt><trkpt lat="56.14180732367698" lon="22.17881014658428"><ele>119.2</ele><time>2026-04-18T14:38:02Z</time></trkpt><trkpt lat="56.14190830007756" lon="22.178777537867074"><ele>119.4</ele><time>2026-04-18T14:38:03Z</time></trkpt><trkpt lat="56.14201456040732" lon="22.178747385419555"><ele>119.6</ele><time>2026-04-18T14:38:04Z</time></trkpt><trkpt lat="56.142118954601116" lon="22.178711366677483"><ele>119.8</ele><time>2026-04-18T14:38:05Z</time></trkpt><trkpt lat="56.14222812342874" lon="22.17867123452816"><ele>120.0</ele><time>2026-04-18T14:38:06Z</time></trkpt><trkpt lat="56.14233891655003" lon="22.178632663283334"><ele>119.75</ele><time>2026-04-18T14:38:07Z</time></trkpt><trkpt lat="56.14245119776831" lon="22.178599106258854"><ele>119.5</ele><time>2026-04-18T14:38:08Z</time></trkpt><trkpt lat="56.14255779909082" lon="22.17856720582057"><ele>119.25</ele><time>2026-04-18T14:38:09Z</time></trkpt><trkpt lat="56.14266654595764" lon="22.17853567854328"><ele>119.0</ele><time>2026-04-18T14:38:10Z</time></trkpt><trkpt lat="56.142790546336194" lon="22.178493488703083"><ele>119.0</ele><time>2026-04-18T14:38:11Z</time></trkpt><trkpt lat="56.14294928694767" lon="22.178433283290143"><ele>119.0</ele><time>2026-04-18T14:38:12Z</time></trkpt><trkpt lat="56.143111516172766" lon="22.178385381444482"><ele>119.0</ele><time>2026-04-18T14:38:13Z</time></trkpt><trkpt lat="56.14326979506573" lon="22.17832823249771"><ele>119.66666666666666</ele><time>2026-04-18T14:38:14Z</time></trkpt><trkpt lat="56.14343581502905" lon="22.1782780287557"><ele>120.33333333333334</ele><time>2026-04-18T14:38:15Z</time></trkpt><trkpt lat="56.14359802650966" lon="22.17822693014379"><ele>121.0</ele><time>2026-04-18T14:38:16Z</time></trkpt><trkpt lat="56.143751461271826" lon="22.178187001516477"><ele>121.0</ele><time>2026-04-18T14:38:17Z</time></trkpt><trkpt lat="56.143922155543905" lon="22.178141972305177"><ele>121.0</ele><time>2026-04-18T14:38:18Z</time></trkpt><trkpt lat="56.14408775445949" lon="22.178091283274664"><ele>121.0</ele><time>2026-04-18T14:38:19Z</time></trkpt><trkpt lat="56.1442454271817" lon="22.17803582811684"><ele>121.0</ele><time>2026-04-18T14:38:20Z</time></trkpt><trkpt lat="56.14439825571306" lon="22.177984710564395"><ele>121.0</ele><time>2026-04-18T14:38:21Z</time></trkpt><trkpt lat="56.144540963902195" lon="22.1779313599126"><ele>121.0</ele><time>2026-04-18T14:38:22Z</time></trkpt><trkpt lat="56.1446890522322" lon="22.177876640324623"><ele>121.0</ele><time>2026-04-18T14:38:23Z</time></trkpt><trkpt lat="56.144844739717485" lon="22.177819812193523"><ele>121.0</ele><time>2026-04-18T14:38:24Z</time></trkpt><trkpt lat="56.14500307781633" lon="22.177756347466346"><ele>121.0</ele><time>2026-04-18T14:38:25Z</time></trkpt><trkpt lat="56.145156177684115" lon="22.177694804913518"><ele>120.66666666666667</ele><time>2026-04-18T14:38:26Z</time></trkpt><trkpt lat="56.1453128225443" lon="22.177635877837986"><ele>120.33333333333334</ele><time>2026-04-18T14:38:27Z</time></trkpt><trkpt lat="56.145468140527285" lon="22.177576821767804"><ele>120.0</ele><time>2026-04-18T14:38:28Z</time></trkpt><trkpt lat="56.14562342391961" lon="22.17751259539982"><ele>120.66666666666666</ele><time>2026-04-18T14:38:29Z</time></trkpt><trkpt lat="56.14577737650442" lon="22.17744799002053"><ele>121.33333333333333</ele><time>2026-04-18T14:38:30Z</time></trkpt><trkpt lat="56.145928512100554" lon="22.177386996015652"><ele>122.0</ele><time>2026-04-18T14:38:31Z</time></trkpt><trkpt lat="56.146079261980105" lon="22.17733218745257"><ele>122.0</ele><time>2026-04-18T14:38:32Z</time></trkpt><trkpt lat="56.14623121578781" lon="22.177277446780398"><ele>122.0</ele><time>2026-04-18T14:38:33Z</time></trkpt><trkpt lat="56.146387874180014" lon="22.177216950960197"><ele>122.0</ele><time>2026-04-18T14:38:34Z</time></trkpt><trkpt lat="56.14653840372258" lon="22.177151693593146"><ele>122.66666666666666</ele><time>2026-04-18T14:38:35Z</time></trkpt><trkpt lat="56.146692467334034" lon="22.177086601214015"><ele>123.33333333333334</ele><time>2026-04-18T14:38:36Z</time></trkpt><trkpt lat="56.14684664127313" lon="22.177027147226916"><ele>124.0</ele><time>2026-04-18T14:38:37Z</time></trkpt><trkpt lat="56.14700538199081" lon="22.176967965918145"><ele>124.0</ele><time>2026-04-18T14:38:38Z</time></trkpt><trkpt lat="56.14715789450186" lon="22.176908007920613"><ele>124.0</ele><time>2026-04-18T14:38:39Z</time></trkpt><trkpt lat="56.147312074176604" lon="22.176846696937346"><ele>124.0</ele><time>2026-04-18T14:38:40Z</time></trkpt><trkpt lat="56.14746932838216" lon="22.176783763116877"><ele>123.33333333333334</ele><time>2026-04-18T14:38:41Z</time></trkpt><trkpt lat="56.147632603751916" lon="22.176715937358168"><ele>122.66666666666666</ele><time>2026-04-18T14:38:42Z</time></trkpt><trkpt lat="56.147784788668844" lon="22.176659382336958"><ele>122.0</ele><time>2026-04-18T14:38:43Z</time></trkpt><trkpt lat="56.14793596688845" lon="22.176606121155842"><ele>122.0</ele><time>2026-04-18T14:38:44Z</time></trkpt><trkpt lat="56.148082561013844" lon="22.176555776293522"><ele>122.0</ele><time>2026-04-18T14:38:45Z</time></trkpt><trkpt lat="56.1482258671594" lon="22.17649726420958"><ele>122.0</ele><time>2026-04-18T14:38:46Z</time></trkpt><trkpt lat="56.14837003863278" lon="22.17643954954235"><ele>122.0</ele><time>2026-04-18T14:38:47Z</time></trkpt><trkpt lat="56.148515951907676" lon="22.17638636429701"><ele>121.5</ele><time>2026-04-18T14:38:48Z</time></trkpt><trkpt lat="56.148659672506014" lon="22.176328721422884"><ele>121.0</ele><time>2026-04-18T14:38:49Z</time></trkpt><trkpt lat="56.148804717214844" lon="22.176269003125345"><ele>120.5</ele><time>2026-04-18T14:38:50Z</time></trkpt><trkpt lat="56.14894390532916" lon="22.17621178328686"><ele>120.0</ele><time>2026-04-18T14:38:51Z</time></trkpt><trkpt lat="56.149083133530794" lon="22.176158845001158"><ele>120.0</ele><time>2026-04-18T14:38:52Z</time></trkpt><trkpt lat="56.14921964934399" lon="22.176105683744343"><ele>120.0</ele><time>2026-04-18T14:38:53Z</time></trkpt><trkpt lat="56.14935896236775" lon="22.17605090174468"><ele>120.0</ele><time>2026-04-18T14:38:54Z</time></trkpt><trkpt lat="56.149496125881704" lon="22.175993735959548"><ele>120.0</ele><time>2026-04-18T14:38:55Z</time></trkpt><trkpt lat="56.14963728646549" lon="22.17593808789982"><ele>120.0</ele><time>2026-04-18T14:38:56Z</time></trkpt><trkpt lat="56.149778088042204" lon="22.17588735980561"><ele>120.0</ele><time>2026-04-18T14:38:57Z</time></trkpt><trkpt lat="56.149920718871286" lon="22.175841821333176"><ele>120.0</ele><time>2026-04-18T14:38:58Z</time></trkpt><trkpt lat="56.15007288539265" lon="22.175790202174703"><ele>120.0</ele><time>2026-04-18T14:38:59Z</time></trkpt><trkpt lat="56.15024848070936" lon="22.17571311708777"><ele>120.66666666666666</ele><time>2026-04-18T14:39:00Z</time></trkpt><trkpt lat="56.15044582250917" lon="22.17562692285284"><ele>121.33333333333333</ele><time>2026-04-18T14:39:01Z</time></trkpt><trkpt lat="56.15064952333545" lon="22.17555459564214"><ele>122.0</ele><time>2026-04-18T14:39:02Z</time></trkpt><trkpt lat="56.150847790299885" lon="22.17549183758128"><ele>122.0</ele><time>2026-04-18T14:39:03Z</time></trkpt><trkpt lat="56.151049866868775" lon="22.175418363969797"><ele>122.0</ele><time>2026-04-18T14:39:04Z</time></trkpt><trkpt lat="56.15124065233373" lon="22.175334826165077"><ele>122.0</ele><time>2026-04-18T14:39:05Z</time></trkpt><trkpt lat="56.15140824639449" lon="22.17525667399634"><ele>121.33333333333333</ele><time>2026-04-18T14:39:06Z</time></trkpt><trkpt lat="56.15156778293722" lon="22.175183555669307"><ele>120.66666666666666</ele><time>2026-04-18T14:39:07Z</time></trkpt><trkpt lat="56.15173759353037" lon="22.17511626896536"><ele>120.0</ele><time>2026-04-18T14:39:08Z</time></trkpt><trkpt lat="56.15190047455859" lon="22.17505860075362"><ele>120.0</ele><time>2026-04-18T14:39:09Z</time></trkpt><trkpt lat="56.15206015792299" lon="22.175011418989275"><ele>120.0</ele><time>2026-04-18T14:39:10Z</time></trkpt><trkpt lat="56.152219682234474" lon="22.174981246444915"><ele>120.0</ele><time>2026-04-18T14:39:11Z</time></trkpt><trkpt lat="56.152391528743216" lon="22.174981480693344"><ele>121.0</ele><time>2026-04-18T14:39:12Z</time></trkpt><trkpt lat="56.15257725612313" lon="22.175010154131883"><ele>122.0</ele><time>2026-04-18T14:39:13Z</time></trkpt><trkpt lat="56.15277423661839" lon="22.175042601458898"><ele>123.0</ele><time>2026-04-18T14:39:14Z</time></trkpt><trkpt lat="56.152949371790186" lon="22.17507119929272"><ele>123.0</ele><time>2026-04-18T14:39:15Z</time></trkpt><trkpt lat="56.15312040574538" lon="22.175089461209634"><ele>123.0</ele><time>2026-04-18T14:39:16Z</time></trkpt><trkpt lat="56.15328625351669" lon="22.175105654634756"><ele>123.0</ele><time>2026-04-18T14:39:17Z</time></trkpt><trkpt lat="56.15345080701774" lon="22.17512170938433"><ele>125.0</ele><time>2026-04-18T14:39:18Z</time></trkpt><trkpt lat="56.153603198388396" lon="22.175136751979007"><ele>127.0</ele><time>2026-04-18T14:39:19Z</time></trkpt><trkpt lat="56.1537508413727" lon="22.175151353337945"><ele>129.0</ele><time>2026-04-18T14:39:20Z</time></trkpt><trkpt lat="56.153902656631075" lon="22.17516954898234"><ele>129.33333333333334</ele><time>2026-04-18T14:39:21Z</time></trkpt><trkpt lat="56.154054216414025" lon="22.175188717603792"><ele>129.66666666666669</ele><time>2026-04-18T14:39:22Z</time></trkpt><trkpt lat="56.15420598712426" lon="22.17520445799088"><ele>130.0</ele><time>2026-04-18T14:39:23Z</time></trkpt><trkpt lat="56.15434908418876" lon="22.17525777983111"><ele>130.0</ele><time>2026-04-18T14:39:24Z</time></trkpt><trkpt lat="56.154499743332295" lon="22.175278111682832"><ele>130.0</ele><time>2026-04-18T14:39:25Z</time></trkpt><trkpt lat="56.154668148753345" lon="22.175294056534966"><ele>130.0</ele><time>2026-04-18T14:39:26Z</time></trkpt><trkpt lat="56.154838169133924" lon="22.17529879177739"><ele>127.66666666666667</ele><time>2026-04-18T14:39:27Z</time></trkpt><trkpt lat="56.154997603150825" lon="22.17532114692034"><ele>125.33333333333334</ele><time>2026-04-18T14:39:28.001Z</time></trkpt><trkpt lat="56.15515762022103" lon="22.17533726726992"><ele>123.0</ele><time>2026-04-18T14:39:29.001Z</time></trkpt><trkpt lat="56.15531831549638" lon="22.175363148537528"><ele>123.0</ele><time>2026-04-18T14:39:30Z</time></trkpt><trkpt lat="56.155474875928896" lon="22.175388092745404"><ele>123.0</ele><time>2026-04-18T14:39:31Z</time></trkpt><trkpt lat="56.15562908154833" lon="22.175405447943717"><ele>123.0</ele><time>2026-04-18T14:39:32Z</time></trkpt><trkpt lat="56.155788682039926" lon="22.17542099813623"><ele>123.66666666666666</ele><time>2026-04-18T14:39:33Z</time></trkpt><trkpt lat="56.155949750595404" lon="22.17543777742382"><ele>124.33333333333333</ele><time>2026-04-18T14:39:34Z</time></trkpt><trkpt lat="56.15611440692991" lon="22.175466063476378"><ele>125.0</ele><time>2026-04-18T14:39:35Z</time></trkpt><trkpt lat="56.15627619703503" lon="22.175496555934153"><ele>125.0</ele><time>2026-04-18T14:39:36Z</time></trkpt><trkpt lat="56.15643514910282" lon="22.175527646109245"><ele>125.0</ele><time>2026-04-18T14:39:37Z</time></trkpt><trkpt lat="56.15659881118416" lon="22.17555996634097"><ele>125.0</ele><time>2026-04-18T14:39:38Z</time></trkpt><trkpt lat="56.15676196446734" lon="22.175587208180094"><ele>125.33333333333333</ele><time>2026-04-18T14:39:39Z</time></trkpt><trkpt lat="56.15691539410271" lon="22.17561490007819"><ele>125.66666666666666</ele><time>2026-04-18T14:39:40Z</time></trkpt><trkpt lat="56.15707938945771" lon="22.17565587836695"><ele>126.0</ele><time>2026-04-18T14:39:41Z</time></trkpt><trkpt lat="56.15723408852999" lon="22.175696705877442"><ele>125.33333333333334</ele><time>2026-04-18T14:39:42Z</time></trkpt><trkpt lat="56.157395630419394" lon="22.17573474349558"><ele>124.66666666666667</ele><time>2026-04-18T14:39:43Z</time></trkpt><trkpt lat="56.15755287455587" lon="22.175770178508987"><ele>124.0</ele><time>2026-04-18T14:39:44Z</time></trkpt><trkpt lat="56.15771666787239" lon="22.175810319310866"><ele>124.0</ele><time>2026-04-18T14:39:45Z</time></trkpt><trkpt lat="56.15788182886096" lon="22.175853666245594"><ele>124.0</ele><time>2026-04-18T14:39:46Z</time></trkpt><trkpt lat="56.15804373190587" lon="22.17590077914354"><ele>124.0</ele><time>2026-04-18T14:39:47Z</time></trkpt><trkpt lat="56.158210114593615" lon="22.175953564895313"><ele>124.0</ele><time>2026-04-18T14:39:48Z</time></trkpt><trkpt lat="56.15836885241065" lon="22.176011121318357"><ele>124.0</ele><time>2026-04-18T14:39:49Z</time></trkpt><trkpt lat="56.15852891829891" lon="22.17607424695388"><ele>124.0</ele><time>2026-04-18T14:39:50Z</time></trkpt><trkpt lat="56.158680425045205" lon="22.176130041529973"><ele>124.0</ele><time>2026-04-18T14:39:51Z</time></trkpt><trkpt lat="56.15883885366067" lon="22.176189232181265"><ele>124.0</ele><time>2026-04-18T14:39:52Z</time></trkpt><trkpt lat="56.15899348681083" lon="22.17624574500857"><ele>124.0</ele><time>2026-04-18T14:39:53Z</time></trkpt><trkpt lat="56.15914580115192" lon="22.17629751004253"><ele>123.66666666666667</ele><time>2026-04-18T14:39:54Z</time></trkpt><trkpt lat="56.159299907053146" lon="22.176351570425467"><ele>123.33333333333334</ele><time>2026-04-18T14:39:55Z</time></trkpt><trkpt lat="56.15945236687059" lon="22.176411072447177"><ele>123.0</ele><time>2026-04-18T14:39:56Z</time></trkpt><trkpt lat="56.1596033552944" lon="22.176469758135777"><ele>123.0</ele><time>2026-04-18T14:39:57Z</time></trkpt><trkpt lat="56.15975604256814" lon="22.176530056778233"><ele>123.0</ele><time>2026-04-18T14:39:58Z</time></trkpt><trkpt lat="56.159910482558274" lon="22.17659169892726"><ele>123.0</ele><time>2026-04-18T14:39:59Z</time></trkpt><trkpt lat="56.16006017038147" lon="22.17664730455881"><ele>124.0</ele><time>2026-04-18T14:40:00Z</time></trkpt><trkpt lat="56.16020994436429" lon="22.176705729321846"><ele>125.0</ele><time>2026-04-18T14:40:01Z</time></trkpt><trkpt lat="56.16036448240117" lon="22.176764640907535"><ele>126.0</ele><time>2026-04-18T14:40:02Z</time></trkpt><trkpt lat="56.16050997042911" lon="22.176827024898124"><ele>126.0</ele><time>2026-04-18T14:40:03Z</time></trkpt><trkpt lat="56.1606516005226" lon="22.176890089422344"><ele>126.0</ele><time>2026-04-18T14:40:04Z</time></trkpt><trkpt lat="56.160778390332304" lon="22.176950130654987"><ele>126.0</ele><time>2026-04-18T14:40:05Z</time></trkpt><trkpt lat="56.16089886687636" lon="22.177011860631012"><ele>126.0</ele><time>2026-04-18T14:40:06Z</time></trkpt><trkpt lat="56.161012111972894" lon="22.177070527115113"><ele>125.8</ele><time>2026-04-18T14:40:07Z</time></trkpt><trkpt lat="56.161123993571366" lon="22.17712549573072"><ele>125.6</ele><time>2026-04-18T14:40:08Z</time></trkpt><trkpt lat="56.16122893336633" lon="22.177179509032214"><ele>125.4</ele><time>2026-04-18T14:40:09Z</time></trkpt><trkpt lat="56.161323116582665" lon="22.177225609685383"><ele>125.2</ele><time>2026-04-18T14:40:10Z</time></trkpt><trkpt lat="56.16141024180762" lon="22.177266336772586"><ele>125.0</ele><time>2026-04-18T14:40:11Z</time></trkpt><trkpt lat="56.161483860199226" lon="22.17729976006097"><ele>125.0</ele><time>2026-04-18T14:40:12Z</time></trkpt><trkpt lat="56.16159811497097" lon="22.17734830736854"><ele>125.0</ele><time>2026-04-18T14:40:14Z</time></trkpt><trkpt lat="56.16167212924152" lon="22.177402571826764"><ele>125.0</ele><time>2026-04-18T14:40:16Z</time></trkpt><trkpt lat="56.16174819753836" lon="22.177438748072852"><ele>125.0</ele><time>2026-04-18T14:40:19Z</time></trkpt><trkpt lat="56.16182681506845" lon="22.177476136674997"><ele>125.0</ele><time>2026-04-18T14:40:22Z</time></trkpt><trkpt lat="56.16191707903402" lon="22.177278644229517"><ele>124.6</ele><time>2026-04-18T14:40:23Z</time></trkpt><trkpt lat="56.161962723668466" lon="22.177166588324766"><ele>124.2</ele><time>2026-04-18T14:40:24Z</time></trkpt><trkpt lat="56.162007966004474" lon="22.177012492839204"><ele>123.80000000000001</ele><time>2026-04-18T14:40:25Z</time></trkpt><trkpt lat="56.16206348616113" lon="22.176869197781226"><ele>123.4</ele><time>2026-04-18T14:40:26Z</time></trkpt><trkpt lat="56.16213499370964" lon="22.176741904567056"><ele>123.0</ele><time>2026-04-18T14:40:27Z</time></trkpt><trkpt lat="56.16218979058162" lon="22.17659349108543"><ele>122.80000000000001</ele><time>2026-04-18T14:40:28Z</time></trkpt><trkpt lat="56.162236045876384" lon="22.176465584305564"><ele>122.60000000000001</ele><time>2026-04-18T14:40:29Z</time></trkpt><trkpt lat="56.16228324103876" lon="22.1763091548664"><ele>122.39999999999999</ele><time>2026-04-18T14:40:30Z</time></trkpt><trkpt lat="56.16232697752806" lon="22.17613261319352"><ele>122.19999999999999</ele><time>2026-04-18T14:40:31Z</time></trkpt><trkpt lat="56.16234622785528" lon="22.175892951529946"><ele>122.0</ele><time>2026-04-18T14:40:32Z</time></trkpt><trkpt lat="56.162353022336866" lon="22.17566210025132"><ele>122.0</ele><time>2026-04-18T14:40:33Z</time></trkpt><trkpt lat="56.162358951596055" lon="22.175441997959666"><ele>122.0</ele><time>2026-04-18T14:40:34Z</time></trkpt><trkpt lat="56.16237148808482" lon="22.175210641613955"><ele>122.0</ele><time>2026-04-18T14:40:35Z</time></trkpt><trkpt lat="56.162399580327644" lon="22.174988303742662"><ele>122.0</ele><time>2026-04-18T14:40:36Z</time></trkpt><trkpt lat="56.16242042773403" lon="22.174773449064375"><ele>122.0</ele><time>2026-04-18T14:40:37Z</time></trkpt><trkpt lat="56.162490254796424" lon="22.174588146218113"><ele>121.99999999999999</ele><time>2026-04-18T14:40:38Z</time></trkpt><trkpt lat="56.16252201867394" lon="22.174415905466955"><ele>121.99999999999999</ele><time>2026-04-18T14:40:39Z</time></trkpt><trkpt lat="56.162573947077576" lon="22.174248262893165"><ele>122.0</ele><time>2026-04-18T14:40:40Z</time></trkpt><trkpt lat="56.162611098718756" lon="22.174066824826557"><ele>122.0</ele><time>2026-04-18T14:40:41Z</time></trkpt><trkpt lat="56.1626374603811" lon="22.17385251933673"><ele>122.0</ele><time>2026-04-18T14:40:42Z</time></trkpt><trkpt lat="56.162641059139936" lon="22.17363669733467"><ele>122.0</ele><time>2026-04-18T14:40:43Z</time></trkpt><trkpt lat="56.16263552956939" lon="22.17342762729225"><ele>122.0</ele><time>2026-04-18T14:40:44Z</time></trkpt><trkpt lat="56.16260803935107" lon="22.173216386285034"><ele>122.0</ele><time>2026-04-18T14:40:45Z</time></trkpt><trkpt lat="56.162597374250375" lon="22.173005830943154"><ele>122.0</ele><time>2026-04-18T14:40:46Z</time></trkpt><trkpt lat="56.16258436576772" lon="22.172783249896113"><ele>122.0</ele><time>2026-04-18T14:40:47Z</time></trkpt><trkpt lat="56.162568984150624" lon="22.17256507058067"><ele>122.0</ele><time>2026-04-18T14:40:48Z</time></trkpt><trkpt lat="56.16255249155631" lon="22.172339236395622"><ele>122.0</ele><time>2026-04-18T14:40:49Z</time></trkpt><trkpt lat="56.16253380607226" lon="22.17212669799992"><ele>121.5</ele><time>2026-04-18T14:40:50Z</time></trkpt><trkpt lat="56.162513920851936" lon="22.171887054311323"><ele>121.0</ele><time>2026-04-18T14:40:51Z</time></trkpt><trkpt lat="56.16249208260564" lon="22.17161477910155"><ele>120.5</ele><time>2026-04-18T14:40:52Z</time></trkpt><trkpt lat="56.16247254164147" lon="22.17134450137799"><ele>120.0</ele><time>2026-04-18T14:40:53Z</time></trkpt><trkpt lat="56.162454636609645" lon="22.171071028252115"><ele>120.0</ele><time>2026-04-18T14:40:54Z</time></trkpt><trkpt lat="56.16242964904057" lon="22.170793329539286"><ele>120.0</ele><time>2026-04-18T14:40:55Z</time></trkpt><trkpt lat="56.16240880978153" lon="22.170521919504306"><ele>120.0</ele><time>2026-04-18T14:40:56Z</time></trkpt><trkpt lat="56.16238447122082" lon="22.170253152258002"><ele>120.0</ele><time>2026-04-18T14:40:57Z</time></trkpt><trkpt lat="56.1623593924235" lon="22.169977537593496"><ele>120.0</ele><time>2026-04-18T14:40:58Z</time></trkpt><trkpt lat="56.16233675848636" lon="22.16970785194927"><ele>120.0</ele><time>2026-04-18T14:40:59Z</time></trkpt><trkpt lat="56.16231404405138" lon="22.16942788760197"><ele>120.0</ele><time>2026-04-18T14:41:00Z</time></trkpt><trkpt lat="56.1623076611901" lon="22.16914252583259"><ele>120.0</ele><time>2026-04-18T14:41:01Z</time></trkpt><trkpt lat="56.16228532564358" lon="22.168864620344383"><ele>120.0</ele><time>2026-04-18T14:41:02Z</time></trkpt><trkpt lat="56.16226218025313" lon="22.16857663819147"><ele>120.0</ele><time>2026-04-18T14:41:03Z</time></trkpt><trkpt lat="56.16223971850975" lon="22.168297161556175"><ele>120.0</ele><time>2026-04-18T14:41:04Z</time></trkpt><trkpt lat="56.162202906363476" lon="22.16802728961779"><ele>120.0</ele><time>2026-04-18T14:41:05Z</time></trkpt><trkpt lat="56.16218458590683" lon="22.16776785199843"><ele>120.0</ele><time>2026-04-18T14:41:06Z</time></trkpt><trkpt lat="56.16217568855955" lon="22.16750215524022"><ele>120.0</ele><time>2026-04-18T14:41:07Z</time></trkpt><trkpt lat="56.162154503928676" lon="22.167239862594535"><ele>120.0</ele><time>2026-04-18T14:41:08Z</time></trkpt><trkpt lat="56.16211998924137" lon="22.166987593324926"><ele>120.0</ele><time>2026-04-18T14:41:09Z</time></trkpt><trkpt lat="56.16209977548622" lon="22.166734156146866"><ele>119.25</ele><time>2026-04-18T14:41:10Z</time></trkpt><trkpt lat="56.16207997733026" lon="22.16648651374068"><ele>118.5</ele><time>2026-04-18T14:41:11Z</time></trkpt><trkpt lat="56.162061528900075" lon="22.166234602054097"><ele>117.75</ele><time>2026-04-18T14:41:12Z</time></trkpt><trkpt lat="56.16204033451276" lon="22.165980007892266"><ele>117.0</ele><time>2026-04-18T14:41:13Z</time></trkpt><trkpt lat="56.162019604908416" lon="22.165720875357238"><ele>116.75</ele><time>2026-04-18T14:41:14Z</time></trkpt><trkpt lat="56.161999988789326" lon="22.165470234861164"><ele>116.5</ele><time>2026-04-18T14:41:15Z</time></trkpt><trkpt lat="56.16198018692823" lon="22.165218325220398"><ele>116.25</ele><time>2026-04-18T14:41:16Z</time></trkpt><trkpt lat="56.161959469342726" lon="22.16495933183858"><ele>116.0</ele><time>2026-04-18T14:41:17Z</time></trkpt><trkpt lat="56.16193958379518" lon="22.164701134411043"><ele>115.75</ele><time>2026-04-18T14:41:18Z</time></trkpt><trkpt lat="56.1619185013187" lon="22.164439810739804"><ele>115.5</ele><time>2026-04-18T14:41:19Z</time></trkpt><trkpt lat="56.16189876486103" lon="22.1641764873627"><ele>115.25</ele><time>2026-04-18T14:41:20Z</time></trkpt><trkpt lat="56.16187931014949" lon="22.16391179500466"><ele>115.0</ele><time>2026-04-18T14:41:21Z</time></trkpt><trkpt lat="56.161859059520836" lon="22.163644039603255"><ele>114.75</ele><time>2026-04-18T14:41:22Z</time></trkpt><trkpt lat="56.16183758025417" lon="22.163372175061017"><ele>114.5</ele><time>2026-04-18T14:41:23Z</time></trkpt><trkpt lat="56.16181507040359" lon="22.163109954134793"><ele>114.25</ele><time>2026-04-18T14:41:24Z</time></trkpt><trkpt lat="56.16179339297825" lon="22.162852488936903"><ele>114.0</ele><time>2026-04-18T14:41:25Z</time></trkpt><trkpt lat="56.16177424792944" lon="22.16259954517837"><ele>113.75</ele><time>2026-04-18T14:41:26Z</time></trkpt><trkpt lat="56.16175332258501" lon="22.162345777697038"><ele>113.5</ele><time>2026-04-18T14:41:27Z</time></trkpt><trkpt lat="56.161748126306925" lon="22.162089811255115"><ele>113.25</ele><time>2026-04-18T14:41:28Z</time></trkpt><trkpt lat="56.161728538108456" lon="22.161835336321253"><ele>113.0</ele><time>2026-04-18T14:41:29Z</time></trkpt><trkpt lat="56.16170987754447" lon="22.1615954690583"><ele>113.0</ele><time>2026-04-18T14:41:30Z</time></trkpt><trkpt lat="56.16168885918849" lon="22.161328158247212"><ele>113.0</ele><time>2026-04-18T14:41:31Z</time></trkpt><trkpt lat="56.161669158368966" lon="22.161076884965215"><ele>113.0</ele><time>2026-04-18T14:41:32Z</time></trkpt><trkpt lat="56.1616482826569" lon="22.16081100274495"><ele>113.0</ele><time>2026-04-18T14:41:33Z</time></trkpt><trkpt lat="56.1616269184206" lon="22.160540638463576"><ele>112.66666666666666</ele><time>2026-04-18T14:41:34Z</time></trkpt><trkpt lat="56.1616022839388" lon="22.160224309385836"><ele>112.33333333333334</ele><time>2026-04-18T14:41:35Z</time></trkpt><trkpt lat="56.161575729694015" lon="22.159873798604103"><ele>112.0</ele><time>2026-04-18T14:41:36Z</time></trkpt><trkpt lat="56.16155266294139" lon="22.15956259643641"><ele>112.0</ele><time>2026-04-18T14:41:37Z</time></trkpt><trkpt lat="56.16152856394742" lon="22.159241261570735"><ele>112.0</ele><time>2026-04-18T14:41:38Z</time></trkpt><trkpt lat="56.16150497595069" lon="22.158921513731652"><ele>112.0</ele><time>2026-04-18T14:41:39Z</time></trkpt><trkpt lat="56.16148070669332" lon="22.15859149853746"><ele>112.0</ele><time>2026-04-18T14:41:40Z</time></trkpt><trkpt lat="56.161453958768384" lon="22.15823274902954"><ele>112.0</ele><time>2026-04-18T14:41:41Z</time></trkpt><trkpt lat="56.16142676164871" lon="22.157867020672747"><ele>112.0</ele><time>2026-04-18T14:41:42Z</time></trkpt><trkpt lat="56.16140368403163" lon="22.157555979375786"><ele>112.33333333333334</ele><time>2026-04-18T14:41:43Z</time></trkpt><trkpt lat="56.16138288693869" lon="22.157271780538544"><ele>112.66666666666666</ele><time>2026-04-18T14:41:44Z</time></trkpt><trkpt lat="56.161361465634506" lon="22.15698674365451"><ele>113.0</ele><time>2026-04-18T14:41:45Z</time></trkpt><trkpt lat="56.161339814003306" lon="22.1566958538252"><ele>112.66666666666666</ele><time>2026-04-18T14:41:46Z</time></trkpt><trkpt lat="56.161317956878875" lon="22.15640211950875"><ele>112.33333333333334</ele><time>2026-04-18T14:41:47Z</time></trkpt><trkpt lat="56.16129654229037" lon="22.156115523541523"><ele>112.0</ele><time>2026-04-18T14:41:48Z</time></trkpt><trkpt lat="56.1612731072739" lon="22.15581285410068"><ele>111.33333333333334</ele><time>2026-04-18T14:41:49Z</time></trkpt><trkpt lat="56.161249678641596" lon="22.155516931425"><ele>110.66666666666666</ele><time>2026-04-18T14:41:50Z</time></trkpt><trkpt lat="56.16122732276118" lon="22.155235333549115"><ele>110.0</ele><time>2026-04-18T14:41:51Z</time></trkpt><trkpt lat="56.16120459785918" lon="22.154949440855386"><ele>109.5</ele><time>2026-04-18T14:41:52Z</time></trkpt><trkpt lat="56.16118293239982" lon="22.154678075744105"><ele>109.0</ele><time>2026-04-18T14:41:53Z</time></trkpt><trkpt lat="56.16116362396109" lon="22.154437791629412"><ele>108.5</ele><time>2026-04-18T14:41:54Z</time></trkpt><trkpt lat="56.1611450399149" lon="22.154202671361695"><ele>108.0</ele><time>2026-04-18T14:41:55Z</time></trkpt><trkpt lat="56.16112767703689" lon="22.153981390078158"><ele>108.0</ele><time>2026-04-18T14:41:56Z</time></trkpt><trkpt lat="56.1611088178823" lon="22.153739095336107"><ele>108.0</ele><time>2026-04-18T14:41:57Z</time></trkpt><trkpt lat="56.16108734199482" lon="22.15347914714679"><ele>108.0</ele><time>2026-04-18T14:41:58Z</time></trkpt><trkpt lat="56.161051081963485" lon="22.15321056986192"><ele>108.0</ele><time>2026-04-18T14:41:59Z</time></trkpt><trkpt lat="56.1610338569024" lon="22.152942813365957"><ele>108.0</ele><time>2026-04-18T14:42:00Z</time></trkpt><trkpt lat="56.161010068351864" lon="22.152658390112357"><ele>108.0</ele><time>2026-04-18T14:42:01Z</time></trkpt><trkpt lat="56.16098504681101" lon="22.15237208197978"><ele>108.0</ele><time>2026-04-18T14:42:02Z</time></trkpt><trkpt lat="56.16097580425063" lon="22.15207567511739"><ele>108.33333333333334</ele><time>2026-04-18T14:42:03Z</time></trkpt><trkpt lat="56.16095279288068" lon="22.15178583322948"><ele>108.66666666666667</ele><time>2026-04-18T14:42:04Z</time></trkpt><trkpt lat="56.16091462583192" lon="22.151508262033506"><ele>109.0</ele><time>2026-04-18T14:42:05Z</time></trkpt><trkpt lat="56.16089430286345" lon="22.15122200403921"><ele>109.66666666666667</ele><time>2026-04-18T14:42:06Z</time></trkpt><trkpt lat="56.16087069801899" lon="22.150939647158197"><ele>110.33333333333334</ele><time>2026-04-18T14:42:07Z</time></trkpt><trkpt lat="56.1608502819652" lon="22.15065384516938"><ele>111.0</ele><time>2026-04-18T14:42:08Z</time></trkpt><trkpt lat="56.16082896538746" lon="22.150374864120387"><ele>111.33333333333334</ele><time>2026-04-18T14:42:09Z</time></trkpt><trkpt lat="56.16080442510861" lon="22.150094283832445"><ele>111.66666666666667</ele><time>2026-04-18T14:42:10Z</time></trkpt><trkpt lat="56.160781300726654" lon="22.149823353347468"><ele>112.0</ele><time>2026-04-18T14:42:11Z</time></trkpt><trkpt lat="56.160758795496065" lon="22.14953436650461"><ele>112.33333333333334</ele><time>2026-04-18T14:42:12Z</time></trkpt><trkpt lat="56.160737330232045" lon="22.1492754344532"><ele>112.66666666666666</ele><time>2026-04-18T14:42:13Z</time></trkpt><trkpt lat="56.160712985485006" lon="22.148980188983533"><ele>113.0</ele><time>2026-04-18T14:42:14Z</time></trkpt><trkpt lat="56.16070541666352" lon="22.148681115902733"><ele>114.0</ele><time>2026-04-18T14:42:15Z</time></trkpt><trkpt lat="56.16068002449375" lon="22.148375284239215"><ele>115.0</ele><time>2026-04-18T14:42:16Z</time></trkpt><trkpt lat="56.160655971741136" lon="22.148086043982396"><ele>116.0</ele><time>2026-04-18T14:42:17Z</time></trkpt><trkpt lat="56.160630810777896" lon="22.14778973284302"><ele>116.66666666666666</ele><time>2026-04-18T14:42:18Z</time></trkpt><trkpt lat="56.16059125695818" lon="22.147507531295833"><ele>117.33333333333334</ele><time>2026-04-18T14:42:19Z</time></trkpt><trkpt lat="56.16056742625888" lon="22.147225295976924"><ele>118.0</ele><time>2026-04-18T14:42:20Z</time></trkpt><trkpt lat="56.160562199953674" lon="22.146943239586786"><ele>119.33333333333334</ele><time>2026-04-18T14:42:21Z</time></trkpt><trkpt lat="56.16054251385573" lon="22.14666055904606"><ele>120.66666666666666</ele><time>2026-04-18T14:42:22Z</time></trkpt><trkpt lat="56.16050718106249" lon="22.146383023357"><ele>122.0</ele><time>2026-04-18T14:42:23Z</time></trkpt><trkpt lat="56.16048977938911" lon="22.146095709145744"><ele>123.66666666666666</ele><time>2026-04-18T14:42:24Z</time></trkpt><trkpt lat="56.16046055891519" lon="22.145800272474208"><ele>125.33333333333334</ele><time>2026-04-18T14:42:25Z</time></trkpt><trkpt lat="56.1604532815708" lon="22.14550018743259"><ele>127.0</ele><time>2026-04-18T14:42:26Z</time></trkpt><trkpt lat="56.16042860594084" lon="22.14518047923712"><ele>126.33333333333334</ele><time>2026-04-18T14:42:27Z</time></trkpt><trkpt lat="56.160402124453086" lon="22.14483582949017"><ele>125.66666666666666</ele><time>2026-04-18T14:42:28Z</time></trkpt><trkpt lat="56.16037633980761" lon="22.144498816223205"><ele>125.0</ele><time>2026-04-18T14:42:29Z</time></trkpt><trkpt lat="56.16035125738694" lon="22.144169697385422"><ele>125.33333333333333</ele><time>2026-04-18T14:42:30Z</time></trkpt><trkpt lat="56.16032881780886" lon="22.143873021756686"><ele>125.66666666666666</ele><time>2026-04-18T14:42:31Z</time></trkpt><trkpt lat="56.160308218860656" lon="22.143597542449683"><ele>126.0</ele><time>2026-04-18T14:42:32Z</time></trkpt><trkpt lat="56.160287714906296" lon="22.14331294027397"><ele>126.66666666666666</ele><time>2026-04-18T14:42:33Z</time></trkpt><trkpt lat="56.16026730787998" lon="22.143025972001517"><ele>127.33333333333333</ele><time>2026-04-18T14:42:34Z</time></trkpt><trkpt lat="56.16024407778952" lon="22.142732732276166"><ele>128.0</ele><time>2026-04-18T14:42:35Z</time></trkpt><trkpt lat="56.160221531943556" lon="22.14244405118342"><ele>128.0</ele><time>2026-04-18T14:42:36Z</time></trkpt><trkpt lat="56.16019771032927" lon="22.142139754074353"><ele>128.0</ele><time>2026-04-18T14:42:37Z</time></trkpt><trkpt lat="56.16017451370372" lon="22.141840845776475"><ele>128.0</ele><time>2026-04-18T14:42:38Z</time></trkpt><trkpt lat="56.16015118196571" lon="22.141544385522472"><ele>128.33333333333331</ele><time>2026-04-18T14:42:39Z</time></trkpt><trkpt lat="56.160126998340274" lon="22.14123621569043"><ele>128.66666666666666</ele><time>2026-04-18T14:42:40Z</time></trkpt><trkpt lat="56.16010421201365" lon="22.140939295435153"><ele>129.0</ele><time>2026-04-18T14:42:41Z</time></trkpt><trkpt lat="56.160081936574166" lon="22.1406512222685"><ele>129.0</ele><time>2026-04-18T14:42:42Z</time></trkpt><trkpt lat="56.16006043861555" lon="22.140370266027677"><ele>129.0</ele><time>2026-04-18T14:42:43Z</time></trkpt><trkpt lat="56.160039438337016" lon="22.140098266062733"><ele>129.0</ele><time>2026-04-18T14:42:44Z</time></trkpt><trkpt lat="56.16001763252269" lon="22.139815839257345"><ele>129.66666666666666</ele><time>2026-04-18T14:42:45Z</time></trkpt><trkpt lat="56.15999599685289" lon="22.139536086205297"><ele>130.33333333333331</ele><time>2026-04-18T14:42:46Z</time></trkpt><trkpt lat="56.159973548790035" lon="22.139246646287358"><ele>131.0</ele><time>2026-04-18T14:42:47Z</time></trkpt><trkpt lat="56.1599495770866" lon="22.13893751818032"><ele>131.0</ele><time>2026-04-18T14:42:48Z</time></trkpt><trkpt lat="56.15992543205824" lon="22.13862365758063"><ele>131.0</ele><time>2026-04-18T14:42:49Z</time></trkpt><trkpt lat="56.159902272460066" lon="22.138321735382373"><ele>131.0</ele><time>2026-04-18T14:42:50Z</time></trkpt><trkpt lat="56.15988162404363" lon="22.138038803074014"><ele>131.0</ele><time>2026-04-18T14:42:51Z</time></trkpt><trkpt lat="56.1598680809535" lon="22.137774694268042"><ele>131.0</ele><time>2026-04-18T14:42:52Z</time></trkpt><trkpt lat="56.159863679892084" lon="22.137534786264315"><ele>131.0</ele><time>2026-04-18T14:42:53Z</time></trkpt><trkpt lat="56.159870997902146" lon="22.137290753703912"><ele>131.0</ele><time>2026-04-18T14:42:54Z</time></trkpt><trkpt lat="56.159878495316136" lon="22.137031609242428"><ele>130.66666666666666</ele><time>2026-04-18T14:42:55Z</time></trkpt><trkpt lat="56.15989011584853" lon="22.13677598826369"><ele>130.33333333333334</ele><time>2026-04-18T14:42:56Z</time></trkpt><trkpt lat="56.15990594557776" lon="22.136497325172428"><ele>130.0</ele><time>2026-04-18T14:42:57Z</time></trkpt><trkpt lat="56.1599213077825" lon="22.136226793009822"><ele>129.66666666666669</ele><time>2026-04-18T14:42:58Z</time></trkpt><trkpt lat="56.159936637072875" lon="22.13595684059365"><ele>129.33333333333334</ele><time>2026-04-18T14:42:59Z</time></trkpt><trkpt lat="56.1599523297215" lon="22.135680489421027"><ele>129.0</ele><time>2026-04-18T14:43:00Z</time></trkpt><trkpt lat="56.15995295918062" lon="22.135418886518544"><ele>128.5</ele><time>2026-04-18T14:43:01Z</time></trkpt><trkpt lat="56.159972171657266" lon="22.135161618443252"><ele>128.0</ele><time>2026-04-18T14:43:02Z</time></trkpt><trkpt lat="56.159987823092486" lon="22.134908890428925"><ele>127.5</ele><time>2026-04-18T14:43:03Z</time></trkpt><trkpt lat="56.16000771527382" lon="22.134645239554967"><ele>127.0</ele><time>2026-04-18T14:43:04Z</time></trkpt><trkpt lat="56.16002844561864" lon="22.134385817261276"><ele>126.5</ele><time>2026-04-18T14:43:05Z</time></trkpt><trkpt lat="56.160051340726476" lon="22.134132582035416"><ele>126.0</ele><time>2026-04-18T14:43:06Z</time></trkpt><trkpt lat="56.16007747052049" lon="22.133886969358187"><ele>125.5</ele><time>2026-04-18T14:43:07Z</time></trkpt><trkpt lat="56.16010365805735" lon="22.133643115600343"><ele>125.0</ele><time>2026-04-18T14:43:08Z</time></trkpt><trkpt lat="56.16013103953056" lon="22.13340369749815"><ele>125.0</ele><time>2026-04-18T14:43:09Z</time></trkpt><trkpt lat="56.160165533887096" lon="22.13316196722902"><ele>125.0</ele><time>2026-04-18T14:43:10Z</time></trkpt><trkpt lat="56.16020140608687" lon="22.132917322711943"><ele>125.0</ele><time>2026-04-18T14:43:11Z</time></trkpt><trkpt lat="56.16024164612072" lon="22.132677470324552"><ele>125.0</ele><time>2026-04-18T14:43:12Z</time></trkpt><trkpt lat="56.16028374036698" lon="22.13243313907425"><ele>124.75</ele><time>2026-04-18T14:43:13Z</time></trkpt><trkpt lat="56.160338054887845" lon="22.132211172785578"><ele>124.5</ele><time>2026-04-18T14:43:14Z</time></trkpt><trkpt lat="56.16037936533662" lon="22.131978749250155"><ele>124.25</ele><time>2026-04-18T14:43:15Z</time></trkpt><trkpt lat="56.16040546065081" lon="22.13173641521315"><ele>124.0</ele><time>2026-04-18T14:43:16Z</time></trkpt><trkpt lat="56.16045030907803" lon="22.13150420352796"><ele>123.25</ele><time>2026-04-18T14:43:17Z</time></trkpt><trkpt lat="56.16051343640376" lon="22.131277972300058"><ele>122.5</ele><time>2026-04-18T14:43:18Z</time></trkpt><trkpt lat="56.160550060605246" lon="22.13103609787457"><ele>121.75</ele><time>2026-04-18T14:43:19Z</time></trkpt><trkpt lat="56.160613045506956" lon="22.130798675997102"><ele>121.0</ele><time>2026-04-18T14:43:20Z</time></trkpt><trkpt lat="56.1606758751159" lon="22.130576097752282"><ele>121.0</ele><time>2026-04-18T14:43:21Z</time></trkpt><trkpt lat="56.16074249627725" lon="22.130362323763006"><ele>121.0</ele><time>2026-04-18T14:43:22Z</time></trkpt><trkpt lat="56.16081236100124" lon="22.130145307385206"><ele>121.0</ele><time>2026-04-18T14:43:23Z</time></trkpt><trkpt lat="56.16088209545634" lon="22.129933494946016"><ele>121.0</ele><time>2026-04-18T14:43:24Z</time></trkpt><trkpt lat="56.16095112742234" lon="22.12972046698927"><ele>121.0</ele><time>2026-04-18T14:43:25Z</time></trkpt><trkpt lat="56.1610223603387" lon="22.129506376130767"><ele>121.0</ele><time>2026-04-18T14:43:26Z</time></trkpt><trkpt lat="56.16109069702208" lon="22.129295399535838"><ele>121.0</ele><time>2026-04-18T14:43:27Z</time></trkpt><trkpt lat="56.16115583228829" lon="22.1290787295157"><ele>121.0</ele><time>2026-04-18T14:43:28Z</time></trkpt><trkpt lat="56.16123162798924" lon="22.128876202441987"><ele>120.75</ele><time>2026-04-18T14:43:29Z</time></trkpt><trkpt lat="56.161272466887" lon="22.128641027294428"><ele>120.5</ele><time>2026-04-18T14:43:30Z</time></trkpt><trkpt lat="56.16132032290132" lon="22.12841978318657"><ele>120.25</ele><time>2026-04-18T14:43:31Z</time></trkpt><trkpt lat="56.161380532537805" lon="22.128201664204575"><ele>120.0</ele><time>2026-04-18T14:43:32Z</time></trkpt><trkpt lat="56.16141701292719" lon="22.127972441338226"><ele>119.75</ele><time>2026-04-18T14:43:33Z</time></trkpt><trkpt lat="56.1614561343699" lon="22.127728237832322"><ele>119.5</ele><time>2026-04-18T14:43:34Z</time></trkpt><trkpt lat="56.16148410789771" lon="22.127469362125957"><ele>119.25</ele><time>2026-04-18T14:43:35Z</time></trkpt><trkpt lat="56.16151330941659" lon="22.12718891132664"><ele>119.0</ele><time>2026-04-18T14:43:36Z</time></trkpt><trkpt lat="56.161545047242235" lon="22.12688653632937"><ele>118.66666666666666</ele><time>2026-04-18T14:43:37Z</time></trkpt><trkpt lat="56.16155496401671" lon="22.12656084147569"><ele>118.33333333333334</ele><time>2026-04-18T14:43:38Z</time></trkpt><trkpt lat="56.1615836646773" lon="22.126242773020557"><ele>118.0</ele><time>2026-04-18T14:43:39Z</time></trkpt><trkpt lat="56.16160746333259" lon="22.125909440208172"><ele>117.33333333333334</ele><time>2026-04-18T14:43:40Z</time></trkpt><trkpt lat="56.16163251734481" lon="22.125592353741574"><ele>116.66666666666666</ele><time>2026-04-18T14:43:41Z</time></trkpt><trkpt lat="56.161656347849544" lon="22.125263111506445"><ele>116.0</ele><time>2026-04-18T14:43:42Z</time></trkpt><trkpt lat="56.16168454994456" lon="22.124935589196543"><ele>116.0</ele><time>2026-04-18T14:43:43Z</time></trkpt><trkpt lat="56.16173593972525" lon="22.124606333429554"><ele>116.0</ele><time>2026-04-18T14:43:44Z</time></trkpt><trkpt lat="56.16177291724949" lon="22.124284073447736"><ele>116.0</ele><time>2026-04-18T14:43:45Z</time></trkpt><trkpt lat="56.16180940039926" lon="22.12396612200899"><ele>116.0</ele><time>2026-04-18T14:43:46Z</time></trkpt><trkpt lat="56.16184702924019" lon="22.12363864582789"><ele>116.0</ele><time>2026-04-18T14:43:47Z</time></trkpt><trkpt lat="56.16188403039238" lon="22.12332342315833"><ele>116.0</ele><time>2026-04-18T14:43:48Z</time></trkpt><trkpt lat="56.16192454746629" lon="22.123011224754034"><ele>116.0</ele><time>2026-04-18T14:43:49Z</time></trkpt><trkpt lat="56.16196418203346" lon="22.12270671927315"><ele>116.0</ele><time>2026-04-18T14:43:50Z</time></trkpt><trkpt lat="56.162004165260264" lon="22.12240128115992"><ele>116.0</ele><time>2026-04-18T14:43:51Z</time></trkpt><trkpt lat="56.162028443402825" lon="22.12209787399731"><ele>116.0</ele><time>2026-04-18T14:43:52Z</time></trkpt><trkpt lat="56.16206995306099" lon="22.12179829475322"><ele>116.0</ele><time>2026-04-18T14:43:53Z</time></trkpt><trkpt lat="56.16211062878844" lon="22.121493509567948"><ele>116.0</ele><time>2026-04-18T14:43:54Z</time></trkpt><trkpt lat="56.16215133848905" lon="22.121175964579592"><ele>116.66666666666666</ele><time>2026-04-18T14:43:55Z</time></trkpt><trkpt lat="56.16218999093025" lon="22.12086551262413"><ele>117.33333333333334</ele><time>2026-04-18T14:43:56Z</time></trkpt><trkpt lat="56.16222452100422" lon="22.120552592571205"><ele>118.0</ele><time>2026-04-18T14:43:57Z</time></trkpt><trkpt lat="56.162258277468915" lon="22.120250292065435"><ele>118.0</ele><time>2026-04-18T14:43:58Z</time></trkpt><trkpt lat="56.16231015051843" lon="22.1199404015173"><ele>118.0</ele><time>2026-04-18T14:43:59Z</time></trkpt><trkpt lat="56.16234838566891" lon="22.119626583069916"><ele>118.0</ele><time>2026-04-18T14:44:00Z</time></trkpt><trkpt lat="56.16238532392505" lon="22.119306654746577"><ele>118.0</ele><time>2026-04-18T14:44:01Z</time></trkpt><trkpt lat="56.16240431339089" lon="22.118980916891587"><ele>118.0</ele><time>2026-04-18T14:44:02Z</time></trkpt><trkpt lat="56.16244103674416" lon="22.11866429804996"><ele>118.0</ele><time>2026-04-18T14:44:03Z</time></trkpt><trkpt lat="56.16247845150663" lon="22.118341515325767"><ele>118.0</ele><time>2026-04-18T14:44:04Z</time></trkpt><trkpt lat="56.16251319275943" lon="22.118017556940288"><ele>118.0</ele><time>2026-04-18T14:44:05Z</time></trkpt><trkpt lat="56.1625459431377" lon="22.117710809729374"><ele>118.0</ele><time>2026-04-18T14:44:06Z</time></trkpt><trkpt lat="56.16257367232012" lon="22.11741205018371"><ele>118.0</ele><time>2026-04-18T14:44:07Z</time></trkpt><trkpt lat="56.1626198289376" lon="22.11713509783346"><ele>118.0</ele><time>2026-04-18T14:44:08Z</time></trkpt><trkpt lat="56.16265288729134" lon="22.1168440944915"><ele>118.0</ele><time>2026-04-18T14:44:09Z</time></trkpt><trkpt lat="56.16268619378772" lon="22.11654880250624"><ele>117.33333333333334</ele><time>2026-04-18T14:44:10Z</time></trkpt><trkpt lat="56.16271947052089" lon="22.116254601995"><ele>116.66666666666666</ele><time>2026-04-18T14:44:11Z</time></trkpt><trkpt lat="56.16275213760479" lon="22.115965784823356"><ele>116.0</ele><time>2026-04-18T14:44:12Z</time></trkpt><trkpt lat="56.16278585312954" lon="22.115667697997736"><ele>116.0</ele><time>2026-04-18T14:44:13Z</time></trkpt><trkpt lat="56.16281904278027" lon="22.115373256098668"><ele>116.0</ele><time>2026-04-18T14:44:14Z</time></trkpt><trkpt lat="56.16285285205573" lon="22.11507184850334"><ele>116.0</ele><time>2026-04-18T14:44:15Z</time></trkpt><trkpt lat="56.16288591918674" lon="22.114782109645372"><ele>116.0</ele><time>2026-04-18T14:44:16Z</time></trkpt><trkpt lat="56.162919574123194" lon="22.114486403643017"><ele>116.0</ele><time>2026-04-18T14:44:17Z</time></trkpt><trkpt lat="56.162953471733886" lon="22.114195625085486"><ele>116.0</ele><time>2026-04-18T14:44:18Z</time></trkpt><trkpt lat="56.162994224264985" lon="22.113917336961624"><ele>116.33333333333333</ele><time>2026-04-18T14:44:19Z</time></trkpt><trkpt lat="56.163033925339064" lon="22.113644746472392"><ele>116.66666666666666</ele><time>2026-04-18T14:44:20Z</time></trkpt><trkpt lat="56.16307341024498" lon="22.113373743242843"><ele>117.0</ele><time>2026-04-18T14:44:21Z</time></trkpt><trkpt lat="56.16311302843901" lon="22.113103827075577"><ele>117.0</ele><time>2026-04-18T14:44:22Z</time></trkpt><trkpt lat="56.16314772483505" lon="22.112844422567473"><ele>117.0</ele><time>2026-04-18T14:44:23Z</time></trkpt><trkpt lat="56.16318314037682" lon="22.11257542299384"><ele>117.0</ele><time>2026-04-18T14:44:24Z</time></trkpt><trkpt lat="56.16321737812182" lon="22.112313787526894"><ele>117.0</ele><time>2026-04-18T14:44:25Z</time></trkpt><trkpt lat="56.16323605518418" lon="22.112045324489703"><ele>117.0</ele><time>2026-04-18T14:44:26Z</time></trkpt><trkpt lat="56.16326613595742" lon="22.111789976261413"><ele>117.0</ele><time>2026-04-18T14:44:27Z</time></trkpt><trkpt lat="56.16330072767591" lon="22.111540969513957"><ele>117.0</ele><time>2026-04-18T14:44:28Z</time></trkpt><trkpt lat="56.163321511963716" lon="22.111314628219812"><ele>116.8</ele><time>2026-04-18T14:44:29Z</time></trkpt><trkpt lat="56.16333695281932" lon="22.11110906806743"><ele>116.6</ele><time>2026-04-18T14:44:30Z</time></trkpt><trkpt lat="56.16335595534497" lon="22.110896128240093"><ele>116.39999999999999</ele><time>2026-04-18T14:44:31Z</time></trkpt><trkpt lat="56.16337601492132" lon="22.110703420403468"><ele>116.19999999999999</ele><time>2026-04-18T14:44:32Z</time></trkpt><trkpt lat="56.16339254849348" lon="22.11052892169451"><ele>116.0</ele><time>2026-04-18T14:44:33Z</time></trkpt><trkpt lat="56.16341133849288" lon="22.110353864532115"><ele>115.5</ele><time>2026-04-18T14:44:34Z</time></trkpt><trkpt lat="56.16342801753402" lon="22.110165618942954"><ele>115.0</ele><time>2026-04-18T14:44:35Z</time></trkpt><trkpt lat="56.16344580005776" lon="22.109960731468313"><ele>114.5</ele><time>2026-04-18T14:44:36Z</time></trkpt><trkpt lat="56.163464602546426" lon="22.10976792661744"><ele>114.0</ele><time>2026-04-18T14:44:37Z</time></trkpt><trkpt lat="56.16348517506934" lon="22.1095575254559"><ele>113.5</ele><time>2026-04-18T14:44:38Z</time></trkpt><trkpt lat="56.16350582964663" lon="22.10935038786071"><ele>113.0</ele><time>2026-04-18T14:44:39Z</time></trkpt><trkpt lat="56.163529386597794" lon="22.10912946898805"><ele>112.5</ele><time>2026-04-18T14:44:40Z</time></trkpt><trkpt lat="56.16355711582205" lon="22.10890810069398"><ele>112.0</ele><time>2026-04-18T14:44:41Z</time></trkpt><trkpt lat="56.16358562658616" lon="22.108678806824827"><ele>112.0</ele><time>2026-04-18T14:44:42Z</time></trkpt><trkpt lat="56.16361153094827" lon="22.108447767383538"><ele>112.0</ele><time>2026-04-18T14:44:43Z</time></trkpt><trkpt lat="56.16365231937528" lon="22.108216902244045"><ele>112.0</ele><time>2026-04-18T14:44:44Z</time></trkpt><trkpt lat="56.16368013413303" lon="22.107981269811958"><ele>112.0</ele><time>2026-04-18T14:44:45Z</time></trkpt><trkpt lat="56.16370819870982" lon="22.10774404396414"><ele>112.0</ele><time>2026-04-18T14:44:46Z</time></trkpt><trkpt lat="56.163719923472534" lon="22.107505146215207"><ele>112.0</ele><time>2026-04-18T14:44:47Z</time></trkpt><trkpt lat="56.163751505504266" lon="22.107269866530988"><ele>112.0</ele><time>2026-04-18T14:44:48Z</time></trkpt><trkpt lat="56.16377823656448" lon="22.10703714447998"><ele>112.0</ele><time>2026-04-18T14:44:49Z</time></trkpt><trkpt lat="56.163804595386004" lon="22.106799959440533"><ele>112.0</ele><time>2026-04-18T14:44:50Z</time></trkpt><trkpt lat="56.16384668374617" lon="22.106568224181515"><ele>112.0</ele><time>2026-04-18T14:44:51Z</time></trkpt><trkpt lat="56.16387646180403" lon="22.10631714650895"><ele>112.0</ele><time>2026-04-18T14:44:52Z</time></trkpt><trkpt lat="56.16390581995432" lon="22.10607003843035"><ele>112.0</ele><time>2026-04-18T14:44:53Z</time></trkpt><trkpt lat="56.16393491175552" lon="22.105823253123955"><ele>111.75</ele><time>2026-04-18T14:44:54Z</time></trkpt><trkpt lat="56.163962199261654" lon="22.105589402487965"><ele>111.5</ele><time>2026-04-18T14:44:55Z</time></trkpt><trkpt lat="56.16397560662943" lon="22.10534996642872"><ele>111.25</ele><time>2026-04-18T14:44:56Z</time></trkpt><trkpt lat="56.164003307541925" lon="22.105113713540288"><ele>111.0</ele><time>2026-04-18T14:44:57Z</time></trkpt><trkpt lat="56.1640280528175" lon="22.104890354946665"><ele>111.5</ele><time>2026-04-18T14:44:58Z</time></trkpt><trkpt lat="56.16405617125511" lon="22.104666069245933"><ele>112.0</ele><time>2026-04-18T14:44:59Z</time></trkpt><trkpt lat="56.164083282677744" lon="22.104448103314546"><ele>112.5</ele><time>2026-04-18T14:45:00Z</time></trkpt><trkpt lat="56.16410946411331" lon="22.10423078132377"><ele>113.0</ele><time>2026-04-18T14:45:01Z</time></trkpt><trkpt lat="56.16414765675135" lon="22.104019285345142"><ele>113.2</ele><time>2026-04-18T14:45:02Z</time></trkpt><trkpt lat="56.164174789264" lon="22.103802793778037"><ele>113.4</ele><time>2026-04-18T14:45:03Z</time></trkpt><trkpt lat="56.164199688017305" lon="22.103604104139322"><ele>113.60000000000001</ele><time>2026-04-18T14:45:04Z</time></trkpt><trkpt lat="56.16421942806576" lon="22.103446579828912"><ele>113.80000000000001</ele><time>2026-04-18T14:45:05Z</time></trkpt><trkpt lat="56.16423563399185" lon="22.103317258184415"><ele>114.0</ele><time>2026-04-18T14:45:06Z</time></trkpt><trkpt lat="56.16423424615992" lon="22.10320128708122"><ele>114.2</ele><time>2026-04-18T14:45:07Z</time></trkpt><trkpt lat="56.16426432709253" lon="22.10306931803205"><ele>114.4</ele><time>2026-04-18T14:45:09Z</time></trkpt><trkpt lat="56.16428878006255" lon="22.102951093821616"><ele>114.6</ele><time>2026-04-18T14:45:32Z</time></trkpt><trkpt lat="56.16429358735103" lon="22.10275069760005"><ele>114.8</ele><time>2026-04-18T14:45:34Z</time></trkpt><trkpt lat="56.164283581595434" lon="22.10256981971558"><ele>115.0</ele><time>2026-04-18T14:45:36Z</time></trkpt><trkpt lat="56.16426861407435" lon="22.10240456211882"><ele>115.25</ele><time>2026-04-18T14:45:38Z</time></trkpt><trkpt lat="56.16425851038189" lon="22.102209407463427"><ele>115.5</ele><time>2026-04-18T14:45:40Z</time></trkpt><trkpt lat="56.16422520845612" lon="22.102039992862075"><ele>115.75</ele><time>2026-04-18T14:45:42Z</time></trkpt><trkpt lat="56.16407433314113" lon="22.101971635837902"><ele>116.0</ele><time>2026-04-18T14:45:44Z</time></trkpt><trkpt lat="56.16398829608279" lon="22.101869217460433"><ele>115.6</ele><time>2026-04-18T14:45:46.001Z</time></trkpt><trkpt lat="56.16391479403704" lon="22.10174193912632"><ele>115.19999999999999</ele><time>2026-04-18T14:45:48.001Z</time></trkpt><trkpt lat="56.163898682731414" lon="22.101516830360747"><ele>114.80000000000001</ele><time>2026-04-18T14:49:01Z</time></trkpt><trkpt lat="56.16398847352592" lon="22.101542335319486"><ele>114.4</ele><time>2026-04-18T14:49:13Z</time></trkpt><trkpt lat="56.16387318809835" lon="22.101473988657816"><ele>114.0</ele><time>2026-04-18T14:50:00.032Z</time></trkpt><trkpt lat="56.16384807486765" lon="22.101582217376368"><ele>114.0</ele><time>2026-04-18T14:50:03.031Z</time></trkpt><trkpt lat="56.16389781119412" lon="22.101670174787845"><ele>114.0</ele><time>2026-04-18T14:50:05.03Z</time></trkpt><trkpt lat="56.163941417344695" lon="22.10180999425766"><ele>114.0</ele><time>2026-04-18T14:50:07.03Z</time></trkpt><trkpt lat="56.16392639440683" lon="22.101670778143678"><ele>114.0</ele><time>2026-04-18T14:50:47.022Z</time></trkpt><trkpt lat="56.1639560976994" lon="22.101790810000647"><ele>114.0</ele><time>2026-04-18T14:51:23.021Z</time></trkpt><trkpt lat="56.16387748385724" lon="22.101807176691423"><ele>114.0</ele><time>2026-04-18T14:51:32.023Z</time></trkpt><trkpt lat="56.163906773840615" lon="22.10159173581082"><ele>114.0</ele><time>2026-04-18T14:51:39.02Z</time></trkpt><trkpt lat="56.16392467341414" lon="22.101474594228975"><ele>114.0</ele><time>2026-04-18T14:51:42.019Z</time></trkpt><trkpt lat="56.16385979150751" lon="22.101504125174134"><ele>114.0</ele><time>2026-04-18T14:51:52Z</time></trkpt><trkpt lat="56.163793294427016" lon="22.10149117639683"><ele>114.0</ele><time>2026-04-18T14:52:02Z</time></trkpt><trkpt lat="56.16372365363572" lon="22.101556582843877"><ele>114.0</ele><time>2026-04-18T14:58:46Z</time></trkpt><trkpt lat="56.163681398429844" lon="22.10165741820986"><ele>114.0</ele><time>2026-04-18T14:58:48Z</time></trkpt><trkpt lat="56.16358334912817" lon="22.10172773730427"><ele>114.0</ele><time>2026-04-18T14:58:51Z</time></trkpt><trkpt lat="56.16345554449561" lon="22.101619795637752"><ele>114.0</ele><time>2026-04-18T14:58:53Z</time></trkpt><trkpt lat="56.16338223125596" lon="22.101492037484604"><ele>114.0</ele><time>2026-04-18T14:58:54Z</time></trkpt><trkpt lat="56.16331379415116" lon="22.101362401130654"><ele>114.0</ele><time>2026-04-18T14:58:55Z</time></trkpt><trkpt lat="56.16322225989673" lon="22.10121142051899"><ele>113.75</ele><time>2026-04-18T14:58:56Z</time></trkpt><trkpt lat="56.163133531316554" lon="22.10105761169002"><ele>113.5</ele><time>2026-04-18T14:58:57Z</time></trkpt><trkpt lat="56.16304411354714" lon="22.100897584130465"><ele>113.25</ele><time>2026-04-18T14:58:58Z</time></trkpt><trkpt lat="56.1629511688243" lon="22.1007399648613"><ele>113.0</ele><time>2026-04-18T14:58:59Z</time></trkpt><trkpt lat="56.162861932832364" lon="22.100591440016686"><ele>113.0</ele><time>2026-04-18T14:59:00Z</time></trkpt><trkpt lat="56.16278017785561" lon="22.100449136902373"><ele>113.00000000000001</ele><time>2026-04-18T14:59:01Z</time></trkpt><trkpt lat="56.162706148226505" lon="22.100310243315327"><ele>113.00000000000001</ele><time>2026-04-18T14:59:02Z</time></trkpt><trkpt lat="56.16263608044513" lon="22.100182810346695"><ele>113.0</ele><time>2026-04-18T14:59:03Z</time></trkpt><trkpt lat="56.16256494854367" lon="22.10005890286071"><ele>113.0</ele><time>2026-04-18T14:59:04Z</time></trkpt><trkpt lat="56.1624999377327" lon="22.099940966910463"><ele>113.16666666666666</ele><time>2026-04-18T14:59:05Z</time></trkpt><trkpt lat="56.16244374683469" lon="22.099834678746838"><ele>113.33333333333333</ele><time>2026-04-18T14:59:06Z</time></trkpt><trkpt lat="56.162392609331704" lon="22.099731765500035"><ele>113.5</ele><time>2026-04-18T14:59:07Z</time></trkpt><trkpt lat="56.16234712643452" lon="22.09964559185127"><ele>113.66666666666666</ele><time>2026-04-18T14:59:08Z</time></trkpt><trkpt lat="56.1623033522959" lon="22.099561737619027"><ele>113.83333333333333</ele><time>2026-04-18T14:59:09Z</time></trkpt><trkpt lat="56.16224815620192" lon="22.099357351684894"><ele>114.0</ele><time>2026-04-18T14:59:11Z</time></trkpt><trkpt lat="56.16224150269196" lon="22.099235457694284"><ele>113.66666666666667</ele><time>2026-04-18T14:59:12Z</time></trkpt><trkpt lat="56.16223229755246" lon="22.099120133145163"><ele>113.33333333333334</ele><time>2026-04-18T14:59:13Z</time></trkpt><trkpt lat="56.162155615630994" lon="22.098990081222944"><ele>113.0</ele><time>2026-04-18T14:59:15Z</time></trkpt><trkpt lat="56.162092620691936" lon="22.098967735184885"><ele>112.66666666666667</ele><time>2026-04-18T14:59:16Z</time></trkpt><trkpt lat="56.162022480358914" lon="22.098988361869075"><ele>112.33333333333334</ele><time>2026-04-18T14:59:17Z</time></trkpt><trkpt lat="56.16193624081873" lon="22.09917090854899"><ele>112.0</ele><time>2026-04-18T14:59:19Z</time></trkpt><trkpt lat="56.16192198977795" lon="22.09931608758088"><ele>112.0</ele><time>2026-04-18T14:59:20Z</time></trkpt><trkpt lat="56.161899264138405" lon="22.09947053199048"><ele>111.99999999999999</ele><time>2026-04-18T14:59:21Z</time></trkpt><trkpt lat="56.161844460985336" lon="22.099624986784303"><ele>111.99999999999999</ele><time>2026-04-18T14:59:22Z</time></trkpt><trkpt lat="56.16176409844395" lon="22.099778855788166"><ele>112.0</ele><time>2026-04-18T14:59:23Z</time></trkpt><trkpt lat="56.16165933578309" lon="22.099948281139625"><ele>112.0</ele><time>2026-04-18T14:59:24Z</time></trkpt><trkpt lat="56.16155660555751" lon="22.10012300672398"><ele>112.0</ele><time>2026-04-18T14:59:25Z</time></trkpt><trkpt lat="56.1614599868985" lon="22.100302486985065"><ele>112.0</ele><time>2026-04-18T14:59:26Z</time></trkpt><trkpt lat="56.16136222392073" lon="22.10050139442689"><ele>112.0</ele><time>2026-04-18T14:59:27Z</time></trkpt><trkpt lat="56.161246808267585" lon="22.10070410142153"><ele>112.0</ele><time>2026-04-18T14:59:28Z</time></trkpt><trkpt lat="56.161124320207485" lon="22.100925813031356"><ele>112.0</ele><time>2026-04-18T14:59:29Z</time></trkpt><trkpt lat="56.160994191669275" lon="22.101160953512665"><ele>112.0</ele><time>2026-04-18T14:59:30Z</time></trkpt><trkpt lat="56.16085953802465" lon="22.101403135993515"><ele>112.0</ele><time>2026-04-18T14:59:31Z</time></trkpt><trkpt lat="56.16073153511865" lon="22.101633956254005"><ele>111.66666666666667</ele><time>2026-04-18T14:59:32Z</time></trkpt><trkpt lat="56.160605334041236" lon="22.101860533809234"><ele>111.33333333333334</ele><time>2026-04-18T14:59:33Z</time></trkpt><trkpt lat="56.160473722801136" lon="22.102101072662002"><ele>111.0</ele><time>2026-04-18T14:59:34Z</time></trkpt><trkpt lat="56.1603418474765" lon="22.102342431000576"><ele>111.0</ele><time>2026-04-18T14:59:35Z</time></trkpt><trkpt lat="56.160214306931536" lon="22.102616890837343"><ele>111.0</ele><time>2026-04-18T14:59:36Z</time></trkpt><trkpt lat="56.16007577854028" lon="22.102864653953745"><ele>111.0</ele><time>2026-04-18T14:59:37Z</time></trkpt><trkpt lat="56.15994190625802" lon="22.103109019677813"><ele>111.0</ele><time>2026-04-18T14:59:38Z</time></trkpt><trkpt lat="56.15979825654717" lon="22.103332700588638"><ele>111.0</ele><time>2026-04-18T14:59:39Z</time></trkpt><trkpt lat="56.15966882707409" lon="22.10356511864232"><ele>111.0</ele><time>2026-04-18T14:59:40Z</time></trkpt><trkpt lat="56.159542551211196" lon="22.103833379348618"><ele>111.33333333333334</ele><time>2026-04-18T14:59:41Z</time></trkpt><trkpt lat="56.159402326110374" lon="22.104081904073595"><ele>111.66666666666667</ele><time>2026-04-18T14:59:42Z</time></trkpt><trkpt lat="56.15925753353022" lon="22.10434050346499"><ele>112.0</ele><time>2026-04-18T14:59:43Z</time></trkpt><trkpt lat="56.15911808077368" lon="22.10459102695499"><ele>112.0</ele><time>2026-04-18T14:59:44Z</time></trkpt><trkpt lat="56.1589800084248" lon="22.10483961927689"><ele>112.0</ele><time>2026-04-18T14:59:45Z</time></trkpt><trkpt lat="56.15883278380335" lon="22.105107433110707"><ele>112.0</ele><time>2026-04-18T14:59:46Z</time></trkpt><trkpt lat="56.15869083459874" lon="22.105363011300096"><ele>112.0</ele><time>2026-04-18T14:59:47Z</time></trkpt><trkpt lat="56.15855169207511" lon="22.105611144264724"><ele>112.0</ele><time>2026-04-18T14:59:48Z</time></trkpt><trkpt lat="56.15841851822255" lon="22.105861675870145"><ele>112.0</ele><time>2026-04-18T14:59:49Z</time></trkpt><trkpt lat="56.15826867184012" lon="22.106097647271582"><ele>111.66666666666667</ele><time>2026-04-18T14:59:50Z</time></trkpt><trkpt lat="56.158126411602055" lon="22.106357490003713"><ele>111.33333333333334</ele><time>2026-04-18T14:59:51Z</time></trkpt><trkpt lat="56.15798404507338" lon="22.106617801589977"><ele>111.0</ele><time>2026-04-18T14:59:52Z</time></trkpt><trkpt lat="56.157843386031765" lon="22.10687544345652"><ele>111.0</ele><time>2026-04-18T14:59:53Z</time></trkpt><trkpt lat="56.157715048635744" lon="22.107143826801376"><ele>111.0</ele><time>2026-04-18T14:59:54Z</time></trkpt><trkpt lat="56.157572817721054" lon="22.107398882692532"><ele>111.0</ele><time>2026-04-18T14:59:55Z</time></trkpt><trkpt lat="56.15743492940559" lon="22.107652504124882"><ele>111.33333333333334</ele><time>2026-04-18T14:59:56Z</time></trkpt><trkpt lat="56.157297318006194" lon="22.107905178541223"><ele>111.66666666666667</ele><time>2026-04-18T14:59:57Z</time></trkpt><trkpt lat="56.157162450475525" lon="22.10815673674402"><ele>112.0</ele><time>2026-04-18T14:59:58Z</time></trkpt><trkpt lat="56.157026285723525" lon="22.108400465167986"><ele>112.66666666666667</ele><time>2026-04-18T14:59:59Z</time></trkpt><trkpt lat="56.156888864429256" lon="22.108647167739775"><ele>113.33333333333334</ele><time>2026-04-18T15:00:00Z</time></trkpt><trkpt lat="56.15675348993103" lon="22.108895744514225"><ele>114.0</ele><time>2026-04-18T15:00:01Z</time></trkpt><trkpt lat="56.15660163828667" lon="22.109129767079892"><ele>113.66666666666666</ele><time>2026-04-18T15:00:02Z</time></trkpt><trkpt lat="56.156459880285915" lon="22.109383447046202"><ele>113.33333333333333</ele><time>2026-04-18T15:00:03Z</time></trkpt><trkpt lat="56.15631977917755" lon="22.109634528749247"><ele>113.0</ele><time>2026-04-18T15:00:04Z</time></trkpt><trkpt lat="56.156173029134294" lon="22.10989752617077"><ele>113.0</ele><time>2026-04-18T15:00:05Z</time></trkpt><trkpt lat="56.15602851014588" lon="22.1101562788407"><ele>113.0</ele><time>2026-04-18T15:00:06Z</time></trkpt><trkpt lat="56.15588654878388" lon="22.110410093701873"><ele>113.0</ele><time>2026-04-18T15:00:07Z</time></trkpt><trkpt lat="56.155738474519254" lon="22.110675281923573"><ele>112.66666666666666</ele><time>2026-04-18T15:00:08Z</time></trkpt><trkpt lat="56.155592347594705" lon="22.110943696056555"><ele>112.33333333333334</ele><time>2026-04-18T15:00:09Z</time></trkpt><trkpt lat="56.15545110206852" lon="22.11120315401595"><ele>112.0</ele><time>2026-04-18T15:00:10Z</time></trkpt><trkpt lat="56.15531653673488" lon="22.111484999982448"><ele>112.0</ele><time>2026-04-18T15:00:11Z</time></trkpt><trkpt lat="56.15517156559519" lon="22.11174521637488"><ele>112.0</ele><time>2026-04-18T15:00:12Z</time></trkpt><trkpt lat="56.155027099587805" lon="22.11201270232968"><ele>112.0</ele><time>2026-04-18T15:00:13Z</time></trkpt><trkpt lat="56.15488432571664" lon="22.112275195777787"><ele>112.0</ele><time>2026-04-18T15:00:14Z</time></trkpt><trkpt lat="56.15474273512348" lon="22.11253623013393"><ele>112.0</ele><time>2026-04-18T15:00:15Z</time></trkpt><trkpt lat="56.15459904627318" lon="22.112800478894975"><ele>112.0</ele><time>2026-04-18T15:00:16Z</time></trkpt><trkpt lat="56.154454202134836" lon="22.113058056071612"><ele>112.0</ele><time>2026-04-18T15:00:17Z</time></trkpt><trkpt lat="56.15431270107747" lon="22.113314201569207"><ele>112.0</ele><time>2026-04-18T15:00:18Z</time></trkpt><trkpt lat="56.15416958390463" lon="22.113576419606378"><ele>112.0</ele><time>2026-04-18T15:00:19Z</time></trkpt><trkpt lat="56.15402768267828" lon="22.11384092026525"><ele>111.66666666666667</ele><time>2026-04-18T15:00:20Z</time></trkpt><trkpt lat="56.15388540662028" lon="22.114103165972328"><ele>111.33333333333334</ele><time>2026-04-18T15:00:21Z</time></trkpt><trkpt lat="56.15374392093083" lon="22.11436751613053"><ele>111.0</ele><time>2026-04-18T15:00:22Z</time></trkpt><trkpt lat="56.153601397377365" lon="22.11463288901782"><ele>111.0</ele><time>2026-04-18T15:00:23Z</time></trkpt><trkpt lat="56.15345588642798" lon="22.11490484802878"><ele>111.0</ele><time>2026-04-18T15:00:24Z</time></trkpt><trkpt lat="56.15331524493314" lon="22.115179609117977"><ele>111.0</ele><time>2026-04-18T15:00:25Z</time></trkpt><trkpt lat="56.15317628360495" lon="22.11546175214299"><ele>111.33333333333334</ele><time>2026-04-18T15:00:26Z</time></trkpt><trkpt lat="56.153037008484" lon="22.115743172077956"><ele>111.66666666666667</ele><time>2026-04-18T15:00:27Z</time></trkpt><trkpt lat="56.15289866387312" lon="22.116023457052727"><ele>112.0</ele><time>2026-04-18T15:00:28Z</time></trkpt><trkpt lat="56.15276502882632" lon="22.11630225630688"><ele>112.66666666666667</ele><time>2026-04-18T15:00:29Z</time></trkpt><trkpt lat="56.15262826920575" lon="22.11659596200878"><ele>113.33333333333334</ele><time>2026-04-18T15:00:30Z</time></trkpt><trkpt lat="56.152497544479886" lon="22.116889087246292"><ele>114.0</ele><time>2026-04-18T15:00:31Z</time></trkpt><trkpt lat="56.15236332112967" lon="22.11719218873546"><ele>114.33333333333334</ele><time>2026-04-18T15:00:32Z</time></trkpt><trkpt lat="56.152236090690586" lon="22.117483158084756"><ele>114.66666666666667</ele><time>2026-04-18T15:00:33Z</time></trkpt><trkpt lat="56.15210801030832" lon="22.11777601129767"><ele>115.0</ele><time>2026-04-18T15:00:34Z</time></trkpt><trkpt lat="56.15197625508601" lon="22.11808258030937"><ele>114.33333333333334</ele><time>2026-04-18T15:00:35Z</time></trkpt><trkpt lat="56.15184673463259" lon="22.11837004252861"><ele>113.66666666666666</ele><time>2026-04-18T15:00:36Z</time></trkpt><trkpt lat="56.15172026591557" lon="22.11865374999957"><ele>113.0</ele><time>2026-04-18T15:00:37Z</time></trkpt><trkpt lat="56.15159172289358" lon="22.11895143181518"><ele>111.66666666666666</ele><time>2026-04-18T15:00:38Z</time></trkpt><trkpt lat="56.15146385236883" lon="22.119235792953642"><ele>110.33333333333334</ele><time>2026-04-18T15:00:39Z</time></trkpt><trkpt lat="56.15133910336168" lon="22.119523080399546"><ele>109.0</ele><time>2026-04-18T15:00:40Z</time></trkpt><trkpt lat="56.151217639827685" lon="22.11981279204615"><ele>110.0</ele><time>2026-04-18T15:00:41Z</time></trkpt><trkpt lat="56.151098369336495" lon="22.120101186483566"><ele>111.0</ele><time>2026-04-18T15:00:42Z</time></trkpt><trkpt lat="56.15097287672098" lon="22.12039795570536"><ele>112.0</ele><time>2026-04-18T15:00:43Z</time></trkpt><trkpt lat="56.15084642345775" lon="22.12069710230244"><ele>112.0</ele><time>2026-04-18T15:00:44Z</time></trkpt><trkpt lat="56.15072329195248" lon="22.1209704767666"><ele>112.0</ele><time>2026-04-18T15:00:45Z</time></trkpt><trkpt lat="56.15059783589867" lon="22.121259797227815"><ele>112.0</ele><time>2026-04-18T15:00:46Z</time></trkpt><trkpt lat="56.150472330723765" lon="22.12155101981591"><ele>112.66666666666667</ele><time>2026-04-18T15:00:47Z</time></trkpt><trkpt lat="56.150346718819925" lon="22.12183821059087"><ele>113.33333333333334</ele><time>2026-04-18T15:00:48Z</time></trkpt><trkpt lat="56.15022062982977" lon="22.122127031294788"><ele>114.0</ele><time>2026-04-18T15:00:49Z</time></trkpt><trkpt lat="56.150095308122985" lon="22.122420174260796"><ele>114.33333333333334</ele><time>2026-04-18T15:00:50Z</time></trkpt><trkpt lat="56.149968644710945" lon="22.12271255904514"><ele>114.66666666666667</ele><time>2026-04-18T15:00:51Z</time></trkpt><trkpt lat="56.1498405835691" lon="22.123001263482504"><ele>115.0</ele><time>2026-04-18T15:00:52Z</time></trkpt><trkpt lat="56.149712539981" lon="22.123286940892243"><ele>116.66666666666667</ele><time>2026-04-18T15:00:53Z</time></trkpt><trkpt lat="56.14958472295886" lon="22.12357892583876"><ele>118.33333333333334</ele><time>2026-04-18T15:00:54Z</time></trkpt><trkpt lat="56.149458963978724" lon="22.123864393208006"><ele>120.0</ele><time>2026-04-18T15:00:55Z</time></trkpt><trkpt lat="56.14933617562248" lon="22.124169390927438"><ele>120.66666666666666</ele><time>2026-04-18T15:00:56Z</time></trkpt><trkpt lat="56.14921587216563" lon="22.12446204382092"><ele>121.33333333333333</ele><time>2026-04-18T15:00:57Z</time></trkpt><trkpt lat="56.1490948946507" lon="22.124746958219305"><ele>122.0</ele><time>2026-04-18T15:00:58Z</time></trkpt><trkpt lat="56.14897296970792" lon="22.125022259127256"><ele>123.66666666666666</ele><time>2026-04-18T15:00:59Z</time></trkpt><trkpt lat="56.148847726890736" lon="22.125315161582165"><ele>125.33333333333334</ele><time>2026-04-18T15:01:00Z</time></trkpt><trkpt lat="56.148723099319945" lon="22.12559920015421"><ele>127.0</ele><time>2026-04-18T15:01:01Z</time></trkpt><trkpt lat="56.14859900294822" lon="22.125884723514254"><ele>127.0</ele><time>2026-04-18T15:01:02Z</time></trkpt><trkpt lat="56.14847121131514" lon="22.12618943488445"><ele>127.0</ele><time>2026-04-18T15:01:03Z</time></trkpt><trkpt lat="56.1483460392913" lon="22.12648266922797"><ele>127.0</ele><time>2026-04-18T15:01:04Z</time></trkpt><trkpt lat="56.14822136199345" lon="22.12677250719668"><ele>128.33333333333334</ele><time>2026-04-18T15:01:05Z</time></trkpt><trkpt lat="56.1480928780435" lon="22.127067364658718"><ele>129.66666666666666</ele><time>2026-04-18T15:01:06Z</time></trkpt><trkpt lat="56.147964078692176" lon="22.127368086421217"><ele>131.0</ele><time>2026-04-18T15:01:07Z</time></trkpt><trkpt lat="56.1478364803231" lon="22.127669402679974"><ele>131.0</ele><time>2026-04-18T15:01:08Z</time></trkpt><trkpt lat="56.147710571511844" lon="22.127972164132107"><ele>131.0</ele><time>2026-04-18T15:01:09Z</time></trkpt><trkpt lat="56.147586685083" lon="22.12826924912912"><ele>131.0</ele><time>2026-04-18T15:01:10Z</time></trkpt><trkpt lat="56.14746037896733" lon="22.128572256475643"><ele>131.0</ele><time>2026-04-18T15:01:11Z</time></trkpt><trkpt lat="56.14733466249453" lon="22.128881598371414"><ele>131.0</ele><time>2026-04-18T15:01:12Z</time></trkpt><trkpt lat="56.14721498205785" lon="22.12917353845311"><ele>131.0</ele><time>2026-04-18T15:01:13Z</time></trkpt><trkpt lat="56.14708675573179" lon="22.129489422435224"><ele>131.0</ele><time>2026-04-18T15:01:14Z</time></trkpt><trkpt lat="56.146962302404916" lon="22.12980526738492"><ele>131.0</ele><time>2026-04-18T15:01:15Z</time></trkpt><trkpt lat="56.14684029885577" lon="22.13012478079265"><ele>131.0</ele><time>2026-04-18T15:01:16Z</time></trkpt><trkpt lat="56.14671915881977" lon="22.130449411111606"><ele>129.33333333333331</ele><time>2026-04-18T15:01:17Z</time></trkpt><trkpt lat="56.14659381821817" lon="22.13077809955972"><ele>127.66666666666666</ele><time>2026-04-18T15:01:18Z</time></trkpt><trkpt lat="56.1464705252494" lon="22.131102182596727"><ele>126.0</ele><time>2026-04-18T15:01:19Z</time></trkpt><trkpt lat="56.14634244487739" lon="22.131436255140517"><ele>125.33333333333334</ele><time>2026-04-18T15:01:20Z</time></trkpt><trkpt lat="56.14621971961961" lon="22.13175031483733"><ele>124.66666666666667</ele><time>2026-04-18T15:01:21Z</time></trkpt><trkpt lat="56.146098963848154" lon="22.132072117833413"><ele>124.0</ele><time>2026-04-18T15:01:22Z</time></trkpt><trkpt lat="56.14598026835138" lon="22.13238044299695"><ele>123.66666666666667</ele><time>2026-04-18T15:01:23Z</time></trkpt><trkpt lat="56.145864758656636" lon="22.13267340856197"><ele>123.33333333333334</ele><time>2026-04-18T15:01:24Z</time></trkpt><trkpt lat="56.14574530808967" lon="22.132972304220928"><ele>123.0</ele><time>2026-04-18T15:01:25Z</time></trkpt><trkpt lat="56.14563062481453" lon="22.13327124798074"><ele>123.0</ele><time>2026-04-18T15:01:26Z</time></trkpt><trkpt lat="56.145520079140674" lon="22.133567424529797"><ele>123.0</ele><time>2026-04-18T15:01:27Z</time></trkpt><trkpt lat="56.145406210902905" lon="22.13386650910854"><ele>123.0</ele><time>2026-04-18T15:01:28Z</time></trkpt><trkpt lat="56.145296581991374" lon="22.13415794319385"><ele>123.0</ele><time>2026-04-18T15:01:29Z</time></trkpt><trkpt lat="56.145175784047886" lon="22.134456780437823"><ele>123.0</ele><time>2026-04-18T15:01:30Z</time></trkpt><trkpt lat="56.145058689669675" lon="22.134751122986696"><ele>123.0</ele><time>2026-04-18T15:01:31Z</time></trkpt><trkpt lat="56.14494467383548" lon="22.135049860189557"><ele>120.33333333333334</ele><time>2026-04-18T15:01:32Z</time></trkpt><trkpt lat="56.1448340010266" lon="22.135349017186552"><ele>117.66666666666667</ele><time>2026-04-18T15:01:33Z</time></trkpt><trkpt lat="56.1447225724022" lon="22.135656293400675"><ele>115.0</ele><time>2026-04-18T15:01:34Z</time></trkpt><trkpt lat="56.14460746741654" lon="22.135964662123303"><ele>115.0</ele><time>2026-04-18T15:01:35Z</time></trkpt><trkpt lat="56.144487525464754" lon="22.136270337439637"><ele>115.0</ele><time>2026-04-18T15:01:36Z</time></trkpt><trkpt lat="56.14437455573449" lon="22.13657084760045"><ele>115.0</ele><time>2026-04-18T15:01:37Z</time></trkpt><trkpt lat="56.144257667701666" lon="22.136875768966004"><ele>115.0</ele><time>2026-04-18T15:01:38Z</time></trkpt><trkpt lat="56.14414012290545" lon="22.13718394985603"><ele>115.0</ele><time>2026-04-18T15:01:39Z</time></trkpt><trkpt lat="56.14402176344763" lon="22.137494836308246"><ele>115.0</ele><time>2026-04-18T15:01:40Z</time></trkpt><trkpt lat="56.14390226721264" lon="22.137808261910273"><ele>114.33333333333334</ele><time>2026-04-18T15:01:41Z</time></trkpt><trkpt lat="56.14378917679669" lon="22.138114201677176"><ele>113.66666666666666</ele><time>2026-04-18T15:01:42Z</time></trkpt><trkpt lat="56.14367995454735" lon="22.138397941349602"><ele>113.0</ele><time>2026-04-18T15:01:43Z</time></trkpt><trkpt lat="56.14357900439008" lon="22.1386579056728"><ele>113.0</ele><time>2026-04-18T15:01:44Z</time></trkpt><trkpt lat="56.14348414715159" lon="22.138888468173278"><ele>113.0</ele><time>2026-04-18T15:01:45Z</time></trkpt><trkpt lat="56.14337323005136" lon="22.139126729846428"><ele>113.0</ele><time>2026-04-18T15:01:46Z</time></trkpt><trkpt lat="56.14324770381193" lon="22.139358905873276"><ele>112.66666666666666</ele><time>2026-04-18T15:01:47Z</time></trkpt><trkpt lat="56.14311198184777" lon="22.1395742641801"><ele>112.33333333333334</ele><time>2026-04-18T15:01:48Z</time></trkpt><trkpt lat="56.142961482728616" lon="22.139766936173586"><ele>112.0</ele><time>2026-04-18T15:01:49Z</time></trkpt><trkpt lat="56.14280127202992" lon="22.13993770914661"><ele>111.66666666666667</ele><time>2026-04-18T15:01:50Z</time></trkpt><trkpt lat="56.1426313869338" lon="22.14009278259947"><ele>111.33333333333334</ele><time>2026-04-18T15:01:51Z</time></trkpt><trkpt lat="56.142441186764074" lon="22.14019487054334"><ele>111.0</ele><time>2026-04-18T15:01:52Z</time></trkpt><trkpt lat="56.1422590643804" lon="22.140281414978503"><ele>110.66666666666666</ele><time>2026-04-18T15:01:53Z</time></trkpt><trkpt lat="56.142069744497086" lon="22.14035293211516"><ele>110.33333333333333</ele><time>2026-04-18T15:01:54Z</time></trkpt><trkpt lat="56.14188524259598" lon="22.140449430878075"><ele>110.0</ele><time>2026-04-18T15:01:55Z</time></trkpt><trkpt lat="56.14168261338689" lon="22.140512829006692"><ele>110.33333333333333</ele><time>2026-04-18T15:01:56Z</time></trkpt><trkpt lat="56.14148598262559" lon="22.140585952936583"><ele>110.66666666666666</ele><time>2026-04-18T15:01:57Z</time></trkpt><trkpt lat="56.14128830825868" lon="22.140661129303123"><ele>111.0</ele><time>2026-04-18T15:01:58Z</time></trkpt><trkpt lat="56.14109386862675" lon="22.140733471467037"><ele>111.33333333333334</ele><time>2026-04-18T15:01:59Z</time></trkpt><trkpt lat="56.1409032162939" lon="22.140798941837698"><ele>111.66666666666667</ele><time>2026-04-18T15:02:00Z</time></trkpt><trkpt lat="56.14070992676346" lon="22.140870476983604"><ele>112.0</ele><time>2026-04-18T15:02:01Z</time></trkpt><trkpt lat="56.14051665733496" lon="22.140944844798277"><ele>112.33333333333334</ele><time>2026-04-18T15:02:02Z</time></trkpt><trkpt lat="56.140323994861134" lon="22.140981900839275"><ele>112.66666666666666</ele><time>2026-04-18T15:02:03Z</time></trkpt><trkpt lat="56.14013361360847" lon="22.141047182803007"><ele>113.0</ele><time>2026-04-18T15:02:04Z</time></trkpt><trkpt lat="56.13995043981772" lon="22.141110105132864"><ele>113.33333333333333</ele><time>2026-04-18T15:02:05Z</time></trkpt><trkpt lat="56.13976834134589" lon="22.14117419801484"><ele>113.66666666666666</ele><time>2026-04-18T15:02:06Z</time></trkpt><trkpt lat="56.1395770732371" lon="22.14124247716715"><ele>114.0</ele><time>2026-04-18T15:02:07Z</time></trkpt><trkpt lat="56.13938772067013" lon="22.14134032506121"><ele>114.0</ele><time>2026-04-18T15:02:08Z</time></trkpt><trkpt lat="56.1391864235545" lon="22.141382112312"><ele>114.0</ele><time>2026-04-18T15:02:09Z</time></trkpt><trkpt lat="56.13899521175817" lon="22.14145026571427"><ele>114.0</ele><time>2026-04-18T15:02:10Z</time></trkpt><trkpt lat="56.13879950950504" lon="22.141519772085363"><ele>113.66666666666666</ele><time>2026-04-18T15:02:11Z</time></trkpt><trkpt lat="56.13860372721761" lon="22.141589367459403"><ele>113.33333333333333</ele><time>2026-04-18T15:02:12Z</time></trkpt><trkpt lat="56.1384100223856" lon="22.14165863643076"><ele>113.0</ele><time>2026-04-18T15:02:13Z</time></trkpt><trkpt lat="56.138216264465484" lon="22.14172829334108"><ele>113.0</ele><time>2026-04-18T15:02:14Z</time></trkpt><trkpt lat="56.13802996049621" lon="22.14179566128053"><ele>113.0</ele><time>2026-04-18T15:02:15Z</time></trkpt><trkpt lat="56.137835512550645" lon="22.1418654609833"><ele>113.0</ele><time>2026-04-18T15:02:16Z</time></trkpt><trkpt lat="56.137652256149494" lon="22.141962045212676"><ele>113.0</ele><time>2026-04-18T15:02:17Z</time></trkpt><trkpt lat="56.13746387823484" lon="22.142029010750402"><ele>113.0</ele><time>2026-04-18T15:02:18Z</time></trkpt><trkpt lat="56.13727249719935" lon="22.142098826247228"><ele>113.0</ele><time>2026-04-18T15:02:19Z</time></trkpt><trkpt lat="56.13708306469858" lon="22.142137327152298"><ele>113.0</ele><time>2026-04-18T15:02:20Z</time></trkpt><trkpt lat="56.13689040496586" lon="22.142207839202015"><ele>113.0</ele><time>2026-04-18T15:02:21Z</time></trkpt><trkpt lat="56.13670587841121" lon="22.142274339896115"><ele>113.0</ele><time>2026-04-18T15:02:22Z</time></trkpt><trkpt lat="56.13651748653299" lon="22.142371639933337"><ele>114.33333333333333</ele><time>2026-04-18T15:02:23Z</time></trkpt><trkpt lat="56.13633122177662" lon="22.142433886712414"><ele>115.66666666666666</ele><time>2026-04-18T15:02:24Z</time></trkpt><trkpt lat="56.136140422444186" lon="22.142502800059702"><ele>117.0</ele><time>2026-04-18T15:02:25Z</time></trkpt><trkpt lat="56.13594746049293" lon="22.142575496608934"><ele>117.0</ele><time>2026-04-18T15:02:26Z</time></trkpt><trkpt lat="56.13576057556525" lon="22.14264216439616"><ele>117.0</ele><time>2026-04-18T15:02:27Z</time></trkpt><trkpt lat="56.13556121683022" lon="22.1427092661679"><ele>117.0</ele><time>2026-04-18T15:02:28Z</time></trkpt><trkpt lat="56.135380292513524" lon="22.142775351838697"><ele>118.33333333333334</ele><time>2026-04-18T15:02:29Z</time></trkpt><trkpt lat="56.13520004754056" lon="22.142837646977792"><ele>119.66666666666667</ele><time>2026-04-18T15:02:30Z</time></trkpt><trkpt lat="56.135012321896625" lon="22.142910760304257"><ele>121.0</ele><time>2026-04-18T15:02:31Z</time></trkpt><trkpt lat="56.13482954058946" lon="22.142972611437266"><ele>122.0</ele><time>2026-04-18T15:02:32Z</time></trkpt><trkpt lat="56.134646391681585" lon="22.14303835803153"><ele>123.0</ele><time>2026-04-18T15:02:33Z</time></trkpt><trkpt lat="56.134462219852026" lon="22.143100353008844"><ele>124.0</ele><time>2026-04-18T15:02:34Z</time></trkpt><trkpt lat="56.13427919825382" lon="22.14316336599301"><ele>122.66666666666667</ele><time>2026-04-18T15:02:35Z</time></trkpt><trkpt lat="56.13410041458746" lon="22.143227711568585"><ele>121.33333333333334</ele><time>2026-04-18T15:02:36Z</time></trkpt><trkpt lat="56.1339167565391" lon="22.143304837980253"><ele>120.0</ele><time>2026-04-18T15:02:37Z</time></trkpt><trkpt lat="56.13372869083977" lon="22.14337892269644"><ele>120.0</ele><time>2026-04-18T15:02:38Z</time></trkpt><trkpt lat="56.133537902028934" lon="22.14344587596598"><ele>120.0</ele><time>2026-04-18T15:02:39Z</time></trkpt><trkpt lat="56.133339997162565" lon="22.14351319812084"><ele>120.0</ele><time>2026-04-18T15:02:40Z</time></trkpt><trkpt lat="56.133141066715126" lon="22.143580363897506"><ele>119.33333333333334</ele><time>2026-04-18T15:02:41Z</time></trkpt><trkpt lat="56.13294495825015" lon="22.143650325641254"><ele>118.66666666666667</ele><time>2026-04-18T15:02:42Z</time></trkpt><trkpt lat="56.13273904718167" lon="22.143697413615996"><ele>118.0</ele><time>2026-04-18T15:02:43Z</time></trkpt><trkpt lat="56.132541289297876" lon="22.143769313631516"><ele>118.0</ele><time>2026-04-18T15:02:44Z</time></trkpt><trkpt lat="56.132341109690316" lon="22.143842129233548"><ele>118.0</ele><time>2026-04-18T15:02:45Z</time></trkpt><trkpt lat="56.13213967612716" lon="22.143914392197065"><ele>118.0</ele><time>2026-04-18T15:02:46Z</time></trkpt><trkpt lat="56.13194532075648" lon="22.143984892996926"><ele>118.66666666666667</ele><time>2026-04-18T15:02:47Z</time></trkpt><trkpt lat="56.13174886174713" lon="22.144055938066252"><ele>119.33333333333334</ele><time>2026-04-18T15:02:48Z</time></trkpt><trkpt lat="56.13155463375667" lon="22.14412544834216"><ele>120.0</ele><time>2026-04-18T15:02:49Z</time></trkpt><trkpt lat="56.131363752490465" lon="22.14422483735009"><ele>120.0</ele><time>2026-04-18T15:02:50Z</time></trkpt><trkpt lat="56.13116771458795" lon="22.144289177271908"><ele>120.0</ele><time>2026-04-18T15:02:51Z</time></trkpt><trkpt lat="56.13096810874123" lon="22.1443616143849"><ele>120.0</ele><time>2026-04-18T15:02:52Z</time></trkpt><trkpt lat="56.13076798799701" lon="22.14443371488391"><ele>120.33333333333334</ele><time>2026-04-18T15:02:53Z</time></trkpt><trkpt lat="56.13056585722093" lon="22.144508630121145"><ele>120.66666666666667</ele><time>2026-04-18T15:02:54Z</time></trkpt><trkpt lat="56.13036972238787" lon="22.144570929986724"><ele>121.0</ele><time>2026-04-18T15:02:55Z</time></trkpt><trkpt lat="56.13017129899836" lon="22.14464412530661"><ele>121.0</ele><time>2026-04-18T15:02:56Z</time></trkpt><trkpt lat="56.12997427126779" lon="22.144712954779628"><ele>121.0</ele><time>2026-04-18T15:02:57Z</time></trkpt><trkpt lat="56.1297764137028" lon="22.144794043693036"><ele>121.0</ele><time>2026-04-18T15:02:58Z</time></trkpt><trkpt lat="56.12957791828718" lon="22.1448702194118"><ele>119.33333333333334</ele><time>2026-04-18T15:02:59Z</time></trkpt><trkpt lat="56.12937626795724" lon="22.14495102873681"><ele>117.66666666666666</ele><time>2026-04-18T15:03:00Z</time></trkpt><trkpt lat="56.12917909706942" lon="22.1450234406123"><ele>116.0</ele><time>2026-04-18T15:03:01Z</time></trkpt><trkpt lat="56.128980821767584" lon="22.145098416443002"><ele>115.33333333333333</ele><time>2026-04-18T15:03:02Z</time></trkpt><trkpt lat="56.12878091153309" lon="22.14515848538168"><ele>114.66666666666666</ele><time>2026-04-18T15:03:03Z</time></trkpt><trkpt lat="56.12857985933736" lon="22.14520662741811"><ele>114.0</ele><time>2026-04-18T15:03:04Z</time></trkpt><trkpt lat="56.12838502082494" lon="22.145230400439875"><ele>114.0</ele><time>2026-04-18T15:03:05Z</time></trkpt><trkpt lat="56.12818585316816" lon="22.145244927672632"><ele>114.0</ele><time>2026-04-18T15:03:06Z</time></trkpt><trkpt lat="56.12799172312322" lon="22.145247136984676"><ele>114.0</ele><time>2026-04-18T15:03:07Z</time></trkpt><trkpt lat="56.12779327326368" lon="22.145222866404833"><ele>114.0</ele><time>2026-04-18T15:03:08Z</time></trkpt><trkpt lat="56.12757552683376" lon="22.145152479401254"><ele>114.0</ele><time>2026-04-18T15:03:09Z</time></trkpt><trkpt lat="56.12735851047426" lon="22.14511063397086"><ele>114.0</ele><time>2026-04-18T15:03:10Z</time></trkpt><trkpt lat="56.127144509428994" lon="22.145031707391617"><ele>116.0</ele><time>2026-04-18T15:03:11Z</time></trkpt><trkpt lat="56.126936083212016" lon="22.144921605746678"><ele>118.0</ele><time>2026-04-18T15:03:12Z</time></trkpt><trkpt lat="56.12672738100808" lon="22.144833081144483"><ele>120.0</ele><time>2026-04-18T15:03:13Z</time></trkpt><trkpt lat="56.12651873008527" lon="22.144769573577864"><ele>121.33333333333334</ele><time>2026-04-18T15:03:14Z</time></trkpt><trkpt lat="56.126318332156" lon="22.144644367350146"><ele>122.66666666666667</ele><time>2026-04-18T15:03:15Z</time></trkpt><trkpt lat="56.12611004170939" lon="22.144545894328733"><ele>124.0</ele><time>2026-04-18T15:03:16Z</time></trkpt><trkpt lat="56.125901192360715" lon="22.144446280371774"><ele>124.5</ele><time>2026-04-18T15:03:17Z</time></trkpt><trkpt lat="56.12567649680483" lon="22.144341654816206"><ele>125.0</ele><time>2026-04-18T15:03:18Z</time></trkpt><trkpt lat="56.125457587012804" lon="22.14424145376968"><ele>125.0</ele><time>2026-04-18T15:03:19Z</time></trkpt><trkpt lat="56.12524689278586" lon="22.14414613420293"><ele>125.0</ele><time>2026-04-18T15:03:20Z</time></trkpt><trkpt lat="56.125045635111015" lon="22.144053911016194"><ele>125.0</ele><time>2026-04-18T15:03:21Z</time></trkpt><trkpt lat="56.12484390417639" lon="22.143960922652905"><ele>125.0</ele><time>2026-04-18T15:03:22Z</time></trkpt><trkpt lat="56.12463944154672" lon="22.14386702678027"><ele>125.0</ele><time>2026-04-18T15:03:23Z</time></trkpt><trkpt lat="56.124441897365934" lon="22.143776637489804"><ele>125.0</ele><time>2026-04-18T15:03:24Z</time></trkpt><trkpt lat="56.1242426506862" lon="22.14368507872416"><ele>125.33333333333333</ele><time>2026-04-18T15:03:25Z</time></trkpt><trkpt lat="56.12404345563244" lon="22.143593880978266"><ele>125.66666666666666</ele><time>2026-04-18T15:03:26Z</time></trkpt><trkpt lat="56.12383883927709" lon="22.14350120619297"><ele>126.0</ele><time>2026-04-18T15:03:27Z</time></trkpt><trkpt lat="56.12362513076834" lon="22.14343284967764"><ele>126.0</ele><time>2026-04-18T15:03:28Z</time></trkpt><trkpt lat="56.123421412125815" lon="22.143332712352635"><ele>126.0</ele><time>2026-04-18T15:03:29Z</time></trkpt><trkpt lat="56.123209605691535" lon="22.143239420363287"><ele>126.0</ele><time>2026-04-18T15:03:30Z</time></trkpt><trkpt lat="56.12300794052366" lon="22.14314514582437"><ele>126.0</ele><time>2026-04-18T15:03:31Z</time></trkpt><trkpt lat="56.12281129840093" lon="22.143020296354585"><ele>126.0</ele><time>2026-04-18T15:03:32Z</time></trkpt><trkpt lat="56.122610729306416" lon="22.14292280637346"><ele>126.0</ele><time>2026-04-18T15:03:33Z</time></trkpt><trkpt lat="56.122408379472155" lon="22.1428263160649"><ele>126.0</ele><time>2026-04-18T15:03:34Z</time></trkpt><trkpt lat="56.12221595281067" lon="22.14271666758044"><ele>126.0</ele><time>2026-04-18T15:03:35Z</time></trkpt><trkpt lat="56.1220256951195" lon="22.142608473789938"><ele>126.0</ele><time>2026-04-18T15:03:36Z</time></trkpt><trkpt lat="56.121836751271545" lon="22.14249888423724"><ele>126.0</ele><time>2026-04-18T15:03:37Z</time></trkpt><trkpt lat="56.12165332852637" lon="22.142384023969743"><ele>126.0</ele><time>2026-04-18T15:03:38Z</time></trkpt><trkpt lat="56.12147472182593" lon="22.14226433938568"><ele>126.0</ele><time>2026-04-18T15:03:39Z</time></trkpt><trkpt lat="56.12129198837197" lon="22.14213987834009"><ele>126.66666666666666</ele><time>2026-04-18T15:03:40Z</time></trkpt><trkpt lat="56.121105188680126" lon="22.142012979932943"><ele>127.33333333333333</ele><time>2026-04-18T15:03:41Z</time></trkpt><trkpt lat="56.12091756934458" lon="22.141911752764685"><ele>128.0</ele><time>2026-04-18T15:03:42Z</time></trkpt><trkpt lat="56.120737394404735" lon="22.1417762161994"><ele>128.33333333333331</ele><time>2026-04-18T15:03:43Z</time></trkpt><trkpt lat="56.12055188605598" lon="22.141642698913063"><ele>128.66666666666666</ele><time>2026-04-18T15:03:44Z</time></trkpt><trkpt lat="56.12036625730347" lon="22.141506713599128"><ele>129.0</ele><time>2026-04-18T15:03:45Z</time></trkpt><trkpt lat="56.12018451350251" lon="22.141355401416533"><ele>129.0</ele><time>2026-04-18T15:03:46Z</time></trkpt><trkpt lat="56.12000354610524" lon="22.141197614217617"><ele>129.0</ele><time>2026-04-18T15:03:47Z</time></trkpt><trkpt lat="56.119817720753574" lon="22.14103778483966"><ele>129.0</ele><time>2026-04-18T15:03:48Z</time></trkpt><trkpt lat="56.119630397082965" lon="22.14087236487884"><ele>129.0</ele><time>2026-04-18T15:03:49Z</time></trkpt><trkpt lat="56.119444157768235" lon="22.140702006445693"><ele>129.0</ele><time>2026-04-18T15:03:50Z</time></trkpt><trkpt lat="56.11925859599159" lon="22.140520413286986"><ele>129.0</ele><time>2026-04-18T15:03:51Z</time></trkpt><trkpt lat="56.119075254958986" lon="22.140341246394964"><ele>128.33333333333334</ele><time>2026-04-18T15:03:52Z</time></trkpt><trkpt lat="56.11889763565554" lon="22.140167720429833"><ele>127.66666666666667</ele><time>2026-04-18T15:03:53Z</time></trkpt><trkpt lat="56.118722037529714" lon="22.139996561651994"><ele>127.0</ele><time>2026-04-18T15:03:54Z</time></trkpt><trkpt lat="56.11854236185491" lon="22.139834430678"><ele>127.0</ele><time>2026-04-18T15:03:55Z</time></trkpt><trkpt lat="56.11836322959245" lon="22.139663635360556"><ele>127.0</ele><time>2026-04-18T15:03:56Z</time></trkpt><trkpt lat="56.11818335908957" lon="22.139487864684092"><ele>127.0</ele><time>2026-04-18T15:03:57Z</time></trkpt><trkpt lat="56.11800700151227" lon="22.13932064931765"><ele>126.33333333333334</ele><time>2026-04-18T15:03:58Z</time></trkpt><trkpt lat="56.11782659573535" lon="22.139140482474406"><ele>125.66666666666666</ele><time>2026-04-18T15:03:59Z</time></trkpt><trkpt lat="56.11765218503136" lon="22.13896291463284"><ele>125.0</ele><time>2026-04-18T15:04:00Z</time></trkpt><trkpt lat="56.11747297082634" lon="22.138777121301423"><ele>124.0</ele><time>2026-04-18T15:04:01Z</time></trkpt><trkpt lat="56.11730068440554" lon="22.13859927720524"><ele>123.0</ele><time>2026-04-18T15:04:02Z</time></trkpt><trkpt lat="56.11712728624881" lon="22.138417943690612"><ele>122.0</ele><time>2026-04-18T15:04:03Z</time></trkpt><trkpt lat="56.116948278708186" lon="22.13824437826181"><ele>121.66666666666666</ele><time>2026-04-18T15:04:04Z</time></trkpt><trkpt lat="56.116776885654545" lon="22.138087022142866"><ele>121.33333333333334</ele><time>2026-04-18T15:04:05Z</time></trkpt><trkpt lat="56.11659835223783" lon="22.137915986036305"><ele>121.0</ele><time>2026-04-18T15:04:06Z</time></trkpt><trkpt lat="56.116426619396016" lon="22.137749608488352"><ele>121.66666666666667</ele><time>2026-04-18T15:04:07Z</time></trkpt><trkpt lat="56.11624717493178" lon="22.137572957542517"><ele>122.33333333333334</ele><time>2026-04-18T15:04:08Z</time></trkpt><trkpt lat="56.11607590960295" lon="22.13739769954414"><ele>123.0</ele><time>2026-04-18T15:04:09Z</time></trkpt><trkpt lat="56.11590597744259" lon="22.13722504387019"><ele>123.66666666666666</ele><time>2026-04-18T15:04:10Z</time></trkpt><trkpt lat="56.1157406905353" lon="22.137062538646884"><ele>124.33333333333333</ele><time>2026-04-18T15:04:11Z</time></trkpt><trkpt lat="56.115563389116154" lon="22.136900575952755"><ele>125.0</ele><time>2026-04-18T15:04:12Z</time></trkpt><trkpt lat="56.11539053988887" lon="22.136736029757355"><ele>125.0</ele><time>2026-04-18T15:04:13Z</time></trkpt><trkpt lat="56.11521657009364" lon="22.136560478237545"><ele>125.0</ele><time>2026-04-18T15:04:14Z</time></trkpt><trkpt lat="56.115033869678875" lon="22.136386228300697"><ele>125.0</ele><time>2026-04-18T15:04:15Z</time></trkpt><trkpt lat="56.11484837698277" lon="22.136217393810778"><ele>124.66666666666666</ele><time>2026-04-18T15:04:16Z</time></trkpt><trkpt lat="56.11466274103283" lon="22.136067949610588"><ele>124.33333333333334</ele><time>2026-04-18T15:04:17Z</time></trkpt><trkpt lat="56.11446819398171" lon="22.135934455317848"><ele>124.0</ele><time>2026-04-18T15:04:18Z</time></trkpt><trkpt lat="56.114275974111926" lon="22.135825446365466"><ele>124.0</ele><time>2026-04-18T15:04:19Z</time></trkpt><trkpt lat="56.11407430078767" lon="22.13574392398996"><ele>124.0</ele><time>2026-04-18T15:04:20Z</time></trkpt><trkpt lat="56.11387422931096" lon="22.135662637889364"><ele>124.0</ele><time>2026-04-18T15:04:21Z</time></trkpt><trkpt lat="56.11366937218035" lon="22.13558911857381"><ele>124.0</ele><time>2026-04-18T15:04:22Z</time></trkpt><trkpt lat="56.11346184325045" lon="22.13551547462196"><ele>124.0</ele><time>2026-04-18T15:04:23Z</time></trkpt><trkpt lat="56.11325851724062" lon="22.135447656934733"><ele>124.0</ele><time>2026-04-18T15:04:24Z</time></trkpt><trkpt lat="56.11305474364401" lon="22.135376814903545"><ele>124.0</ele><time>2026-04-18T15:04:25Z</time></trkpt><trkpt lat="56.11284796874526" lon="22.135297359963797"><ele>124.0</ele><time>2026-04-18T15:04:26Z</time></trkpt><trkpt lat="56.11264135003235" lon="22.13521575805411"><ele>124.0</ele><time>2026-04-18T15:04:27Z</time></trkpt><trkpt lat="56.112440886920716" lon="22.1351430659644"><ele>124.0</ele><time>2026-04-18T15:04:28Z</time></trkpt><trkpt lat="56.11223197451739" lon="22.13506488208147"><ele>124.0</ele><time>2026-04-18T15:04:29Z</time></trkpt><trkpt lat="56.11202456723831" lon="22.13499042935231"><ele>124.0</ele><time>2026-04-18T15:04:30Z</time></trkpt><trkpt lat="56.11182342680259" lon="22.13491510451187"><ele>124.0</ele><time>2026-04-18T15:04:31Z</time></trkpt><trkpt lat="56.111637799306685" lon="22.134842878586156"><ele>124.0</ele><time>2026-04-18T15:04:32Z</time></trkpt><trkpt lat="56.111473998717436" lon="22.13477933696373"><ele>124.0</ele><time>2026-04-18T15:04:33Z</time></trkpt><trkpt lat="56.11132025768231" lon="22.134718587386658"><ele>124.0</ele><time>2026-04-18T15:04:34Z</time></trkpt><trkpt lat="56.11117909200311" lon="22.134671965720305"><ele>124.0</ele><time>2026-04-18T15:04:35Z</time></trkpt><trkpt lat="56.11104692292713" lon="22.134626276949586"><ele>124.0</ele><time>2026-04-18T15:04:36Z</time></trkpt><trkpt lat="56.11092490598525" lon="22.134584236792367"><ele>124.0</ele><time>2026-04-18T15:04:37Z</time></trkpt><trkpt lat="56.11080850230689" lon="22.13454124550751"><ele>123.6</ele><time>2026-04-18T15:04:38Z</time></trkpt><trkpt lat="56.11069616206556" lon="22.1345068938782"><ele>123.2</ele><time>2026-04-18T15:04:39Z</time></trkpt><trkpt lat="56.11058942260291" lon="22.134478835770963"><ele>122.79999999999998</ele><time>2026-04-18T15:04:40Z</time></trkpt><trkpt lat="56.1104984226927" lon="22.134458187447105"><ele>122.39999999999999</ele><time>2026-04-18T15:04:41Z</time></trkpt><trkpt lat="56.11041763579462" lon="22.13444863634485"><ele>122.0</ele><time>2026-04-18T15:04:42Z</time></trkpt><trkpt lat="56.110351766740166" lon="22.13444196188922"><ele>121.99999999999999</ele><time>2026-04-18T15:04:43Z</time></trkpt><trkpt lat="56.11027473809732" lon="22.134407532748774"><ele>122.0</ele><time>2026-04-18T15:04:45Z</time></trkpt><trkpt lat="56.110251011037185" lon="22.134288542689966"><ele>122.0</ele><time>2026-04-18T15:04:48Z</time></trkpt><trkpt lat="56.11023797885839" lon="22.134056927358273"><ele>122.0</ele><time>2026-04-18T15:04:53Z</time></trkpt><trkpt lat="56.110218796712296" lon="22.133938479320797"><ele>121.99999999999999</ele><time>2026-04-18T15:04:54Z</time></trkpt><trkpt lat="56.11016111064894" lon="22.13379654632486"><ele>122.0</ele><time>2026-04-18T15:04:57Z</time></trkpt><trkpt lat="56.1100985969428" lon="22.133669395201597"><ele>122.16666666666666</ele><time>2026-04-18T15:04:59Z</time></trkpt><trkpt lat="56.11004838946986" lon="22.13359620516997"><ele>122.33333333333333</ele><time>2026-04-18T15:05:00Z</time></trkpt><trkpt lat="56.10996108566189" lon="22.13352687170599"><ele>122.5</ele><time>2026-04-18T15:05:01Z</time></trkpt><trkpt lat="56.1098598751411" lon="22.13346660680095"><ele>122.66666666666666</ele><time>2026-04-18T15:05:02Z</time></trkpt><trkpt lat="56.109773637684775" lon="22.133375635536954"><ele>122.83333333333333</ele><time>2026-04-18T15:05:03Z</time></trkpt><trkpt lat="56.10971899513773" lon="22.133293397931517"><ele>123.0</ele><time>2026-04-18T15:05:04Z</time></trkpt><trkpt lat="56.10966761328985" lon="22.133215413033774"><ele>122.66666666666667</ele><time>2026-04-18T15:05:05Z</time></trkpt><trkpt lat="56.109612144153274" lon="22.133126019963157"><ele>122.33333333333334</ele><time>2026-04-18T15:05:06Z</time></trkpt><trkpt lat="56.109531622987674" lon="22.13302494761367"><ele>122.0</ele><time>2026-04-18T15:05:07Z</time></trkpt><trkpt lat="56.10945277761543" lon="22.132916919793004"><ele>121.66666666666667</ele><time>2026-04-18T15:05:08Z</time></trkpt><trkpt lat="56.109395696668365" lon="22.13281899850808"><ele>121.33333333333334</ele><time>2026-04-18T15:05:09Z</time></trkpt><trkpt lat="56.10933274805852" lon="22.13269685912999"><ele>121.0</ele><time>2026-04-18T15:05:10Z</time></trkpt><trkpt lat="56.109262501008764" lon="22.13254714295288"><ele>121.0</ele><time>2026-04-18T15:05:11Z</time></trkpt><trkpt lat="56.109199889125215" lon="22.132407596764086"><ele>121.0</ele><time>2026-04-18T15:05:12Z</time></trkpt><trkpt lat="56.109131137412284" lon="22.132255740147404"><ele>121.0</ele><time>2026-04-18T15:05:13Z</time></trkpt><trkpt lat="56.109079868884784" lon="22.132124937421583"><ele>121.0</ele><time>2026-04-18T15:05:14Z</time></trkpt><trkpt lat="56.10903575678033" lon="22.13199902111863"><ele>121.0</ele><time>2026-04-18T15:05:15Z</time></trkpt><trkpt lat="56.10899719106055" lon="22.131889114510006"><ele>121.4</ele><time>2026-04-18T15:05:16Z</time></trkpt><trkpt lat="56.10895316158831" lon="22.131769904071493"><ele>121.8</ele><time>2026-04-18T15:05:17Z</time></trkpt><trkpt lat="56.108888714552414" lon="22.131669527655745"><ele>122.20000000000002</ele><time>2026-04-18T15:05:18Z</time></trkpt><trkpt lat="56.10879670296802" lon="22.13156020906061"><ele>122.60000000000001</ele><time>2026-04-18T15:05:19Z</time></trkpt><trkpt lat="56.1086965415133" lon="22.131494577411427"><ele>123.0</ele><time>2026-04-18T15:05:20Z</time></trkpt><trkpt lat="56.10861141103827" lon="22.131463639012846"><ele>123.0</ele><time>2026-04-18T15:05:21Z</time></trkpt><trkpt lat="56.108534737800056" lon="22.131406871011347"><ele>123.0</ele><time>2026-04-18T15:05:22Z</time></trkpt><trkpt lat="56.10846009712263" lon="22.131335199664992"><ele>123.0</ele><time>2026-04-18T15:05:23Z</time></trkpt><trkpt lat="56.10839558432155" lon="22.131239864804204"><ele>123.0</ele><time>2026-04-18T15:05:24Z</time></trkpt><trkpt lat="56.10833033934422" lon="22.131154950526515"><ele>123.0</ele><time>2026-04-18T15:05:25Z</time></trkpt><trkpt lat="56.10829216448087" lon="22.1310626469459"><ele>123.0</ele><time>2026-04-18T15:05:26Z</time></trkpt><trkpt lat="56.10823445949993" lon="22.13093528991904"><ele>122.80000000000001</ele><time>2026-04-18T15:05:27Z</time></trkpt><trkpt lat="56.10816974027343" lon="22.130798117492795"><ele>122.60000000000001</ele><time>2026-04-18T15:05:28Z</time></trkpt><trkpt lat="56.10811719767907" lon="22.13065132503886"><ele>122.39999999999999</ele><time>2026-04-18T15:05:29Z</time></trkpt><trkpt lat="56.108074573428105" lon="22.130505730040436"><ele>122.19999999999999</ele><time>2026-04-18T15:05:30Z</time></trkpt><trkpt lat="56.10801921615194" lon="22.130363052388745"><ele>122.0</ele><time>2026-04-18T15:05:31Z</time></trkpt><trkpt lat="56.1079332335008" lon="22.13020417777913"><ele>122.6</ele><time>2026-04-18T15:05:32Z</time></trkpt><trkpt lat="56.107841123856545" lon="22.130064334356888"><ele>123.19999999999999</ele><time>2026-04-18T15:05:33Z</time></trkpt><trkpt lat="56.10775525255994" lon="22.12995179279025"><ele>123.8</ele><time>2026-04-18T15:05:34Z</time></trkpt><trkpt lat="56.1076633501585" lon="22.12985573551259"><ele>124.4</ele><time>2026-04-18T15:05:35Z</time></trkpt><trkpt lat="56.10757227747974" lon="22.12975258696774"><ele>125.0</ele><time>2026-04-18T15:05:36Z</time></trkpt><trkpt lat="56.10750249562854" lon="22.129651372628274"><ele>125.16666666666666</ele><time>2026-04-18T15:05:37Z</time></trkpt><trkpt lat="56.10743675842011" lon="22.129550363511544"><ele>125.33333333333333</ele><time>2026-04-18T15:05:38Z</time></trkpt><trkpt lat="56.10738524229611" lon="22.12948525839033"><ele>125.5</ele><time>2026-04-18T15:05:39Z</time></trkpt><trkpt lat="56.10729575312847" lon="22.129449116261952"><ele>125.66666666666666</ele><time>2026-04-18T15:05:41Z</time></trkpt><trkpt lat="56.10719754981678" lon="22.129447274319517"><ele>125.83333333333333</ele><time>2026-04-18T15:05:43Z</time></trkpt><trkpt lat="56.107116499529795" lon="22.129457259499798"><ele>126.0</ele><time>2026-04-18T15:05:45Z</time></trkpt><trkpt lat="56.10700829673478" lon="22.129473443039128"><ele>126.0</ele><time>2026-04-18T15:05:47Z</time></trkpt><trkpt lat="56.106913723935676" lon="22.129499926845764"><ele>126.0</ele><time>2026-04-18T15:05:48Z</time></trkpt><trkpt lat="56.10681508477419" lon="22.129561382402894"><ele>126.0</ele><time>2026-04-18T15:05:49Z</time></trkpt><trkpt lat="56.10672567463168" lon="22.129633707476053"><ele>126.0</ele><time>2026-04-18T15:05:50Z</time></trkpt><trkpt lat="56.106639014506214" lon="22.129687489396584"><ele>126.0</ele><time>2026-04-18T15:05:51Z</time></trkpt><trkpt lat="56.106551365919614" lon="22.1297048199294"><ele>126.33333333333333</ele><time>2026-04-18T15:05:52Z</time></trkpt><trkpt lat="56.10645626325961" lon="22.129704083673808"><ele>126.66666666666666</ele><time>2026-04-18T15:05:53Z</time></trkpt><trkpt lat="56.10636473861336" lon="22.129684505092794"><ele>127.0</ele><time>2026-04-18T15:05:54Z</time></trkpt><trkpt lat="56.10628603928069" lon="22.129663482675213"><ele>127.33333333333333</ele><time>2026-04-18T15:05:55Z</time></trkpt><trkpt lat="56.10620999402108" lon="22.1296169642886"><ele>127.66666666666666</ele><time>2026-04-18T15:05:56Z</time></trkpt><trkpt lat="56.10614479539498" lon="22.129543220744036"><ele>128.0</ele><time>2026-04-18T15:05:57Z</time></trkpt><trkpt lat="56.10607203953933" lon="22.129441962282336"><ele>128.0</ele><time>2026-04-18T15:05:58Z</time></trkpt><trkpt lat="56.105982819604506" lon="22.12932087062922"><ele>128.0</ele><time>2026-04-18T15:05:59Z</time></trkpt><trkpt lat="56.10589043197868" lon="22.129195680487054"><ele>128.0</ele><time>2026-04-18T15:06:00Z</time></trkpt><trkpt lat="56.10578262190248" lon="22.12907788272548"><ele>128.0</ele><time>2026-04-18T15:06:01Z</time></trkpt><trkpt lat="56.10567819372156" lon="22.128958696903773"><ele>127.60000000000001</ele><time>2026-04-18T15:06:02Z</time></trkpt><trkpt lat="56.10557633067213" lon="22.128840325447403"><ele>127.20000000000002</ele><time>2026-04-18T15:06:03Z</time></trkpt><trkpt lat="56.10547420511074" lon="22.128727959043246"><ele>126.8</ele><time>2026-04-18T15:06:04Z</time></trkpt><trkpt lat="56.10538905963978" lon="22.128639972449847"><ele>126.4</ele><time>2026-04-18T15:06:05Z</time></trkpt><trkpt lat="56.10531520764199" lon="22.128496584331582"><ele>126.0</ele><time>2026-04-18T15:06:06Z</time></trkpt><trkpt lat="56.10522303298817" lon="22.12839380098312"><ele>126.0</ele><time>2026-04-18T15:06:07Z</time></trkpt><trkpt lat="56.10512344066885" lon="22.128283703664845"><ele>126.0</ele><time>2026-04-18T15:06:08Z</time></trkpt><trkpt lat="56.10502733194123" lon="22.12817730224312"><ele>126.0</ele><time>2026-04-18T15:06:09Z</time></trkpt><trkpt lat="56.10494412215885" lon="22.128084921904982"><ele>126.0</ele><time>2026-04-18T15:06:10Z</time></trkpt><trkpt lat="56.104859527868015" lon="22.127991200419594"><ele>126.0</ele><time>2026-04-18T15:06:11Z</time></trkpt><trkpt lat="56.10476894888317" lon="22.12791662661201"><ele>126.6</ele><time>2026-04-18T15:06:12Z</time></trkpt><trkpt lat="56.10469958329055" lon="22.127757392101607"><ele>127.19999999999999</ele><time>2026-04-18T15:06:13Z</time></trkpt><trkpt lat="56.104616276097246" lon="22.12760583681222"><ele>127.80000000000001</ele><time>2026-04-18T15:06:14Z</time></trkpt><trkpt lat="56.104536759158634" lon="22.12746188685238"><ele>128.4</ele><time>2026-04-18T15:06:15Z</time></trkpt><trkpt lat="56.10446653869911" lon="22.12733590166832"><ele>129.0</ele><time>2026-04-18T15:06:16Z</time></trkpt><trkpt lat="56.104431564129634" lon="22.12720719832982"><ele>129.0</ele><time>2026-04-18T15:06:17Z</time></trkpt><trkpt lat="56.10437859813027" lon="22.12706246016843"><ele>129.0</ele><time>2026-04-18T15:06:18Z</time></trkpt><trkpt lat="56.104322519068845" lon="22.126919700092284"><ele>129.0</ele><time>2026-04-18T15:06:19Z</time></trkpt><trkpt lat="56.10426661074571" lon="22.126754688729303"><ele>129.0</ele><time>2026-04-18T15:06:20Z</time></trkpt><trkpt lat="56.104090811067735" lon="22.126628642778673"><ele>128.4</ele><time>2026-04-18T15:06:21Z</time></trkpt><trkpt lat="56.10412009410126" lon="22.126344394239595"><ele>127.80000000000001</ele><time>2026-04-18T15:06:22Z</time></trkpt><trkpt lat="56.104155854162855" lon="22.126204217299343"><ele>127.19999999999999</ele><time>2026-04-18T15:06:23Z</time></trkpt><trkpt lat="56.10417491667353" lon="22.12605754058821"><ele>126.6</ele><time>2026-04-18T15:06:24Z</time></trkpt><trkpt lat="56.10419793254221" lon="22.125870824570484"><ele>126.0</ele><time>2026-04-18T15:06:25Z</time></trkpt><trkpt lat="56.10419088032532" lon="22.125663799939918"><ele>125.5</ele><time>2026-04-18T15:06:26Z</time></trkpt><trkpt lat="56.10415750506202" lon="22.1253951336148"><ele>125.0</ele><time>2026-04-18T15:06:27Z</time></trkpt><trkpt lat="56.1041221254844" lon="22.125198462333913"><ele>124.5</ele><time>2026-04-18T15:06:28Z</time></trkpt><trkpt lat="56.10409234078191" lon="22.12503474268375"><ele>124.0</ele><time>2026-04-18T15:06:29Z</time></trkpt><trkpt lat="56.10408002569534" lon="22.124861434016424"><ele>124.0</ele><time>2026-04-18T15:06:30Z</time></trkpt><trkpt lat="56.104108181548725" lon="22.124658933694178"><ele>124.0</ele><time>2026-04-18T15:06:31Z</time></trkpt><trkpt lat="56.1041306656602" lon="22.124454077600376"><ele>124.0</ele><time>2026-04-18T15:06:32Z</time></trkpt><trkpt lat="56.1041301364437" lon="22.124290325157975"><ele>124.0</ele><time>2026-04-18T15:06:33Z</time></trkpt><trkpt lat="56.104127120993695" lon="22.124143398485593"><ele>124.0</ele><time>2026-04-18T15:06:34Z</time></trkpt><trkpt lat="56.104108527480115" lon="22.12398731124057"><ele>124.0</ele><time>2026-04-18T15:06:35Z</time></trkpt><trkpt lat="56.10402506722" lon="22.12378486021212"><ele>124.0</ele><time>2026-04-18T15:06:36Z</time></trkpt><trkpt lat="56.10399226818863" lon="22.123627195244573"><ele>124.0</ele><time>2026-04-18T15:06:37Z</time></trkpt><trkpt lat="56.103965108341335" lon="22.1234408787798"><ele>124.0</ele><time>2026-04-18T15:06:38Z</time></trkpt><trkpt lat="56.10392551277145" lon="22.1232729979332"><ele>124.0</ele><time>2026-04-18T15:06:39Z</time></trkpt><trkpt lat="56.103910343543305" lon="22.123099617346192"><ele>124.0</ele><time>2026-04-18T15:06:40Z</time></trkpt><trkpt lat="56.10384798919244" lon="22.122941666069618"><ele>124.0</ele><time>2026-04-18T15:06:41Z</time></trkpt><trkpt lat="56.103798032477926" lon="22.12281572828577"><ele>124.0</ele><time>2026-04-18T15:06:42Z</time></trkpt><trkpt lat="56.10372676338582" lon="22.1226621597812"><ele>124.0</ele><time>2026-04-18T15:06:44Z</time></trkpt><trkpt lat="56.10377999653457" lon="22.122566577465136"><ele>124.0</ele><time>2026-04-18T15:06:45Z</time></trkpt><trkpt lat="56.10376987099511" lon="22.12237333172859"><ele>123.25</ele><time>2026-04-18T15:06:47Z</time></trkpt><trkpt lat="56.10376256961291" lon="22.122233984708906"><ele>122.5</ele><time>2026-04-18T15:06:48Z</time></trkpt><trkpt lat="56.10375524290393" lon="22.122094154315125"><ele>121.75</ele><time>2026-04-18T15:06:49Z</time></trkpt><trkpt lat="56.10353582113918" lon="22.12200269234748"><ele>121.0</ele><time>2026-04-18T15:06:50Z</time></trkpt><trkpt lat="56.10348806967793" lon="22.12184722171098"><ele>121.00000000000001</ele><time>2026-04-18T15:06:52Z</time></trkpt><trkpt lat="56.103409168181635" lon="22.12175742813677"><ele>121.0</ele><time>2026-04-18T15:06:54Z</time></trkpt><trkpt lat="56.103344328720766" lon="22.121751271227314"><ele>121.0</ele><time>2026-04-18T15:06:55Z</time></trkpt><trkpt lat="56.10326897898725" lon="22.121762026747774"><ele>121.0</ele><time>2026-04-18T15:06:56Z</time></trkpt><trkpt lat="56.103190162763134" lon="22.1217713147548"><ele>121.00000000000001</ele><time>2026-04-18T15:06:57Z</time></trkpt><trkpt lat="56.10308468476635" lon="22.121770082887796"><ele>121.0</ele><time>2026-04-18T15:06:59Z</time></trkpt><trkpt lat="56.10305774599873" lon="22.121647984632023"><ele>122.0</ele><time>2026-04-18T15:07:01Z</time></trkpt><trkpt lat="56.10311006133453" lon="22.1214167458765"><ele>119.0</ele><time>2026-04-18T15:07:03Z</time></trkpt><trkpt lat="56.10312021834637" lon="22.12127669822139"><ele>119.0</ele><time>2026-04-18T15:07:04Z</time></trkpt><trkpt lat="56.103111441499856" lon="22.12114319639885"><ele>119.0</ele><time>2026-04-18T15:07:05Z</time></trkpt><trkpt lat="56.103089373392514" lon="22.12101240135953"><ele>119.0</ele><time>2026-04-18T15:07:06Z</time></trkpt><trkpt lat="56.10308308667947" lon="22.120869040531595"><ele>119.0</ele><time>2026-04-18T15:07:08Z</time></trkpt></trkseg><trkseg><trkpt lat="56.10307124149712" lon="22.120648258448252"><ele>119.0</ele><time>2026-04-18T15:18:58.999Z</time></trkpt><trkpt lat="56.103053677828434" lon="22.12076009496458"><ele>119.0</ele><time>2026-04-18T15:19:11.999Z</time></trkpt><trkpt lat="56.10308210577636" lon="22.120868575510872"><ele>119.0</ele><time>2026-04-18T15:19:18.999Z</time></trkpt><trkpt lat="56.10309034907329" lon="22.12100740088776"><ele>119.0</ele><time>2026-04-18T15:20:11.999Z</time></trkpt><trkpt lat="56.10310911047731" lon="22.121129490454024"><ele>119.0</ele><time>2026-04-18T15:20:12.999Z</time></trkpt><trkpt lat="56.10313826382058" lon="22.121232770875903"><ele>119.0</ele><time>2026-04-18T15:20:13.999Z</time></trkpt><trkpt lat="56.10313272525426" lon="22.12138778771537"><ele>119.0</ele><time>2026-04-18T15:20:15.999Z</time></trkpt><trkpt lat="56.10310400556632" lon="22.121567411854812"><ele>119.33333333333333</ele><time>2026-04-18T15:20:17.999Z</time></trkpt><trkpt lat="56.103075345354384" lon="22.12168045649507"><ele>119.66666666666666</ele><time>2026-04-18T15:20:19.999Z</time></trkpt><trkpt lat="56.103142300925455" lon="22.121783863267446"><ele>120.0</ele><time>2026-04-18T15:20:22.999Z</time></trkpt><trkpt lat="56.10326361996666" lon="22.12178448571913"><ele>120.33333333333334</ele><time>2026-04-18T15:20:24.999Z</time></trkpt><trkpt lat="56.103350337845676" lon="22.121778011888384"><ele>120.66666666666667</ele><time>2026-04-18T15:20:25.999Z</time></trkpt><trkpt lat="56.103414626424026" lon="22.12177877411098"><ele>121.0</ele><time>2026-04-18T15:20:26.999Z</time></trkpt><trkpt lat="56.10348800672659" lon="22.121847846488635"><ele>121.00000000000001</ele><time>2026-04-18T15:20:28.999Z</time></trkpt><trkpt lat="56.103530327185325" lon="22.122048294599608"><ele>121.0</ele><time>2026-04-18T15:20:30.999Z</time></trkpt><trkpt lat="56.10356547070039" lon="22.12216552026337"><ele>121.0</ele><time>2026-04-18T15:20:31.999Z</time></trkpt><trkpt lat="56.10359733332176" lon="22.12228853752652"><ele>121.0</ele><time>2026-04-18T15:20:32.999Z</time></trkpt><trkpt lat="56.10364609015742" lon="22.12242369049443"><ele>121.00000000000001</ele><time>2026-04-18T15:20:33.999Z</time></trkpt><trkpt lat="56.1036856435669" lon="22.122551956399366"><ele>121.0</ele><time>2026-04-18T15:20:34.999Z</time></trkpt><trkpt lat="56.10371841295052" lon="22.122675410878095"><ele>121.0</ele><time>2026-04-18T15:20:35.999Z</time></trkpt><trkpt lat="56.10376911278336" lon="22.122398987832856"><ele>121.0</ele><time>2026-04-18T15:20:41.999Z</time></trkpt><trkpt lat="56.103841941877725" lon="22.122237884885113"><ele>121.0</ele><time>2026-04-18T15:20:43.999Z</time></trkpt><trkpt lat="56.10389126877816" lon="22.12215120865205"><ele>121.0</ele><time>2026-04-18T15:20:44.999Z</time></trkpt><trkpt lat="56.103931342356866" lon="22.122058833755485"><ele>121.0</ele><time>2026-04-18T15:20:45.999Z</time></trkpt><trkpt lat="56.10395790330638" lon="22.121943132688465"><ele>121.00000000000001</ele><time>2026-04-18T15:20:46.999Z</time></trkpt><trkpt lat="56.10398464303756" lon="22.12183441986042"><ele>121.0</ele><time>2026-04-18T15:20:47.999Z</time></trkpt><trkpt lat="56.1040058715334" lon="22.12172131628388"><ele>121.0</ele><time>2026-04-18T15:20:48.999Z</time></trkpt><trkpt lat="56.10404959208907" lon="22.121541362776682"><ele>121.0</ele><time>2026-04-18T15:20:50.999Z</time></trkpt><trkpt lat="56.104077599047045" lon="22.121413678298865"><ele>121.00000000000001</ele><time>2026-04-18T15:20:51.999Z</time></trkpt><trkpt lat="56.10411000100699" lon="22.121306760001985"><ele>121.0</ele><time>2026-04-18T15:20:52.999Z</time></trkpt><trkpt lat="56.10418801415818" lon="22.121151595169863"><ele>120.33333333333334</ele><time>2026-04-18T15:20:54.999Z</time></trkpt><trkpt lat="56.104245313704766" lon="22.12108001895552"><ele>119.66666666666667</ele><time>2026-04-18T15:20:55.999Z</time></trkpt><trkpt lat="56.104315693721766" lon="22.121014004422022"><ele>119.0</ele><time>2026-04-18T15:20:56.999Z</time></trkpt><trkpt lat="56.10438307689077" lon="22.12095312414451"><ele>118.33333333333334</ele><time>2026-04-18T15:20:57.999Z</time></trkpt><trkpt lat="56.10445897864746" lon="22.120878161527262"><ele>117.66666666666667</ele><time>2026-04-18T15:20:58.999Z</time></trkpt><trkpt lat="56.104518442342126" lon="22.120800743712824"><ele>117.0</ele><time>2026-04-18T15:20:59.999Z</time></trkpt><trkpt lat="56.10456583683424" lon="22.12070916859143"><ele>117.0</ele><time>2026-04-18T15:21:00.999Z</time></trkpt><trkpt lat="56.1046021123476" lon="22.120610813611194"><ele>117.0</ele><time>2026-04-18T15:21:01.999Z</time></trkpt><trkpt lat="56.1046336965887" lon="22.120500005208676"><ele>117.0</ele><time>2026-04-18T15:21:02.999Z</time></trkpt><trkpt lat="56.104638250265516" lon="22.12031043422186"><ele>117.0</ele><time>2026-04-18T15:21:04.999Z</time></trkpt><trkpt lat="56.10460933336547" lon="22.120201004908854"><ele>117.0</ele><time>2026-04-18T15:21:06.999Z</time></trkpt><trkpt lat="56.104630530592544" lon="22.12033771505688"><ele>117.0</ele><time>2026-04-18T15:21:28.999Z</time></trkpt><trkpt lat="56.10464845978517" lon="22.120451770879892"><ele>117.0</ele><time>2026-04-18T15:21:30.999Z</time></trkpt><trkpt lat="56.10466290499942" lon="22.120630386163157"><ele>117.0</ele><time>2026-04-18T15:21:32.999Z</time></trkpt><trkpt lat="56.10445468457486" lon="22.12085756932051"><ele>117.0</ele><time>2026-04-18T15:21:34.999Z</time></trkpt><trkpt lat="56.10439561711996" lon="22.120927273875413"><ele>117.0</ele><time>2026-04-18T15:21:35.999Z</time></trkpt><trkpt lat="56.10432723346117" lon="22.120987752806617"><ele>116.83333333333333</ele><time>2026-04-18T15:21:36.999Z</time></trkpt><trkpt lat="56.10426159549145" lon="22.12104185468744"><ele>116.66666666666666</ele><time>2026-04-18T15:21:37.999Z</time></trkpt><trkpt lat="56.10419788616374" lon="22.121103252524378"><ele>116.5</ele><time>2026-04-18T15:21:38.999Z</time></trkpt><trkpt lat="56.10411344859374" lon="22.12124526073939"><ele>116.33333333333333</ele><time>2026-04-18T15:21:40.999Z</time></trkpt><trkpt lat="56.10407599764717" lon="22.12134528022542"><ele>116.16666666666666</ele><time>2026-04-18T15:21:41.999Z</time></trkpt><trkpt lat="56.10404684817878" lon="22.12145092052844"><ele>116.0</ele><time>2026-04-18T15:21:42.999Z</time></trkpt><trkpt lat="56.104019181639515" lon="22.121579782071954"><ele>116.83333333333333</ele><time>2026-04-18T15:21:43.999Z</time></trkpt><trkpt lat="56.103996785469775" lon="22.12170793723315"><ele>117.66666666666666</ele><time>2026-04-18T15:21:44.999Z</time></trkpt><trkpt lat="56.10397050215804" lon="22.12183946531916"><ele>118.5</ele><time>2026-04-18T15:21:45.999Z</time></trkpt><trkpt lat="56.103936838142815" lon="22.12197473334628"><ele>119.33333333333334</ele><time>2026-04-18T15:21:46.999Z</time></trkpt><trkpt lat="56.10388493466312" lon="22.122081810037066"><ele>120.16666666666667</ele><time>2026-04-18T15:21:47.999Z</time></trkpt><trkpt lat="56.10383189866251" lon="22.122264931041368"><ele>121.0</ele><time>2026-04-18T15:21:49.999Z</time></trkpt><trkpt lat="56.103762660810396" lon="22.122414563776243"><ele>121.6</ele><time>2026-04-18T15:21:51.999Z</time></trkpt><trkpt lat="56.10374681992061" lon="22.122543588884074"><ele>122.19999999999999</ele><time>2026-04-18T15:21:53.999Z</time></trkpt><trkpt lat="56.10374926232486" lon="22.1227002657854"><ele>122.80000000000001</ele><time>2026-04-18T15:21:55.999Z</time></trkpt><trkpt lat="56.103751495578585" lon="22.122818845275926"><ele>123.4</ele><time>2026-04-18T15:21:58.999Z</time></trkpt><trkpt lat="56.10358800114726" lon="22.122819591861752"><ele>124.0</ele><time>2026-04-18T15:22:00.999Z</time></trkpt><trkpt lat="56.10352115985678" lon="22.122773214760795"><ele>124.00000000000001</ele><time>2026-04-18T15:22:01.999Z</time></trkpt><trkpt lat="56.10344868298965" lon="22.122717336541797"><ele>124.0</ele><time>2026-04-18T15:22:02.999Z</time></trkpt><trkpt lat="56.10337207380999" lon="22.122668213017096"><ele>124.0</ele><time>2026-04-18T15:22:03.999Z</time></trkpt><trkpt lat="56.1032944561016" lon="22.122638436751817"><ele>124.0</ele><time>2026-04-18T15:22:04.999Z</time></trkpt><trkpt lat="56.10322806651911" lon="22.122605292565733"><ele>124.00000000000001</ele><time>2026-04-18T15:22:05.999Z</time></trkpt><trkpt lat="56.103146519241974" lon="22.12257178579421"><ele>124.0</ele><time>2026-04-18T15:22:06.999Z</time></trkpt><trkpt lat="56.10306458239345" lon="22.122531419504345"><ele>124.00000000000001</ele><time>2026-04-18T15:22:07.999Z</time></trkpt><trkpt lat="56.10297845068625" lon="22.122472383101016"><ele>124.0</ele><time>2026-04-18T15:22:08.999Z</time></trkpt><trkpt lat="56.10290030315391" lon="22.12241726205515"><ele>124.0</ele><time>2026-04-18T15:22:09.999Z</time></trkpt><trkpt lat="56.102818990751175" lon="22.12237717702228"><ele>124.0</ele><time>2026-04-18T15:22:10.999Z</time></trkpt><trkpt lat="56.10274050683444" lon="22.122319385167586"><ele>124.00000000000001</ele><time>2026-04-18T15:22:11.999Z</time></trkpt><trkpt lat="56.10266046849227" lon="22.122275662944308"><ele>124.0</ele><time>2026-04-18T15:22:12.999Z</time></trkpt><trkpt lat="56.10256845546823" lon="22.122245572298546"><ele>123.83333333333334</ele><time>2026-04-18T15:22:13.999Z</time></trkpt><trkpt lat="56.102486034177836" lon="22.12220198267246"><ele>123.66666666666667</ele><time>2026-04-18T15:22:14.999Z</time></trkpt><trkpt lat="56.102398264797216" lon="22.122160342459292"><ele>123.5</ele><time>2026-04-18T15:22:15.999Z</time></trkpt><trkpt lat="56.10230863401732" lon="22.122106640193845"><ele>123.33333333333334</ele><time>2026-04-18T15:22:16.999Z</time></trkpt><trkpt lat="56.10222924222045" lon="22.122062929894554"><ele>123.16666666666667</ele><time>2026-04-18T15:22:17.999Z</time></trkpt><trkpt lat="56.10214588346472" lon="22.12202553621566"><ele>123.0</ele><time>2026-04-18T15:22:18.999Z</time></trkpt><trkpt lat="56.1020611312077" lon="22.121985583431936"><ele>123.0</ele><time>2026-04-18T15:22:19.999Z</time></trkpt><trkpt lat="56.10197806416951" lon="22.121938893901863"><ele>123.0</ele><time>2026-04-18T15:22:20.999Z</time></trkpt><trkpt lat="56.10190274992504" lon="22.121896770809407"><ele>123.0</ele><time>2026-04-18T15:22:21.999Z</time></trkpt><trkpt lat="56.10181617476627" lon="22.121848009009707"><ele>123.0</ele><time>2026-04-18T15:22:22.999Z</time></trkpt><trkpt lat="56.10173597269122" lon="22.121809079388246"><ele>123.0</ele><time>2026-04-18T15:22:23.999Z</time></trkpt><trkpt lat="56.10164800429511" lon="22.1217684012275"><ele>123.0</ele><time>2026-04-18T15:22:24.999Z</time></trkpt><trkpt lat="56.1015582848401" lon="22.12173410611665"><ele>123.2</ele><time>2026-04-18T15:22:25.999Z</time></trkpt><trkpt lat="56.1014681786808" lon="22.12167691506244"><ele>123.4</ele><time>2026-04-18T15:22:26.999Z</time></trkpt><trkpt lat="56.101378796166934" lon="22.121618826650536"><ele>123.60000000000001</ele><time>2026-04-18T15:22:27.999Z</time></trkpt><trkpt lat="56.1012926646603" lon="22.121567871266812"><ele>123.80000000000001</ele><time>2026-04-18T15:22:28.999Z</time></trkpt><trkpt lat="56.1012092011858" lon="22.121512821974562"><ele>124.0</ele><time>2026-04-18T15:22:29.999Z</time></trkpt><trkpt lat="56.10112328350195" lon="22.121458842860232"><ele>124.33333333333334</ele><time>2026-04-18T15:22:30.999Z</time></trkpt><trkpt lat="56.10104297785205" lon="22.12141241738739"><ele>124.66666666666667</ele><time>2026-04-18T15:22:31.999Z</time></trkpt><trkpt lat="56.100955852373524" lon="22.121365972752457"><ele>125.0</ele><time>2026-04-18T15:22:32.999Z</time></trkpt><trkpt lat="56.10087307389568" lon="22.121316944351378"><ele>125.33333333333334</ele><time>2026-04-18T15:22:33.999Z</time></trkpt><trkpt lat="56.10079269719178" lon="22.12126973005827"><ele>125.66666666666667</ele><time>2026-04-18T15:22:34.999Z</time></trkpt><trkpt lat="56.100711551535355" lon="22.121216796159487"><ele>126.0</ele><time>2026-04-18T15:22:35.999Z</time></trkpt><trkpt lat="56.10062999105614" lon="22.121166012628375"><ele>125.16666666666667</ele><time>2026-04-18T15:22:36.999Z</time></trkpt><trkpt lat="56.100551241354246" lon="22.121110801057736"><ele>124.33333333333334</ele><time>2026-04-18T15:22:37.999Z</time></trkpt><trkpt lat="56.100471371893775" lon="22.12106849557169"><ele>123.5</ele><time>2026-04-18T15:22:38.999Z</time></trkpt><trkpt lat="56.10039390327999" lon="22.121027239251347"><ele>122.66666666666667</ele><time>2026-04-18T15:22:39.999Z</time></trkpt><trkpt lat="56.10032822103546" lon="22.120990027600993"><ele>121.83333333333334</ele><time>2026-04-18T15:22:40.999Z</time></trkpt><trkpt lat="56.100210455303994" lon="22.120924363992163"><ele>121.0</ele><time>2026-04-18T15:22:42.999Z</time></trkpt><trkpt lat="56.10015141837846" lon="22.120884345793673"><ele>121.0</ele><time>2026-04-18T15:22:43.999Z</time></trkpt><trkpt lat="56.100036362353464" lon="22.12083843919762"><ele>121.0</ele><time>2026-04-18T15:22:45.999Z</time></trkpt><trkpt lat="56.09991873774486" lon="22.12090636421586"><ele>121.0</ele><time>2026-04-18T15:22:47.999Z</time></trkpt><trkpt lat="56.09987249285553" lon="22.120999227976235"><ele>121.0</ele><time>2026-04-18T15:22:48.999Z</time></trkpt><trkpt lat="56.099827196848274" lon="22.12113903098551"><ele>121.0</ele><time>2026-04-18T15:22:49.999Z</time></trkpt><trkpt lat="56.09978350847923" lon="22.121275443729235"><ele>120.33333333333334</ele><time>2026-04-18T15:22:50.999Z</time></trkpt><trkpt lat="56.099720270555" lon="22.121364528065385"><ele>119.66666666666667</ele><time>2026-04-18T15:22:51.999Z</time></trkpt><trkpt lat="56.099652300151924" lon="22.12141176151528"><ele>119.0</ele><time>2026-04-18T15:22:52.999Z</time></trkpt><trkpt lat="56.09956854486236" lon="22.12147045206712"><ele>118.33333333333334</ele><time>2026-04-18T15:22:53.999Z</time></trkpt><trkpt lat="56.09947752539421" lon="22.12154030157157"><ele>117.66666666666667</ele><time>2026-04-18T15:22:54.999Z</time></trkpt><trkpt lat="56.09939108946591" lon="22.12160868423539"><ele>117.0</ele><time>2026-04-18T15:22:55.999Z</time></trkpt><trkpt lat="56.09930777204579" lon="22.121677786150325"><ele>117.0</ele><time>2026-04-18T15:22:56.999Z</time></trkpt><trkpt lat="56.09923228966271" lon="22.12173679664268"><ele>117.0</ele><time>2026-04-18T15:22:57.999Z</time></trkpt><trkpt lat="56.09915283658756" lon="22.121800473043745"><ele>117.0</ele><time>2026-04-18T15:22:58.999Z</time></trkpt><trkpt lat="56.09908205078406" lon="22.121854793455547"><ele>117.0</ele><time>2026-04-18T15:22:59.999Z</time></trkpt><trkpt lat="56.09899658080109" lon="22.12193378233381"><ele>117.0</ele><time>2026-04-18T15:23:00.999Z</time></trkpt><trkpt lat="56.098911203576904" lon="22.12200314275723"><ele>117.0</ele><time>2026-04-18T15:23:01.999Z</time></trkpt><trkpt lat="56.098837622453104" lon="22.12206455513312"><ele>116.83333333333333</ele><time>2026-04-18T15:23:02.999Z</time></trkpt><trkpt lat="56.0987710049117" lon="22.122114285007253"><ele>116.66666666666666</ele><time>2026-04-18T15:23:03.999Z</time></trkpt><trkpt lat="56.098697936068504" lon="22.122175201234104"><ele>116.5</ele><time>2026-04-18T15:23:04.999Z</time></trkpt><trkpt lat="56.09861648267946" lon="22.122235434906546"><ele>116.33333333333333</ele><time>2026-04-18T15:23:05.999Z</time></trkpt><trkpt lat="56.09854213132407" lon="22.1222998033416"><ele>116.16666666666666</ele><time>2026-04-18T15:23:06.999Z</time></trkpt><trkpt lat="56.09847145835452" lon="22.12236314016358"><ele>116.0</ele><time>2026-04-18T15:23:07.999Z</time></trkpt><trkpt lat="56.09835368830617" lon="22.12244158158439"><ele>116.66666666666666</ele><time>2026-04-18T15:23:09.999Z</time></trkpt><trkpt lat="56.09828579435197" lon="22.122469113163614"><ele>117.33333333333333</ele><time>2026-04-18T15:23:10.999Z</time></trkpt><trkpt lat="56.098211486342" lon="22.122492613412902"><ele>118.0</ele><time>2026-04-18T15:23:11.999Z</time></trkpt><trkpt lat="56.09813596336729" lon="22.12250395940328"><ele>118.66666666666666</ele><time>2026-04-18T15:23:12.999Z</time></trkpt><trkpt lat="56.09805628635214" lon="22.122521900635974"><ele>119.33333333333333</ele><time>2026-04-18T15:23:13.999Z</time></trkpt><trkpt lat="56.0979752237608" lon="22.12255951971984"><ele>120.0</ele><time>2026-04-18T15:23:14.999Z</time></trkpt><trkpt lat="56.097903671635734" lon="22.122608249175492"><ele>120.83333333333333</ele><time>2026-04-18T15:23:15.999Z</time></trkpt><trkpt lat="56.09780594260417" lon="22.122694807504317"><ele>121.66666666666666</ele><time>2026-04-18T15:23:17.999Z</time></trkpt><trkpt lat="56.09775495239427" lon="22.122775752094316"><ele>122.5</ele><time>2026-04-18T15:23:18.999Z</time></trkpt><trkpt lat="56.0976934555555" lon="22.122873894436637"><ele>123.33333333333333</ele><time>2026-04-18T15:23:19.999Z</time></trkpt><trkpt lat="56.0976310860644" lon="22.122922401281972"><ele>124.16666666666666</ele><time>2026-04-18T15:23:20.999Z</time></trkpt><trkpt lat="56.09753248459573" lon="22.122987441692224"><ele>125.0</ele><time>2026-04-18T15:23:21.999Z</time></trkpt><trkpt lat="56.09740256844524" lon="22.12307007977011"><ele>126.16666666666666</ele><time>2026-04-18T15:23:22.999Z</time></trkpt><trkpt lat="56.09728795204599" lon="22.1231110344509"><ele>127.33333333333333</ele><time>2026-04-18T15:23:23.999Z</time></trkpt><trkpt lat="56.09720682651531" lon="22.12312141891214"><ele>128.5</ele><time>2026-04-18T15:23:24.999Z</time></trkpt><trkpt lat="56.09714031713002" lon="22.12313495799363"><ele>129.66666666666666</ele><time>2026-04-18T15:23:25.999Z</time></trkpt><trkpt lat="56.0970638604935" lon="22.123172430143214"><ele>130.83333333333334</ele><time>2026-04-18T15:23:26.999Z</time></trkpt><trkpt lat="56.096970977020064" lon="22.123243567757473"><ele>132.0</ele><time>2026-04-18T15:23:27.999Z</time></trkpt><trkpt lat="56.096876475807875" lon="22.123325666814676"><ele>132.4</ele><time>2026-04-18T15:23:28.999Z</time></trkpt><trkpt lat="56.09676975941776" lon="22.12342599398001"><ele>132.79999999999998</ele><time>2026-04-18T15:23:29.999Z</time></trkpt><trkpt lat="56.09666169579763" lon="22.12353380281032"><ele>133.2</ele><time>2026-04-18T15:23:30.999Z</time></trkpt><trkpt lat="56.096580525384766" lon="22.123602618019806"><ele>133.6</ele><time>2026-04-18T15:23:31.999Z</time></trkpt><trkpt lat="56.0965063336955" lon="22.123632862872654"><ele>134.0</ele><time>2026-04-18T15:23:32.999Z</time></trkpt><trkpt lat="56.0964148824834" lon="22.123666879425425"><ele>134.16666666666666</ele><time>2026-04-18T15:23:33.999Z</time></trkpt><trkpt lat="56.09633909511876" lon="22.12372907267197"><ele>134.33333333333331</ele><time>2026-04-18T15:23:34.999Z</time></trkpt><trkpt lat="56.096270499640816" lon="22.12382407605096"><ele>134.5</ele><time>2026-04-18T15:23:35.999Z</time></trkpt><trkpt lat="56.0961964177676" lon="22.123964064632506"><ele>134.66666666666666</ele><time>2026-04-18T15:23:36.999Z</time></trkpt><trkpt lat="56.096141237398506" lon="22.124095350557486"><ele>134.83333333333334</ele><time>2026-04-18T15:23:37.999Z</time></trkpt><trkpt lat="56.09608854343778" lon="22.12417562750654"><ele>135.0</ele><time>2026-04-18T15:23:38.999Z</time></trkpt><trkpt lat="56.09601833267196" lon="22.124212436051344"><ele>134.8</ele><time>2026-04-18T15:23:39.999Z</time></trkpt><trkpt lat="56.09593853692004" lon="22.12423626192048"><ele>134.6</ele><time>2026-04-18T15:23:40.999Z</time></trkpt><trkpt lat="56.095834699118214" lon="22.124238632944753"><ele>134.4</ele><time>2026-04-18T15:23:41.999Z</time></trkpt><trkpt lat="56.09573138913672" lon="22.12424101236492"><ele>134.2</ele><time>2026-04-18T15:23:42.999Z</time></trkpt><trkpt lat="56.09564131432185" lon="22.124271697575953"><ele>134.0</ele><time>2026-04-18T15:23:43.999Z</time></trkpt><trkpt lat="56.09554019312888" lon="22.12426469809537"><ele>134.0</ele><time>2026-04-18T15:23:44.999Z</time></trkpt><trkpt lat="56.09543289817531" lon="22.12421103713463"><ele>134.0</ele><time>2026-04-18T15:23:46Z</time></trkpt><trkpt lat="56.09532183174359" lon="22.1241532752895"><ele>134.0</ele><time>2026-04-18T15:23:47Z</time></trkpt><trkpt lat="56.09524480396626" lon="22.124127066240646"><ele>134.0</ele><time>2026-04-18T15:23:48Z</time></trkpt><trkpt lat="56.09514779618762" lon="22.12414245657637"><ele>134.0</ele><time>2026-04-18T15:23:49Z</time></trkpt><trkpt lat="56.09503280816389" lon="22.12418018475871"><ele>134.2</ele><time>2026-04-18T15:23:50Z</time></trkpt><trkpt lat="56.094918984842714" lon="22.12418658121249"><ele>134.4</ele><time>2026-04-18T15:23:51Z</time></trkpt><trkpt lat="56.094820225809556" lon="22.124208642172746"><ele>134.6</ele><time>2026-04-18T15:23:52Z</time></trkpt><trkpt lat="56.094725983470966" lon="22.1242108095307"><ele>134.8</ele><time>2026-04-18T15:23:53Z</time></trkpt><trkpt lat="56.09465104863564" lon="22.124224468120364"><ele>135.0</ele><time>2026-04-18T15:23:54Z</time></trkpt><trkpt lat="56.09457034346079" lon="22.124255314704467"><ele>135.0</ele><time>2026-04-18T15:23:55Z</time></trkpt><trkpt lat="56.09447909969418" lon="22.12432592992735"><ele>135.0</ele><time>2026-04-18T15:23:56Z</time></trkpt><trkpt lat="56.094400470660545" lon="22.124396873185116"><ele>135.0</ele><time>2026-04-18T15:23:57Z</time></trkpt><trkpt lat="56.09431791182416" lon="22.12444370621716"><ele>135.0</ele><time>2026-04-18T15:23:58Z</time></trkpt><trkpt lat="56.09421933332413" lon="22.124454287007882"><ele>135.0</ele><time>2026-04-18T15:23:59Z</time></trkpt><trkpt lat="56.094114086816624" lon="22.12444917975475"><ele>134.6</ele><time>2026-04-18T15:24:00Z</time></trkpt><trkpt lat="56.09401332394257" lon="22.12446142291726"><ele>134.2</ele><time>2026-04-18T15:24:01Z</time></trkpt><trkpt lat="56.09390980808169" lon="22.124506490804347"><ele>133.8</ele><time>2026-04-18T15:24:02Z</time></trkpt><trkpt lat="56.09380507111992" lon="22.124558127172232"><ele>133.4</ele><time>2026-04-18T15:24:03Z</time></trkpt><trkpt lat="56.093723345174354" lon="22.124584361048388"><ele>133.0</ele><time>2026-04-18T15:24:04Z</time></trkpt><trkpt lat="56.09364256951314" lon="22.12458660230513"><ele>133.0</ele><time>2026-04-18T15:24:05Z</time></trkpt><trkpt lat="56.093558498646566" lon="22.12456948059666"><ele>133.0</ele><time>2026-04-18T15:24:06Z</time></trkpt><trkpt lat="56.09346849118797" lon="22.124544980956554"><ele>133.0</ele><time>2026-04-18T15:24:07Z</time></trkpt><trkpt lat="56.09338546921794" lon="22.1245189080449"><ele>133.0</ele><time>2026-04-18T15:24:08Z</time></trkpt><trkpt lat="56.09329895296925" lon="22.124491147034654"><ele>133.0</ele><time>2026-04-18T15:24:09Z</time></trkpt><trkpt lat="56.09320070255159" lon="22.124453578298247"><ele>133.0</ele><time>2026-04-18T15:24:10Z</time></trkpt><trkpt lat="56.09311063068431" lon="22.12440982366517"><ele>132.83333333333334</ele><time>2026-04-18T15:24:11Z</time></trkpt><trkpt lat="56.09302694200275" lon="22.12437433788085"><ele>132.66666666666669</ele><time>2026-04-18T15:24:12Z</time></trkpt><trkpt lat="56.092951727278994" lon="22.12436521214022"><ele>132.5</ele><time>2026-04-18T15:24:13Z</time></trkpt><trkpt lat="56.09285110392577" lon="22.124392377616257"><ele>132.33333333333334</ele><time>2026-04-18T15:24:14Z</time></trkpt><trkpt lat="56.092757881619846" lon="22.1243954873235"><ele>132.16666666666666</ele><time>2026-04-18T15:24:15Z</time></trkpt><trkpt lat="56.09268265817085" lon="22.124377002870133"><ele>132.0</ele><time>2026-04-18T15:24:16Z</time></trkpt><trkpt lat="56.09261567859821" lon="22.124351845301735"><ele>132.0</ele><time>2026-04-18T15:24:17Z</time></trkpt><trkpt lat="56.09253581643628" lon="22.124308603500072"><ele>132.0</ele><time>2026-04-18T15:24:18Z</time></trkpt><trkpt lat="56.09246156470147" lon="22.12425807549135"><ele>132.0</ele><time>2026-04-18T15:24:19Z</time></trkpt><trkpt lat="56.09239989919117" lon="22.12423009141421"><ele>132.0</ele><time>2026-04-18T15:24:20Z</time></trkpt><trkpt lat="56.09228116074116" lon="22.124263209008056"><ele>132.0</ele><time>2026-04-18T15:24:22Z</time></trkpt><trkpt lat="56.09221950023584" lon="22.124330352706195"><ele>132.0</ele><time>2026-04-18T15:24:23Z</time></trkpt><trkpt lat="56.092168860603586" lon="22.1244503414306"><ele>132.0</ele><time>2026-04-18T15:24:24Z</time></trkpt><trkpt lat="56.09211156718365" lon="22.12457909153406"><ele>132.0</ele><time>2026-04-18T15:24:25Z</time></trkpt><trkpt lat="56.09205557523832" lon="22.12469435238392"><ele>132.0</ele><time>2026-04-18T15:24:26Z</time></trkpt><trkpt lat="56.091993407881915" lon="22.124794143541166"><ele>132.0</ele><time>2026-04-18T15:24:27Z</time></trkpt><trkpt lat="56.09192514254058" lon="22.124864061795588"><ele>132.0</ele><time>2026-04-18T15:24:28Z</time></trkpt><trkpt lat="56.09185457007922" lon="22.12493122268885"><ele>132.0</ele><time>2026-04-18T15:24:29Z</time></trkpt><trkpt lat="56.09178575634005" lon="22.125001222022856"><ele>132.0</ele><time>2026-04-18T15:24:30Z</time></trkpt><trkpt lat="56.09172892734512" lon="22.125054877840526"><ele>132.0</ele><time>2026-04-18T15:24:31Z</time></trkpt><trkpt lat="56.09164947395049" lon="22.125155157235017"><ele>132.0</ele><time>2026-04-18T15:24:33Z</time></trkpt><trkpt lat="56.09156304088439" lon="22.125148288854174"><ele>132.0</ele><time>2026-04-18T15:24:43Z</time></trkpt><trkpt lat="56.09146713322049" lon="22.125068608069828"><ele>132.0</ele><time>2026-04-18T15:24:45Z</time></trkpt><trkpt lat="56.091397053489516" lon="22.124968102346724"><ele>132.0</ele><time>2026-04-18T15:24:48Z</time></trkpt><trkpt lat="56.09133405122522" lon="22.124817545584495"><ele>131.28571428571428</ele><time>2026-04-18T15:24:50Z</time></trkpt><trkpt lat="56.091302446510774" lon="22.124717925179127"><ele>130.57142857142858</ele><time>2026-04-18T15:24:51Z</time></trkpt><trkpt lat="56.09127754191481" lon="22.124597943461012"><ele>129.85714285714286</ele><time>2026-04-18T15:24:52Z</time></trkpt><trkpt lat="56.09125680227412" lon="22.124487539247685"><ele>129.14285714285714</ele><time>2026-04-18T15:24:53Z</time></trkpt><trkpt lat="56.09124337816977" lon="22.124360352863203"><ele>128.42857142857142</ele><time>2026-04-18T15:24:54Z</time></trkpt><trkpt lat="56.09123660636465" lon="22.12422164570187"><ele>127.71428571428572</ele><time>2026-04-18T15:24:55Z</time></trkpt><trkpt lat="56.09123991149087" lon="22.124062371231915"><ele>127.0</ele><time>2026-04-18T15:24:56Z</time></trkpt><trkpt lat="56.09124286816534" lon="22.12389615387"><ele>126.66666666666667</ele><time>2026-04-18T15:24:57Z</time></trkpt><trkpt lat="56.09124936985305" lon="22.123731794663243"><ele>126.33333333333334</ele><time>2026-04-18T15:24:58Z</time></trkpt><trkpt lat="56.09125077240142" lon="22.12357152721284"><ele>126.0</ele><time>2026-04-18T15:24:59Z</time></trkpt><trkpt lat="56.09124193912559" lon="22.12342976102923"><ele>125.66666666666666</ele><time>2026-04-18T15:25:00Z</time></trkpt><trkpt lat="56.091224791944185" lon="22.123291168936383"><ele>125.33333333333333</ele><time>2026-04-18T15:25:01Z</time></trkpt><trkpt lat="56.091198884698436" lon="22.123157437796007"><ele>125.0</ele><time>2026-04-18T15:25:02Z</time></trkpt><trkpt lat="56.09117354320826" lon="22.123007526499137"><ele>124.99999999999999</ele><time>2026-04-18T15:25:03Z</time></trkpt><trkpt lat="56.091147871685315" lon="22.122856211579343"><ele>125.0</ele><time>2026-04-18T15:25:04Z</time></trkpt><trkpt lat="56.091129976299094" lon="22.122708003826318"><ele>125.0</ele><time>2026-04-18T15:25:05Z</time></trkpt><trkpt lat="56.09110871993846" lon="22.122585662803832"><ele>125.0</ele><time>2026-04-18T15:25:06Z</time></trkpt><trkpt lat="56.0910857135447" lon="22.122468326752834"><ele>124.99999999999999</ele><time>2026-04-18T15:25:07Z</time></trkpt><trkpt lat="56.091038264528244" lon="22.122377568430768"><ele>125.0</ele><time>2026-04-18T15:25:08Z</time></trkpt><trkpt lat="56.090984029134354" lon="22.12229109244191"><ele>125.16666666666666</ele><time>2026-04-18T15:25:09Z</time></trkpt><trkpt lat="56.090916944261835" lon="22.12220989370563"><ele>125.33333333333333</ele><time>2026-04-18T15:25:10Z</time></trkpt><trkpt lat="56.09083301494192" lon="22.12213776816211"><ele>125.5</ele><time>2026-04-18T15:25:11Z</time></trkpt><trkpt lat="56.090752585947065" lon="22.122073999828352"><ele>125.66666666666666</ele><time>2026-04-18T15:25:12Z</time></trkpt><trkpt lat="56.090686165565074" lon="22.1220169023148"><ele>125.83333333333333</ele><time>2026-04-18T15:25:13Z</time></trkpt><trkpt lat="56.09061817384681" lon="22.12193196371562"><ele>126.0</ele><time>2026-04-18T15:25:14Z</time></trkpt><trkpt lat="56.0905586081856" lon="22.12183702915285"><ele>126.0</ele><time>2026-04-18T15:25:15Z</time></trkpt><trkpt lat="56.0904751730234" lon="22.12168784849365"><ele>126.0</ele><time>2026-04-18T15:25:16Z</time></trkpt><trkpt lat="56.090397515300026" lon="22.121496573831866"><ele>126.0</ele><time>2026-04-18T15:25:17Z</time></trkpt><trkpt lat="56.09034362117858" lon="22.121309019528145"><ele>126.0</ele><time>2026-04-18T15:25:18Z</time></trkpt><trkpt lat="56.09030548933957" lon="22.12116345125154"><ele>127.0</ele><time>2026-04-18T15:25:19Z</time></trkpt><trkpt lat="56.090290461457926" lon="22.121006514030274"><ele>128.0</ele><time>2026-04-18T15:25:21Z</time></trkpt><trkpt lat="56.09030190397466" lon="22.12084750039739"><ele>129.0</ele><time>2026-04-18T15:25:22Z</time></trkpt><trkpt lat="56.09031929702016" lon="22.120700777863508"><ele>130.0</ele><time>2026-04-18T15:25:23Z</time></trkpt><trkpt lat="56.090329123374964" lon="22.12056712880013"><ele>131.0</ele><time>2026-04-18T15:25:24Z</time></trkpt><trkpt lat="56.09034126398117" lon="22.120410957359745"><ele>132.0</ele><time>2026-04-18T15:25:25Z</time></trkpt><trkpt lat="56.09036599580196" lon="22.120284257132024"><ele>132.83333333333334</ele><time>2026-04-18T15:25:26Z</time></trkpt><trkpt lat="56.09039219246392" lon="22.120154307354998"><ele>133.66666666666666</ele><time>2026-04-18T15:25:27Z</time></trkpt><trkpt lat="56.09041894735641" lon="22.120032711932893"><ele>134.5</ele><time>2026-04-18T15:25:28Z</time></trkpt><trkpt lat="56.090444579661195" lon="22.119880194962736"><ele>135.33333333333331</ele><time>2026-04-18T15:25:29Z</time></trkpt><trkpt lat="56.09045736182519" lon="22.119704232643784"><ele>136.16666666666666</ele><time>2026-04-18T15:25:30Z</time></trkpt><trkpt lat="56.090469496956786" lon="22.119523149837434"><ele>137.0</ele><time>2026-04-18T15:25:31Z</time></trkpt><trkpt lat="56.090477859268375" lon="22.11935962146181"><ele>137.0</ele><time>2026-04-18T15:25:32Z</time></trkpt><trkpt lat="56.090540577537254" lon="22.119137492960416"><ele>137.0</ele><time>2026-04-18T15:25:34Z</time></trkpt><trkpt lat="56.09059317207719" lon="22.119031074040716"><ele>137.0</ele><time>2026-04-18T15:25:35Z</time></trkpt><trkpt lat="56.09067100666251" lon="22.11893413648086"><ele>137.0</ele><time>2026-04-18T15:25:36Z</time></trkpt><trkpt lat="56.09074982767578" lon="22.118870012324436"><ele>137.0</ele><time>2026-04-18T15:25:37Z</time></trkpt><trkpt lat="56.090841851016854" lon="22.118803078634002"><ele>136.5</ele><time>2026-04-18T15:25:38Z</time></trkpt><trkpt lat="56.09091414219224" lon="22.118746797446057"><ele>136.0</ele><time>2026-04-18T15:25:39Z</time></trkpt><trkpt lat="56.09098176550315" lon="22.118687029534275"><ele>135.5</ele><time>2026-04-18T15:25:40Z</time></trkpt><trkpt lat="56.09104426779335" lon="22.118612544174727"><ele>135.0</ele><time>2026-04-18T15:25:41Z</time></trkpt><trkpt lat="56.091121250869556" lon="22.118478705109926"><ele>134.5</ele><time>2026-04-18T15:25:43Z</time></trkpt><trkpt lat="56.09116593858552" lon="22.11839480015737"><ele>134.0</ele><time>2026-04-18T15:25:44Z</time></trkpt><trkpt lat="56.0912030902992" lon="22.11829655534447"><ele>133.66666666666666</ele><time>2026-04-18T15:25:45Z</time></trkpt><trkpt lat="56.09123984462287" lon="22.118195512333862"><ele>133.33333333333331</ele><time>2026-04-18T15:25:46Z</time></trkpt><trkpt lat="56.09128091093925" lon="22.118102402563085"><ele>133.0</ele><time>2026-04-18T15:25:47Z</time></trkpt><trkpt lat="56.091378870571546" lon="22.117936630328348"><ele>132.66666666666666</ele><time>2026-04-18T15:25:49Z</time></trkpt><trkpt lat="56.09143903929592" lon="22.117837206326335"><ele>132.33333333333334</ele><time>2026-04-18T15:25:50Z</time></trkpt><trkpt lat="56.09150233864551" lon="22.117723870668588"><ele>132.0</ele><time>2026-04-18T15:25:51Z</time></trkpt><trkpt lat="56.091553802546265" lon="22.117627029023645"><ele>131.6</ele><time>2026-04-18T15:25:52Z</time></trkpt><trkpt lat="56.09164262161483" lon="22.117500101370695"><ele>131.2</ele><time>2026-04-18T15:25:54Z</time></trkpt><trkpt lat="56.09171946856992" lon="22.117316189646665"><ele>130.8</ele><time>2026-04-18T15:25:56Z</time></trkpt><trkpt lat="56.09175471182242" lon="22.117210762931204"><ele>130.4</ele><time>2026-04-18T15:25:57Z</time></trkpt><trkpt lat="56.09179993116668" lon="22.117029073694084"><ele>130.0</ele><time>2026-04-18T15:25:59Z</time></trkpt><trkpt lat="56.09182771694486" lon="22.116924421725006"><ele>129.2</ele><time>2026-04-18T15:26:00Z</time></trkpt><trkpt lat="56.091856545931954" lon="22.116708593571808"><ele>128.4</ele><time>2026-04-18T15:26:02Z</time></trkpt><trkpt lat="56.091859881186494" lon="22.116521960943302"><ele>127.6</ele><time>2026-04-18T15:26:04Z</time></trkpt><trkpt lat="56.09182372886653" lon="22.11634519831012"><ele>126.8</ele><time>2026-04-18T15:26:06Z</time></trkpt><trkpt lat="56.091784714572675" lon="22.116254011294277"><ele>126.0</ele><time>2026-04-18T15:26:07Z</time></trkpt><trkpt lat="56.09173124106968" lon="22.11618163571566"><ele>126.0</ele><time>2026-04-18T15:26:08Z</time></trkpt><trkpt lat="56.091644025438775" lon="22.116086030134127"><ele>126.0</ele><time>2026-04-18T15:26:09Z</time></trkpt><trkpt lat="56.09154952529539" lon="22.116007076729314"><ele>126.0</ele><time>2026-04-18T15:26:10Z</time></trkpt><trkpt lat="56.09149350873581" lon="22.11593230277127"><ele>126.0</ele><time>2026-04-18T15:26:11Z</time></trkpt><trkpt lat="56.09145112166851" lon="22.115843625814772"><ele>126.0</ele><time>2026-04-18T15:26:12Z</time></trkpt><trkpt lat="56.09140726486303" lon="22.115742687100845"><ele>126.0</ele><time>2026-04-18T15:26:13Z</time></trkpt><trkpt lat="56.09136374276304" lon="22.11562257456245"><ele>127.33333333333333</ele><time>2026-04-18T15:26:14Z</time></trkpt><trkpt lat="56.091315911559704" lon="22.1154864819488"><ele>128.66666666666666</ele><time>2026-04-18T15:26:15Z</time></trkpt><trkpt lat="56.09128317523182" lon="22.115377045594098"><ele>130.0</ele><time>2026-04-18T15:26:16Z</time></trkpt><trkpt lat="56.09127382554476" lon="22.115257339359083"><ele>131.33333333333331</ele><time>2026-04-18T15:26:17Z</time></trkpt><trkpt lat="56.09128832575987" lon="22.115129695412136"><ele>132.66666666666666</ele><time>2026-04-18T15:26:18Z</time></trkpt><trkpt lat="56.09130911771658" lon="22.11498315705373"><ele>134.0</ele><time>2026-04-18T15:26:19Z</time></trkpt><trkpt lat="56.09131854288329" lon="22.114830107042202"><ele>134.0</ele><time>2026-04-18T15:26:20Z</time></trkpt><trkpt lat="56.091333475277864" lon="22.114684539280116"><ele>134.0</ele><time>2026-04-18T15:26:21Z</time></trkpt><trkpt lat="56.091321577187735" lon="22.11455668904585"><ele>134.0</ele><time>2026-04-18T15:26:22Z</time></trkpt><trkpt lat="56.091296318792125" lon="22.114434552130714"><ele>134.0</ele><time>2026-04-18T15:26:23Z</time></trkpt><trkpt lat="56.091258360948046" lon="22.114285877109975"><ele>134.0</ele><time>2026-04-18T15:26:24Z</time></trkpt><trkpt lat="56.091227668232825" lon="22.114138306521628"><ele>134.0</ele><time>2026-04-18T15:26:25Z</time></trkpt><trkpt lat="56.091211417979345" lon="22.114001978759994"><ele>133.6</ele><time>2026-04-18T15:26:26Z</time></trkpt><trkpt lat="56.091211984113144" lon="22.11376376889015"><ele>133.2</ele><time>2026-04-18T15:26:28Z</time></trkpt><trkpt lat="56.09121711932902" lon="22.11361888364264"><ele>132.79999999999998</ele><time>2026-04-18T15:26:29Z</time></trkpt><trkpt lat="56.09123278941241" lon="22.11347851165207"><ele>132.4</ele><time>2026-04-18T15:26:30Z</time></trkpt><trkpt lat="56.09125742965293" lon="22.113347184055666"><ele>132.0</ele><time>2026-04-18T15:26:31Z</time></trkpt><trkpt lat="56.091289865050186" lon="22.113207272826525"><ele>131.5</ele><time>2026-04-18T15:26:32Z</time></trkpt><trkpt lat="56.091315850927245" lon="22.11308676214238"><ele>131.0</ele><time>2026-04-18T15:26:33.001Z</time></trkpt><trkpt lat="56.09134757165839" lon="22.11294670749533"><ele>130.5</ele><time>2026-04-18T15:26:34Z</time></trkpt><trkpt lat="56.091370000038545" lon="22.112791278580872"><ele>130.0</ele><time>2026-04-18T15:26:35Z</time></trkpt><trkpt lat="56.09139281106701" lon="22.112572933827884"><ele>129.5</ele><time>2026-04-18T15:26:37Z</time></trkpt><trkpt lat="56.091401223081924" lon="22.1124475821648"><ele>129.0</ele><time>2026-04-18T15:26:38Z</time></trkpt><trkpt lat="56.09141161660181" lon="22.11227756828496"><ele>128.75</ele><time>2026-04-18T15:26:39Z</time></trkpt><trkpt lat="56.091441104677365" lon="22.112057529936347"><ele>128.5</ele><time>2026-04-18T15:26:40Z</time></trkpt><trkpt lat="56.09148766925294" lon="22.11183876106576"><ele>128.25</ele><time>2026-04-18T15:26:41Z</time></trkpt><trkpt lat="56.091547442279484" lon="22.11159110944121"><ele>128.0</ele><time>2026-04-18T15:26:42Z</time></trkpt><trkpt lat="56.09158432389755" lon="22.11136915516674"><ele>128.4</ele><time>2026-04-18T15:26:43Z</time></trkpt><trkpt lat="56.09161675583374" lon="22.11118754503763"><ele>128.8</ele><time>2026-04-18T15:26:44Z</time></trkpt><trkpt lat="56.09165364602838" lon="22.111002029407707"><ele>129.2</ele><time>2026-04-18T15:26:45Z</time></trkpt><trkpt lat="56.09168702853501" lon="22.11083406214621"><ele>129.6</ele><time>2026-04-18T15:26:46Z</time></trkpt><trkpt lat="56.09171916391533" lon="22.1107001471127"><ele>130.0</ele><time>2026-04-18T15:26:47Z</time></trkpt><trkpt lat="56.09174649373787" lon="22.11057874813455"><ele>130.2</ele><time>2026-04-18T15:26:48Z</time></trkpt><trkpt lat="56.09175851579279" lon="22.110449205025205"><ele>130.4</ele><time>2026-04-18T15:26:49Z</time></trkpt><trkpt lat="56.09176367380519" lon="22.110280735315335"><ele>130.6</ele><time>2026-04-18T15:26:50Z</time></trkpt><trkpt lat="56.09176624336338" lon="22.110095097119775"><ele>130.8</ele><time>2026-04-18T15:26:51Z</time></trkpt><trkpt lat="56.0917677267158" lon="22.109888012797725"><ele>131.0</ele><time>2026-04-18T15:26:52Z</time></trkpt><trkpt lat="56.09177156930923" lon="22.10968098225539"><ele>131.0</ele><time>2026-04-18T15:26:53Z</time></trkpt><trkpt lat="56.091777625930504" lon="22.109482835749123"><ele>131.0</ele><time>2026-04-18T15:26:54Z</time></trkpt><trkpt lat="56.09178726318099" lon="22.109306271737612"><ele>131.0</ele><time>2026-04-18T15:26:55Z</time></trkpt><trkpt lat="56.09179003826707" lon="22.10915480261225"><ele>131.0</ele><time>2026-04-18T15:26:56Z</time></trkpt><trkpt lat="56.09178184197237" lon="22.108973879713915"><ele>131.0</ele><time>2026-04-18T15:26:57Z</time></trkpt><trkpt lat="56.09175063820275" lon="22.108789965533838"><ele>130.8</ele><time>2026-04-18T15:26:58Z</time></trkpt><trkpt lat="56.09170974185181" lon="22.108601195970586"><ele>130.6</ele><time>2026-04-18T15:26:59Z</time></trkpt><trkpt lat="56.09167205732339" lon="22.108417938854544"><ele>130.4</ele><time>2026-04-18T15:27:00Z</time></trkpt><trkpt lat="56.09164056592329" lon="22.10823252034115"><ele>130.2</ele><time>2026-04-18T15:27:01Z</time></trkpt><trkpt lat="56.09159772468221" lon="22.108062525314644"><ele>130.0</ele><time>2026-04-18T15:27:02Z</time></trkpt><trkpt lat="56.09154486784401" lon="22.10789661950062"><ele>130.0</ele><time>2026-04-18T15:27:03Z</time></trkpt><trkpt lat="56.0914729321932" lon="22.107719946922984"><ele>130.0</ele><time>2026-04-18T15:27:04Z</time></trkpt><trkpt lat="56.09139556447793" lon="22.107501494958715"><ele>130.0</ele><time>2026-04-18T15:27:05Z</time></trkpt><trkpt lat="56.09133087036782" lon="22.107296586454897"><ele>130.0</ele><time>2026-04-18T15:27:06Z</time></trkpt><trkpt lat="56.09129159829696" lon="22.10715379958219"><ele>130.0</ele><time>2026-04-18T15:27:07Z</time></trkpt><trkpt lat="56.09123660660963" lon="22.10703837422602"><ele>130.0</ele><time>2026-04-18T15:27:08Z</time></trkpt><trkpt lat="56.091196036284124" lon="22.10693663813905"><ele>130.0</ele><time>2026-04-18T15:27:09Z</time></trkpt><trkpt lat="56.09112390449062" lon="22.10678370408485"><ele>130.0</ele><time>2026-04-18T15:27:11Z</time></trkpt><trkpt lat="56.0910763974063" lon="22.106673365793156"><ele>130.0</ele><time>2026-04-18T15:27:13Z</time></trkpt><trkpt lat="56.09103501352154" lon="22.10655631604739"><ele>130.0</ele><time>2026-04-18T15:27:15Z</time></trkpt><trkpt lat="56.090987239455664" lon="22.106340287894664"><ele>130.0</ele><time>2026-04-18T15:27:17Z</time></trkpt><trkpt lat="56.09097728711233" lon="22.106221087359092"><ele>130.0</ele><time>2026-04-18T15:27:18Z</time></trkpt><trkpt lat="56.0909587870955" lon="22.10607636767883"><ele>130.0</ele><time>2026-04-18T15:27:20Z</time></trkpt><trkpt lat="56.09094108939869" lon="22.105935983847775"><ele>130.0</ele><time>2026-04-18T15:27:22Z</time></trkpt><trkpt lat="56.090928537315655" lon="22.105776418266927"><ele>130.0</ele><time>2026-04-18T15:27:25Z</time></trkpt><trkpt lat="56.090948222974724" lon="22.105597486129287"><ele>130.0</ele><time>2026-04-18T15:27:27Z</time></trkpt><trkpt lat="56.09100268558555" lon="22.105445082140122"><ele>130.0</ele><time>2026-04-18T15:27:29Z</time></trkpt><trkpt lat="56.091056595872296" lon="22.105299250894014"><ele>130.0</ele><time>2026-04-18T15:27:31Z</time></trkpt><trkpt lat="56.09112592220026" lon="22.105109767998975"><ele>130.0</ele><time>2026-04-18T15:27:33Z</time></trkpt><trkpt lat="56.091195748304614" lon="22.10492791502574"><ele>130.0</ele><time>2026-04-18T15:27:35Z</time></trkpt><trkpt lat="56.09126920951953" lon="22.104732774544022"><ele>129.71428571428572</ele><time>2026-04-18T15:27:37Z</time></trkpt><trkpt lat="56.09130537241673" lon="22.104620178154686"><ele>129.42857142857144</ele><time>2026-04-18T15:27:38Z</time></trkpt><trkpt lat="56.091341021896405" lon="22.104500481000333"><ele>129.14285714285714</ele><time>2026-04-18T15:27:39Z</time></trkpt><trkpt lat="56.09137523846248" lon="22.104394692292683"><ele>128.85714285714286</ele><time>2026-04-18T15:27:40Z</time></trkpt><trkpt lat="56.091408195094814" lon="22.104282883714127"><ele>128.57142857142856</ele><time>2026-04-18T15:27:41Z</time></trkpt><trkpt lat="56.09144071794776" lon="22.1041849782416"><ele>128.28571428571428</ele><time>2026-04-18T15:27:42Z</time></trkpt><trkpt lat="56.09147197770997" lon="22.10408142515612"><ele>128.0</ele><time>2026-04-18T15:27:43Z</time></trkpt><trkpt lat="56.09150449738891" lon="22.10397716825199"><ele>127.66666666666666</ele><time>2026-04-18T15:27:44Z</time></trkpt><trkpt lat="56.09153754562831" lon="22.103873072442795"><ele>127.33333333333333</ele><time>2026-04-18T15:27:45Z</time></trkpt><trkpt lat="56.09157080629352" lon="22.103775357520444"><ele>127.0</ele><time>2026-04-18T15:27:46Z</time></trkpt><trkpt lat="56.09162367695906" lon="22.103633781109195"><ele>126.66666666666666</ele><time>2026-04-18T15:27:48Z</time></trkpt><trkpt lat="56.091664678307446" lon="22.103522270066996"><ele>126.33333333333333</ele><time>2026-04-18T15:27:51Z</time></trkpt><trkpt lat="56.091597420709626" lon="22.103383089703744"><ele>126.0</ele><time>2026-04-18T15:27:55Z</time></trkpt><trkpt lat="56.091528816923926" lon="22.10336590198632"><ele>126.0</ele><time>2026-04-18T15:27:56.001Z</time></trkpt><trkpt lat="56.09144955908942" lon="22.10329412695412"><ele>126.0</ele><time>2026-04-18T15:27:58.001Z</time></trkpt><trkpt lat="56.09134696306388" lon="22.103217256559617"><ele>126.0</ele><time>2026-04-18T15:28:00.001Z</time></trkpt><trkpt lat="56.09124101346207" lon="22.103126640216814"><ele>126.0</ele><time>2026-04-18T15:28:02.001Z</time></trkpt><trkpt lat="56.09114565441822" lon="22.103006047916935"><ele>126.0</ele><time>2026-04-18T15:28:04.001Z</time></trkpt><trkpt lat="56.091090282906904" lon="22.10294770039167"><ele>126.0</ele><time>2026-04-18T15:28:05.001Z</time></trkpt><trkpt lat="56.090988952539135" lon="22.102916532628154"><ele>126.0</ele><time>2026-04-18T15:28:07.001Z</time></trkpt><trkpt lat="56.090896786515515" lon="22.102837961730074"><ele>126.0</ele><time>2026-04-18T15:28:09.001Z</time></trkpt><trkpt lat="56.09078502540217" lon="22.102830530057147"><ele>126.0</ele><time>2026-04-18T15:28:11.001Z</time></trkpt><trkpt lat="56.09066869679891" lon="22.102948727817694"><ele>126.0</ele><time>2026-04-18T15:28:13.001Z</time></trkpt><trkpt lat="56.0906156818632" lon="22.10302747864416"><ele>126.0</ele><time>2026-04-18T15:28:14.001Z</time></trkpt><trkpt lat="56.09050437296073" lon="22.103100848102965"><ele>126.0</ele><time>2026-04-18T15:28:16.001Z</time></trkpt><trkpt lat="56.090387653645756" lon="22.103087159416816"><ele>126.0</ele><time>2026-04-18T15:28:18.001Z</time></trkpt><trkpt lat="56.090270076446814" lon="22.103131812239475"><ele>126.0</ele><time>2026-04-18T15:28:20.001Z</time></trkpt><trkpt lat="56.09018625851171" lon="22.10318164736166"><ele>126.0</ele><time>2026-04-18T15:28:22.001Z</time></trkpt><trkpt lat="56.090104761468325" lon="22.103194819310456"><ele>126.0</ele><time>2026-04-18T15:28:24.001Z</time></trkpt><trkpt lat="56.08997914089212" lon="22.10315949708061"><ele>126.0</ele><time>2026-04-18T15:28:26.001Z</time></trkpt><trkpt lat="56.08986955903495" lon="22.10310708087766"><ele>126.0</ele><time>2026-04-18T15:28:28.001Z</time></trkpt><trkpt lat="56.08980722859047" lon="22.10305981279575"><ele>126.0</ele><time>2026-04-18T15:28:29.001Z</time></trkpt><trkpt lat="56.08970125414599" lon="22.10298172863794"><ele>126.6</ele><time>2026-04-18T15:28:31.001Z</time></trkpt><trkpt lat="56.08964161902853" lon="22.10293084383757"><ele>127.19999999999999</ele><time>2026-04-18T15:28:32.001Z</time></trkpt><trkpt lat="56.0895500795885" lon="22.102821902154272"><ele>127.80000000000001</ele><time>2026-04-18T15:28:34.001Z</time></trkpt><trkpt lat="56.089451845026524" lon="22.10271610552189"><ele>128.4</ele><time>2026-04-18T15:28:36.001Z</time></trkpt><trkpt lat="56.089372790013726" lon="22.102642580722474"><ele>129.0</ele><time>2026-04-18T15:28:38.001Z</time></trkpt><trkpt lat="56.089310844268226" lon="22.10251698593418"><ele>129.0</ele><time>2026-04-18T15:28:40.001Z</time></trkpt><trkpt lat="56.08923514345381" lon="22.10240625277187"><ele>129.0</ele><time>2026-04-18T15:28:42.001Z</time></trkpt><trkpt lat="56.08914437100216" lon="22.10236992679767"><ele>129.0</ele><time>2026-04-18T15:28:44.001Z</time></trkpt><trkpt lat="56.08904871261197" lon="22.102384607276022"><ele>129.0</ele><time>2026-04-18T15:28:46.001Z</time></trkpt><trkpt lat="56.08898412164594" lon="22.102396691309014"><ele>129.0</ele><time>2026-04-18T15:28:47.001Z</time></trkpt><trkpt lat="56.088897134933525" lon="22.10236994033181"><ele>129.0</ele><time>2026-04-18T15:28:49.001Z</time></trkpt><trkpt lat="56.08881015214728" lon="22.10238053108089"><ele>128.8</ele><time>2026-04-18T15:28:51.001Z</time></trkpt><trkpt lat="56.08871550400588" lon="22.102399004652113"><ele>128.60000000000002</ele><time>2026-04-18T15:28:53.001Z</time></trkpt><trkpt lat="56.08865004295033" lon="22.102404881747276"><ele>128.4</ele><time>2026-04-18T15:28:55.001Z</time></trkpt><trkpt lat="56.08855234588293" lon="22.102488277280454"><ele>128.20000000000002</ele><time>2026-04-18T15:28:57.001Z</time></trkpt><trkpt lat="56.088467024334435" lon="22.10256975599634"><ele>128.0</ele><time>2026-04-18T15:28:59.001Z</time></trkpt><trkpt lat="56.088381874236866" lon="22.10260504019748"><ele>127.99999999999999</ele><time>2026-04-18T15:29:01.001Z</time></trkpt><trkpt lat="56.08831126748152" lon="22.102619208793147"><ele>128.0</ele><time>2026-04-18T15:29:03.001Z</time></trkpt><trkpt lat="56.088217817219125" lon="22.10262531575987"><ele>128.0</ele><time>2026-04-18T15:29:06.001Z</time></trkpt><trkpt lat="56.08815275159544" lon="22.10255160499059"><ele>128.0</ele><time>2026-04-18T15:29:13Z</time></trkpt><trkpt lat="56.088208423268284" lon="22.10242347593028"><ele>127.99999999999999</ele><time>2026-04-18T15:29:24Z</time></trkpt><trkpt lat="56.088241683961606" lon="22.102311834942547"><ele>128.0</ele><time>2026-04-18T15:29:27Z</time></trkpt><trkpt lat="56.08828665593296" lon="22.102176149804336"><ele>127.66666666666666</ele><time>2026-04-18T15:29:29Z</time></trkpt><trkpt lat="56.08830879323731" lon="22.102068177407393"><ele>127.33333333333333</ele><time>2026-04-18T15:29:31Z</time></trkpt><trkpt lat="56.08836288979667" lon="22.101914200661824"><ele>127.0</ele><time>2026-04-18T15:29:34Z</time></trkpt><trkpt lat="56.08841034224721" lon="22.10176288146912"><ele>126.66666666666666</ele><time>2026-04-18T15:29:37Z</time></trkpt><trkpt lat="56.08843824905779" lon="22.101642479622093"><ele>126.33333333333333</ele><time>2026-04-18T15:29:39Z</time></trkpt><trkpt lat="56.08848550482309" lon="22.101528683097964"><ele>126.0</ele><time>2026-04-18T15:29:41Z</time></trkpt><trkpt lat="56.08852601448613" lon="22.10138133619871"><ele>125.5</ele><time>2026-04-18T15:29:44Z</time></trkpt><trkpt lat="56.08856405504939" lon="22.101276686178508"><ele>125.0</ele><time>2026-04-18T15:29:46Z</time></trkpt><trkpt lat="56.08860671791686" lon="22.101158691475117"><ele>124.5</ele><time>2026-04-18T15:29:49Z</time></trkpt><trkpt lat="56.08864765660913" lon="22.101048774166326"><ele>124.0</ele><time>2026-04-18T15:29:53Z</time></trkpt><trkpt lat="56.08862143653341" lon="22.10091410346974"><ele>123.5</ele><time>2026-04-18T15:29:56Z</time></trkpt><trkpt lat="56.088563610333196" lon="22.100831525363034"><ele>123.0</ele><time>2026-04-18T15:29:59Z</time></trkpt><trkpt lat="56.08849491129694" lon="22.100744065989332"><ele>122.5</ele><time>2026-04-18T15:30:03.001Z</time></trkpt><trkpt lat="56.08844486094942" lon="22.10067364192069"><ele>122.0</ele><time>2026-04-18T15:30:07.001Z</time></trkpt><trkpt lat="56.088399310611074" lon="22.100545961461325"><ele>121.5</ele><time>2026-04-18T15:30:11.001Z</time></trkpt><trkpt lat="56.088381809264035" lon="22.100427171695245"><ele>121.0</ele><time>2026-04-18T15:30:16.001Z</time></trkpt><trkpt lat="56.08843077207385" lon="22.100290665675246"><ele>120.5</ele><time>2026-04-18T15:30:37.001Z</time></trkpt><trkpt lat="56.08846217696863" lon="22.100129194403316"><ele>120.0</ele><time>2026-04-18T15:30:39.001Z</time></trkpt><trkpt lat="56.088470477339094" lon="22.0999971978165"><ele>119.83333333333333</ele><time>2026-04-18T15:30:41.001Z</time></trkpt><trkpt lat="56.08846537266041" lon="22.099846598640177"><ele>119.66666666666666</ele><time>2026-04-18T15:30:43.001Z</time></trkpt><trkpt lat="56.08844698304716" lon="22.099726774167475"><ele>119.5</ele><time>2026-04-18T15:30:45Z</time></trkpt><trkpt lat="56.08836055118642" lon="22.099667431037293"><ele>119.33333333333333</ele><time>2026-04-18T15:30:47Z</time></trkpt><trkpt lat="56.0882581881535" lon="22.09963469811738"><ele>119.16666666666666</ele><time>2026-04-18T15:30:49Z</time></trkpt><trkpt lat="56.08816547655522" lon="22.099610095639857"><ele>119.0</ele><time>2026-04-18T15:30:51Z</time></trkpt><trkpt lat="56.088060014569635" lon="22.09958636393324"><ele>118.99999999999999</ele><time>2026-04-18T15:30:53Z</time></trkpt><trkpt lat="56.087983650919355" lon="22.099569158090887"><ele>119.0</ele><time>2026-04-18T15:30:54Z</time></trkpt><trkpt lat="56.087888381181514" lon="22.099565534832248"><ele>119.0</ele><time>2026-04-18T15:30:55Z</time></trkpt><trkpt lat="56.087797036419836" lon="22.099553911463104"><ele>119.0</ele><time>2026-04-18T15:30:56Z</time></trkpt><trkpt lat="56.08771355383318" lon="22.09954541808447"><ele>118.99999999999999</ele><time>2026-04-18T15:30:57Z</time></trkpt><trkpt lat="56.08762193184336" lon="22.099537963923794"><ele>119.0</ele><time>2026-04-18T15:30:58Z</time></trkpt><trkpt lat="56.08752921138911" lon="22.099526359534647"><ele>118.99999999999999</ele><time>2026-04-18T15:30:59Z</time></trkpt><trkpt lat="56.08745653495929" lon="22.099511604701544"><ele>119.0</ele><time>2026-04-18T15:31:00Z</time></trkpt><trkpt lat="56.08737928837622" lon="22.09948790210065"><ele>119.0</ele><time>2026-04-18T15:31:01Z</time></trkpt><trkpt lat="56.087307483889816" lon="22.099467234198464"><ele>119.0</ele><time>2026-04-18T15:31:02Z</time></trkpt><trkpt lat="56.08724305028742" lon="22.09945179817044"><ele>118.99999999999999</ele><time>2026-04-18T15:31:03Z</time></trkpt><trkpt lat="56.08716189422277" lon="22.099439591419088"><ele>119.0</ele><time>2026-04-18T15:31:04Z</time></trkpt><trkpt lat="56.08708141643648" lon="22.0994333894486"><ele>118.49999999999999</ele><time>2026-04-18T15:31:05Z</time></trkpt><trkpt lat="56.0870041498812" lon="22.09942031442427"><ele>118.0</ele><time>2026-04-18T15:31:06Z</time></trkpt><trkpt lat="56.08691515664735" lon="22.099403015750163"><ele>117.5</ele><time>2026-04-18T15:31:08Z</time></trkpt><trkpt lat="56.086818754173706" lon="22.09939305779298"><ele>117.0</ele><time>2026-04-18T15:31:10Z</time></trkpt><trkpt lat="56.08675605826443" lon="22.09937697299689"><ele>116.49999999999999</ele><time>2026-04-18T15:31:11Z</time></trkpt><trkpt lat="56.08669026885214" lon="22.099366768391523"><ele>116.0</ele><time>2026-04-18T15:31:12Z</time></trkpt><trkpt lat="56.08662264770232" lon="22.099356551692352"><ele>116.2857142857143</ele><time>2026-04-18T15:31:13Z</time></trkpt><trkpt lat="56.08655639329135" lon="22.099347831309736"><ele>116.57142857142858</ele><time>2026-04-18T15:31:14Z</time></trkpt><trkpt lat="56.0864852405784" lon="22.09933771015634"><ele>116.85714285714286</ele><time>2026-04-18T15:31:15Z</time></trkpt><trkpt lat="56.08640926014795" lon="22.09932563215634"><ele>117.14285714285715</ele><time>2026-04-18T15:31:16Z</time></trkpt><trkpt lat="56.086330369638056" lon="22.09930622754379"><ele>117.42857142857144</ele><time>2026-04-18T15:31:17Z</time></trkpt><trkpt lat="56.08626171544911" lon="22.09928419472819"><ele>117.71428571428571</ele><time>2026-04-18T15:31:18Z</time></trkpt><trkpt lat="56.086193912044735" lon="22.099269821845475"><ele>118.0</ele><time>2026-04-18T15:31:19Z</time></trkpt><trkpt lat="56.08612601189899" lon="22.099258831894833"><ele>118.00000000000001</ele><time>2026-04-18T15:31:20Z</time></trkpt><trkpt lat="56.08605340625644" lon="22.09924880989734"><ele>118.0</ele><time>2026-04-18T15:31:21Z</time></trkpt><trkpt lat="56.08598693897824" lon="22.09924216731171"><ele>118.0</ele><time>2026-04-18T15:31:22Z</time></trkpt><trkpt lat="56.08592188542318" lon="22.099239560571707"><ele>118.0</ele><time>2026-04-18T15:31:23Z</time></trkpt><trkpt lat="56.08584710976488" lon="22.09924168787706"><ele>118.00000000000001</ele><time>2026-04-18T15:31:24Z</time></trkpt><trkpt lat="56.0857187982569" lon="22.09923577288921"><ele>118.0</ele><time>2026-04-18T15:31:26Z</time></trkpt><trkpt lat="56.0856124778365" lon="22.099201560523802"><ele>118.2</ele><time>2026-04-18T15:31:28Z</time></trkpt><trkpt lat="56.08550331527445" lon="22.099183742325945"><ele>118.4</ele><time>2026-04-18T15:31:30Z</time></trkpt><trkpt lat="56.0853714909423" lon="22.099190664614902"><ele>118.60000000000001</ele><time>2026-04-18T15:31:32Z</time></trkpt><trkpt lat="56.0853004607732" lon="22.0992026092087"><ele>118.80000000000001</ele><time>2026-04-18T15:31:33Z</time></trkpt><trkpt lat="56.085229582657874" lon="22.09924040654702"><ele>119.0</ele><time>2026-04-18T15:31:34Z</time></trkpt><trkpt lat="56.08516349590562" lon="22.09930021228736"><ele>118.99999999999999</ele><time>2026-04-18T15:31:35Z</time></trkpt><trkpt lat="56.08509579278978" lon="22.099368118172364"><ele>119.0</ele><time>2026-04-18T15:31:36Z</time></trkpt><trkpt lat="56.085023788137946" lon="22.09942259270015"><ele>119.0</ele><time>2026-04-18T15:31:37Z</time></trkpt><trkpt lat="56.084953149934805" lon="22.09947206936446"><ele>119.0</ele><time>2026-04-18T15:31:38Z</time></trkpt><trkpt lat="56.0848771662703" lon="22.099535954412907"><ele>118.99999999999999</ele><time>2026-04-18T15:31:39Z</time></trkpt><trkpt lat="56.084805570021075" lon="22.09960433017733"><ele>119.0</ele><time>2026-04-18T15:31:40Z</time></trkpt><trkpt lat="56.08472932200674" lon="22.09967606975025"><ele>118.99999999999999</ele><time>2026-04-18T15:31:41Z</time></trkpt><trkpt lat="56.08465438816648" lon="22.099748663637357"><ele>119.0</ele><time>2026-04-18T15:31:42Z</time></trkpt><trkpt lat="56.08457841336015" lon="22.09981836417291"><ele>119.0</ele><time>2026-04-18T15:31:43Z</time></trkpt><trkpt lat="56.08450269316835" lon="22.0998829802022"><ele>119.0</ele><time>2026-04-18T15:31:44Z</time></trkpt><trkpt lat="56.08442840852539" lon="22.09994621101606"><ele>118.99999999999999</ele><time>2026-04-18T15:31:45Z</time></trkpt><trkpt lat="56.08436033765132" lon="22.100013940326686"><ele>119.0</ele><time>2026-04-18T15:31:46Z</time></trkpt><trkpt lat="56.08427990522644" lon="22.100088708506558"><ele>118.99999999999999</ele><time>2026-04-18T15:31:47Z</time></trkpt><trkpt lat="56.08421056446156" lon="22.100154065793628"><ele>119.0</ele><time>2026-04-18T15:31:48Z</time></trkpt><trkpt lat="56.08414340607647" lon="22.100222681458526"><ele>119.0</ele><time>2026-04-18T15:31:49Z</time></trkpt><trkpt lat="56.084081981250385" lon="22.100279574698614"><ele>119.0</ele><time>2026-04-18T15:31:50Z</time></trkpt><trkpt lat="56.0839666376943" lon="22.100354313165834"><ele>118.99999999999999</ele><time>2026-04-18T15:31:52Z</time></trkpt><trkpt lat="56.08389824722666" lon="22.100359192402287"><ele>119.0</ele><time>2026-04-18T15:31:53Z</time></trkpt><trkpt lat="56.08382946497947" lon="22.10032095786011"><ele>118.99999999999999</ele><time>2026-04-18T15:31:54Z</time></trkpt><trkpt lat="56.08376739631304" lon="22.100263131338917"><ele>119.0</ele><time>2026-04-18T15:31:55Z</time></trkpt><trkpt lat="56.08370180458403" lon="22.10017577474154"><ele>119.0</ele><time>2026-04-18T15:31:56Z</time></trkpt><trkpt lat="56.083642966894146" lon="22.10009479675805"><ele>119.0</ele><time>2026-04-18T15:31:57Z</time></trkpt><trkpt lat="56.08358060365329" lon="22.100021045385837"><ele>118.99999999999999</ele><time>2026-04-18T15:31:58Z</time></trkpt><trkpt lat="56.08351669528181" lon="22.099947564035187"><ele>119.0</ele><time>2026-04-18T15:31:59Z</time></trkpt><trkpt lat="56.083448928156685" lon="22.099871551448622"><ele>118.99999999999999</ele><time>2026-04-18T15:32:00Z</time></trkpt><trkpt lat="56.083389440812354" lon="22.09979929945316"><ele>119.0</ele><time>2026-04-18T15:32:01Z</time></trkpt><trkpt lat="56.08332374256927" lon="22.09971394369529"><ele>119.0</ele><time>2026-04-18T15:32:02Z</time></trkpt><trkpt lat="56.08326258034652" lon="22.09964028428485"><ele>119.0</ele><time>2026-04-18T15:32:03Z</time></trkpt><trkpt lat="56.083194110470345" lon="22.099557170268827"><ele>118.99999999999999</ele><time>2026-04-18T15:32:04Z</time></trkpt><trkpt lat="56.083121520799565" lon="22.09947402872933"><ele>119.0</ele><time>2026-04-18T15:32:05Z</time></trkpt><trkpt lat="56.083049978645725" lon="22.09939404533022"><ele>119.0</ele><time>2026-04-18T15:32:06Z</time></trkpt><trkpt lat="56.08295211170827" lon="22.099286674353085"><ele>119.0</ele><time>2026-04-18T15:32:07Z</time></trkpt><trkpt lat="56.082855300483104" lon="22.09917413022478"><ele>119.0</ele><time>2026-04-18T15:32:08.001Z</time></trkpt><trkpt lat="56.08278029088539" lon="22.099079954685223"><ele>119.0</ele><time>2026-04-18T15:32:09.001Z</time></trkpt><trkpt lat="56.0826852481841" lon="22.098980961041818"><ele>119.0</ele><time>2026-04-18T15:32:11.001Z</time></trkpt><trkpt lat="56.08259214376899" lon="22.09893157513262"><ele>119.0</ele><time>2026-04-18T15:32:13.001Z</time></trkpt><trkpt lat="56.082472526776044" lon="22.098961109440754"><ele>119.0</ele><time>2026-04-18T15:32:15.001Z</time></trkpt><trkpt lat="56.08241343262468" lon="22.099003821279045"><ele>119.0</ele><time>2026-04-18T15:32:16.001Z</time></trkpt><trkpt lat="56.08226005511647" lon="22.098795484830557"><ele>119.0</ele><time>2026-04-18T15:32:17.001Z</time></trkpt><trkpt lat="56.082204130874224" lon="22.098860626914274"><ele>119.0</ele><time>2026-04-18T15:32:19.001Z</time></trkpt><trkpt lat="56.08214709059581" lon="22.0989271124407"><ele>119.0</ele><time>2026-04-18T15:32:22.001Z</time></trkpt><trkpt lat="56.08209867631761" lon="22.099005388799707"><ele>119.0</ele><time>2026-04-18T15:32:24.001Z</time></trkpt><trkpt lat="56.08198755729443" lon="22.099107286366795"><ele>119.0</ele><time>2026-04-18T15:32:26.001Z</time></trkpt><trkpt lat="56.08190823393934" lon="22.09918525638716"><ele>119.0</ele><time>2026-04-18T15:32:27.001Z</time></trkpt><trkpt lat="56.08182447071161" lon="22.09928723726765"><ele>119.0</ele><time>2026-04-18T15:32:28.001Z</time></trkpt><trkpt lat="56.08174445606942" lon="22.099387866721116"><ele>119.25</ele><time>2026-04-18T15:32:29.001Z</time></trkpt><trkpt lat="56.08163946385429" lon="22.099514722000244"><ele>119.5</ele><time>2026-04-18T15:32:30.001Z</time></trkpt><trkpt lat="56.081529731337575" lon="22.099648362518504"><ele>119.75</ele><time>2026-04-18T15:32:31.001Z</time></trkpt><trkpt lat="56.08141060720535" lon="22.099784794397955"><ele>120.0</ele><time>2026-04-18T15:32:32.001Z</time></trkpt><trkpt lat="56.08129545974258" lon="22.099921627326665"><ele>120.25</ele><time>2026-04-18T15:32:33.001Z</time></trkpt><trkpt lat="56.081184552253205" lon="22.10005664881451"><ele>120.5</ele><time>2026-04-18T15:32:34.001Z</time></trkpt><trkpt lat="56.08108356141829" lon="22.1001751005509"><ele>120.75</ele><time>2026-04-18T15:32:35.001Z</time></trkpt><trkpt lat="56.080991909484155" lon="22.100293214255732"><ele>121.0</ele><time>2026-04-18T15:32:36.001Z</time></trkpt><trkpt lat="56.080894542129485" lon="22.10042521287544"><ele>121.0</ele><time>2026-04-18T15:32:37.001Z</time></trkpt><trkpt lat="56.0807978950547" lon="22.10056290832106"><ele>121.0</ele><time>2026-04-18T15:32:38.001Z</time></trkpt><trkpt lat="56.080706229897174" lon="22.10070206640737"><ele>121.0</ele><time>2026-04-18T15:32:39Z</time></trkpt><trkpt lat="56.08062109694457" lon="22.100858192931213"><ele>121.0</ele><time>2026-04-18T15:32:40Z</time></trkpt><trkpt lat="56.08054409493028" lon="22.101020111356846"><ele>120.75</ele><time>2026-04-18T15:32:41Z</time></trkpt><trkpt lat="56.08047413495284" lon="22.101191824279923"><ele>120.5</ele><time>2026-04-18T15:32:42Z</time></trkpt><trkpt lat="56.080412470789376" lon="22.101370916007426"><ele>120.25</ele><time>2026-04-18T15:32:43Z</time></trkpt><trkpt lat="56.08036014149451" lon="22.10154465790803"><ele>120.0</ele><time>2026-04-18T15:32:44Z</time></trkpt><trkpt lat="56.080310804883844" lon="22.101719512346083"><ele>120.0</ele><time>2026-04-18T15:32:45Z</time></trkpt><trkpt lat="56.080263001467635" lon="22.101892953526555"><ele>120.0</ele><time>2026-04-18T15:32:46Z</time></trkpt><trkpt lat="56.080216645987456" lon="22.102073470313115"><ele>120.0</ele><time>2026-04-18T15:32:47Z</time></trkpt><trkpt lat="56.08016849368328" lon="22.102273386407035"><ele>120.0</ele><time>2026-04-18T15:32:48Z</time></trkpt><trkpt lat="56.0801217426523" lon="22.10247003068121"><ele>120.0</ele><time>2026-04-18T15:32:49Z</time></trkpt><trkpt lat="56.08007006636276" lon="22.10267968026312"><ele>120.0</ele><time>2026-04-18T15:32:50Z</time></trkpt><trkpt lat="56.0800096669523" lon="22.102914017472365"><ele>120.0</ele><time>2026-04-18T15:32:51Z</time></trkpt><trkpt lat="56.079945946406454" lon="22.103142440063305"><ele>120.0</ele><time>2026-04-18T15:32:52Z</time></trkpt><trkpt lat="56.079883995020225" lon="22.103360633109666"><ele>120.25</ele><time>2026-04-18T15:32:53Z</time></trkpt><trkpt lat="56.079818752749304" lon="22.10355914669415"><ele>120.5</ele><time>2026-04-18T15:32:54Z</time></trkpt><trkpt lat="56.07974119962893" lon="22.10374552808374"><ele>120.75</ele><time>2026-04-18T15:32:55Z</time></trkpt><trkpt lat="56.079658358642234" lon="22.10388401165243"><ele>121.0</ele><time>2026-04-18T15:32:56Z</time></trkpt><trkpt lat="56.07956027721049" lon="22.10401779487832"><ele>121.25</ele><time>2026-04-18T15:32:57Z</time></trkpt><trkpt lat="56.07945024524015" lon="22.104143597070944"><ele>121.5</ele><time>2026-04-18T15:32:58Z</time></trkpt><trkpt lat="56.079326507145744" lon="22.104258847536467"><ele>121.75</ele><time>2026-04-18T15:32:59Z</time></trkpt><trkpt lat="56.079193484322566" lon="22.10437759389213"><ele>122.0</ele><time>2026-04-18T15:33:00Z</time></trkpt><trkpt lat="56.07905296659686" lon="22.10449765165404"><ele>122.0</ele><time>2026-04-18T15:33:01Z</time></trkpt><trkpt lat="56.0789171630952" lon="22.104613448899812"><ele>122.0</ele><time>2026-04-18T15:33:02Z</time></trkpt><trkpt lat="56.07878516303324" lon="22.104729969796956"><ele>122.0</ele><time>2026-04-18T15:33:03Z</time></trkpt><trkpt lat="56.078657758140665" lon="22.10484228667799"><ele>122.0</ele><time>2026-04-18T15:33:04Z</time></trkpt><trkpt lat="56.07852521212191" lon="22.10495727273839"><ele>122.0</ele><time>2026-04-18T15:33:05Z</time></trkpt><trkpt lat="56.07839440764679" lon="22.105065561011706"><ele>122.0</ele><time>2026-04-18T15:33:06Z</time></trkpt><trkpt lat="56.07826238292236" lon="22.105174691426885"><ele>122.0</ele><time>2026-04-18T15:33:07Z</time></trkpt><trkpt lat="56.07812954361365" lon="22.105291480745255"><ele>122.0</ele><time>2026-04-18T15:33:08Z</time></trkpt><trkpt lat="56.07799924316571" lon="22.105415360549785"><ele>122.0</ele><time>2026-04-18T15:33:09Z</time></trkpt><trkpt lat="56.07786383417341" lon="22.1055349581247"><ele>122.0</ele><time>2026-04-18T15:33:10Z</time></trkpt><trkpt lat="56.07773078564187" lon="22.105653366412856"><ele>122.0</ele><time>2026-04-18T15:33:11Z</time></trkpt><trkpt lat="56.07759396190397" lon="22.10577021142357"><ele>122.0</ele><time>2026-04-18T15:33:12Z</time></trkpt><trkpt lat="56.07746599281093" lon="22.10588900313478"><ele>122.0</ele><time>2026-04-18T15:33:13Z</time></trkpt><trkpt lat="56.07733403302036" lon="22.106007383240975"><ele>122.0</ele><time>2026-04-18T15:33:14Z</time></trkpt><trkpt lat="56.077203612370226" lon="22.106114727565735"><ele>122.0</ele><time>2026-04-18T15:33:15Z</time></trkpt><trkpt lat="56.07707391834348" lon="22.106225131582082"><ele>122.25</ele><time>2026-04-18T15:33:16Z</time></trkpt><trkpt lat="56.076953089585324" lon="22.106332009461074"><ele>122.5</ele><time>2026-04-18T15:33:17Z</time></trkpt><trkpt lat="56.076838195102255" lon="22.106446087191216"><ele>122.75</ele><time>2026-04-18T15:33:18Z</time></trkpt><trkpt lat="56.076725529986206" lon="22.106556116199805"><ele>123.0</ele><time>2026-04-18T15:33:19Z</time></trkpt><trkpt lat="56.07661556625476" lon="22.10666242857967"><ele>123.5</ele><time>2026-04-18T15:33:20Z</time></trkpt><trkpt lat="56.07650357187958" lon="22.106768542797266"><ele>124.0</ele><time>2026-04-18T15:33:21Z</time></trkpt><trkpt lat="56.076388748366334" lon="22.106873793391372"><ele>124.5</ele><time>2026-04-18T15:33:22Z</time></trkpt><trkpt lat="56.07628454616871" lon="22.106970056997703"><ele>125.0</ele><time>2026-04-18T15:33:23Z</time></trkpt><trkpt lat="56.07618215528056" lon="22.107071606220984"><ele>125.0</ele><time>2026-04-18T15:33:24Z</time></trkpt><trkpt lat="56.076079110011015" lon="22.107205565150867"><ele>125.0</ele><time>2026-04-18T15:33:25Z</time></trkpt><trkpt lat="56.07599043076506" lon="22.10738970181675"><ele>125.0</ele><time>2026-04-18T15:33:26Z</time></trkpt><trkpt lat="56.07588694320678" lon="22.107570335597902"><ele>125.0</ele><time>2026-04-18T15:33:27Z</time></trkpt><trkpt lat="56.07578251307138" lon="22.10776177564508"><ele>124.75</ele><time>2026-04-18T15:33:28Z</time></trkpt><trkpt lat="56.075683924335415" lon="22.107966552141733"><ele>124.5</ele><time>2026-04-18T15:33:29Z</time></trkpt><trkpt lat="56.07558400084134" lon="22.108168735455074"><ele>124.25</ele><time>2026-04-18T15:33:30Z</time></trkpt><trkpt lat="56.07547825101511" lon="22.108342751446123"><ele>124.0</ele><time>2026-04-18T15:33:31Z</time></trkpt><trkpt lat="56.075390399828684" lon="22.10852996187865"><ele>124.0</ele><time>2026-04-18T15:33:32Z</time></trkpt><trkpt lat="56.07530182247332" lon="22.108717071910988"><ele>124.0</ele><time>2026-04-18T15:33:33Z</time></trkpt><trkpt lat="56.075216814703744" lon="22.108898144489984"><ele>124.0</ele><time>2026-04-18T15:33:34Z</time></trkpt><trkpt lat="56.07514518232328" lon="22.109104258138714"><ele>124.0</ele><time>2026-04-18T15:33:35Z</time></trkpt><trkpt lat="56.07507711148532" lon="22.109273936032814"><ele>124.0</ele><time>2026-04-18T15:33:36Z</time></trkpt><trkpt lat="56.07500293170915" lon="22.109435925227935"><ele>124.0</ele><time>2026-04-18T15:33:37Z</time></trkpt><trkpt lat="56.07494397834838" lon="22.109628287808263"><ele>124.0</ele><time>2026-04-18T15:33:38Z</time></trkpt><trkpt lat="56.074901189451104" lon="22.109845349947395"><ele>124.0</ele><time>2026-04-18T15:33:39Z</time></trkpt><trkpt lat="56.07487905071084" lon="22.110067665284962"><ele>124.0</ele><time>2026-04-18T15:33:40Z</time></trkpt><trkpt lat="56.07484146166546" lon="22.110280069440897"><ele>124.0</ele><time>2026-04-18T15:33:41Z</time></trkpt><trkpt lat="56.074801547483084" lon="22.11050468695799"><ele>124.0</ele><time>2026-04-18T15:33:42Z</time></trkpt><trkpt lat="56.0747455504873" lon="22.11073133685397"><ele>124.0</ele><time>2026-04-18T15:33:43Z</time></trkpt><trkpt lat="56.07470567502111" lon="22.11096445489098"><ele>123.5</ele><time>2026-04-18T15:33:44Z</time></trkpt><trkpt lat="56.07466499509553" lon="22.11120671965805"><ele>123.0</ele><time>2026-04-18T15:33:45Z</time></trkpt><trkpt lat="56.074630124531716" lon="22.111427137208715"><ele>122.5</ele><time>2026-04-18T15:33:46Z</time></trkpt><trkpt lat="56.074593118411215" lon="22.111660205921208"><ele>122.0</ele><time>2026-04-18T15:33:47Z</time></trkpt><trkpt lat="56.07455474561408" lon="22.111900214647925"><ele>122.0</ele><time>2026-04-18T15:33:48Z</time></trkpt><trkpt lat="56.07451749712347" lon="22.112135409041752"><ele>122.0</ele><time>2026-04-18T15:33:49Z</time></trkpt><trkpt lat="56.07448069153165" lon="22.112366132129413"><ele>122.0</ele><time>2026-04-18T15:33:50Z</time></trkpt><trkpt lat="56.07444257396971" lon="22.112605597564528"><ele>122.0</ele><time>2026-04-18T15:33:51Z</time></trkpt><trkpt lat="56.07440405205691" lon="22.112847602979823"><ele>122.25</ele><time>2026-04-18T15:33:52Z</time></trkpt><trkpt lat="56.07436426084165" lon="22.113098195068392"><ele>122.5</ele><time>2026-04-18T15:33:53Z</time></trkpt><trkpt lat="56.0743249333825" lon="22.113348420550587"><ele>122.75</ele><time>2026-04-18T15:33:54Z</time></trkpt><trkpt lat="56.07428496815746" lon="22.113602322990605"><ele>123.0</ele><time>2026-04-18T15:33:55Z</time></trkpt><trkpt lat="56.07424497257594" lon="22.113854260555026"><ele>123.5</ele><time>2026-04-18T15:33:56Z</time></trkpt><trkpt lat="56.07420538002038" lon="22.114103682437197"><ele>124.0</ele><time>2026-04-18T15:33:57Z</time></trkpt><trkpt lat="56.07416571893032" lon="22.114353558274846"><ele>124.5</ele><time>2026-04-18T15:33:58Z</time></trkpt><trkpt lat="56.074125559925875" lon="22.11460657114668"><ele>125.0</ele><time>2026-04-18T15:33:59Z</time></trkpt><trkpt lat="56.074087074297594" lon="22.114849041205897"><ele>125.25</ele><time>2026-04-18T15:34:00Z</time></trkpt><trkpt lat="56.07404843567076" lon="22.11509247508912"><ele>125.5</ele><time>2026-04-18T15:34:01Z</time></trkpt><trkpt lat="56.074009715896054" lon="22.11533642040141"><ele>125.75</ele><time>2026-04-18T15:34:02Z</time></trkpt><trkpt lat="56.07396674334951" lon="22.11557823755595"><ele>126.0</ele><time>2026-04-18T15:34:03Z</time></trkpt><trkpt lat="56.073921432870954" lon="22.11581500639578"><ele>126.25</ele><time>2026-04-18T15:34:04Z</time></trkpt><trkpt lat="56.073871034230514" lon="22.11605076766492"><ele>126.5</ele><time>2026-04-18T15:34:05Z</time></trkpt><trkpt lat="56.07381868635365" lon="22.11629364072692"><ele>126.75</ele><time>2026-04-18T15:34:06Z</time></trkpt><trkpt lat="56.07376652975798" lon="22.116535756796623"><ele>127.0</ele><time>2026-04-18T15:34:07Z</time></trkpt><trkpt lat="56.073709076570815" lon="22.11677572269141"><ele>127.0</ele><time>2026-04-18T15:34:08Z</time></trkpt><trkpt lat="56.073648096724504" lon="22.11703015204251"><ele>127.0</ele><time>2026-04-18T15:34:09Z</time></trkpt><trkpt lat="56.07358982488955" lon="22.11727299836694"><ele>127.0</ele><time>2026-04-18T15:34:10Z</time></trkpt><trkpt lat="56.07353248922923" lon="22.117511917037053"><ele>127.0</ele><time>2026-04-18T15:34:11Z</time></trkpt><trkpt lat="56.07347544665018" lon="22.11774861982827"><ele>127.0</ele><time>2026-04-18T15:34:12Z</time></trkpt><trkpt lat="56.073417355939355" lon="22.11798966352164"><ele>127.0</ele><time>2026-04-18T15:34:13.001Z</time></trkpt><trkpt lat="56.07336097240881" lon="22.118223672675587"><ele>127.0</ele><time>2026-04-18T15:34:14.001Z</time></trkpt><trkpt lat="56.073306827897134" lon="22.118448374551406"><ele>127.0</ele><time>2026-04-18T15:34:15.001Z</time></trkpt><trkpt lat="56.073251052903224" lon="22.118668201244915"><ele>127.0</ele><time>2026-04-18T15:34:16.001Z</time></trkpt><trkpt lat="56.07318565148644" lon="22.118912826649968"><ele>127.0</ele><time>2026-04-18T15:34:17.001Z</time></trkpt><trkpt lat="56.07311477453103" lon="22.119177932681193"><ele>127.0</ele><time>2026-04-18T15:34:18.001Z</time></trkpt><trkpt lat="56.0730541315777" lon="22.119404759275337"><ele>126.75</ele><time>2026-04-18T15:34:19.001Z</time></trkpt><trkpt lat="56.07300467786102" lon="22.119620377288694"><ele>126.5</ele><time>2026-04-18T15:34:20.001Z</time></trkpt><trkpt lat="56.072907390946256" lon="22.119802583863216"><ele>126.25</ele><time>2026-04-18T15:34:21.001Z</time></trkpt><trkpt lat="56.07281585245106" lon="22.120024937572357"><ele>126.0</ele><time>2026-04-18T15:34:22.001Z</time></trkpt><trkpt lat="56.07271803730586" lon="22.12020876885177"><ele>126.0</ele><time>2026-04-18T15:34:23.001Z</time></trkpt><trkpt lat="56.07260595800944" lon="22.120398610178924"><ele>126.0</ele><time>2026-04-18T15:34:24.001Z</time></trkpt><trkpt lat="56.0725244079237" lon="22.120556468867832"><ele>126.0</ele><time>2026-04-18T15:34:25.001Z</time></trkpt><trkpt lat="56.072453338627106" lon="22.120716116348422"><ele>126.0</ele><time>2026-04-18T15:34:26.001Z</time></trkpt><trkpt lat="56.07237743784173" lon="22.12092009945362"><ele>125.75</ele><time>2026-04-18T15:34:27.001Z</time></trkpt><trkpt lat="56.07229712087263" lon="22.121068674821167"><ele>125.5</ele><time>2026-04-18T15:34:28.001Z</time></trkpt><trkpt lat="56.07220985014781" lon="22.12123648691322"><ele>125.25</ele><time>2026-04-18T15:34:29.001Z</time></trkpt><trkpt lat="56.07212668307166" lon="22.121425802503314"><ele>125.0</ele><time>2026-04-18T15:34:30.001Z</time></trkpt><trkpt lat="56.07204449283214" lon="22.121596226553994"><ele>124.8</ele><time>2026-04-18T15:34:31.001Z</time></trkpt><trkpt lat="56.07197559177203" lon="22.121741466450786"><ele>124.6</ele><time>2026-04-18T15:34:32.001Z</time></trkpt><trkpt lat="56.071897301452495" lon="22.12189362928682"><ele>124.4</ele><time>2026-04-18T15:34:33Z</time></trkpt><trkpt lat="56.07182403479268" lon="22.12203986901864"><ele>124.2</ele><time>2026-04-18T15:34:34Z</time></trkpt><trkpt lat="56.07174894657262" lon="22.12220117269549"><ele>124.0</ele><time>2026-04-18T15:34:35Z</time></trkpt><trkpt lat="56.07166208944716" lon="22.12236547284842"><ele>124.0</ele><time>2026-04-18T15:34:36Z</time></trkpt><trkpt lat="56.07158737709471" lon="22.122566765553724"><ele>124.0</ele><time>2026-04-18T15:34:37Z</time></trkpt><trkpt lat="56.07152407990462" lon="22.122757698172045"><ele>124.0</ele><time>2026-04-18T15:34:38Z</time></trkpt><trkpt lat="56.07146519482672" lon="22.12297133147184"><ele>124.0</ele><time>2026-04-18T15:34:39Z</time></trkpt><trkpt lat="56.0714063131669" lon="22.123193346315226"><ele>123.75</ele><time>2026-04-18T15:34:40Z</time></trkpt><trkpt lat="56.071352801747715" lon="22.123446548774478"><ele>123.5</ele><time>2026-04-18T15:34:41Z</time></trkpt><trkpt lat="56.07131303421925" lon="22.123673150954104"><ele>123.25</ele><time>2026-04-18T15:34:42Z</time></trkpt><trkpt lat="56.0712697026304" lon="22.123926280270993"><ele>123.0</ele><time>2026-04-18T15:34:43Z</time></trkpt><trkpt lat="56.07122691125867" lon="22.124162891346103"><ele>123.0</ele><time>2026-04-18T15:34:44Z</time></trkpt><trkpt lat="56.07117739647662" lon="22.124409819978297"><ele>123.0</ele><time>2026-04-18T15:34:45Z</time></trkpt><trkpt lat="56.07113799031248" lon="22.12465482816029"><ele>123.0</ele><time>2026-04-18T15:34:46Z</time></trkpt><trkpt lat="56.07109631382428" lon="22.12486469921068"><ele>123.0</ele><time>2026-04-18T15:34:47Z</time></trkpt><trkpt lat="56.07108001057603" lon="22.125161952317455"><ele>123.0</ele><time>2026-04-18T15:34:48Z</time></trkpt><trkpt lat="56.071071780900446" lon="22.125429772395513"><ele>123.0</ele><time>2026-04-18T15:34:49Z</time></trkpt><trkpt lat="56.07107374683232" lon="22.125697259648035"><ele>123.0</ele><time>2026-04-18T15:34:50Z</time></trkpt><trkpt lat="56.07108100255157" lon="22.12602839439171"><ele>123.0</ele><time>2026-04-18T15:34:51Z</time></trkpt><trkpt lat="56.07106934615803" lon="22.126397938071545"><ele>123.0</ele><time>2026-04-18T15:34:52Z</time></trkpt><trkpt lat="56.07107456357613" lon="22.126774724462575"><ele>123.0</ele><time>2026-04-18T15:34:53Z</time></trkpt><trkpt lat="56.07107905142078" lon="22.127109714544126"><ele>122.0</ele><time>2026-04-18T15:34:54Z</time></trkpt><trkpt lat="56.071083672914966" lon="22.127446663933508"><ele>121.0</ele><time>2026-04-18T15:34:55Z</time></trkpt><trkpt lat="56.07108271979797" lon="22.127783609061332"><ele>120.0</ele><time>2026-04-18T15:34:56Z</time></trkpt><trkpt lat="56.0710789675714" lon="22.128114057131327"><ele>120.0</ele><time>2026-04-18T15:34:57Z</time></trkpt><trkpt lat="56.07106743190548" lon="22.128469940113465"><ele>120.0</ele><time>2026-04-18T15:34:58Z</time></trkpt><trkpt lat="56.07100486841971" lon="22.12879109836244"><ele>120.0</ele><time>2026-04-18T15:34:59Z</time></trkpt><trkpt lat="56.07092566546752" lon="22.129102503988282"><ele>120.0</ele><time>2026-04-18T15:35:00Z</time></trkpt><trkpt lat="56.07083736124945" lon="22.1294252771531"><ele>120.0</ele><time>2026-04-18T15:35:01Z</time></trkpt><trkpt lat="56.070737623889904" lon="22.129746004971206"><ele>120.0</ele><time>2026-04-18T15:35:02Z</time></trkpt><trkpt lat="56.070633655201135" lon="22.130080952802984"><ele>119.66666666666666</ele><time>2026-04-18T15:35:03Z</time></trkpt><trkpt lat="56.07054037430662" lon="22.130437485386228"><ele>119.33333333333333</ele><time>2026-04-18T15:35:04Z</time></trkpt><trkpt lat="56.070421270401475" lon="22.130763747882533"><ele>119.0</ele><time>2026-04-18T15:35:05Z</time></trkpt><trkpt lat="56.07031689322201" lon="22.131099245469585"><ele>119.0</ele><time>2026-04-18T15:35:06Z</time></trkpt><trkpt lat="56.070213293335364" lon="22.131432010847426"><ele>119.0</ele><time>2026-04-18T15:35:07Z</time></trkpt><trkpt lat="56.070107408360435" lon="22.131771657920904"><ele>119.0</ele><time>2026-04-18T15:35:08Z</time></trkpt><trkpt lat="56.07000246429952" lon="22.13210999961681"><ele>119.0</ele><time>2026-04-18T15:35:09Z</time></trkpt><trkpt lat="56.06991208353688" lon="22.13244978908763"><ele>119.0</ele><time>2026-04-18T15:35:10Z</time></trkpt><trkpt lat="56.06979745858728" lon="22.13277075990859"><ele>119.0</ele><time>2026-04-18T15:35:11Z</time></trkpt><trkpt lat="56.06969434005579" lon="22.133101274594203"><ele>119.33333333333333</ele><time>2026-04-18T15:35:12Z</time></trkpt><trkpt lat="56.069594977571064" lon="22.13342046866456"><ele>119.66666666666666</ele><time>2026-04-18T15:35:13Z</time></trkpt><trkpt lat="56.069496833429476" lon="22.133737209035164"><ele>120.0</ele><time>2026-04-18T15:35:14Z</time></trkpt><trkpt lat="56.06940771290985" lon="22.134023727884735"><ele>120.33333333333334</ele><time>2026-04-18T15:35:15Z</time></trkpt><trkpt lat="56.069313381763415" lon="22.13436667654668"><ele>120.66666666666667</ele><time>2026-04-18T15:35:16Z</time></trkpt><trkpt lat="56.069205104285096" lon="22.13469155535021"><ele>121.0</ele><time>2026-04-18T15:35:17Z</time></trkpt><trkpt lat="56.06910687634281" lon="22.13502976190464"><ele>121.33333333333334</ele><time>2026-04-18T15:35:18Z</time></trkpt><trkpt lat="56.06898529893573" lon="22.135392846674616"><ele>121.66666666666666</ele><time>2026-04-18T15:35:19Z</time></trkpt><trkpt lat="56.06889799370771" lon="22.13573557664674"><ele>122.0</ele><time>2026-04-18T15:35:20Z</time></trkpt><trkpt lat="56.06878186743657" lon="22.13610046002484"><ele>122.5</ele><time>2026-04-18T15:35:21Z</time></trkpt><trkpt lat="56.068671002954986" lon="22.136452694633952"><ele>123.0</ele><time>2026-04-18T15:35:22Z</time></trkpt><trkpt lat="56.06856292768135" lon="22.13680421652217"><ele>123.33333333333334</ele><time>2026-04-18T15:35:23Z</time></trkpt><trkpt lat="56.0684582186313" lon="22.13716110387645"><ele>123.66666666666667</ele><time>2026-04-18T15:35:24Z</time></trkpt><trkpt lat="56.06834497385133" lon="22.137478512242105"><ele>124.0</ele><time>2026-04-18T15:35:25Z</time></trkpt><trkpt lat="56.06824533738968" lon="22.137801640016082"><ele>125.33333333333334</ele><time>2026-04-18T15:35:26Z</time></trkpt><trkpt lat="56.068173034528606" lon="22.138096066573905"><ele>126.66666666666666</ele><time>2026-04-18T15:35:27Z</time></trkpt><trkpt lat="56.06807082873604" lon="22.1383704159596"><ele>128.0</ele><time>2026-04-18T15:35:28Z</time></trkpt><trkpt lat="56.0680065365212" lon="22.1386332444854"><ele>128.33333333333331</ele><time>2026-04-18T15:35:29Z</time></trkpt><trkpt lat="56.06792486263857" lon="22.13888877466497"><ele>128.66666666666666</ele><time>2026-04-18T15:35:30Z</time></trkpt><trkpt lat="56.06784321932169" lon="22.139146237353152"><ele>129.0</ele><time>2026-04-18T15:35:31Z</time></trkpt><trkpt lat="56.06776772441747" lon="22.139378194284934"><ele>129.0</ele><time>2026-04-18T15:35:32Z</time></trkpt><trkpt lat="56.06770652433103" lon="22.13958386889671"><ele>129.0</ele><time>2026-04-18T15:35:33Z</time></trkpt><trkpt lat="56.067651815011146" lon="22.139781088477935"><ele>129.0</ele><time>2026-04-18T15:35:34Z</time></trkpt><trkpt lat="56.06760044943788" lon="22.13995991750939"><ele>129.0</ele><time>2026-04-18T15:35:35Z</time></trkpt><trkpt lat="56.06753659665353" lon="22.14010608080838"><ele>129.2</ele><time>2026-04-18T15:35:36Z</time></trkpt><trkpt lat="56.06750327582016" lon="22.140247375840936"><ele>129.4</ele><time>2026-04-18T15:35:37Z</time></trkpt><trkpt lat="56.06744475338781" lon="22.140386930605924"><ele>129.6</ele><time>2026-04-18T15:35:38Z</time></trkpt><trkpt lat="56.067399379188224" lon="22.140571724659463"><ele>129.8</ele><time>2026-04-18T15:35:39Z</time></trkpt><trkpt lat="56.0673426563816" lon="22.140771116951008"><ele>130.0</ele><time>2026-04-18T15:35:40Z</time></trkpt><trkpt lat="56.06727707956779" lon="22.140991629906996"><ele>130.0</ele><time>2026-04-18T15:35:41Z</time></trkpt><trkpt lat="56.06720494821953" lon="22.14120935926541"><ele>130.0</ele><time>2026-04-18T15:35:42Z</time></trkpt><trkpt lat="56.06711979791151" lon="22.14144003620726"><ele>130.0</ele><time>2026-04-18T15:35:43Z</time></trkpt><trkpt lat="56.067055647751644" lon="22.14168250522544"><ele>130.0</ele><time>2026-04-18T15:35:44Z</time></trkpt><trkpt lat="56.06698439944371" lon="22.141924970000094"><ele>130.0</ele><time>2026-04-18T15:35:45Z</time></trkpt><trkpt lat="56.06690328653282" lon="22.142157696602833"><ele>130.0</ele><time>2026-04-18T15:35:46Z</time></trkpt><trkpt lat="56.066822671041415" lon="22.14241959945481"><ele>130.0</ele><time>2026-04-18T15:35:47Z</time></trkpt><trkpt lat="56.06675055687628" lon="22.142661124905402"><ele>130.0</ele><time>2026-04-18T15:35:48Z</time></trkpt><trkpt lat="56.066671230299484" lon="22.142919657382414"><ele>130.0</ele><time>2026-04-18T15:35:49Z</time></trkpt><trkpt lat="56.066589805864105" lon="22.14317492559518"><ele>130.0</ele><time>2026-04-18T15:35:50Z</time></trkpt><trkpt lat="56.06650852162025" lon="22.143435808030723"><ele>130.66666666666669</ele><time>2026-04-18T15:35:51Z</time></trkpt><trkpt lat="56.06643132495119" lon="22.14370368756641"><ele>131.33333333333334</ele><time>2026-04-18T15:35:52Z</time></trkpt><trkpt lat="56.066357788167466" lon="22.143949888328784"><ele>132.0</ele><time>2026-04-18T15:35:53Z</time></trkpt><trkpt lat="56.06630110142736" lon="22.144167587486088"><ele>132.25</ele><time>2026-04-18T15:35:54Z</time></trkpt><trkpt lat="56.06625315151501" lon="22.144345798998433"><ele>132.5</ele><time>2026-04-18T15:35:55Z</time></trkpt><trkpt lat="56.066205729702176" lon="22.144552950279415"><ele>132.75</ele><time>2026-04-18T15:35:56Z</time></trkpt><trkpt lat="56.06617108725849" lon="22.14476852482103"><ele>133.0</ele><time>2026-04-18T15:35:57Z</time></trkpt><trkpt lat="56.06613853414961" lon="22.14504217424782"><ele>133.25</ele><time>2026-04-18T15:35:58Z</time></trkpt><trkpt lat="56.06609295983489" lon="22.145245331228196"><ele>133.5</ele><time>2026-04-18T15:35:59Z</time></trkpt><trkpt lat="56.06605317102431" lon="22.14548748506002"><ele>133.75</ele><time>2026-04-18T15:36:00Z</time></trkpt><trkpt lat="56.06601299154105" lon="22.145733247227568"><ele>134.0</ele><time>2026-04-18T15:36:01Z</time></trkpt><trkpt lat="56.06597773280769" lon="22.145978446653658"><ele>134.25</ele><time>2026-04-18T15:36:02Z</time></trkpt><trkpt lat="56.065942331863646" lon="22.14622666654728"><ele>134.5</ele><time>2026-04-18T15:36:03Z</time></trkpt><trkpt lat="56.06590662322997" lon="22.146472269875098"><ele>134.75</ele><time>2026-04-18T15:36:04Z</time></trkpt><trkpt lat="56.06587030738449" lon="22.146732513116316"><ele>135.0</ele><time>2026-04-18T15:36:05Z</time></trkpt><trkpt lat="56.065833406234866" lon="22.14698796696772"><ele>135.0</ele><time>2026-04-18T15:36:06Z</time></trkpt><trkpt lat="56.065796355333454" lon="22.14724363523074"><ele>135.0</ele><time>2026-04-18T15:36:07Z</time></trkpt><trkpt lat="56.06575586880857" lon="22.147509664442087"><ele>135.0</ele><time>2026-04-18T15:36:08Z</time></trkpt><trkpt lat="56.06571809486794" lon="22.147776719819767"><ele>135.25</ele><time>2026-04-18T15:36:09Z</time></trkpt><trkpt lat="56.06568797327887" lon="22.148015692833052"><ele>135.5</ele><time>2026-04-18T15:36:10Z</time></trkpt><trkpt lat="56.06566068574797" lon="22.14823095744874"><ele>135.75</ele><time>2026-04-18T15:36:11Z</time></trkpt><trkpt lat="56.065633588337576" lon="22.148421809658334"><ele>136.0</ele><time>2026-04-18T15:36:12Z</time></trkpt><trkpt lat="56.06560073702812" lon="22.148628791169724"><ele>136.0</ele><time>2026-04-18T15:36:13Z</time></trkpt><trkpt lat="56.06557037066576" lon="22.148876188041005"><ele>136.0</ele><time>2026-04-18T15:36:14Z</time></trkpt><trkpt lat="56.06553392051904" lon="22.149138600658663"><ele>136.0</ele><time>2026-04-18T15:36:15Z</time></trkpt><trkpt lat="56.065503055691735" lon="22.149402852758925"><ele>136.0</ele><time>2026-04-18T15:36:16Z</time></trkpt><trkpt lat="56.065472906451475" lon="22.149647254863805"><ele>135.4</ele><time>2026-04-18T15:36:17Z</time></trkpt><trkpt lat="56.06544243682692" lon="22.149854814680214"><ele>134.8</ele><time>2026-04-18T15:36:18.001Z</time></trkpt><trkpt lat="56.06541625142771" lon="22.150030559924716"><ele>134.20000000000002</ele><time>2026-04-18T15:36:19.001Z</time></trkpt><trkpt lat="56.065398361615166" lon="22.150141880772594"><ele>133.6</ele><time>2026-04-18T15:36:20.001Z</time></trkpt><trkpt lat="56.06537733978305" lon="22.15029400987057"><ele>133.0</ele><time>2026-04-18T15:36:25.001Z</time></trkpt><trkpt lat="56.06540102594868" lon="22.150117896615285"><ele>132.83333333333334</ele><time>2026-04-18T15:36:30.001Z</time></trkpt><trkpt lat="56.06536571056468" lon="22.150221092921896"><ele>132.66666666666669</ele><time>2026-04-18T15:37:55Z</time></trkpt><trkpt lat="56.06532706921298" lon="22.15006248164724"><ele>132.5</ele><time>2026-04-18T15:38:02Z</time></trkpt><trkpt lat="56.06538048363766" lon="22.150158433010766"><ele>132.33333333333334</ele><time>2026-04-18T15:39:31Z</time></trkpt><trkpt lat="56.06536814705834" lon="22.15041158227666"><ele>132.16666666666666</ele><time>2026-04-18T15:42:52Z</time></trkpt><trkpt lat="56.06535917301785" lon="22.1505284741097"><ele>132.0</ele><time>2026-04-18T15:42:53Z</time></trkpt><trkpt lat="56.06533438662696" lon="22.15068038821607"><ele>132.0</ele><time>2026-04-18T15:42:54Z</time></trkpt><trkpt lat="56.06530612560981" lon="22.150857578208306"><ele>132.0</ele><time>2026-04-18T15:42:55Z</time></trkpt><trkpt lat="56.065270417988394" lon="22.151074272065298"><ele>132.0</ele><time>2026-04-18T15:42:56Z</time></trkpt><trkpt lat="56.06524036743545" lon="22.151314293625408"><ele>132.0</ele><time>2026-04-18T15:42:57Z</time></trkpt><trkpt lat="56.065207893649465" lon="22.151574360063933"><ele>131.66666666666666</ele><time>2026-04-18T15:42:58Z</time></trkpt><trkpt lat="56.06516936585906" lon="22.151869995363256"><ele>131.33333333333331</ele><time>2026-04-18T15:42:59Z</time></trkpt><trkpt lat="56.06513396001164" lon="22.152146283869097"><ele>131.0</ele><time>2026-04-18T15:43:00Z</time></trkpt><trkpt lat="56.06510299545016" lon="22.152388262928117"><ele>131.0</ele><time>2026-04-18T15:43:01Z</time></trkpt><trkpt lat="56.06507407317333" lon="22.15262744960254"><ele>131.0</ele><time>2026-04-18T15:43:02Z</time></trkpt><trkpt lat="56.06504427183293" lon="22.152882358057102"><ele>131.0</ele><time>2026-04-18T15:43:03Z</time></trkpt><trkpt lat="56.06501781128769" lon="22.153132078452614"><ele>131.0</ele><time>2026-04-18T15:43:04Z</time></trkpt><trkpt lat="56.06499242185773" lon="22.153390429874616"><ele>130.75</ele><time>2026-04-18T15:43:05Z</time></trkpt><trkpt lat="56.06496776712264" lon="22.15364697294556"><ele>130.5</ele><time>2026-04-18T15:43:06Z</time></trkpt><trkpt lat="56.06494293656405" lon="22.15390765870892"><ele>130.25</ele><time>2026-04-18T15:43:07Z</time></trkpt><trkpt lat="56.06491670989641" lon="22.154171566569133"><ele>130.0</ele><time>2026-04-18T15:43:08Z</time></trkpt><trkpt lat="56.06488699109929" lon="22.154430609673707"><ele>130.0</ele><time>2026-04-18T15:43:09Z</time></trkpt><trkpt lat="56.06485841880114" lon="22.154674841008525"><ele>130.0</ele><time>2026-04-18T15:43:10Z</time></trkpt><trkpt lat="56.06483517762464" lon="22.15489816439033"><ele>130.0</ele><time>2026-04-18T15:43:11Z</time></trkpt><trkpt lat="56.064811703963166" lon="22.155132560504754"><ele>130.0</ele><time>2026-04-18T15:43:12Z</time></trkpt><trkpt lat="56.064791798258355" lon="22.155368307634333"><ele>129.5</ele><time>2026-04-18T15:43:13Z</time></trkpt><trkpt lat="56.06476840910678" lon="22.155605676291454"><ele>129.0</ele><time>2026-04-18T15:43:14Z</time></trkpt><trkpt lat="56.06474264388413" lon="22.155851126384412"><ele>128.5</ele><time>2026-04-18T15:43:15Z</time></trkpt><trkpt lat="56.06471437180647" lon="22.15610511138861"><ele>128.0</ele><time>2026-04-18T15:43:16Z</time></trkpt><trkpt lat="56.064684983703465" lon="22.15637457264142"><ele>128.25</ele><time>2026-04-18T15:43:17Z</time></trkpt><trkpt lat="56.06465873714762" lon="22.15661246214095"><ele>128.5</ele><time>2026-04-18T15:43:18Z</time></trkpt><trkpt lat="56.06463774285281" lon="22.156843168830843"><ele>128.75</ele><time>2026-04-18T15:43:19Z</time></trkpt><trkpt lat="56.06461772084163" lon="22.1570843636551"><ele>129.0</ele><time>2026-04-18T15:43:20Z</time></trkpt><trkpt lat="56.06459089222734" lon="22.157333985079212"><ele>129.25</ele><time>2026-04-18T15:43:21Z</time></trkpt><trkpt lat="56.064560640028766" lon="22.157584068145617"><ele>129.5</ele><time>2026-04-18T15:43:22Z</time></trkpt><trkpt lat="56.06452963848825" lon="22.15784459323683"><ele>129.75</ele><time>2026-04-18T15:43:23Z</time></trkpt><trkpt lat="56.06449479794448" lon="22.158098652639072"><ele>130.0</ele><time>2026-04-18T15:43:24Z</time></trkpt><trkpt lat="56.064461215617364" lon="22.158325850933707"><ele>129.5</ele><time>2026-04-18T15:43:25Z</time></trkpt><trkpt lat="56.064424440226524" lon="22.15855322238733"><ele>129.0</ele><time>2026-04-18T15:43:26Z</time></trkpt><trkpt lat="56.06438584083624" lon="22.15878007968143"><ele>128.5</ele><time>2026-04-18T15:43:27Z</time></trkpt><trkpt lat="56.064344439912276" lon="22.159022419392382"><ele>128.0</ele><time>2026-04-18T15:43:28Z</time></trkpt><trkpt lat="56.06429899149131" lon="22.159276854091516"><ele>128.0</ele><time>2026-04-18T15:43:29Z</time></trkpt><trkpt lat="56.06425196902915" lon="22.159534899048214"><ele>128.0</ele><time>2026-04-18T15:43:30Z</time></trkpt><trkpt lat="56.06420138329064" lon="22.159797508139324"><ele>128.0</ele><time>2026-04-18T15:43:31Z</time></trkpt><trkpt lat="56.064154169789646" lon="22.160035599699107"><ele>128.0</ele><time>2026-04-18T15:43:32Z</time></trkpt><trkpt lat="56.064094207105896" lon="22.16023191092314"><ele>127.75</ele><time>2026-04-18T15:43:33Z</time></trkpt><trkpt lat="56.06404650397194" lon="22.16044333397379"><ele>127.5</ele><time>2026-04-18T15:43:34Z</time></trkpt><trkpt lat="56.06399580933131" lon="22.160667757685648"><ele>127.25</ele><time>2026-04-18T15:43:35Z</time></trkpt><trkpt lat="56.063943507911" lon="22.16089998765291"><ele>127.0</ele><time>2026-04-18T15:43:36Z</time></trkpt><trkpt lat="56.063891511435045" lon="22.161131791939294"><ele>127.5</ele><time>2026-04-18T15:43:37Z</time></trkpt><trkpt lat="56.06382805193545" lon="22.161367434172398"><ele>128.0</ele><time>2026-04-18T15:43:38Z</time></trkpt><trkpt lat="56.06376323671041" lon="22.161586697998406"><ele>128.5</ele><time>2026-04-18T15:43:39Z</time></trkpt><trkpt lat="56.06369618447317" lon="22.16181431149365"><ele>129.0</ele><time>2026-04-18T15:43:40Z</time></trkpt><trkpt lat="56.06364348956554" lon="22.162047460734534"><ele>129.25</ele><time>2026-04-18T15:43:41Z</time></trkpt><trkpt lat="56.063576873849875" lon="22.162259978596104"><ele>129.5</ele><time>2026-04-18T15:43:42Z</time></trkpt><trkpt lat="56.06351385558005" lon="22.162456230286324"><ele>129.75</ele><time>2026-04-18T15:43:43Z</time></trkpt><trkpt lat="56.06345777615981" lon="22.16259964386313"><ele>130.0</ele><time>2026-04-18T15:43:44Z</time></trkpt><trkpt lat="56.06340972756298" lon="22.162745032536698"><ele>130.0</ele><time>2026-04-18T15:43:45Z</time></trkpt><trkpt lat="56.0633682608473" lon="22.162883996616067"><ele>130.0</ele><time>2026-04-18T15:43:46Z</time></trkpt><trkpt lat="56.06332873084409" lon="22.163005652912258"><ele>130.0</ele><time>2026-04-18T15:43:47Z</time></trkpt><trkpt lat="56.06329540627994" lon="22.163105604850415"><ele>130.0</ele><time>2026-04-18T15:43:48Z</time></trkpt><trkpt lat="56.06323578802525" lon="22.16325782573411"><ele>130.0</ele><time>2026-04-18T15:43:50Z</time></trkpt><trkpt lat="56.0631882690859" lon="22.16334622880681"><ele>130.0</ele><time>2026-04-18T15:43:52Z</time></trkpt><trkpt lat="56.06307004298816" lon="22.163325404563416"><ele>129.8</ele><time>2026-04-18T15:43:55Z</time></trkpt><trkpt lat="56.06296048477239" lon="22.163218975557132"><ele>129.6</ele><time>2026-04-18T15:43:57Z</time></trkpt><trkpt lat="56.062880150180035" lon="22.163153646458397"><ele>129.4</ele><time>2026-04-18T15:43:58Z</time></trkpt><trkpt lat="56.06279633492635" lon="22.163100009049874"><ele>129.2</ele><time>2026-04-18T15:43:59Z</time></trkpt><trkpt lat="56.06269884938679" lon="22.163054607422353"><ele>129.0</ele><time>2026-04-18T15:44:00Z</time></trkpt><trkpt lat="56.0625998630906" lon="22.162993637572736"><ele>128.8</ele><time>2026-04-18T15:44:01Z</time></trkpt><trkpt lat="56.062493903832745" lon="22.16293109024599"><ele>128.60000000000002</ele><time>2026-04-18T15:44:02Z</time></trkpt><trkpt lat="56.06238610867031" lon="22.16286850688332"><ele>128.4</ele><time>2026-04-18T15:44:03Z</time></trkpt><trkpt lat="56.06228155210472" lon="22.162805240124747"><ele>128.20000000000002</ele><time>2026-04-18T15:44:04Z</time></trkpt><trkpt lat="56.0621928648525" lon="22.162750856830236"><ele>128.0</ele><time>2026-04-18T15:44:05Z</time></trkpt><trkpt lat="56.06211372796229" lon="22.16270662666093"><ele>127.99999999999999</ele><time>2026-04-18T15:44:06Z</time></trkpt><trkpt lat="56.06202400472262" lon="22.16265916527898"><ele>128.0</ele><time>2026-04-18T15:44:07Z</time></trkpt><trkpt lat="56.06193743079294" lon="22.162601566019656"><ele>128.0</ele><time>2026-04-18T15:44:08Z</time></trkpt><trkpt lat="56.06185633495709" lon="22.162547143068544"><ele>128.0</ele><time>2026-04-18T15:44:09Z</time></trkpt><trkpt lat="56.0617819452349" lon="22.162482679839748"><ele>127.99999999999999</ele><time>2026-04-18T15:44:10Z</time></trkpt><trkpt lat="56.06171249254574" lon="22.16243244811673"><ele>128.0</ele><time>2026-04-18T15:44:11Z</time></trkpt><trkpt lat="56.06164330052322" lon="22.16238925794551"><ele>128.33333333333331</ele><time>2026-04-18T15:44:12Z</time></trkpt><trkpt lat="56.0615736117293" lon="22.162345519546154"><ele>128.66666666666666</ele><time>2026-04-18T15:44:13Z</time></trkpt><trkpt lat="56.06150215337766" lon="22.1623049862868"><ele>129.0</ele><time>2026-04-18T15:44:14Z</time></trkpt><trkpt lat="56.061430444303866" lon="22.162267923482435"><ele>129.33333333333334</ele><time>2026-04-18T15:44:15Z</time></trkpt><trkpt lat="56.06135504045731" lon="22.16221895094579"><ele>129.66666666666669</ele><time>2026-04-18T15:44:16Z</time></trkpt><trkpt lat="56.06128843484853" lon="22.162168997453374"><ele>130.0</ele><time>2026-04-18T15:44:17Z</time></trkpt><trkpt lat="56.061213472249186" lon="22.162121375862704"><ele>130.0</ele><time>2026-04-18T15:44:18Z</time></trkpt><trkpt lat="56.06113549660818" lon="22.162074369704946"><ele>130.0</ele><time>2026-04-18T15:44:19Z</time></trkpt><trkpt lat="56.061041726048785" lon="22.162013008362567"><ele>130.0</ele><time>2026-04-18T15:44:20Z</time></trkpt><trkpt lat="56.060966504196564" lon="22.161964947902483"><ele>130.0</ele><time>2026-04-18T15:44:21Z</time></trkpt><trkpt lat="56.06088133351711" lon="22.161914720903678"><ele>130.0</ele><time>2026-04-18T15:44:22Z</time></trkpt><trkpt lat="56.060801663679484" lon="22.16186666920038"><ele>130.0</ele><time>2026-04-18T15:44:23Z</time></trkpt><trkpt lat="56.060720777531195" lon="22.161814527081432"><ele>129.8</ele><time>2026-04-18T15:44:24Z</time></trkpt><trkpt lat="56.060632676292265" lon="22.161752671208436"><ele>129.6</ele><time>2026-04-18T15:44:25Z</time></trkpt><trkpt lat="56.06054648146935" lon="22.161691188629124"><ele>129.4</ele><time>2026-04-18T15:44:26Z</time></trkpt><trkpt lat="56.060445052014096" lon="22.161626492458648"><ele>129.2</ele><time>2026-04-18T15:44:27Z</time></trkpt><trkpt lat="56.06035635765627" lon="22.161567530282674"><ele>129.0</ele><time>2026-04-18T15:44:28Z</time></trkpt><trkpt lat="56.06026074046323" lon="22.16150640726656"><ele>129.4</ele><time>2026-04-18T15:44:29Z</time></trkpt><trkpt lat="56.06017909566412" lon="22.16145160816376"><ele>129.8</ele><time>2026-04-18T15:44:30Z</time></trkpt><trkpt lat="56.06007634065467" lon="22.16138756819219"><ele>130.2</ele><time>2026-04-18T15:44:31Z</time></trkpt><trkpt lat="56.059993503706416" lon="22.16133151489359"><ele>130.6</ele><time>2026-04-18T15:44:32Z</time></trkpt><trkpt lat="56.05991439199378" lon="22.161272461808327"><ele>131.0</ele><time>2026-04-18T15:44:33Z</time></trkpt><trkpt lat="56.05983240311151" lon="22.161218896190032"><ele>131.0</ele><time>2026-04-18T15:44:34Z</time></trkpt><trkpt lat="56.059727685068545" lon="22.16115119229421"><ele>131.0</ele><time>2026-04-18T15:44:35Z</time></trkpt><trkpt lat="56.05963678647522" lon="22.161086788147635"><ele>131.0</ele><time>2026-04-18T15:44:36Z</time></trkpt><trkpt lat="56.059539142913486" lon="22.161019779470504"><ele>131.0</ele><time>2026-04-18T15:44:37Z</time></trkpt><trkpt lat="56.05945239409014" lon="22.160963518515636"><ele>131.0</ele><time>2026-04-18T15:44:38Z</time></trkpt><trkpt lat="56.05937947016965" lon="22.160912353796142"><ele>131.0</ele><time>2026-04-18T15:44:39Z</time></trkpt><trkpt lat="56.05927171080355" lon="22.160841243270006"><ele>131.0</ele><time>2026-04-18T15:44:41Z</time></trkpt><trkpt lat="56.059186034566785" lon="22.160809072072684"><ele>131.0</ele><time>2026-04-18T15:44:42Z</time></trkpt><trkpt lat="56.05911917856081" lon="22.160809238486667"><ele>131.0</ele><time>2026-04-18T15:44:43Z</time></trkpt><trkpt lat="56.0590416282991" lon="22.16078370124875"><ele>131.0</ele><time>2026-04-18T15:44:44Z</time></trkpt><trkpt lat="56.058955646182405" lon="22.160883441287965"><ele>131.8</ele><time>2026-04-18T15:44:45Z</time></trkpt><trkpt lat="56.058898922196136" lon="22.161033813114454"><ele>132.6</ele><time>2026-04-18T15:44:46Z</time></trkpt><trkpt lat="56.05882757758212" lon="22.161162704819443"><ele>133.4</ele><time>2026-04-18T15:44:48Z</time></trkpt><trkpt lat="56.05875746308776" lon="22.161131627968707"><ele>134.2</ele><time>2026-04-18T15:44:49Z</time></trkpt><trkpt lat="56.05864357097497" lon="22.161076963942808"><ele>135.0</ele><time>2026-04-18T15:44:51Z</time></trkpt><trkpt lat="56.05857879889788" lon="22.161050999593687"><ele>135.0</ele><time>2026-04-18T15:44:52Z</time></trkpt><trkpt lat="56.058499181175414" lon="22.16102286517853"><ele>135.0</ele><time>2026-04-18T15:44:53Z</time></trkpt><trkpt lat="56.05843015275871" lon="22.16096137270605"><ele>135.0</ele><time>2026-04-18T15:44:54Z</time></trkpt><trkpt lat="56.058356376132785" lon="22.16092338061707"><ele>135.0</ele><time>2026-04-18T15:44:55Z</time></trkpt><trkpt lat="56.05827806834731" lon="22.160883120484474"><ele>135.0</ele><time>2026-04-18T15:44:56Z</time></trkpt><trkpt lat="56.05819632265696" lon="22.160841258080147"><ele>135.0</ele><time>2026-04-18T15:44:57Z</time></trkpt><trkpt lat="56.058119207605024" lon="22.160801420450408"><ele>135.0</ele><time>2026-04-18T15:44:58Z</time></trkpt><trkpt lat="56.05803537864144" lon="22.160786184124667"><ele>135.0</ele><time>2026-04-18T15:44:59Z</time></trkpt><trkpt lat="56.057961969647984" lon="22.1607417858172"><ele>135.0</ele><time>2026-04-18T15:45:00Z</time></trkpt><trkpt lat="56.05789192440509" lon="22.16070856425804"><ele>135.0</ele><time>2026-04-18T15:45:01Z</time></trkpt><trkpt lat="56.057818945197624" lon="22.160666101447486"><ele>135.0</ele><time>2026-04-18T15:45:02Z</time></trkpt><trkpt lat="56.057741034195985" lon="22.160619374571862"><ele>135.0</ele><time>2026-04-18T15:45:03Z</time></trkpt><trkpt lat="56.057660880857" lon="22.160576750996643"><ele>135.0</ele><time>2026-04-18T15:45:04Z</time></trkpt><trkpt lat="56.05758671956574" lon="22.160539461118628"><ele>135.0</ele><time>2026-04-18T15:45:05Z</time></trkpt><trkpt lat="56.05751183280884" lon="22.16051169429701"><ele>135.0</ele><time>2026-04-18T15:45:06Z</time></trkpt><trkpt lat="56.05743698002679" lon="22.160478989187293"><ele>135.0</ele><time>2026-04-18T15:45:07Z</time></trkpt><trkpt lat="56.057331482431145" lon="22.160494978832794"><ele>135.0</ele><time>2026-04-18T15:45:09Z</time></trkpt><trkpt lat="56.05726137351753" lon="22.16050560482645"><ele>135.0</ele><time>2026-04-18T15:45:10Z</time></trkpt><trkpt lat="56.057190382774074" lon="22.160516364462104"><ele>136.83333333333334</ele><time>2026-04-18T15:45:11Z</time></trkpt><trkpt lat="56.05711464074803" lon="22.160527844377576"><ele>138.66666666666666</ele><time>2026-04-18T15:45:12Z</time></trkpt><trkpt lat="56.05698546748146" lon="22.160497798372607"><ele>140.5</ele><time>2026-04-18T15:45:14Z</time></trkpt><trkpt lat="56.056917085794" lon="22.160488972071807"><ele>142.33333333333331</ele><time>2026-04-18T15:45:15Z</time></trkpt><trkpt lat="56.05683645407074" lon="22.16041885486538"><ele>144.16666666666666</ele><time>2026-04-18T15:45:17Z</time></trkpt><trkpt lat="56.05676994516775" lon="22.160366157683445"><ele>146.0</ele><time>2026-04-18T15:45:18Z</time></trkpt><trkpt lat="56.056703356359044" lon="22.160313378630896"><ele>146.0</ele><time>2026-04-18T15:45:19Z</time></trkpt><trkpt lat="56.05662640453503" lon="22.160252457186782"><ele>146.0</ele><time>2026-04-18T15:45:20Z</time></trkpt><trkpt lat="56.056526778125566" lon="22.160186353131998"><ele>146.0</ele><time>2026-04-18T15:45:21Z</time></trkpt><trkpt lat="56.056442152328444" lon="22.16013283590635"><ele>146.0</ele><time>2026-04-18T15:45:22Z</time></trkpt><trkpt lat="56.056359141903066" lon="22.160080337330662"><ele>146.0</ele><time>2026-04-18T15:45:23Z</time></trkpt><trkpt lat="56.05628912738681" lon="22.16003602778755"><ele>146.0</ele><time>2026-04-18T15:45:24Z</time></trkpt><trkpt lat="56.05622655204784" lon="22.15999638786025"><ele>145.83333333333331</ele><time>2026-04-18T15:45:25Z</time></trkpt><trkpt lat="56.05614318707969" lon="22.159973172163497"><ele>145.66666666666666</ele><time>2026-04-18T15:45:26Z</time></trkpt><trkpt lat="56.056054756294614" lon="22.15997084034179"><ele>145.5</ele><time>2026-04-18T15:45:27Z</time></trkpt><trkpt lat="56.05598365638073" lon="22.159975523360302"><ele>145.33333333333334</ele><time>2026-04-18T15:45:28Z</time></trkpt><trkpt lat="56.055905358992256" lon="22.159980680458244"><ele>145.16666666666669</ele><time>2026-04-18T15:45:29Z</time></trkpt><trkpt lat="56.05583338619176" lon="22.1599854205895"><ele>145.0</ele><time>2026-04-18T15:45:30Z</time></trkpt><trkpt lat="56.05573631072" lon="22.15993520639511"><ele>145.0</ele><time>2026-04-18T15:45:32Z</time></trkpt><trkpt lat="56.05567216738123" lon="22.159916446206218"><ele>145.0</ele><time>2026-04-18T15:45:33Z</time></trkpt><trkpt lat="56.05560987666413" lon="22.159898227860957"><ele>145.0</ele><time>2026-04-18T15:45:34Z</time></trkpt><trkpt lat="56.05542677353275" lon="22.15959552950109"><ele>145.0</ele><time>2026-04-18T15:45:36Z</time></trkpt><trkpt lat="56.055050650423524" lon="22.159940164104416"><ele>143.0</ele><time>2026-04-18T15:45:37Z</time></trkpt><trkpt lat="56.05500667342022" lon="22.16002678918564"><ele>141.0</ele><time>2026-04-18T15:45:38Z</time></trkpt><trkpt lat="56.05510959130147" lon="22.16059919976591"><ele>139.0</ele><time>2026-04-18T15:45:39Z</time></trkpt><trkpt lat="56.05507114571459" lon="22.160764708755277"><ele>138.6</ele><time>2026-04-18T15:45:42Z</time></trkpt><trkpt lat="56.05505569055913" lon="22.16089672809395"><ele>138.2</ele><time>2026-04-18T15:45:44Z</time></trkpt><trkpt lat="56.05502009559577" lon="22.16108775042326"><ele>137.79999999999998</ele><time>2026-04-18T15:45:46Z</time></trkpt><trkpt lat="56.05499978678159" lon="22.161196793321782"><ele>137.4</ele><time>2026-04-18T15:45:47Z</time></trkpt><trkpt lat="56.05496447868261" lon="22.161422773593014"><ele>137.0</ele><time>2026-04-18T15:45:49Z</time></trkpt><trkpt lat="56.05494372126893" lon="22.16155537061317"><ele>137.0</ele><time>2026-04-18T15:45:50Z</time></trkpt><trkpt lat="56.05492453478218" lon="22.161678031481"><ele>137.0</ele><time>2026-04-18T15:45:51Z</time></trkpt><trkpt lat="56.05490095528968" lon="22.16182878408609"><ele>137.0</ele><time>2026-04-18T15:45:52Z</time></trkpt><trkpt lat="56.054869503999875" lon="22.162029864303896"><ele>137.0</ele><time>2026-04-18T15:45:54Z</time></trkpt><trkpt lat="56.05484853893579" lon="22.162220486221138"><ele>137.0</ele><time>2026-04-18T15:45:56Z</time></trkpt><trkpt lat="56.05483735873067" lon="22.162343894988265"><ele>137.0</ele><time>2026-04-18T15:45:57Z</time></trkpt><trkpt lat="56.05482554063279" lon="22.162474344786943"><ele>137.0</ele><time>2026-04-18T15:45:58Z</time></trkpt><trkpt lat="56.05481375261326" lon="22.162604418939118"><ele>137.0</ele><time>2026-04-18T15:45:59Z</time></trkpt><trkpt lat="56.05479964605966" lon="22.16276006760742"><ele>137.0</ele><time>2026-04-18T15:46:00Z</time></trkpt><trkpt lat="56.054784773298145" lon="22.162924170423786"><ele>137.0</ele><time>2026-04-18T15:46:01Z</time></trkpt><trkpt lat="56.054772387173465" lon="22.163060836241584"><ele>137.0</ele><time>2026-04-18T15:46:02Z</time></trkpt><trkpt lat="56.054759506682586" lon="22.163202958269657"><ele>136.79999999999998</ele><time>2026-04-18T15:46:03Z</time></trkpt><trkpt lat="56.05477371255139" lon="22.16339589786188"><ele>136.6</ele><time>2026-04-18T15:46:05Z</time></trkpt><trkpt lat="56.054812606324255" lon="22.163559470508726"><ele>136.39999999999998</ele><time>2026-04-18T15:46:07Z</time></trkpt><trkpt lat="56.05484669082845" lon="22.16366772011747"><ele>136.2</ele><time>2026-04-18T15:46:08Z</time></trkpt><trkpt lat="56.054890788021915" lon="22.16381033222919"><ele>136.0</ele><time>2026-04-18T15:46:09Z</time></trkpt><trkpt lat="56.05493932687233" lon="22.163967309012833"><ele>136.0</ele><time>2026-04-18T15:46:10Z</time></trkpt><trkpt lat="56.05499825991863" lon="22.164157578312366"><ele>136.0</ele><time>2026-04-18T15:46:11Z</time></trkpt><trkpt lat="56.05505106507045" lon="22.1643272854663"><ele>136.0</ele><time>2026-04-18T15:46:12Z</time></trkpt><trkpt lat="56.055077524628075" lon="22.164474159554246"><ele>136.0</ele><time>2026-04-18T15:46:13Z</time></trkpt><trkpt lat="56.05510662736849" lon="22.16462059873374"><ele>136.0</ele><time>2026-04-18T15:46:14Z</time></trkpt><trkpt lat="56.05510316153994" lon="22.16480213420473"><ele>136.2</ele><time>2026-04-18T15:46:15Z</time></trkpt><trkpt lat="56.055102261112154" lon="22.165008212970776"><ele>136.39999999999998</ele><time>2026-04-18T15:46:16Z</time></trkpt><trkpt lat="56.05506384592576" lon="22.16521034987735"><ele>136.6</ele><time>2026-04-18T15:46:17Z</time></trkpt><trkpt lat="56.05504362722581" lon="22.165378980921254"><ele>136.79999999999998</ele><time>2026-04-18T15:46:18Z</time></trkpt><trkpt lat="56.055037035774085" lon="22.16552867489008"><ele>137.0</ele><time>2026-04-18T15:46:19Z</time></trkpt><trkpt lat="56.05501906496349" lon="22.165662061355214"><ele>137.0</ele><time>2026-04-18T15:46:20Z</time></trkpt><trkpt lat="56.054999877139714" lon="22.165804481598986"><ele>137.0</ele><time>2026-04-18T15:46:21Z</time></trkpt><trkpt lat="56.05498363023598" lon="22.16597490905128"><ele>137.0</ele><time>2026-04-18T15:46:22Z</time></trkpt><trkpt lat="56.054966527584995" lon="22.166145363975748"><ele>137.0</ele><time>2026-04-18T15:46:23Z</time></trkpt><trkpt lat="56.054950137942946" lon="22.166350216486745"><ele>137.0</ele><time>2026-04-18T15:46:24Z</time></trkpt><trkpt lat="56.05494042337726" lon="22.1665523381695"><ele>137.0</ele><time>2026-04-18T15:46:25Z</time></trkpt><trkpt lat="56.054937277539466" lon="22.16673170726641"><ele>137.0</ele><time>2026-04-18T15:46:26Z</time></trkpt><trkpt lat="56.054937855240574" lon="22.166915747344095"><ele>137.0</ele><time>2026-04-18T15:46:27Z</time></trkpt><trkpt lat="56.05493615881425" lon="22.167076869297023"><ele>137.0</ele><time>2026-04-18T15:46:28Z</time></trkpt><trkpt lat="56.05493328305334" lon="22.16720520014974"><ele>137.0</ele><time>2026-04-18T15:46:29Z</time></trkpt><trkpt lat="56.054930257166724" lon="22.16734023019192"><ele>137.0</ele><time>2026-04-18T15:46:30Z</time></trkpt><trkpt lat="56.054925554175796" lon="22.167536691863138"><ele>137.2</ele><time>2026-04-18T15:46:32Z</time></trkpt><trkpt lat="56.054921196265624" lon="22.16770971369082"><ele>137.39999999999998</ele><time>2026-04-18T15:46:34Z</time></trkpt><trkpt lat="56.05491233998725" lon="22.167873358220724"><ele>137.60000000000002</ele><time>2026-04-18T15:46:36Z</time></trkpt><trkpt lat="56.05490220285737" lon="22.168068194791882"><ele>137.8</ele><time>2026-04-18T15:46:38Z</time></trkpt><trkpt lat="56.054891873590925" lon="22.168237056175727"><ele>138.0</ele><time>2026-04-18T15:46:39Z</time></trkpt><trkpt lat="56.05487573818631" lon="22.16838138039997"><ele>138.0</ele><time>2026-04-18T15:46:40Z</time></trkpt><trkpt lat="56.05485976771627" lon="22.168523630122273"><ele>138.0</ele><time>2026-04-18T15:46:41Z</time></trkpt><trkpt lat="56.0548440458839" lon="22.16866366528489"><ele>138.0</ele><time>2026-04-18T15:46:42Z</time></trkpt><trkpt lat="56.05481647295315" lon="22.16890285526009"><ele>138.0</ele><time>2026-04-18T15:46:44Z</time></trkpt><trkpt lat="56.05479374733727" lon="22.169044416227383"><ele>138.0</ele><time>2026-04-18T15:46:46Z</time></trkpt><trkpt lat="56.054766904543335" lon="22.16921162362151"><ele>138.0</ele><time>2026-04-18T15:46:48Z</time></trkpt><trkpt lat="56.05473809493075" lon="22.169391222519664"><ele>138.0</ele><time>2026-04-18T15:46:50Z</time></trkpt><trkpt lat="56.05470074234798" lon="22.169519857729092"><ele>138.0</ele><time>2026-04-18T15:46:51Z</time></trkpt><trkpt lat="56.054663658101184" lon="22.169643763697174"><ele>138.0</ele><time>2026-04-18T15:46:53Z</time></trkpt><trkpt lat="56.054625348276915" lon="22.169771766802402"><ele>138.0</ele><time>2026-04-18T15:46:55Z</time></trkpt><trkpt lat="56.054563293489224" lon="22.169869081375012"><ele>138.0</ele><time>2026-04-18T15:46:56Z</time></trkpt><trkpt lat="56.05451152289593" lon="22.169979634416173"><ele>138.0</ele><time>2026-04-18T15:46:58Z</time></trkpt><trkpt lat="56.05443428863624" lon="22.17006420522734"><ele>138.0</ele><time>2026-04-18T15:47:00Z</time></trkpt><trkpt lat="56.05436356553552" lon="22.170165614568965"><ele>138.0</ele><time>2026-04-18T15:47:02Z</time></trkpt><trkpt lat="56.05426577980826" lon="22.17024848959591"><ele>138.0</ele><time>2026-04-18T15:47:04Z</time></trkpt><trkpt lat="56.05419916941824" lon="22.1703749090844"><ele>138.0</ele><time>2026-04-18T15:47:06Z</time></trkpt><trkpt lat="56.05413018366082" lon="22.17046271518368"><ele>138.0</ele><time>2026-04-18T15:47:08Z</time></trkpt><trkpt lat="56.05407974734066" lon="22.170628453669604"><ele>138.0</ele><time>2026-04-18T15:47:10Z</time></trkpt><trkpt lat="56.054070303361215" lon="22.17084034017423"><ele>138.0</ele><time>2026-04-18T15:47:12Z</time></trkpt><trkpt lat="56.054066837149854" lon="22.17096613620803"><ele>138.0</ele><time>2026-04-18T15:47:13Z</time></trkpt><trkpt lat="56.05406358277764" lon="22.171082278738805"><ele>138.0</ele><time>2026-04-18T15:47:14Z</time></trkpt><trkpt lat="56.05405614643475" lon="22.171291645690815"><ele>137.8</ele><time>2026-04-18T15:47:16Z</time></trkpt><trkpt lat="56.05405467782513" lon="22.171457562246626"><ele>137.60000000000002</ele><time>2026-04-18T15:47:18Z</time></trkpt><trkpt lat="56.05404647919617" lon="22.171624516567146"><ele>137.39999999999998</ele><time>2026-04-18T15:47:20Z</time></trkpt><trkpt lat="56.05403336522721" lon="22.171812867591377"><ele>137.2</ele><time>2026-04-18T15:47:22Z</time></trkpt><trkpt lat="56.05400481442972" lon="22.172031219590433"><ele>137.0</ele><time>2026-04-18T15:47:24Z</time></trkpt><trkpt lat="56.0539730442625" lon="22.1722172674569"><ele>136.83333333333331</ele><time>2026-04-18T15:47:26Z</time></trkpt><trkpt lat="56.053932069677984" lon="22.17237984621104"><ele>136.66666666666666</ele><time>2026-04-18T15:47:28Z</time></trkpt><trkpt lat="56.053910188283815" lon="22.172512482131825"><ele>136.5</ele><time>2026-04-18T15:47:30Z</time></trkpt><trkpt lat="56.05386453326742" lon="22.17262740200856"><ele>136.33333333333334</ele><time>2026-04-18T15:47:32Z</time></trkpt><trkpt lat="56.05382371673043" lon="22.17276871594287"><ele>136.16666666666669</ele><time>2026-04-18T15:47:34Z</time></trkpt><trkpt lat="56.05378433922868" lon="22.17293399872552"><ele>136.0</ele><time>2026-04-18T15:47:36Z</time></trkpt><trkpt lat="56.05375590614332" lon="22.173105028799217"><ele>136.0</ele><time>2026-04-18T15:47:38Z</time></trkpt><trkpt lat="56.053738434742996" lon="22.17329581634085"><ele>136.0</ele><time>2026-04-18T15:47:40Z</time></trkpt><trkpt lat="56.05372145228651" lon="22.17346664483562"><ele>136.0</ele><time>2026-04-18T15:47:42Z</time></trkpt><trkpt lat="56.053715894708986" lon="22.17366246059712"><ele>136.0</ele><time>2026-04-18T15:47:44Z</time></trkpt><trkpt lat="56.05367669058283" lon="22.173845936743337"><ele>136.0</ele><time>2026-04-18T15:47:46Z</time></trkpt><trkpt lat="56.0536345365391" lon="22.17398624291466"><ele>135.66666666666669</ele><time>2026-04-18T15:47:48Z</time></trkpt><trkpt lat="56.053595920974544" lon="22.174143719047688"><ele>135.33333333333334</ele><time>2026-04-18T15:47:50Z</time></trkpt><trkpt lat="56.05355600774642" lon="22.174306370446207"><ele>135.0</ele><time>2026-04-18T15:47:52Z</time></trkpt><trkpt lat="56.05351707110771" lon="22.174465042127267"><ele>134.66666666666666</ele><time>2026-04-18T15:47:54Z</time></trkpt><trkpt lat="56.05348813360903" lon="22.17458296598918"><ele>134.33333333333331</ele><time>2026-04-18T15:47:56Z</time></trkpt><trkpt lat="56.05346022332104" lon="22.174696703927125"><ele>134.0</ele><time>2026-04-18T15:47:58Z</time></trkpt><trkpt lat="56.053423950164415" lon="22.174847334594578"><ele>133.66666666666666</ele><time>2026-04-18T15:48:00Z</time></trkpt><trkpt lat="56.05343379394918" lon="22.1750306493855"><ele>133.33333333333331</ele><time>2026-04-18T15:48:02Z</time></trkpt><trkpt lat="56.05341276154274" lon="22.17519479584967"><ele>133.0</ele><time>2026-04-18T15:48:04Z</time></trkpt><trkpt lat="56.0534072713851" lon="22.175342487453467"><ele>132.66666666666666</ele><time>2026-04-18T15:48:06Z</time></trkpt><trkpt lat="56.05340270040096" lon="22.175465453274224"><ele>132.33333333333334</ele><time>2026-04-18T15:48:08Z</time></trkpt><trkpt lat="56.053366313309226" lon="22.175597873926275"><ele>132.0</ele><time>2026-04-18T15:48:11Z</time></trkpt><trkpt lat="56.053302379743926" lon="22.1756451322798"><ele>131.83333333333334</ele><time>2026-04-18T15:48:13Z</time></trkpt><trkpt lat="56.053229450725794" lon="22.17574263076722"><ele>131.66666666666666</ele><time>2026-04-18T15:48:15Z</time></trkpt><trkpt lat="56.053181976668775" lon="22.175864484590875"><ele>131.5</ele><time>2026-04-18T15:48:17Z</time></trkpt><trkpt lat="56.05314101737751" lon="22.175969617723737"><ele>131.33333333333331</ele><time>2026-04-18T15:48:19Z</time></trkpt><trkpt lat="56.053136423940444" lon="22.17611470884878"><ele>131.16666666666666</ele><time>2026-04-18T15:48:21Z</time></trkpt><trkpt lat="56.05313998846856" lon="22.176256736944733"><ele>131.0</ele><time>2026-04-18T15:48:23Z</time></trkpt><trkpt lat="56.05317001275466" lon="22.176402736426457"><ele>131.0</ele><time>2026-04-18T15:48:25Z</time></trkpt><trkpt lat="56.05320802774591" lon="22.176537253938278"><ele>131.0</ele><time>2026-04-18T15:48:27Z</time></trkpt><trkpt lat="56.05323326294517" lon="22.176709320057718"><ele>131.0</ele><time>2026-04-18T15:48:29Z</time></trkpt><trkpt lat="56.05321963253404" lon="22.17690167492396"><ele>131.0</ele><time>2026-04-18T15:48:31Z</time></trkpt><trkpt lat="56.05320346438313" lon="22.17708094933245"><ele>131.0</ele><time>2026-04-18T15:48:33Z</time></trkpt><trkpt lat="56.05318308921075" lon="22.177255690841722"><ele>131.2</ele><time>2026-04-18T15:48:35Z</time></trkpt><trkpt lat="56.05316709226846" lon="22.177429131813987"><ele>131.39999999999998</ele><time>2026-04-18T15:48:37Z</time></trkpt><trkpt lat="56.053129079552384" lon="22.177647197889694"><ele>131.6</ele><time>2026-04-18T15:48:39Z</time></trkpt><trkpt lat="56.05312717887769" lon="22.177798677154602"><ele>131.79999999999998</ele><time>2026-04-18T15:48:40Z</time></trkpt><trkpt lat="56.053108459001585" lon="22.17794720402633"><ele>132.0</ele><time>2026-04-18T15:48:41Z</time></trkpt><trkpt lat="56.053064431539724" lon="22.178333290378017"><ele>132.5</ele><time>2026-04-18T15:48:43Z</time></trkpt><trkpt lat="56.05303644652315" lon="22.17854544657976"><ele>133.0</ele><time>2026-04-18T15:48:44Z</time></trkpt><trkpt lat="56.05300957813144" lon="22.17877374707986"><ele>133.5</ele><time>2026-04-18T15:48:45Z</time></trkpt><trkpt lat="56.05297844780167" lon="22.179040721200057"><ele>134.0</ele><time>2026-04-18T15:48:46Z</time></trkpt><trkpt lat="56.05294593177661" lon="22.179301557554627"><ele>134.0</ele><time>2026-04-18T15:48:47Z</time></trkpt><trkpt lat="56.052918844051646" lon="22.179518798577437"><ele>134.0</ele><time>2026-04-18T15:48:48Z</time></trkpt><trkpt lat="56.0528976958982" lon="22.179713642628045"><ele>134.0</ele><time>2026-04-18T15:48:49Z</time></trkpt><trkpt lat="56.05287591178166" lon="22.17990059182575"><ele>134.0</ele><time>2026-04-18T15:48:50Z</time></trkpt><trkpt lat="56.05285506243546" lon="22.18009601799045"><ele>133.2</ele><time>2026-04-18T15:48:51Z</time></trkpt><trkpt lat="56.052831456918426" lon="22.180293696053624"><ele>132.4</ele><time>2026-04-18T15:48:52Z</time></trkpt><trkpt lat="56.052807607638506" lon="22.180490741021465"><ele>131.6</ele><time>2026-04-18T15:48:53Z</time></trkpt><trkpt lat="56.05278379026439" lon="22.180683374273745"><ele>130.8</ele><time>2026-04-18T15:48:54Z</time></trkpt><trkpt lat="56.052753736990915" lon="22.180875833027827"><ele>130.0</ele><time>2026-04-18T15:48:55Z</time></trkpt><trkpt lat="56.052730864033876" lon="22.181071925576077"><ele>130.0</ele><time>2026-04-18T15:48:56Z</time></trkpt><trkpt lat="56.052700640571196" lon="22.181265233241152"><ele>130.0</ele><time>2026-04-18T15:48:57Z</time></trkpt><trkpt lat="56.052668430503935" lon="22.18146948972528"><ele>130.0</ele><time>2026-04-18T15:48:58Z</time></trkpt><trkpt lat="56.05263336511366" lon="22.1816703133797"><ele>130.0</ele><time>2026-04-18T15:48:59Z</time></trkpt><trkpt lat="56.0525943443501" lon="22.181881782029343"><ele>130.0</ele><time>2026-04-18T15:49:00Z</time></trkpt><trkpt lat="56.05255646516667" lon="22.182089373983278"><ele>130.0</ele><time>2026-04-18T15:49:01Z</time></trkpt><trkpt lat="56.05251522277819" lon="22.182294359142272"><ele>130.0</ele><time>2026-04-18T15:49:02Z</time></trkpt><trkpt lat="56.05247010795365" lon="22.182494779690398"><ele>130.0</ele><time>2026-04-18T15:49:03Z</time></trkpt><trkpt lat="56.052426147185926" lon="22.182693350556534"><ele>132.2</ele><time>2026-04-18T15:49:04Z</time></trkpt><trkpt lat="56.05238312501606" lon="22.182877180323654"><ele>134.4</ele><time>2026-04-18T15:49:05Z</time></trkpt><trkpt lat="56.05234848807355" lon="22.18305258672212"><ele>136.6</ele><time>2026-04-18T15:49:06Z</time></trkpt><trkpt lat="56.05231219491616" lon="22.18323700699943"><ele>138.8</ele><time>2026-04-18T15:49:07Z</time></trkpt><trkpt lat="56.05227715310066" lon="22.183428920264763"><ele>141.0</ele><time>2026-04-18T15:49:08Z</time></trkpt><trkpt lat="56.0522440387869" lon="22.183619618535754"><ele>141.16666666666666</ele><time>2026-04-18T15:49:09Z</time></trkpt><trkpt lat="56.05221127575107" lon="22.183793539167056"><ele>141.33333333333334</ele><time>2026-04-18T15:49:10Z</time></trkpt><trkpt lat="56.05218082524111" lon="22.183939727467184"><ele>141.5</ele><time>2026-04-18T15:49:11Z</time></trkpt><trkpt lat="56.05215632123414" lon="22.184058656316175"><ele>141.66666666666669</ele><time>2026-04-18T15:49:12Z</time></trkpt><trkpt lat="56.05212348886873" lon="22.18422715606051"><ele>141.83333333333334</ele><time>2026-04-18T15:49:14Z</time></trkpt><trkpt lat="56.05207789531135" lon="22.184310459218796"><ele>142.0</ele><time>2026-04-18T15:49:18Z</time></trkpt><trkpt lat="56.05197482096252" lon="22.184189557021874"><ele>142.0</ele><time>2026-04-18T15:49:19Z</time></trkpt><trkpt lat="56.051848467476" lon="22.184039978957244"><ele>142.0</ele><time>2026-04-18T15:49:21Z</time></trkpt><trkpt lat="56.051770326253596" lon="22.18389930749605"><ele>142.0</ele><time>2026-04-18T15:49:22Z</time></trkpt><trkpt lat="56.051673364188254" lon="22.183762223718826"><ele>142.0</ele><time>2026-04-18T15:49:23Z</time></trkpt><trkpt lat="56.05158565233649" lon="22.18362737606323"><ele>141.79999999999998</ele><time>2026-04-18T15:49:24Z</time></trkpt><trkpt lat="56.0515073216965" lon="22.183531746855845"><ele>141.6</ele><time>2026-04-18T15:49:25Z</time></trkpt><trkpt lat="56.05142938475129" lon="22.18340278373752"><ele>141.39999999999998</ele><time>2026-04-18T15:49:26Z</time></trkpt><trkpt lat="56.05134344406203" lon="22.18328171871523"><ele>141.2</ele><time>2026-04-18T15:49:27Z</time></trkpt><trkpt lat="56.05126093514503" lon="22.18316702761829"><ele>141.0</ele><time>2026-04-18T15:49:28Z</time></trkpt><trkpt lat="56.05117682572674" lon="22.18303577879097"><ele>141.0</ele><time>2026-04-18T15:49:29Z</time></trkpt><trkpt lat="56.05108927278654" lon="22.182898959569705"><ele>141.0</ele><time>2026-04-18T15:49:30Z</time></trkpt><trkpt lat="56.05100444035258" lon="22.18275381552536"><ele>141.0</ele><time>2026-04-18T15:49:31Z</time></trkpt><trkpt lat="56.0509271980453" lon="22.18263869712912"><ele>141.0</ele><time>2026-04-18T15:49:32Z</time></trkpt><trkpt lat="56.050852472617116" lon="22.18251787468759"><ele>141.0</ele><time>2026-04-18T15:49:33Z</time></trkpt><trkpt lat="56.05078277172615" lon="22.18240647758988"><ele>140.8</ele><time>2026-04-18T15:49:34Z</time></trkpt><trkpt lat="56.050709051318655" lon="22.1822873109385"><ele>140.6</ele><time>2026-04-18T15:49:35Z</time></trkpt><trkpt lat="56.0506440470529" lon="22.18217930811699"><ele>140.4</ele><time>2026-04-18T15:49:36Z</time></trkpt><trkpt lat="56.050581956540746" lon="22.182076740244366"><ele>140.2</ele><time>2026-04-18T15:49:37Z</time></trkpt><trkpt lat="56.05051069553711" lon="22.181968047705535"><ele>140.0</ele><time>2026-04-18T15:49:38Z</time></trkpt><trkpt lat="56.05042804363183" lon="22.181861485242468"><ele>140.0</ele><time>2026-04-18T15:49:39Z</time></trkpt><trkpt lat="56.05033204810889" lon="22.1817669471364"><ele>140.0</ele><time>2026-04-18T15:49:40Z</time></trkpt><trkpt lat="56.05022934282036" lon="22.18166844844898"><ele>140.0</ele><time>2026-04-18T15:49:41Z</time></trkpt><trkpt lat="56.05011890239789" lon="22.181590661894848"><ele>140.0</ele><time>2026-04-18T15:49:42Z</time></trkpt><trkpt lat="56.04997933185876" lon="22.1814981472231"><ele>138.66666666666666</ele><time>2026-04-18T15:49:43Z</time></trkpt><trkpt lat="56.049820488395866" lon="22.181400316145933"><ele>137.33333333333334</ele><time>2026-04-18T15:49:44Z</time></trkpt><trkpt lat="56.04964060343489" lon="22.181288132135347"><ele>136.0</ele><time>2026-04-18T15:49:45Z</time></trkpt><trkpt lat="56.04946495624146" lon="22.18115297261113"><ele>136.0</ele><time>2026-04-18T15:49:46Z</time></trkpt><trkpt lat="56.04930169167618" lon="22.18108169996046"><ele>136.0</ele><time>2026-04-18T15:49:47Z</time></trkpt><trkpt lat="56.04915111119373" lon="22.181007095465493"><ele>136.0</ele><time>2026-04-18T15:49:48Z</time></trkpt><trkpt lat="56.04901701712721" lon="22.18093883433586"><ele>135.0</ele><time>2026-04-18T15:49:49Z</time></trkpt><trkpt lat="56.04887205374532" lon="22.18085918859717"><ele>134.0</ele><time>2026-04-18T15:49:50Z</time></trkpt><trkpt lat="56.04872976222145" lon="22.18078554730189"><ele>133.0</ele><time>2026-04-18T15:49:51Z</time></trkpt><trkpt lat="56.04859645490039" lon="22.180718721641867"><ele>132.0</ele><time>2026-04-18T15:49:52Z</time></trkpt><trkpt lat="56.04846182430795" lon="22.18065522545684"><ele>132.0</ele><time>2026-04-18T15:49:53Z</time></trkpt><trkpt lat="56.04832471802208" lon="22.180588109836837"><ele>132.0</ele><time>2026-04-18T15:49:54Z</time></trkpt><trkpt lat="56.04818763276099" lon="22.180517659595758"><ele>132.0</ele><time>2026-04-18T15:49:55Z</time></trkpt><trkpt lat="56.04806412300841" lon="22.18041620984586"><ele>132.0</ele><time>2026-04-18T15:49:56Z</time></trkpt><trkpt lat="56.0479237987269" lon="22.180362379858366"><ele>131.25</ele><time>2026-04-18T15:49:57Z</time></trkpt><trkpt lat="56.047796763346426" lon="22.180275171674506"><ele>130.5</ele><time>2026-04-18T15:49:58Z</time></trkpt><trkpt lat="56.04766306349049" lon="22.180195002006336"><ele>129.75</ele><time>2026-04-18T15:49:59Z</time></trkpt><trkpt lat="56.047528188213235" lon="22.180118572308675"><ele>129.0</ele><time>2026-04-18T15:50:00Z</time></trkpt><trkpt lat="56.04738575366405" lon="22.18003676137138"><ele>128.75</ele><time>2026-04-18T15:50:01Z</time></trkpt><trkpt lat="56.04724875581797" lon="22.179960690844894"><ele>128.5</ele><time>2026-04-18T15:50:02Z</time></trkpt><trkpt lat="56.047119186271246" lon="22.179892903940985"><ele>128.25</ele><time>2026-04-18T15:50:03Z</time></trkpt><trkpt lat="56.04698899310398" lon="22.179822671479425"><ele>128.0</ele><time>2026-04-18T15:50:04Z</time></trkpt><trkpt lat="56.046861921486034" lon="22.17975786689484"><ele>127.75</ele><time>2026-04-18T15:50:05Z</time></trkpt><trkpt lat="56.046742128480155" lon="22.179697373741394"><ele>127.5</ele><time>2026-04-18T15:50:06Z</time></trkpt><trkpt lat="56.046625529869466" lon="22.17963613325665"><ele>127.25</ele><time>2026-04-18T15:50:07Z</time></trkpt><trkpt lat="56.046519903216556" lon="22.17957717665097"><ele>127.0</ele><time>2026-04-18T15:50:08Z</time></trkpt><trkpt lat="56.046420971234824" lon="22.179519045337194"><ele>127.0</ele><time>2026-04-18T15:50:09Z</time></trkpt><trkpt lat="56.04633312046945" lon="22.17946362952348"><ele>126.99999999999999</ele><time>2026-04-18T15:50:10Z</time></trkpt><trkpt lat="56.04624545621273" lon="22.17939653335563"><ele>126.99999999999999</ele><time>2026-04-18T15:50:11Z</time></trkpt><trkpt lat="56.0461647999433" lon="22.17929968294459"><ele>127.0</ele><time>2026-04-18T15:50:12Z</time></trkpt><trkpt lat="56.046122102181" lon="22.179151594238938"><ele>127.0</ele><time>2026-04-18T15:50:13Z</time></trkpt><trkpt lat="56.046063512680405" lon="22.17902106315652"><ele>127.0</ele><time>2026-04-18T15:50:14Z</time></trkpt><trkpt lat="56.046002989114314" lon="22.17888622304297"><ele>126.99999999999999</ele><time>2026-04-18T15:50:15Z</time></trkpt><trkpt lat="56.04592729795542" lon="22.178753353052628"><ele>126.99999999999999</ele><time>2026-04-18T15:50:16Z</time></trkpt><trkpt lat="56.045908635578016" lon="22.178574811318168"><ele>127.0</ele><time>2026-04-18T15:50:17Z</time></trkpt><trkpt lat="56.04588066817222" lon="22.178365715066743"><ele>127.0</ele><time>2026-04-18T15:50:18Z</time></trkpt><trkpt lat="56.0458557706623" lon="22.17814804244846"><ele>127.25</ele><time>2026-04-18T15:50:19Z</time></trkpt><trkpt lat="56.04583074652997" lon="22.17792793250033"><ele>127.5</ele><time>2026-04-18T15:50:20Z</time></trkpt><trkpt lat="56.04580394324806" lon="22.17768942258888"><ele>127.75</ele><time>2026-04-18T15:50:21Z</time></trkpt><trkpt lat="56.04577694973664" lon="22.17744921919742"><ele>128.0</ele><time>2026-04-18T15:50:22Z</time></trkpt><trkpt lat="56.0457484225742" lon="22.17719738067206"><ele>128.0</ele><time>2026-04-18T15:50:23Z</time></trkpt><trkpt lat="56.04571987904967" lon="22.17694630477845"><ele>128.0</ele><time>2026-04-18T15:50:24Z</time></trkpt><trkpt lat="56.04567375991305" lon="22.176689211014487"><ele>128.0</ele><time>2026-04-18T15:50:25Z</time></trkpt><trkpt lat="56.0456492374675" lon="22.17643281528707"><ele>128.0</ele><time>2026-04-18T15:50:26Z</time></trkpt><trkpt lat="56.04561838284241" lon="22.176184208761214"><ele>128.0</ele><time>2026-04-18T15:50:27Z</time></trkpt><trkpt lat="56.04559029808761" lon="22.175934890681027"><ele>128.0</ele><time>2026-04-18T15:50:28Z</time></trkpt><trkpt lat="56.045565383913306" lon="22.175692310862402"><ele>128.0</ele><time>2026-04-18T15:50:29Z</time></trkpt><trkpt lat="56.04553695273149" lon="22.175442056720936"><ele>128.0</ele><time>2026-04-18T15:50:30Z</time></trkpt><trkpt lat="56.04550894657075" lon="22.17519154901507"><ele>128.0</ele><time>2026-04-18T15:50:31Z</time></trkpt><trkpt lat="56.045483182689665" lon="22.17495191556101"><ele>128.0</ele><time>2026-04-18T15:50:32Z</time></trkpt><trkpt lat="56.04545488327397" lon="22.174714385321167"><ele>128.0</ele><time>2026-04-18T15:50:33Z</time></trkpt><trkpt lat="56.04542857639477" lon="22.174485752781063"><ele>128.0</ele><time>2026-04-18T15:50:34Z</time></trkpt><trkpt lat="56.04540716814714" lon="22.174269694225707"><ele>128.25</ele><time>2026-04-18T15:50:35Z</time></trkpt><trkpt lat="56.04538058817829" lon="22.17404656572271"><ele>128.5</ele><time>2026-04-18T15:50:36Z</time></trkpt><trkpt lat="56.045356538655255" lon="22.17381293429036"><ele>128.75</ele><time>2026-04-18T15:50:37Z</time></trkpt><trkpt lat="56.04533266046949" lon="22.173583292496396"><ele>129.0</ele><time>2026-04-18T15:50:38Z</time></trkpt><trkpt lat="56.045299330203946" lon="22.173330394788632"><ele>129.25</ele><time>2026-04-18T15:50:39Z</time></trkpt><trkpt lat="56.04527030673857" lon="22.173086618970732"><ele>129.5</ele><time>2026-04-18T15:50:40Z</time></trkpt><trkpt lat="56.045243822538644" lon="22.172876015666578"><ele>129.75</ele><time>2026-04-18T15:50:41Z</time></trkpt><trkpt lat="56.04522181187449" lon="22.172690522061824"><ele>130.0</ele><time>2026-04-18T15:50:42Z</time></trkpt><trkpt lat="56.04520376634273" lon="22.172517222254665"><ele>130.2</ele><time>2026-04-18T15:50:43Z</time></trkpt><trkpt lat="56.04518188030598" lon="22.17232491658722"><ele>130.4</ele><time>2026-04-18T15:50:44Z</time></trkpt><trkpt lat="56.04516601882991" lon="22.17216349462547"><ele>130.6</ele><time>2026-04-18T15:50:45Z</time></trkpt><trkpt lat="56.04515065333762" lon="22.17200541020719"><ele>130.8</ele><time>2026-04-18T15:50:46Z</time></trkpt><trkpt lat="56.04514115988135" lon="22.17187517621108"><ele>131.0</ele><time>2026-04-18T15:50:47Z</time></trkpt><trkpt lat="56.045128496115396" lon="22.171676646031738"><ele>131.4</ele><time>2026-04-18T15:50:49Z</time></trkpt><trkpt lat="56.0450988698747" lon="22.171519379925297"><ele>131.8</ele><time>2026-04-18T15:50:51Z</time></trkpt><trkpt lat="56.045037198231476" lon="22.171348396676823"><ele>132.20000000000002</ele><time>2026-04-18T15:50:53Z</time></trkpt><trkpt lat="56.044955472732674" lon="22.171296126417403"><ele>132.6</ele><time>2026-04-18T15:50:54Z</time></trkpt><trkpt lat="56.04488637814988" lon="22.171212452853027"><ele>133.0</ele><time>2026-04-18T15:50:55Z</time></trkpt><trkpt lat="56.04479214975818" lon="22.171200679315877"><ele>133.0</ele><time>2026-04-18T15:50:56Z</time></trkpt><trkpt lat="56.04470006627503" lon="22.17117165064562"><ele>133.0</ele><time>2026-04-18T15:50:57Z</time></trkpt><trkpt lat="56.04460964118962" lon="22.171150705180544"><ele>133.0</ele><time>2026-04-18T15:50:58Z</time></trkpt><trkpt lat="56.044531264313626" lon="22.171129810772474"><ele>133.0</ele><time>2026-04-18T15:50:59Z</time></trkpt><trkpt lat="56.04446175907468" lon="22.171131629385574"><ele>133.0</ele><time>2026-04-18T15:51:00Z</time></trkpt><trkpt lat="56.04433859998788" lon="22.171100478850974"><ele>133.0</ele><time>2026-04-18T15:51:02Z</time></trkpt><trkpt lat="56.044268617324555" lon="22.171085423707495"><ele>133.0</ele><time>2026-04-18T15:51:03Z</time></trkpt><trkpt lat="56.04419462213247" lon="22.171070796068914"><ele>133.0</ele><time>2026-04-18T15:51:04Z</time></trkpt><trkpt lat="56.04411236400011" lon="22.171029013126486"><ele>133.0</ele><time>2026-04-18T15:51:05Z</time></trkpt><trkpt lat="56.04403713319572" lon="22.171010899583653"><ele>133.0</ele><time>2026-04-18T15:51:06Z</time></trkpt><trkpt lat="56.043962256496435" lon="22.17099286804697"><ele>133.0</ele><time>2026-04-18T15:51:07Z</time></trkpt><trkpt lat="56.043898012873605" lon="22.170991479062195"><ele>133.0</ele><time>2026-04-18T15:51:08Z</time></trkpt><trkpt lat="56.043788532681525" lon="22.170930365881766"><ele>132.8</ele><time>2026-04-18T15:51:10Z</time></trkpt><trkpt lat="56.04368592145292" lon="22.170784479052827"><ele>132.60000000000002</ele><time>2026-04-18T15:51:12Z</time></trkpt><trkpt lat="56.04366131832225" lon="22.170651466728557"><ele>132.39999999999998</ele><time>2026-04-18T15:51:13Z</time></trkpt><trkpt lat="56.04362096448358" lon="22.170506009129724"><ele>132.2</ele><time>2026-04-18T15:51:14Z</time></trkpt><trkpt lat="56.04357390301725" lon="22.170332295473717"><ele>132.0</ele><time>2026-04-18T15:51:15Z</time></trkpt><trkpt lat="56.04351215534519" lon="22.170137686828213"><ele>132.0</ele><time>2026-04-18T15:51:16Z</time></trkpt><trkpt lat="56.04345387731508" lon="22.169923003718043"><ele>132.0</ele><time>2026-04-18T15:51:17Z</time></trkpt><trkpt lat="56.043399964777414" lon="22.16971599434807"><ele>132.0</ele><time>2026-04-18T15:51:18Z</time></trkpt><trkpt lat="56.04334701404643" lon="22.169522649841014"><ele>132.0</ele><time>2026-04-18T15:51:19Z</time></trkpt><trkpt lat="56.043295933323144" lon="22.169344087450668"><ele>132.2</ele><time>2026-04-18T15:51:20Z</time></trkpt><trkpt lat="56.04324280277396" lon="22.16916152903785"><ele>132.39999999999998</ele><time>2026-04-18T15:51:21Z</time></trkpt><trkpt lat="56.043196258739584" lon="22.168990643330623"><ele>132.60000000000002</ele><time>2026-04-18T15:51:22Z</time></trkpt><trkpt lat="56.04315121460188" lon="22.168821560104504"><ele>132.8</ele><time>2026-04-18T15:51:23Z</time></trkpt><trkpt lat="56.04310545313439" lon="22.168651733938404"><ele>133.0</ele><time>2026-04-18T15:51:24Z</time></trkpt><trkpt lat="56.0430658149717" lon="22.16849406240955"><ele>133.0</ele><time>2026-04-18T15:51:25Z</time></trkpt><trkpt lat="56.043027366257704" lon="22.16835253447212"><ele>133.0</ele><time>2026-04-18T15:51:26Z</time></trkpt><trkpt lat="56.04299604911674" lon="22.168241061857888"><ele>133.0</ele><time>2026-04-18T15:51:27Z</time></trkpt><trkpt lat="56.042963705138895" lon="22.168123568792648"><ele>133.0</ele><time>2026-04-18T15:51:28Z</time></trkpt><trkpt lat="56.04292622357442" lon="22.167991448785408"><ele>133.0</ele><time>2026-04-18T15:51:29Z</time></trkpt><trkpt lat="56.042888795474774" lon="22.167856294578534"><ele>133.0</ele><time>2026-04-18T15:51:30Z</time></trkpt><trkpt lat="56.04284627917933" lon="22.16771187696549"><ele>133.0</ele><time>2026-04-18T15:51:31Z</time></trkpt><trkpt lat="56.04280147131112" lon="22.167549331099654"><ele>133.0</ele><time>2026-04-18T15:51:32Z</time></trkpt><trkpt lat="56.04275717286143" lon="22.167380871541525"><ele>133.0</ele><time>2026-04-18T15:51:33Z</time></trkpt><trkpt lat="56.042709601581464" lon="22.167200128005174"><ele>133.0</ele><time>2026-04-18T15:51:34Z</time></trkpt><trkpt lat="56.04265663400926" lon="22.16700860948765"><ele>133.0</ele><time>2026-04-18T15:51:35Z</time></trkpt><trkpt lat="56.04260482903822" lon="22.16681583279309"><ele>133.16666666666669</ele><time>2026-04-18T15:51:36Z</time></trkpt><trkpt lat="56.04255917389702" lon="22.166635262899927"><ele>133.33333333333334</ele><time>2026-04-18T15:51:37Z</time></trkpt><trkpt lat="56.04252157128932" lon="22.16648899874653"><ele>133.5</ele><time>2026-04-18T15:51:38Z</time></trkpt><trkpt lat="56.042488301663155" lon="22.166363984763986"><ele>133.66666666666666</ele><time>2026-04-18T15:51:39Z</time></trkpt><trkpt lat="56.04245616213314" lon="22.166250051201672"><ele>133.83333333333331</ele><time>2026-04-18T15:51:40Z</time></trkpt><trkpt lat="56.042418905024654" lon="22.166141668612916"><ele>134.0</ele><time>2026-04-18T15:51:41Z</time></trkpt><trkpt lat="56.04237620642593" lon="22.166050969719414"><ele>134.66666666666666</ele><time>2026-04-18T15:51:42Z</time></trkpt><trkpt lat="56.04231916016692" lon="22.165967319344208"><ele>135.33333333333331</ele><time>2026-04-18T15:51:43Z</time></trkpt><trkpt lat="56.04224910010882" lon="22.165896342560842"><ele>136.0</ele><time>2026-04-18T15:51:44Z</time></trkpt><trkpt lat="56.04216697038298" lon="22.165859718158185"><ele>136.66666666666666</ele><time>2026-04-18T15:51:45Z</time></trkpt><trkpt lat="56.04207066153421" lon="22.16584790888762"><ele>137.33333333333334</ele><time>2026-04-18T15:51:46Z</time></trkpt><trkpt lat="56.04196232171443" lon="22.165836652896864"><ele>138.0</ele><time>2026-04-18T15:51:47Z</time></trkpt><trkpt lat="56.04187145135027" lon="22.16583198096791"><ele>138.0</ele><time>2026-04-18T15:51:48Z</time></trkpt><trkpt lat="56.04175143966559" lon="22.165816159898856"><ele>138.0</ele><time>2026-04-18T15:51:49Z</time></trkpt><trkpt lat="56.04160317313917" lon="22.165792457930813"><ele>138.0</ele><time>2026-04-18T15:51:50Z</time></trkpt><trkpt lat="56.04143559978344" lon="22.16577873445662"><ele>138.0</ele><time>2026-04-18T15:51:51Z</time></trkpt><trkpt lat="56.04127998158249" lon="22.16576270738978"><ele>138.0</ele><time>2026-04-18T15:51:52Z</time></trkpt><trkpt lat="56.041150110823075" lon="22.16574768719597"><ele>138.0</ele><time>2026-04-18T15:51:53Z</time></trkpt><trkpt lat="56.04104311743593" lon="22.1657363019618"><ele>138.0</ele><time>2026-04-18T15:51:54Z</time></trkpt><trkpt lat="56.04094373837349" lon="22.16572805245771"><ele>138.0</ele><time>2026-04-18T15:51:55Z</time></trkpt><trkpt lat="56.0408526907319" lon="22.16572196396287"><ele>138.0</ele><time>2026-04-18T15:51:56Z</time></trkpt><trkpt lat="56.040751499162354" lon="22.165715214062903"><ele>138.0</ele><time>2026-04-18T15:51:57Z</time></trkpt><trkpt lat="56.04066082366989" lon="22.165705508596208"><ele>138.0</ele><time>2026-04-18T15:51:58Z</time></trkpt><trkpt lat="56.0405796842327" lon="22.16569309964872"><ele>138.0</ele><time>2026-04-18T15:51:59Z</time></trkpt><trkpt lat="56.04049808630561" lon="22.165677847387208"><ele>138.0</ele><time>2026-04-18T15:52:00Z</time></trkpt><trkpt lat="56.04041907506394" lon="22.165666105098975"><ele>138.0</ele><time>2026-04-18T15:52:01Z</time></trkpt><trkpt lat="56.04032476916659" lon="22.16565961936242"><ele>138.0</ele><time>2026-04-18T15:52:02Z</time></trkpt><trkpt lat="56.04023499545461" lon="22.165656092900644"><ele>138.0</ele><time>2026-04-18T15:52:03Z</time></trkpt><trkpt lat="56.04014712403455" lon="22.16565416271793"><ele>138.0</ele><time>2026-04-18T15:52:04Z</time></trkpt><trkpt lat="56.04005778956057" lon="22.16565246593088"><ele>138.0</ele><time>2026-04-18T15:52:05Z</time></trkpt><trkpt lat="56.039964533245794" lon="22.165640489601806"><ele>138.0</ele><time>2026-04-18T15:52:06Z</time></trkpt><trkpt lat="56.039882230010484" lon="22.165625044415634"><ele>138.0</ele><time>2026-04-18T15:52:07Z</time></trkpt><trkpt lat="56.03980050464812" lon="22.165614878926544"><ele>138.0</ele><time>2026-04-18T15:52:08Z</time></trkpt><trkpt lat="56.03971673230404" lon="22.165609610702045"><ele>137.83333333333334</ele><time>2026-04-18T15:52:09Z</time></trkpt><trkpt lat="56.03963299411174" lon="22.16560956897256"><ele>137.66666666666666</ele><time>2026-04-18T15:52:10Z</time></trkpt><trkpt lat="56.039547762404794" lon="22.165609620762385"><ele>137.5</ele><time>2026-04-18T15:52:11Z</time></trkpt><trkpt lat="56.03946109056517" lon="22.16560454950901"><ele>137.33333333333331</ele><time>2026-04-18T15:52:12Z</time></trkpt><trkpt lat="56.03937971640494" lon="22.16559652967137"><ele>137.16666666666666</ele><time>2026-04-18T15:52:13Z</time></trkpt><trkpt lat="56.03929684278888" lon="22.16558507398011"><ele>137.0</ele><time>2026-04-18T15:52:14Z</time></trkpt><trkpt lat="56.03922262216883" lon="22.16557415245313"><ele>137.0</ele><time>2026-04-18T15:52:15Z</time></trkpt><trkpt lat="56.03915070090733" lon="22.16556298295014"><ele>137.0</ele><time>2026-04-18T15:52:16Z</time></trkpt><trkpt lat="56.039083850585506" lon="22.165557063443966"><ele>137.0</ele><time>2026-04-18T15:52:17Z</time></trkpt><trkpt lat="56.03896607117811" lon="22.165587880101477"><ele>137.0</ele><time>2026-04-18T15:52:19Z</time></trkpt><trkpt lat="56.03884855533921" lon="22.165660870813493"><ele>137.0</ele><time>2026-04-18T15:52:21Z</time></trkpt><trkpt lat="56.03878451674131" lon="22.165719687020154"><ele>137.2857142857143</ele><time>2026-04-18T15:52:22Z</time></trkpt><trkpt lat="56.03872213788345" lon="22.165788155575914"><ele>137.57142857142858</ele><time>2026-04-18T15:52:23Z</time></trkpt><trkpt lat="56.0386636201434" lon="22.165851497740256"><ele>137.85714285714286</ele><time>2026-04-18T15:52:24Z</time></trkpt><trkpt lat="56.038603832566984" lon="22.165913500790456"><ele>138.14285714285717</ele><time>2026-04-18T15:52:25Z</time></trkpt><trkpt lat="56.038537500572296" lon="22.16594527652659"><ele>138.42857142857144</ele><time>2026-04-18T15:52:26Z</time></trkpt><trkpt lat="56.03846014993486" lon="22.165951738124566"><ele>138.71428571428572</ele><time>2026-04-18T15:52:27Z</time></trkpt><trkpt lat="56.038398269756485" lon="22.16592379608301"><ele>139.0</ele><time>2026-04-18T15:52:28Z</time></trkpt><trkpt lat="56.03834167120613" lon="22.165859439872193"><ele>139.0</ele><time>2026-04-18T15:52:29Z</time></trkpt><trkpt lat="56.038276076541884" lon="22.165782112590353"><ele>139.0</ele><time>2026-04-18T15:52:30Z</time></trkpt><trkpt lat="56.03818955493754" lon="22.165691406262734"><ele>139.0</ele><time>2026-04-18T15:52:31Z</time></trkpt><trkpt lat="56.03808057157474" lon="22.16557838171731"><ele>139.0</ele><time>2026-04-18T15:52:32Z</time></trkpt><trkpt lat="56.03798522061763" lon="22.165483350024076"><ele>139.0</ele><time>2026-04-18T15:52:33Z</time></trkpt><trkpt lat="56.037897763601165" lon="22.165392753793064"><ele>139.16666666666669</ele><time>2026-04-18T15:52:34Z</time></trkpt><trkpt lat="56.0378214276541" lon="22.165312380215365"><ele>139.33333333333334</ele><time>2026-04-18T15:52:35Z</time></trkpt><trkpt lat="56.03775855430468" lon="22.16524367773605"><ele>139.5</ele><time>2026-04-18T15:52:36Z</time></trkpt><trkpt lat="56.03768030569255" lon="22.16518293228962"><ele>139.66666666666666</ele><time>2026-04-18T15:52:37Z</time></trkpt><trkpt lat="56.0375937251832" lon="22.16510677148166"><ele>139.83333333333331</ele><time>2026-04-18T15:52:38Z</time></trkpt><trkpt lat="56.03749986879179" lon="22.165022744864665"><ele>140.0</ele><time>2026-04-18T15:52:39Z</time></trkpt><trkpt lat="56.03740828806282" lon="22.1649435256447"><ele>140.4</ele><time>2026-04-18T15:52:40Z</time></trkpt><trkpt lat="56.037315395109374" lon="22.164866774010363"><ele>140.8</ele><time>2026-04-18T15:52:41Z</time></trkpt><trkpt lat="56.037224433931186" lon="22.16479137917856"><ele>141.2</ele><time>2026-04-18T15:52:42Z</time></trkpt><trkpt lat="56.03713786291602" lon="22.16471878913051"><ele>141.6</ele><time>2026-04-18T15:52:43Z</time></trkpt><trkpt lat="56.03705573260439" lon="22.16462162041583"><ele>142.0</ele><time>2026-04-18T15:52:44Z</time></trkpt><trkpt lat="56.03696775868674" lon="22.164545650869567"><ele>142.2</ele><time>2026-04-18T15:52:45Z</time></trkpt><trkpt lat="56.036877515163816" lon="22.164467720879678"><ele>142.39999999999998</ele><time>2026-04-18T15:52:46Z</time></trkpt><trkpt lat="56.03678121034849" lon="22.16441752240337"><ele>142.60000000000002</ele><time>2026-04-18T15:52:47Z</time></trkpt><trkpt lat="56.03669502333846" lon="22.164336642736192"><ele>142.8</ele><time>2026-04-18T15:52:48Z</time></trkpt><trkpt lat="56.03661402725593" lon="22.164270252426622"><ele>143.0</ele><time>2026-04-18T15:52:49Z</time></trkpt><trkpt lat="56.0365430322135" lon="22.16421918087547"><ele>142.66666666666666</ele><time>2026-04-18T15:52:50Z</time></trkpt><trkpt lat="56.036481380003025" lon="22.16417197758306"><ele>142.33333333333331</ele><time>2026-04-18T15:52:51Z</time></trkpt><trkpt lat="56.03637640216793" lon="22.16408342763577"><ele>142.0</ele><time>2026-04-18T15:52:53Z</time></trkpt><trkpt lat="56.03631229053925" lon="22.16403819004654"><ele>141.66666666666666</ele><time>2026-04-18T15:52:54Z</time></trkpt><trkpt lat="56.03625080112349" lon="22.16398784354569"><ele>141.33333333333334</ele><time>2026-04-18T15:52:55Z</time></trkpt><trkpt lat="56.03618821224554" lon="22.1639365450013"><ele>141.0</ele><time>2026-04-18T15:52:56Z</time></trkpt><trkpt lat="56.03612754344738" lon="22.163884087307792"><ele>141.66666666666666</ele><time>2026-04-18T15:52:57Z</time></trkpt><trkpt lat="56.03606495653692" lon="22.163836660221843"><ele>142.33333333333334</ele><time>2026-04-18T15:52:58Z</time></trkpt><trkpt lat="56.035963707718274" lon="22.163771081069633"><ele>143.0</ele><time>2026-04-18T15:53:00Z</time></trkpt><trkpt lat="56.03585997412973" lon="22.163707311446032"><ele>143.66666666666669</ele><time>2026-04-18T15:53:02Z</time></trkpt><trkpt lat="56.035798268801074" lon="22.16366996370899"><ele>144.33333333333334</ele><time>2026-04-18T15:53:03Z</time></trkpt><trkpt lat="56.035704528755474" lon="22.163630120759784"><ele>145.0</ele><time>2026-04-18T15:53:05Z</time></trkpt><trkpt lat="56.03563030911773" lon="22.163556729344716"><ele>145.2</ele><time>2026-04-18T15:53:07Z</time></trkpt><trkpt lat="56.03555729716185" lon="22.163727561915934"><ele>145.4</ele><time>2026-04-18T15:53:08Z</time></trkpt><trkpt lat="56.03547774367676" lon="22.163860331308076"><ele>145.6</ele><time>2026-04-18T15:53:10Z</time></trkpt><trkpt lat="56.035380134018055" lon="22.164014135159675"><ele>145.8</ele><time>2026-04-18T15:53:12Z</time></trkpt><trkpt lat="56.035323332964346" lon="22.164114755627004"><ele>146.0</ele><time>2026-04-18T15:53:13Z</time></trkpt><trkpt lat="56.03526918085128" lon="22.164206830631798"><ele>146.0</ele><time>2026-04-18T15:53:14Z</time></trkpt><trkpt lat="56.0352192074824" lon="22.164290977855256"><ele>146.0</ele><time>2026-04-18T15:53:15Z</time></trkpt><trkpt lat="56.0351677688306" lon="22.164381899684685"><ele>146.0</ele><time>2026-04-18T15:53:16Z</time></trkpt><trkpt lat="56.0351187694674" lon="22.164469807348215"><ele>146.0</ele><time>2026-04-18T15:53:17Z</time></trkpt><trkpt lat="56.035025374781405" lon="22.164630114239646"><ele>146.0</ele><time>2026-04-18T15:53:19Z</time></trkpt><trkpt lat="56.034983293054644" lon="22.164720543195997"><ele>146.0</ele><time>2026-04-18T15:53:20Z</time></trkpt><trkpt lat="56.034929871927275" lon="22.164824526493778"><ele>146.16666666666666</ele><time>2026-04-18T15:53:21Z</time></trkpt><trkpt lat="56.03485151906454" lon="22.164969844518662"><ele>146.33333333333331</ele><time>2026-04-18T15:53:23Z</time></trkpt><trkpt lat="56.03480604352838" lon="22.16505184710441"><ele>146.5</ele><time>2026-04-18T15:53:24Z</time></trkpt><trkpt lat="56.034751291185266" lon="22.165157238729208"><ele>146.66666666666666</ele><time>2026-04-18T15:53:25Z</time></trkpt><trkpt lat="56.03468219120649" lon="22.165286510407213"><ele>146.83333333333334</ele><time>2026-04-18T15:53:26Z</time></trkpt><trkpt lat="56.03462224692263" lon="22.16540422682924"><ele>147.0</ele><time>2026-04-18T15:53:27Z</time></trkpt><trkpt lat="56.03457533142757" lon="22.165516208560987"><ele>147.0</ele><time>2026-04-18T15:53:28Z</time></trkpt><trkpt lat="56.034526987274475" lon="22.16559228941405"><ele>147.0</ele><time>2026-04-18T15:53:29Z</time></trkpt><trkpt lat="56.03451462928303" lon="22.165738040587417"><ele>147.0</ele><time>2026-04-18T15:53:30Z</time></trkpt><trkpt lat="56.03449557821983" lon="22.165874505888272"><ele>147.0</ele><time>2026-04-18T15:53:31Z</time></trkpt><trkpt lat="56.03448615495091" lon="22.16603478742695"><ele>147.0</ele><time>2026-04-18T15:53:32Z</time></trkpt><trkpt lat="56.03448213159968" lon="22.166191641470316"><ele>147.0</ele><time>2026-04-18T15:53:33Z</time></trkpt><trkpt lat="56.034478070567125" lon="22.166396924925632"><ele>147.0</ele><time>2026-04-18T15:53:34Z</time></trkpt><trkpt lat="56.03447644186691" lon="22.16660926651175"><ele>147.0</ele><time>2026-04-18T15:53:35Z</time></trkpt><trkpt lat="56.03446989109847" lon="22.166820763194906"><ele>147.0</ele><time>2026-04-18T15:53:36Z</time></trkpt><trkpt lat="56.03446412053285" lon="22.167038706591736"><ele>147.0</ele><time>2026-04-18T15:53:37Z</time></trkpt><trkpt lat="56.034461110786175" lon="22.167253844155454"><ele>146.5</ele><time>2026-04-18T15:53:38Z</time></trkpt><trkpt lat="56.03445528424529" lon="22.167464882668405"><ele>146.0</ele><time>2026-04-18T15:53:39Z</time></trkpt><trkpt lat="56.03445076793546" lon="22.167678447105224"><ele>145.5</ele><time>2026-04-18T15:53:40Z</time></trkpt><trkpt lat="56.034445429456284" lon="22.16788889481988"><ele>145.0</ele><time>2026-04-18T15:53:41Z</time></trkpt><trkpt lat="56.03443805763715" lon="22.16809129225446"><ele>145.0</ele><time>2026-04-18T15:53:42Z</time></trkpt><trkpt lat="56.03443219580046" lon="22.16829981890313"><ele>145.0</ele><time>2026-04-18T15:53:43Z</time></trkpt><trkpt lat="56.03442687045997" lon="22.16849317801278"><ele>145.0</ele><time>2026-04-18T15:53:44Z</time></trkpt><trkpt lat="56.03442396056044" lon="22.168697070995453"><ele>145.0</ele><time>2026-04-18T15:53:45Z</time></trkpt><trkpt lat="56.034420190588726" lon="22.168899456930564"><ele>144.5</ele><time>2026-04-18T15:53:46Z</time></trkpt><trkpt lat="56.03441313755675" lon="22.16910644647205"><ele>144.0</ele><time>2026-04-18T15:53:47Z</time></trkpt><trkpt lat="56.03440827923527" lon="22.1693282825469"><ele>143.5</ele><time>2026-04-18T15:53:48Z</time></trkpt><trkpt lat="56.034400636325856" lon="22.169547841582215"><ele>143.0</ele><time>2026-04-18T15:53:49Z</time></trkpt><trkpt lat="56.03439266423578" lon="22.169768122724268"><ele>142.75</ele><time>2026-04-18T15:53:50Z</time></trkpt><trkpt lat="56.03438784778202" lon="22.16998643591577"><ele>142.5</ele><time>2026-04-18T15:53:51Z</time></trkpt><trkpt lat="56.034382984372854" lon="22.170194383682528"><ele>142.25</ele><time>2026-04-18T15:53:52Z</time></trkpt><trkpt lat="56.03437335718185" lon="22.170399574638477"><ele>142.0</ele><time>2026-04-18T15:53:53Z</time></trkpt><trkpt lat="56.03436528691562" lon="22.17060434094216"><ele>142.0</ele><time>2026-04-18T15:53:54Z</time></trkpt><trkpt lat="56.034361891130864" lon="22.170804697927114"><ele>142.0</ele><time>2026-04-18T15:53:55Z</time></trkpt><trkpt lat="56.03435800002956" lon="22.170998600730268"><ele>142.0</ele><time>2026-04-18T15:53:56Z</time></trkpt><trkpt lat="56.03435463072702" lon="22.1711981599012"><ele>142.0</ele><time>2026-04-18T15:53:57Z</time></trkpt><trkpt lat="56.03435182350368" lon="22.171395229302618"><ele>142.0</ele><time>2026-04-18T15:53:58Z</time></trkpt><trkpt lat="56.034346507395" lon="22.171594909562238"><ele>142.4</ele><time>2026-04-18T15:53:59Z</time></trkpt><trkpt lat="56.03433979495965" lon="22.171798800062692"><ele>142.79999999999998</ele><time>2026-04-18T15:54:00Z</time></trkpt><trkpt lat="56.03433328780507" lon="22.171995929902018"><ele>143.2</ele><time>2026-04-18T15:54:01Z</time></trkpt><trkpt lat="56.03432811799285" lon="22.172189256827096"><ele>143.6</ele><time>2026-04-18T15:54:02Z</time></trkpt><trkpt lat="56.03432400506662" lon="22.172382049685087"><ele>144.0</ele><time>2026-04-18T15:54:03Z</time></trkpt><trkpt lat="56.034317865591" lon="22.17257978319261"><ele>144.0</ele><time>2026-04-18T15:54:04Z</time></trkpt><trkpt lat="56.03431366816213" lon="22.1727805503732"><ele>144.0</ele><time>2026-04-18T15:54:05Z</time></trkpt><trkpt lat="56.03430575997373" lon="22.17298160403609"><ele>144.0</ele><time>2026-04-18T15:54:06Z</time></trkpt><trkpt lat="56.03430011833388" lon="22.173183020223817"><ele>144.0</ele><time>2026-04-18T15:54:07Z</time></trkpt><trkpt lat="56.03429270725934" lon="22.173383873939528"><ele>144.0</ele><time>2026-04-18T15:54:08Z</time></trkpt><trkpt lat="56.03428975058163" lon="22.17358556310053"><ele>144.0</ele><time>2026-04-18T15:54:09Z</time></trkpt><trkpt lat="56.034289366071185" lon="22.17378472590302"><ele>144.0</ele><time>2026-04-18T15:54:10Z</time></trkpt><trkpt lat="56.0342852082589" lon="22.173988490221298"><ele>144.0</ele><time>2026-04-18T15:54:11Z</time></trkpt><trkpt lat="56.03428078626043" lon="22.17418824254106"><ele>143.5</ele><time>2026-04-18T15:54:12Z</time></trkpt><trkpt lat="56.03427416415974" lon="22.174396153818734"><ele>143.0</ele><time>2026-04-18T15:54:13Z</time></trkpt><trkpt lat="56.0342681592462" lon="22.17460080799901"><ele>142.5</ele><time>2026-04-18T15:54:14Z</time></trkpt><trkpt lat="56.03425408502896" lon="22.174806239231494"><ele>142.0</ele><time>2026-04-18T15:54:15Z</time></trkpt><trkpt lat="56.034238016643435" lon="22.1750033526721"><ele>142.0</ele><time>2026-04-18T15:54:16Z</time></trkpt><trkpt lat="56.03422169878421" lon="22.175195467921377"><ele>142.0</ele><time>2026-04-18T15:54:17Z</time></trkpt><trkpt lat="56.03420340323542" lon="22.17537089346891"><ele>142.0</ele><time>2026-04-18T15:54:18Z</time></trkpt><trkpt lat="56.03417482802175" lon="22.175553856134627"><ele>142.0</ele><time>2026-04-18T15:54:19Z</time></trkpt><trkpt lat="56.034139659884154" lon="22.175736588811187"><ele>142.0</ele><time>2026-04-18T15:54:20Z</time></trkpt><trkpt lat="56.03409097550601" lon="22.17593826679521"><ele>142.0</ele><time>2026-04-18T15:54:21Z</time></trkpt><trkpt lat="56.0340270725651" lon="22.176095636259728"><ele>142.0</ele><time>2026-04-18T15:54:22Z</time></trkpt><trkpt lat="56.03398441062462" lon="22.17628209892158"><ele>142.0</ele><time>2026-04-18T15:54:23Z</time></trkpt><trkpt lat="56.03392724882492" lon="22.176463743854143"><ele>142.0</ele><time>2026-04-18T15:54:24Z</time></trkpt><trkpt lat="56.03386185914495" lon="22.17664647765902"><ele>142.2</ele><time>2026-04-18T15:54:25Z</time></trkpt><trkpt lat="56.03380068519884" lon="22.176817311871933"><ele>142.39999999999998</ele><time>2026-04-18T15:54:26Z</time></trkpt><trkpt lat="56.03373956863797" lon="22.176985201791233"><ele>142.60000000000002</ele><time>2026-04-18T15:54:27Z</time></trkpt><trkpt lat="56.03367637430929" lon="22.177142849761562"><ele>142.8</ele><time>2026-04-18T15:54:28Z</time></trkpt><trkpt lat="56.033618318244145" lon="22.177311684605826"><ele>143.0</ele><time>2026-04-18T15:54:29Z</time></trkpt><trkpt lat="56.03355827019785" lon="22.177482072644462"><ele>143.20000000000002</ele><time>2026-04-18T15:54:30Z</time></trkpt><trkpt lat="56.03349848743213" lon="22.177648364816736"><ele>143.4</ele><time>2026-04-18T15:54:31Z</time></trkpt><trkpt lat="56.03344061821596" lon="22.177816513685325"><ele>143.60000000000002</ele><time>2026-04-18T15:54:32Z</time></trkpt><trkpt lat="56.033375372944946" lon="22.177983599160147"><ele>143.8</ele><time>2026-04-18T15:54:33Z</time></trkpt><trkpt lat="56.033312586314516" lon="22.1781448524315"><ele>144.0</ele><time>2026-04-18T15:54:34Z</time></trkpt><trkpt lat="56.03324835450287" lon="22.178312131060384"><ele>144.0</ele><time>2026-04-18T15:54:35Z</time></trkpt><trkpt lat="56.03318822030519" lon="22.178478067711467"><ele>144.0</ele><time>2026-04-18T15:54:36Z</time></trkpt><trkpt lat="56.03313056494626" lon="22.178641709771245"><ele>144.0</ele><time>2026-04-18T15:54:37Z</time></trkpt><trkpt lat="56.033072826157685" lon="22.178807108587154"><ele>144.0</ele><time>2026-04-18T15:54:38Z</time></trkpt><trkpt lat="56.033015305064566" lon="22.17897267890457"><ele>144.0</ele><time>2026-04-18T15:54:39Z</time></trkpt><trkpt lat="56.03295647495682" lon="22.179141252192725"><ele>144.0</ele><time>2026-04-18T15:54:40Z</time></trkpt><trkpt lat="56.03289848378934" lon="22.17931174261798"><ele>144.0</ele><time>2026-04-18T15:54:41Z</time></trkpt><trkpt lat="56.03284541850907" lon="22.179465755312595"><ele>144.0</ele><time>2026-04-18T15:54:42Z</time></trkpt><trkpt lat="56.0327931922025" lon="22.179624963816668"><ele>144.0</ele><time>2026-04-18T15:54:43Z</time></trkpt><trkpt lat="56.03273882228619" lon="22.17979217697192"><ele>144.0</ele><time>2026-04-18T15:54:44Z</time></trkpt><trkpt lat="56.03268552279252" lon="22.179968358788688"><ele>144.25</ele><time>2026-04-18T15:54:45Z</time></trkpt><trkpt lat="56.032628007748386" lon="22.180155287951685"><ele>144.5</ele><time>2026-04-18T15:54:46Z</time></trkpt><trkpt lat="56.03257004580774" lon="22.180337049735908"><ele>144.75</ele><time>2026-04-18T15:54:47Z</time></trkpt><trkpt lat="56.032499380519766" lon="22.180510760432124"><ele>145.0</ele><time>2026-04-18T15:54:48Z</time></trkpt><trkpt lat="56.03245226673109" lon="22.180708981129495"><ele>145.0</ele><time>2026-04-18T15:54:49Z</time></trkpt><trkpt lat="56.03239668353544" lon="22.18087925286083"><ele>145.0</ele><time>2026-04-18T15:54:50Z</time></trkpt><trkpt lat="56.032343196275384" lon="22.181055373115804"><ele>145.0</ele><time>2026-04-18T15:54:51Z</time></trkpt><trkpt lat="56.0322918770546" lon="22.18123196725338"><ele>145.0</ele><time>2026-04-18T15:54:52Z</time></trkpt><trkpt lat="56.03223623737342" lon="22.181403195347396"><ele>145.0</ele><time>2026-04-18T15:54:53Z</time></trkpt><trkpt lat="56.03217076355868" lon="22.181569179403294"><ele>144.75</ele><time>2026-04-18T15:54:54Z</time></trkpt><trkpt lat="56.03211591898172" lon="22.181746056867272"><ele>144.5</ele><time>2026-04-18T15:54:55Z</time></trkpt><trkpt lat="56.03205857148204" lon="22.181929658447714"><ele>144.25</ele><time>2026-04-18T15:54:56Z</time></trkpt><trkpt lat="56.03201283595673" lon="22.18212838176404"><ele>144.0</ele><time>2026-04-18T15:54:57Z</time></trkpt><trkpt lat="56.031950865562315" lon="22.182315740016637"><ele>144.0</ele><time>2026-04-18T15:54:58Z</time></trkpt><trkpt lat="56.03189393544757" lon="22.182501046945518"><ele>144.0</ele><time>2026-04-18T15:54:59Z</time></trkpt><trkpt lat="56.03183717689249" lon="22.182687294532286"><ele>144.0</ele><time>2026-04-18T15:55:00Z</time></trkpt><trkpt lat="56.031782263346074" lon="22.18286517501781"><ele>144.0</ele><time>2026-04-18T15:55:01Z</time></trkpt><trkpt lat="56.031725212958236" lon="22.183046603079127"><ele>144.2</ele><time>2026-04-18T15:55:02Z</time></trkpt><trkpt lat="56.03166672219594" lon="22.183228358227797"><ele>144.4</ele><time>2026-04-18T15:55:03Z</time></trkpt><trkpt lat="56.031612204502565" lon="22.1833914798582"><ele>144.6</ele><time>2026-04-18T15:55:04Z</time></trkpt><trkpt lat="56.0315564811363" lon="22.1835598465808"><ele>144.8</ele><time>2026-04-18T15:55:05Z</time></trkpt><trkpt lat="56.031500253581164" lon="22.183726333431924"><ele>145.0</ele><time>2026-04-18T15:55:06Z</time></trkpt><trkpt lat="56.031447290432816" lon="22.18389321230675"><ele>145.6</ele><time>2026-04-18T15:55:07Z</time></trkpt><trkpt lat="56.03139700485834" lon="22.18405733824663"><ele>146.2</ele><time>2026-04-18T15:55:08Z</time></trkpt><trkpt lat="56.031345545801194" lon="22.184231120972495"><ele>146.8</ele><time>2026-04-18T15:55:09Z</time></trkpt><trkpt lat="56.031297776174036" lon="22.184395132594997"><ele>147.4</ele><time>2026-04-18T15:55:10Z</time></trkpt><trkpt lat="56.03125132300147" lon="22.184562833352565"><ele>148.0</ele><time>2026-04-18T15:55:11Z</time></trkpt><trkpt lat="56.03119854720419" lon="22.184739083782798"><ele>148.8</ele><time>2026-04-18T15:55:12Z</time></trkpt><trkpt lat="56.031144517909375" lon="22.18490202447432"><ele>149.60000000000002</ele><time>2026-04-18T15:55:13Z</time></trkpt><trkpt lat="56.031091579791585" lon="22.185062485416005"><ele>150.39999999999998</ele><time>2026-04-18T15:55:14Z</time></trkpt><trkpt lat="56.03104058418432" lon="22.18522747902433"><ele>151.2</ele><time>2026-04-18T15:55:15Z</time></trkpt><trkpt lat="56.03099249055423" lon="22.18538885574674"><ele>152.0</ele><time>2026-04-18T15:55:16Z</time></trkpt><trkpt lat="56.03093879348324" lon="22.185564501256135"><ele>152.2</ele><time>2026-04-18T15:55:17Z</time></trkpt><trkpt lat="56.03088513187813" lon="22.185729702696488"><ele>152.39999999999998</ele><time>2026-04-18T15:55:18Z</time></trkpt><trkpt lat="56.0308308276713" lon="22.185899904655187"><ele>152.60000000000002</ele><time>2026-04-18T15:55:19Z</time></trkpt><trkpt lat="56.030772736784186" lon="22.186081137969197"><ele>152.8</ele><time>2026-04-18T15:55:20Z</time></trkpt><trkpt lat="56.03071886354938" lon="22.186264808239244"><ele>153.0</ele><time>2026-04-18T15:55:21Z</time></trkpt><trkpt lat="56.03066124929061" lon="22.18644162715062"><ele>153.4</ele><time>2026-04-18T15:55:22Z</time></trkpt><trkpt lat="56.030605447148154" lon="22.18660878371925"><ele>153.8</ele><time>2026-04-18T15:55:23Z</time></trkpt><trkpt lat="56.03055146798551" lon="22.186760263856026"><ele>154.2</ele><time>2026-04-18T15:55:24Z</time></trkpt><trkpt lat="56.030498155267665" lon="22.18691097595128"><ele>154.6</ele><time>2026-04-18T15:55:25Z</time></trkpt><trkpt lat="56.030441309885504" lon="22.187075496572213"><ele>155.0</ele><time>2026-04-18T15:55:26Z</time></trkpt><trkpt lat="56.03039256994657" lon="22.187217263583705"><ele>154.6</ele><time>2026-04-18T15:55:27Z</time></trkpt><trkpt lat="56.03034421030261" lon="22.18735819376085"><ele>154.2</ele><time>2026-04-18T15:55:28Z</time></trkpt><trkpt lat="56.030289404530386" lon="22.187516571371212"><ele>153.8</ele><time>2026-04-18T15:55:29Z</time></trkpt><trkpt lat="56.03023484579968" lon="22.18767773886261"><ele>153.4</ele><time>2026-04-18T15:55:30Z</time></trkpt><trkpt lat="56.030181702269104" lon="22.18784002904538"><ele>153.0</ele><time>2026-04-18T15:55:31Z</time></trkpt><trkpt lat="56.03012658592498" lon="22.188009750662662"><ele>152.8</ele><time>2026-04-18T15:55:32Z</time></trkpt><trkpt lat="56.030069188496256" lon="22.1881847604584"><ele>152.60000000000002</ele><time>2026-04-18T15:55:33Z</time></trkpt><trkpt lat="56.03000893151626" lon="22.188363679639508"><ele>152.39999999999998</ele><time>2026-04-18T15:55:34Z</time></trkpt><trkpt lat="56.02995282772442" lon="22.188526569784976"><ele>152.2</ele><time>2026-04-18T15:55:35Z</time></trkpt><trkpt lat="56.029896318969925" lon="22.188696828937303"><ele>152.0</ele><time>2026-04-18T15:55:36Z</time></trkpt><trkpt lat="56.02983847963897" lon="22.188870337039234"><ele>151.4</ele><time>2026-04-18T15:55:37Z</time></trkpt><trkpt lat="56.02977955661857" lon="22.189057298207622"><ele>150.79999999999998</ele><time>2026-04-18T15:55:38Z</time></trkpt><trkpt lat="56.0297225080178" lon="22.189236655646656"><ele>150.2</ele><time>2026-04-18T15:55:39Z</time></trkpt><trkpt lat="56.02966492441634" lon="22.189415030208522"><ele>149.6</ele><time>2026-04-18T15:55:40Z</time></trkpt><trkpt lat="56.029621266647226" lon="22.189548257224473"><ele>149.0</ele><time>2026-04-18T15:55:41Z</time></trkpt><trkpt lat="56.02957100094002" lon="22.189699158058662"><ele>149.0</ele><time>2026-04-18T15:55:42Z</time></trkpt><trkpt lat="56.02951895536862" lon="22.189854834454245"><ele>149.0</ele><time>2026-04-18T15:55:43Z</time></trkpt><trkpt lat="56.02947054189261" lon="22.19000139739568"><ele>149.0</ele><time>2026-04-18T15:55:44Z</time></trkpt><trkpt lat="56.029427684040876" lon="22.190143626784703"><ele>149.0</ele><time>2026-04-18T15:55:45Z</time></trkpt><trkpt lat="56.02938710156365" lon="22.19028096125449"><ele>149.0</ele><time>2026-04-18T15:55:46Z</time></trkpt><trkpt lat="56.0293533872881" lon="22.190398347675668"><ele>149.0</ele><time>2026-04-18T15:55:47Z</time></trkpt><trkpt lat="56.029291490798286" lon="22.19055958877232"><ele>149.5</ele><time>2026-04-18T15:55:49Z</time></trkpt><trkpt lat="56.0294199786789" lon="22.190774287420012"><ele>150.0</ele><time>2026-04-18T15:55:53Z</time></trkpt><trkpt lat="56.02954316739205" lon="22.19080749585747"><ele>150.5</ele><time>2026-04-18T15:55:55Z</time></trkpt><trkpt lat="56.02962494772804" lon="22.19082098331371"><ele>151.0</ele><time>2026-04-18T15:55:56Z</time></trkpt><trkpt lat="56.02971538836465" lon="22.190837411701786"><ele>151.0</ele><time>2026-04-18T15:55:57Z</time></trkpt><trkpt lat="56.02980420956109" lon="22.19086248766703"><ele>151.0</ele><time>2026-04-18T15:55:58Z</time></trkpt><trkpt lat="56.02989011107771" lon="22.190895678889973"><ele>151.0</ele><time>2026-04-18T15:55:59Z</time></trkpt><trkpt lat="56.02996411400769" lon="22.1909258026474"><ele>151.0</ele><time>2026-04-18T15:56:00Z</time></trkpt><trkpt lat="56.03004222072721" lon="22.19095519514932"><ele>151.0</ele><time>2026-04-18T15:56:01Z</time></trkpt><trkpt lat="56.03011784301296" lon="22.19098213166251"><ele>151.0</ele><time>2026-04-18T15:56:02Z</time></trkpt><trkpt lat="56.03019992565402" lon="22.19100757168146"><ele>151.33333333333334</ele><time>2026-04-18T15:56:03Z</time></trkpt><trkpt lat="56.03027494991221" lon="22.19102711156578"><ele>151.66666666666669</ele><time>2026-04-18T15:56:04Z</time></trkpt><trkpt lat="56.03035229532714" lon="22.191051138006713"><ele>152.0</ele><time>2026-04-18T15:56:05Z</time></trkpt><trkpt lat="56.03042866989744" lon="22.191081151014284"><ele>152.33333333333334</ele><time>2026-04-18T15:56:06Z</time></trkpt><trkpt lat="56.030496962810844" lon="22.191103163902092"><ele>152.66666666666666</ele><time>2026-04-18T15:56:07Z</time></trkpt><trkpt lat="56.030579021378365" lon="22.19112916911216"><ele>153.0</ele><time>2026-04-18T15:56:08Z</time></trkpt><trkpt lat="56.030642533739524" lon="22.19114832189538"><ele>153.0</ele><time>2026-04-18T15:56:09Z</time></trkpt><trkpt lat="56.03073244461485" lon="22.191169736476173"><ele>153.0</ele><time>2026-04-18T15:56:11Z</time></trkpt><trkpt lat="56.030802639438946" lon="22.19123191143319"><ele>153.0</ele><time>2026-04-18T15:56:14Z</time></trkpt><trkpt lat="56.03078076005492" lon="22.191410854851483"><ele>153.0</ele><time>2026-04-18T15:56:16Z</time></trkpt><trkpt lat="56.030775923693184" lon="22.19161986675642"><ele>153.0</ele><time>2026-04-18T15:56:18Z</time></trkpt><trkpt lat="56.030771524886596" lon="22.191809968470405"><ele>153.20000000000002</ele><time>2026-04-18T15:56:20Z</time></trkpt><trkpt lat="56.030766143951034" lon="22.192042514596338"><ele>153.4</ele><time>2026-04-18T15:56:22Z</time></trkpt><trkpt lat="56.03076136606692" lon="22.19225600208095"><ele>153.60000000000002</ele><time>2026-04-18T15:56:24Z</time></trkpt><trkpt lat="56.03075874150242" lon="22.192375113923493"><ele>153.8</ele><time>2026-04-18T15:56:25Z</time></trkpt><trkpt lat="56.03075399386851" lon="22.192602378497337"><ele>154.0</ele><time>2026-04-18T15:56:27Z</time></trkpt><trkpt lat="56.03075147276801" lon="22.192716951492002"><ele>154.0</ele><time>2026-04-18T15:56:28Z</time></trkpt><trkpt lat="56.03074678107661" lon="22.1929302040364"><ele>154.0</ele><time>2026-04-18T15:56:30Z</time></trkpt><trkpt lat="56.03074219301492" lon="22.193138745838876"><ele>154.0</ele><time>2026-04-18T15:56:32Z</time></trkpt><trkpt lat="56.03074753745572" lon="22.19329888906247"><ele>154.0</ele><time>2026-04-18T15:56:34Z</time></trkpt><trkpt lat="56.03087994437113" lon="22.193362646949524"><ele>154.0</ele><time>2026-04-18T15:56:40Z</time></trkpt></trkseg></trk></gpx>